<?xml version='1.0' encoding='UTF-8'?><gpx version="1.1" creator="JPX - https://github.com/jenetics/jpx" xmlns="http://www.topografix.com/GPX/1/1"><trk><trkseg><trkpt lat="43.8924648" lon="12.8853176"><ele>11.0</ele><time>2026-04-19T07:03:55.599Z</time></trkpt><trkpt lat="43.89304" lon="12.8853306"><ele>11.0</ele><time>2026-04-19T07:03:58.879Z</time></trkpt><trkpt lat="43.89277" lon="12.8856553"><ele>11.0</ele><time>2026-04-19T07:04:24.771Z</time></trkpt><trkpt lat="43.8931499" lon="12.8851595"><ele>11.0</ele><time>2026-04-19T07:04:41.145Z</time></trkpt><trkpt lat="43.8927781" lon="12.8854144"><ele>11.0</ele><time>2026-04-19T07:04:43.21Z</time></trkpt><trkpt lat="43.8927107" lon="12.8854164"><ele>11.0</ele><time>2026-04-19T07:04:59.243Z</time></trkpt><trkpt lat="43.8926693" lon="12.8853286"><ele>11.0</ele><time>2026-04-19T07:05:01.193Z</time></trkpt><trkpt lat="43.8926882" lon="12.8851794"><ele>11.0</ele><time>2026-04-19T07:05:03.203Z</time></trkpt><trkpt lat="43.8927234" lon="12.8850807"><ele>11.0</ele><time>2026-04-19T07:05:04.189Z</time></trkpt><trkpt lat="43.8927838" lon="12.8849996"><ele>11.0</ele><time>2026-04-19T07:05:05.207Z</time></trkpt><trkpt lat="43.8928699" lon="12.8849142"><ele>10.8</ele><time>2026-04-19T07:05:06.191Z</time></trkpt><trkpt lat="43.8929494" lon="12.8848305"><ele>10.600000000000001</ele><time>2026-04-19T07:05:07.377Z</time></trkpt><trkpt lat="43.8931108" lon="12.8847835"><ele>10.4</ele><time>2026-04-19T07:05:09.205Z</time></trkpt><trkpt lat="43.8932032" lon="12.8847845"><ele>10.2</ele><time>2026-04-19T07:05:10.221Z</time></trkpt><trkpt lat="43.8932848" lon="12.8847918"><ele>10.0</ele><time>2026-04-19T07:05:11.186Z</time></trkpt><trkpt lat="43.8933575" lon="12.8847839"><ele>10.0</ele><time>2026-04-19T07:05:12.192Z</time></trkpt><trkpt lat="43.8934242" lon="12.884747"><ele>10.0</ele><time>2026-04-19T07:05:13.2Z</time></trkpt><trkpt lat="43.893478" lon="12.8846873"><ele>10.0</ele><time>2026-04-19T07:05:14.202Z</time></trkpt><trkpt lat="43.8935144" lon="12.8846023"><ele>10.0</ele><time>2026-04-19T07:05:15.194Z</time></trkpt><trkpt lat="43.8935662" lon="12.8844311"><ele>10.0</ele><time>2026-04-19T07:05:17.193Z</time></trkpt><trkpt lat="43.8935806" lon="12.8843326"><ele>10.0</ele><time>2026-04-19T07:05:18.191Z</time></trkpt><trkpt lat="43.8935632" lon="12.8842431"><ele>10.0</ele><time>2026-04-19T07:05:19.18Z</time></trkpt><trkpt lat="43.8935302" lon="12.8840944"><ele>10.0</ele><time>2026-04-19T07:05:21.194Z</time></trkpt><trkpt lat="43.8934536" lon="12.8839726"><ele>10.0</ele><time>2026-04-19T07:05:23.198Z</time></trkpt><trkpt lat="43.8933851" lon="12.8838963"><ele>10.0</ele><time>2026-04-19T07:05:24.194Z</time></trkpt><trkpt lat="43.8933163" lon="12.8838457"><ele>10.0</ele><time>2026-04-19T07:05:25.195Z</time></trkpt><trkpt lat="43.8932386" lon="12.8838303"><ele>9.5</ele><time>2026-04-19T07:05:26.193Z</time></trkpt><trkpt lat="43.8931628" lon="12.8838301"><ele>9.0</ele><time>2026-04-19T07:05:27.194Z</time></trkpt><trkpt lat="43.8930628" lon="12.883845"><ele>8.5</ele><time>2026-04-19T07:05:29.191Z</time></trkpt><trkpt lat="43.8929954" lon="12.8838702"><ele>8.0</ele><time>2026-04-19T07:05:31.197Z</time></trkpt><trkpt lat="43.8929254" lon="12.883895"><ele>7.500000000000001</ele><time>2026-04-19T07:05:34.191Z</time></trkpt><trkpt lat="43.892802" lon="12.8838591"><ele>7.0</ele><time>2026-04-19T07:05:36.19Z</time></trkpt><trkpt lat="43.8926657" lon="12.8837756"><ele>7.0</ele><time>2026-04-19T07:05:38.017Z</time></trkpt><trkpt lat="43.8925921" lon="12.8837152"><ele>6.999999999999999</ele><time>2026-04-19T07:05:39.105Z</time></trkpt><trkpt lat="43.8925156" lon="12.8836433"><ele>6.999999999999999</ele><time>2026-04-19T07:05:40.102Z</time></trkpt><trkpt lat="43.8924483" lon="12.8835874"><ele>7.0</ele><time>2026-04-19T07:05:41.037Z</time></trkpt><trkpt lat="43.8923719" lon="12.8835174"><ele>7.0</ele><time>2026-04-19T07:05:42.007Z</time></trkpt><trkpt lat="43.8922788" lon="12.883447"><ele>7.8</ele><time>2026-04-19T07:05:42.993Z</time></trkpt><trkpt lat="43.892185" lon="12.8833505"><ele>8.6</ele><time>2026-04-19T07:05:44.009Z</time></trkpt><trkpt lat="43.8921018" lon="12.8832801"><ele>9.4</ele><time>2026-04-19T07:05:45.023Z</time></trkpt><trkpt lat="43.892039" lon="12.883166"><ele>10.200000000000001</ele><time>2026-04-19T07:05:46.021Z</time></trkpt><trkpt lat="43.8919867" lon="12.8830213"><ele>11.0</ele><time>2026-04-19T07:05:47.023Z</time></trkpt><trkpt lat="43.8919511" lon="12.8828676"><ele>11.0</ele><time>2026-04-19T07:05:48.029Z</time></trkpt><trkpt lat="43.8919379" lon="12.8827151"><ele>11.0</ele><time>2026-04-19T07:05:49.022Z</time></trkpt><trkpt lat="43.8919354" lon="12.8825731"><ele>11.0</ele><time>2026-04-19T07:05:50.019Z</time></trkpt><trkpt lat="43.8919336" lon="12.8824497"><ele>11.0</ele><time>2026-04-19T07:05:51.024Z</time></trkpt><trkpt lat="43.8919403" lon="12.8823333"><ele>11.0</ele><time>2026-04-19T07:05:52.026Z</time></trkpt><trkpt lat="43.8919406" lon="12.8822104"><ele>11.166666666666666</ele><time>2026-04-19T07:05:53.03Z</time></trkpt><trkpt lat="43.891946" lon="12.8820901"><ele>11.333333333333332</ele><time>2026-04-19T07:05:54.031Z</time></trkpt><trkpt lat="43.8919473" lon="12.8819694"><ele>11.5</ele><time>2026-04-19T07:05:55.023Z</time></trkpt><trkpt lat="43.8919486" lon="12.8818503"><ele>11.666666666666666</ele><time>2026-04-19T07:05:56.024Z</time></trkpt><trkpt lat="43.8919517" lon="12.8817305"><ele>11.833333333333334</ele><time>2026-04-19T07:05:57.029Z</time></trkpt><trkpt lat="43.8919658" lon="12.8816071"><ele>12.0</ele><time>2026-04-19T07:05:58.031Z</time></trkpt><trkpt lat="43.8919913" lon="12.881501"><ele>12.0</ele><time>2026-04-19T07:05:59.025Z</time></trkpt><trkpt lat="43.8920134" lon="12.8813901"><ele>12.0</ele><time>2026-04-19T07:06:00.026Z</time></trkpt><trkpt lat="43.8920406" lon="12.881282"><ele>12.0</ele><time>2026-04-19T07:06:01.024Z</time></trkpt><trkpt lat="43.8920678" lon="12.8811796"><ele>12.0</ele><time>2026-04-19T07:06:02.017Z</time></trkpt><trkpt lat="43.8921075" lon="12.8810812"><ele>12.0</ele><time>2026-04-19T07:06:03.026Z</time></trkpt><trkpt lat="43.8921497" lon="12.8809806"><ele>12.0</ele><time>2026-04-19T07:06:04.029Z</time></trkpt><trkpt lat="43.8922031" lon="12.880883"><ele>12.0</ele><time>2026-04-19T07:06:05.023Z</time></trkpt><trkpt lat="43.8922559" lon="12.8807813"><ele>12.0</ele><time>2026-04-19T07:06:06.026Z</time></trkpt><trkpt lat="43.8923174" lon="12.8806766"><ele>12.0</ele><time>2026-04-19T07:06:07.02Z</time></trkpt><trkpt lat="43.8923789" lon="12.8805715"><ele>12.0</ele><time>2026-04-19T07:06:08.022Z</time></trkpt><trkpt lat="43.8924439" lon="12.8804582"><ele>12.0</ele><time>2026-04-19T07:06:09.025Z</time></trkpt><trkpt lat="43.8925156" lon="12.8803357"><ele>11.75</ele><time>2026-04-19T07:06:10.033Z</time></trkpt><trkpt lat="43.8925918" lon="12.8801961"><ele>11.5</ele><time>2026-04-19T07:06:11.036Z</time></trkpt><trkpt lat="43.8926594" lon="12.8800559"><ele>11.25</ele><time>2026-04-19T07:06:12.041Z</time></trkpt><trkpt lat="43.8927192" lon="12.8799062"><ele>11.0</ele><time>2026-04-19T07:06:13.024Z</time></trkpt><trkpt lat="43.8927653" lon="12.8797435"><ele>11.25</ele><time>2026-04-19T07:06:14.034Z</time></trkpt><trkpt lat="43.8927929" lon="12.8795628"><ele>11.5</ele><time>2026-04-19T07:06:15.025Z</time></trkpt><trkpt lat="43.8927978" lon="12.8793758"><ele>11.75</ele><time>2026-04-19T07:06:16.019Z</time></trkpt><trkpt lat="43.8927922" lon="12.8791809"><ele>12.0</ele><time>2026-04-19T07:06:17.02Z</time></trkpt><trkpt lat="43.892777" lon="12.8789858"><ele>12.0</ele><time>2026-04-19T07:06:18.03Z</time></trkpt><trkpt lat="43.8927626" lon="12.8787806"><ele>12.0</ele><time>2026-04-19T07:06:19.029Z</time></trkpt><trkpt lat="43.8927413" lon="12.8785638"><ele>12.0</ele><time>2026-04-19T07:06:20.021Z</time></trkpt><trkpt lat="43.8927274" lon="12.8783496"><ele>11.666666666666666</ele><time>2026-04-19T07:06:21.026Z</time></trkpt><trkpt lat="43.8927129" lon="12.8781356"><ele>11.333333333333332</ele><time>2026-04-19T07:06:22.023Z</time></trkpt><trkpt lat="43.8927054" lon="12.8779141"><ele>11.0</ele><time>2026-04-19T07:06:23.033Z</time></trkpt><trkpt lat="43.892679" lon="12.877695"><ele>10.333333333333332</ele><time>2026-04-19T07:06:24.024Z</time></trkpt><trkpt lat="43.8926621" lon="12.8774653"><ele>9.666666666666666</ele><time>2026-04-19T07:06:25.026Z</time></trkpt><trkpt lat="43.8926535" lon="12.8772414"><ele>9.0</ele><time>2026-04-19T07:06:26.025Z</time></trkpt><trkpt lat="43.8926445" lon="12.8770255"><ele>9.0</ele><time>2026-04-19T07:06:27.026Z</time></trkpt><trkpt lat="43.8926405" lon="12.8768139"><ele>9.0</ele><time>2026-04-19T07:06:28.028Z</time></trkpt><trkpt lat="43.8926273" lon="12.8766095"><ele>9.0</ele><time>2026-04-19T07:06:29.027Z</time></trkpt><trkpt lat="43.8926226" lon="12.8764196"><ele>9.0</ele><time>2026-04-19T07:06:30.029Z</time></trkpt><trkpt lat="43.8926339" lon="12.8762494"><ele>9.5</ele><time>2026-04-19T07:06:31.024Z</time></trkpt><trkpt lat="43.8926585" lon="12.8760797"><ele>10.0</ele><time>2026-04-19T07:06:32.025Z</time></trkpt><trkpt lat="43.8927051" lon="12.8759214"><ele>10.5</ele><time>2026-04-19T07:06:33.017Z</time></trkpt><trkpt lat="43.8927729" lon="12.8757723"><ele>11.0</ele><time>2026-04-19T07:06:34.019Z</time></trkpt><trkpt lat="43.8928506" lon="12.87563"><ele>12.0</ele><time>2026-04-19T07:06:35.022Z</time></trkpt><trkpt lat="43.8929313" lon="12.8754911"><ele>13.0</ele><time>2026-04-19T07:06:36.029Z</time></trkpt><trkpt lat="43.893014" lon="12.8753484"><ele>14.0</ele><time>2026-04-19T07:06:37.022Z</time></trkpt><trkpt lat="43.8931043" lon="12.8752027"><ele>15.0</ele><time>2026-04-19T07:06:38.026Z</time></trkpt><trkpt lat="43.8931879" lon="12.8750684"><ele>15.0</ele><time>2026-04-19T07:06:39.024Z</time></trkpt><trkpt lat="43.8932687" lon="12.8749307"><ele>15.0</ele><time>2026-04-19T07:06:40.026Z</time></trkpt><trkpt lat="43.8933471" lon="12.8747904"><ele>15.0</ele><time>2026-04-19T07:06:41.039Z</time></trkpt><trkpt lat="43.8934266" lon="12.87465"><ele>15.0</ele><time>2026-04-19T07:06:42.028Z</time></trkpt><trkpt lat="43.8935025" lon="12.8745075"><ele>14.5</ele><time>2026-04-19T07:06:43.039Z</time></trkpt><trkpt lat="43.8935768" lon="12.8743529"><ele>14.0</ele><time>2026-04-19T07:06:44.023Z</time></trkpt><trkpt lat="43.8936456" lon="12.8741916"><ele>13.5</ele><time>2026-04-19T07:06:45.027Z</time></trkpt><trkpt lat="43.8936828" lon="12.8740226"><ele>13.0</ele><time>2026-04-19T07:06:46.027Z</time></trkpt><trkpt lat="43.8936797" lon="12.8738522"><ele>13.0</ele><time>2026-04-19T07:06:47.05Z</time></trkpt><trkpt lat="43.8936436" lon="12.8736805"><ele>13.0</ele><time>2026-04-19T07:06:48.136Z</time></trkpt><trkpt lat="43.893574" lon="12.8735053"><ele>13.0</ele><time>2026-04-19T07:06:49.043Z</time></trkpt><trkpt lat="43.8934807" lon="12.8733476"><ele>13.0</ele><time>2026-04-19T07:06:50.025Z</time></trkpt><trkpt lat="43.8933831" lon="12.8732017"><ele>12.333333333333332</ele><time>2026-04-19T07:06:51.027Z</time></trkpt><trkpt lat="43.8932649" lon="12.8730568"><ele>11.666666666666666</ele><time>2026-04-19T07:06:52.018Z</time></trkpt><trkpt lat="43.8931405" lon="12.8729168"><ele>11.0</ele><time>2026-04-19T07:06:53.019Z</time></trkpt><trkpt lat="43.8930183" lon="12.8727657"><ele>11.0</ele><time>2026-04-19T07:06:54.018Z</time></trkpt><trkpt lat="43.8929021" lon="12.8726139"><ele>11.0</ele><time>2026-04-19T07:06:55.028Z</time></trkpt><trkpt lat="43.8928074" lon="12.8724793"><ele>11.0</ele><time>2026-04-19T07:06:56.026Z</time></trkpt><trkpt lat="43.8926968" lon="12.8723393"><ele>11.0</ele><time>2026-04-19T07:06:57.022Z</time></trkpt><trkpt lat="43.8925783" lon="12.8721952"><ele>11.25</ele><time>2026-04-19T07:06:58.027Z</time></trkpt><trkpt lat="43.8924839" lon="12.8720492"><ele>11.5</ele><time>2026-04-19T07:06:59.032Z</time></trkpt><trkpt lat="43.8923787" lon="12.8719024"><ele>11.75</ele><time>2026-04-19T07:07:00.019Z</time></trkpt><trkpt lat="43.892283" lon="12.8717594"><ele>12.0</ele><time>2026-04-19T07:07:01.031Z</time></trkpt><trkpt lat="43.8921839" lon="12.871604"><ele>12.0</ele><time>2026-04-19T07:07:02.021Z</time></trkpt><trkpt lat="43.8920796" lon="12.8714613"><ele>12.0</ele><time>2026-04-19T07:07:03.02Z</time></trkpt><trkpt lat="43.8919672" lon="12.8713191"><ele>12.0</ele><time>2026-04-19T07:07:04.025Z</time></trkpt><trkpt lat="43.8918599" lon="12.8711641"><ele>13.333333333333332</ele><time>2026-04-19T07:07:05.028Z</time></trkpt><trkpt lat="43.8917458" lon="12.8710115"><ele>14.666666666666666</ele><time>2026-04-19T07:07:06.024Z</time></trkpt><trkpt lat="43.8916257" lon="12.8708826"><ele>16.0</ele><time>2026-04-19T07:07:07.028Z</time></trkpt><trkpt lat="43.8914863" lon="12.8707891"><ele>16.0</ele><time>2026-04-19T07:07:08.029Z</time></trkpt><trkpt lat="43.8913386" lon="12.87074"><ele>16.0</ele><time>2026-04-19T07:07:09.034Z</time></trkpt><trkpt lat="43.8911742" lon="12.8707394"><ele>16.0</ele><time>2026-04-19T07:07:10.023Z</time></trkpt><trkpt lat="43.8910037" lon="12.8707499"><ele>16.333333333333332</ele><time>2026-04-19T07:07:11.032Z</time></trkpt><trkpt lat="43.890836" lon="12.8707539"><ele>16.666666666666668</ele><time>2026-04-19T07:07:12.024Z</time></trkpt><trkpt lat="43.8906832" lon="12.8707457"><ele>17.0</ele><time>2026-04-19T07:07:13.029Z</time></trkpt><trkpt lat="43.8905369" lon="12.8707033"><ele>17.0</ele><time>2026-04-19T07:07:14.04Z</time></trkpt><trkpt lat="43.8903936" lon="12.870636"><ele>17.0</ele><time>2026-04-19T07:07:15.021Z</time></trkpt><trkpt lat="43.890275" lon="12.8705221"><ele>17.0</ele><time>2026-04-19T07:07:16.027Z</time></trkpt><trkpt lat="43.8901744" lon="12.8703501"><ele>17.0</ele><time>2026-04-19T07:07:17.026Z</time></trkpt><trkpt lat="43.8900926" lon="12.8701527"><ele>17.0</ele><time>2026-04-19T07:07:18.028Z</time></trkpt><trkpt lat="43.890013" lon="12.8699598"><ele>17.0</ele><time>2026-04-19T07:07:19.021Z</time></trkpt><trkpt lat="43.8899303" lon="12.86977"><ele>16.5</ele><time>2026-04-19T07:07:20.016Z</time></trkpt><trkpt lat="43.8898485" lon="12.8696065"><ele>16.0</ele><time>2026-04-19T07:07:21.025Z</time></trkpt><trkpt lat="43.8897774" lon="12.8694688"><ele>15.5</ele><time>2026-04-19T07:07:22.019Z</time></trkpt><trkpt lat="43.889713" lon="12.8693387"><ele>15.0</ele><time>2026-04-19T07:07:23.023Z</time></trkpt><trkpt lat="43.889659" lon="12.8692178"><ele>14.833333333333334</ele><time>2026-04-19T07:07:24.023Z</time></trkpt><trkpt lat="43.8896156" lon="12.8691086"><ele>14.666666666666668</ele><time>2026-04-19T07:07:25.019Z</time></trkpt><trkpt lat="43.8895875" lon="12.8689911"><ele>14.5</ele><time>2026-04-19T07:07:26.026Z</time></trkpt><trkpt lat="43.8896077" lon="12.8688927"><ele>14.333333333333334</ele><time>2026-04-19T07:07:27.023Z</time></trkpt><trkpt lat="43.8896416" lon="12.8688009"><ele>14.166666666666668</ele><time>2026-04-19T07:07:28.022Z</time></trkpt><trkpt lat="43.8896238" lon="12.8686463"><ele>14.0</ele><time>2026-04-19T07:07:30.03Z</time></trkpt><trkpt lat="43.8895453" lon="12.8686063"><ele>14.0</ele><time>2026-04-19T07:07:31.023Z</time></trkpt><trkpt lat="43.8894478" lon="12.8685872"><ele>13.999999999999998</ele><time>2026-04-19T07:07:32.028Z</time></trkpt><trkpt lat="43.8893306" lon="12.8685765"><ele>13.999999999999998</ele><time>2026-04-19T07:07:33.018Z</time></trkpt><trkpt lat="43.889224" lon="12.8685785"><ele>14.0</ele><time>2026-04-19T07:07:34.02Z</time></trkpt><trkpt lat="43.889128" lon="12.8685901"><ele>14.0</ele><time>2026-04-19T07:07:35.019Z</time></trkpt><trkpt lat="43.8890355" lon="12.8686135"><ele>14.2</ele><time>2026-04-19T07:07:36.021Z</time></trkpt><trkpt lat="43.8889496" lon="12.8686409"><ele>14.399999999999999</ele><time>2026-04-19T07:07:37.019Z</time></trkpt><trkpt lat="43.8888701" lon="12.8686646"><ele>14.6</ele><time>2026-04-19T07:07:38.031Z</time></trkpt><trkpt lat="43.8888077" lon="12.8686942"><ele>14.8</ele><time>2026-04-19T07:07:39.021Z</time></trkpt><trkpt lat="43.8886915" lon="12.8687465"><ele>15.0</ele><time>2026-04-19T07:07:41.023Z</time></trkpt><trkpt lat="43.8885744" lon="12.8687786"><ele>15.0</ele><time>2026-04-19T07:07:43.024Z</time></trkpt><trkpt lat="43.8885137" lon="12.8687383"><ele>15.0</ele><time>2026-04-19T07:07:44.022Z</time></trkpt><trkpt lat="43.8884298" lon="12.8686692"><ele>15.0</ele><time>2026-04-19T07:07:45.045Z</time></trkpt><trkpt lat="43.8883428" lon="12.8686092"><ele>15.0</ele><time>2026-04-19T07:07:46.018Z</time></trkpt><trkpt lat="43.8882586" lon="12.8685289"><ele>15.0</ele><time>2026-04-19T07:07:47.025Z</time></trkpt><trkpt lat="43.8881731" lon="12.8684283"><ele>15.5</ele><time>2026-04-19T07:07:48.029Z</time></trkpt><trkpt lat="43.8880971" lon="12.8682881"><ele>16.0</ele><time>2026-04-19T07:07:49.024Z</time></trkpt><trkpt lat="43.8880239" lon="12.868102"><ele>16.5</ele><time>2026-04-19T07:07:50.018Z</time></trkpt><trkpt lat="43.887946" lon="12.8679078"><ele>17.0</ele><time>2026-04-19T07:07:51.026Z</time></trkpt><trkpt lat="43.887857" lon="12.8676803"><ele>16.333333333333336</ele><time>2026-04-19T07:07:52.013Z</time></trkpt><trkpt lat="43.8877613" lon="12.8674659"><ele>15.666666666666668</ele><time>2026-04-19T07:07:53.027Z</time></trkpt><trkpt lat="43.887676" lon="12.8672289"><ele>15.0</ele><time>2026-04-19T07:07:54.025Z</time></trkpt><trkpt lat="43.8876004" lon="12.8669848"><ele>15.666666666666668</ele><time>2026-04-19T07:07:55.018Z</time></trkpt><trkpt lat="43.887528" lon="12.8667477"><ele>16.333333333333336</ele><time>2026-04-19T07:07:56.025Z</time></trkpt><trkpt lat="43.887447" lon="12.8665075"><ele>17.0</ele><time>2026-04-19T07:07:57.026Z</time></trkpt><trkpt lat="43.8873571" lon="12.866281"><ele>17.0</ele><time>2026-04-19T07:07:58.023Z</time></trkpt><trkpt lat="43.8872719" lon="12.8660702"><ele>17.0</ele><time>2026-04-19T07:07:59.02Z</time></trkpt><trkpt lat="43.887197" lon="12.8658717"><ele>17.0</ele><time>2026-04-19T07:08:00.014Z</time></trkpt><trkpt lat="43.887128" lon="12.8656649"><ele>17.333333333333336</ele><time>2026-04-19T07:08:01.012Z</time></trkpt><trkpt lat="43.8870564" lon="12.8654597"><ele>17.666666666666668</ele><time>2026-04-19T07:08:02.021Z</time></trkpt><trkpt lat="43.8869873" lon="12.8652644"><ele>18.0</ele><time>2026-04-19T07:08:03.022Z</time></trkpt><trkpt lat="43.8869193" lon="12.8650752"><ele>18.0</ele><time>2026-04-19T07:08:04.023Z</time></trkpt><trkpt lat="43.8868399" lon="12.864894"><ele>18.0</ele><time>2026-04-19T07:08:05.019Z</time></trkpt><trkpt lat="43.8867601" lon="12.8647106"><ele>18.0</ele><time>2026-04-19T07:08:06.023Z</time></trkpt><trkpt lat="43.8866908" lon="12.8645286"><ele>18.333333333333332</ele><time>2026-04-19T07:08:07.023Z</time></trkpt><trkpt lat="43.8866153" lon="12.8643426"><ele>18.666666666666664</ele><time>2026-04-19T07:08:08.026Z</time></trkpt><trkpt lat="43.8865325" lon="12.8641585"><ele>19.0</ele><time>2026-04-19T07:08:09.022Z</time></trkpt><trkpt lat="43.8864401" lon="12.863974"><ele>19.0</ele><time>2026-04-19T07:08:10.026Z</time></trkpt><trkpt lat="43.8863469" lon="12.8637784"><ele>19.0</ele><time>2026-04-19T07:08:11.03Z</time></trkpt><trkpt lat="43.8862492" lon="12.8635987"><ele>19.0</ele><time>2026-04-19T07:08:12.029Z</time></trkpt><trkpt lat="43.8861503" lon="12.8634188"><ele>18.666666666666664</ele><time>2026-04-19T07:08:13.024Z</time></trkpt><trkpt lat="43.8860563" lon="12.8632424"><ele>18.333333333333332</ele><time>2026-04-19T07:08:14.022Z</time></trkpt><trkpt lat="43.8859692" lon="12.8630617"><ele>18.0</ele><time>2026-04-19T07:08:15.037Z</time></trkpt><trkpt lat="43.8858664" lon="12.8628826"><ele>18.0</ele><time>2026-04-19T07:08:16.02Z</time></trkpt><trkpt lat="43.8857795" lon="12.8626906"><ele>18.0</ele><time>2026-04-19T07:08:17.024Z</time></trkpt><trkpt lat="43.8856827" lon="12.8624993"><ele>18.0</ele><time>2026-04-19T07:08:18.03Z</time></trkpt><trkpt lat="43.8855814" lon="12.8623165"><ele>18.25</ele><time>2026-04-19T07:08:19.018Z</time></trkpt><trkpt lat="43.8854942" lon="12.8621425"><ele>18.5</ele><time>2026-04-19T07:08:20.022Z</time></trkpt><trkpt lat="43.8854149" lon="12.8620009"><ele>18.75</ele><time>2026-04-19T07:08:21.028Z</time></trkpt><trkpt lat="43.8853481" lon="12.861871"><ele>19.0</ele><time>2026-04-19T07:08:22.014Z</time></trkpt><trkpt lat="43.8853099" lon="12.8617367"><ele>19.0</ele><time>2026-04-19T07:08:23.032Z</time></trkpt><trkpt lat="43.8852882" lon="12.861578"><ele>19.0</ele><time>2026-04-19T07:08:24.022Z</time></trkpt><trkpt lat="43.8852592" lon="12.8614273"><ele>19.0</ele><time>2026-04-19T07:08:25.024Z</time></trkpt><trkpt lat="43.8852055" lon="12.8612929"><ele>19.0</ele><time>2026-04-19T07:08:26.022Z</time></trkpt><trkpt lat="43.8851073" lon="12.8611722"><ele>19.666666666666664</ele><time>2026-04-19T07:08:27.026Z</time></trkpt><trkpt lat="43.8849967" lon="12.8610696"><ele>20.333333333333332</ele><time>2026-04-19T07:08:28.021Z</time></trkpt><trkpt lat="43.8848558" lon="12.8609495"><ele>21.0</ele><time>2026-04-19T07:08:29.019Z</time></trkpt><trkpt lat="43.8847198" lon="12.8607844"><ele>21.666666666666668</ele><time>2026-04-19T07:08:30.024Z</time></trkpt><trkpt lat="43.8845895" lon="12.8605942"><ele>22.333333333333336</ele><time>2026-04-19T07:08:31.02Z</time></trkpt><trkpt lat="43.8844667" lon="12.8603643"><ele>23.0</ele><time>2026-04-19T07:08:32.022Z</time></trkpt><trkpt lat="43.8843415" lon="12.8601333"><ele>22.0</ele><time>2026-04-19T07:08:33.014Z</time></trkpt><trkpt lat="43.8842114" lon="12.8598904"><ele>21.0</ele><time>2026-04-19T07:08:34.028Z</time></trkpt><trkpt lat="43.8840733" lon="12.8596511"><ele>20.0</ele><time>2026-04-19T07:08:35.023Z</time></trkpt><trkpt lat="43.8839515" lon="12.8594136"><ele>20.666666666666668</ele><time>2026-04-19T07:08:36.022Z</time></trkpt><trkpt lat="43.8838269" lon="12.8591857"><ele>21.333333333333332</ele><time>2026-04-19T07:08:37.018Z</time></trkpt><trkpt lat="43.8837142" lon="12.858971"><ele>22.0</ele><time>2026-04-19T07:08:38.018Z</time></trkpt><trkpt lat="43.8836023" lon="12.8587662"><ele>22.0</ele><time>2026-04-19T07:08:39.027Z</time></trkpt><trkpt lat="43.8834873" lon="12.8585783"><ele>22.0</ele><time>2026-04-19T07:08:40.023Z</time></trkpt><trkpt lat="43.8833791" lon="12.8583929"><ele>22.0</ele><time>2026-04-19T07:08:41.041Z</time></trkpt><trkpt lat="43.883274" lon="12.8582002"><ele>21.666666666666664</ele><time>2026-04-19T07:08:42.028Z</time></trkpt><trkpt lat="43.8831831" lon="12.8580083"><ele>21.333333333333332</ele><time>2026-04-19T07:08:43.029Z</time></trkpt><trkpt lat="43.8830765" lon="12.8578146"><ele>21.0</ele><time>2026-04-19T07:08:44.029Z</time></trkpt><trkpt lat="43.8829733" lon="12.8576317"><ele>21.0</ele><time>2026-04-19T07:08:45.02Z</time></trkpt><trkpt lat="43.8828755" lon="12.857446"><ele>21.0</ele><time>2026-04-19T07:08:46.03Z</time></trkpt><trkpt lat="43.8827694" lon="12.8572531"><ele>21.0</ele><time>2026-04-19T07:08:47.017Z</time></trkpt><trkpt lat="43.8826612" lon="12.8570477"><ele>21.666666666666668</ele><time>2026-04-19T07:08:48.015Z</time></trkpt><trkpt lat="43.8825461" lon="12.8568368"><ele>22.333333333333336</ele><time>2026-04-19T07:08:49.015Z</time></trkpt><trkpt lat="43.8824309" lon="12.8566137"><ele>23.0</ele><time>2026-04-19T07:08:50.017Z</time></trkpt><trkpt lat="43.8823036" lon="12.8563909"><ele>23.0</ele><time>2026-04-19T07:08:51.012Z</time></trkpt><trkpt lat="43.8821823" lon="12.8561547"><ele>23.0</ele><time>2026-04-19T07:08:52.025Z</time></trkpt><trkpt lat="43.8820643" lon="12.8559368"><ele>23.0</ele><time>2026-04-19T07:08:53.01Z</time></trkpt><trkpt lat="43.8819466" lon="12.8557118"><ele>23.0</ele><time>2026-04-19T07:08:54.014Z</time></trkpt><trkpt lat="43.8818235" lon="12.85548"><ele>23.0</ele><time>2026-04-19T07:08:55.018Z</time></trkpt><trkpt lat="43.8816961" lon="12.8552378"><ele>23.0</ele><time>2026-04-19T07:08:56.014Z</time></trkpt><trkpt lat="43.8815707" lon="12.8550035"><ele>23.0</ele><time>2026-04-19T07:08:57.018Z</time></trkpt><trkpt lat="43.8814411" lon="12.8547657"><ele>23.0</ele><time>2026-04-19T07:08:58.019Z</time></trkpt><trkpt lat="43.881316" lon="12.8545273"><ele>23.0</ele><time>2026-04-19T07:08:59.018Z</time></trkpt><trkpt lat="43.8811863" lon="12.8542898"><ele>23.0</ele><time>2026-04-19T07:09:00.035Z</time></trkpt><trkpt lat="43.8810603" lon="12.8540582"><ele>23.0</ele><time>2026-04-19T07:09:01.028Z</time></trkpt><trkpt lat="43.880925" lon="12.8538309"><ele>23.0</ele><time>2026-04-19T07:09:02.033Z</time></trkpt><trkpt lat="43.8807996" lon="12.8536015"><ele>22.0</ele><time>2026-04-19T07:09:03.026Z</time></trkpt><trkpt lat="43.8806698" lon="12.8533581"><ele>21.0</ele><time>2026-04-19T07:09:04.026Z</time></trkpt><trkpt lat="43.880535" lon="12.8531154"><ele>20.0</ele><time>2026-04-19T07:09:05.015Z</time></trkpt><trkpt lat="43.8803911" lon="12.852871"><ele>20.0</ele><time>2026-04-19T07:09:06.029Z</time></trkpt><trkpt lat="43.8802765" lon="12.8526427"><ele>20.0</ele><time>2026-04-19T07:09:07.019Z</time></trkpt><trkpt lat="43.8801477" lon="12.8524021"><ele>20.0</ele><time>2026-04-19T07:09:08.021Z</time></trkpt><trkpt lat="43.8800129" lon="12.8521586"><ele>20.0</ele><time>2026-04-19T07:09:09.025Z</time></trkpt><trkpt lat="43.8798734" lon="12.8519009"><ele>20.0</ele><time>2026-04-19T07:09:10.028Z</time></trkpt><trkpt lat="43.8797156" lon="12.8516063"><ele>20.0</ele><time>2026-04-19T07:09:11.023Z</time></trkpt><trkpt lat="43.8795531" lon="12.851308"><ele>20.0</ele><time>2026-04-19T07:09:12.019Z</time></trkpt><trkpt lat="43.8793909" lon="12.8510001"><ele>23.5</ele><time>2026-04-19T07:09:13.018Z</time></trkpt><trkpt lat="43.8792339" lon="12.8506817"><ele>27.0</ele><time>2026-04-19T07:09:14.015Z</time></trkpt><trkpt lat="43.8790757" lon="12.8504021"><ele>27.0</ele><time>2026-04-19T07:09:15.018Z</time></trkpt><trkpt lat="43.8789138" lon="12.8501251"><ele>27.0</ele><time>2026-04-19T07:09:16.022Z</time></trkpt><trkpt lat="43.878755" lon="12.849824"><ele>26.5</ele><time>2026-04-19T07:09:17.042Z</time></trkpt><trkpt lat="43.878593" lon="12.8495215"><ele>26.0</ele><time>2026-04-19T07:09:18.018Z</time></trkpt><trkpt lat="43.8784293" lon="12.8492296"><ele>24.5</ele><time>2026-04-19T07:09:19.026Z</time></trkpt><trkpt lat="43.8782721" lon="12.8489357"><ele>23.0</ele><time>2026-04-19T07:09:20.017Z</time></trkpt><trkpt lat="43.8781173" lon="12.848644"><ele>23.0</ele><time>2026-04-19T07:09:21.019Z</time></trkpt><trkpt lat="43.8779573" lon="12.8483425"><ele>23.0</ele><time>2026-04-19T07:09:22.023Z</time></trkpt><trkpt lat="43.8777979" lon="12.8480454"><ele>23.0</ele><time>2026-04-19T07:09:23.02Z</time></trkpt><trkpt lat="43.8776369" lon="12.8477614"><ele>23.0</ele><time>2026-04-19T07:09:24.021Z</time></trkpt><trkpt lat="43.8774793" lon="12.847464"><ele>22.5</ele><time>2026-04-19T07:09:25.019Z</time></trkpt><trkpt lat="43.8773176" lon="12.8471684"><ele>22.0</ele><time>2026-04-19T07:09:26.021Z</time></trkpt><trkpt lat="43.8771562" lon="12.8468747"><ele>22.5</ele><time>2026-04-19T07:09:27.026Z</time></trkpt><trkpt lat="43.8769886" lon="12.846567"><ele>23.0</ele><time>2026-04-19T07:09:28.024Z</time></trkpt><trkpt lat="43.8768325" lon="12.8462737"><ele>23.0</ele><time>2026-04-19T07:09:29.015Z</time></trkpt><trkpt lat="43.8766673" lon="12.8459752"><ele>23.0</ele><time>2026-04-19T07:09:30.021Z</time></trkpt><trkpt lat="43.8764895" lon="12.8456733"><ele>23.0</ele><time>2026-04-19T07:09:31.018Z</time></trkpt><trkpt lat="43.8763269" lon="12.8453752"><ele>23.0</ele><time>2026-04-19T07:09:32.019Z</time></trkpt><trkpt lat="43.8761612" lon="12.8450809"><ele>23.5</ele><time>2026-04-19T07:09:33.026Z</time></trkpt><trkpt lat="43.8760005" lon="12.8447781"><ele>24.0</ele><time>2026-04-19T07:09:34.031Z</time></trkpt><trkpt lat="43.8758351" lon="12.8444665"><ele>24.0</ele><time>2026-04-19T07:09:35.024Z</time></trkpt><trkpt lat="43.8756697" lon="12.8441629"><ele>24.0</ele><time>2026-04-19T07:09:36.026Z</time></trkpt><trkpt lat="43.8755048" lon="12.843854"><ele>24.0</ele><time>2026-04-19T07:09:37.03Z</time></trkpt><trkpt lat="43.8753403" lon="12.8435509"><ele>24.0</ele><time>2026-04-19T07:09:38.021Z</time></trkpt><trkpt lat="43.8751788" lon="12.8432617"><ele>25.5</ele><time>2026-04-19T07:09:39.028Z</time></trkpt><trkpt lat="43.8750218" lon="12.8429826"><ele>27.0</ele><time>2026-04-19T07:09:40.023Z</time></trkpt><trkpt lat="43.8748804" lon="12.8427229"><ele>26.5</ele><time>2026-04-19T07:09:41.028Z</time></trkpt><trkpt lat="43.8747403" lon="12.8424707"><ele>26.0</ele><time>2026-04-19T07:09:42.025Z</time></trkpt><trkpt lat="43.874608" lon="12.8422089"><ele>26.0</ele><time>2026-04-19T07:09:43.024Z</time></trkpt><trkpt lat="43.8744752" lon="12.8419567"><ele>26.0</ele><time>2026-04-19T07:09:44.022Z</time></trkpt><trkpt lat="43.8743392" lon="12.8417061"><ele>26.0</ele><time>2026-04-19T07:09:45.025Z</time></trkpt><trkpt lat="43.8742065" lon="12.8414498"><ele>26.0</ele><time>2026-04-19T07:09:46.022Z</time></trkpt><trkpt lat="43.8740656" lon="12.8412001"><ele>27.0</ele><time>2026-04-19T07:09:47.028Z</time></trkpt><trkpt lat="43.8739243" lon="12.8409412"><ele>28.0</ele><time>2026-04-19T07:09:48.044Z</time></trkpt><trkpt lat="43.8737811" lon="12.8406791"><ele>28.0</ele><time>2026-04-19T07:09:49.028Z</time></trkpt><trkpt lat="43.8736312" lon="12.8404198"><ele>28.0</ele><time>2026-04-19T07:09:50.027Z</time></trkpt><trkpt lat="43.873489" lon="12.8401493"><ele>27.5</ele><time>2026-04-19T07:09:51.025Z</time></trkpt><trkpt lat="43.8733481" lon="12.8398757"><ele>27.0</ele><time>2026-04-19T07:09:52.026Z</time></trkpt><trkpt lat="43.8732066" lon="12.8395948"><ele>27.0</ele><time>2026-04-19T07:09:53.029Z</time></trkpt><trkpt lat="43.8730733" lon="12.8393179"><ele>27.0</ele><time>2026-04-19T07:09:54.028Z</time></trkpt><trkpt lat="43.8729372" lon="12.8390442"><ele>25.5</ele><time>2026-04-19T07:09:55.023Z</time></trkpt><trkpt lat="43.872794" lon="12.8387617"><ele>24.0</ele><time>2026-04-19T07:09:56.03Z</time></trkpt><trkpt lat="43.8726604" lon="12.8384804"><ele>24.5</ele><time>2026-04-19T07:09:57.022Z</time></trkpt><trkpt lat="43.8725215" lon="12.8381991"><ele>25.0</ele><time>2026-04-19T07:09:58.021Z</time></trkpt><trkpt lat="43.8723824" lon="12.8379209"><ele>25.0</ele><time>2026-04-19T07:09:59.02Z</time></trkpt><trkpt lat="43.8722407" lon="12.8376451"><ele>25.0</ele><time>2026-04-19T07:10:00.021Z</time></trkpt><trkpt lat="43.8720903" lon="12.83736"><ele>24.0</ele><time>2026-04-19T07:10:01.025Z</time></trkpt><trkpt lat="43.8719471" lon="12.8370854"><ele>23.0</ele><time>2026-04-19T07:10:02.027Z</time></trkpt><trkpt lat="43.8718056" lon="12.8367975"><ele>24.0</ele><time>2026-04-19T07:10:03.024Z</time></trkpt><trkpt lat="43.8716593" lon="12.8365117"><ele>25.0</ele><time>2026-04-19T07:10:04.033Z</time></trkpt><trkpt lat="43.871512" lon="12.83623"><ele>25.0</ele><time>2026-04-19T07:10:05.027Z</time></trkpt><trkpt lat="43.8713688" lon="12.8359453"><ele>25.0</ele><time>2026-04-19T07:10:06.025Z</time></trkpt><trkpt lat="43.8712327" lon="12.83567"><ele>25.0</ele><time>2026-04-19T07:10:07.025Z</time></trkpt><trkpt lat="43.8711062" lon="12.8354088"><ele>25.0</ele><time>2026-04-19T07:10:08.022Z</time></trkpt><trkpt lat="43.8709737" lon="12.8351562"><ele>27.0</ele><time>2026-04-19T07:10:09.028Z</time></trkpt><trkpt lat="43.8708417" lon="12.8349095"><ele>29.0</ele><time>2026-04-19T07:10:10.028Z</time></trkpt><trkpt lat="43.8707228" lon="12.8346629"><ele>31.0</ele><time>2026-04-19T07:10:11.037Z</time></trkpt><trkpt lat="43.8705943" lon="12.8344137"><ele>30.666666666666668</ele><time>2026-04-19T07:10:12.027Z</time></trkpt><trkpt lat="43.8704782" lon="12.8341818"><ele>30.333333333333336</ele><time>2026-04-19T07:10:13.027Z</time></trkpt><trkpt lat="43.8703676" lon="12.8339601"><ele>30.0</ele><time>2026-04-19T07:10:14.028Z</time></trkpt><trkpt lat="43.8702731" lon="12.8337558"><ele>30.0</ele><time>2026-04-19T07:10:15.026Z</time></trkpt><trkpt lat="43.8701823" lon="12.8335671"><ele>30.0</ele><time>2026-04-19T07:10:16.03Z</time></trkpt><trkpt lat="43.8700942" lon="12.8334004"><ele>30.0</ele><time>2026-04-19T07:10:17.023Z</time></trkpt><trkpt lat="43.8700119" lon="12.8332462"><ele>29.0</ele><time>2026-04-19T07:10:18.024Z</time></trkpt><trkpt lat="43.8699421" lon="12.8331023"><ele>28.0</ele><time>2026-04-19T07:10:19.037Z</time></trkpt><trkpt lat="43.8698742" lon="12.8329622"><ele>27.0</ele><time>2026-04-19T07:10:20.027Z</time></trkpt><trkpt lat="43.8698078" lon="12.8328276"><ele>26.0</ele><time>2026-04-19T07:10:21.027Z</time></trkpt><trkpt lat="43.8697365" lon="12.8326892"><ele>26.5</ele><time>2026-04-19T07:10:22.028Z</time></trkpt><trkpt lat="43.8696655" lon="12.8325317"><ele>27.0</ele><time>2026-04-19T07:10:23.028Z</time></trkpt><trkpt lat="43.8695869" lon="12.8323701"><ele>27.5</ele><time>2026-04-19T07:10:24.023Z</time></trkpt><trkpt lat="43.8695066" lon="12.832207"><ele>28.0</ele><time>2026-04-19T07:10:25.027Z</time></trkpt><trkpt lat="43.8694208" lon="12.8320443"><ele>28.0</ele><time>2026-04-19T07:10:26.025Z</time></trkpt><trkpt lat="43.8693372" lon="12.8318834"><ele>28.0</ele><time>2026-04-19T07:10:27.028Z</time></trkpt><trkpt lat="43.8692492" lon="12.8317291"><ele>28.0</ele><time>2026-04-19T07:10:28.026Z</time></trkpt><trkpt lat="43.8691617" lon="12.8315754"><ele>28.0</ele><time>2026-04-19T07:10:29.031Z</time></trkpt><trkpt lat="43.8690737" lon="12.8314276"><ele>27.75</ele><time>2026-04-19T07:10:30.027Z</time></trkpt><trkpt lat="43.8689853" lon="12.8312876"><ele>27.5</ele><time>2026-04-19T07:10:31.03Z</time></trkpt><trkpt lat="43.868903" lon="12.831149"><ele>27.25</ele><time>2026-04-19T07:10:32.017Z</time></trkpt><trkpt lat="43.868817" lon="12.8309998"><ele>27.0</ele><time>2026-04-19T07:10:33.029Z</time></trkpt><trkpt lat="43.8687324" lon="12.8308527"><ele>27.0</ele><time>2026-04-19T07:10:34.029Z</time></trkpt><trkpt lat="43.8686582" lon="12.8307226"><ele>27.0</ele><time>2026-04-19T07:10:35.028Z</time></trkpt><trkpt lat="43.8685793" lon="12.8305793"><ele>27.0</ele><time>2026-04-19T07:10:36.033Z</time></trkpt><trkpt lat="43.8684982" lon="12.8304379"><ele>27.0</ele><time>2026-04-19T07:10:37.028Z</time></trkpt><trkpt lat="43.8684142" lon="12.8302919"><ele>26.75</ele><time>2026-04-19T07:10:38.03Z</time></trkpt><trkpt lat="43.8683292" lon="12.830149"><ele>26.5</ele><time>2026-04-19T07:10:39.021Z</time></trkpt><trkpt lat="43.8682449" lon="12.8300039"><ele>26.25</ele><time>2026-04-19T07:10:40.028Z</time></trkpt><trkpt lat="43.8681555" lon="12.8298518"><ele>26.0</ele><time>2026-04-19T07:10:41.032Z</time></trkpt><trkpt lat="43.868068" lon="12.8296907"><ele>26.333333333333332</ele><time>2026-04-19T07:10:42.03Z</time></trkpt><trkpt lat="43.8679753" lon="12.829528"><ele>26.666666666666664</ele><time>2026-04-19T07:10:43.033Z</time></trkpt><trkpt lat="43.8678705" lon="12.8293597"><ele>27.0</ele><time>2026-04-19T07:10:44.026Z</time></trkpt><trkpt lat="43.8677861" lon="12.8292035"><ele>27.0</ele><time>2026-04-19T07:10:45.026Z</time></trkpt><trkpt lat="43.8676933" lon="12.8290363"><ele>27.0</ele><time>2026-04-19T07:10:46.025Z</time></trkpt><trkpt lat="43.8675944" lon="12.8288654"><ele>27.0</ele><time>2026-04-19T07:10:47.034Z</time></trkpt><trkpt lat="43.8674958" lon="12.8286892"><ele>27.333333333333336</ele><time>2026-04-19T07:10:48.03Z</time></trkpt><trkpt lat="43.8673746" lon="12.8285045"><ele>27.666666666666668</ele><time>2026-04-19T07:10:49.023Z</time></trkpt><trkpt lat="43.8672616" lon="12.8283115"><ele>28.0</ele><time>2026-04-19T07:10:50.038Z</time></trkpt><trkpt lat="43.8671392" lon="12.8281052"><ele>28.0</ele><time>2026-04-19T07:10:51.023Z</time></trkpt><trkpt lat="43.8670116" lon="12.827887"><ele>28.0</ele><time>2026-04-19T07:10:52.026Z</time></trkpt><trkpt lat="43.8668835" lon="12.8276672"><ele>28.0</ele><time>2026-04-19T07:10:53.03Z</time></trkpt><trkpt lat="43.8667579" lon="12.8274427"><ele>28.0</ele><time>2026-04-19T07:10:54.03Z</time></trkpt><trkpt lat="43.8666204" lon="12.8272129"><ele>28.0</ele><time>2026-04-19T07:10:55.029Z</time></trkpt><trkpt lat="43.8664831" lon="12.826971"><ele>28.0</ele><time>2026-04-19T07:10:56.027Z</time></trkpt><trkpt lat="43.8663532" lon="12.8267346"><ele>28.0</ele><time>2026-04-19T07:10:57.034Z</time></trkpt><trkpt lat="43.8662123" lon="12.8264875"><ele>28.0</ele><time>2026-04-19T07:10:58.027Z</time></trkpt><trkpt lat="43.8660609" lon="12.8262341"><ele>29.0</ele><time>2026-04-19T07:10:59.026Z</time></trkpt><trkpt lat="43.8659065" lon="12.8259724"><ele>30.0</ele><time>2026-04-19T07:11:00.029Z</time></trkpt><trkpt lat="43.8657559" lon="12.8257139"><ele>30.0</ele><time>2026-04-19T07:11:01.03Z</time></trkpt><trkpt lat="43.8656007" lon="12.8254498"><ele>30.0</ele><time>2026-04-19T07:11:02.03Z</time></trkpt><trkpt lat="43.8654512" lon="12.8251867"><ele>30.0</ele><time>2026-04-19T07:11:03.03Z</time></trkpt><trkpt lat="43.8653009" lon="12.8249219"><ele>30.0</ele><time>2026-04-19T07:11:04.029Z</time></trkpt><trkpt lat="43.8651406" lon="12.8246643"><ele>30.0</ele><time>2026-04-19T07:11:05.027Z</time></trkpt><trkpt lat="43.8649997" lon="12.8244093"><ele>30.0</ele><time>2026-04-19T07:11:06.029Z</time></trkpt><trkpt lat="43.8648594" lon="12.8241681"><ele>30.0</ele><time>2026-04-19T07:11:07.023Z</time></trkpt><trkpt lat="43.8647232" lon="12.8239318"><ele>30.0</ele><time>2026-04-19T07:11:08.027Z</time></trkpt><trkpt lat="43.8645822" lon="12.8236953"><ele>30.0</ele><time>2026-04-19T07:11:09.028Z</time></trkpt><trkpt lat="43.8644428" lon="12.8234588"><ele>30.0</ele><time>2026-04-19T07:11:10.031Z</time></trkpt><trkpt lat="43.8642975" lon="12.823211"><ele>30.0</ele><time>2026-04-19T07:11:11.033Z</time></trkpt><trkpt lat="43.8641555" lon="12.8229622"><ele>30.666666666666664</ele><time>2026-04-19T07:11:12.031Z</time></trkpt><trkpt lat="43.8640235" lon="12.8227288"><ele>31.333333333333332</ele><time>2026-04-19T07:11:13.031Z</time></trkpt><trkpt lat="43.8638826" lon="12.8224781"><ele>32.0</ele><time>2026-04-19T07:11:14.018Z</time></trkpt><trkpt lat="43.8637596" lon="12.8222203"><ele>32.0</ele><time>2026-04-19T07:11:15.026Z</time></trkpt><trkpt lat="43.8636296" lon="12.8219592"><ele>32.0</ele><time>2026-04-19T07:11:16.026Z</time></trkpt><trkpt lat="43.8634858" lon="12.8216913"><ele>33.5</ele><time>2026-04-19T07:11:17.026Z</time></trkpt><trkpt lat="43.8633454" lon="12.8214253"><ele>35.0</ele><time>2026-04-19T07:11:18.031Z</time></trkpt><trkpt lat="43.8632067" lon="12.8211553"><ele>34.0</ele><time>2026-04-19T07:11:19.026Z</time></trkpt><trkpt lat="43.8630705" lon="12.8208818"><ele>33.0</ele><time>2026-04-19T07:11:20.027Z</time></trkpt><trkpt lat="43.8629337" lon="12.8206292"><ele>33.0</ele><time>2026-04-19T07:11:21.041Z</time></trkpt><trkpt lat="43.8628089" lon="12.820369"><ele>33.0</ele><time>2026-04-19T07:11:22.025Z</time></trkpt><trkpt lat="43.8626936" lon="12.8201115"><ele>33.0</ele><time>2026-04-19T07:11:23.025Z</time></trkpt><trkpt lat="43.8625764" lon="12.8198546"><ele>32.666666666666664</ele><time>2026-04-19T07:11:24.03Z</time></trkpt><trkpt lat="43.8624581" lon="12.8196164"><ele>32.33333333333333</ele><time>2026-04-19T07:11:25.028Z</time></trkpt><trkpt lat="43.8623353" lon="12.8193811"><ele>32.0</ele><time>2026-04-19T07:11:26.032Z</time></trkpt><trkpt lat="43.8622181" lon="12.8191479"><ele>31.333333333333332</ele><time>2026-04-19T07:11:27.035Z</time></trkpt><trkpt lat="43.8621082" lon="12.8189164"><ele>30.666666666666664</ele><time>2026-04-19T07:11:28.028Z</time></trkpt><trkpt lat="43.8620006" lon="12.8187049"><ele>30.0</ele><time>2026-04-19T07:11:29.022Z</time></trkpt><trkpt lat="43.861915" lon="12.8185129"><ele>30.25</ele><time>2026-04-19T07:11:30.032Z</time></trkpt><trkpt lat="43.8618329" lon="12.8183339"><ele>30.5</ele><time>2026-04-19T07:11:31.03Z</time></trkpt><trkpt lat="43.8617538" lon="12.818174"><ele>30.75</ele><time>2026-04-19T07:11:32.031Z</time></trkpt><trkpt lat="43.8617012" lon="12.8180123"><ele>31.0</ele><time>2026-04-19T07:11:33.032Z</time></trkpt><trkpt lat="43.8616891" lon="12.8178578"><ele>30.25</ele><time>2026-04-19T07:11:34.031Z</time></trkpt><trkpt lat="43.8616921" lon="12.8176921"><ele>29.5</ele><time>2026-04-19T07:11:35.024Z</time></trkpt><trkpt lat="43.861674" lon="12.8175494"><ele>28.75</ele><time>2026-04-19T07:11:36.031Z</time></trkpt><trkpt lat="43.8616025" lon="12.8174208"><ele>28.0</ele><time>2026-04-19T07:11:37.03Z</time></trkpt><trkpt lat="43.8614771" lon="12.8173077"><ele>28.0</ele><time>2026-04-19T07:11:38.031Z</time></trkpt><trkpt lat="43.8613154" lon="12.8172058"><ele>28.0</ele><time>2026-04-19T07:11:39.03Z</time></trkpt><trkpt lat="43.8611534" lon="12.8170618"><ele>28.0</ele><time>2026-04-19T07:11:40.031Z</time></trkpt><trkpt lat="43.8609997" lon="12.8168551"><ele>29.5</ele><time>2026-04-19T07:11:41.033Z</time></trkpt><trkpt lat="43.8608515" lon="12.8165777"><ele>31.0</ele><time>2026-04-19T07:11:42.03Z</time></trkpt><trkpt lat="43.8607173" lon="12.8162871"><ele>30.5</ele><time>2026-04-19T07:11:43.025Z</time></trkpt><trkpt lat="43.8605835" lon="12.8159738"><ele>30.0</ele><time>2026-04-19T07:11:44.02Z</time></trkpt><trkpt lat="43.8604201" lon="12.8156663"><ele>30.0</ele><time>2026-04-19T07:11:45.031Z</time></trkpt><trkpt lat="43.8602536" lon="12.815348"><ele>30.0</ele><time>2026-04-19T07:11:46.026Z</time></trkpt><trkpt lat="43.8600869" lon="12.8150188"><ele>31.0</ele><time>2026-04-19T07:11:47.024Z</time></trkpt><trkpt lat="43.8599179" lon="12.8146793"><ele>32.0</ele><time>2026-04-19T07:11:48.02Z</time></trkpt><trkpt lat="43.8597561" lon="12.8143445"><ele>31.5</ele><time>2026-04-19T07:11:49.024Z</time></trkpt><trkpt lat="43.8595882" lon="12.8140113"><ele>31.0</ele><time>2026-04-19T07:11:50.025Z</time></trkpt><trkpt lat="43.8594203" lon="12.8136905"><ele>32.5</ele><time>2026-04-19T07:11:51.029Z</time></trkpt><trkpt lat="43.8592372" lon="12.81336"><ele>34.0</ele><time>2026-04-19T07:11:52.04Z</time></trkpt><trkpt lat="43.8590409" lon="12.8130288"><ele>34.0</ele><time>2026-04-19T07:11:53.025Z</time></trkpt><trkpt lat="43.8588365" lon="12.8127115"><ele>34.0</ele><time>2026-04-19T07:11:54.022Z</time></trkpt><trkpt lat="43.8586319" lon="12.8123931"><ele>34.0</ele><time>2026-04-19T07:11:55.026Z</time></trkpt><trkpt lat="43.8584244" lon="12.812085"><ele>34.0</ele><time>2026-04-19T07:11:56.028Z</time></trkpt><trkpt lat="43.8582138" lon="12.811776"><ele>34.0</ele><time>2026-04-19T07:11:57.038Z</time></trkpt><trkpt lat="43.8579949" lon="12.8114669"><ele>34.0</ele><time>2026-04-19T07:11:58.021Z</time></trkpt><trkpt lat="43.8577951" lon="12.8111504"><ele>33.0</ele><time>2026-04-19T07:11:59.027Z</time></trkpt><trkpt lat="43.8575829" lon="12.8108371"><ele>32.0</ele><time>2026-04-19T07:12:00.027Z</time></trkpt><trkpt lat="43.8573729" lon="12.8105256"><ele>32.0</ele><time>2026-04-19T07:12:01.026Z</time></trkpt><trkpt lat="43.8571695" lon="12.8102219"><ele>32.0</ele><time>2026-04-19T07:12:02.025Z</time></trkpt><trkpt lat="43.8569583" lon="12.8099171"><ele>32.0</ele><time>2026-04-19T07:12:03.031Z</time></trkpt><trkpt lat="43.8567542" lon="12.8096169"><ele>32.0</ele><time>2026-04-19T07:12:04.018Z</time></trkpt><trkpt lat="43.8565553" lon="12.8093125"><ele>32.0</ele><time>2026-04-19T07:12:05.027Z</time></trkpt><trkpt lat="43.8563542" lon="12.8090163"><ele>32.0</ele><time>2026-04-19T07:12:06.027Z</time></trkpt><trkpt lat="43.8561531" lon="12.8087244"><ele>32.0</ele><time>2026-04-19T07:12:07.02Z</time></trkpt><trkpt lat="43.8559617" lon="12.8084205"><ele>32.0</ele><time>2026-04-19T07:12:08.03Z</time></trkpt><trkpt lat="43.8557607" lon="12.8081148"><ele>32.5</ele><time>2026-04-19T07:12:09.018Z</time></trkpt><trkpt lat="43.855557" lon="12.8078299"><ele>33.0</ele><time>2026-04-19T07:12:10.019Z</time></trkpt><trkpt lat="43.855351" lon="12.8075378"><ele>34.0</ele><time>2026-04-19T07:12:11.026Z</time></trkpt><trkpt lat="43.8551643" lon="12.8072184"><ele>35.0</ele><time>2026-04-19T07:12:12.029Z</time></trkpt><trkpt lat="43.855004" lon="12.8068891"><ele>34.5</ele><time>2026-04-19T07:12:13.032Z</time></trkpt><trkpt lat="43.8548575" lon="12.8065504"><ele>34.0</ele><time>2026-04-19T07:12:14.028Z</time></trkpt><trkpt lat="43.854729" lon="12.8061798"><ele>33.0</ele><time>2026-04-19T07:12:15.028Z</time></trkpt><trkpt lat="43.854604" lon="12.8058051"><ele>32.0</ele><time>2026-04-19T07:12:16.027Z</time></trkpt><trkpt lat="43.8544941" lon="12.8054274"><ele>32.0</ele><time>2026-04-19T07:12:17.029Z</time></trkpt><trkpt lat="43.8543793" lon="12.805063"><ele>32.0</ele><time>2026-04-19T07:12:18.028Z</time></trkpt><trkpt lat="43.8542535" lon="12.8046924"><ele>32.5</ele><time>2026-04-19T07:12:19.02Z</time></trkpt><trkpt lat="43.854134" lon="12.8043275"><ele>33.0</ele><time>2026-04-19T07:12:20.027Z</time></trkpt><trkpt lat="43.8540071" lon="12.8039606"><ele>33.0</ele><time>2026-04-19T07:12:21.024Z</time></trkpt><trkpt lat="43.853884" lon="12.8035898"><ele>33.0</ele><time>2026-04-19T07:12:22.029Z</time></trkpt><trkpt lat="43.8537596" lon="12.803222"><ele>33.5</ele><time>2026-04-19T07:12:23.036Z</time></trkpt><trkpt lat="43.8536303" lon="12.8028658"><ele>34.0</ele><time>2026-04-19T07:12:24.021Z</time></trkpt><trkpt lat="43.8535042" lon="12.8025023"><ele>35.5</ele><time>2026-04-19T07:12:25.023Z</time></trkpt><trkpt lat="43.8533837" lon="12.8021343"><ele>37.0</ele><time>2026-04-19T07:12:26.024Z</time></trkpt><trkpt lat="43.8532602" lon="12.801788"><ele>37.0</ele><time>2026-04-19T07:12:27.026Z</time></trkpt><trkpt lat="43.8531449" lon="12.8014523"><ele>37.0</ele><time>2026-04-19T07:12:28.021Z</time></trkpt><trkpt lat="43.8530402" lon="12.8011326"><ele>37.5</ele><time>2026-04-19T07:12:29.024Z</time></trkpt><trkpt lat="43.8529312" lon="12.8008051"><ele>38.0</ele><time>2026-04-19T07:12:30.024Z</time></trkpt><trkpt lat="43.8528115" lon="12.800478"><ele>38.5</ele><time>2026-04-19T07:12:31.025Z</time></trkpt><trkpt lat="43.8527041" lon="12.8001445"><ele>39.0</ele><time>2026-04-19T07:12:32.022Z</time></trkpt><trkpt lat="43.8525877" lon="12.7998153"><ele>39.0</ele><time>2026-04-19T07:12:33.022Z</time></trkpt><trkpt lat="43.8524837" lon="12.7994927"><ele>39.0</ele><time>2026-04-19T07:12:34.02Z</time></trkpt><trkpt lat="43.8524007" lon="12.7991679"><ele>39.0</ele><time>2026-04-19T07:12:35.02Z</time></trkpt><trkpt lat="43.8523267" lon="12.7988445"><ele>39.0</ele><time>2026-04-19T07:12:36.026Z</time></trkpt><trkpt lat="43.8522698" lon="12.7985274"><ele>37.5</ele><time>2026-04-19T07:12:37.017Z</time></trkpt><trkpt lat="43.8522233" lon="12.7981966"><ele>36.0</ele><time>2026-04-19T07:12:38.019Z</time></trkpt><trkpt lat="43.852191" lon="12.7978573"><ele>36.0</ele><time>2026-04-19T07:12:39.028Z</time></trkpt><trkpt lat="43.8521665" lon="12.797523"><ele>36.0</ele><time>2026-04-19T07:12:40.017Z</time></trkpt><trkpt lat="43.8521494" lon="12.7971834"><ele>36.0</ele><time>2026-04-19T07:12:41.027Z</time></trkpt><trkpt lat="43.8521262" lon="12.7968408"><ele>36.0</ele><time>2026-04-19T07:12:42.023Z</time></trkpt><trkpt lat="43.852115" lon="12.7965002"><ele>36.0</ele><time>2026-04-19T07:12:43.017Z</time></trkpt><trkpt lat="43.8520915" lon="12.7961508"><ele>36.0</ele><time>2026-04-19T07:12:44.019Z</time></trkpt><trkpt lat="43.8520804" lon="12.7957999"><ele>36.0</ele><time>2026-04-19T07:12:45.019Z</time></trkpt><trkpt lat="43.8520491" lon="12.7954497"><ele>36.0</ele><time>2026-04-19T07:12:46.03Z</time></trkpt><trkpt lat="43.852025" lon="12.7950972"><ele>38.5</ele><time>2026-04-19T07:12:47.029Z</time></trkpt><trkpt lat="43.8519934" lon="12.7947415"><ele>41.0</ele><time>2026-04-19T07:12:48.031Z</time></trkpt><trkpt lat="43.8519714" lon="12.7943904"><ele>40.5</ele><time>2026-04-19T07:12:49.027Z</time></trkpt><trkpt lat="43.851952" lon="12.7940297"><ele>40.0</ele><time>2026-04-19T07:12:50.031Z</time></trkpt><trkpt lat="43.8519333" lon="12.7936731"><ele>37.5</ele><time>2026-04-19T07:12:51.033Z</time></trkpt><trkpt lat="43.8519155" lon="12.7933411"><ele>35.0</ele><time>2026-04-19T07:12:52.025Z</time></trkpt><trkpt lat="43.8519111" lon="12.7930104"><ele>35.0</ele><time>2026-04-19T07:12:53.026Z</time></trkpt><trkpt lat="43.8519024" lon="12.7926904"><ele>35.0</ele><time>2026-04-19T07:12:54.039Z</time></trkpt><trkpt lat="43.8518892" lon="12.7923766"><ele>34.5</ele><time>2026-04-19T07:12:55.023Z</time></trkpt><trkpt lat="43.8518614" lon="12.7920528"><ele>34.0</ele><time>2026-04-19T07:12:56.027Z</time></trkpt><trkpt lat="43.8518396" lon="12.7917278"><ele>34.66666666666667</ele><time>2026-04-19T07:12:57.036Z</time></trkpt><trkpt lat="43.8518275" lon="12.7914154"><ele>35.333333333333336</ele><time>2026-04-19T07:12:58.027Z</time></trkpt><trkpt lat="43.8518149" lon="12.7911093"><ele>36.0</ele><time>2026-04-19T07:12:59.023Z</time></trkpt><trkpt lat="43.8517924" lon="12.7907988"><ele>36.666666666666664</ele><time>2026-04-19T07:13:00.025Z</time></trkpt><trkpt lat="43.8517567" lon="12.7904937"><ele>37.33333333333333</ele><time>2026-04-19T07:13:01.021Z</time></trkpt><trkpt lat="43.8517116" lon="12.7901883"><ele>38.0</ele><time>2026-04-19T07:13:02.021Z</time></trkpt><trkpt lat="43.851656" lon="12.7898831"><ele>38.666666666666664</ele><time>2026-04-19T07:13:03.021Z</time></trkpt><trkpt lat="43.8515867" lon="12.7895899"><ele>39.333333333333336</ele><time>2026-04-19T07:13:04.02Z</time></trkpt><trkpt lat="43.851525" lon="12.7893093"><ele>40.0</ele><time>2026-04-19T07:13:05.001Z</time></trkpt><trkpt lat="43.8514628" lon="12.7890542"><ele>40.333333333333336</ele><time>2026-04-19T07:13:06.031Z</time></trkpt><trkpt lat="43.851405" lon="12.7888371"><ele>40.666666666666664</ele><time>2026-04-19T07:13:07.015Z</time></trkpt><trkpt lat="43.8513597" lon="12.7886359"><ele>41.0</ele><time>2026-04-19T07:13:08.012Z</time></trkpt><trkpt lat="43.8513147" lon="12.7884654"><ele>41.0</ele><time>2026-04-19T07:13:09.018Z</time></trkpt><trkpt lat="43.8512688" lon="12.7883063"><ele>41.0</ele><time>2026-04-19T07:13:10.02Z</time></trkpt><trkpt lat="43.8512251" lon="12.7881669"><ele>41.0</ele><time>2026-04-19T07:13:11.023Z</time></trkpt><trkpt lat="43.8511854" lon="12.7880352"><ele>41.0</ele><time>2026-04-19T07:13:12.025Z</time></trkpt><trkpt lat="43.8511478" lon="12.7879078"><ele>41.0</ele><time>2026-04-19T07:13:13.023Z</time></trkpt><trkpt lat="43.8511251" lon="12.7877772"><ele>41.0</ele><time>2026-04-19T07:13:14.02Z</time></trkpt><trkpt lat="43.8510744" lon="12.7876294"><ele>41.0</ele><time>2026-04-19T07:13:15.03Z</time></trkpt><trkpt lat="43.8509757" lon="12.7874763"><ele>41.0</ele><time>2026-04-19T07:13:16.024Z</time></trkpt><trkpt lat="43.850856" lon="12.7873197"><ele>41.0</ele><time>2026-04-19T07:13:17.027Z</time></trkpt><trkpt lat="43.8507297" lon="12.7871213"><ele>41.0</ele><time>2026-04-19T07:13:18.028Z</time></trkpt><trkpt lat="43.8505998" lon="12.7868739"><ele>41.0</ele><time>2026-04-19T07:13:19.017Z</time></trkpt><trkpt lat="43.8504694" lon="12.7866161"><ele>41.0</ele><time>2026-04-19T07:13:20.018Z</time></trkpt><trkpt lat="43.8503386" lon="12.786364"><ele>41.5</ele><time>2026-04-19T07:13:21.03Z</time></trkpt><trkpt lat="43.8501937" lon="12.7860897"><ele>42.0</ele><time>2026-04-19T07:13:22.018Z</time></trkpt><trkpt lat="43.8500335" lon="12.7858099"><ele>42.0</ele><time>2026-04-19T07:13:23.025Z</time></trkpt><trkpt lat="43.8498782" lon="12.7855322"><ele>42.0</ele><time>2026-04-19T07:13:24.023Z</time></trkpt><trkpt lat="43.8497252" lon="12.785245"><ele>40.0</ele><time>2026-04-19T07:13:25.032Z</time></trkpt><trkpt lat="43.8495755" lon="12.7849516"><ele>38.0</ele><time>2026-04-19T07:13:26.018Z</time></trkpt><trkpt lat="43.8494361" lon="12.7846764"><ele>38.0</ele><time>2026-04-19T07:13:27.023Z</time></trkpt><trkpt lat="43.8492942" lon="12.7843984"><ele>38.0</ele><time>2026-04-19T07:13:28.022Z</time></trkpt><trkpt lat="43.8491474" lon="12.7841259"><ele>40.5</ele><time>2026-04-19T07:13:29.024Z</time></trkpt><trkpt lat="43.8489963" lon="12.783829"><ele>43.0</ele><time>2026-04-19T07:13:30.02Z</time></trkpt><trkpt lat="43.8488543" lon="12.7835422"><ele>43.5</ele><time>2026-04-19T07:13:31.023Z</time></trkpt><trkpt lat="43.848694" lon="12.7832322"><ele>44.0</ele><time>2026-04-19T07:13:32.018Z</time></trkpt><trkpt lat="43.8485323" lon="12.7829254"><ele>44.0</ele><time>2026-04-19T07:13:33.023Z</time></trkpt><trkpt lat="43.8483695" lon="12.7826154"><ele>44.0</ele><time>2026-04-19T07:13:34.03Z</time></trkpt><trkpt lat="43.8481965" lon="12.7822874"><ele>44.0</ele><time>2026-04-19T07:13:35.024Z</time></trkpt><trkpt lat="43.8480185" lon="12.7819448"><ele>44.0</ele><time>2026-04-19T07:13:36.031Z</time></trkpt><trkpt lat="43.8478481" lon="12.7815904"><ele>43.0</ele><time>2026-04-19T07:13:37.022Z</time></trkpt><trkpt lat="43.8476805" lon="12.7812336"><ele>42.0</ele><time>2026-04-19T07:13:38.02Z</time></trkpt><trkpt lat="43.847498" lon="12.7808782"><ele>41.5</ele><time>2026-04-19T07:13:39.023Z</time></trkpt><trkpt lat="43.8473162" lon="12.7805279"><ele>41.0</ele><time>2026-04-19T07:13:40.019Z</time></trkpt><trkpt lat="43.8471337" lon="12.7801664"><ele>41.0</ele><time>2026-04-19T07:13:41.026Z</time></trkpt><trkpt lat="43.8469586" lon="12.7798126"><ele>41.0</ele><time>2026-04-19T07:13:42.026Z</time></trkpt><trkpt lat="43.8467791" lon="12.7794757"><ele>39.5</ele><time>2026-04-19T07:13:43.019Z</time></trkpt><trkpt lat="43.8466181" lon="12.7791667"><ele>38.0</ele><time>2026-04-19T07:13:44.028Z</time></trkpt><trkpt lat="43.8464645" lon="12.7788684"><ele>38.0</ele><time>2026-04-19T07:13:45.026Z</time></trkpt><trkpt lat="43.8463214" lon="12.7785685"><ele>38.0</ele><time>2026-04-19T07:13:46.021Z</time></trkpt><trkpt lat="43.8461861" lon="12.7782554"><ele>37.5</ele><time>2026-04-19T07:13:47.027Z</time></trkpt><trkpt lat="43.8460612" lon="12.7779371"><ele>37.0</ele><time>2026-04-19T07:13:48.031Z</time></trkpt><trkpt lat="43.8459621" lon="12.7775987"><ele>38.5</ele><time>2026-04-19T07:13:49.02Z</time></trkpt><trkpt lat="43.8458728" lon="12.7772536"><ele>40.0</ele><time>2026-04-19T07:13:50.027Z</time></trkpt><trkpt lat="43.8458036" lon="12.7769109"><ele>41.0</ele><time>2026-04-19T07:13:51.017Z</time></trkpt><trkpt lat="43.8457294" lon="12.7765815"><ele>42.0</ele><time>2026-04-19T07:13:52.02Z</time></trkpt><trkpt lat="43.8456606" lon="12.7762479"><ele>43.5</ele><time>2026-04-19T07:13:53.019Z</time></trkpt><trkpt lat="43.845597" lon="12.7759172"><ele>45.0</ele><time>2026-04-19T07:13:54.019Z</time></trkpt><trkpt lat="43.8455425" lon="12.7755885"><ele>45.0</ele><time>2026-04-19T07:13:55.018Z</time></trkpt><trkpt lat="43.8454635" lon="12.7752714"><ele>45.0</ele><time>2026-04-19T07:13:56.029Z</time></trkpt><trkpt lat="43.8453852" lon="12.7749377"><ele>48.0</ele><time>2026-04-19T07:13:57.028Z</time></trkpt><trkpt lat="43.8453283" lon="12.7746159"><ele>51.0</ele><time>2026-04-19T07:13:58.026Z</time></trkpt><trkpt lat="43.8452669" lon="12.7743215"><ele>52.0</ele><time>2026-04-19T07:13:59.024Z</time></trkpt><trkpt lat="43.8452049" lon="12.7740347"><ele>53.0</ele><time>2026-04-19T07:14:00.019Z</time></trkpt><trkpt lat="43.8451429" lon="12.7737499"><ele>54.0</ele><time>2026-04-19T07:14:01.019Z</time></trkpt><trkpt lat="43.8450709" lon="12.7734662"><ele>55.0</ele><time>2026-04-19T07:14:02.015Z</time></trkpt><trkpt lat="43.8449768" lon="12.7731696"><ele>56.0</ele><time>2026-04-19T07:14:03.026Z</time></trkpt><trkpt lat="43.8448645" lon="12.7728807"><ele>55.5</ele><time>2026-04-19T07:14:04.025Z</time></trkpt><trkpt lat="43.8447418" lon="12.7726056"><ele>55.0</ele><time>2026-04-19T07:14:05.024Z</time></trkpt><trkpt lat="43.8446027" lon="12.7723576"><ele>55.0</ele><time>2026-04-19T07:14:06.021Z</time></trkpt><trkpt lat="43.8444712" lon="12.7721146"><ele>55.0</ele><time>2026-04-19T07:14:07.022Z</time></trkpt><trkpt lat="43.844337" lon="12.7718953"><ele>55.0</ele><time>2026-04-19T07:14:08.032Z</time></trkpt><trkpt lat="43.8441918" lon="12.7716807"><ele>56.5</ele><time>2026-04-19T07:14:09.027Z</time></trkpt><trkpt lat="43.8440162" lon="12.7714696"><ele>58.0</ele><time>2026-04-19T07:14:10.022Z</time></trkpt><trkpt lat="43.8438367" lon="12.7712582"><ele>58.0</ele><time>2026-04-19T07:14:11.025Z</time></trkpt><trkpt lat="43.8436526" lon="12.771044"><ele>58.0</ele><time>2026-04-19T07:14:12.027Z</time></trkpt><trkpt lat="43.8434687" lon="12.770814"><ele>59.5</ele><time>2026-04-19T07:14:13.026Z</time></trkpt><trkpt lat="43.8432775" lon="12.7705761"><ele>61.0</ele><time>2026-04-19T07:14:14.018Z</time></trkpt><trkpt lat="43.8430946" lon="12.7703473"><ele>61.0</ele><time>2026-04-19T07:14:15.023Z</time></trkpt><trkpt lat="43.8429101" lon="12.7701226"><ele>61.0</ele><time>2026-04-19T07:14:16.016Z</time></trkpt><trkpt lat="43.8427379" lon="12.7699174"><ele>61.33333333333333</ele><time>2026-04-19T07:14:17.023Z</time></trkpt><trkpt lat="43.8425888" lon="12.7697203"><ele>61.66666666666667</ele><time>2026-04-19T07:14:18.021Z</time></trkpt><trkpt lat="43.842439" lon="12.7695248"><ele>62.0</ele><time>2026-04-19T07:14:19.019Z</time></trkpt><trkpt lat="43.8422848" lon="12.7693408"><ele>62.0</ele><time>2026-04-19T07:14:20.019Z</time></trkpt><trkpt lat="43.842128" lon="12.769151"><ele>62.0</ele><time>2026-04-19T07:14:21.016Z</time></trkpt><trkpt lat="43.8419723" lon="12.7689619"><ele>62.0</ele><time>2026-04-19T07:14:22.018Z</time></trkpt><trkpt lat="43.8418416" lon="12.7687901"><ele>62.66666666666667</ele><time>2026-04-19T07:14:23.01Z</time></trkpt><trkpt lat="43.8416984" lon="12.7686162"><ele>63.33333333333333</ele><time>2026-04-19T07:14:24.017Z</time></trkpt><trkpt lat="43.8415653" lon="12.7684534"><ele>64.0</ele><time>2026-04-19T07:14:25.018Z</time></trkpt><trkpt lat="43.8414381" lon="12.7682881"><ele>64.0</ele><time>2026-04-19T07:14:26.016Z</time></trkpt><trkpt lat="43.8413204" lon="12.7681369"><ele>64.0</ele><time>2026-04-19T07:14:27.035Z</time></trkpt><trkpt lat="43.8412159" lon="12.7680019"><ele>64.0</ele><time>2026-04-19T07:14:28.013Z</time></trkpt><trkpt lat="43.8411221" lon="12.7678629"><ele>64.0</ele><time>2026-04-19T07:14:29.022Z</time></trkpt><trkpt lat="43.8410593" lon="12.7677168"><ele>64.0</ele><time>2026-04-19T07:14:30.021Z</time></trkpt><trkpt lat="43.8410164" lon="12.7675478"><ele>64.0</ele><time>2026-04-19T07:14:31.019Z</time></trkpt><trkpt lat="43.840995" lon="12.7673854"><ele>64.0</ele><time>2026-04-19T07:14:32.012Z</time></trkpt><trkpt lat="43.8409428" lon="12.7672468"><ele>64.0</ele><time>2026-04-19T07:14:33.022Z</time></trkpt><trkpt lat="43.8408481" lon="12.7671475"><ele>65.0</ele><time>2026-04-19T07:14:34.022Z</time></trkpt><trkpt lat="43.8407237" lon="12.7670877"><ele>66.0</ele><time>2026-04-19T07:14:35.023Z</time></trkpt><trkpt lat="43.8405716" lon="12.7670472"><ele>67.0</ele><time>2026-04-19T07:14:36.021Z</time></trkpt><trkpt lat="43.8404008" lon="12.766969"><ele>66.66666666666666</ele><time>2026-04-19T07:14:37.025Z</time></trkpt><trkpt lat="43.8402388" lon="12.7668357"><ele>66.33333333333333</ele><time>2026-04-19T07:14:38.023Z</time></trkpt><trkpt lat="43.8400805" lon="12.7666251"><ele>66.0</ele><time>2026-04-19T07:14:39.023Z</time></trkpt><trkpt lat="43.8399134" lon="12.7663558"><ele>67.0</ele><time>2026-04-19T07:14:40.021Z</time></trkpt><trkpt lat="43.8397571" lon="12.76608"><ele>68.0</ele><time>2026-04-19T07:14:41.023Z</time></trkpt><trkpt lat="43.8396148" lon="12.7657506"><ele>68.0</ele><time>2026-04-19T07:14:42.014Z</time></trkpt><trkpt lat="43.8394888" lon="12.7653997"><ele>68.0</ele><time>2026-04-19T07:14:43.028Z</time></trkpt><trkpt lat="43.8393852" lon="12.765049"><ele>67.5</ele><time>2026-04-19T07:14:44.018Z</time></trkpt><trkpt lat="43.8392969" lon="12.7646866"><ele>67.0</ele><time>2026-04-19T07:14:45.027Z</time></trkpt><trkpt lat="43.839241" lon="12.7642888"><ele>67.0</ele><time>2026-04-19T07:14:46.018Z</time></trkpt><trkpt lat="43.8391713" lon="12.7639189"><ele>67.0</ele><time>2026-04-19T07:14:47.022Z</time></trkpt><trkpt lat="43.8391087" lon="12.7635717"><ele>66.0</ele><time>2026-04-19T07:14:48.023Z</time></trkpt><trkpt lat="43.8390398" lon="12.7632312"><ele>65.0</ele><time>2026-04-19T07:14:49.032Z</time></trkpt><trkpt lat="43.8389675" lon="12.7628941"><ele>67.5</ele><time>2026-04-19T07:14:50.023Z</time></trkpt><trkpt lat="43.8388965" lon="12.7625561"><ele>70.0</ele><time>2026-04-19T07:14:51.039Z</time></trkpt><trkpt lat="43.8388304" lon="12.7622078"><ele>70.0</ele><time>2026-04-19T07:14:52.03Z</time></trkpt><trkpt lat="43.8387563" lon="12.7618543"><ele>70.0</ele><time>2026-04-19T07:14:53.027Z</time></trkpt><trkpt lat="43.8386886" lon="12.7615082"><ele>70.0</ele><time>2026-04-19T07:14:54.027Z</time></trkpt><trkpt lat="43.8386181" lon="12.7611616"><ele>70.0</ele><time>2026-04-19T07:14:55.028Z</time></trkpt><trkpt lat="43.838548" lon="12.7608193"><ele>70.0</ele><time>2026-04-19T07:14:56.029Z</time></trkpt><trkpt lat="43.8384673" lon="12.7604739"><ele>70.0</ele><time>2026-04-19T07:14:57.035Z</time></trkpt><trkpt lat="43.8383988" lon="12.7601551"><ele>70.0</ele><time>2026-04-19T07:14:58.034Z</time></trkpt><trkpt lat="43.8383312" lon="12.7598387"><ele>70.0</ele><time>2026-04-19T07:14:59.022Z</time></trkpt><trkpt lat="43.8382751" lon="12.7595467"><ele>69.66666666666666</ele><time>2026-04-19T07:15:00.023Z</time></trkpt><trkpt lat="43.838216" lon="12.759245"><ele>69.33333333333333</ele><time>2026-04-19T07:15:01.022Z</time></trkpt><trkpt lat="43.8381666" lon="12.7589596"><ele>69.0</ele><time>2026-04-19T07:15:02.024Z</time></trkpt><trkpt lat="43.838103" lon="12.7587033"><ele>68.66666666666667</ele><time>2026-04-19T07:15:03.022Z</time></trkpt><trkpt lat="43.8380557" lon="12.7584457"><ele>68.33333333333334</ele><time>2026-04-19T07:15:04.02Z</time></trkpt><trkpt lat="43.8380108" lon="12.7582008"><ele>68.0</ele><time>2026-04-19T07:15:05.024Z</time></trkpt><trkpt lat="43.837966" lon="12.7579569"><ele>67.0</ele><time>2026-04-19T07:15:06.017Z</time></trkpt><trkpt lat="43.8379172" lon="12.7576909"><ele>66.0</ele><time>2026-04-19T07:15:07.028Z</time></trkpt><trkpt lat="43.8378671" lon="12.7574041"><ele>65.0</ele><time>2026-04-19T07:15:08.02Z</time></trkpt><trkpt lat="43.8378015" lon="12.7570942"><ele>64.5</ele><time>2026-04-19T07:15:09.024Z</time></trkpt><trkpt lat="43.8377226" lon="12.756776"><ele>64.0</ele><time>2026-04-19T07:15:10.017Z</time></trkpt><trkpt lat="43.8376254" lon="12.756446"><ele>63.0</ele><time>2026-04-19T07:15:11.019Z</time></trkpt><trkpt lat="43.8375225" lon="12.7561029"><ele>62.0</ele><time>2026-04-19T07:15:12.019Z</time></trkpt><trkpt lat="43.8374156" lon="12.7557402"><ele>62.0</ele><time>2026-04-19T07:15:13.021Z</time></trkpt><trkpt lat="43.8373195" lon="12.7553669"><ele>62.0</ele><time>2026-04-19T07:15:14.025Z</time></trkpt><trkpt lat="43.8372212" lon="12.7549884"><ele>60.0</ele><time>2026-04-19T07:15:15.023Z</time></trkpt><trkpt lat="43.8371135" lon="12.7546265"><ele>58.0</ele><time>2026-04-19T07:15:16.028Z</time></trkpt><trkpt lat="43.8370156" lon="12.754266"><ele>57.5</ele><time>2026-04-19T07:15:17.019Z</time></trkpt><trkpt lat="43.8369235" lon="12.7539042"><ele>57.0</ele><time>2026-04-19T07:15:18.029Z</time></trkpt><trkpt lat="43.8368206" lon="12.7535386"><ele>56.5</ele><time>2026-04-19T07:15:19.018Z</time></trkpt><trkpt lat="43.8367185" lon="12.7531836"><ele>56.0</ele><time>2026-04-19T07:15:20.011Z</time></trkpt><trkpt lat="43.8366191" lon="12.7528407"><ele>55.5</ele><time>2026-04-19T07:15:21.024Z</time></trkpt><trkpt lat="43.8365233" lon="12.7525145"><ele>55.0</ele><time>2026-04-19T07:15:22.019Z</time></trkpt><trkpt lat="43.8364425" lon="12.7522213"><ele>55.0</ele><time>2026-04-19T07:15:23.02Z</time></trkpt><trkpt lat="43.8363544" lon="12.7519544"><ele>55.0</ele><time>2026-04-19T07:15:24.027Z</time></trkpt><trkpt lat="43.8362839" lon="12.7517007"><ele>55.0</ele><time>2026-04-19T07:15:25.033Z</time></trkpt><trkpt lat="43.8362215" lon="12.7515011"><ele>54.75</ele><time>2026-04-19T07:15:26.029Z</time></trkpt><trkpt lat="43.8361782" lon="12.7513057"><ele>54.5</ele><time>2026-04-19T07:15:27.036Z</time></trkpt><trkpt lat="43.8361938" lon="12.7511157"><ele>54.25</ele><time>2026-04-19T07:15:28.03Z</time></trkpt><trkpt lat="43.8362289" lon="12.7509493"><ele>54.0</ele><time>2026-04-19T07:15:29.043Z</time></trkpt><trkpt lat="43.8363079" lon="12.7508183"><ele>54.6</ele><time>2026-04-19T07:15:30.033Z</time></trkpt><trkpt lat="43.8363712" lon="12.7506915"><ele>55.2</ele><time>2026-04-19T07:15:31.026Z</time></trkpt><trkpt lat="43.8363792" lon="12.7505787"><ele>55.800000000000004</ele><time>2026-04-19T07:15:32.029Z</time></trkpt><trkpt lat="43.8363281" lon="12.7504739"><ele>56.400000000000006</ele><time>2026-04-19T07:15:33.023Z</time></trkpt><trkpt lat="43.836251" lon="12.7504079"><ele>57.0</ele><time>2026-04-19T07:15:34.029Z</time></trkpt><trkpt lat="43.836141" lon="12.7503624"><ele>57.0</ele><time>2026-04-19T07:15:35.027Z</time></trkpt><trkpt lat="43.8360071" lon="12.7502969"><ele>57.0</ele><time>2026-04-19T07:15:36.025Z</time></trkpt><trkpt lat="43.8358742" lon="12.750154"><ele>57.0</ele><time>2026-04-19T07:15:37.023Z</time></trkpt><trkpt lat="43.8357488" lon="12.749898"><ele>59.0</ele><time>2026-04-19T07:15:38.024Z</time></trkpt><trkpt lat="43.835668" lon="12.7496176"><ele>61.0</ele><time>2026-04-19T07:15:39.016Z</time></trkpt><trkpt lat="43.8355739" lon="12.7493414"><ele>63.0</ele><time>2026-04-19T07:15:40.016Z</time></trkpt><trkpt lat="43.835466" lon="12.7490779"><ele>64.0</ele><time>2026-04-19T07:15:41.028Z</time></trkpt><trkpt lat="43.8353175" lon="12.7488181"><ele>65.0</ele><time>2026-04-19T07:15:42.022Z</time></trkpt><trkpt lat="43.8351738" lon="12.7485508"><ele>65.0</ele><time>2026-04-19T07:15:43.023Z</time></trkpt><trkpt lat="43.835036" lon="12.7482893"><ele>65.0</ele><time>2026-04-19T07:15:44.033Z</time></trkpt><trkpt lat="43.8349163" lon="12.7480461"><ele>65.0</ele><time>2026-04-19T07:15:45.024Z</time></trkpt><trkpt lat="43.8348049" lon="12.7478309"><ele>65.0</ele><time>2026-04-19T07:15:46.026Z</time></trkpt><trkpt lat="43.8346981" lon="12.7476266"><ele>65.0</ele><time>2026-04-19T07:15:47.025Z</time></trkpt><trkpt lat="43.8345948" lon="12.7474203"><ele>65.0</ele><time>2026-04-19T07:15:48.026Z</time></trkpt><trkpt lat="43.8344824" lon="12.7472224"><ele>65.0</ele><time>2026-04-19T07:15:49.025Z</time></trkpt><trkpt lat="43.834372" lon="12.7470105"><ele>65.0</ele><time>2026-04-19T07:15:50.027Z</time></trkpt><trkpt lat="43.8342702" lon="12.746824"><ele>65.0</ele><time>2026-04-19T07:15:51.031Z</time></trkpt><trkpt lat="43.8341853" lon="12.7466727"><ele>65.4</ele><time>2026-04-19T07:15:52.033Z</time></trkpt><trkpt lat="43.8341147" lon="12.7465501"><ele>65.8</ele><time>2026-04-19T07:15:53.034Z</time></trkpt><trkpt lat="43.8340612" lon="12.7464484"><ele>66.2</ele><time>2026-04-19T07:15:54.03Z</time></trkpt><trkpt lat="43.834042" lon="12.7463349"><ele>66.6</ele><time>2026-04-19T07:15:55.03Z</time></trkpt><trkpt lat="43.8340592" lon="12.7462202"><ele>67.0</ele><time>2026-04-19T07:15:56.027Z</time></trkpt><trkpt lat="43.834089" lon="12.7460982"><ele>67.66666666666666</ele><time>2026-04-19T07:15:57.025Z</time></trkpt><trkpt lat="43.8341011" lon="12.7459888"><ele>68.33333333333333</ele><time>2026-04-19T07:15:58.032Z</time></trkpt><trkpt lat="43.8340569" lon="12.7459121"><ele>69.0</ele><time>2026-04-19T07:15:59.026Z</time></trkpt><trkpt lat="43.8339692" lon="12.7458556"><ele>69.66666666666667</ele><time>2026-04-19T07:16:00.047Z</time></trkpt><trkpt lat="43.8338865" lon="12.7458403"><ele>70.33333333333334</ele><time>2026-04-19T07:16:01.022Z</time></trkpt><trkpt lat="43.8338042" lon="12.7458373"><ele>71.0</ele><time>2026-04-19T07:16:02.026Z</time></trkpt><trkpt lat="43.83372" lon="12.7458337"><ele>71.0</ele><time>2026-04-19T07:16:03.035Z</time></trkpt><trkpt lat="43.8336309" lon="12.7458271"><ele>71.0</ele><time>2026-04-19T07:16:04.033Z</time></trkpt><trkpt lat="43.833542" lon="12.7458087"><ele>71.0</ele><time>2026-04-19T07:16:05.026Z</time></trkpt><trkpt lat="43.8334616" lon="12.7458073"><ele>71.0</ele><time>2026-04-19T07:16:06.023Z</time></trkpt><trkpt lat="43.8333816" lon="12.7458054"><ele>71.0</ele><time>2026-04-19T07:16:07.03Z</time></trkpt><trkpt lat="43.8333025" lon="12.7457966"><ele>71.0</ele><time>2026-04-19T07:16:08.025Z</time></trkpt><trkpt lat="43.8332243" lon="12.7457905"><ele>70.8</ele><time>2026-04-19T07:16:09.03Z</time></trkpt><trkpt lat="43.8331275" lon="12.7457977"><ele>70.6</ele><time>2026-04-19T07:16:10.025Z</time></trkpt><trkpt lat="43.8330205" lon="12.7457945"><ele>70.4</ele><time>2026-04-19T07:16:11.031Z</time></trkpt><trkpt lat="43.832917" lon="12.7457874"><ele>70.2</ele><time>2026-04-19T07:16:12.029Z</time></trkpt><trkpt lat="43.8328002" lon="12.7457873"><ele>70.0</ele><time>2026-04-19T07:16:13.028Z</time></trkpt><trkpt lat="43.8326809" lon="12.745776"><ele>70.25</ele><time>2026-04-19T07:16:14.029Z</time></trkpt><trkpt lat="43.832567" lon="12.7457614"><ele>70.5</ele><time>2026-04-19T07:16:15.024Z</time></trkpt><trkpt lat="43.8324567" lon="12.745731"><ele>70.75</ele><time>2026-04-19T07:16:16.025Z</time></trkpt><trkpt lat="43.8323458" lon="12.7457014"><ele>71.0</ele><time>2026-04-19T07:16:17.031Z</time></trkpt><trkpt lat="43.8322238" lon="12.7456683"><ele>71.0</ele><time>2026-04-19T07:16:18.026Z</time></trkpt><trkpt lat="43.8321142" lon="12.7456416"><ele>71.0</ele><time>2026-04-19T07:16:19.026Z</time></trkpt><trkpt lat="43.8320072" lon="12.7456117"><ele>71.0</ele><time>2026-04-19T07:16:20.029Z</time></trkpt><trkpt lat="43.8319003" lon="12.7455777"><ele>71.0</ele><time>2026-04-19T07:16:21.029Z</time></trkpt><trkpt lat="43.8317925" lon="12.7455505"><ele>71.0</ele><time>2026-04-19T07:16:22.031Z</time></trkpt><trkpt lat="43.8316838" lon="12.7455264"><ele>71.2</ele><time>2026-04-19T07:16:23.034Z</time></trkpt><trkpt lat="43.8315793" lon="12.7455058"><ele>71.39999999999999</ele><time>2026-04-19T07:16:24.029Z</time></trkpt><trkpt lat="43.8314837" lon="12.7454873"><ele>71.6</ele><time>2026-04-19T07:16:25.028Z</time></trkpt><trkpt lat="43.8313875" lon="12.7454687"><ele>71.8</ele><time>2026-04-19T07:16:26.029Z</time></trkpt><trkpt lat="43.8312905" lon="12.7454417"><ele>72.0</ele><time>2026-04-19T07:16:27.037Z</time></trkpt><trkpt lat="43.8312092" lon="12.7453794"><ele>72.0</ele><time>2026-04-19T07:16:28.033Z</time></trkpt><trkpt lat="43.8311396" lon="12.7453143"><ele>72.0</ele><time>2026-04-19T07:16:29.025Z</time></trkpt><trkpt lat="43.8310488" lon="12.7452708"><ele>72.0</ele><time>2026-04-19T07:16:30.028Z</time></trkpt><trkpt lat="43.8309607" lon="12.7452792"><ele>72.0</ele><time>2026-04-19T07:16:31.044Z</time></trkpt><trkpt lat="43.8308833" lon="12.7453517"><ele>72.0</ele><time>2026-04-19T07:16:32.032Z</time></trkpt><trkpt lat="43.8307837" lon="12.7454363"><ele>72.5</ele><time>2026-04-19T07:16:33.036Z</time></trkpt><trkpt lat="43.8306705" lon="12.7454709"><ele>73.0</ele><time>2026-04-19T07:16:34.033Z</time></trkpt><trkpt lat="43.8305296" lon="12.7454654"><ele>73.5</ele><time>2026-04-19T07:16:35.029Z</time></trkpt><trkpt lat="43.8303763" lon="12.7454539"><ele>74.0</ele><time>2026-04-19T07:16:36.027Z</time></trkpt><trkpt lat="43.8302045" lon="12.7454328"><ele>74.0</ele><time>2026-04-19T07:16:37.018Z</time></trkpt><trkpt lat="43.8300282" lon="12.7454229"><ele>74.0</ele><time>2026-04-19T07:16:38.029Z</time></trkpt><trkpt lat="43.829834" lon="12.7454195"><ele>74.0</ele><time>2026-04-19T07:16:39.027Z</time></trkpt><trkpt lat="43.8296423" lon="12.7454079"><ele>74.0</ele><time>2026-04-19T07:16:40.025Z</time></trkpt><trkpt lat="43.8294608" lon="12.7454014"><ele>74.0</ele><time>2026-04-19T07:16:41.026Z</time></trkpt><trkpt lat="43.8292815" lon="12.7453867"><ele>74.0</ele><time>2026-04-19T07:16:42.032Z</time></trkpt><trkpt lat="43.8290996" lon="12.7453463"><ele>73.66666666666667</ele><time>2026-04-19T07:16:43.024Z</time></trkpt><trkpt lat="43.8289095" lon="12.7452888"><ele>73.33333333333333</ele><time>2026-04-19T07:16:44.026Z</time></trkpt><trkpt lat="43.8287176" lon="12.7452154"><ele>73.0</ele><time>2026-04-19T07:16:45.024Z</time></trkpt><trkpt lat="43.8285397" lon="12.7451192"><ele>73.66666666666666</ele><time>2026-04-19T07:16:46.032Z</time></trkpt><trkpt lat="43.8283617" lon="12.7449791"><ele>74.33333333333333</ele><time>2026-04-19T07:16:47.024Z</time></trkpt><trkpt lat="43.8282126" lon="12.7448433"><ele>75.0</ele><time>2026-04-19T07:16:48.024Z</time></trkpt><trkpt lat="43.8280653" lon="12.7447111"><ele>75.0</ele><time>2026-04-19T07:16:49.019Z</time></trkpt><trkpt lat="43.8279324" lon="12.7445758"><ele>75.0</ele><time>2026-04-19T07:16:50.011Z</time></trkpt><trkpt lat="43.8278243" lon="12.7444053"><ele>75.0</ele><time>2026-04-19T07:16:51.026Z</time></trkpt><trkpt lat="43.8277261" lon="12.7442161"><ele>75.25</ele><time>2026-04-19T07:16:52.012Z</time></trkpt><trkpt lat="43.8276447" lon="12.7440462"><ele>75.5</ele><time>2026-04-19T07:16:53.012Z</time></trkpt><trkpt lat="43.8275688" lon="12.743906"><ele>75.75</ele><time>2026-04-19T07:16:54.004Z</time></trkpt><trkpt lat="43.8274827" lon="12.7437658"><ele>76.0</ele><time>2026-04-19T07:16:55.017Z</time></trkpt><trkpt lat="43.827392" lon="12.7436075"><ele>76.0</ele><time>2026-04-19T07:16:56.016Z</time></trkpt><trkpt lat="43.8273107" lon="12.7434371"><ele>76.0</ele><time>2026-04-19T07:16:57.023Z</time></trkpt><trkpt lat="43.8272132" lon="12.7432774"><ele>76.0</ele><time>2026-04-19T07:16:58.016Z</time></trkpt><trkpt lat="43.8271363" lon="12.743087"><ele>76.0</ele><time>2026-04-19T07:16:59.023Z</time></trkpt><trkpt lat="43.8270784" lon="12.7428828"><ele>76.0</ele><time>2026-04-19T07:17:00.024Z</time></trkpt><trkpt lat="43.8270243" lon="12.7426731"><ele>76.0</ele><time>2026-04-19T07:17:01.022Z</time></trkpt><trkpt lat="43.8269657" lon="12.7424635"><ele>76.0</ele><time>2026-04-19T07:17:02.05Z</time></trkpt><trkpt lat="43.8269043" lon="12.7422534"><ele>76.0</ele><time>2026-04-19T07:17:03.023Z</time></trkpt><trkpt lat="43.8268503" lon="12.7420411"><ele>76.0</ele><time>2026-04-19T07:17:04.023Z</time></trkpt><trkpt lat="43.8267942" lon="12.7418211"><ele>76.33333333333333</ele><time>2026-04-19T07:17:05.025Z</time></trkpt><trkpt lat="43.8267328" lon="12.7416061"><ele>76.66666666666667</ele><time>2026-04-19T07:17:06.029Z</time></trkpt><trkpt lat="43.8266707" lon="12.7413795"><ele>77.0</ele><time>2026-04-19T07:17:07.024Z</time></trkpt><trkpt lat="43.8266031" lon="12.7411488"><ele>77.33333333333334</ele><time>2026-04-19T07:17:08.031Z</time></trkpt><trkpt lat="43.826528" lon="12.7409219"><ele>77.66666666666667</ele><time>2026-04-19T07:17:09.018Z</time></trkpt><trkpt lat="43.8264419" lon="12.7407048"><ele>78.0</ele><time>2026-04-19T07:17:10.02Z</time></trkpt><trkpt lat="43.8263386" lon="12.7405021"><ele>78.0</ele><time>2026-04-19T07:17:11.029Z</time></trkpt><trkpt lat="43.8262094" lon="12.7403294"><ele>78.0</ele><time>2026-04-19T07:17:12.027Z</time></trkpt><trkpt lat="43.8260712" lon="12.7401557"><ele>78.0</ele><time>2026-04-19T07:17:13.028Z</time></trkpt><trkpt lat="43.8259262" lon="12.7399819"><ele>78.66666666666667</ele><time>2026-04-19T07:17:14.021Z</time></trkpt><trkpt lat="43.8257759" lon="12.7398127"><ele>79.33333333333334</ele><time>2026-04-19T07:17:15.026Z</time></trkpt><trkpt lat="43.8256186" lon="12.739641"><ele>80.0</ele><time>2026-04-19T07:17:16.021Z</time></trkpt><trkpt lat="43.8254636" lon="12.7394602"><ele>80.0</ele><time>2026-04-19T07:17:17.027Z</time></trkpt><trkpt lat="43.8253096" lon="12.7392864"><ele>80.0</ele><time>2026-04-19T07:17:18.025Z</time></trkpt><trkpt lat="43.8251683" lon="12.7391068"><ele>80.0</ele><time>2026-04-19T07:17:19.024Z</time></trkpt><trkpt lat="43.8250309" lon="12.7389193"><ele>80.0</ele><time>2026-04-19T07:17:20.025Z</time></trkpt><trkpt lat="43.8248946" lon="12.7387366"><ele>80.0</ele><time>2026-04-19T07:17:21.029Z</time></trkpt><trkpt lat="43.8247649" lon="12.738538"><ele>80.0</ele><time>2026-04-19T07:17:22.026Z</time></trkpt><trkpt lat="43.8246324" lon="12.7383315"><ele>80.66666666666667</ele><time>2026-04-19T07:17:23.023Z</time></trkpt><trkpt lat="43.8244893" lon="12.7381281"><ele>81.33333333333333</ele><time>2026-04-19T07:17:24.02Z</time></trkpt><trkpt lat="43.8243259" lon="12.737964"><ele>82.0</ele><time>2026-04-19T07:17:25.02Z</time></trkpt><trkpt lat="43.8241635" lon="12.7378117"><ele>82.0</ele><time>2026-04-19T07:17:26.03Z</time></trkpt><trkpt lat="43.8240031" lon="12.737666"><ele>82.0</ele><time>2026-04-19T07:17:27.024Z</time></trkpt><trkpt lat="43.8238419" lon="12.7375302"><ele>82.0</ele><time>2026-04-19T07:17:28.031Z</time></trkpt><trkpt lat="43.8237105" lon="12.7374075"><ele>82.0</ele><time>2026-04-19T07:17:29.021Z</time></trkpt><trkpt lat="43.8235727" lon="12.7372829"><ele>82.0</ele><time>2026-04-19T07:17:30.023Z</time></trkpt><trkpt lat="43.8234365" lon="12.7371484"><ele>82.0</ele><time>2026-04-19T07:17:31.025Z</time></trkpt><trkpt lat="43.8232967" lon="12.7370131"><ele>82.0</ele><time>2026-04-19T07:17:32.037Z</time></trkpt><trkpt lat="43.8231516" lon="12.7368708"><ele>82.0</ele><time>2026-04-19T07:17:33.024Z</time></trkpt><trkpt lat="43.8230113" lon="12.7367428"><ele>82.0</ele><time>2026-04-19T07:17:34.022Z</time></trkpt><trkpt lat="43.8228589" lon="12.7366109"><ele>82.0</ele><time>2026-04-19T07:17:35.023Z</time></trkpt><trkpt lat="43.8227102" lon="12.7364703"><ele>82.0</ele><time>2026-04-19T07:17:36.024Z</time></trkpt><trkpt lat="43.8225631" lon="12.7363261"><ele>82.0</ele><time>2026-04-19T07:17:37.027Z</time></trkpt><trkpt lat="43.8224137" lon="12.7361832"><ele>83.0</ele><time>2026-04-19T07:17:38.025Z</time></trkpt><trkpt lat="43.8222623" lon="12.736038"><ele>84.0</ele><time>2026-04-19T07:17:39.027Z</time></trkpt><trkpt lat="43.8221085" lon="12.7358908"><ele>85.0</ele><time>2026-04-19T07:17:40.024Z</time></trkpt><trkpt lat="43.8219613" lon="12.7357349"><ele>85.33333333333333</ele><time>2026-04-19T07:17:41.021Z</time></trkpt><trkpt lat="43.8218079" lon="12.7355734"><ele>85.66666666666667</ele><time>2026-04-19T07:17:42.021Z</time></trkpt><trkpt lat="43.8216588" lon="12.7353874"><ele>86.0</ele><time>2026-04-19T07:17:43.02Z</time></trkpt><trkpt lat="43.8215059" lon="12.7351808"><ele>86.0</ele><time>2026-04-19T07:17:44.022Z</time></trkpt><trkpt lat="43.8213541" lon="12.734953"><ele>86.0</ele><time>2026-04-19T07:17:45.019Z</time></trkpt><trkpt lat="43.8211952" lon="12.7347209"><ele>86.0</ele><time>2026-04-19T07:17:46.019Z</time></trkpt><trkpt lat="43.8210444" lon="12.7344825"><ele>86.0</ele><time>2026-04-19T07:17:47.026Z</time></trkpt><trkpt lat="43.8208858" lon="12.7342446"><ele>85.0</ele><time>2026-04-19T07:17:48.024Z</time></trkpt><trkpt lat="43.8206998" lon="12.7340237"><ele>84.0</ele><time>2026-04-19T07:17:49.021Z</time></trkpt><trkpt lat="43.8205021" lon="12.7338151"><ele>84.0</ele><time>2026-04-19T07:17:50.021Z</time></trkpt><trkpt lat="43.8203211" lon="12.7336332"><ele>84.0</ele><time>2026-04-19T07:17:51.028Z</time></trkpt><trkpt lat="43.8201343" lon="12.7334519"><ele>85.0</ele><time>2026-04-19T07:17:52.028Z</time></trkpt><trkpt lat="43.819958" lon="12.7332791"><ele>86.0</ele><time>2026-04-19T07:17:53.026Z</time></trkpt><trkpt lat="43.8197879" lon="12.7331144"><ele>87.0</ele><time>2026-04-19T07:17:54.032Z</time></trkpt><trkpt lat="43.8196213" lon="12.7329388"><ele>87.0</ele><time>2026-04-19T07:17:55.026Z</time></trkpt><trkpt lat="43.8194563" lon="12.7327738"><ele>87.0</ele><time>2026-04-19T07:17:56.026Z</time></trkpt><trkpt lat="43.8193011" lon="12.7326016"><ele>87.0</ele><time>2026-04-19T07:17:57.028Z</time></trkpt><trkpt lat="43.8191429" lon="12.73241"><ele>87.66666666666667</ele><time>2026-04-19T07:17:58.022Z</time></trkpt><trkpt lat="43.8189861" lon="12.7322329"><ele>88.33333333333334</ele><time>2026-04-19T07:17:59.024Z</time></trkpt><trkpt lat="43.8188214" lon="12.7320836"><ele>89.0</ele><time>2026-04-19T07:18:00.021Z</time></trkpt><trkpt lat="43.8186507" lon="12.7319406"><ele>90.0</ele><time>2026-04-19T07:18:01.022Z</time></trkpt><trkpt lat="43.8184595" lon="12.7318266"><ele>91.0</ele><time>2026-04-19T07:18:02.023Z</time></trkpt><trkpt lat="43.818277" lon="12.7317144"><ele>92.0</ele><time>2026-04-19T07:18:03.042Z</time></trkpt><trkpt lat="43.8180843" lon="12.7316137"><ele>92.0</ele><time>2026-04-19T07:18:04.017Z</time></trkpt><trkpt lat="43.817884" lon="12.73152"><ele>92.0</ele><time>2026-04-19T07:18:05.019Z</time></trkpt><trkpt lat="43.8176785" lon="12.7314131"><ele>92.0</ele><time>2026-04-19T07:18:06.024Z</time></trkpt><trkpt lat="43.817477" lon="12.7313158"><ele>92.0</ele><time>2026-04-19T07:18:07.024Z</time></trkpt><trkpt lat="43.8172751" lon="12.7312078"><ele>92.0</ele><time>2026-04-19T07:18:08.011Z</time></trkpt><trkpt lat="43.817087" lon="12.731087"><ele>92.0</ele><time>2026-04-19T07:18:09.025Z</time></trkpt><trkpt lat="43.8169097" lon="12.7309644"><ele>92.33333333333334</ele><time>2026-04-19T07:18:10.018Z</time></trkpt><trkpt lat="43.8167089" lon="12.7308429"><ele>92.66666666666667</ele><time>2026-04-19T07:18:11.026Z</time></trkpt><trkpt lat="43.8165182" lon="12.7307379"><ele>93.0</ele><time>2026-04-19T07:18:12.024Z</time></trkpt><trkpt lat="43.8163284" lon="12.7306162"><ele>93.0</ele><time>2026-04-19T07:18:13.02Z</time></trkpt><trkpt lat="43.8161339" lon="12.7304879"><ele>93.0</ele><time>2026-04-19T07:18:14.021Z</time></trkpt><trkpt lat="43.815951" lon="12.7303462"><ele>93.0</ele><time>2026-04-19T07:18:15.021Z</time></trkpt><trkpt lat="43.8157653" lon="12.7302"><ele>93.0</ele><time>2026-04-19T07:18:16.022Z</time></trkpt><trkpt lat="43.8155752" lon="12.7300548"><ele>93.0</ele><time>2026-04-19T07:18:17.021Z</time></trkpt><trkpt lat="43.8153872" lon="12.7299024"><ele>93.0</ele><time>2026-04-19T07:18:18.021Z</time></trkpt><trkpt lat="43.8151993" lon="12.7297493"><ele>91.5</ele><time>2026-04-19T07:18:19.024Z</time></trkpt><trkpt lat="43.8150023" lon="12.7295968"><ele>90.0</ele><time>2026-04-19T07:18:20.025Z</time></trkpt><trkpt lat="43.8148037" lon="12.7294466"><ele>92.0</ele><time>2026-04-19T07:18:21.028Z</time></trkpt><trkpt lat="43.814603" lon="12.7292791"><ele>94.0</ele><time>2026-04-19T07:18:22.016Z</time></trkpt><trkpt lat="43.8144024" lon="12.7291227"><ele>95.0</ele><time>2026-04-19T07:18:23.025Z</time></trkpt><trkpt lat="43.8142004" lon="12.7289563"><ele>96.0</ele><time>2026-04-19T07:18:24.016Z</time></trkpt><trkpt lat="43.8140013" lon="12.7287829"><ele>96.0</ele><time>2026-04-19T07:18:25.021Z</time></trkpt><trkpt lat="43.8137998" lon="12.7286251"><ele>96.0</ele><time>2026-04-19T07:18:26.031Z</time></trkpt><trkpt lat="43.813593" lon="12.7284694"><ele>97.5</ele><time>2026-04-19T07:18:27.024Z</time></trkpt><trkpt lat="43.8133886" lon="12.7283139"><ele>99.0</ele><time>2026-04-19T07:18:28.026Z</time></trkpt><trkpt lat="43.8131929" lon="12.7281687"><ele>99.0</ele><time>2026-04-19T07:18:29.019Z</time></trkpt><trkpt lat="43.8129963" lon="12.7280311"><ele>99.0</ele><time>2026-04-19T07:18:30.015Z</time></trkpt><trkpt lat="43.8127916" lon="12.727919"><ele>99.0</ele><time>2026-04-19T07:18:31.018Z</time></trkpt><trkpt lat="43.8125883" lon="12.7278234"><ele>98.33333333333334</ele><time>2026-04-19T07:18:32.03Z</time></trkpt><trkpt lat="43.8123845" lon="12.727766"><ele>97.66666666666667</ele><time>2026-04-19T07:18:33.025Z</time></trkpt><trkpt lat="43.8121783" lon="12.7277136"><ele>97.0</ele><time>2026-04-19T07:18:34.042Z</time></trkpt><trkpt lat="43.8119705" lon="12.7276632"><ele>98.33333333333334</ele><time>2026-04-19T07:18:35.022Z</time></trkpt><trkpt lat="43.8117714" lon="12.7276095"><ele>99.66666666666666</ele><time>2026-04-19T07:18:36.013Z</time></trkpt><trkpt lat="43.8115731" lon="12.7275484"><ele>101.0</ele><time>2026-04-19T07:18:37.02Z</time></trkpt><trkpt lat="43.8113784" lon="12.727465"><ele>101.0</ele><time>2026-04-19T07:18:38.015Z</time></trkpt><trkpt lat="43.8111752" lon="12.7273778"><ele>101.0</ele><time>2026-04-19T07:18:39.029Z</time></trkpt><trkpt lat="43.8109784" lon="12.7272486"><ele>101.0</ele><time>2026-04-19T07:18:40.014Z</time></trkpt><trkpt lat="43.8107906" lon="12.7271236"><ele>98.66666666666666</ele><time>2026-04-19T07:18:41.017Z</time></trkpt><trkpt lat="43.8106022" lon="12.7270094"><ele>96.33333333333333</ele><time>2026-04-19T07:18:42.019Z</time></trkpt><trkpt lat="43.8103906" lon="12.7269206"><ele>94.0</ele><time>2026-04-19T07:18:43.027Z</time></trkpt><trkpt lat="43.8101671" lon="12.7268633"><ele>98.0</ele><time>2026-04-19T07:18:44.013Z</time></trkpt><trkpt lat="43.8099323" lon="12.7268326"><ele>102.0</ele><time>2026-04-19T07:18:45.015Z</time></trkpt><trkpt lat="43.8096756" lon="12.7268046"><ele>102.0</ele><time>2026-04-19T07:18:46.013Z</time></trkpt><trkpt lat="43.8094179" lon="12.7267903"><ele>102.0</ele><time>2026-04-19T07:18:47.011Z</time></trkpt><trkpt lat="43.8091587" lon="12.7267502"><ele>99.0</ele><time>2026-04-19T07:18:48.01Z</time></trkpt><trkpt lat="43.8089174" lon="12.72668"><ele>96.0</ele><time>2026-04-19T07:18:49.018Z</time></trkpt><trkpt lat="43.8086998" lon="12.7266172"><ele>95.0</ele><time>2026-04-19T07:18:50.013Z</time></trkpt><trkpt lat="43.808488" lon="12.7265373"><ele>94.0</ele><time>2026-04-19T07:18:51.014Z</time></trkpt><trkpt lat="43.8082909" lon="12.7264694"><ele>93.0</ele><time>2026-04-19T07:18:52.021Z</time></trkpt><trkpt lat="43.8080983" lon="12.7264129"><ele>93.0</ele><time>2026-04-19T07:18:53.023Z</time></trkpt><trkpt lat="43.8079016" lon="12.7263457"><ele>93.0</ele><time>2026-04-19T07:18:54.015Z</time></trkpt><trkpt lat="43.807711" lon="12.7262937"><ele>93.0</ele><time>2026-04-19T07:18:55.025Z</time></trkpt><trkpt lat="43.8075286" lon="12.7262319"><ele>94.33333333333334</ele><time>2026-04-19T07:18:56.02Z</time></trkpt><trkpt lat="43.8073369" lon="12.7261893"><ele>95.66666666666667</ele><time>2026-04-19T07:18:57.021Z</time></trkpt><trkpt lat="43.8071487" lon="12.7261163"><ele>97.0</ele><time>2026-04-19T07:18:58.02Z</time></trkpt><trkpt lat="43.806964" lon="12.7260251"><ele>96.66666666666667</ele><time>2026-04-19T07:18:59.022Z</time></trkpt><trkpt lat="43.8067588" lon="12.7259075"><ele>96.33333333333334</ele><time>2026-04-19T07:19:00.02Z</time></trkpt><trkpt lat="43.8065667" lon="12.7257895"><ele>96.0</ele><time>2026-04-19T07:19:01.009Z</time></trkpt><trkpt lat="43.8063652" lon="12.7256441"><ele>96.0</ele><time>2026-04-19T07:19:02.012Z</time></trkpt><trkpt lat="43.8061471" lon="12.7254749"><ele>96.0</ele><time>2026-04-19T07:19:03.013Z</time></trkpt><trkpt lat="43.80594" lon="12.7253441"><ele>97.5</ele><time>2026-04-19T07:19:04.012Z</time></trkpt><trkpt lat="43.8057338" lon="12.7252122"><ele>99.0</ele><time>2026-04-19T07:19:05.012Z</time></trkpt><trkpt lat="43.8055132" lon="12.7250444"><ele>99.0</ele><time>2026-04-19T07:19:06.022Z</time></trkpt><trkpt lat="43.8052846" lon="12.7248531"><ele>99.0</ele><time>2026-04-19T07:19:07.015Z</time></trkpt><trkpt lat="43.8050571" lon="12.7246941"><ele>95.0</ele><time>2026-04-19T07:19:08.006Z</time></trkpt><trkpt lat="43.8048301" lon="12.7245584"><ele>91.0</ele><time>2026-04-19T07:19:09.018Z</time></trkpt><trkpt lat="43.8046137" lon="12.7244289"><ele>92.66666666666666</ele><time>2026-04-19T07:19:10.016Z</time></trkpt><trkpt lat="43.8044315" lon="12.7243186"><ele>94.33333333333333</ele><time>2026-04-19T07:19:11.021Z</time></trkpt><trkpt lat="43.8042757" lon="12.7242083"><ele>96.0</ele><time>2026-04-19T07:19:12.015Z</time></trkpt><trkpt lat="43.8041143" lon="12.7240895"><ele>96.0</ele><time>2026-04-19T07:19:13.017Z</time></trkpt><trkpt lat="43.8039551" lon="12.7239697"><ele>96.0</ele><time>2026-04-19T07:19:14.014Z</time></trkpt><trkpt lat="43.8038107" lon="12.723842"><ele>96.0</ele><time>2026-04-19T07:19:15.015Z</time></trkpt><trkpt lat="43.8036634" lon="12.7236986"><ele>96.66666666666666</ele><time>2026-04-19T07:19:16.012Z</time></trkpt><trkpt lat="43.803488" lon="12.7235436"><ele>97.33333333333333</ele><time>2026-04-19T07:19:17.012Z</time></trkpt><trkpt lat="43.8032892" lon="12.7233848"><ele>98.0</ele><time>2026-04-19T07:19:18.011Z</time></trkpt><trkpt lat="43.8030996" lon="12.7232065"><ele>98.0</ele><time>2026-04-19T07:19:19.01Z</time></trkpt><trkpt lat="43.8028825" lon="12.7230006"><ele>98.0</ele><time>2026-04-19T07:19:20.011Z</time></trkpt><trkpt lat="43.8026413" lon="12.7228409"><ele>94.0</ele><time>2026-04-19T07:19:21.015Z</time></trkpt><trkpt lat="43.8023744" lon="12.722692"><ele>90.0</ele><time>2026-04-19T07:19:22.023Z</time></trkpt><trkpt lat="43.802093" lon="12.722573"><ele>90.5</ele><time>2026-04-19T07:19:23.023Z</time></trkpt><trkpt lat="43.8018129" lon="12.7225111"><ele>91.0</ele><time>2026-04-19T07:19:24.012Z</time></trkpt><trkpt lat="43.8015209" lon="12.7224655"><ele>91.0</ele><time>2026-04-19T07:19:25.025Z</time></trkpt><trkpt lat="43.8011964" lon="12.7224768"><ele>91.0</ele><time>2026-04-19T07:19:26.026Z</time></trkpt><trkpt lat="43.8008766" lon="12.7225518"><ele>95.0</ele><time>2026-04-19T07:19:27.028Z</time></trkpt><trkpt lat="43.8005756" lon="12.7226354"><ele>99.0</ele><time>2026-04-19T07:19:28.009Z</time></trkpt><trkpt lat="43.8002906" lon="12.7227255"><ele>97.5</ele><time>2026-04-19T07:19:29.011Z</time></trkpt><trkpt lat="43.800003" lon="12.7228147"><ele>96.0</ele><time>2026-04-19T07:19:30.014Z</time></trkpt><trkpt lat="43.799729" lon="12.7228939"><ele>96.0</ele><time>2026-04-19T07:19:31.016Z</time></trkpt><trkpt lat="43.7994482" lon="12.7229417"><ele>96.0</ele><time>2026-04-19T07:19:32.02Z</time></trkpt><trkpt lat="43.7991699" lon="12.7229571"><ele>95.5</ele><time>2026-04-19T07:19:33.03Z</time></trkpt><trkpt lat="43.7988915" lon="12.7229432"><ele>95.0</ele><time>2026-04-19T07:19:34.023Z</time></trkpt><trkpt lat="43.7986072" lon="12.7229019"><ele>96.0</ele><time>2026-04-19T07:19:35.023Z</time></trkpt><trkpt lat="43.7983322" lon="12.7228646"><ele>97.0</ele><time>2026-04-19T07:19:36.036Z</time></trkpt><trkpt lat="43.7980617" lon="12.7228392"><ele>97.0</ele><time>2026-04-19T07:19:37.021Z</time></trkpt><trkpt lat="43.7977959" lon="12.7228081"><ele>97.0</ele><time>2026-04-19T07:19:38.023Z</time></trkpt><trkpt lat="43.7975545" lon="12.7227765"><ele>97.33333333333334</ele><time>2026-04-19T07:19:39.022Z</time></trkpt><trkpt lat="43.7973346" lon="12.7227351"><ele>97.66666666666666</ele><time>2026-04-19T07:19:40.024Z</time></trkpt><trkpt lat="43.7971358" lon="12.722706"><ele>98.0</ele><time>2026-04-19T07:19:41.029Z</time></trkpt><trkpt lat="43.7969696" lon="12.722685"><ele>100.0</ele><time>2026-04-19T07:19:42.028Z</time></trkpt><trkpt lat="43.796823" lon="12.722659"><ele>102.0</ele><time>2026-04-19T07:19:43.02Z</time></trkpt><trkpt lat="43.7966988" lon="12.7225975"><ele>104.0</ele><time>2026-04-19T07:19:44.029Z</time></trkpt><trkpt lat="43.7966071" lon="12.7224801"><ele>106.0</ele><time>2026-04-19T07:19:45.026Z</time></trkpt><trkpt lat="43.7965622" lon="12.7223595"><ele>106.0</ele><time>2026-04-19T07:19:46.024Z</time></trkpt><trkpt lat="43.7964858" lon="12.7222874"><ele>106.0</ele><time>2026-04-19T07:19:47.028Z</time></trkpt><trkpt lat="43.7964074" lon="12.7223161"><ele>106.0</ele><time>2026-04-19T07:19:48.025Z</time></trkpt><trkpt lat="43.796316" lon="12.7224073"><ele>106.0</ele><time>2026-04-19T07:19:49.029Z</time></trkpt><trkpt lat="43.7962096" lon="12.7225374"><ele>106.0</ele><time>2026-04-19T07:19:50.027Z</time></trkpt><trkpt lat="43.7960692" lon="12.7226874"><ele>100.5</ele><time>2026-04-19T07:19:51.019Z</time></trkpt><trkpt lat="43.7958802" lon="12.7227681"><ele>95.0</ele><time>2026-04-19T07:19:52.028Z</time></trkpt><trkpt lat="43.7956187" lon="12.7227968"><ele>95.0</ele><time>2026-04-19T07:19:53.031Z</time></trkpt><trkpt lat="43.7953522" lon="12.7228143"><ele>95.0</ele><time>2026-04-19T07:19:54.019Z</time></trkpt><trkpt lat="43.7950514" lon="12.7228809"><ele>94.0</ele><time>2026-04-19T07:19:55.021Z</time></trkpt><trkpt lat="43.7947593" lon="12.7229857"><ele>93.0</ele><time>2026-04-19T07:19:56.014Z</time></trkpt><trkpt lat="43.7944518" lon="12.7231123"><ele>95.0</ele><time>2026-04-19T07:19:57.025Z</time></trkpt><trkpt lat="43.7941252" lon="12.7232356"><ele>97.0</ele><time>2026-04-19T07:19:58.016Z</time></trkpt><trkpt lat="43.7937982" lon="12.7233554"><ele>98.0</ele><time>2026-04-19T07:19:59.018Z</time></trkpt><trkpt lat="43.7934602" lon="12.7234603"><ele>99.0</ele><time>2026-04-19T07:20:00.028Z</time></trkpt><trkpt lat="43.7931188" lon="12.7235902"><ele>103.0</ele><time>2026-04-19T07:20:01.02Z</time></trkpt><trkpt lat="43.7927949" lon="12.7236987"><ele>107.0</ele><time>2026-04-19T07:20:02.022Z</time></trkpt><trkpt lat="43.7924785" lon="12.723805"><ele>107.0</ele><time>2026-04-19T07:20:03.022Z</time></trkpt><trkpt lat="43.792178" lon="12.7239151"><ele>107.0</ele><time>2026-04-19T07:20:04.025Z</time></trkpt><trkpt lat="43.791887" lon="12.7240233"><ele>106.0</ele><time>2026-04-19T07:20:05.023Z</time></trkpt><trkpt lat="43.7915957" lon="12.7241259"><ele>105.0</ele><time>2026-04-19T07:20:06.016Z</time></trkpt><trkpt lat="43.7913087" lon="12.7242183"><ele>105.0</ele><time>2026-04-19T07:20:07.031Z</time></trkpt><trkpt lat="43.7910195" lon="12.7242998"><ele>105.0</ele><time>2026-04-19T07:20:08.017Z</time></trkpt><trkpt lat="43.7907307" lon="12.7243475"><ele>103.5</ele><time>2026-04-19T07:20:09.028Z</time></trkpt><trkpt lat="43.7904326" lon="12.7243512"><ele>102.0</ele><time>2026-04-19T07:20:10.029Z</time></trkpt><trkpt lat="43.7901396" lon="12.7242863"><ele>100.0</ele><time>2026-04-19T07:20:11.031Z</time></trkpt><trkpt lat="43.7898615" lon="12.7241839"><ele>98.0</ele><time>2026-04-19T07:20:12.029Z</time></trkpt><trkpt lat="43.7895834" lon="12.724045"><ele>98.5</ele><time>2026-04-19T07:20:13.032Z</time></trkpt><trkpt lat="43.789302" lon="12.7238434"><ele>99.0</ele><time>2026-04-19T07:20:14.034Z</time></trkpt><trkpt lat="43.7890642" lon="12.7236122"><ele>98.5</ele><time>2026-04-19T07:20:15.034Z</time></trkpt><trkpt lat="43.7888497" lon="12.7233726"><ele>98.0</ele><time>2026-04-19T07:20:16.035Z</time></trkpt><trkpt lat="43.7886202" lon="12.7231165"><ele>99.5</ele><time>2026-04-19T07:20:17.029Z</time></trkpt><trkpt lat="43.788397" lon="12.7228569"><ele>101.0</ele><time>2026-04-19T07:20:18.029Z</time></trkpt><trkpt lat="43.7881689" lon="12.7225925"><ele>101.0</ele><time>2026-04-19T07:20:19.025Z</time></trkpt><trkpt lat="43.7879267" lon="12.7223158"><ele>101.0</ele><time>2026-04-19T07:20:20.025Z</time></trkpt><trkpt lat="43.7876835" lon="12.722029"><ele>102.0</ele><time>2026-04-19T07:20:21.029Z</time></trkpt><trkpt lat="43.7874319" lon="12.7217505"><ele>103.0</ele><time>2026-04-19T07:20:22.03Z</time></trkpt><trkpt lat="43.7871618" lon="12.7214665"><ele>103.0</ele><time>2026-04-19T07:20:23.034Z</time></trkpt><trkpt lat="43.7869105" lon="12.721169"><ele>103.0</ele><time>2026-04-19T07:20:24.027Z</time></trkpt><trkpt lat="43.7866635" lon="12.7208896"><ele>104.5</ele><time>2026-04-19T07:20:25.028Z</time></trkpt><trkpt lat="43.7864166" lon="12.7206041"><ele>106.0</ele><time>2026-04-19T07:20:26.023Z</time></trkpt><trkpt lat="43.7861916" lon="12.7203059"><ele>105.5</ele><time>2026-04-19T07:20:27.034Z</time></trkpt><trkpt lat="43.785985" lon="12.720011"><ele>105.0</ele><time>2026-04-19T07:20:28.026Z</time></trkpt><trkpt lat="43.7857777" lon="12.7197462"><ele>105.0</ele><time>2026-04-19T07:20:29.026Z</time></trkpt><trkpt lat="43.7855583" lon="12.7195038"><ele>105.0</ele><time>2026-04-19T07:20:30.033Z</time></trkpt><trkpt lat="43.7853143" lon="12.7193019"><ele>106.0</ele><time>2026-04-19T07:20:31.022Z</time></trkpt><trkpt lat="43.7850557" lon="12.7191564"><ele>107.0</ele><time>2026-04-19T07:20:32.029Z</time></trkpt><trkpt lat="43.7847723" lon="12.719039"><ele>107.0</ele><time>2026-04-19T07:20:33.012Z</time></trkpt><trkpt lat="43.7845109" lon="12.7189207"><ele>107.0</ele><time>2026-04-19T07:20:34.018Z</time></trkpt><trkpt lat="43.7842626" lon="12.7187724"><ele>106.5</ele><time>2026-04-19T07:20:35.017Z</time></trkpt><trkpt lat="43.7840169" lon="12.7185728"><ele>106.0</ele><time>2026-04-19T07:20:36.022Z</time></trkpt><trkpt lat="43.783818" lon="12.7183096"><ele>106.0</ele><time>2026-04-19T07:20:37.021Z</time></trkpt><trkpt lat="43.7836268" lon="12.7179982"><ele>106.0</ele><time>2026-04-19T07:20:38.035Z</time></trkpt><trkpt lat="43.7834561" lon="12.7176567"><ele>105.5</ele><time>2026-04-19T07:20:39.019Z</time></trkpt><trkpt lat="43.7832759" lon="12.7173285"><ele>105.0</ele><time>2026-04-19T07:20:40.016Z</time></trkpt><trkpt lat="43.7830871" lon="12.717015"><ele>105.5</ele><time>2026-04-19T07:20:41.023Z</time></trkpt><trkpt lat="43.7828961" lon="12.7167002"><ele>106.0</ele><time>2026-04-19T07:20:42.027Z</time></trkpt><trkpt lat="43.7827205" lon="12.7164038"><ele>109.5</ele><time>2026-04-19T07:20:43.025Z</time></trkpt><trkpt lat="43.7825444" lon="12.7160972"><ele>113.0</ele><time>2026-04-19T07:20:44.034Z</time></trkpt><trkpt lat="43.7824069" lon="12.7157798"><ele>116.5</ele><time>2026-04-19T07:20:45.022Z</time></trkpt><trkpt lat="43.7822912" lon="12.7154397"><ele>120.0</ele><time>2026-04-19T07:20:46.03Z</time></trkpt><trkpt lat="43.7822299" lon="12.7150627"><ele>123.0</ele><time>2026-04-19T07:20:47.026Z</time></trkpt><trkpt lat="43.7822126" lon="12.7146665"><ele>126.0</ele><time>2026-04-19T07:20:48.026Z</time></trkpt><trkpt lat="43.7822079" lon="12.7142517"><ele>127.0</ele><time>2026-04-19T07:20:49.023Z</time></trkpt><trkpt lat="43.7822137" lon="12.7138326"><ele>128.0</ele><time>2026-04-19T07:20:50.018Z</time></trkpt><trkpt lat="43.7822041" lon="12.7134153"><ele>128.5</ele><time>2026-04-19T07:20:51.02Z</time></trkpt><trkpt lat="43.7821967" lon="12.713007"><ele>129.0</ele><time>2026-04-19T07:20:52.025Z</time></trkpt><trkpt lat="43.7821627" lon="12.7126177"><ele>128.0</ele><time>2026-04-19T07:20:53.029Z</time></trkpt><trkpt lat="43.7820843" lon="12.7122457"><ele>127.0</ele><time>2026-04-19T07:20:54.029Z</time></trkpt><trkpt lat="43.7820109" lon="12.7118885"><ele>127.0</ele><time>2026-04-19T07:20:55.032Z</time></trkpt><trkpt lat="43.7818801" lon="12.7115694"><ele>127.0</ele><time>2026-04-19T07:20:56.022Z</time></trkpt><trkpt lat="43.7817337" lon="12.7112394"><ele>122.0</ele><time>2026-04-19T07:20:57.038Z</time></trkpt><trkpt lat="43.7815642" lon="12.7109277"><ele>117.0</ele><time>2026-04-19T07:20:58.035Z</time></trkpt><trkpt lat="43.7813952" lon="12.7106189"><ele>117.0</ele><time>2026-04-19T07:20:59.031Z</time></trkpt><trkpt lat="43.7812267" lon="12.7103218"><ele>117.0</ele><time>2026-04-19T07:21:00.022Z</time></trkpt><trkpt lat="43.781074" lon="12.7100281"><ele>118.5</ele><time>2026-04-19T07:21:01.031Z</time></trkpt><trkpt lat="43.7809488" lon="12.709701"><ele>120.0</ele><time>2026-04-19T07:21:02.028Z</time></trkpt><trkpt lat="43.7808584" lon="12.7093565"><ele>120.0</ele><time>2026-04-19T07:21:03.03Z</time></trkpt><trkpt lat="43.7807908" lon="12.7089775"><ele>120.0</ele><time>2026-04-19T07:21:04.016Z</time></trkpt><trkpt lat="43.7807466" lon="12.7085935"><ele>117.5</ele><time>2026-04-19T07:21:05.029Z</time></trkpt><trkpt lat="43.7807115" lon="12.7081855"><ele>115.0</ele><time>2026-04-19T07:21:06.022Z</time></trkpt><trkpt lat="43.7806754" lon="12.7077763"><ele>114.0</ele><time>2026-04-19T07:21:07.026Z</time></trkpt><trkpt lat="43.7806501" lon="12.7073859"><ele>113.0</ele><time>2026-04-19T07:21:08.03Z</time></trkpt><trkpt lat="43.7806262" lon="12.7070169"><ele>113.0</ele><time>2026-04-19T07:21:09.036Z</time></trkpt><trkpt lat="43.7806209" lon="12.7066622"><ele>113.0</ele><time>2026-04-19T07:21:10.033Z</time></trkpt><trkpt lat="43.7806437" lon="12.7063338"><ele>113.0</ele><time>2026-04-19T07:21:11.018Z</time></trkpt><trkpt lat="43.7806883" lon="12.705998"><ele>113.0</ele><time>2026-04-19T07:21:12.021Z</time></trkpt><trkpt lat="43.7807595" lon="12.7056712"><ele>113.0</ele><time>2026-04-19T07:21:13.025Z</time></trkpt><trkpt lat="43.7808242" lon="12.7053373"><ele>113.0</ele><time>2026-04-19T07:21:14.026Z</time></trkpt><trkpt lat="43.7808845" lon="12.7049803"><ele>113.5</ele><time>2026-04-19T07:21:15.026Z</time></trkpt><trkpt lat="43.7809308" lon="12.7046208"><ele>114.0</ele><time>2026-04-19T07:21:16.02Z</time></trkpt><trkpt lat="43.7809265" lon="12.7042556"><ele>115.5</ele><time>2026-04-19T07:21:17.034Z</time></trkpt><trkpt lat="43.7809015" lon="12.7038862"><ele>117.0</ele><time>2026-04-19T07:21:18.026Z</time></trkpt><trkpt lat="43.7808361" lon="12.7035203"><ele>118.5</ele><time>2026-04-19T07:21:19.034Z</time></trkpt><trkpt lat="43.7807474" lon="12.7031449"><ele>120.0</ele><time>2026-04-19T07:21:20.022Z</time></trkpt><trkpt lat="43.7806553" lon="12.7027768"><ele>120.5</ele><time>2026-04-19T07:21:21.026Z</time></trkpt><trkpt lat="43.7805872" lon="12.7023979"><ele>121.0</ele><time>2026-04-19T07:21:22.022Z</time></trkpt><trkpt lat="43.780537" lon="12.702005"><ele>121.0</ele><time>2026-04-19T07:21:23.033Z</time></trkpt><trkpt lat="43.7805121" lon="12.7016112"><ele>121.0</ele><time>2026-04-19T07:21:24.031Z</time></trkpt><trkpt lat="43.7805249" lon="12.701206"><ele>121.5</ele><time>2026-04-19T07:21:25.028Z</time></trkpt><trkpt lat="43.7805532" lon="12.7008077"><ele>122.0</ele><time>2026-04-19T07:21:26.025Z</time></trkpt><trkpt lat="43.7806084" lon="12.7004306"><ele>122.0</ele><time>2026-04-19T07:21:27.027Z</time></trkpt><trkpt lat="43.7806629" lon="12.7000577"><ele>122.0</ele><time>2026-04-19T07:21:28.018Z</time></trkpt><trkpt lat="43.7807345" lon="12.6996594"><ele>122.5</ele><time>2026-04-19T07:21:29.022Z</time></trkpt><trkpt lat="43.7808224" lon="12.6992762"><ele>123.0</ele><time>2026-04-19T07:21:30.023Z</time></trkpt><trkpt lat="43.7808869" lon="12.6988828"><ele>122.5</ele><time>2026-04-19T07:21:31.019Z</time></trkpt><trkpt lat="43.7809574" lon="12.6984902"><ele>122.0</ele><time>2026-04-19T07:21:32.026Z</time></trkpt><trkpt lat="43.7810338" lon="12.6980951"><ele>123.0</ele><time>2026-04-19T07:21:33.016Z</time></trkpt><trkpt lat="43.7811192" lon="12.6977046"><ele>124.0</ele><time>2026-04-19T07:21:34.02Z</time></trkpt><trkpt lat="43.7812014" lon="12.6972999"><ele>123.0</ele><time>2026-04-19T07:21:35.022Z</time></trkpt><trkpt lat="43.7812827" lon="12.6968875"><ele>122.0</ele><time>2026-04-19T07:21:36.015Z</time></trkpt><trkpt lat="43.7813527" lon="12.696472"><ele>123.0</ele><time>2026-04-19T07:21:37.02Z</time></trkpt><trkpt lat="43.7814342" lon="12.6960617"><ele>124.0</ele><time>2026-04-19T07:21:38.018Z</time></trkpt><trkpt lat="43.7815167" lon="12.695673"><ele>124.0</ele><time>2026-04-19T07:21:39.022Z</time></trkpt><trkpt lat="43.7815947" lon="12.6952972"><ele>124.0</ele><time>2026-04-19T07:21:40.038Z</time></trkpt><trkpt lat="43.7816591" lon="12.6949305"><ele>124.0</ele><time>2026-04-19T07:21:41.024Z</time></trkpt><trkpt lat="43.7817267" lon="12.694585"><ele>124.0</ele><time>2026-04-19T07:21:42.03Z</time></trkpt><trkpt lat="43.7817935" lon="12.6942454"><ele>128.0</ele><time>2026-04-19T07:21:43.031Z</time></trkpt><trkpt lat="43.7818608" lon="12.6938994"><ele>132.0</ele><time>2026-04-19T07:21:44.028Z</time></trkpt><trkpt lat="43.7819322" lon="12.6935604"><ele>132.0</ele><time>2026-04-19T07:21:45.029Z</time></trkpt><trkpt lat="43.7819877" lon="12.6932339"><ele>132.0</ele><time>2026-04-19T07:21:46.034Z</time></trkpt><trkpt lat="43.7820462" lon="12.6929125"><ele>132.0</ele><time>2026-04-19T07:21:47.027Z</time></trkpt><trkpt lat="43.7820928" lon="12.6926045"><ele>132.0</ele><time>2026-04-19T07:21:48.033Z</time></trkpt><trkpt lat="43.7821054" lon="12.6923116"><ele>132.0</ele><time>2026-04-19T07:21:49.02Z</time></trkpt><trkpt lat="43.7821136" lon="12.692021"><ele>133.66666666666666</ele><time>2026-04-19T07:21:50.021Z</time></trkpt><trkpt lat="43.7821054" lon="12.6917188"><ele>135.33333333333331</ele><time>2026-04-19T07:21:51.027Z</time></trkpt><trkpt lat="43.7820669" lon="12.6914133"><ele>137.0</ele><time>2026-04-19T07:21:52.019Z</time></trkpt><trkpt lat="43.7820165" lon="12.6911106"><ele>137.0</ele><time>2026-04-19T07:21:53.022Z</time></trkpt><trkpt lat="43.7819472" lon="12.6908041"><ele>137.0</ele><time>2026-04-19T07:21:54.017Z</time></trkpt><trkpt lat="43.7818592" lon="12.6904802"><ele>131.5</ele><time>2026-04-19T07:21:55.016Z</time></trkpt><trkpt lat="43.781777" lon="12.6901733"><ele>126.0</ele><time>2026-04-19T07:21:56.021Z</time></trkpt><trkpt lat="43.7817012" lon="12.689858"><ele>126.0</ele><time>2026-04-19T07:21:57.026Z</time></trkpt><trkpt lat="43.7816103" lon="12.6895495"><ele>126.0</ele><time>2026-04-19T07:21:58.022Z</time></trkpt><trkpt lat="43.7815163" lon="12.6892523"><ele>128.0</ele><time>2026-04-19T07:21:59.024Z</time></trkpt><trkpt lat="43.7814048" lon="12.6889709"><ele>130.0</ele><time>2026-04-19T07:22:00.018Z</time></trkpt><trkpt lat="43.7812698" lon="12.6887033"><ele>129.0</ele><time>2026-04-19T07:22:01.025Z</time></trkpt><trkpt lat="43.7811177" lon="12.6884439"><ele>128.0</ele><time>2026-04-19T07:22:02.021Z</time></trkpt><trkpt lat="43.7809638" lon="12.6881639"><ele>128.0</ele><time>2026-04-19T07:22:03.023Z</time></trkpt><trkpt lat="43.7807911" lon="12.6878869"><ele>128.0</ele><time>2026-04-19T07:22:04.024Z</time></trkpt><trkpt lat="43.7805868" lon="12.6876269"><ele>128.5</ele><time>2026-04-19T07:22:05.029Z</time></trkpt><trkpt lat="43.7803472" lon="12.6874099"><ele>129.0</ele><time>2026-04-19T07:22:06.031Z</time></trkpt><trkpt lat="43.780076" lon="12.6872257"><ele>129.0</ele><time>2026-04-19T07:22:07.027Z</time></trkpt><trkpt lat="43.7798107" lon="12.6870796"><ele>129.0</ele><time>2026-04-19T07:22:08.031Z</time></trkpt><trkpt lat="43.7795373" lon="12.6869259"><ele>129.5</ele><time>2026-04-19T07:22:09.016Z</time></trkpt><trkpt lat="43.7792809" lon="12.6867738"><ele>130.0</ele><time>2026-04-19T07:22:10.016Z</time></trkpt><trkpt lat="43.7790306" lon="12.6866156"><ele>130.0</ele><time>2026-04-19T07:22:11.034Z</time></trkpt><trkpt lat="43.778799" lon="12.6864422"><ele>130.0</ele><time>2026-04-19T07:22:12.027Z</time></trkpt><trkpt lat="43.778572" lon="12.6862387"><ele>130.5</ele><time>2026-04-19T07:22:13.025Z</time></trkpt><trkpt lat="43.7783535" lon="12.6860421"><ele>131.0</ele><time>2026-04-19T07:22:14.023Z</time></trkpt><trkpt lat="43.7781501" lon="12.6858546"><ele>131.0</ele><time>2026-04-19T07:22:15.019Z</time></trkpt><trkpt lat="43.7779509" lon="12.6857025"><ele>131.0</ele><time>2026-04-19T07:22:16.02Z</time></trkpt><trkpt lat="43.7777682" lon="12.6855438"><ele>131.0</ele><time>2026-04-19T07:22:17.025Z</time></trkpt><trkpt lat="43.7775829" lon="12.6853934"><ele>131.66666666666666</ele><time>2026-04-19T07:22:18.028Z</time></trkpt><trkpt lat="43.7773977" lon="12.6852398"><ele>132.33333333333334</ele><time>2026-04-19T07:22:19.031Z</time></trkpt><trkpt lat="43.7772241" lon="12.6850699"><ele>133.0</ele><time>2026-04-19T07:22:20.022Z</time></trkpt><trkpt lat="43.777065" lon="12.6848873"><ele>133.0</ele><time>2026-04-19T07:22:21.03Z</time></trkpt><trkpt lat="43.7769765" lon="12.6846339"><ele>133.0</ele><time>2026-04-19T07:22:22.031Z</time></trkpt><trkpt lat="43.7769313" lon="12.684339"><ele>133.0</ele><time>2026-04-19T07:22:23.028Z</time></trkpt><trkpt lat="43.7769262" lon="12.6840356"><ele>138.5</ele><time>2026-04-19T07:22:24.027Z</time></trkpt><trkpt lat="43.7769806" lon="12.68371"><ele>144.0</ele><time>2026-04-19T07:22:25.018Z</time></trkpt><trkpt lat="43.7770002" lon="12.6833861"><ele>147.5</ele><time>2026-04-19T07:22:26.015Z</time></trkpt><trkpt lat="43.7770066" lon="12.6830724"><ele>151.0</ele><time>2026-04-19T07:22:27.017Z</time></trkpt><trkpt lat="43.777014" lon="12.6827528"><ele>152.0</ele><time>2026-04-19T07:22:28.01Z</time></trkpt><trkpt lat="43.7770075" lon="12.6824475"><ele>153.0</ele><time>2026-04-19T07:22:29.023Z</time></trkpt><trkpt lat="43.7769711" lon="12.68219"><ele>154.0</ele><time>2026-04-19T07:22:30.025Z</time></trkpt><trkpt lat="43.7769181" lon="12.6819568"><ele>154.33333333333334</ele><time>2026-04-19T07:22:31.011Z</time></trkpt><trkpt lat="43.7768561" lon="12.6817305"><ele>154.66666666666666</ele><time>2026-04-19T07:22:32.017Z</time></trkpt><trkpt lat="43.7767916" lon="12.6815186"><ele>155.0</ele><time>2026-04-19T07:22:33.025Z</time></trkpt><trkpt lat="43.7767368" lon="12.6813155"><ele>151.0</ele><time>2026-04-19T07:22:34.024Z</time></trkpt><trkpt lat="43.7766759" lon="12.6811195"><ele>147.0</ele><time>2026-04-19T07:22:35.022Z</time></trkpt><trkpt lat="43.7766061" lon="12.680927"><ele>143.0</ele><time>2026-04-19T07:22:36.021Z</time></trkpt><trkpt lat="43.7765306" lon="12.6807302"><ele>143.0</ele><time>2026-04-19T07:22:37.021Z</time></trkpt><trkpt lat="43.776467" lon="12.6805412"><ele>143.0</ele><time>2026-04-19T07:22:38.021Z</time></trkpt><trkpt lat="43.7763963" lon="12.6803503"><ele>143.0</ele><time>2026-04-19T07:22:39.017Z</time></trkpt><trkpt lat="43.7763214" lon="12.6801513"><ele>143.66666666666666</ele><time>2026-04-19T07:22:40.024Z</time></trkpt><trkpt lat="43.7762475" lon="12.6799411"><ele>144.33333333333334</ele><time>2026-04-19T07:22:41.024Z</time></trkpt><trkpt lat="43.776174" lon="12.6797214"><ele>145.0</ele><time>2026-04-19T07:22:42.033Z</time></trkpt><trkpt lat="43.7761032" lon="12.6795081"><ele>143.66666666666669</ele><time>2026-04-19T07:22:43.03Z</time></trkpt><trkpt lat="43.7760265" lon="12.679292"><ele>142.33333333333334</ele><time>2026-04-19T07:22:44.023Z</time></trkpt><trkpt lat="43.7759393" lon="12.6790831"><ele>141.0</ele><time>2026-04-19T07:22:45.027Z</time></trkpt><trkpt lat="43.7758306" lon="12.6788868"><ele>141.0</ele><time>2026-04-19T07:22:46.026Z</time></trkpt><trkpt lat="43.7757158" lon="12.6787121"><ele>141.0</ele><time>2026-04-19T07:22:47.033Z</time></trkpt><trkpt lat="43.7755941" lon="12.6785428"><ele>141.0</ele><time>2026-04-19T07:22:48.032Z</time></trkpt><trkpt lat="43.7754756" lon="12.6783805"><ele>140.75</ele><time>2026-04-19T07:22:49.026Z</time></trkpt><trkpt lat="43.7753671" lon="12.6782419"><ele>140.5</ele><time>2026-04-19T07:22:50.025Z</time></trkpt><trkpt lat="43.7752607" lon="12.6781013"><ele>140.25</ele><time>2026-04-19T07:22:51.032Z</time></trkpt><trkpt lat="43.7751779" lon="12.6779514"><ele>140.0</ele><time>2026-04-19T07:22:52.028Z</time></trkpt><trkpt lat="43.7751003" lon="12.6777959"><ele>141.0</ele><time>2026-04-19T07:22:53.027Z</time></trkpt><trkpt lat="43.7750486" lon="12.6776096"><ele>142.0</ele><time>2026-04-19T07:22:54.026Z</time></trkpt><trkpt lat="43.7749987" lon="12.6774337"><ele>143.0</ele><time>2026-04-19T07:22:55.021Z</time></trkpt><trkpt lat="43.7749568" lon="12.6772589"><ele>144.0</ele><time>2026-04-19T07:22:56.027Z</time></trkpt><trkpt lat="43.7749062" lon="12.6770901"><ele>146.5</ele><time>2026-04-19T07:22:57.018Z</time></trkpt><trkpt lat="43.7748498" lon="12.67693"><ele>149.0</ele><time>2026-04-19T07:22:58.015Z</time></trkpt><trkpt lat="43.77478" lon="12.6767568"><ele>151.5</ele><time>2026-04-19T07:22:59.017Z</time></trkpt><trkpt lat="43.7746937" lon="12.6765736"><ele>154.0</ele><time>2026-04-19T07:23:00.025Z</time></trkpt><trkpt lat="43.7745639" lon="12.6763843"><ele>154.0</ele><time>2026-04-19T07:23:01.013Z</time></trkpt><trkpt lat="43.7744267" lon="12.6761889"><ele>154.0</ele><time>2026-04-19T07:23:02.019Z</time></trkpt><trkpt lat="43.7743018" lon="12.6759905"><ele>154.0</ele><time>2026-04-19T07:23:03.017Z</time></trkpt><trkpt lat="43.7741727" lon="12.6757855"><ele>151.66666666666669</ele><time>2026-04-19T07:23:04.023Z</time></trkpt><trkpt lat="43.7740424" lon="12.6755808"><ele>149.33333333333334</ele><time>2026-04-19T07:23:05.019Z</time></trkpt><trkpt lat="43.7739247" lon="12.6753953"><ele>147.0</ele><time>2026-04-19T07:23:06.016Z</time></trkpt><trkpt lat="43.7738003" lon="12.6752096"><ele>147.0</ele><time>2026-04-19T07:23:07.019Z</time></trkpt><trkpt lat="43.7736791" lon="12.6750298"><ele>147.0</ele><time>2026-04-19T07:23:08.022Z</time></trkpt><trkpt lat="43.7735422" lon="12.6748591"><ele>147.0</ele><time>2026-04-19T07:23:09.027Z</time></trkpt><trkpt lat="43.7733801" lon="12.6747027"><ele>146.66666666666666</ele><time>2026-04-19T07:23:10.025Z</time></trkpt><trkpt lat="43.773217" lon="12.6745644"><ele>146.33333333333331</ele><time>2026-04-19T07:23:11.021Z</time></trkpt><trkpt lat="43.7730352" lon="12.674445"><ele>146.0</ele><time>2026-04-19T07:23:12.026Z</time></trkpt><trkpt lat="43.7728507" lon="12.6743235"><ele>146.33333333333331</ele><time>2026-04-19T07:23:13.036Z</time></trkpt><trkpt lat="43.7726526" lon="12.6741807"><ele>146.66666666666666</ele><time>2026-04-19T07:23:14.025Z</time></trkpt><trkpt lat="43.7724637" lon="12.6740364"><ele>147.0</ele><time>2026-04-19T07:23:15.026Z</time></trkpt><trkpt lat="43.7722793" lon="12.6739069"><ele>147.0</ele><time>2026-04-19T07:23:16.023Z</time></trkpt><trkpt lat="43.7720933" lon="12.6737842"><ele>147.0</ele><time>2026-04-19T07:23:17.026Z</time></trkpt><trkpt lat="43.7719211" lon="12.6736547"><ele>147.0</ele><time>2026-04-19T07:23:18.019Z</time></trkpt><trkpt lat="43.7717579" lon="12.6735385"><ele>149.33333333333334</ele><time>2026-04-19T07:23:19.027Z</time></trkpt><trkpt lat="43.7716041" lon="12.6734363"><ele>151.66666666666669</ele><time>2026-04-19T07:23:20.018Z</time></trkpt><trkpt lat="43.7714352" lon="12.6733483"><ele>154.0</ele><time>2026-04-19T07:23:21.03Z</time></trkpt><trkpt lat="43.7712427" lon="12.6732544"><ele>154.0</ele><time>2026-04-19T07:23:22.021Z</time></trkpt><trkpt lat="43.7710447" lon="12.6731425"><ele>154.0</ele><time>2026-04-19T07:23:23.026Z</time></trkpt><trkpt lat="43.7708249" lon="12.6730313"><ele>154.0</ele><time>2026-04-19T07:23:24.018Z</time></trkpt><trkpt lat="43.7706019" lon="12.6729319"><ele>152.0</ele><time>2026-04-19T07:23:25.023Z</time></trkpt><trkpt lat="43.7703504" lon="12.6728159"><ele>150.0</ele><time>2026-04-19T07:23:26.021Z</time></trkpt><trkpt lat="43.7700911" lon="12.6727076"><ele>150.0</ele><time>2026-04-19T07:23:27.012Z</time></trkpt><trkpt lat="43.7698341" lon="12.6725951"><ele>150.0</ele><time>2026-04-19T07:23:28.025Z</time></trkpt><trkpt lat="43.7695984" lon="12.6724943"><ele>150.0</ele><time>2026-04-19T07:23:29.015Z</time></trkpt><trkpt lat="43.769371" lon="12.6723891"><ele>150.0</ele><time>2026-04-19T07:23:30.029Z</time></trkpt><trkpt lat="43.769162" lon="12.6722848"><ele>150.66666666666666</ele><time>2026-04-19T07:23:31.021Z</time></trkpt><trkpt lat="43.7689537" lon="12.6721987"><ele>151.33333333333331</ele><time>2026-04-19T07:23:32.017Z</time></trkpt><trkpt lat="43.7687486" lon="12.6721071"><ele>152.0</ele><time>2026-04-19T07:23:33.026Z</time></trkpt><trkpt lat="43.7685457" lon="12.6720324"><ele>153.0</ele><time>2026-04-19T07:23:34.022Z</time></trkpt><trkpt lat="43.768342" lon="12.671933"><ele>154.0</ele><time>2026-04-19T07:23:35.021Z</time></trkpt><trkpt lat="43.7681224" lon="12.6718371"><ele>155.0</ele><time>2026-04-19T07:23:36.029Z</time></trkpt><trkpt lat="43.7679158" lon="12.6717445"><ele>155.0</ele><time>2026-04-19T07:23:37.027Z</time></trkpt><trkpt lat="43.7677396" lon="12.6716227"><ele>155.0</ele><time>2026-04-19T07:23:38.02Z</time></trkpt><trkpt lat="43.7675791" lon="12.6715098"><ele>155.0</ele><time>2026-04-19T07:23:39.023Z</time></trkpt><trkpt lat="43.7674212" lon="12.6713673"><ele>154.66666666666666</ele><time>2026-04-19T07:23:40.025Z</time></trkpt><trkpt lat="43.767255" lon="12.6711747"><ele>154.33333333333334</ele><time>2026-04-19T07:23:41.025Z</time></trkpt><trkpt lat="43.7670973" lon="12.6709479"><ele>154.0</ele><time>2026-04-19T07:23:42.029Z</time></trkpt><trkpt lat="43.7669185" lon="12.6706988"><ele>153.5</ele><time>2026-04-19T07:23:43.014Z</time></trkpt><trkpt lat="43.7667264" lon="12.6704402"><ele>153.0</ele><time>2026-04-19T07:23:44.032Z</time></trkpt><trkpt lat="43.766533" lon="12.6701925"><ele>155.5</ele><time>2026-04-19T07:23:45.023Z</time></trkpt><trkpt lat="43.766318" lon="12.6699556"><ele>158.0</ele><time>2026-04-19T07:23:46.024Z</time></trkpt><trkpt lat="43.7661226" lon="12.6697347"><ele>158.5</ele><time>2026-04-19T07:23:47.028Z</time></trkpt><trkpt lat="43.7659257" lon="12.6695442"><ele>159.0</ele><time>2026-04-19T07:23:48.031Z</time></trkpt><trkpt lat="43.7657207" lon="12.6693975"><ele>159.0</ele><time>2026-04-19T07:23:49.034Z</time></trkpt><trkpt lat="43.7655085" lon="12.6693363"><ele>159.0</ele><time>2026-04-19T07:23:50.026Z</time></trkpt><trkpt lat="43.7652664" lon="12.6693507"><ele>158.0</ele><time>2026-04-19T07:23:51.021Z</time></trkpt><trkpt lat="43.7650136" lon="12.6694202"><ele>157.0</ele><time>2026-04-19T07:23:52.025Z</time></trkpt><trkpt lat="43.7647698" lon="12.6695298"><ele>157.0</ele><time>2026-04-19T07:23:53.018Z</time></trkpt><trkpt lat="43.7645259" lon="12.6696377"><ele>157.0</ele><time>2026-04-19T07:23:54.023Z</time></trkpt><trkpt lat="43.7642935" lon="12.6696978"><ele>157.0</ele><time>2026-04-19T07:23:55.017Z</time></trkpt><trkpt lat="43.7640773" lon="12.6697161"><ele>157.0</ele><time>2026-04-19T07:23:56.018Z</time></trkpt><trkpt lat="43.7638703" lon="12.6697109"><ele>157.0</ele><time>2026-04-19T07:23:57.017Z</time></trkpt><trkpt lat="43.7636583" lon="12.6696839"><ele>157.0</ele><time>2026-04-19T07:23:58.016Z</time></trkpt><trkpt lat="43.7634477" lon="12.66965"><ele>157.0</ele><time>2026-04-19T07:23:59.022Z</time></trkpt><trkpt lat="43.7632325" lon="12.669617"><ele>157.0</ele><time>2026-04-19T07:24:00.02Z</time></trkpt><trkpt lat="43.7630189" lon="12.6695769"><ele>157.0</ele><time>2026-04-19T07:24:01.019Z</time></trkpt><trkpt lat="43.7628131" lon="12.6695185"><ele>157.0</ele><time>2026-04-19T07:24:02.026Z</time></trkpt><trkpt lat="43.762606" lon="12.6694187"><ele>157.0</ele><time>2026-04-19T07:24:03.017Z</time></trkpt><trkpt lat="43.7624267" lon="12.669253"><ele>159.66666666666669</ele><time>2026-04-19T07:24:04.026Z</time></trkpt><trkpt lat="43.7622691" lon="12.6690591"><ele>162.33333333333334</ele><time>2026-04-19T07:24:05.026Z</time></trkpt><trkpt lat="43.7621213" lon="12.6688364"><ele>165.0</ele><time>2026-04-19T07:24:06.015Z</time></trkpt><trkpt lat="43.7619429" lon="12.6686095"><ele>167.0</ele><time>2026-04-19T07:24:07.014Z</time></trkpt><trkpt lat="43.7617662" lon="12.6683768"><ele>169.0</ele><time>2026-04-19T07:24:08.021Z</time></trkpt><trkpt lat="43.7615561" lon="12.6681753"><ele>169.0</ele><time>2026-04-19T07:24:09.022Z</time></trkpt><trkpt lat="43.7613262" lon="12.6680069"><ele>169.0</ele><time>2026-04-19T07:24:10.011Z</time></trkpt><trkpt lat="43.7610943" lon="12.6678837"><ele>169.5</ele><time>2026-04-19T07:24:11.021Z</time></trkpt><trkpt lat="43.7608169" lon="12.6678097"><ele>170.0</ele><time>2026-04-19T07:24:12.012Z</time></trkpt><trkpt lat="43.7605706" lon="12.6677467"><ele>173.0</ele><time>2026-04-19T07:24:13.015Z</time></trkpt><trkpt lat="43.7603314" lon="12.6677016"><ele>176.0</ele><time>2026-04-19T07:24:14.013Z</time></trkpt><trkpt lat="43.7601027" lon="12.6676741"><ele>176.0</ele><time>2026-04-19T07:24:15.026Z</time></trkpt><trkpt lat="43.7598916" lon="12.6676643"><ele>176.0</ele><time>2026-04-19T07:24:16.01Z</time></trkpt><trkpt lat="43.7596979" lon="12.6676466"><ele>176.0</ele><time>2026-04-19T07:24:17.011Z</time></trkpt><trkpt lat="43.7595021" lon="12.667622"><ele>174.0</ele><time>2026-04-19T07:24:18.007Z</time></trkpt><trkpt lat="43.7593245" lon="12.667601"><ele>172.0</ele><time>2026-04-19T07:24:19.004Z</time></trkpt><trkpt lat="43.7591553" lon="12.667586"><ele>170.0</ele><time>2026-04-19T07:24:20.004Z</time></trkpt><trkpt lat="43.7589972" lon="12.6675676"><ele>170.0</ele><time>2026-04-19T07:24:21.013Z</time></trkpt><trkpt lat="43.7588441" lon="12.667537"><ele>170.0</ele><time>2026-04-19T07:24:22.011Z</time></trkpt><trkpt lat="43.758706" lon="12.6674745"><ele>170.0</ele><time>2026-04-19T07:24:23.016Z</time></trkpt><trkpt lat="43.7585738" lon="12.6673591"><ele>170.66666666666666</ele><time>2026-04-19T07:24:24.019Z</time></trkpt><trkpt lat="43.7584603" lon="12.6671961"><ele>171.33333333333334</ele><time>2026-04-19T07:24:25.009Z</time></trkpt><trkpt lat="43.7583459" lon="12.667058"><ele>172.0</ele><time>2026-04-19T07:24:26.011Z</time></trkpt><trkpt lat="43.7582106" lon="12.6669373"><ele>174.66666666666669</ele><time>2026-04-19T07:24:27.006Z</time></trkpt><trkpt lat="43.7580619" lon="12.6668555"><ele>177.33333333333334</ele><time>2026-04-19T07:24:28.009Z</time></trkpt><trkpt lat="43.757896" lon="12.6668112"><ele>180.0</ele><time>2026-04-19T07:24:28.999Z</time></trkpt><trkpt lat="43.7577366" lon="12.6667793"><ele>178.33333333333334</ele><time>2026-04-19T07:24:30.011Z</time></trkpt><trkpt lat="43.7575637" lon="12.6668035"><ele>176.66666666666669</ele><time>2026-04-19T07:24:31.01Z</time></trkpt><trkpt lat="43.7573979" lon="12.6668386"><ele>175.0</ele><time>2026-04-19T07:24:32Z</time></trkpt><trkpt lat="43.7572465" lon="12.6668681"><ele>175.0</ele><time>2026-04-19T07:24:33.001Z</time></trkpt><trkpt lat="43.7570763" lon="12.6668718"><ele>175.0</ele><time>2026-04-19T07:24:33.993Z</time></trkpt><trkpt lat="43.7569036" lon="12.6668535"><ele>175.0</ele><time>2026-04-19T07:24:34.995Z</time></trkpt><trkpt lat="43.7567116" lon="12.6668211"><ele>176.33333333333334</ele><time>2026-04-19T07:24:35.999Z</time></trkpt><trkpt lat="43.756525" lon="12.6667648"><ele>177.66666666666666</ele><time>2026-04-19T07:24:37.004Z</time></trkpt><trkpt lat="43.7563317" lon="12.6667237"><ele>179.0</ele><time>2026-04-19T07:24:38.009Z</time></trkpt><trkpt lat="43.7561392" lon="12.6666862"><ele>179.33333333333331</ele><time>2026-04-19T07:24:39.004Z</time></trkpt><trkpt lat="43.755959" lon="12.6666355"><ele>179.66666666666666</ele><time>2026-04-19T07:24:40.01Z</time></trkpt><trkpt lat="43.7557855" lon="12.6665638"><ele>180.0</ele><time>2026-04-19T07:24:41.01Z</time></trkpt><trkpt lat="43.7556282" lon="12.6664808"><ele>180.0</ele><time>2026-04-19T07:24:42.016Z</time></trkpt><trkpt lat="43.7554818" lon="12.6663786"><ele>180.0</ele><time>2026-04-19T07:24:43.013Z</time></trkpt><trkpt lat="43.7553305" lon="12.6662574"><ele>180.0</ele><time>2026-04-19T07:24:44.013Z</time></trkpt><trkpt lat="43.755206" lon="12.6661097"><ele>180.66666666666666</ele><time>2026-04-19T07:24:45.021Z</time></trkpt><trkpt lat="43.755094" lon="12.6659359"><ele>181.33333333333331</ele><time>2026-04-19T07:24:46.03Z</time></trkpt><trkpt lat="43.755004" lon="12.6657471"><ele>182.0</ele><time>2026-04-19T07:24:47.017Z</time></trkpt><trkpt lat="43.7549197" lon="12.6655507"><ele>182.0</ele><time>2026-04-19T07:24:48.018Z</time></trkpt><trkpt lat="43.7548445" lon="12.6653439"><ele>182.0</ele><time>2026-04-19T07:24:49.02Z</time></trkpt><trkpt lat="43.7547821" lon="12.6651439"><ele>182.0</ele><time>2026-04-19T07:24:50.021Z</time></trkpt><trkpt lat="43.7547349" lon="12.6649221"><ele>185.0</ele><time>2026-04-19T07:24:51.029Z</time></trkpt><trkpt lat="43.7547029" lon="12.664691"><ele>188.0</ele><time>2026-04-19T07:24:52.017Z</time></trkpt><trkpt lat="43.7546622" lon="12.6644514"><ele>191.0</ele><time>2026-04-19T07:24:53.022Z</time></trkpt><trkpt lat="43.7546068" lon="12.6642085"><ele>192.0</ele><time>2026-04-19T07:24:54.027Z</time></trkpt><trkpt lat="43.7545253" lon="12.6639552"><ele>193.0</ele><time>2026-04-19T07:24:55.031Z</time></trkpt><trkpt lat="43.754432" lon="12.6636954"><ele>194.0</ele><time>2026-04-19T07:24:56.032Z</time></trkpt><trkpt lat="43.7543307" lon="12.6634392"><ele>194.0</ele><time>2026-04-19T07:24:57.028Z</time></trkpt><trkpt lat="43.7542275" lon="12.6631723"><ele>194.0</ele><time>2026-04-19T07:24:58.031Z</time></trkpt><trkpt lat="43.7541088" lon="12.6628985"><ele>194.0</ele><time>2026-04-19T07:24:59.028Z</time></trkpt><trkpt lat="43.7539898" lon="12.6626343"><ele>198.0</ele><time>2026-04-19T07:25:00.026Z</time></trkpt><trkpt lat="43.7538613" lon="12.6623456"><ele>202.0</ele><time>2026-04-19T07:25:01.022Z</time></trkpt><trkpt lat="43.753721" lon="12.6620778"><ele>201.0</ele><time>2026-04-19T07:25:02.018Z</time></trkpt><trkpt lat="43.7535748" lon="12.6618163"><ele>200.0</ele><time>2026-04-19T07:25:03.023Z</time></trkpt><trkpt lat="43.7534152" lon="12.6615481"><ele>200.0</ele><time>2026-04-19T07:25:04.019Z</time></trkpt><trkpt lat="43.753254" lon="12.6612835"><ele>200.0</ele><time>2026-04-19T07:25:05.021Z</time></trkpt><trkpt lat="43.7530888" lon="12.6610252"><ele>208.0</ele><time>2026-04-19T07:25:06.008Z</time></trkpt><trkpt lat="43.7529071" lon="12.6607893"><ele>216.0</ele><time>2026-04-19T07:25:07.01Z</time></trkpt><trkpt lat="43.7527155" lon="12.6605611"><ele>216.33333333333331</ele><time>2026-04-19T07:25:08.008Z</time></trkpt><trkpt lat="43.7525462" lon="12.66035"><ele>216.66666666666666</ele><time>2026-04-19T07:25:09.011Z</time></trkpt><trkpt lat="43.7524074" lon="12.6601454"><ele>217.0</ele><time>2026-04-19T07:25:10.016Z</time></trkpt><trkpt lat="43.7522936" lon="12.6599423"><ele>217.0</ele><time>2026-04-19T07:25:11.019Z</time></trkpt><trkpt lat="43.7521938" lon="12.6597795"><ele>217.0</ele><time>2026-04-19T07:25:12.015Z</time></trkpt><trkpt lat="43.7521176" lon="12.6596261"><ele>217.0</ele><time>2026-04-19T07:25:13.02Z</time></trkpt><trkpt lat="43.7520704" lon="12.659468"><ele>217.0</ele><time>2026-04-19T07:25:14.014Z</time></trkpt><trkpt lat="43.7520264" lon="12.6593023"><ele>216.0</ele><time>2026-04-19T07:25:15.016Z</time></trkpt><trkpt lat="43.7519617" lon="12.6591267"><ele>215.0</ele><time>2026-04-19T07:25:16.023Z</time></trkpt><trkpt lat="43.7518588" lon="12.6589389"><ele>214.0</ele><time>2026-04-19T07:25:17.036Z</time></trkpt><trkpt lat="43.7517386" lon="12.6587471"><ele>215.66666666666666</ele><time>2026-04-19T07:25:18.02Z</time></trkpt><trkpt lat="43.7516273" lon="12.6585355"><ele>217.33333333333331</ele><time>2026-04-19T07:25:19.015Z</time></trkpt><trkpt lat="43.7515143" lon="12.6583098"><ele>219.0</ele><time>2026-04-19T07:25:20.026Z</time></trkpt><trkpt lat="43.7514214" lon="12.6580524"><ele>219.0</ele><time>2026-04-19T07:25:21.017Z</time></trkpt><trkpt lat="43.7513299" lon="12.6577924"><ele>219.0</ele><time>2026-04-19T07:25:22.021Z</time></trkpt><trkpt lat="43.7512354" lon="12.6575329"><ele>219.0</ele><time>2026-04-19T07:25:23.024Z</time></trkpt><trkpt lat="43.7511418" lon="12.6572627"><ele>221.66666666666669</ele><time>2026-04-19T07:25:24.026Z</time></trkpt><trkpt lat="43.7510443" lon="12.6569944"><ele>224.33333333333334</ele><time>2026-04-19T07:25:25.025Z</time></trkpt><trkpt lat="43.7509339" lon="12.6567199"><ele>227.0</ele><time>2026-04-19T07:25:26.026Z</time></trkpt><trkpt lat="43.7508121" lon="12.6564362"><ele>227.0</ele><time>2026-04-19T07:25:27.023Z</time></trkpt><trkpt lat="43.750704" lon="12.6561383"><ele>227.0</ele><time>2026-04-19T07:25:28.027Z</time></trkpt><trkpt lat="43.75059" lon="12.6558416"><ele>231.0</ele><time>2026-04-19T07:25:29.025Z</time></trkpt><trkpt lat="43.7504848" lon="12.6555385"><ele>235.0</ele><time>2026-04-19T07:25:30.026Z</time></trkpt><trkpt lat="43.7503771" lon="12.6552429"><ele>232.5</ele><time>2026-04-19T07:25:31.021Z</time></trkpt><trkpt lat="43.7502612" lon="12.6549553"><ele>230.0</ele><time>2026-04-19T07:25:32.024Z</time></trkpt><trkpt lat="43.7501345" lon="12.6546959"><ele>230.0</ele><time>2026-04-19T07:25:33.023Z</time></trkpt><trkpt lat="43.7499843" lon="12.6544581"><ele>230.0</ele><time>2026-04-19T07:25:34.022Z</time></trkpt><trkpt lat="43.7498158" lon="12.6542426"><ele>235.5</ele><time>2026-04-19T07:25:35.02Z</time></trkpt><trkpt lat="43.7496437" lon="12.6540281"><ele>241.0</ele><time>2026-04-19T07:25:36.026Z</time></trkpt><trkpt lat="43.7494665" lon="12.6538088"><ele>242.0</ele><time>2026-04-19T07:25:37.025Z</time></trkpt><trkpt lat="43.749292" lon="12.653581"><ele>243.0</ele><time>2026-04-19T07:25:38.034Z</time></trkpt><trkpt lat="43.7491107" lon="12.6533618"><ele>243.0</ele><time>2026-04-19T07:25:39.022Z</time></trkpt><trkpt lat="43.7489204" lon="12.6531294"><ele>243.0</ele><time>2026-04-19T07:25:40.019Z</time></trkpt><trkpt lat="43.7487238" lon="12.652891"><ele>245.5</ele><time>2026-04-19T07:25:41.031Z</time></trkpt><trkpt lat="43.7485135" lon="12.6526551"><ele>248.0</ele><time>2026-04-19T07:25:42.029Z</time></trkpt><trkpt lat="43.7482774" lon="12.6524313"><ele>248.0</ele><time>2026-04-19T07:25:43.025Z</time></trkpt><trkpt lat="43.7480317" lon="12.6522148"><ele>248.0</ele><time>2026-04-19T07:25:44.026Z</time></trkpt><trkpt lat="43.7477837" lon="12.6519945"><ele>252.0</ele><time>2026-04-19T07:25:45.021Z</time></trkpt><trkpt lat="43.7475377" lon="12.6517733"><ele>256.0</ele><time>2026-04-19T07:25:46.024Z</time></trkpt><trkpt lat="43.7473055" lon="12.6515428"><ele>256.0</ele><time>2026-04-19T07:25:47.026Z</time></trkpt><trkpt lat="43.7470709" lon="12.6513237"><ele>256.0</ele><time>2026-04-19T07:25:48.038Z</time></trkpt><trkpt lat="43.7468439" lon="12.6511079"><ele>256.5</ele><time>2026-04-19T07:25:49.016Z</time></trkpt><trkpt lat="43.7466345" lon="12.6509091"><ele>257.0</ele><time>2026-04-19T07:25:50.022Z</time></trkpt><trkpt lat="43.7464534" lon="12.6507028"><ele>257.0</ele><time>2026-04-19T07:25:51.018Z</time></trkpt><trkpt lat="43.7462979" lon="12.6504753"><ele>257.0</ele><time>2026-04-19T07:25:52.027Z</time></trkpt><trkpt lat="43.7461522" lon="12.6502198"><ele>257.5</ele><time>2026-04-19T07:25:53.021Z</time></trkpt><trkpt lat="43.7460209" lon="12.6499531"><ele>258.0</ele><time>2026-04-19T07:25:54.023Z</time></trkpt><trkpt lat="43.745893" lon="12.6496944"><ele>262.0</ele><time>2026-04-19T07:25:55.024Z</time></trkpt><trkpt lat="43.7457766" lon="12.6494167"><ele>266.0</ele><time>2026-04-19T07:25:56.02Z</time></trkpt><trkpt lat="43.7456669" lon="12.6491463"><ele>266.0</ele><time>2026-04-19T07:25:57.034Z</time></trkpt><trkpt lat="43.745575" lon="12.6488551"><ele>266.0</ele><time>2026-04-19T07:25:58.02Z</time></trkpt><trkpt lat="43.7454904" lon="12.6485807"><ele>266.0</ele><time>2026-04-19T07:25:59.025Z</time></trkpt><trkpt lat="43.745434" lon="12.6482969"><ele>270.0</ele><time>2026-04-19T07:26:00.029Z</time></trkpt><trkpt lat="43.7454143" lon="12.6479883"><ele>274.0</ele><time>2026-04-19T07:26:01.027Z</time></trkpt><trkpt lat="43.7454436" lon="12.647717"><ele>278.0</ele><time>2026-04-19T07:26:02.019Z</time></trkpt><trkpt lat="43.7454801" lon="12.6474662"><ele>279.6666666666667</ele><time>2026-04-19T07:26:03.02Z</time></trkpt><trkpt lat="43.7454774" lon="12.6472159"><ele>281.3333333333333</ele><time>2026-04-19T07:26:04.016Z</time></trkpt><trkpt lat="43.7454231" lon="12.6469903"><ele>283.0</ele><time>2026-04-19T07:26:05.021Z</time></trkpt><trkpt lat="43.7453175" lon="12.6467831"><ele>281.3333333333333</ele><time>2026-04-19T07:26:06.013Z</time></trkpt><trkpt lat="43.7451717" lon="12.6466135"><ele>279.6666666666667</ele><time>2026-04-19T07:26:07.016Z</time></trkpt><trkpt lat="43.7449856" lon="12.6465021"><ele>278.0</ele><time>2026-04-19T07:26:08.021Z</time></trkpt><trkpt lat="43.744775" lon="12.6464051"><ele>278.0</ele><time>2026-04-19T07:26:09.012Z</time></trkpt><trkpt lat="43.7445659" lon="12.646312"><ele>278.0</ele><time>2026-04-19T07:26:10.013Z</time></trkpt><trkpt lat="43.744356" lon="12.6462072"><ele>278.0</ele><time>2026-04-19T07:26:11.009Z</time></trkpt><trkpt lat="43.7441557" lon="12.6460952"><ele>281.6666666666667</ele><time>2026-04-19T07:26:12.013Z</time></trkpt><trkpt lat="43.743955" lon="12.6459805"><ele>285.3333333333333</ele><time>2026-04-19T07:26:13.019Z</time></trkpt><trkpt lat="43.7437623" lon="12.6458771"><ele>289.0</ele><time>2026-04-19T07:26:14.013Z</time></trkpt><trkpt lat="43.7435588" lon="12.6458185"><ele>287.5</ele><time>2026-04-19T07:26:15.024Z</time></trkpt><trkpt lat="43.7433297" lon="12.6458676"><ele>286.0</ele><time>2026-04-19T07:26:16.022Z</time></trkpt><trkpt lat="43.7431195" lon="12.6459499"><ele>286.0</ele><time>2026-04-19T07:26:17.03Z</time></trkpt><trkpt lat="43.7429089" lon="12.6460594"><ele>286.0</ele><time>2026-04-19T07:26:18.022Z</time></trkpt><trkpt lat="43.7427012" lon="12.6461528"><ele>286.0</ele><time>2026-04-19T07:26:19.05Z</time></trkpt><trkpt lat="43.7424804" lon="12.6461871"><ele>284.0</ele><time>2026-04-19T07:26:20.026Z</time></trkpt><trkpt lat="43.7422626" lon="12.646165"><ele>282.0</ele><time>2026-04-19T07:26:21.02Z</time></trkpt><trkpt lat="43.7420522" lon="12.646104"><ele>280.0</ele><time>2026-04-19T07:26:22.024Z</time></trkpt><trkpt lat="43.7418436" lon="12.645994"><ele>284.3333333333333</ele><time>2026-04-19T07:26:23.016Z</time></trkpt><trkpt lat="43.7416514" lon="12.6458712"><ele>288.6666666666667</ele><time>2026-04-19T07:26:24.02Z</time></trkpt><trkpt lat="43.7414685" lon="12.6457355"><ele>293.0</ele><time>2026-04-19T07:26:25.013Z</time></trkpt><trkpt lat="43.7412898" lon="12.6455992"><ele>293.0</ele><time>2026-04-19T07:26:26.022Z</time></trkpt><trkpt lat="43.7411029" lon="12.6454998"><ele>293.0</ele><time>2026-04-19T07:26:27.025Z</time></trkpt><trkpt lat="43.7408982" lon="12.6454636"><ele>293.0</ele><time>2026-04-19T07:26:28.025Z</time></trkpt><trkpt lat="43.7406749" lon="12.6454502"><ele>291.0</ele><time>2026-04-19T07:26:29.024Z</time></trkpt><trkpt lat="43.7404495" lon="12.6454362"><ele>289.0</ele><time>2026-04-19T07:26:30.017Z</time></trkpt><trkpt lat="43.7402296" lon="12.6454272"><ele>287.0</ele><time>2026-04-19T07:26:31.017Z</time></trkpt><trkpt lat="43.7400162" lon="12.6454078"><ele>286.33333333333337</ele><time>2026-04-19T07:26:32.011Z</time></trkpt><trkpt lat="43.7398049" lon="12.6453725"><ele>285.6666666666667</ele><time>2026-04-19T07:26:33.02Z</time></trkpt><trkpt lat="43.7396209" lon="12.6452766"><ele>285.0</ele><time>2026-04-19T07:26:34.016Z</time></trkpt><trkpt lat="43.7394489" lon="12.6451221"><ele>290.5</ele><time>2026-04-19T07:26:35.012Z</time></trkpt><trkpt lat="43.7392807" lon="12.6449173"><ele>296.0</ele><time>2026-04-19T07:26:36.022Z</time></trkpt><trkpt lat="43.7391362" lon="12.6446705"><ele>305.0</ele><time>2026-04-19T07:26:37.021Z</time></trkpt><trkpt lat="43.7389979" lon="12.6443925"><ele>314.0</ele><time>2026-04-19T07:26:38.009Z</time></trkpt><trkpt lat="43.73886" lon="12.6441333"><ele>314.0</ele><time>2026-04-19T07:26:39.011Z</time></trkpt><trkpt lat="43.7387139" lon="12.6438641"><ele>314.0</ele><time>2026-04-19T07:26:40.011Z</time></trkpt><trkpt lat="43.7385591" lon="12.6436275"><ele>311.33333333333337</ele><time>2026-04-19T07:26:40.995Z</time></trkpt><trkpt lat="43.7384154" lon="12.6433923"><ele>308.6666666666667</ele><time>2026-04-19T07:26:42.012Z</time></trkpt><trkpt lat="43.7382666" lon="12.643184"><ele>306.0</ele><time>2026-04-19T07:26:43.016Z</time></trkpt><trkpt lat="43.7380846" lon="12.6430167"><ele>306.0</ele><time>2026-04-19T07:26:44.014Z</time></trkpt><trkpt lat="43.7378755" lon="12.6429117"><ele>306.0</ele><time>2026-04-19T07:26:45.012Z</time></trkpt><trkpt lat="43.7376655" lon="12.6428174"><ele>306.0</ele><time>2026-04-19T07:26:46.01Z</time></trkpt><trkpt lat="43.7374543" lon="12.6427245"><ele>308.6666666666667</ele><time>2026-04-19T07:26:47.005Z</time></trkpt><trkpt lat="43.7372387" lon="12.64261"><ele>311.33333333333337</ele><time>2026-04-19T07:26:48.006Z</time></trkpt><trkpt lat="43.7370386" lon="12.6425119"><ele>314.0</ele><time>2026-04-19T07:26:49.021Z</time></trkpt><trkpt lat="43.736834" lon="12.6425036"><ele>314.0</ele><time>2026-04-19T07:26:50.011Z</time></trkpt><trkpt lat="43.7366189" lon="12.6425293"><ele>314.0</ele><time>2026-04-19T07:26:51.015Z</time></trkpt><trkpt lat="43.7364244" lon="12.6425995"><ele>314.0</ele><time>2026-04-19T07:26:52.011Z</time></trkpt><trkpt lat="43.7362576" lon="12.6427077"><ele>312.0</ele><time>2026-04-19T07:26:53.008Z</time></trkpt><trkpt lat="43.7361404" lon="12.6428345"><ele>310.0</ele><time>2026-04-19T07:26:54.013Z</time></trkpt><trkpt lat="43.7360027" lon="12.642955"><ele>308.0</ele><time>2026-04-19T07:26:55.012Z</time></trkpt><trkpt lat="43.7358746" lon="12.642986"><ele>306.0</ele><time>2026-04-19T07:26:56.017Z</time></trkpt><trkpt lat="43.7357567" lon="12.6429677"><ele>306.0</ele><time>2026-04-19T07:26:57.014Z</time></trkpt><trkpt lat="43.7356371" lon="12.6428865"><ele>306.0</ele><time>2026-04-19T07:26:58.011Z</time></trkpt><trkpt lat="43.7355379" lon="12.642844"><ele>306.0</ele><time>2026-04-19T07:26:59.007Z</time></trkpt><trkpt lat="43.7354437" lon="12.6428788"><ele>306.0</ele><time>2026-04-19T07:27:00.017Z</time></trkpt><trkpt lat="43.7353465" lon="12.6429721"><ele>306.0</ele><time>2026-04-19T07:27:01.009Z</time></trkpt><trkpt lat="43.7352272" lon="12.6430697"><ele>306.0</ele><time>2026-04-19T07:27:02.017Z</time></trkpt><trkpt lat="43.7350767" lon="12.6431191"><ele>306.0</ele><time>2026-04-19T07:27:03.014Z</time></trkpt><trkpt lat="43.7349132" lon="12.64314"><ele>307.6666666666667</ele><time>2026-04-19T07:27:04.012Z</time></trkpt><trkpt lat="43.7347145" lon="12.6431235"><ele>309.33333333333337</ele><time>2026-04-19T07:27:05.014Z</time></trkpt><trkpt lat="43.7344984" lon="12.6430816"><ele>311.0</ele><time>2026-04-19T07:27:06.01Z</time></trkpt><trkpt lat="43.7342748" lon="12.6430251"><ele>316.5</ele><time>2026-04-19T07:27:07.016Z</time></trkpt><trkpt lat="43.7340382" lon="12.6429864"><ele>322.0</ele><time>2026-04-19T07:27:08.009Z</time></trkpt><trkpt lat="43.7338206" lon="12.6429587"><ele>322.0</ele><time>2026-04-19T07:27:09.016Z</time></trkpt><trkpt lat="43.7336282" lon="12.6429144"><ele>322.0</ele><time>2026-04-19T07:27:10.011Z</time></trkpt><trkpt lat="43.7334455" lon="12.6428538"><ele>322.0</ele><time>2026-04-19T07:27:11.016Z</time></trkpt><trkpt lat="43.7332665" lon="12.6427533"><ele>321.3333333333333</ele><time>2026-04-19T07:27:12.012Z</time></trkpt><trkpt lat="43.7330986" lon="12.6426259"><ele>320.6666666666667</ele><time>2026-04-19T07:27:13.007Z</time></trkpt><trkpt lat="43.732939" lon="12.6424903"><ele>320.0</ele><time>2026-04-19T07:27:14.011Z</time></trkpt><trkpt lat="43.7327779" lon="12.6423192"><ele>321.33333333333337</ele><time>2026-04-19T07:27:15.006Z</time></trkpt><trkpt lat="43.7326349" lon="12.6421227"><ele>322.6666666666667</ele><time>2026-04-19T07:27:16.013Z</time></trkpt><trkpt lat="43.7325013" lon="12.6419189"><ele>324.0</ele><time>2026-04-19T07:27:17.009Z</time></trkpt><trkpt lat="43.7323944" lon="12.6417162"><ele>324.0</ele><time>2026-04-19T07:27:18.009Z</time></trkpt><trkpt lat="43.7323067" lon="12.6415354"><ele>324.0</ele><time>2026-04-19T07:27:19.01Z</time></trkpt><trkpt lat="43.7322214" lon="12.6413772"><ele>324.0</ele><time>2026-04-19T07:27:20.025Z</time></trkpt><trkpt lat="43.7321592" lon="12.6412557"><ele>324.0</ele><time>2026-04-19T07:27:21.014Z</time></trkpt><trkpt lat="43.7320996" lon="12.6411356"><ele>323.75</ele><time>2026-04-19T07:27:22.009Z</time></trkpt><trkpt lat="43.7320093" lon="12.6410444"><ele>323.5</ele><time>2026-04-19T07:27:23.019Z</time></trkpt><trkpt lat="43.7319052" lon="12.6409691"><ele>323.25</ele><time>2026-04-19T07:27:24.015Z</time></trkpt><trkpt lat="43.7317817" lon="12.6409094"><ele>323.0</ele><time>2026-04-19T07:27:25.02Z</time></trkpt><trkpt lat="43.7316217" lon="12.6408852"><ele>324.33333333333337</ele><time>2026-04-19T07:27:26.017Z</time></trkpt><trkpt lat="43.731447" lon="12.6408926"><ele>325.6666666666667</ele><time>2026-04-19T07:27:27.023Z</time></trkpt><trkpt lat="43.7312467" lon="12.6409318"><ele>327.0</ele><time>2026-04-19T07:27:28.011Z</time></trkpt><trkpt lat="43.7310333" lon="12.6409829"><ele>329.5</ele><time>2026-04-19T07:27:29.008Z</time></trkpt><trkpt lat="43.7308022" lon="12.6409978"><ele>332.0</ele><time>2026-04-19T07:27:30.007Z</time></trkpt><trkpt lat="43.7305768" lon="12.6409954"><ele>332.0</ele><time>2026-04-19T07:27:31.01Z</time></trkpt><trkpt lat="43.7303531" lon="12.6410014"><ele>332.0</ele><time>2026-04-19T07:27:32.011Z</time></trkpt><trkpt lat="43.730112" lon="12.641018"><ele>335.0</ele><time>2026-04-19T07:27:33.012Z</time></trkpt><trkpt lat="43.7298721" lon="12.6410361"><ele>338.0</ele><time>2026-04-19T07:27:34.008Z</time></trkpt><trkpt lat="43.7296335" lon="12.6410758"><ele>338.0</ele><time>2026-04-19T07:27:35.006Z</time></trkpt><trkpt lat="43.7293974" lon="12.6410916"><ele>338.0</ele><time>2026-04-19T07:27:36.003Z</time></trkpt><trkpt lat="43.729188" lon="12.6410993"><ele>338.0</ele><time>2026-04-19T07:27:37.006Z</time></trkpt><trkpt lat="43.7289816" lon="12.6410953"><ele>340.6666666666667</ele><time>2026-04-19T07:27:38.014Z</time></trkpt><trkpt lat="43.7287946" lon="12.6410462"><ele>343.3333333333333</ele><time>2026-04-19T07:27:39.01Z</time></trkpt><trkpt lat="43.7286271" lon="12.6409862"><ele>346.0</ele><time>2026-04-19T07:27:40.009Z</time></trkpt><trkpt lat="43.7284682" lon="12.6409104"><ele>348.25</ele><time>2026-04-19T07:27:41.015Z</time></trkpt><trkpt lat="43.7283237" lon="12.6408458"><ele>350.5</ele><time>2026-04-19T07:27:42.024Z</time></trkpt><trkpt lat="43.7281916" lon="12.6407779"><ele>352.75</ele><time>2026-04-19T07:27:43.021Z</time></trkpt><trkpt lat="43.7280687" lon="12.6407384"><ele>355.0</ele><time>2026-04-19T07:27:44.02Z</time></trkpt><trkpt lat="43.7279536" lon="12.6407517"><ele>355.0</ele><time>2026-04-19T07:27:45.012Z</time></trkpt><trkpt lat="43.7278887" lon="12.6408464"><ele>355.0</ele><time>2026-04-19T07:27:46.023Z</time></trkpt><trkpt lat="43.7278763" lon="12.6409848"><ele>355.0</ele><time>2026-04-19T07:27:47.02Z</time></trkpt><trkpt lat="43.7278965" lon="12.6411356"><ele>355.0</ele><time>2026-04-19T07:27:48.019Z</time></trkpt><trkpt lat="43.7279349" lon="12.6412769"><ele>355.0</ele><time>2026-04-19T07:27:49.008Z</time></trkpt><trkpt lat="43.7279966" lon="12.6413643"><ele>357.5</ele><time>2026-04-19T07:27:50.003Z</time></trkpt><trkpt lat="43.7280898" lon="12.6414104"><ele>360.0</ele><time>2026-04-19T07:27:51.018Z</time></trkpt><trkpt lat="43.728229" lon="12.6414268"><ele>362.5</ele><time>2026-04-19T07:27:52.006Z</time></trkpt><trkpt lat="43.728376" lon="12.6414229"><ele>365.0</ele><time>2026-04-19T07:27:52.998Z</time></trkpt><trkpt lat="43.7285311" lon="12.6414215"><ele>363.6</ele><time>2026-04-19T07:27:54.015Z</time></trkpt><trkpt lat="43.728652" lon="12.6414391"><ele>362.2</ele><time>2026-04-19T07:27:55.003Z</time></trkpt><trkpt lat="43.7287621" lon="12.6414724"><ele>360.79999999999995</ele><time>2026-04-19T07:27:56.013Z</time></trkpt><trkpt lat="43.7288471" lon="12.6415306"><ele>359.4</ele><time>2026-04-19T07:27:57.015Z</time></trkpt><trkpt lat="43.7288932" lon="12.6416227"><ele>358.0</ele><time>2026-04-19T07:27:58.012Z</time></trkpt><trkpt lat="43.7288868" lon="12.6417618"><ele>358.0</ele><time>2026-04-19T07:27:59.012Z</time></trkpt><trkpt lat="43.7288253" lon="12.6418896"><ele>358.0</ele><time>2026-04-19T07:28:00.009Z</time></trkpt><trkpt lat="43.7287205" lon="12.6419711"><ele>358.0</ele><time>2026-04-19T07:28:01.01Z</time></trkpt><trkpt lat="43.7286167" lon="12.641978"><ele>358.0</ele><time>2026-04-19T07:28:02.011Z</time></trkpt><trkpt lat="43.7285059" lon="12.641922"><ele>359.75</ele><time>2026-04-19T07:28:03.013Z</time></trkpt><trkpt lat="43.7283788" lon="12.6418362"><ele>361.5</ele><time>2026-04-19T07:28:04.009Z</time></trkpt><trkpt lat="43.7282516" lon="12.6417533"><ele>363.25</ele><time>2026-04-19T07:28:05.011Z</time></trkpt><trkpt lat="43.7281205" lon="12.6416736"><ele>365.0</ele><time>2026-04-19T07:28:06.017Z</time></trkpt><trkpt lat="43.7279851" lon="12.6416162"><ele>365.0</ele><time>2026-04-19T07:28:07.016Z</time></trkpt><trkpt lat="43.7278543" lon="12.6415694"><ele>365.0</ele><time>2026-04-19T07:28:08.015Z</time></trkpt><trkpt lat="43.7277377" lon="12.6415419"><ele>365.0</ele><time>2026-04-19T07:28:09.013Z</time></trkpt><trkpt lat="43.7276399" lon="12.6415109"><ele>365.0</ele><time>2026-04-19T07:28:10.013Z</time></trkpt><trkpt lat="43.727552" lon="12.6414933"><ele>365.0</ele><time>2026-04-19T07:28:11.012Z</time></trkpt><trkpt lat="43.7274654" lon="12.6414835"><ele>366.2</ele><time>2026-04-19T07:28:12.012Z</time></trkpt><trkpt lat="43.7273635" lon="12.641468"><ele>367.4</ele><time>2026-04-19T07:28:13.017Z</time></trkpt><trkpt lat="43.7272584" lon="12.6414644"><ele>368.6</ele><time>2026-04-19T07:28:14.007Z</time></trkpt><trkpt lat="43.7271558" lon="12.6414644"><ele>369.8</ele><time>2026-04-19T07:28:15.01Z</time></trkpt><trkpt lat="43.7270536" lon="12.6414602"><ele>371.0</ele><time>2026-04-19T07:28:16.012Z</time></trkpt><trkpt lat="43.7269559" lon="12.641454"><ele>372.83333333333337</ele><time>2026-04-19T07:28:17.013Z</time></trkpt><trkpt lat="43.7268704" lon="12.6414374"><ele>374.6666666666667</ele><time>2026-04-19T07:28:18.012Z</time></trkpt><trkpt lat="43.7267922" lon="12.6414149"><ele>376.5</ele><time>2026-04-19T07:28:19.014Z</time></trkpt><trkpt lat="43.7267183" lon="12.6413879"><ele>378.3333333333333</ele><time>2026-04-19T07:28:20.017Z</time></trkpt><trkpt lat="43.7266462" lon="12.6413666"><ele>380.16666666666663</ele><time>2026-04-19T07:28:21.012Z</time></trkpt><trkpt lat="43.7265776" lon="12.6413539"><ele>382.0</ele><time>2026-04-19T07:28:22.026Z</time></trkpt><trkpt lat="43.7264593" lon="12.6413374"><ele>382.0</ele><time>2026-04-19T07:28:24.015Z</time></trkpt><trkpt lat="43.7263626" lon="12.6413133"><ele>382.0</ele><time>2026-04-19T07:28:26.018Z</time></trkpt><trkpt lat="43.7262796" lon="12.6412928"><ele>382.0</ele><time>2026-04-19T07:28:28.022Z</time></trkpt><trkpt lat="43.7262162" lon="12.6412727"><ele>382.0</ele><time>2026-04-19T07:28:30.022Z</time></trkpt><trkpt lat="43.7261487" lon="12.6412458"><ele>382.0</ele><time>2026-04-19T07:28:32.015Z</time></trkpt><trkpt lat="43.7260492" lon="12.6411718"><ele>382.0</ele><time>2026-04-19T07:28:34.009Z</time></trkpt><trkpt lat="43.7259996" lon="12.641105"><ele>381.66666666666663</ele><time>2026-04-19T07:28:35.02Z</time></trkpt><trkpt lat="43.7259604" lon="12.6410207"><ele>381.3333333333333</ele><time>2026-04-19T07:28:36.018Z</time></trkpt><trkpt lat="43.7259299" lon="12.6409424"><ele>381.0</ele><time>2026-04-19T07:28:37.012Z</time></trkpt><trkpt lat="43.7258651" lon="12.6408536"><ele>380.6666666666667</ele><time>2026-04-19T07:28:39.017Z</time></trkpt><trkpt lat="43.7257821" lon="12.6408329"><ele>380.33333333333337</ele><time>2026-04-19T07:28:41.019Z</time></trkpt><trkpt lat="43.7257103" lon="12.6408433"><ele>380.0</ele><time>2026-04-19T07:28:44.024Z</time></trkpt><trkpt lat="43.7256385" lon="12.6409321"><ele>380.0</ele><time>2026-04-19T07:28:48.023Z</time></trkpt><trkpt lat="43.7255878" lon="12.6410419"><ele>380.0</ele><time>2026-04-19T07:28:50.02Z</time></trkpt><trkpt lat="43.7255729" lon="12.641211"><ele>380.0</ele><time>2026-04-19T07:28:52.02Z</time></trkpt><trkpt lat="43.7255677" lon="12.6412985"><ele>380.0</ele><time>2026-04-19T07:28:53.027Z</time></trkpt><trkpt lat="43.7255523" lon="12.6413932"><ele>380.0</ele><time>2026-04-19T07:28:54.021Z</time></trkpt><trkpt lat="43.725523" lon="12.6414934"><ele>380.0</ele><time>2026-04-19T07:28:55.018Z</time></trkpt><trkpt lat="43.7254875" lon="12.6416037"><ele>380.6</ele><time>2026-04-19T07:28:56.018Z</time></trkpt><trkpt lat="43.725451" lon="12.6417102"><ele>381.2</ele><time>2026-04-19T07:28:57.019Z</time></trkpt><trkpt lat="43.7254051" lon="12.6418281"><ele>381.79999999999995</ele><time>2026-04-19T07:28:58.013Z</time></trkpt><trkpt lat="43.7253643" lon="12.641944"><ele>382.4</ele><time>2026-04-19T07:28:59.01Z</time></trkpt><trkpt lat="43.7253152" lon="12.6420768"><ele>383.0</ele><time>2026-04-19T07:29:00.016Z</time></trkpt><trkpt lat="43.7252557" lon="12.6422231"><ele>381.25</ele><time>2026-04-19T07:29:01.018Z</time></trkpt><trkpt lat="43.7251817" lon="12.6423832"><ele>379.5</ele><time>2026-04-19T07:29:02.021Z</time></trkpt><trkpt lat="43.7250963" lon="12.6425593"><ele>377.75</ele><time>2026-04-19T07:29:03.009Z</time></trkpt><trkpt lat="43.7250195" lon="12.6427162"><ele>376.0</ele><time>2026-04-19T07:29:04.018Z</time></trkpt><trkpt lat="43.7249568" lon="12.6428788"><ele>375.5</ele><time>2026-04-19T07:29:05.011Z</time></trkpt><trkpt lat="43.7249212" lon="12.6430377"><ele>375.0</ele><time>2026-04-19T07:29:06.021Z</time></trkpt><trkpt lat="43.7249329" lon="12.6431941"><ele>374.5</ele><time>2026-04-19T07:29:07.023Z</time></trkpt><trkpt lat="43.7249504" lon="12.6433476"><ele>374.0</ele><time>2026-04-19T07:29:08.015Z</time></trkpt><trkpt lat="43.7249888" lon="12.6434837"><ele>374.0</ele><time>2026-04-19T07:29:09.028Z</time></trkpt><trkpt lat="43.7250546" lon="12.6436255"><ele>374.0</ele><time>2026-04-19T07:29:10.021Z</time></trkpt><trkpt lat="43.7251343" lon="12.6437611"><ele>374.0</ele><time>2026-04-19T07:29:11.023Z</time></trkpt><trkpt lat="43.7252177" lon="12.6438964"><ele>374.0</ele><time>2026-04-19T07:29:12.024Z</time></trkpt><trkpt lat="43.7253121" lon="12.6440358"><ele>374.25</ele><time>2026-04-19T07:29:13.019Z</time></trkpt><trkpt lat="43.7254056" lon="12.6441735"><ele>374.5</ele><time>2026-04-19T07:29:14.017Z</time></trkpt><trkpt lat="43.7254914" lon="12.6443287"><ele>374.75</ele><time>2026-04-19T07:29:15.025Z</time></trkpt><trkpt lat="43.7255329" lon="12.6445011"><ele>375.0</ele><time>2026-04-19T07:29:16.023Z</time></trkpt><trkpt lat="43.7255311" lon="12.6446937"><ele>375.0</ele><time>2026-04-19T07:29:17.029Z</time></trkpt><trkpt lat="43.7254574" lon="12.6448717"><ele>375.0</ele><time>2026-04-19T07:29:18.023Z</time></trkpt><trkpt lat="43.7253464" lon="12.6450375"><ele>375.0</ele><time>2026-04-19T07:29:19.019Z</time></trkpt><trkpt lat="43.72522" lon="12.6451758"><ele>372.0</ele><time>2026-04-19T07:29:20.011Z</time></trkpt><trkpt lat="43.7251015" lon="12.6453321"><ele>369.0</ele><time>2026-04-19T07:29:21.013Z</time></trkpt><trkpt lat="43.724997" lon="12.6455049"><ele>366.0</ele><time>2026-04-19T07:29:22.017Z</time></trkpt><trkpt lat="43.7249212" lon="12.6456961"><ele>366.0</ele><time>2026-04-19T07:29:23.015Z</time></trkpt><trkpt lat="43.7248517" lon="12.645881"><ele>366.0</ele><time>2026-04-19T07:29:24.03Z</time></trkpt><trkpt lat="43.7247886" lon="12.6460569"><ele>366.0</ele><time>2026-04-19T07:29:25.011Z</time></trkpt><trkpt lat="43.7247205" lon="12.6462214"><ele>366.0</ele><time>2026-04-19T07:29:26.011Z</time></trkpt><trkpt lat="43.7246356" lon="12.6463651"><ele>366.3333333333333</ele><time>2026-04-19T07:29:27.022Z</time></trkpt><trkpt lat="43.724516" lon="12.6464772"><ele>366.66666666666663</ele><time>2026-04-19T07:29:28.014Z</time></trkpt><trkpt lat="43.7243683" lon="12.6465215"><ele>367.0</ele><time>2026-04-19T07:29:29.013Z</time></trkpt><trkpt lat="43.7242004" lon="12.6465135"><ele>364.66666666666663</ele><time>2026-04-19T07:29:30.01Z</time></trkpt><trkpt lat="43.7240081" lon="12.6464584"><ele>362.3333333333333</ele><time>2026-04-19T07:29:31.004Z</time></trkpt><trkpt lat="43.7238403" lon="12.6463584"><ele>360.0</ele><time>2026-04-19T07:29:32.012Z</time></trkpt><trkpt lat="43.7236967" lon="12.6461983"><ele>358.3333333333333</ele><time>2026-04-19T07:29:33.012Z</time></trkpt><trkpt lat="43.7236134" lon="12.645983"><ele>356.66666666666663</ele><time>2026-04-19T07:29:34.022Z</time></trkpt><trkpt lat="43.7235576" lon="12.6457233"><ele>355.0</ele><time>2026-04-19T07:29:35.011Z</time></trkpt><trkpt lat="43.7234821" lon="12.6454753"><ele>351.3333333333333</ele><time>2026-04-19T07:29:36.019Z</time></trkpt><trkpt lat="43.7233622" lon="12.6452368"><ele>347.6666666666667</ele><time>2026-04-19T07:29:37.015Z</time></trkpt><trkpt lat="43.7231973" lon="12.6450218"><ele>344.0</ele><time>2026-04-19T07:29:38.019Z</time></trkpt><trkpt lat="43.7230016" lon="12.6448318"><ele>344.0</ele><time>2026-04-19T07:29:39.012Z</time></trkpt><trkpt lat="43.7228152" lon="12.6446365"><ele>344.0</ele><time>2026-04-19T07:29:40.01Z</time></trkpt><trkpt lat="43.7226465" lon="12.6444297"><ele>343.0</ele><time>2026-04-19T07:29:41.013Z</time></trkpt><trkpt lat="43.7224947" lon="12.6442341"><ele>342.0</ele><time>2026-04-19T07:29:42.01Z</time></trkpt><trkpt lat="43.7223428" lon="12.6440631"><ele>341.0</ele><time>2026-04-19T07:29:43.012Z</time></trkpt><trkpt lat="43.7221816" lon="12.643924"><ele>341.0</ele><time>2026-04-19T07:29:44.014Z</time></trkpt><trkpt lat="43.7220112" lon="12.6438323"><ele>341.0</ele><time>2026-04-19T07:29:45.014Z</time></trkpt><trkpt lat="43.7218589" lon="12.6437425"><ele>341.0</ele><time>2026-04-19T07:29:46.007Z</time></trkpt><trkpt lat="43.7217211" lon="12.643602"><ele>337.6666666666667</ele><time>2026-04-19T07:29:47.021Z</time></trkpt><trkpt lat="43.7216317" lon="12.6434042"><ele>334.3333333333333</ele><time>2026-04-19T07:29:48.018Z</time></trkpt><trkpt lat="43.7215588" lon="12.6432026"><ele>331.0</ele><time>2026-04-19T07:29:49.01Z</time></trkpt><trkpt lat="43.7214701" lon="12.6430354"><ele>331.0</ele><time>2026-04-19T07:29:50.008Z</time></trkpt><trkpt lat="43.7213608" lon="12.6429006"><ele>331.0</ele><time>2026-04-19T07:29:51.015Z</time></trkpt><trkpt lat="43.7212069" lon="12.6427944"><ele>331.0</ele><time>2026-04-19T07:29:52.017Z</time></trkpt><trkpt lat="43.7210386" lon="12.6426823"><ele>328.66666666666663</ele><time>2026-04-19T07:29:53.018Z</time></trkpt><trkpt lat="43.7208774" lon="12.6425179"><ele>326.3333333333333</ele><time>2026-04-19T07:29:54.011Z</time></trkpt><trkpt lat="43.7207164" lon="12.6423176"><ele>324.0</ele><time>2026-04-19T07:29:55.024Z</time></trkpt><trkpt lat="43.7205704" lon="12.6421253"><ele>322.3333333333333</ele><time>2026-04-19T07:29:56.008Z</time></trkpt><trkpt lat="43.7204352" lon="12.6419121"><ele>320.66666666666663</ele><time>2026-04-19T07:29:57.011Z</time></trkpt><trkpt lat="43.7203294" lon="12.6416689"><ele>319.0</ele><time>2026-04-19T07:29:58.016Z</time></trkpt><trkpt lat="43.7202877" lon="12.6413908"><ele>320.66666666666663</ele><time>2026-04-19T07:29:59Z</time></trkpt><trkpt lat="43.7202189" lon="12.6411269"><ele>322.3333333333333</ele><time>2026-04-19T07:30:00.006Z</time></trkpt><trkpt lat="43.7201094" lon="12.6408889"><ele>324.0</ele><time>2026-04-19T07:30:01.012Z</time></trkpt><trkpt lat="43.7199338" lon="12.6407097"><ele>324.0</ele><time>2026-04-19T07:30:02.009Z</time></trkpt><trkpt lat="43.7197575" lon="12.6405506"><ele>324.0</ele><time>2026-04-19T07:30:03.012Z</time></trkpt><trkpt lat="43.7195842" lon="12.6404284"><ele>324.0</ele><time>2026-04-19T07:30:04.013Z</time></trkpt><trkpt lat="43.7193865" lon="12.6403603"><ele>324.5</ele><time>2026-04-19T07:30:05.008Z</time></trkpt><trkpt lat="43.7191637" lon="12.6403428"><ele>325.0</ele><time>2026-04-19T07:30:06.006Z</time></trkpt><trkpt lat="43.7189368" lon="12.640405"><ele>325.0</ele><time>2026-04-19T07:30:06.999Z</time></trkpt><trkpt lat="43.7187092" lon="12.6404428"><ele>325.0</ele><time>2026-04-19T07:30:07.999Z</time></trkpt><trkpt lat="43.7184968" lon="12.640483"><ele>325.0</ele><time>2026-04-19T07:30:09.009Z</time></trkpt><trkpt lat="43.7183022" lon="12.6405486"><ele>322.66666666666663</ele><time>2026-04-19T07:30:10.002Z</time></trkpt><trkpt lat="43.7181402" lon="12.6406553"><ele>320.3333333333333</ele><time>2026-04-19T07:30:11.008Z</time></trkpt><trkpt lat="43.7179595" lon="12.6407853"><ele>318.0</ele><time>2026-04-19T07:30:12.003Z</time></trkpt><trkpt lat="43.7177652" lon="12.6408544"><ele>313.0</ele><time>2026-04-19T07:30:13.015Z</time></trkpt><trkpt lat="43.7175786" lon="12.6408668"><ele>308.0</ele><time>2026-04-19T07:30:14.011Z</time></trkpt><trkpt lat="43.7173794" lon="12.6408625"><ele>303.0</ele><time>2026-04-19T07:30:15.005Z</time></trkpt><trkpt lat="43.7171701" lon="12.6408432"><ele>303.0</ele><time>2026-04-19T07:30:16.011Z</time></trkpt><trkpt lat="43.7169551" lon="12.6408062"><ele>303.0</ele><time>2026-04-19T07:30:17.005Z</time></trkpt><trkpt lat="43.7167334" lon="12.6407699"><ele>303.0</ele><time>2026-04-19T07:30:18.013Z</time></trkpt><trkpt lat="43.7165148" lon="12.6407191"><ele>302.0</ele><time>2026-04-19T07:30:19.014Z</time></trkpt><trkpt lat="43.7163035" lon="12.640668"><ele>301.0</ele><time>2026-04-19T07:30:20.013Z</time></trkpt><trkpt lat="43.7161123" lon="12.6406181"><ele>300.0</ele><time>2026-04-19T07:30:21.012Z</time></trkpt><trkpt lat="43.715936" lon="12.6405843"><ele>300.0</ele><time>2026-04-19T07:30:22.01Z</time></trkpt><trkpt lat="43.7157895" lon="12.640563"><ele>300.0</ele><time>2026-04-19T07:30:23.016Z</time></trkpt><trkpt lat="43.7156772" lon="12.6405588"><ele>300.0</ele><time>2026-04-19T07:30:24.008Z</time></trkpt><trkpt lat="43.7155496" lon="12.6405323"><ele>300.0</ele><time>2026-04-19T07:30:25.003Z</time></trkpt><trkpt lat="43.7154246" lon="12.6404967"><ele>300.0</ele><time>2026-04-19T07:30:26.011Z</time></trkpt><trkpt lat="43.7152994" lon="12.6404621"><ele>300.0</ele><time>2026-04-19T07:30:26.991Z</time></trkpt><trkpt lat="43.7151709" lon="12.6404284"><ele>300.0</ele><time>2026-04-19T07:30:27.976Z</time></trkpt><trkpt lat="43.7150517" lon="12.6403994"><ele>300.0</ele><time>2026-04-19T07:30:28.965Z</time></trkpt><trkpt lat="43.7149296" lon="12.640365"><ele>305.5</ele><time>2026-04-19T07:30:29.939Z</time></trkpt><trkpt lat="43.7148075" lon="12.6403307"><ele>311.0</ele><time>2026-04-19T07:30:30.922Z</time></trkpt><trkpt lat="43.7076923" lon="12.6409197"><ele>297.0</ele><time>2026-04-19T07:31:07.085Z</time></trkpt><trkpt lat="43.7078604" lon="12.6410134"><ele>283.0</ele><time>2026-04-19T07:31:08.059Z</time></trkpt><trkpt lat="43.7077742" lon="12.6411516"><ele>269.0</ele><time>2026-04-19T07:31:09.016Z</time></trkpt><trkpt lat="43.7076498" lon="12.641293"><ele>258.6666666666667</ele><time>2026-04-19T07:31:10.026Z</time></trkpt><trkpt lat="43.7075141" lon="12.6414452"><ele>248.33333333333331</ele><time>2026-04-19T07:31:11.014Z</time></trkpt><trkpt lat="43.7073577" lon="12.6416218"><ele>238.0</ele><time>2026-04-19T07:31:12.018Z</time></trkpt><trkpt lat="43.7071939" lon="12.6418011"><ele>237.0</ele><time>2026-04-19T07:31:13.024Z</time></trkpt><trkpt lat="43.7070127" lon="12.6420061"><ele>236.0</ele><time>2026-04-19T07:31:14.029Z</time></trkpt><trkpt lat="43.7068349" lon="12.6422399"><ele>230.0</ele><time>2026-04-19T07:31:15.025Z</time></trkpt><trkpt lat="43.7066709" lon="12.642479"><ele>224.0</ele><time>2026-04-19T07:31:16.033Z</time></trkpt><trkpt lat="43.7065212" lon="12.6426932"><ele>223.66666666666669</ele><time>2026-04-19T07:31:17.038Z</time></trkpt><trkpt lat="43.7063847" lon="12.6429207"><ele>223.33333333333331</ele><time>2026-04-19T07:31:18.033Z</time></trkpt><trkpt lat="43.706254" lon="12.6431579"><ele>223.0</ele><time>2026-04-19T07:31:19.029Z</time></trkpt><trkpt lat="43.7061282" lon="12.6434157"><ele>228.5</ele><time>2026-04-19T07:31:20.033Z</time></trkpt><trkpt lat="43.7060066" lon="12.6437137"><ele>234.0</ele><time>2026-04-19T07:31:21.039Z</time></trkpt><trkpt lat="43.7058885" lon="12.6440248"><ele>234.0</ele><time>2026-04-19T07:31:22.037Z</time></trkpt><trkpt lat="43.7057733" lon="12.6443502"><ele>234.0</ele><time>2026-04-19T07:31:23.041Z</time></trkpt><trkpt lat="43.705674" lon="12.6447018"><ele>233.0</ele><time>2026-04-19T07:31:24.035Z</time></trkpt><trkpt lat="43.7055932" lon="12.6450648"><ele>232.0</ele><time>2026-04-19T07:31:25.034Z</time></trkpt><trkpt lat="43.7055384" lon="12.6454413"><ele>231.5</ele><time>2026-04-19T07:31:26.033Z</time></trkpt><trkpt lat="43.7054982" lon="12.6458443"><ele>231.0</ele><time>2026-04-19T07:31:27.043Z</time></trkpt><trkpt lat="43.7054718" lon="12.6462476"><ele>231.0</ele><time>2026-04-19T07:31:28.019Z</time></trkpt><trkpt lat="43.7054674" lon="12.6466623"><ele>231.0</ele><time>2026-04-19T07:31:29.022Z</time></trkpt><trkpt lat="43.7055024" lon="12.6470968"><ele>226.5</ele><time>2026-04-19T07:31:30.023Z</time></trkpt><trkpt lat="43.7055497" lon="12.647522"><ele>222.0</ele><time>2026-04-19T07:31:31.032Z</time></trkpt><trkpt lat="43.7056365" lon="12.6479343"><ele>218.5</ele><time>2026-04-19T07:31:32.015Z</time></trkpt><trkpt lat="43.7057245" lon="12.6483486"><ele>215.0</ele><time>2026-04-19T07:31:33.017Z</time></trkpt><trkpt lat="43.7058139" lon="12.648773"><ele>215.0</ele><time>2026-04-19T07:31:34.028Z</time></trkpt><trkpt lat="43.7059118" lon="12.6492053"><ele>215.0</ele><time>2026-04-19T07:31:35.033Z</time></trkpt><trkpt lat="43.7060075" lon="12.6496335"><ele>215.5</ele><time>2026-04-19T07:31:36.03Z</time></trkpt><trkpt lat="43.7061055" lon="12.6500606"><ele>216.0</ele><time>2026-04-19T07:31:37.032Z</time></trkpt><trkpt lat="43.7061963" lon="12.6504675"><ele>216.0</ele><time>2026-04-19T07:31:38.029Z</time></trkpt><trkpt lat="43.706279" lon="12.6508517"><ele>216.0</ele><time>2026-04-19T07:31:39.029Z</time></trkpt><trkpt lat="43.706359" lon="12.651224"><ele>214.5</ele><time>2026-04-19T07:31:40.028Z</time></trkpt><trkpt lat="43.7064313" lon="12.6515941"><ele>213.0</ele><time>2026-04-19T07:31:41.031Z</time></trkpt><trkpt lat="43.7065033" lon="12.6519642"><ele>211.0</ele><time>2026-04-19T07:31:42.034Z</time></trkpt><trkpt lat="43.7065743" lon="12.652338"><ele>209.0</ele><time>2026-04-19T07:31:43.031Z</time></trkpt><trkpt lat="43.7066394" lon="12.6527186"><ele>208.0</ele><time>2026-04-19T07:31:44.031Z</time></trkpt><trkpt lat="43.7066812" lon="12.6530993"><ele>207.0</ele><time>2026-04-19T07:31:45.026Z</time></trkpt><trkpt lat="43.7067097" lon="12.6534843"><ele>206.5</ele><time>2026-04-19T07:31:46.026Z</time></trkpt><trkpt lat="43.7067187" lon="12.6538763"><ele>206.0</ele><time>2026-04-19T07:31:47.031Z</time></trkpt><trkpt lat="43.7067155" lon="12.6542729"><ele>204.0</ele><time>2026-04-19T07:31:48.027Z</time></trkpt><trkpt lat="43.7066889" lon="12.6546653"><ele>202.0</ele><time>2026-04-19T07:31:49.027Z</time></trkpt><trkpt lat="43.7066433" lon="12.6550657"><ele>204.5</ele><time>2026-04-19T07:31:50.02Z</time></trkpt><trkpt lat="43.7065796" lon="12.6554542"><ele>207.0</ele><time>2026-04-19T07:31:51.026Z</time></trkpt><trkpt lat="43.7065001" lon="12.6558251"><ele>208.5</ele><time>2026-04-19T07:31:52.025Z</time></trkpt><trkpt lat="43.7064052" lon="12.6561828"><ele>210.0</ele><time>2026-04-19T07:31:53.019Z</time></trkpt><trkpt lat="43.7062985" lon="12.6565467"><ele>210.0</ele><time>2026-04-19T07:31:54.023Z</time></trkpt><trkpt lat="43.7061671" lon="12.6568895"><ele>210.0</ele><time>2026-04-19T07:31:55.024Z</time></trkpt><trkpt lat="43.7060349" lon="12.6572127"><ele>207.5</ele><time>2026-04-19T07:31:56.032Z</time></trkpt><trkpt lat="43.7058846" lon="12.6574874"><ele>205.0</ele><time>2026-04-19T07:31:57.026Z</time></trkpt><trkpt lat="43.7057429" lon="12.6577592"><ele>206.66666666666666</ele><time>2026-04-19T07:31:58.036Z</time></trkpt><trkpt lat="43.7056148" lon="12.6580144"><ele>208.33333333333331</ele><time>2026-04-19T07:31:59.014Z</time></trkpt><trkpt lat="43.7054891" lon="12.6582595"><ele>210.0</ele><time>2026-04-19T07:32:00.024Z</time></trkpt><trkpt lat="43.7053493" lon="12.6585033"><ele>207.5</ele><time>2026-04-19T07:32:01.019Z</time></trkpt><trkpt lat="43.7052043" lon="12.6587513"><ele>205.0</ele><time>2026-04-19T07:32:02.02Z</time></trkpt><trkpt lat="43.7050505" lon="12.6590026"><ele>205.0</ele><time>2026-04-19T07:32:03.02Z</time></trkpt><trkpt lat="43.7048891" lon="12.6592499"><ele>205.0</ele><time>2026-04-19T07:32:04.018Z</time></trkpt><trkpt lat="43.7047369" lon="12.6594977"><ele>205.0</ele><time>2026-04-19T07:32:05.026Z</time></trkpt><trkpt lat="43.7045948" lon="12.6597308"><ele>205.0</ele><time>2026-04-19T07:32:06.013Z</time></trkpt><trkpt lat="43.7044737" lon="12.6599658"><ele>205.0</ele><time>2026-04-19T07:32:07.024Z</time></trkpt><trkpt lat="43.7043609" lon="12.6602115"><ele>206.33333333333331</ele><time>2026-04-19T07:32:08.025Z</time></trkpt><trkpt lat="43.7042797" lon="12.6604645"><ele>207.66666666666669</ele><time>2026-04-19T07:32:09.022Z</time></trkpt><trkpt lat="43.7042386" lon="12.6607354"><ele>209.0</ele><time>2026-04-19T07:32:10.012Z</time></trkpt><trkpt lat="43.7042004" lon="12.6610074"><ele>210.0</ele><time>2026-04-19T07:32:11.011Z</time></trkpt><trkpt lat="43.7041758" lon="12.6612543"><ele>211.0</ele><time>2026-04-19T07:32:12.016Z</time></trkpt><trkpt lat="43.7041432" lon="12.6614938"><ele>212.0</ele><time>2026-04-19T07:32:13.01Z</time></trkpt><trkpt lat="43.704102" lon="12.6617317"><ele>212.33333333333334</ele><time>2026-04-19T07:32:14.017Z</time></trkpt><trkpt lat="43.7040365" lon="12.6619555"><ele>212.66666666666669</ele><time>2026-04-19T07:32:15.009Z</time></trkpt><trkpt lat="43.7039649" lon="12.662163"><ele>213.0</ele><time>2026-04-19T07:32:16.018Z</time></trkpt><trkpt lat="43.7038477" lon="12.6623362"><ele>213.0</ele><time>2026-04-19T07:32:17.014Z</time></trkpt><trkpt lat="43.7036676" lon="12.6624643"><ele>213.0</ele><time>2026-04-19T07:32:18.015Z</time></trkpt><trkpt lat="43.7034787" lon="12.662602"><ele>213.0</ele><time>2026-04-19T07:32:19.013Z</time></trkpt><trkpt lat="43.703301" lon="12.6627474"><ele>211.33333333333331</ele><time>2026-04-19T07:32:20.011Z</time></trkpt><trkpt lat="43.7031106" lon="12.6628917"><ele>209.66666666666666</ele><time>2026-04-19T07:32:21.02Z</time></trkpt><trkpt lat="43.7029413" lon="12.6630612"><ele>208.0</ele><time>2026-04-19T07:32:22.015Z</time></trkpt><trkpt lat="43.7027836" lon="12.6632357"><ele>209.33333333333331</ele><time>2026-04-19T07:32:23.022Z</time></trkpt><trkpt lat="43.7026258" lon="12.6633982"><ele>210.66666666666669</ele><time>2026-04-19T07:32:24.017Z</time></trkpt><trkpt lat="43.7024737" lon="12.6635541"><ele>212.0</ele><time>2026-04-19T07:32:25.017Z</time></trkpt><trkpt lat="43.7023272" lon="12.6637047"><ele>212.0</ele><time>2026-04-19T07:32:26.016Z</time></trkpt><trkpt lat="43.7021804" lon="12.663822"><ele>212.0</ele><time>2026-04-19T07:32:27.019Z</time></trkpt><trkpt lat="43.7020107" lon="12.6638558"><ele>212.0</ele><time>2026-04-19T07:32:28.009Z</time></trkpt><trkpt lat="43.7018425" lon="12.6638554"><ele>206.0</ele><time>2026-04-19T07:32:29.02Z</time></trkpt><trkpt lat="43.7016914" lon="12.6638202"><ele>200.0</ele><time>2026-04-19T07:32:30.011Z</time></trkpt><trkpt lat="43.7015267" lon="12.663795"><ele>194.0</ele><time>2026-04-19T07:32:31.015Z</time></trkpt><trkpt lat="43.7013879" lon="12.6637741"><ele>194.0</ele><time>2026-04-19T07:32:32.013Z</time></trkpt><trkpt lat="43.701243" lon="12.663729"><ele>194.0</ele><time>2026-04-19T07:32:33.021Z</time></trkpt><trkpt lat="43.7011248" lon="12.6636306"><ele>194.0</ele><time>2026-04-19T07:32:34.019Z</time></trkpt><trkpt lat="43.7010226" lon="12.6635542"><ele>194.0</ele><time>2026-04-19T07:32:35.006Z</time></trkpt><trkpt lat="43.7009389" lon="12.6634738"><ele>194.6</ele><time>2026-04-19T07:32:36.013Z</time></trkpt><trkpt lat="43.7008565" lon="12.6634161"><ele>195.2</ele><time>2026-04-19T07:32:37.019Z</time></trkpt><trkpt lat="43.7007799" lon="12.6633406"><ele>195.79999999999998</ele><time>2026-04-19T07:32:38.016Z</time></trkpt><trkpt lat="43.7006971" lon="12.6632637"><ele>196.39999999999998</ele><time>2026-04-19T07:32:39.018Z</time></trkpt><trkpt lat="43.7006165" lon="12.6631975"><ele>197.0</ele><time>2026-04-19T07:32:40.018Z</time></trkpt><trkpt lat="43.7005395" lon="12.6631628"><ele>197.00000000000003</ele><time>2026-04-19T07:32:41.021Z</time></trkpt><trkpt lat="43.7004661" lon="12.6631331"><ele>197.0</ele><time>2026-04-19T07:32:42.01Z</time></trkpt><trkpt lat="43.7003885" lon="12.6631148"><ele>197.0</ele><time>2026-04-19T07:32:43.015Z</time></trkpt><trkpt lat="43.7003121" lon="12.6630918"><ele>197.0</ele><time>2026-04-19T07:32:44.021Z</time></trkpt><trkpt lat="43.7001978" lon="12.6630859"><ele>197.00000000000003</ele><time>2026-04-19T07:32:46.029Z</time></trkpt><trkpt lat="43.7001018" lon="12.6630986"><ele>197.0</ele><time>2026-04-19T07:32:48.032Z</time></trkpt><trkpt lat="43.6999985" lon="12.6630786"><ele>197.16666666666669</ele><time>2026-04-19T07:32:50.033Z</time></trkpt><trkpt lat="43.6999365" lon="12.6630472"><ele>197.33333333333334</ele><time>2026-04-19T07:32:51.03Z</time></trkpt><trkpt lat="43.6998734" lon="12.6630064"><ele>197.5</ele><time>2026-04-19T07:32:52.032Z</time></trkpt><trkpt lat="43.6998097" lon="12.6629473"><ele>197.66666666666669</ele><time>2026-04-19T07:32:53.031Z</time></trkpt><trkpt lat="43.6997473" lon="12.6628617"><ele>197.83333333333334</ele><time>2026-04-19T07:32:54.031Z</time></trkpt><trkpt lat="43.69969" lon="12.662743"><ele>198.0</ele><time>2026-04-19T07:32:55.036Z</time></trkpt><trkpt lat="43.6996438" lon="12.6625949"><ele>198.0</ele><time>2026-04-19T07:32:56.035Z</time></trkpt><trkpt lat="43.6996075" lon="12.6624674"><ele>198.0</ele><time>2026-04-19T07:32:57.033Z</time></trkpt><trkpt lat="43.6995771" lon="12.6623481"><ele>198.0</ele><time>2026-04-19T07:32:58.032Z</time></trkpt><trkpt lat="43.6995526" lon="12.6622341"><ele>198.0</ele><time>2026-04-19T07:32:59.03Z</time></trkpt><trkpt lat="43.6995418" lon="12.6621259"><ele>198.0</ele><time>2026-04-19T07:33:00.044Z</time></trkpt><trkpt lat="43.699535" lon="12.6620216"><ele>198.0</ele><time>2026-04-19T07:33:01.028Z</time></trkpt><trkpt lat="43.6995252" lon="12.6618776"><ele>198.4</ele><time>2026-04-19T07:33:03.026Z</time></trkpt><trkpt lat="43.6994976" lon="12.6617382"><ele>198.8</ele><time>2026-04-19T07:33:05.029Z</time></trkpt><trkpt lat="43.6994611" lon="12.6616047"><ele>199.2</ele><time>2026-04-19T07:33:07.035Z</time></trkpt><trkpt lat="43.6994258" lon="12.6614722"><ele>199.6</ele><time>2026-04-19T07:33:09.037Z</time></trkpt><trkpt lat="43.6993704" lon="12.6613484"><ele>200.0</ele><time>2026-04-19T07:33:11.034Z</time></trkpt><trkpt lat="43.6992385" lon="12.6613545"><ele>198.25</ele><time>2026-04-19T07:33:13.03Z</time></trkpt><trkpt lat="43.6991354" lon="12.661437"><ele>196.5</ele><time>2026-04-19T07:33:14.034Z</time></trkpt><trkpt lat="43.6990152" lon="12.6615182"><ele>194.75</ele><time>2026-04-19T07:33:15.01Z</time></trkpt><trkpt lat="43.6988747" lon="12.6616051"><ele>193.0</ele><time>2026-04-19T07:33:16.026Z</time></trkpt><trkpt lat="43.6987313" lon="12.6616928"><ele>192.66666666666666</ele><time>2026-04-19T07:33:17.031Z</time></trkpt><trkpt lat="43.6985753" lon="12.6617858"><ele>192.33333333333331</ele><time>2026-04-19T07:33:18.032Z</time></trkpt><trkpt lat="43.6984201" lon="12.6618727"><ele>192.0</ele><time>2026-04-19T07:33:19.031Z</time></trkpt><trkpt lat="43.6982765" lon="12.6619516"><ele>191.25</ele><time>2026-04-19T07:33:20.04Z</time></trkpt><trkpt lat="43.698148" lon="12.6620259"><ele>190.5</ele><time>2026-04-19T07:33:21.035Z</time></trkpt><trkpt lat="43.6980275" lon="12.6620888"><ele>189.75</ele><time>2026-04-19T07:33:22.036Z</time></trkpt><trkpt lat="43.6979145" lon="12.6621587"><ele>189.0</ele><time>2026-04-19T07:33:23.035Z</time></trkpt><trkpt lat="43.6978083" lon="12.6622236"><ele>188.75</ele><time>2026-04-19T07:33:24.039Z</time></trkpt><trkpt lat="43.6976995" lon="12.6622867"><ele>188.5</ele><time>2026-04-19T07:33:25.036Z</time></trkpt><trkpt lat="43.697587" lon="12.6623476"><ele>188.25</ele><time>2026-04-19T07:33:26.043Z</time></trkpt><trkpt lat="43.6974833" lon="12.662411"><ele>188.0</ele><time>2026-04-19T07:33:27.037Z</time></trkpt><trkpt lat="43.6973865" lon="12.6624692"><ele>188.0</ele><time>2026-04-19T07:33:28.038Z</time></trkpt><trkpt lat="43.6972904" lon="12.6625309"><ele>188.0</ele><time>2026-04-19T07:33:29.033Z</time></trkpt><trkpt lat="43.6971946" lon="12.6625904"><ele>188.0</ele><time>2026-04-19T07:33:30.035Z</time></trkpt><trkpt lat="43.6970997" lon="12.6626491"><ele>188.0</ele><time>2026-04-19T07:33:31.05Z</time></trkpt><trkpt lat="43.6970002" lon="12.6627058"><ele>188.0</ele><time>2026-04-19T07:33:32.031Z</time></trkpt><trkpt lat="43.6968931" lon="12.6627673"><ele>187.5</ele><time>2026-04-19T07:33:33.035Z</time></trkpt><trkpt lat="43.6967833" lon="12.6628327"><ele>187.0</ele><time>2026-04-19T07:33:34.029Z</time></trkpt><trkpt lat="43.6966614" lon="12.6629017"><ele>186.5</ele><time>2026-04-19T07:33:35.03Z</time></trkpt><trkpt lat="43.6965257" lon="12.6629639"><ele>186.0</ele><time>2026-04-19T07:33:36.03Z</time></trkpt><trkpt lat="43.6963754" lon="12.6630121"><ele>186.0</ele><time>2026-04-19T07:33:37.033Z</time></trkpt><trkpt lat="43.6961835" lon="12.6629995"><ele>186.0</ele><time>2026-04-19T07:33:38.034Z</time></trkpt><trkpt lat="43.6959829" lon="12.6629363"><ele>186.0</ele><time>2026-04-19T07:33:39.037Z</time></trkpt><trkpt lat="43.6957948" lon="12.6628278"><ele>185.66666666666666</ele><time>2026-04-19T07:33:40.035Z</time></trkpt><trkpt lat="43.6956205" lon="12.6626594"><ele>185.33333333333331</ele><time>2026-04-19T07:33:41.035Z</time></trkpt><trkpt lat="43.6954726" lon="12.6624491"><ele>185.0</ele><time>2026-04-19T07:33:42.039Z</time></trkpt><trkpt lat="43.6953456" lon="12.6622217"><ele>184.0</ele><time>2026-04-19T07:33:43.033Z</time></trkpt><trkpt lat="43.6952227" lon="12.6619788"><ele>183.0</ele><time>2026-04-19T07:33:44.034Z</time></trkpt><trkpt lat="43.6950927" lon="12.6617321"><ele>182.0</ele><time>2026-04-19T07:33:45.035Z</time></trkpt><trkpt lat="43.694961" lon="12.6614891"><ele>182.0</ele><time>2026-04-19T07:33:46.036Z</time></trkpt><trkpt lat="43.6948332" lon="12.6612573"><ele>182.0</ele><time>2026-04-19T07:33:47.038Z</time></trkpt><trkpt lat="43.6947094" lon="12.6610427"><ele>182.0</ele><time>2026-04-19T07:33:48.037Z</time></trkpt><trkpt lat="43.6945869" lon="12.6608259"><ele>182.0</ele><time>2026-04-19T07:33:49.037Z</time></trkpt><trkpt lat="43.6944668" lon="12.6606233"><ele>182.0</ele><time>2026-04-19T07:33:50.036Z</time></trkpt><trkpt lat="43.6943541" lon="12.6604193"><ele>182.0</ele><time>2026-04-19T07:33:51.046Z</time></trkpt><trkpt lat="43.6942389" lon="12.6602203"><ele>183.66666666666666</ele><time>2026-04-19T07:33:52.041Z</time></trkpt><trkpt lat="43.6941255" lon="12.6600171"><ele>185.33333333333334</ele><time>2026-04-19T07:33:53.043Z</time></trkpt><trkpt lat="43.6940179" lon="12.659828"><ele>187.0</ele><time>2026-04-19T07:33:54.041Z</time></trkpt><trkpt lat="43.6939295" lon="12.6596334"><ele>187.25</ele><time>2026-04-19T07:33:55.032Z</time></trkpt><trkpt lat="43.6938529" lon="12.6594344"><ele>187.5</ele><time>2026-04-19T07:33:56.04Z</time></trkpt><trkpt lat="43.6937919" lon="12.6592503"><ele>187.75</ele><time>2026-04-19T07:33:57.038Z</time></trkpt><trkpt lat="43.6937333" lon="12.6590779"><ele>188.0</ele><time>2026-04-19T07:33:58.041Z</time></trkpt><trkpt lat="43.6936744" lon="12.658894"><ele>188.0</ele><time>2026-04-19T07:33:59.043Z</time></trkpt><trkpt lat="43.6936113" lon="12.6587094"><ele>188.0</ele><time>2026-04-19T07:34:00.042Z</time></trkpt><trkpt lat="43.6935419" lon="12.6585236"><ele>188.0</ele><time>2026-04-19T07:34:01.035Z</time></trkpt><trkpt lat="43.6934798" lon="12.6583331"><ele>187.33333333333331</ele><time>2026-04-19T07:34:02.055Z</time></trkpt><trkpt lat="43.6934164" lon="12.6581427"><ele>186.66666666666666</ele><time>2026-04-19T07:34:03.038Z</time></trkpt><trkpt lat="43.6933452" lon="12.6579464"><ele>186.0</ele><time>2026-04-19T07:34:04.042Z</time></trkpt><trkpt lat="43.6932741" lon="12.6577527"><ele>186.0</ele><time>2026-04-19T07:34:05.031Z</time></trkpt><trkpt lat="43.6932002" lon="12.6575529"><ele>186.0</ele><time>2026-04-19T07:34:06.03Z</time></trkpt><trkpt lat="43.6931048" lon="12.6573554"><ele>186.0</ele><time>2026-04-19T07:34:07.027Z</time></trkpt><trkpt lat="43.6930005" lon="12.6571597"><ele>186.0</ele><time>2026-04-19T07:34:08.027Z</time></trkpt><trkpt lat="43.6928568" lon="12.6569735"><ele>186.0</ele><time>2026-04-19T07:34:09.026Z</time></trkpt><trkpt lat="43.6927285" lon="12.6567938"><ele>186.0</ele><time>2026-04-19T07:34:10.037Z</time></trkpt><trkpt lat="43.692594" lon="12.6566018"><ele>186.0</ele><time>2026-04-19T07:34:11.038Z</time></trkpt><trkpt lat="43.6924552" lon="12.6564037"><ele>186.0</ele><time>2026-04-19T07:34:12.036Z</time></trkpt><trkpt lat="43.6923219" lon="12.6561924"><ele>186.0</ele><time>2026-04-19T07:34:13.038Z</time></trkpt><trkpt lat="43.6921858" lon="12.6559842"><ele>186.0</ele><time>2026-04-19T07:34:14.042Z</time></trkpt><trkpt lat="43.692056" lon="12.6557753"><ele>186.0</ele><time>2026-04-19T07:34:15.041Z</time></trkpt><trkpt lat="43.6919219" lon="12.6555743"><ele>186.0</ele><time>2026-04-19T07:34:16.042Z</time></trkpt><trkpt lat="43.6917944" lon="12.6553806"><ele>185.66666666666666</ele><time>2026-04-19T07:34:17.045Z</time></trkpt><trkpt lat="43.6916745" lon="12.655194"><ele>185.33333333333331</ele><time>2026-04-19T07:34:18.042Z</time></trkpt><trkpt lat="43.6915558" lon="12.6550061"><ele>185.0</ele><time>2026-04-19T07:34:19.038Z</time></trkpt><trkpt lat="43.6914375" lon="12.6548287"><ele>185.0</ele><time>2026-04-19T07:34:20.038Z</time></trkpt><trkpt lat="43.6913118" lon="12.6546422"><ele>185.0</ele><time>2026-04-19T07:34:21.045Z</time></trkpt><trkpt lat="43.6911897" lon="12.6544546"><ele>185.0</ele><time>2026-04-19T07:34:22.033Z</time></trkpt><trkpt lat="43.691069" lon="12.6542632"><ele>184.66666666666666</ele><time>2026-04-19T07:34:23.042Z</time></trkpt><trkpt lat="43.6909462" lon="12.6540645"><ele>184.33333333333334</ele><time>2026-04-19T07:34:24.045Z</time></trkpt><trkpt lat="43.6908269" lon="12.6538499"><ele>184.0</ele><time>2026-04-19T07:34:25.037Z</time></trkpt><trkpt lat="43.6907229" lon="12.6536238"><ele>184.33333333333334</ele><time>2026-04-19T07:34:26.046Z</time></trkpt><trkpt lat="43.6906394" lon="12.653377"><ele>184.66666666666666</ele><time>2026-04-19T07:34:27.035Z</time></trkpt><trkpt lat="43.6905686" lon="12.6531108"><ele>185.0</ele><time>2026-04-19T07:34:28.031Z</time></trkpt><trkpt lat="43.69051" lon="12.6528287"><ele>186.0</ele><time>2026-04-19T07:34:29.035Z</time></trkpt><trkpt lat="43.6904671" lon="12.6525457"><ele>187.0</ele><time>2026-04-19T07:34:30.042Z</time></trkpt><trkpt lat="43.6904274" lon="12.652246"><ele>188.0</ele><time>2026-04-19T07:34:31.043Z</time></trkpt><trkpt lat="43.6903903" lon="12.651952"><ele>188.0</ele><time>2026-04-19T07:34:32.039Z</time></trkpt><trkpt lat="43.6903544" lon="12.6516908"><ele>188.0</ele><time>2026-04-19T07:34:33.044Z</time></trkpt><trkpt lat="43.6903109" lon="12.6514443"><ele>188.0</ele><time>2026-04-19T07:34:34.027Z</time></trkpt><trkpt lat="43.6902682" lon="12.6512209"><ele>187.33333333333331</ele><time>2026-04-19T07:34:35.026Z</time></trkpt><trkpt lat="43.6901975" lon="12.6510169"><ele>186.66666666666666</ele><time>2026-04-19T07:34:36.039Z</time></trkpt><trkpt lat="43.6901068" lon="12.6508342"><ele>186.0</ele><time>2026-04-19T07:34:37.034Z</time></trkpt><trkpt lat="43.6899942" lon="12.6506544"><ele>186.0</ele><time>2026-04-19T07:34:38.034Z</time></trkpt><trkpt lat="43.6898613" lon="12.650477"><ele>186.0</ele><time>2026-04-19T07:34:39.027Z</time></trkpt><trkpt lat="43.6897043" lon="12.6503151"><ele>186.0</ele><time>2026-04-19T07:34:40.036Z</time></trkpt><trkpt lat="43.6895348" lon="12.6501845"><ele>185.66666666666666</ele><time>2026-04-19T07:34:41.019Z</time></trkpt><trkpt lat="43.689377" lon="12.650061"><ele>185.33333333333331</ele><time>2026-04-19T07:34:42.032Z</time></trkpt><trkpt lat="43.689163" lon="12.649989"><ele>185.0</ele><time>2026-04-19T07:34:43.039Z</time></trkpt><trkpt lat="43.6889365" lon="12.6499275"><ele>185.0</ele><time>2026-04-19T07:34:44.04Z</time></trkpt><trkpt lat="43.6887139" lon="12.6498922"><ele>185.0</ele><time>2026-04-19T07:34:45.025Z</time></trkpt><trkpt lat="43.6884899" lon="12.6498745"><ele>185.0</ele><time>2026-04-19T07:34:46.029Z</time></trkpt><trkpt lat="43.68826" lon="12.649857"><ele>182.5</ele><time>2026-04-19T07:34:47.035Z</time></trkpt><trkpt lat="43.6880387" lon="12.6498243"><ele>180.0</ele><time>2026-04-19T07:34:48.03Z</time></trkpt><trkpt lat="43.6878109" lon="12.6497954"><ele>179.0</ele><time>2026-04-19T07:34:49.027Z</time></trkpt><trkpt lat="43.6875797" lon="12.6497629"><ele>178.0</ele><time>2026-04-19T07:34:50.027Z</time></trkpt><trkpt lat="43.6873447" lon="12.6497297"><ele>178.0</ele><time>2026-04-19T07:34:51.035Z</time></trkpt><trkpt lat="43.6871089" lon="12.6496999"><ele>178.0</ele><time>2026-04-19T07:34:52.035Z</time></trkpt><trkpt lat="43.6868622" lon="12.6496707"><ele>177.5</ele><time>2026-04-19T07:34:53.035Z</time></trkpt><trkpt lat="43.6866183" lon="12.6496364"><ele>177.0</ele><time>2026-04-19T07:34:54.031Z</time></trkpt><trkpt lat="43.6863751" lon="12.6495972"><ele>177.0</ele><time>2026-04-19T07:34:55.03Z</time></trkpt><trkpt lat="43.686129" lon="12.6495543"><ele>177.0</ele><time>2026-04-19T07:34:56.035Z</time></trkpt><trkpt lat="43.6858842" lon="12.6495199"><ele>176.5</ele><time>2026-04-19T07:34:57.03Z</time></trkpt><trkpt lat="43.6856334" lon="12.6494734"><ele>176.0</ele><time>2026-04-19T07:34:58.031Z</time></trkpt><trkpt lat="43.6853897" lon="12.6494384"><ele>180.0</ele><time>2026-04-19T07:34:59.03Z</time></trkpt><trkpt lat="43.6851577" lon="12.6493909"><ele>184.0</ele><time>2026-04-19T07:35:00.028Z</time></trkpt><trkpt lat="43.6849362" lon="12.6493665"><ele>184.0</ele><time>2026-04-19T07:35:01.025Z</time></trkpt><trkpt lat="43.6847336" lon="12.6493396"><ele>184.0</ele><time>2026-04-19T07:35:02.027Z</time></trkpt><trkpt lat="43.6845288" lon="12.6493118"><ele>184.0</ele><time>2026-04-19T07:35:03.026Z</time></trkpt><trkpt lat="43.6843242" lon="12.6492855"><ele>185.0</ele><time>2026-04-19T07:35:04.044Z</time></trkpt><trkpt lat="43.6841175" lon="12.6492536"><ele>186.0</ele><time>2026-04-19T07:35:05.02Z</time></trkpt><trkpt lat="43.6839136" lon="12.6492265"><ele>187.0</ele><time>2026-04-19T07:35:06.032Z</time></trkpt><trkpt lat="43.6837035" lon="12.6492073"><ele>187.33333333333334</ele><time>2026-04-19T07:35:07.023Z</time></trkpt><trkpt lat="43.6834881" lon="12.6491864"><ele>187.66666666666666</ele><time>2026-04-19T07:35:08.027Z</time></trkpt><trkpt lat="43.68328" lon="12.6491653"><ele>188.0</ele><time>2026-04-19T07:35:09.015Z</time></trkpt><trkpt lat="43.6830712" lon="12.6491173"><ele>188.0</ele><time>2026-04-19T07:35:10.023Z</time></trkpt><trkpt lat="43.6828707" lon="12.6490266"><ele>188.0</ele><time>2026-04-19T07:35:11.012Z</time></trkpt><trkpt lat="43.6826723" lon="12.6489078"><ele>188.0</ele><time>2026-04-19T07:35:12.017Z</time></trkpt><trkpt lat="43.682493" lon="12.6487728"><ele>189.0</ele><time>2026-04-19T07:35:13.018Z</time></trkpt><trkpt lat="43.6823144" lon="12.6486089"><ele>190.0</ele><time>2026-04-19T07:35:14.014Z</time></trkpt><trkpt lat="43.6821487" lon="12.6484663"><ele>191.0</ele><time>2026-04-19T07:35:15.024Z</time></trkpt><trkpt lat="43.6819933" lon="12.6483348"><ele>190.25</ele><time>2026-04-19T07:35:16.023Z</time></trkpt><trkpt lat="43.6818473" lon="12.6482152"><ele>189.5</ele><time>2026-04-19T07:35:17.026Z</time></trkpt><trkpt lat="43.6817184" lon="12.6481039"><ele>188.75</ele><time>2026-04-19T07:35:18.016Z</time></trkpt><trkpt lat="43.6816109" lon="12.6480309"><ele>188.0</ele><time>2026-04-19T07:35:19.027Z</time></trkpt><trkpt lat="43.6815559" lon="12.6479681"><ele>188.0</ele><time>2026-04-19T07:35:20.019Z</time></trkpt><trkpt lat="43.6815007" lon="12.6479014"><ele>188.0</ele><time>2026-04-19T07:35:21.016Z</time></trkpt><trkpt lat="43.6814685" lon="12.6478177"><ele>188.0</ele><time>2026-04-19T07:35:22.015Z</time></trkpt><trkpt lat="43.6814784" lon="12.6476625"><ele>188.0</ele><time>2026-04-19T07:35:24.021Z</time></trkpt><trkpt lat="43.681426" lon="12.647551"><ele>188.0</ele><time>2026-04-19T07:35:26.029Z</time></trkpt><trkpt lat="43.6813628" lon="12.6475381"><ele>188.0</ele><time>2026-04-19T07:35:27.026Z</time></trkpt><trkpt lat="43.6812698" lon="12.6475618"><ele>189.0</ele><time>2026-04-19T07:35:28.014Z</time></trkpt><trkpt lat="43.6811692" lon="12.6475775"><ele>190.0</ele><time>2026-04-19T07:35:29.019Z</time></trkpt><trkpt lat="43.6810692" lon="12.6475682"><ele>191.0</ele><time>2026-04-19T07:35:30.023Z</time></trkpt><trkpt lat="43.6809554" lon="12.6475208"><ele>192.0</ele><time>2026-04-19T07:35:31.025Z</time></trkpt><trkpt lat="43.6808242" lon="12.6474364"><ele>192.0</ele><time>2026-04-19T07:35:32.02Z</time></trkpt><trkpt lat="43.6806707" lon="12.6473937"><ele>192.0</ele><time>2026-04-19T07:35:33.021Z</time></trkpt><trkpt lat="43.6804805" lon="12.6473973"><ele>192.0</ele><time>2026-04-19T07:35:34.024Z</time></trkpt><trkpt lat="43.6802881" lon="12.6474291"><ele>191.66666666666666</ele><time>2026-04-19T07:35:35.033Z</time></trkpt><trkpt lat="43.680088" lon="12.6474489"><ele>191.33333333333331</ele><time>2026-04-19T07:35:36.018Z</time></trkpt><trkpt lat="43.679883" lon="12.647474"><ele>191.0</ele><time>2026-04-19T07:35:37.022Z</time></trkpt><trkpt lat="43.6796677" lon="12.6474599"><ele>191.0</ele><time>2026-04-19T07:35:38.025Z</time></trkpt><trkpt lat="43.6794543" lon="12.6473656"><ele>191.0</ele><time>2026-04-19T07:35:39.026Z</time></trkpt><trkpt lat="43.6792449" lon="12.6472572"><ele>191.0</ele><time>2026-04-19T07:35:40.019Z</time></trkpt><trkpt lat="43.6790499" lon="12.6471378"><ele>193.33333333333331</ele><time>2026-04-19T07:35:41.017Z</time></trkpt><trkpt lat="43.6788463" lon="12.6470374"><ele>195.66666666666666</ele><time>2026-04-19T07:35:42.015Z</time></trkpt><trkpt lat="43.6786549" lon="12.6469831"><ele>198.0</ele><time>2026-04-19T07:35:43.026Z</time></trkpt><trkpt lat="43.6784648" lon="12.646989"><ele>199.33333333333331</ele><time>2026-04-19T07:35:44.021Z</time></trkpt><trkpt lat="43.678276" lon="12.6470171"><ele>200.66666666666666</ele><time>2026-04-19T07:35:45.012Z</time></trkpt><trkpt lat="43.6781015" lon="12.6470827"><ele>202.0</ele><time>2026-04-19T07:35:46.014Z</time></trkpt><trkpt lat="43.6779327" lon="12.6471999"><ele>199.0</ele><time>2026-04-19T07:35:47.011Z</time></trkpt><trkpt lat="43.6777581" lon="12.6473425"><ele>196.0</ele><time>2026-04-19T07:35:48.009Z</time></trkpt><trkpt lat="43.6775736" lon="12.6474679"><ele>193.0</ele><time>2026-04-19T07:35:49.006Z</time></trkpt><trkpt lat="43.6773825" lon="12.647597"><ele>193.0</ele><time>2026-04-19T07:35:50.008Z</time></trkpt><trkpt lat="43.6771927" lon="12.6477227"><ele>193.0</ele><time>2026-04-19T07:35:51.012Z</time></trkpt><trkpt lat="43.6770176" lon="12.6478524"><ele>193.0</ele><time>2026-04-19T07:35:52.007Z</time></trkpt><trkpt lat="43.6768438" lon="12.6479801"><ele>194.33333333333331</ele><time>2026-04-19T07:35:53.006Z</time></trkpt><trkpt lat="43.6766829" lon="12.6480956"><ele>195.66666666666669</ele><time>2026-04-19T07:35:54.003Z</time></trkpt><trkpt lat="43.6765216" lon="12.6482011"><ele>197.0</ele><time>2026-04-19T07:35:55.002Z</time></trkpt><trkpt lat="43.6763611" lon="12.648273"><ele>197.0</ele><time>2026-04-19T07:35:56.008Z</time></trkpt><trkpt lat="43.6762092" lon="12.6483095"><ele>197.0</ele><time>2026-04-19T07:35:57Z</time></trkpt><trkpt lat="43.6760591" lon="12.6483215"><ele>197.0</ele><time>2026-04-19T07:35:58.003Z</time></trkpt><trkpt lat="43.6759151" lon="12.6483251"><ele>197.0</ele><time>2026-04-19T07:35:59Z</time></trkpt><trkpt lat="43.675788" lon="12.6483037"><ele>196.83333333333334</ele><time>2026-04-19T07:36:00.009Z</time></trkpt><trkpt lat="43.6756867" lon="12.6482627"><ele>196.66666666666669</ele><time>2026-04-19T07:36:01.009Z</time></trkpt><trkpt lat="43.675603" lon="12.6482356"><ele>196.5</ele><time>2026-04-19T07:36:02.003Z</time></trkpt><trkpt lat="43.6755186" lon="12.6482266"><ele>196.33333333333331</ele><time>2026-04-19T07:36:03.008Z</time></trkpt><trkpt lat="43.6754441" lon="12.6482085"><ele>196.16666666666666</ele><time>2026-04-19T07:36:04.009Z</time></trkpt><trkpt lat="43.6753757" lon="12.6481896"><ele>196.0</ele><time>2026-04-19T07:36:05.011Z</time></trkpt><trkpt lat="43.6752951" lon="12.6481741"><ele>197.4</ele><time>2026-04-19T07:36:06.027Z</time></trkpt><trkpt lat="43.6752071" lon="12.6481583"><ele>198.8</ele><time>2026-04-19T07:36:07.013Z</time></trkpt><trkpt lat="43.6751084" lon="12.6481437"><ele>200.20000000000002</ele><time>2026-04-19T07:36:08.009Z</time></trkpt><trkpt lat="43.6749971" lon="12.6481217"><ele>201.60000000000002</ele><time>2026-04-19T07:36:09.012Z</time></trkpt><trkpt lat="43.6748752" lon="12.6480904"><ele>203.0</ele><time>2026-04-19T07:36:10.013Z</time></trkpt><trkpt lat="43.6747549" lon="12.6480647"><ele>203.0</ele><time>2026-04-19T07:36:11.01Z</time></trkpt><trkpt lat="43.6746383" lon="12.648041"><ele>203.0</ele><time>2026-04-19T07:36:12.011Z</time></trkpt><trkpt lat="43.6745213" lon="12.648019"><ele>203.0</ele><time>2026-04-19T07:36:13.009Z</time></trkpt><trkpt lat="43.6744079" lon="12.6479953"><ele>203.0</ele><time>2026-04-19T07:36:14.008Z</time></trkpt><trkpt lat="43.6742956" lon="12.6479736"><ele>204.0</ele><time>2026-04-19T07:36:15.008Z</time></trkpt><trkpt lat="43.674192" lon="12.6479525"><ele>205.0</ele><time>2026-04-19T07:36:16.008Z</time></trkpt><trkpt lat="43.6740884" lon="12.6479236"><ele>206.0</ele><time>2026-04-19T07:36:17.016Z</time></trkpt><trkpt lat="43.6739916" lon="12.6478949"><ele>207.0</ele><time>2026-04-19T07:36:18.015Z</time></trkpt><trkpt lat="43.673895" lon="12.6478824"><ele>208.0</ele><time>2026-04-19T07:36:19.01Z</time></trkpt><trkpt lat="43.6737906" lon="12.6478643"><ele>208.0</ele><time>2026-04-19T07:36:20.007Z</time></trkpt><trkpt lat="43.673695" lon="12.6478479"><ele>208.0</ele><time>2026-04-19T07:36:21.011Z</time></trkpt><trkpt lat="43.6736095" lon="12.6478291"><ele>208.0</ele><time>2026-04-19T07:36:22.007Z</time></trkpt><trkpt lat="43.6735418" lon="12.6478257"><ele>208.0</ele><time>2026-04-19T07:36:23.015Z</time></trkpt><trkpt lat="43.6734402" lon="12.6478066"><ele>208.0</ele><time>2026-04-19T07:36:25.019Z</time></trkpt><trkpt lat="43.6733375" lon="12.6477879"><ele>207.2</ele><time>2026-04-19T07:36:27.026Z</time></trkpt><trkpt lat="43.6732192" lon="12.6477436"><ele>206.4</ele><time>2026-04-19T07:36:29.023Z</time></trkpt><trkpt lat="43.6731038" lon="12.6476937"><ele>205.6</ele><time>2026-04-19T07:36:31.018Z</time></trkpt><trkpt lat="43.6730359" lon="12.6476945"><ele>204.79999999999998</ele><time>2026-04-19T07:36:32.026Z</time></trkpt><trkpt lat="43.6729661" lon="12.6477378"><ele>204.0</ele><time>2026-04-19T07:36:33.024Z</time></trkpt><trkpt lat="43.6728903" lon="12.6478226"><ele>206.0</ele><time>2026-04-19T07:36:34.015Z</time></trkpt><trkpt lat="43.6728086" lon="12.6479127"><ele>208.0</ele><time>2026-04-19T07:36:35.018Z</time></trkpt><trkpt lat="43.6727185" lon="12.6479925"><ele>209.99999999999997</ele><time>2026-04-19T07:36:36.025Z</time></trkpt><trkpt lat="43.6726216" lon="12.6480594"><ele>212.0</ele><time>2026-04-19T07:36:37.031Z</time></trkpt><trkpt lat="43.6725103" lon="12.6481105"><ele>214.0</ele><time>2026-04-19T07:36:38.016Z</time></trkpt><trkpt lat="43.672396" lon="12.6481543"><ele>214.5</ele><time>2026-04-19T07:36:39.019Z</time></trkpt><trkpt lat="43.6722758" lon="12.6481969"><ele>215.0</ele><time>2026-04-19T07:36:40.017Z</time></trkpt><trkpt lat="43.6721545" lon="12.648249"><ele>215.5</ele><time>2026-04-19T07:36:41.025Z</time></trkpt><trkpt lat="43.6720317" lon="12.6483228"><ele>216.0</ele><time>2026-04-19T07:36:42.017Z</time></trkpt><trkpt lat="43.6719081" lon="12.6484151"><ele>216.0</ele><time>2026-04-19T07:36:43.018Z</time></trkpt><trkpt lat="43.6717893" lon="12.6485245"><ele>216.0</ele><time>2026-04-19T07:36:44.008Z</time></trkpt><trkpt lat="43.6716828" lon="12.648639"><ele>216.0</ele><time>2026-04-19T07:36:45.014Z</time></trkpt><trkpt lat="43.6715987" lon="12.6487943"><ele>216.0</ele><time>2026-04-19T07:36:46.017Z</time></trkpt><trkpt lat="43.6715327" lon="12.649007"><ele>218.33333333333331</ele><time>2026-04-19T07:36:47.016Z</time></trkpt><trkpt lat="43.6715341" lon="12.6492608"><ele>220.66666666666666</ele><time>2026-04-19T07:36:48.012Z</time></trkpt><trkpt lat="43.6715186" lon="12.6494971"><ele>223.0</ele><time>2026-04-19T07:36:49.012Z</time></trkpt><trkpt lat="43.6715008" lon="12.6497462"><ele>225.0</ele><time>2026-04-19T07:36:50.006Z</time></trkpt><trkpt lat="43.6714553" lon="12.6499585"><ele>227.0</ele><time>2026-04-19T07:36:51.011Z</time></trkpt><trkpt lat="43.6713939" lon="12.6501581"><ele>229.0</ele><time>2026-04-19T07:36:52.02Z</time></trkpt><trkpt lat="43.6712907" lon="12.6502983"><ele>230.33333333333331</ele><time>2026-04-19T07:36:53.014Z</time></trkpt><trkpt lat="43.6711413" lon="12.650367"><ele>231.66666666666669</ele><time>2026-04-19T07:36:54.015Z</time></trkpt><trkpt lat="43.6709601" lon="12.6503711"><ele>233.0</ele><time>2026-04-19T07:36:55.012Z</time></trkpt><trkpt lat="43.670791" lon="12.6503035"><ele>231.66666666666669</ele><time>2026-04-19T07:36:56.017Z</time></trkpt><trkpt lat="43.6706391" lon="12.6501627"><ele>230.33333333333331</ele><time>2026-04-19T07:36:57.005Z</time></trkpt><trkpt lat="43.6704976" lon="12.64999"><ele>229.0</ele><time>2026-04-19T07:36:58.018Z</time></trkpt><trkpt lat="43.6703802" lon="12.6497932"><ele>231.33333333333331</ele><time>2026-04-19T07:36:59.005Z</time></trkpt><trkpt lat="43.6702573" lon="12.6496335"><ele>233.66666666666669</ele><time>2026-04-19T07:37:00.011Z</time></trkpt><trkpt lat="43.6701387" lon="12.6494787"><ele>236.0</ele><time>2026-04-19T07:37:01.006Z</time></trkpt><trkpt lat="43.6699966" lon="12.6493478"><ele>236.0</ele><time>2026-04-19T07:37:02.024Z</time></trkpt><trkpt lat="43.6698494" lon="12.6492611"><ele>236.0</ele><time>2026-04-19T07:37:03.016Z</time></trkpt><trkpt lat="43.6696911" lon="12.6491725"><ele>236.0</ele><time>2026-04-19T07:37:04.014Z</time></trkpt><trkpt lat="43.6695074" lon="12.6491228"><ele>237.0</ele><time>2026-04-19T07:37:05.026Z</time></trkpt><trkpt lat="43.6693143" lon="12.6491163"><ele>238.0</ele><time>2026-04-19T07:37:06.026Z</time></trkpt><trkpt lat="43.6691303" lon="12.6491683"><ele>239.0</ele><time>2026-04-19T07:37:07.014Z</time></trkpt><trkpt lat="43.6689882" lon="12.6492341"><ele>239.0</ele><time>2026-04-19T07:37:08.032Z</time></trkpt><trkpt lat="43.6688563" lon="12.6492889"><ele>239.0</ele><time>2026-04-19T07:37:09.024Z</time></trkpt><trkpt lat="43.6687186" lon="12.6493768"><ele>239.0</ele><time>2026-04-19T07:37:10.022Z</time></trkpt><trkpt lat="43.6686031" lon="12.6495128"><ele>239.0</ele><time>2026-04-19T07:37:11.025Z</time></trkpt><trkpt lat="43.6685081" lon="12.6496745"><ele>243.33333333333334</ele><time>2026-04-19T07:37:12.02Z</time></trkpt><trkpt lat="43.6684364" lon="12.6498768"><ele>247.66666666666669</ele><time>2026-04-19T07:37:13.018Z</time></trkpt><trkpt lat="43.6683735" lon="12.6500973"><ele>252.0</ele><time>2026-04-19T07:37:14.021Z</time></trkpt><trkpt lat="43.6683066" lon="12.6503053"><ele>256.6666666666667</ele><time>2026-04-19T07:37:15.011Z</time></trkpt><trkpt lat="43.668252" lon="12.650546"><ele>261.33333333333337</ele><time>2026-04-19T07:37:16.012Z</time></trkpt><trkpt lat="43.6681878" lon="12.6507865"><ele>266.0</ele><time>2026-04-19T07:37:17.004Z</time></trkpt><trkpt lat="43.6681251" lon="12.6510316"><ele>268.0</ele><time>2026-04-19T07:37:18.001Z</time></trkpt><trkpt lat="43.6680631" lon="12.6512634"><ele>270.0</ele><time>2026-04-19T07:37:18.999Z</time></trkpt><trkpt lat="43.6680052" lon="12.6515069"><ele>272.0</ele><time>2026-04-19T07:37:20.002Z</time></trkpt><trkpt lat="43.6679545" lon="12.6517777"><ele>269.0</ele><time>2026-04-19T07:37:21Z</time></trkpt><trkpt lat="43.6678895" lon="12.6520344"><ele>266.0</ele><time>2026-04-19T07:37:22.002Z</time></trkpt><trkpt lat="43.6678224" lon="12.6522817"><ele>263.0</ele><time>2026-04-19T07:37:23.005Z</time></trkpt><trkpt lat="43.6677537" lon="12.6525086"><ele>263.0</ele><time>2026-04-19T07:37:24.002Z</time></trkpt><trkpt lat="43.667686" lon="12.6527443"><ele>263.0</ele><time>2026-04-19T07:37:25.002Z</time></trkpt><trkpt lat="43.6676074" lon="12.6529685"><ele>263.0</ele><time>2026-04-19T07:37:26.006Z</time></trkpt><trkpt lat="43.6675356" lon="12.6531832"><ele>265.6666666666667</ele><time>2026-04-19T07:37:27.004Z</time></trkpt><trkpt lat="43.6674794" lon="12.6534031"><ele>268.3333333333333</ele><time>2026-04-19T07:37:28.011Z</time></trkpt><trkpt lat="43.6674137" lon="12.6536354"><ele>271.0</ele><time>2026-04-19T07:37:29.005Z</time></trkpt><trkpt lat="43.6673496" lon="12.6538622"><ele>274.0</ele><time>2026-04-19T07:37:30.006Z</time></trkpt><trkpt lat="43.6672746" lon="12.6540692"><ele>277.0</ele><time>2026-04-19T07:37:31.006Z</time></trkpt><trkpt lat="43.667196" lon="12.6542586"><ele>280.0</ele><time>2026-04-19T07:37:32.016Z</time></trkpt><trkpt lat="43.6670759" lon="12.654444"><ele>279.0</ele><time>2026-04-19T07:37:33.011Z</time></trkpt><trkpt lat="43.6669467" lon="12.6546246"><ele>278.0</ele><time>2026-04-19T07:37:34.01Z</time></trkpt><trkpt lat="43.6668071" lon="12.6547768"><ele>277.0</ele><time>2026-04-19T07:37:35.012Z</time></trkpt><trkpt lat="43.666664" lon="12.6548739"><ele>277.0</ele><time>2026-04-19T07:37:36.007Z</time></trkpt><trkpt lat="43.6664969" lon="12.6549439"><ele>277.0</ele><time>2026-04-19T07:37:37.017Z</time></trkpt><trkpt lat="43.6663331" lon="12.6549653"><ele>277.0</ele><time>2026-04-19T07:37:38.018Z</time></trkpt><trkpt lat="43.6661703" lon="12.6549676"><ele>278.25</ele><time>2026-04-19T07:37:39.022Z</time></trkpt><trkpt lat="43.6660343" lon="12.6550086"><ele>279.5</ele><time>2026-04-19T07:37:40.011Z</time></trkpt><trkpt lat="43.6659092" lon="12.6550756"><ele>280.75</ele><time>2026-04-19T07:37:41.021Z</time></trkpt><trkpt lat="43.6657845" lon="12.6551954"><ele>282.0</ele><time>2026-04-19T07:37:42.018Z</time></trkpt><trkpt lat="43.6656522" lon="12.6553685"><ele>282.0</ele><time>2026-04-19T07:37:43.018Z</time></trkpt><trkpt lat="43.6655356" lon="12.6555526"><ele>282.0</ele><time>2026-04-19T07:37:44.018Z</time></trkpt><trkpt lat="43.6654315" lon="12.655746"><ele>282.0</ele><time>2026-04-19T07:37:45.016Z</time></trkpt><trkpt lat="43.6653409" lon="12.6559661"><ele>280.5</ele><time>2026-04-19T07:37:46.016Z</time></trkpt><trkpt lat="43.665264" lon="12.6561679"><ele>279.0</ele><time>2026-04-19T07:37:47.021Z</time></trkpt><trkpt lat="43.6652014" lon="12.6563435"><ele>277.5</ele><time>2026-04-19T07:37:48.016Z</time></trkpt><trkpt lat="43.6651366" lon="12.6564966"><ele>276.0</ele><time>2026-04-19T07:37:49.018Z</time></trkpt><trkpt lat="43.6650611" lon="12.656643"><ele>276.0</ele><time>2026-04-19T07:37:50.019Z</time></trkpt><trkpt lat="43.6649674" lon="12.6567897"><ele>276.0</ele><time>2026-04-19T07:37:51.023Z</time></trkpt><trkpt lat="43.6648511" lon="12.6569263"><ele>276.0</ele><time>2026-04-19T07:37:52.014Z</time></trkpt><trkpt lat="43.6647127" lon="12.6570478"><ele>276.6666666666667</ele><time>2026-04-19T07:37:53.014Z</time></trkpt><trkpt lat="43.6645631" lon="12.6571368"><ele>277.33333333333337</ele><time>2026-04-19T07:37:54.013Z</time></trkpt><trkpt lat="43.6644101" lon="12.6572179"><ele>278.0</ele><time>2026-04-19T07:37:55.013Z</time></trkpt><trkpt lat="43.6642574" lon="12.657272"><ele>278.0</ele><time>2026-04-19T07:37:56.02Z</time></trkpt><trkpt lat="43.6641061" lon="12.6573371"><ele>278.0</ele><time>2026-04-19T07:37:57.023Z</time></trkpt><trkpt lat="43.6639569" lon="12.6574038"><ele>278.0</ele><time>2026-04-19T07:37:58.016Z</time></trkpt><trkpt lat="43.663809" lon="12.6574744"><ele>278.0</ele><time>2026-04-19T07:37:59.02Z</time></trkpt><trkpt lat="43.6636399" lon="12.6575387"><ele>278.0</ele><time>2026-04-19T07:38:00.021Z</time></trkpt><trkpt lat="43.6634807" lon="12.6576155"><ele>278.0</ele><time>2026-04-19T07:38:01.02Z</time></trkpt><trkpt lat="43.6633271" lon="12.6577216"><ele>278.33333333333337</ele><time>2026-04-19T07:38:02.029Z</time></trkpt><trkpt lat="43.6631791" lon="12.6578911"><ele>278.6666666666667</ele><time>2026-04-19T07:38:03.028Z</time></trkpt><trkpt lat="43.6630537" lon="12.6581036"><ele>279.0</ele><time>2026-04-19T07:38:04.029Z</time></trkpt><trkpt lat="43.6629448" lon="12.6583631"><ele>277.0</ele><time>2026-04-19T07:38:05.019Z</time></trkpt><trkpt lat="43.6628469" lon="12.6586338"><ele>275.0</ele><time>2026-04-19T07:38:06.019Z</time></trkpt><trkpt lat="43.6627078" lon="12.6588984"><ele>275.0</ele><time>2026-04-19T07:38:07.018Z</time></trkpt><trkpt lat="43.6625406" lon="12.6591469"><ele>275.0</ele><time>2026-04-19T07:38:08.011Z</time></trkpt><trkpt lat="43.6623566" lon="12.6593933"><ele>283.0</ele><time>2026-04-19T07:38:09.013Z</time></trkpt><trkpt lat="43.6621734" lon="12.6596445"><ele>291.0</ele><time>2026-04-19T07:38:10.023Z</time></trkpt><trkpt lat="43.6620023" lon="12.6598926"><ele>288.3333333333333</ele><time>2026-04-19T07:38:11.012Z</time></trkpt><trkpt lat="43.6618576" lon="12.6601228"><ele>285.66666666666663</ele><time>2026-04-19T07:38:12.025Z</time></trkpt><trkpt lat="43.6617468" lon="12.6603659"><ele>283.0</ele><time>2026-04-19T07:38:13.018Z</time></trkpt><trkpt lat="43.661661" lon="12.6606564"><ele>283.0</ele><time>2026-04-19T07:38:14.012Z</time></trkpt><trkpt lat="43.6615864" lon="12.660966"><ele>283.0</ele><time>2026-04-19T07:38:15.01Z</time></trkpt><trkpt lat="43.6614952" lon="12.6612743"><ele>286.3333333333333</ele><time>2026-04-19T07:38:16.01Z</time></trkpt><trkpt lat="43.6613737" lon="12.6615445"><ele>289.6666666666667</ele><time>2026-04-19T07:38:17.01Z</time></trkpt><trkpt lat="43.6612734" lon="12.6617684"><ele>293.0</ele><time>2026-04-19T07:38:18.012Z</time></trkpt><trkpt lat="43.6611934" lon="12.6619928"><ele>294.33333333333337</ele><time>2026-04-19T07:38:19.017Z</time></trkpt><trkpt lat="43.6611558" lon="12.6622444"><ele>295.6666666666667</ele><time>2026-04-19T07:38:20.023Z</time></trkpt><trkpt lat="43.6611657" lon="12.6624847"><ele>297.0</ele><time>2026-04-19T07:38:21.014Z</time></trkpt><trkpt lat="43.6611776" lon="12.6627005"><ele>292.6666666666667</ele><time>2026-04-19T07:38:22.024Z</time></trkpt><trkpt lat="43.6611203" lon="12.6629127"><ele>288.33333333333337</ele><time>2026-04-19T07:38:23.025Z</time></trkpt><trkpt lat="43.6609926" lon="12.6631228"><ele>284.0</ele><time>2026-04-19T07:38:24.028Z</time></trkpt><trkpt lat="43.6608189" lon="12.6633088"><ele>284.0</ele><time>2026-04-19T07:38:25.029Z</time></trkpt><trkpt lat="43.6606446" lon="12.6635215"><ele>284.0</ele><time>2026-04-19T07:38:26.027Z</time></trkpt><trkpt lat="43.6604813" lon="12.6637147"><ele>284.0</ele><time>2026-04-19T07:38:27.039Z</time></trkpt><trkpt lat="43.6603398" lon="12.6638624"><ele>284.75</ele><time>2026-04-19T07:38:28.03Z</time></trkpt><trkpt lat="43.6602506" lon="12.6639858"><ele>285.5</ele><time>2026-04-19T07:38:29.023Z</time></trkpt><trkpt lat="43.6601746" lon="12.6641215"><ele>286.25</ele><time>2026-04-19T07:38:30.025Z</time></trkpt><trkpt lat="43.6601537" lon="12.6642729"><ele>287.0</ele><time>2026-04-19T07:38:31.025Z</time></trkpt><trkpt lat="43.6601867" lon="12.6644261"><ele>289.25</ele><time>2026-04-19T07:38:32.024Z</time></trkpt><trkpt lat="43.6602654" lon="12.664542"><ele>291.5</ele><time>2026-04-19T07:38:33.022Z</time></trkpt><trkpt lat="43.6603769" lon="12.6646046"><ele>293.75</ele><time>2026-04-19T07:38:34.023Z</time></trkpt><trkpt lat="43.6604991" lon="12.6646135"><ele>296.0</ele><time>2026-04-19T07:38:35.019Z</time></trkpt><trkpt lat="43.6606387" lon="12.6645593"><ele>296.0</ele><time>2026-04-19T07:38:36.018Z</time></trkpt><trkpt lat="43.6608148" lon="12.6644332"><ele>296.0</ele><time>2026-04-19T07:38:37.011Z</time></trkpt><trkpt lat="43.6609409" lon="12.6643881"><ele>296.0</ele><time>2026-04-19T07:38:38.01Z</time></trkpt><trkpt lat="43.6610397" lon="12.6644093"><ele>296.0</ele><time>2026-04-19T07:38:39.021Z</time></trkpt><trkpt lat="43.661104" lon="12.6645427"><ele>296.0</ele><time>2026-04-19T07:38:40.018Z</time></trkpt><trkpt lat="43.6611281" lon="12.6647435"><ele>296.0</ele><time>2026-04-19T07:38:41.031Z</time></trkpt><trkpt lat="43.6610876" lon="12.6649707"><ele>296.0</ele><time>2026-04-19T07:38:42.017Z</time></trkpt><trkpt lat="43.6609877" lon="12.6652158"><ele>301.33333333333337</ele><time>2026-04-19T07:38:43.018Z</time></trkpt><trkpt lat="43.660833" lon="12.6654352"><ele>306.6666666666667</ele><time>2026-04-19T07:38:44.011Z</time></trkpt><trkpt lat="43.6606862" lon="12.6656126"><ele>312.0</ele><time>2026-04-19T07:38:45.014Z</time></trkpt><trkpt lat="43.6605668" lon="12.6657531"><ele>312.0</ele><time>2026-04-19T07:38:46.015Z</time></trkpt><trkpt lat="43.6604522" lon="12.6658025"><ele>312.0</ele><time>2026-04-19T07:38:47.023Z</time></trkpt><trkpt lat="43.6603237" lon="12.6657841"><ele>312.0</ele><time>2026-04-19T07:38:48.011Z</time></trkpt><trkpt lat="43.6601777" lon="12.6656976"><ele>312.0</ele><time>2026-04-19T07:38:49.01Z</time></trkpt><trkpt lat="43.6600113" lon="12.6655765"><ele>313.6666666666667</ele><time>2026-04-19T07:38:50.006Z</time></trkpt><trkpt lat="43.6598388" lon="12.6654436"><ele>315.33333333333337</ele><time>2026-04-19T07:38:51.005Z</time></trkpt><trkpt lat="43.6596712" lon="12.665338"><ele>317.0</ele><time>2026-04-19T07:38:52.016Z</time></trkpt><trkpt lat="43.6595181" lon="12.6653133"><ele>318.6666666666667</ele><time>2026-04-19T07:38:53.011Z</time></trkpt><trkpt lat="43.6593464" lon="12.6653669"><ele>320.3333333333333</ele><time>2026-04-19T07:38:54.016Z</time></trkpt><trkpt lat="43.6591818" lon="12.6654404"><ele>322.0</ele><time>2026-04-19T07:38:55.014Z</time></trkpt><trkpt lat="43.6590447" lon="12.6655717"><ele>322.0</ele><time>2026-04-19T07:38:56.009Z</time></trkpt><trkpt lat="43.6589145" lon="12.6656994"><ele>322.0</ele><time>2026-04-19T07:38:57.013Z</time></trkpt><trkpt lat="43.6587872" lon="12.6658451"><ele>322.0</ele><time>2026-04-19T07:38:58.02Z</time></trkpt><trkpt lat="43.6587046" lon="12.6660469"><ele>323.3333333333333</ele><time>2026-04-19T07:38:59.014Z</time></trkpt><trkpt lat="43.6586072" lon="12.6662464"><ele>324.6666666666667</ele><time>2026-04-19T07:39:00.02Z</time></trkpt><trkpt lat="43.65851" lon="12.6664467"><ele>326.0</ele><time>2026-04-19T07:39:01.014Z</time></trkpt><trkpt lat="43.6584013" lon="12.6666492"><ele>326.0</ele><time>2026-04-19T07:39:02.016Z</time></trkpt><trkpt lat="43.6582908" lon="12.6668488"><ele>326.0</ele><time>2026-04-19T07:39:03.011Z</time></trkpt><trkpt lat="43.6581718" lon="12.6670395"><ele>326.0</ele><time>2026-04-19T07:39:04.007Z</time></trkpt><trkpt lat="43.6580433" lon="12.6671807"><ele>329.5</ele><time>2026-04-19T07:39:05.017Z</time></trkpt><trkpt lat="43.6579216" lon="12.6672807"><ele>333.0</ele><time>2026-04-19T07:39:06.019Z</time></trkpt><trkpt lat="43.6578176" lon="12.6673492"><ele>336.5</ele><time>2026-04-19T07:39:07.011Z</time></trkpt><trkpt lat="43.6577189" lon="12.6674379"><ele>340.0</ele><time>2026-04-19T07:39:08.011Z</time></trkpt><trkpt lat="43.6576148" lon="12.6675396"><ele>340.0</ele><time>2026-04-19T07:39:09.005Z</time></trkpt><trkpt lat="43.6574758" lon="12.6676404"><ele>340.0</ele><time>2026-04-19T07:39:10.018Z</time></trkpt><trkpt lat="43.6573039" lon="12.6677652"><ele>340.0</ele><time>2026-04-19T07:39:11.013Z</time></trkpt><trkpt lat="43.6571094" lon="12.667894"><ele>343.66666666666663</ele><time>2026-04-19T07:39:12.016Z</time></trkpt><trkpt lat="43.6569159" lon="12.6680134"><ele>347.3333333333333</ele><time>2026-04-19T07:39:13.01Z</time></trkpt><trkpt lat="43.6567042" lon="12.6681167"><ele>351.0</ele><time>2026-04-19T07:39:14.014Z</time></trkpt><trkpt lat="43.656452" lon="12.6682495"><ele>351.0</ele><time>2026-04-19T07:39:15.018Z</time></trkpt><trkpt lat="43.6562075" lon="12.668395"><ele>351.0</ele><time>2026-04-19T07:39:16.022Z</time></trkpt><trkpt lat="43.6559692" lon="12.6685541"><ele>354.5</ele><time>2026-04-19T07:39:17.023Z</time></trkpt><trkpt lat="43.6557478" lon="12.6687137"><ele>358.0</ele><time>2026-04-19T07:39:18.021Z</time></trkpt><trkpt lat="43.6555567" lon="12.6688681"><ele>358.0</ele><time>2026-04-19T07:39:19.026Z</time></trkpt><trkpt lat="43.6553984" lon="12.6690313"><ele>358.0</ele><time>2026-04-19T07:39:20.014Z</time></trkpt><trkpt lat="43.6552748" lon="12.6692226"><ele>358.0</ele><time>2026-04-19T07:39:21.022Z</time></trkpt><trkpt lat="43.655169" lon="12.6694413"><ele>362.0</ele><time>2026-04-19T07:39:22.018Z</time></trkpt><trkpt lat="43.6550896" lon="12.669683"><ele>366.0</ele><time>2026-04-19T07:39:23.02Z</time></trkpt><trkpt lat="43.6550462" lon="12.6699546"><ele>370.0</ele><time>2026-04-19T07:39:24.011Z</time></trkpt><trkpt lat="43.6550074" lon="12.6702298"><ele>373.3333333333333</ele><time>2026-04-19T07:39:25.015Z</time></trkpt><trkpt lat="43.6549821" lon="12.6704967"><ele>376.6666666666667</ele><time>2026-04-19T07:39:26.012Z</time></trkpt><trkpt lat="43.6549217" lon="12.6707263"><ele>380.0</ele><time>2026-04-19T07:39:27.018Z</time></trkpt><trkpt lat="43.6548203" lon="12.6709013"><ele>380.0</ele><time>2026-04-19T07:39:28.026Z</time></trkpt><trkpt lat="43.6546902" lon="12.6710305"><ele>380.0</ele><time>2026-04-19T07:39:29.027Z</time></trkpt><trkpt lat="43.6545132" lon="12.6711051"><ele>380.0</ele><time>2026-04-19T07:39:30.02Z</time></trkpt><trkpt lat="43.6543369" lon="12.6711093"><ele>377.6666666666667</ele><time>2026-04-19T07:39:31.019Z</time></trkpt><trkpt lat="43.6541665" lon="12.6710818"><ele>375.3333333333333</ele><time>2026-04-19T07:39:32.022Z</time></trkpt><trkpt lat="43.654" lon="12.6709876"><ele>373.0</ele><time>2026-04-19T07:39:33.011Z</time></trkpt><trkpt lat="43.6538432" lon="12.6708802"><ele>373.0</ele><time>2026-04-19T07:39:34.013Z</time></trkpt><trkpt lat="43.6536753" lon="12.6707782"><ele>373.0</ele><time>2026-04-19T07:39:35.017Z</time></trkpt><trkpt lat="43.6534989" lon="12.670699"><ele>373.0</ele><time>2026-04-19T07:39:36.018Z</time></trkpt><trkpt lat="43.653261" lon="12.6706544"><ele>377.0</ele><time>2026-04-19T07:39:37.012Z</time></trkpt><trkpt lat="43.653033" lon="12.6706369"><ele>381.0</ele><time>2026-04-19T07:39:38.01Z</time></trkpt><trkpt lat="43.6528041" lon="12.6706257"><ele>383.0</ele><time>2026-04-19T07:39:39.007Z</time></trkpt><trkpt lat="43.6525822" lon="12.6705992"><ele>385.0</ele><time>2026-04-19T07:39:40.011Z</time></trkpt><trkpt lat="43.6523607" lon="12.6704932"><ele>385.0</ele><time>2026-04-19T07:39:41.015Z</time></trkpt><trkpt lat="43.6521532" lon="12.6703506"><ele>385.0</ele><time>2026-04-19T07:39:42.011Z</time></trkpt><trkpt lat="43.6519304" lon="12.6701933"><ele>379.0</ele><time>2026-04-19T07:39:43.037Z</time></trkpt><trkpt lat="43.6517143" lon="12.6700145"><ele>373.0</ele><time>2026-04-19T07:39:44.022Z</time></trkpt><trkpt lat="43.6514982" lon="12.6698395"><ele>373.0</ele><time>2026-04-19T07:39:45.02Z</time></trkpt><trkpt lat="43.6512766" lon="12.669641"><ele>373.0</ele><time>2026-04-19T07:39:46.026Z</time></trkpt><trkpt lat="43.6510562" lon="12.6694676"><ele>374.0</ele><time>2026-04-19T07:39:47.036Z</time></trkpt><trkpt lat="43.6508293" lon="12.6693218"><ele>375.0</ele><time>2026-04-19T07:39:48.036Z</time></trkpt><trkpt lat="43.6505577" lon="12.6692286"><ele>375.0</ele><time>2026-04-19T07:39:49.034Z</time></trkpt><trkpt lat="43.6502959" lon="12.6691565"><ele>375.0</ele><time>2026-04-19T07:39:50.029Z</time></trkpt><trkpt lat="43.6500318" lon="12.6690654"><ele>376.0</ele><time>2026-04-19T07:39:51.028Z</time></trkpt><trkpt lat="43.6497645" lon="12.6689571"><ele>377.0</ele><time>2026-04-19T07:39:52.03Z</time></trkpt><trkpt lat="43.6494922" lon="12.668851"><ele>375.0</ele><time>2026-04-19T07:39:53.031Z</time></trkpt><trkpt lat="43.6492245" lon="12.6687362"><ele>373.0</ele><time>2026-04-19T07:39:54.03Z</time></trkpt><trkpt lat="43.6489589" lon="12.6686133"><ele>373.5</ele><time>2026-04-19T07:39:55.034Z</time></trkpt><trkpt lat="43.6487101" lon="12.66847"><ele>374.0</ele><time>2026-04-19T07:39:56.037Z</time></trkpt><trkpt lat="43.648476" lon="12.6683237"><ele>375.33333333333337</ele><time>2026-04-19T07:39:57.036Z</time></trkpt><trkpt lat="43.6482725" lon="12.6682031"><ele>376.6666666666667</ele><time>2026-04-19T07:39:58.037Z</time></trkpt><trkpt lat="43.6480945" lon="12.6681156"><ele>378.0</ele><time>2026-04-19T07:39:59.038Z</time></trkpt><trkpt lat="43.6479427" lon="12.6680827"><ele>380.0</ele><time>2026-04-19T07:40:00.04Z</time></trkpt><trkpt lat="43.6477678" lon="12.6681087"><ele>382.0</ele><time>2026-04-19T07:40:01.039Z</time></trkpt><trkpt lat="43.6475974" lon="12.6682081"><ele>384.0</ele><time>2026-04-19T07:40:02.035Z</time></trkpt><trkpt lat="43.647417" lon="12.6683469"><ele>384.0</ele><time>2026-04-19T07:40:03.028Z</time></trkpt><trkpt lat="43.6472212" lon="12.6684806"><ele>384.0</ele><time>2026-04-19T07:40:04.025Z</time></trkpt><trkpt lat="43.6470223" lon="12.6685881"><ele>384.0</ele><time>2026-04-19T07:40:05.032Z</time></trkpt><trkpt lat="43.6468553" lon="12.6686749"><ele>384.0</ele><time>2026-04-19T07:40:06.025Z</time></trkpt><trkpt lat="43.6467143" lon="12.6687539"><ele>384.0</ele><time>2026-04-19T07:40:07.027Z</time></trkpt><trkpt lat="43.6466003" lon="12.6688551"><ele>384.0</ele><time>2026-04-19T07:40:08.032Z</time></trkpt><trkpt lat="43.6465219" lon="12.6689941"><ele>384.0</ele><time>2026-04-19T07:40:09.028Z</time></trkpt><trkpt lat="43.6465025" lon="12.6691961"><ele>384.0</ele><time>2026-04-19T07:40:10.024Z</time></trkpt><trkpt lat="43.6465302" lon="12.6694293"><ele>384.0</ele><time>2026-04-19T07:40:11.028Z</time></trkpt><trkpt lat="43.6465619" lon="12.6696912"><ele>384.0</ele><time>2026-04-19T07:40:12.034Z</time></trkpt><trkpt lat="43.6466074" lon="12.669903"><ele>381.3333333333333</ele><time>2026-04-19T07:40:13.022Z</time></trkpt><trkpt lat="43.6466125" lon="12.6701251"><ele>378.66666666666663</ele><time>2026-04-19T07:40:14.056Z</time></trkpt><trkpt lat="43.6465449" lon="12.6702999"><ele>376.0</ele><time>2026-04-19T07:40:15.03Z</time></trkpt><trkpt lat="43.6465103" lon="12.6704976"><ele>375.3333333333333</ele><time>2026-04-19T07:40:16.042Z</time></trkpt><trkpt lat="43.6465363" lon="12.6707152"><ele>374.6666666666667</ele><time>2026-04-19T07:40:17.037Z</time></trkpt><trkpt lat="43.6466016" lon="12.6709569"><ele>374.0</ele><time>2026-04-19T07:40:18.024Z</time></trkpt><trkpt lat="43.6466626" lon="12.6712054"><ele>372.75</ele><time>2026-04-19T07:40:19.022Z</time></trkpt><trkpt lat="43.6467113" lon="12.6714216"><ele>371.5</ele><time>2026-04-19T07:40:20.022Z</time></trkpt><trkpt lat="43.6467496" lon="12.6716052"><ele>370.25</ele><time>2026-04-19T07:40:21.036Z</time></trkpt><trkpt lat="43.6467503" lon="12.6717675"><ele>369.0</ele><time>2026-04-19T07:40:22.037Z</time></trkpt><trkpt lat="43.6467035" lon="12.6719302"><ele>362.0</ele><time>2026-04-19T07:40:23.038Z</time></trkpt><trkpt lat="43.6465903" lon="12.672026"><ele>355.0</ele><time>2026-04-19T07:40:24.034Z</time></trkpt><trkpt lat="43.6464264" lon="12.6720485"><ele>348.0</ele><time>2026-04-19T07:40:25.033Z</time></trkpt><trkpt lat="43.6462492" lon="12.6720448"><ele>349.6666666666667</ele><time>2026-04-19T07:40:26.022Z</time></trkpt><trkpt lat="43.6460677" lon="12.6720597"><ele>351.33333333333337</ele><time>2026-04-19T07:40:27.023Z</time></trkpt><trkpt lat="43.6458717" lon="12.6720765"><ele>353.0</ele><time>2026-04-19T07:40:28.023Z</time></trkpt><trkpt lat="43.6456898" lon="12.6721073"><ele>353.0</ele><time>2026-04-19T07:40:29.027Z</time></trkpt><trkpt lat="43.6455172" lon="12.672142"><ele>353.0</ele><time>2026-04-19T07:40:30.024Z</time></trkpt><trkpt lat="43.6453655" lon="12.6721344"><ele>353.0</ele><time>2026-04-19T07:40:31.031Z</time></trkpt><trkpt lat="43.6452236" lon="12.6720451"><ele>355.6666666666667</ele><time>2026-04-19T07:40:32.027Z</time></trkpt><trkpt lat="43.6450703" lon="12.6718846"><ele>358.3333333333333</ele><time>2026-04-19T07:40:33.03Z</time></trkpt><trkpt lat="43.64493" lon="12.6717044"><ele>361.0</ele><time>2026-04-19T07:40:34.023Z</time></trkpt><trkpt lat="43.64481" lon="12.671559"><ele>361.0</ele><time>2026-04-19T07:40:35.024Z</time></trkpt><trkpt lat="43.644716" lon="12.6714762"><ele>361.0</ele><time>2026-04-19T07:40:36.03Z</time></trkpt><trkpt lat="43.6446177" lon="12.6714531"><ele>361.0</ele><time>2026-04-19T07:40:37.026Z</time></trkpt><trkpt lat="43.6445316" lon="12.671515"><ele>361.0</ele><time>2026-04-19T07:40:38.023Z</time></trkpt><trkpt lat="43.6444703" lon="12.6716371"><ele>361.0</ele><time>2026-04-19T07:40:39.019Z</time></trkpt><trkpt lat="43.6444749" lon="12.6717811"><ele>361.0</ele><time>2026-04-19T07:40:40.02Z</time></trkpt><trkpt lat="43.6444924" lon="12.6719246"><ele>361.0</ele><time>2026-04-19T07:40:41.026Z</time></trkpt><trkpt lat="43.644582" lon="12.672065"><ele>361.0</ele><time>2026-04-19T07:40:42.025Z</time></trkpt><trkpt lat="43.6447315" lon="12.6721951"><ele>361.0</ele><time>2026-04-19T07:40:43.031Z</time></trkpt><trkpt lat="43.6448803" lon="12.6723247"><ele>357.75</ele><time>2026-04-19T07:40:44.034Z</time></trkpt><trkpt lat="43.6449834" lon="12.6724493"><ele>354.5</ele><time>2026-04-19T07:40:45.018Z</time></trkpt><trkpt lat="43.6450766" lon="12.6725602"><ele>351.25</ele><time>2026-04-19T07:40:46.037Z</time></trkpt><trkpt lat="43.6451312" lon="12.6726765"><ele>348.0</ele><time>2026-04-19T07:40:47.04Z</time></trkpt><trkpt lat="43.6451367" lon="12.6728079"><ele>346.5</ele><time>2026-04-19T07:40:48.036Z</time></trkpt><trkpt lat="43.6450718" lon="12.6729386"><ele>345.0</ele><time>2026-04-19T07:40:49.029Z</time></trkpt><trkpt lat="43.644974" lon="12.6729821"><ele>343.5</ele><time>2026-04-19T07:40:50.024Z</time></trkpt><trkpt lat="43.644854" lon="12.672949"><ele>342.0</ele><time>2026-04-19T07:40:51.023Z</time></trkpt><trkpt lat="43.6447394" lon="12.6728525"><ele>344.0</ele><time>2026-04-19T07:40:52.023Z</time></trkpt><trkpt lat="43.6446388" lon="12.6727295"><ele>346.0</ele><time>2026-04-19T07:40:53.026Z</time></trkpt><trkpt lat="43.6445271" lon="12.6725381"><ele>348.0</ele><time>2026-04-19T07:40:54.035Z</time></trkpt><trkpt lat="43.6443975" lon="12.6722675"><ele>347.0</ele><time>2026-04-19T07:40:55.026Z</time></trkpt><trkpt lat="43.6442597" lon="12.6720505"><ele>346.0</ele><time>2026-04-19T07:40:56.025Z</time></trkpt><trkpt lat="43.644125" lon="12.6718559"><ele>345.0</ele><time>2026-04-19T07:40:57.028Z</time></trkpt><trkpt lat="43.6440007" lon="12.6716796"><ele>345.0</ele><time>2026-04-19T07:40:58.028Z</time></trkpt><trkpt lat="43.6438641" lon="12.6715434"><ele>345.0</ele><time>2026-04-19T07:40:59.031Z</time></trkpt><trkpt lat="43.6437251" lon="12.6714731"><ele>345.0</ele><time>2026-04-19T07:41:00.028Z</time></trkpt><trkpt lat="43.6435947" lon="12.6714436"><ele>345.0</ele><time>2026-04-19T07:41:01.03Z</time></trkpt><trkpt lat="43.6434455" lon="12.6714594"><ele>342.6666666666667</ele><time>2026-04-19T07:41:02.017Z</time></trkpt><trkpt lat="43.6432876" lon="12.6715088"><ele>340.33333333333337</ele><time>2026-04-19T07:41:03.018Z</time></trkpt><trkpt lat="43.64311" lon="12.6715782"><ele>338.0</ele><time>2026-04-19T07:41:04.021Z</time></trkpt><trkpt lat="43.6429217" lon="12.6716249"><ele>337.33333333333337</ele><time>2026-04-19T07:41:05.02Z</time></trkpt><trkpt lat="43.6427412" lon="12.671663"><ele>336.6666666666667</ele><time>2026-04-19T07:41:06.026Z</time></trkpt><trkpt lat="43.6425944" lon="12.6717354"><ele>336.0</ele><time>2026-04-19T07:41:07.026Z</time></trkpt><trkpt lat="43.6424821" lon="12.671893"><ele>333.0</ele><time>2026-04-19T07:41:08.023Z</time></trkpt><trkpt lat="43.6423612" lon="12.672099"><ele>330.0</ele><time>2026-04-19T07:41:09.029Z</time></trkpt><trkpt lat="43.6422487" lon="12.6723215"><ele>327.0</ele><time>2026-04-19T07:41:10.026Z</time></trkpt><trkpt lat="43.6421412" lon="12.6725362"><ele>327.0</ele><time>2026-04-19T07:41:11.029Z</time></trkpt><trkpt lat="43.6420378" lon="12.6727202"><ele>327.0</ele><time>2026-04-19T07:41:12.033Z</time></trkpt><trkpt lat="43.6419504" lon="12.6728712"><ele>327.0</ele><time>2026-04-19T07:41:13.038Z</time></trkpt><trkpt lat="43.641861" lon="12.6729852"><ele>327.0</ele><time>2026-04-19T07:41:14.037Z</time></trkpt><trkpt lat="43.641754" lon="12.6730454"><ele>326.25</ele><time>2026-04-19T07:41:15.051Z</time></trkpt><trkpt lat="43.6416429" lon="12.6730216"><ele>325.5</ele><time>2026-04-19T07:41:16.037Z</time></trkpt><trkpt lat="43.6415597" lon="12.6729073"><ele>324.75</ele><time>2026-04-19T07:41:17.043Z</time></trkpt><trkpt lat="43.6414964" lon="12.6727381"><ele>324.0</ele><time>2026-04-19T07:41:18.044Z</time></trkpt><trkpt lat="43.6414698" lon="12.6725253"><ele>324.0</ele><time>2026-04-19T07:41:19.038Z</time></trkpt><trkpt lat="43.6414726" lon="12.6722505"><ele>324.0</ele><time>2026-04-19T07:41:20.04Z</time></trkpt><trkpt lat="43.6414802" lon="12.6719365"><ele>324.0</ele><time>2026-04-19T07:41:21.038Z</time></trkpt><trkpt lat="43.6414657" lon="12.6716928"><ele>326.6666666666667</ele><time>2026-04-19T07:41:22.028Z</time></trkpt><trkpt lat="43.64144" lon="12.6714326"><ele>329.33333333333337</ele><time>2026-04-19T07:41:23.035Z</time></trkpt><trkpt lat="43.6413799" lon="12.6712271"><ele>332.0</ele><time>2026-04-19T07:41:24.032Z</time></trkpt><trkpt lat="43.6412523" lon="12.6710247"><ele>327.6666666666667</ele><time>2026-04-19T07:41:25.031Z</time></trkpt><trkpt lat="43.6411067" lon="12.6708477"><ele>323.3333333333333</ele><time>2026-04-19T07:41:26.03Z</time></trkpt><trkpt lat="43.6409478" lon="12.6707705"><ele>319.0</ele><time>2026-04-19T07:41:27.025Z</time></trkpt><trkpt lat="43.6407786" lon="12.6707659"><ele>319.0</ele><time>2026-04-19T07:41:28.029Z</time></trkpt><trkpt lat="43.6405998" lon="12.6708401"><ele>319.0</ele><time>2026-04-19T07:41:29.033Z</time></trkpt><trkpt lat="43.6404471" lon="12.6709504"><ele>319.0</ele><time>2026-04-19T07:41:30.03Z</time></trkpt><trkpt lat="43.640315" lon="12.6710767"><ele>314.75</ele><time>2026-04-19T07:41:31.037Z</time></trkpt><trkpt lat="43.6401833" lon="12.6711837"><ele>310.5</ele><time>2026-04-19T07:41:32.028Z</time></trkpt><trkpt lat="43.6400449" lon="12.6712607"><ele>306.25</ele><time>2026-04-19T07:41:33.036Z</time></trkpt><trkpt lat="43.6399057" lon="12.6712361"><ele>302.0</ele><time>2026-04-19T07:41:34.041Z</time></trkpt><trkpt lat="43.6397682" lon="12.6711267"><ele>303.6666666666667</ele><time>2026-04-19T07:41:35.038Z</time></trkpt><trkpt lat="43.6396388" lon="12.6709728"><ele>305.3333333333333</ele><time>2026-04-19T07:41:36.034Z</time></trkpt><trkpt lat="43.6395273" lon="12.6707979"><ele>307.0</ele><time>2026-04-19T07:41:37.032Z</time></trkpt><trkpt lat="43.6394197" lon="12.6706533"><ele>307.0</ele><time>2026-04-19T07:41:38.028Z</time></trkpt><trkpt lat="43.6393134" lon="12.6705425"><ele>307.0</ele><time>2026-04-19T07:41:39.034Z</time></trkpt><trkpt lat="43.6391947" lon="12.6705045"><ele>307.0</ele><time>2026-04-19T07:41:40.03Z</time></trkpt><trkpt lat="43.6390886" lon="12.6705279"><ele>307.0</ele><time>2026-04-19T07:41:41.035Z</time></trkpt><trkpt lat="43.6390047" lon="12.6705954"><ele>307.0</ele><time>2026-04-19T07:41:42.031Z</time></trkpt><trkpt lat="43.6389303" lon="12.6706869"><ele>307.0</ele><time>2026-04-19T07:41:43.025Z</time></trkpt><trkpt lat="43.6388748" lon="12.6708087"><ele>307.0</ele><time>2026-04-19T07:41:44.031Z</time></trkpt><trkpt lat="43.6388133" lon="12.6709788"><ele>307.0</ele><time>2026-04-19T07:41:45.029Z</time></trkpt><trkpt lat="43.638791" lon="12.6711679"><ele>304.25</ele><time>2026-04-19T07:41:46.034Z</time></trkpt><trkpt lat="43.6388045" lon="12.6713739"><ele>301.5</ele><time>2026-04-19T07:41:47.026Z</time></trkpt><trkpt lat="43.6388324" lon="12.6715767"><ele>298.75</ele><time>2026-04-19T07:41:48.027Z</time></trkpt><trkpt lat="43.6388492" lon="12.671762"><ele>296.0</ele><time>2026-04-19T07:41:49.023Z</time></trkpt><trkpt lat="43.6388353" lon="12.6719414"><ele>296.0</ele><time>2026-04-19T07:41:50.031Z</time></trkpt><trkpt lat="43.6387783" lon="12.6720856"><ele>296.0</ele><time>2026-04-19T07:41:51.031Z</time></trkpt><trkpt lat="43.6386785" lon="12.6721911"><ele>296.0</ele><time>2026-04-19T07:41:52.031Z</time></trkpt><trkpt lat="43.6385596" lon="12.67226"><ele>296.0</ele><time>2026-04-19T07:41:53.027Z</time></trkpt><trkpt lat="43.638433" lon="12.6722885"><ele>296.0</ele><time>2026-04-19T07:41:54.027Z</time></trkpt><trkpt lat="43.6383032" lon="12.6722798"><ele>296.0</ele><time>2026-04-19T07:41:55.027Z</time></trkpt><trkpt lat="43.6381602" lon="12.6722221"><ele>296.0</ele><time>2026-04-19T07:41:56.023Z</time></trkpt><trkpt lat="43.6380138" lon="12.6721751"><ele>296.0</ele><time>2026-04-19T07:41:57.026Z</time></trkpt><trkpt lat="43.6378689" lon="12.6721472"><ele>298.75</ele><time>2026-04-19T07:41:58.015Z</time></trkpt><trkpt lat="43.637728" lon="12.6721535"><ele>301.5</ele><time>2026-04-19T07:41:59.029Z</time></trkpt><trkpt lat="43.637596" lon="12.6722053"><ele>304.25</ele><time>2026-04-19T07:42:00.022Z</time></trkpt><trkpt lat="43.6374837" lon="12.6722918"><ele>307.0</ele><time>2026-04-19T07:42:01.026Z</time></trkpt><trkpt lat="43.6373959" lon="12.6724413"><ele>307.0</ele><time>2026-04-19T07:42:02.028Z</time></trkpt><trkpt lat="43.6373201" lon="12.6726287"><ele>307.0</ele><time>2026-04-19T07:42:03.024Z</time></trkpt><trkpt lat="43.6372461" lon="12.6728394"><ele>307.0</ele><time>2026-04-19T07:42:04.025Z</time></trkpt><trkpt lat="43.6371596" lon="12.6730638"><ele>305.3333333333333</ele><time>2026-04-19T07:42:05.024Z</time></trkpt><trkpt lat="43.6370639" lon="12.6732921"><ele>303.6666666666667</ele><time>2026-04-19T07:42:06.023Z</time></trkpt><trkpt lat="43.6369594" lon="12.6735369"><ele>302.0</ele><time>2026-04-19T07:42:07.02Z</time></trkpt><trkpt lat="43.6368472" lon="12.6738071"><ele>307.5</ele><time>2026-04-19T07:42:08.018Z</time></trkpt><trkpt lat="43.6367132" lon="12.6740841"><ele>313.0</ele><time>2026-04-19T07:42:09.024Z</time></trkpt><trkpt lat="43.6365961" lon="12.6743716"><ele>309.3333333333333</ele><time>2026-04-19T07:42:10.031Z</time></trkpt><trkpt lat="43.6364721" lon="12.6745814"><ele>305.6666666666667</ele><time>2026-04-19T07:42:11.025Z</time></trkpt><trkpt lat="43.6363392" lon="12.6747787"><ele>302.0</ele><time>2026-04-19T07:42:12.03Z</time></trkpt><trkpt lat="43.6361864" lon="12.6749393"><ele>301.6666666666667</ele><time>2026-04-19T07:42:13.025Z</time></trkpt><trkpt lat="43.6360062" lon="12.6750865"><ele>301.3333333333333</ele><time>2026-04-19T07:42:14.022Z</time></trkpt><trkpt lat="43.6358063" lon="12.6752395"><ele>301.0</ele><time>2026-04-19T07:42:15.022Z</time></trkpt><trkpt lat="43.6356023" lon="12.6753969"><ele>301.0</ele><time>2026-04-19T07:42:16.023Z</time></trkpt><trkpt lat="43.6354102" lon="12.6755273"><ele>301.0</ele><time>2026-04-19T07:42:17.032Z</time></trkpt><trkpt lat="43.6352375" lon="12.6756414"><ele>301.0</ele><time>2026-04-19T07:42:18.02Z</time></trkpt><trkpt lat="43.6350715" lon="12.6757492"><ele>299.66666666666663</ele><time>2026-04-19T07:42:19.018Z</time></trkpt><trkpt lat="43.6349259" lon="12.6758875"><ele>298.3333333333333</ele><time>2026-04-19T07:42:20.027Z</time></trkpt><trkpt lat="43.6348053" lon="12.676079"><ele>297.0</ele><time>2026-04-19T07:42:21.035Z</time></trkpt><trkpt lat="43.634711" lon="12.6763158"><ele>297.0</ele><time>2026-04-19T07:42:22.031Z</time></trkpt><trkpt lat="43.6346482" lon="12.6765491"><ele>297.0</ele><time>2026-04-19T07:42:23.027Z</time></trkpt><trkpt lat="43.6346005" lon="12.6767554"><ele>297.0</ele><time>2026-04-19T07:42:24.028Z</time></trkpt><trkpt lat="43.6345629" lon="12.6769268"><ele>296.4</ele><time>2026-04-19T07:42:25.028Z</time></trkpt><trkpt lat="43.6345039" lon="12.6770884"><ele>295.79999999999995</ele><time>2026-04-19T07:42:26.033Z</time></trkpt><trkpt lat="43.6344485" lon="12.677204"><ele>295.2</ele><time>2026-04-19T07:42:27.038Z</time></trkpt><trkpt lat="43.6343685" lon="12.6772907"><ele>294.59999999999997</ele><time>2026-04-19T07:42:28.032Z</time></trkpt><trkpt lat="43.6342719" lon="12.677336"><ele>294.0</ele><time>2026-04-19T07:42:29.041Z</time></trkpt><trkpt lat="43.6341764" lon="12.6772897"><ele>294.0</ele><time>2026-04-19T07:42:30.032Z</time></trkpt><trkpt lat="43.6340737" lon="12.6772068"><ele>294.0</ele><time>2026-04-19T07:42:31.033Z</time></trkpt><trkpt lat="43.6339852" lon="12.6770891"><ele>294.0</ele><time>2026-04-19T07:42:32.022Z</time></trkpt><trkpt lat="43.6338998" lon="12.6769612"><ele>294.0</ele><time>2026-04-19T07:42:33.023Z</time></trkpt><trkpt lat="43.633831" lon="12.6768414"><ele>296.0</ele><time>2026-04-19T07:42:34.022Z</time></trkpt><trkpt lat="43.6337846" lon="12.6767221"><ele>298.0</ele><time>2026-04-19T07:42:35.023Z</time></trkpt><trkpt lat="43.6337493" lon="12.6765956"><ele>300.0</ele><time>2026-04-19T07:42:36.025Z</time></trkpt><trkpt lat="43.6337226" lon="12.6764522"><ele>302.0</ele><time>2026-04-19T07:42:37.025Z</time></trkpt><trkpt lat="43.6337046" lon="12.6762987"><ele>304.0</ele><time>2026-04-19T07:42:38.033Z</time></trkpt><trkpt lat="43.6336909" lon="12.676139"><ele>306.2</ele><time>2026-04-19T07:42:39.027Z</time></trkpt><trkpt lat="43.6336812" lon="12.6759857"><ele>308.4</ele><time>2026-04-19T07:42:40.018Z</time></trkpt><trkpt lat="43.6336609" lon="12.6758437"><ele>310.6</ele><time>2026-04-19T07:42:41.03Z</time></trkpt><trkpt lat="43.6336326" lon="12.6757151"><ele>312.8</ele><time>2026-04-19T07:42:42.026Z</time></trkpt><trkpt lat="43.6335784" lon="12.6756099"><ele>315.0</ele><time>2026-04-19T07:42:43.03Z</time></trkpt><trkpt lat="43.6334954" lon="12.6755185"><ele>308.25</ele><time>2026-04-19T07:42:44.022Z</time></trkpt><trkpt lat="43.6333908" lon="12.6754455"><ele>301.5</ele><time>2026-04-19T07:42:45.03Z</time></trkpt><trkpt lat="43.6332538" lon="12.675392"><ele>294.75</ele><time>2026-04-19T07:42:46.017Z</time></trkpt><trkpt lat="43.633118" lon="12.6753365"><ele>288.0</ele><time>2026-04-19T07:42:47.015Z</time></trkpt><trkpt lat="43.6329775" lon="12.6752766"><ele>286.3333333333333</ele><time>2026-04-19T07:42:48.027Z</time></trkpt><trkpt lat="43.6328288" lon="12.6752322"><ele>284.66666666666663</ele><time>2026-04-19T07:42:49.019Z</time></trkpt><trkpt lat="43.6326345" lon="12.6752213"><ele>283.0</ele><time>2026-04-19T07:42:50.019Z</time></trkpt><trkpt lat="43.6324304" lon="12.675224"><ele>283.0</ele><time>2026-04-19T07:42:51.014Z</time></trkpt><trkpt lat="43.6322225" lon="12.6752444"><ele>283.0</ele><time>2026-04-19T07:42:52.022Z</time></trkpt><trkpt lat="43.6320273" lon="12.6752759"><ele>283.0</ele><time>2026-04-19T07:42:53.025Z</time></trkpt><trkpt lat="43.6318477" lon="12.6752562"><ele>280.66666666666663</ele><time>2026-04-19T07:42:54.035Z</time></trkpt><trkpt lat="43.6317085" lon="12.67522"><ele>278.3333333333333</ele><time>2026-04-19T07:42:55.032Z</time></trkpt><trkpt lat="43.6316265" lon="12.6751862"><ele>276.0</ele><time>2026-04-19T07:42:56.036Z</time></trkpt><trkpt lat="43.6315572" lon="12.6751341"><ele>273.6666666666667</ele><time>2026-04-19T07:42:57.026Z</time></trkpt><trkpt lat="43.6314922" lon="12.6751034"><ele>271.33333333333337</ele><time>2026-04-19T07:42:58.031Z</time></trkpt><trkpt lat="43.6314249" lon="12.6751235"><ele>269.0</ele><time>2026-04-19T07:42:59.039Z</time></trkpt><trkpt lat="43.6313389" lon="12.6752069"><ele>268.25</ele><time>2026-04-19T07:43:00.032Z</time></trkpt><trkpt lat="43.6312236" lon="12.6753015"><ele>267.5</ele><time>2026-04-19T07:43:01.024Z</time></trkpt><trkpt lat="43.6311006" lon="12.6754028"><ele>266.75</ele><time>2026-04-19T07:43:02.026Z</time></trkpt><trkpt lat="43.6309783" lon="12.6754997"><ele>266.0</ele><time>2026-04-19T07:43:03.026Z</time></trkpt><trkpt lat="43.6308619" lon="12.6755905"><ele>264.75</ele><time>2026-04-19T07:43:04.029Z</time></trkpt><trkpt lat="43.6307466" lon="12.6756515"><ele>263.5</ele><time>2026-04-19T07:43:05.033Z</time></trkpt><trkpt lat="43.6306187" lon="12.6756782"><ele>262.25</ele><time>2026-04-19T07:43:06.03Z</time></trkpt><trkpt lat="43.6304714" lon="12.6756465"><ele>261.0</ele><time>2026-04-19T07:43:07.031Z</time></trkpt><trkpt lat="43.6303296" lon="12.6755887"><ele>257.75</ele><time>2026-04-19T07:43:08.024Z</time></trkpt><trkpt lat="43.6302009" lon="12.6755156"><ele>254.5</ele><time>2026-04-19T07:43:09.029Z</time></trkpt><trkpt lat="43.6301251" lon="12.675401"><ele>251.25</ele><time>2026-04-19T07:43:10.037Z</time></trkpt><trkpt lat="43.6301146" lon="12.6752603"><ele>248.0</ele><time>2026-04-19T07:43:11.035Z</time></trkpt><trkpt lat="43.6301671" lon="12.6751322"><ele>248.0</ele><time>2026-04-19T07:43:12.03Z</time></trkpt><trkpt lat="43.6302694" lon="12.6749935"><ele>248.0</ele><time>2026-04-19T07:43:13.039Z</time></trkpt><trkpt lat="43.6304106" lon="12.6748833"><ele>248.0</ele><time>2026-04-19T07:43:14.026Z</time></trkpt><trkpt lat="43.6305505" lon="12.6747923"><ele>250.2</ele><time>2026-04-19T07:43:15.024Z</time></trkpt><trkpt lat="43.6306588" lon="12.6746891"><ele>252.4</ele><time>2026-04-19T07:43:16.031Z</time></trkpt><trkpt lat="43.6307251" lon="12.6745448"><ele>254.59999999999997</ele><time>2026-04-19T07:43:17.026Z</time></trkpt><trkpt lat="43.6307024" lon="12.6744164"><ele>256.8</ele><time>2026-04-19T07:43:18.022Z</time></trkpt><trkpt lat="43.6306245" lon="12.6743361"><ele>259.0</ele><time>2026-04-19T07:43:19.034Z</time></trkpt><trkpt lat="43.6305207" lon="12.6743064"><ele>259.0</ele><time>2026-04-19T07:43:20.022Z</time></trkpt><trkpt lat="43.6303978" lon="12.6743518"><ele>259.0</ele><time>2026-04-19T07:43:21.022Z</time></trkpt><trkpt lat="43.630277" lon="12.6744576"><ele>259.0</ele><time>2026-04-19T07:43:22.023Z</time></trkpt><trkpt lat="43.6301558" lon="12.674627"><ele>259.0</ele><time>2026-04-19T07:43:23.014Z</time></trkpt><trkpt lat="43.6300129" lon="12.6747755"><ele>256.25</ele><time>2026-04-19T07:43:24.029Z</time></trkpt><trkpt lat="43.6298693" lon="12.6747859"><ele>253.5</ele><time>2026-04-19T07:43:25.028Z</time></trkpt><trkpt lat="43.6297319" lon="12.6746993"><ele>250.75</ele><time>2026-04-19T07:43:26.029Z</time></trkpt><trkpt lat="43.6296407" lon="12.6745405"><ele>248.0</ele><time>2026-04-19T07:43:27.024Z</time></trkpt><trkpt lat="43.6296076" lon="12.6743539"><ele>247.0</ele><time>2026-04-19T07:43:28.025Z</time></trkpt><trkpt lat="43.6296032" lon="12.6741621"><ele>246.0</ele><time>2026-04-19T07:43:29.026Z</time></trkpt><trkpt lat="43.6295764" lon="12.6740022"><ele>245.0</ele><time>2026-04-19T07:43:30.028Z</time></trkpt><trkpt lat="43.6295258" lon="12.6738613"><ele>244.0</ele><time>2026-04-19T07:43:31.031Z</time></trkpt><trkpt lat="43.6294451" lon="12.6737566"><ele>241.25</ele><time>2026-04-19T07:43:32.025Z</time></trkpt><trkpt lat="43.6293365" lon="12.6737132"><ele>238.5</ele><time>2026-04-19T07:43:33.028Z</time></trkpt><trkpt lat="43.6292316" lon="12.6737426"><ele>235.75</ele><time>2026-04-19T07:43:34.015Z</time></trkpt><trkpt lat="43.6291432" lon="12.6738705"><ele>233.0</ele><time>2026-04-19T07:43:35.022Z</time></trkpt><trkpt lat="43.6290717" lon="12.6740686"><ele>233.0</ele><time>2026-04-19T07:43:36.017Z</time></trkpt><trkpt lat="43.6290187" lon="12.6742691"><ele>233.0</ele><time>2026-04-19T07:43:37.022Z</time></trkpt><trkpt lat="43.6289522" lon="12.6744372"><ele>233.0</ele><time>2026-04-19T07:43:38.019Z</time></trkpt><trkpt lat="43.6288727" lon="12.6745106"><ele>233.0</ele><time>2026-04-19T07:43:39.023Z</time></trkpt><trkpt lat="43.6287824" lon="12.6744959"><ele>233.0</ele><time>2026-04-19T07:43:40.021Z</time></trkpt><trkpt lat="43.6287093" lon="12.6744067"><ele>233.0</ele><time>2026-04-19T07:43:41.025Z</time></trkpt><trkpt lat="43.6286858" lon="12.6742529"><ele>233.0</ele><time>2026-04-19T07:43:42.024Z</time></trkpt><trkpt lat="43.6287151" lon="12.6740815"><ele>233.0</ele><time>2026-04-19T07:43:43.022Z</time></trkpt><trkpt lat="43.6287867" lon="12.6739377"><ele>233.0</ele><time>2026-04-19T07:43:44.027Z</time></trkpt><trkpt lat="43.6288989" lon="12.6738476"><ele>233.0</ele><time>2026-04-19T07:43:45.025Z</time></trkpt><trkpt lat="43.6289827" lon="12.6737574"><ele>233.0</ele><time>2026-04-19T07:43:46.022Z</time></trkpt><trkpt lat="43.6290149" lon="12.6736239"><ele>233.0</ele><time>2026-04-19T07:43:47.029Z</time></trkpt><trkpt lat="43.6290355" lon="12.6734769"><ele>233.0</ele><time>2026-04-19T07:43:48.029Z</time></trkpt><trkpt lat="43.6290115" lon="12.673343"><ele>232.75</ele><time>2026-04-19T07:43:49.024Z</time></trkpt><trkpt lat="43.6289395" lon="12.6732437"><ele>232.5</ele><time>2026-04-19T07:43:50.038Z</time></trkpt><trkpt lat="43.628837" lon="12.6731917"><ele>232.25</ele><time>2026-04-19T07:43:51.025Z</time></trkpt><trkpt lat="43.62871" lon="12.6731925"><ele>232.0</ele><time>2026-04-19T07:43:52.021Z</time></trkpt><trkpt lat="43.6285767" lon="12.6732551"><ele>230.0</ele><time>2026-04-19T07:43:53.022Z</time></trkpt><trkpt lat="43.6284405" lon="12.6733652"><ele>228.0</ele><time>2026-04-19T07:43:54.021Z</time></trkpt><trkpt lat="43.628307" lon="12.6735399"><ele>226.0</ele><time>2026-04-19T07:43:55.018Z</time></trkpt><trkpt lat="43.6281875" lon="12.673785"><ele>225.0</ele><time>2026-04-19T07:43:56.016Z</time></trkpt><trkpt lat="43.6280741" lon="12.674034"><ele>224.0</ele><time>2026-04-19T07:43:57.019Z</time></trkpt><trkpt lat="43.6279666" lon="12.6742646"><ele>223.0</ele><time>2026-04-19T07:43:58.023Z</time></trkpt><trkpt lat="43.627851" lon="12.67448"><ele>219.33333333333331</ele><time>2026-04-19T07:43:59.023Z</time></trkpt><trkpt lat="43.6277519" lon="12.6747028"><ele>215.66666666666669</ele><time>2026-04-19T07:44:00.023Z</time></trkpt><trkpt lat="43.6276758" lon="12.6749257"><ele>212.0</ele><time>2026-04-19T07:44:01.025Z</time></trkpt><trkpt lat="43.62762" lon="12.6751555"><ele>210.66666666666669</ele><time>2026-04-19T07:44:02.027Z</time></trkpt><trkpt lat="43.627575" lon="12.6753752"><ele>209.33333333333331</ele><time>2026-04-19T07:44:03.027Z</time></trkpt><trkpt lat="43.6275421" lon="12.6755891"><ele>208.0</ele><time>2026-04-19T07:44:04.038Z</time></trkpt><trkpt lat="43.6275122" lon="12.6758029"><ele>208.0</ele><time>2026-04-19T07:44:05.029Z</time></trkpt><trkpt lat="43.6274747" lon="12.676019"><ele>208.0</ele><time>2026-04-19T07:44:06.03Z</time></trkpt><trkpt lat="43.6274218" lon="12.6762363"><ele>208.0</ele><time>2026-04-19T07:44:07.03Z</time></trkpt><trkpt lat="43.6273653" lon="12.6764658"><ele>206.66666666666666</ele><time>2026-04-19T07:44:08.034Z</time></trkpt><trkpt lat="43.6272906" lon="12.6767079"><ele>205.33333333333331</ele><time>2026-04-19T07:44:09.041Z</time></trkpt><trkpt lat="43.6271801" lon="12.6769392"><ele>204.0</ele><time>2026-04-19T07:44:10.036Z</time></trkpt><trkpt lat="43.6270696" lon="12.67716"><ele>203.33333333333331</ele><time>2026-04-19T07:44:11.034Z</time></trkpt><trkpt lat="43.62695" lon="12.6773821"><ele>202.66666666666666</ele><time>2026-04-19T07:44:12.036Z</time></trkpt><trkpt lat="43.6268243" lon="12.6776075"><ele>202.0</ele><time>2026-04-19T07:44:13.035Z</time></trkpt><trkpt lat="43.6266986" lon="12.6778299"><ele>201.0</ele><time>2026-04-19T07:44:14.032Z</time></trkpt><trkpt lat="43.6265835" lon="12.6780488"><ele>200.0</ele><time>2026-04-19T07:44:15.032Z</time></trkpt><trkpt lat="43.6264727" lon="12.6782644"><ele>199.0</ele><time>2026-04-19T07:44:16.034Z</time></trkpt><trkpt lat="43.6263764" lon="12.6784743"><ele>199.0</ele><time>2026-04-19T07:44:17.031Z</time></trkpt><trkpt lat="43.6262762" lon="12.6786723"><ele>199.0</ele><time>2026-04-19T07:44:18.034Z</time></trkpt><trkpt lat="43.6261921" lon="12.6788535"><ele>199.0</ele><time>2026-04-19T07:44:19.028Z</time></trkpt><trkpt lat="43.6261054" lon="12.6790235"><ele>198.79999999999998</ele><time>2026-04-19T07:44:20.033Z</time></trkpt><trkpt lat="43.6260398" lon="12.679176"><ele>198.6</ele><time>2026-04-19T07:44:21.054Z</time></trkpt><trkpt lat="43.625985" lon="12.6792796"><ele>198.4</ele><time>2026-04-19T07:44:22.032Z</time></trkpt><trkpt lat="43.6259194" lon="12.6793906"><ele>198.2</ele><time>2026-04-19T07:44:23.03Z</time></trkpt><trkpt lat="43.6258735" lon="12.6794899"><ele>198.0</ele><time>2026-04-19T07:44:24.034Z</time></trkpt><trkpt lat="43.6258282" lon="12.6795976"><ele>197.83333333333334</ele><time>2026-04-19T07:44:25.027Z</time></trkpt><trkpt lat="43.6257807" lon="12.6796887"><ele>197.66666666666669</ele><time>2026-04-19T07:44:26.032Z</time></trkpt><trkpt lat="43.6257307" lon="12.6797675"><ele>197.5</ele><time>2026-04-19T07:44:27.033Z</time></trkpt><trkpt lat="43.6256833" lon="12.6798452"><ele>197.33333333333334</ele><time>2026-04-19T07:44:30.034Z</time></trkpt><trkpt lat="43.6256279" lon="12.6799022"><ele>197.16666666666669</ele><time>2026-04-19T07:44:40.032Z</time></trkpt><trkpt lat="43.625593" lon="12.6799844"><ele>197.0</ele><time>2026-04-19T07:44:42.029Z</time></trkpt><trkpt lat="43.625598" lon="12.6800966"><ele>197.0</ele><time>2026-04-19T07:44:44.033Z</time></trkpt><trkpt lat="43.625649" lon="12.6801674"><ele>197.0</ele><time>2026-04-19T07:44:45.194Z</time></trkpt><trkpt lat="43.6258284" lon="12.6802893"><ele>197.0</ele><time>2026-04-19T07:44:47.002Z</time></trkpt><trkpt lat="43.6259399" lon="12.6803653"><ele>197.0</ele><time>2026-04-19T07:44:48.003Z</time></trkpt><trkpt lat="43.6260524" lon="12.6804533"><ele>196.5</ele><time>2026-04-19T07:44:49.009Z</time></trkpt><trkpt lat="43.6261709" lon="12.6805446"><ele>196.0</ele><time>2026-04-19T07:44:50.008Z</time></trkpt><trkpt lat="43.6263016" lon="12.6806466"><ele>195.5</ele><time>2026-04-19T07:44:51.011Z</time></trkpt><trkpt lat="43.6264355" lon="12.6807498"><ele>195.0</ele><time>2026-04-19T07:44:52.016Z</time></trkpt><trkpt lat="43.6265559" lon="12.6808422"><ele>195.0</ele><time>2026-04-19T07:44:53.009Z</time></trkpt><trkpt lat="43.6266626" lon="12.6809281"><ele>195.0</ele><time>2026-04-19T07:44:54.01Z</time></trkpt><trkpt lat="43.6267517" lon="12.6810105"><ele>195.0</ele><time>2026-04-19T07:44:54.988Z</time></trkpt><trkpt lat="43.6268468" lon="12.6810774"><ele>195.0</ele><time>2026-04-19T07:44:56.006Z</time></trkpt><trkpt lat="43.6269224" lon="12.6811415"><ele>195.0</ele><time>2026-04-19T07:44:57.006Z</time></trkpt><trkpt lat="43.6269748" lon="12.6812218"><ele>195.0</ele><time>2026-04-19T07:44:58.009Z</time></trkpt><trkpt lat="43.627011" lon="12.6813356"><ele>195.0</ele><time>2026-04-19T07:44:59.008Z</time></trkpt><trkpt lat="43.6270242" lon="12.6814492"><ele>195.0</ele><time>2026-04-19T07:45:00.01Z</time></trkpt><trkpt lat="43.6270032" lon="12.6815649"><ele>195.0</ele><time>2026-04-19T07:45:01.009Z</time></trkpt><trkpt lat="43.6269587" lon="12.6816605"><ele>195.0</ele><time>2026-04-19T07:45:02.009Z</time></trkpt><trkpt lat="43.6268856" lon="12.6817038"><ele>195.0</ele><time>2026-04-19T07:45:03.012Z</time></trkpt><trkpt lat="43.6267834" lon="12.6816748"><ele>194.75</ele><time>2026-04-19T07:45:04.005Z</time></trkpt><trkpt lat="43.6266818" lon="12.6815879"><ele>194.5</ele><time>2026-04-19T07:45:05.013Z</time></trkpt><trkpt lat="43.6265764" lon="12.6814658"><ele>194.25</ele><time>2026-04-19T07:45:06.003Z</time></trkpt><trkpt lat="43.6264567" lon="12.6813492"><ele>194.0</ele><time>2026-04-19T07:45:07.006Z</time></trkpt><trkpt lat="43.6263329" lon="12.6812292"><ele>194.0</ele><time>2026-04-19T07:45:08Z</time></trkpt><trkpt lat="43.6261992" lon="12.6811072"><ele>194.0</ele><time>2026-04-19T07:45:09.002Z</time></trkpt><trkpt lat="43.6260399" lon="12.6809547"><ele>194.0</ele><time>2026-04-19T07:45:09.99Z</time></trkpt><trkpt lat="43.6258733" lon="12.6808186"><ele>193.33333333333334</ele><time>2026-04-19T07:45:11.004Z</time></trkpt><trkpt lat="43.6257044" lon="12.6806674"><ele>192.66666666666669</ele><time>2026-04-19T07:45:12.005Z</time></trkpt><trkpt lat="43.6255311" lon="12.6804881"><ele>192.0</ele><time>2026-04-19T07:45:13.002Z</time></trkpt><trkpt lat="43.6253411" lon="12.680298"><ele>192.5</ele><time>2026-04-19T07:45:14.006Z</time></trkpt><trkpt lat="43.6251485" lon="12.6801173"><ele>193.0</ele><time>2026-04-19T07:45:15.006Z</time></trkpt><trkpt lat="43.624948" lon="12.6799439"><ele>193.0</ele><time>2026-04-19T07:45:16.008Z</time></trkpt><trkpt lat="43.6247735" lon="12.6797704"><ele>193.0</ele><time>2026-04-19T07:45:17.007Z</time></trkpt><trkpt lat="43.624613" lon="12.6796104"><ele>193.0</ele><time>2026-04-19T07:45:18.005Z</time></trkpt><trkpt lat="43.6244651" lon="12.6794624"><ele>193.0</ele><time>2026-04-19T07:45:19.006Z</time></trkpt><trkpt lat="43.6243077" lon="12.6793206"><ele>193.0</ele><time>2026-04-19T07:45:20.005Z</time></trkpt><trkpt lat="43.6241487" lon="12.6791929"><ele>193.0</ele><time>2026-04-19T07:45:21.009Z</time></trkpt><trkpt lat="43.6239885" lon="12.6790582"><ele>193.0</ele><time>2026-04-19T07:45:22.008Z</time></trkpt><trkpt lat="43.6238234" lon="12.6789242"><ele>193.0</ele><time>2026-04-19T07:45:23.02Z</time></trkpt><trkpt lat="43.6236527" lon="12.6787834"><ele>193.0</ele><time>2026-04-19T07:45:24.007Z</time></trkpt><trkpt lat="43.6234775" lon="12.6786466"><ele>192.33333333333331</ele><time>2026-04-19T07:45:25.014Z</time></trkpt><trkpt lat="43.6232964" lon="12.6785142"><ele>191.66666666666666</ele><time>2026-04-19T07:45:26.008Z</time></trkpt><trkpt lat="43.6231156" lon="12.6783928"><ele>191.0</ele><time>2026-04-19T07:45:27.009Z</time></trkpt><trkpt lat="43.622947" lon="12.6782797"><ele>191.66666666666666</ele><time>2026-04-19T07:45:28.004Z</time></trkpt><trkpt lat="43.622788" lon="12.6781613"><ele>192.33333333333331</ele><time>2026-04-19T07:45:29.003Z</time></trkpt><trkpt lat="43.6226416" lon="12.6780517"><ele>193.0</ele><time>2026-04-19T07:45:30.007Z</time></trkpt><trkpt lat="43.6225021" lon="12.6779586"><ele>193.0</ele><time>2026-04-19T07:45:31.006Z</time></trkpt><trkpt lat="43.6223667" lon="12.6778637"><ele>193.0</ele><time>2026-04-19T07:45:32.01Z</time></trkpt><trkpt lat="43.6222327" lon="12.6777877"><ele>193.0</ele><time>2026-04-19T07:45:33.009Z</time></trkpt><trkpt lat="43.6220864" lon="12.6776994"><ele>193.33333333333331</ele><time>2026-04-19T07:45:34.013Z</time></trkpt><trkpt lat="43.6219404" lon="12.6776026"><ele>193.66666666666669</ele><time>2026-04-19T07:45:35.009Z</time></trkpt><trkpt lat="43.621785" lon="12.677516"><ele>194.0</ele><time>2026-04-19T07:45:36.014Z</time></trkpt><trkpt lat="43.6216187" lon="12.6774191"><ele>194.0</ele><time>2026-04-19T07:45:37.015Z</time></trkpt><trkpt lat="43.6214524" lon="12.6773295"><ele>194.0</ele><time>2026-04-19T07:45:38.015Z</time></trkpt><trkpt lat="43.621283" lon="12.6772412"><ele>194.0</ele><time>2026-04-19T07:45:39.012Z</time></trkpt><trkpt lat="43.6211277" lon="12.6771602"><ele>194.0</ele><time>2026-04-19T07:45:40.015Z</time></trkpt><trkpt lat="43.6209751" lon="12.6770804"><ele>194.0</ele><time>2026-04-19T07:45:41.01Z</time></trkpt><trkpt lat="43.6208159" lon="12.6769966"><ele>194.0</ele><time>2026-04-19T07:45:42.012Z</time></trkpt><trkpt lat="43.620643" lon="12.676916"><ele>194.0</ele><time>2026-04-19T07:45:43.011Z</time></trkpt><trkpt lat="43.620469" lon="12.6768295"><ele>194.0</ele><time>2026-04-19T07:45:44.011Z</time></trkpt><trkpt lat="43.6202917" lon="12.6767412"><ele>194.0</ele><time>2026-04-19T07:45:45.012Z</time></trkpt><trkpt lat="43.6201005" lon="12.6766594"><ele>194.0</ele><time>2026-04-19T07:45:46.009Z</time></trkpt><trkpt lat="43.6199029" lon="12.6765729"><ele>194.0</ele><time>2026-04-19T07:45:47.014Z</time></trkpt><trkpt lat="43.6196987" lon="12.6764948"><ele>194.0</ele><time>2026-04-19T07:45:48.011Z</time></trkpt><trkpt lat="43.6194846" lon="12.6764133"><ele>195.0</ele><time>2026-04-19T07:45:49.008Z</time></trkpt><trkpt lat="43.6192675" lon="12.6763496"><ele>196.0</ele><time>2026-04-19T07:45:50.008Z</time></trkpt><trkpt lat="43.6190479" lon="12.6762624"><ele>196.0</ele><time>2026-04-19T07:45:51.01Z</time></trkpt><trkpt lat="43.6188197" lon="12.6761904"><ele>196.0</ele><time>2026-04-19T07:45:52.008Z</time></trkpt><trkpt lat="43.6185853" lon="12.6761137"><ele>197.0</ele><time>2026-04-19T07:45:53.003Z</time></trkpt><trkpt lat="43.6183577" lon="12.6760475"><ele>198.0</ele><time>2026-04-19T07:45:54.026Z</time></trkpt><trkpt lat="43.6181219" lon="12.6759797"><ele>198.0</ele><time>2026-04-19T07:45:55.007Z</time></trkpt><trkpt lat="43.6178918" lon="12.675907"><ele>198.0</ele><time>2026-04-19T07:45:56.009Z</time></trkpt><trkpt lat="43.6176651" lon="12.6758423"><ele>197.5</ele><time>2026-04-19T07:45:57.007Z</time></trkpt><trkpt lat="43.6174396" lon="12.6757697"><ele>197.0</ele><time>2026-04-19T07:45:58.008Z</time></trkpt><trkpt lat="43.6172158" lon="12.6757119"><ele>197.0</ele><time>2026-04-19T07:45:59.011Z</time></trkpt><trkpt lat="43.6170005" lon="12.6756559"><ele>197.0</ele><time>2026-04-19T07:46:00.011Z</time></trkpt><trkpt lat="43.6167859" lon="12.6755917"><ele>197.0</ele><time>2026-04-19T07:46:01.007Z</time></trkpt><trkpt lat="43.616574" lon="12.6755262"><ele>196.0</ele><time>2026-04-19T07:46:02Z</time></trkpt><trkpt lat="43.6163498" lon="12.6754708"><ele>195.0</ele><time>2026-04-19T07:46:03.012Z</time></trkpt><trkpt lat="43.6161418" lon="12.6754331"><ele>194.0</ele><time>2026-04-19T07:46:04.015Z</time></trkpt><trkpt lat="43.6159382" lon="12.6754038"><ele>194.0</ele><time>2026-04-19T07:46:05.013Z</time></trkpt><trkpt lat="43.6157236" lon="12.6753671"><ele>194.0</ele><time>2026-04-19T07:46:06.015Z</time></trkpt><trkpt lat="43.615509" lon="12.6753444"><ele>194.0</ele><time>2026-04-19T07:46:07.007Z</time></trkpt><trkpt lat="43.6152939" lon="12.675325"><ele>195.0</ele><time>2026-04-19T07:46:08.016Z</time></trkpt><trkpt lat="43.6150845" lon="12.6753005"><ele>196.0</ele><time>2026-04-19T07:46:09.012Z</time></trkpt><trkpt lat="43.6148585" lon="12.6752836"><ele>197.0</ele><time>2026-04-19T07:46:10.016Z</time></trkpt><trkpt lat="43.6146314" lon="12.6752647"><ele>201.0</ele><time>2026-04-19T07:46:11.013Z</time></trkpt><trkpt lat="43.6144046" lon="12.67526"><ele>205.0</ele><time>2026-04-19T07:46:12.011Z</time></trkpt><trkpt lat="43.6141652" lon="12.6752433"><ele>205.0</ele><time>2026-04-19T07:46:13.01Z</time></trkpt><trkpt lat="43.6139308" lon="12.6752593"><ele>205.0</ele><time>2026-04-19T07:46:14.013Z</time></trkpt><trkpt lat="43.6136968" lon="12.675271"><ele>205.0</ele><time>2026-04-19T07:46:15.013Z</time></trkpt><trkpt lat="43.6134576" lon="12.6752823"><ele>205.0</ele><time>2026-04-19T07:46:16.005Z</time></trkpt><trkpt lat="43.6132121" lon="12.6753055"><ele>205.0</ele><time>2026-04-19T07:46:17.013Z</time></trkpt><trkpt lat="43.6129592" lon="12.6753312"><ele>205.0</ele><time>2026-04-19T07:46:18.008Z</time></trkpt><trkpt lat="43.6127124" lon="12.6753522"><ele>203.0</ele><time>2026-04-19T07:46:19.009Z</time></trkpt><trkpt lat="43.6124867" lon="12.6753624"><ele>201.0</ele><time>2026-04-19T07:46:20.005Z</time></trkpt><trkpt lat="43.6122604" lon="12.6753684"><ele>201.0</ele><time>2026-04-19T07:46:20.994Z</time></trkpt><trkpt lat="43.6120346" lon="12.6753844"><ele>201.0</ele><time>2026-04-19T07:46:22.014Z</time></trkpt><trkpt lat="43.6118103" lon="12.675396"><ele>201.0</ele><time>2026-04-19T07:46:23.006Z</time></trkpt><trkpt lat="43.6115818" lon="12.6754112"><ele>201.0</ele><time>2026-04-19T07:46:24.014Z</time></trkpt><trkpt lat="43.6113555" lon="12.6754252"><ele>201.66666666666669</ele><time>2026-04-19T07:46:25.021Z</time></trkpt><trkpt lat="43.6111378" lon="12.6754369"><ele>202.33333333333334</ele><time>2026-04-19T07:46:26.012Z</time></trkpt><trkpt lat="43.6109236" lon="12.6754469"><ele>203.0</ele><time>2026-04-19T07:46:27.01Z</time></trkpt><trkpt lat="43.6107162" lon="12.6754558"><ele>203.0</ele><time>2026-04-19T07:46:28.01Z</time></trkpt><trkpt lat="43.6105116" lon="12.6754741"><ele>203.0</ele><time>2026-04-19T07:46:29.012Z</time></trkpt><trkpt lat="43.6103065" lon="12.6754914"><ele>203.0</ele><time>2026-04-19T07:46:30.008Z</time></trkpt><trkpt lat="43.6101049" lon="12.6754975"><ele>203.33333333333334</ele><time>2026-04-19T07:46:31.009Z</time></trkpt><trkpt lat="43.6099086" lon="12.6755115"><ele>203.66666666666669</ele><time>2026-04-19T07:46:32.004Z</time></trkpt><trkpt lat="43.6097159" lon="12.6755223"><ele>204.0</ele><time>2026-04-19T07:46:33.005Z</time></trkpt><trkpt lat="43.6095258" lon="12.6755331"><ele>204.0</ele><time>2026-04-19T07:46:34.001Z</time></trkpt><trkpt lat="43.6093385" lon="12.6755462"><ele>204.0</ele><time>2026-04-19T07:46:35.003Z</time></trkpt><trkpt lat="43.6091386" lon="12.6755641"><ele>204.0</ele><time>2026-04-19T07:46:36.005Z</time></trkpt><trkpt lat="43.6089485" lon="12.6755925"><ele>204.0</ele><time>2026-04-19T07:46:37.003Z</time></trkpt><trkpt lat="43.6087579" lon="12.675616"><ele>204.0</ele><time>2026-04-19T07:46:38.001Z</time></trkpt><trkpt lat="43.6085493" lon="12.6756141"><ele>204.0</ele><time>2026-04-19T07:46:39.003Z</time></trkpt><trkpt lat="43.6083429" lon="12.6756221"><ele>203.66666666666669</ele><time>2026-04-19T07:46:40.006Z</time></trkpt><trkpt lat="43.6081371" lon="12.6756286"><ele>203.33333333333334</ele><time>2026-04-19T07:46:40.997Z</time></trkpt><trkpt lat="43.6079375" lon="12.6756431"><ele>203.0</ele><time>2026-04-19T07:46:42.006Z</time></trkpt><trkpt lat="43.6077337" lon="12.6756596"><ele>204.0</ele><time>2026-04-19T07:46:43.005Z</time></trkpt><trkpt lat="43.6075341" lon="12.6756708"><ele>205.0</ele><time>2026-04-19T07:46:44.005Z</time></trkpt><trkpt lat="43.6073425" lon="12.6756795"><ele>206.0</ele><time>2026-04-19T07:46:45.001Z</time></trkpt><trkpt lat="43.6071444" lon="12.675679"><ele>205.33333333333334</ele><time>2026-04-19T07:46:46.002Z</time></trkpt><trkpt lat="43.6069579" lon="12.6756921"><ele>204.66666666666669</ele><time>2026-04-19T07:46:47.006Z</time></trkpt><trkpt lat="43.6067774" lon="12.6757059"><ele>204.0</ele><time>2026-04-19T07:46:48.005Z</time></trkpt><trkpt lat="43.606594" lon="12.6757156"><ele>204.0</ele><time>2026-04-19T07:46:49.006Z</time></trkpt><trkpt lat="43.6064083" lon="12.675718"><ele>204.0</ele><time>2026-04-19T07:46:50.004Z</time></trkpt><trkpt lat="43.6062209" lon="12.6757233"><ele>204.0</ele><time>2026-04-19T07:46:51.006Z</time></trkpt><trkpt lat="43.6060286" lon="12.6757447"><ele>205.0</ele><time>2026-04-19T07:46:52Z</time></trkpt><trkpt lat="43.6058291" lon="12.6757601"><ele>206.0</ele><time>2026-04-19T07:46:52.998Z</time></trkpt><trkpt lat="43.6056308" lon="12.6757824"><ele>207.0</ele><time>2026-04-19T07:46:54.002Z</time></trkpt><trkpt lat="43.6054247" lon="12.6758004"><ele>207.0</ele><time>2026-04-19T07:46:54.997Z</time></trkpt><trkpt lat="43.6052264" lon="12.6758185"><ele>207.0</ele><time>2026-04-19T07:46:56.017Z</time></trkpt><trkpt lat="43.6050402" lon="12.6758274"><ele>207.0</ele><time>2026-04-19T07:46:56.999Z</time></trkpt><trkpt lat="43.6048562" lon="12.6758323"><ele>207.0</ele><time>2026-04-19T07:46:57.998Z</time></trkpt><trkpt lat="43.6046747" lon="12.6758431"><ele>207.0</ele><time>2026-04-19T07:46:59Z</time></trkpt><trkpt lat="43.6045056" lon="12.6758498"><ele>207.0</ele><time>2026-04-19T07:46:59.997Z</time></trkpt><trkpt lat="43.604362" lon="12.6758564"><ele>208.0</ele><time>2026-04-19T07:47:00.993Z</time></trkpt><trkpt lat="43.6042256" lon="12.6758664"><ele>209.0</ele><time>2026-04-19T07:47:01.997Z</time></trkpt><trkpt lat="43.6040993" lon="12.6758772"><ele>210.0</ele><time>2026-04-19T07:47:03Z</time></trkpt><trkpt lat="43.6039731" lon="12.6758816"><ele>211.0</ele><time>2026-04-19T07:47:03.996Z</time></trkpt><trkpt lat="43.6038315" lon="12.6758884"><ele>211.0</ele><time>2026-04-19T07:47:05.001Z</time></trkpt><trkpt lat="43.6036835" lon="12.6758976"><ele>211.0</ele><time>2026-04-19T07:47:05.998Z</time></trkpt><trkpt lat="43.6035291" lon="12.6759156"><ele>211.0</ele><time>2026-04-19T07:47:06.999Z</time></trkpt><trkpt lat="43.6033776" lon="12.6759427"><ele>211.0</ele><time>2026-04-19T07:47:08.001Z</time></trkpt><trkpt lat="43.603226" lon="12.6759572"><ele>211.0</ele><time>2026-04-19T07:47:09Z</time></trkpt><trkpt lat="43.6030595" lon="12.6759702"><ele>211.0</ele><time>2026-04-19T07:47:10.001Z</time></trkpt><trkpt lat="43.6028959" lon="12.6759754"><ele>210.66666666666666</ele><time>2026-04-19T07:47:10.998Z</time></trkpt><trkpt lat="43.6027394" lon="12.6759775"><ele>210.33333333333331</ele><time>2026-04-19T07:47:12.007Z</time></trkpt><trkpt lat="43.6025814" lon="12.6759821"><ele>210.0</ele><time>2026-04-19T07:47:12.999Z</time></trkpt><trkpt lat="43.6024153" lon="12.6759864"><ele>210.0</ele><time>2026-04-19T07:47:13.997Z</time></trkpt><trkpt lat="43.6022501" lon="12.6759912"><ele>210.0</ele><time>2026-04-19T07:47:15.003Z</time></trkpt><trkpt lat="43.6020781" lon="12.6759944"><ele>210.0</ele><time>2026-04-19T07:47:16Z</time></trkpt><trkpt lat="43.601899" lon="12.6760014"><ele>210.66666666666669</ele><time>2026-04-19T07:47:17.006Z</time></trkpt><trkpt lat="43.6017112" lon="12.6759979"><ele>211.33333333333334</ele><time>2026-04-19T07:47:18.003Z</time></trkpt><trkpt lat="43.601534" lon="12.6760029"><ele>212.0</ele><time>2026-04-19T07:47:18.999Z</time></trkpt><trkpt lat="43.6013556" lon="12.6760173"><ele>212.0</ele><time>2026-04-19T07:47:19.998Z</time></trkpt><trkpt lat="43.6011688" lon="12.6760196"><ele>212.0</ele><time>2026-04-19T07:47:21Z</time></trkpt><trkpt lat="43.6009871" lon="12.6760308"><ele>212.0</ele><time>2026-04-19T07:47:21.999Z</time></trkpt><trkpt lat="43.6008009" lon="12.6760344"><ele>212.66666666666669</ele><time>2026-04-19T07:47:22.999Z</time></trkpt><trkpt lat="43.6006113" lon="12.6760352"><ele>213.33333333333331</ele><time>2026-04-19T07:47:24.003Z</time></trkpt><trkpt lat="43.6004233" lon="12.6760361"><ele>214.0</ele><time>2026-04-19T07:47:25.007Z</time></trkpt><trkpt lat="43.6002282" lon="12.6760353"><ele>214.33333333333331</ele><time>2026-04-19T07:47:26.008Z</time></trkpt><trkpt lat="43.6000317" lon="12.6760361"><ele>214.66666666666669</ele><time>2026-04-19T07:47:27.015Z</time></trkpt><trkpt lat="43.5998419" lon="12.6760428"><ele>215.0</ele><time>2026-04-19T07:47:28.01Z</time></trkpt><trkpt lat="43.5996556" lon="12.6760465"><ele>215.0</ele><time>2026-04-19T07:47:29.014Z</time></trkpt><trkpt lat="43.5994706" lon="12.6760554"><ele>215.0</ele><time>2026-04-19T07:47:30.008Z</time></trkpt><trkpt lat="43.5992843" lon="12.6760504"><ele>215.0</ele><time>2026-04-19T07:47:31.007Z</time></trkpt><trkpt lat="43.5990963" lon="12.6760603"><ele>215.0</ele><time>2026-04-19T07:47:32.009Z</time></trkpt><trkpt lat="43.5989112" lon="12.676053"><ele>215.0</ele><time>2026-04-19T07:47:33.008Z</time></trkpt><trkpt lat="43.5987317" lon="12.6760471"><ele>215.0</ele><time>2026-04-19T07:47:34.014Z</time></trkpt><trkpt lat="43.5985701" lon="12.6760571"><ele>215.66666666666669</ele><time>2026-04-19T07:47:35.009Z</time></trkpt><trkpt lat="43.5984151" lon="12.6760555"><ele>216.33333333333331</ele><time>2026-04-19T07:47:36.007Z</time></trkpt><trkpt lat="43.5982656" lon="12.6760618"><ele>217.0</ele><time>2026-04-19T07:47:37.008Z</time></trkpt><trkpt lat="43.5981175" lon="12.6760642"><ele>217.0</ele><time>2026-04-19T07:47:38.007Z</time></trkpt><trkpt lat="43.5979676" lon="12.6760735"><ele>217.0</ele><time>2026-04-19T07:47:39.01Z</time></trkpt><trkpt lat="43.5978276" lon="12.6760756"><ele>217.0</ele><time>2026-04-19T07:47:40.01Z</time></trkpt><trkpt lat="43.5976917" lon="12.6760844"><ele>217.0</ele><time>2026-04-19T07:47:41.011Z</time></trkpt><trkpt lat="43.5975536" lon="12.6760834"><ele>217.5</ele><time>2026-04-19T07:47:42.01Z</time></trkpt><trkpt lat="43.5974163" lon="12.6760804"><ele>218.0</ele><time>2026-04-19T07:47:43.009Z</time></trkpt><trkpt lat="43.5972796" lon="12.6760734"><ele>218.5</ele><time>2026-04-19T07:47:44.008Z</time></trkpt><trkpt lat="43.5971426" lon="12.6760754"><ele>219.0</ele><time>2026-04-19T07:47:45.012Z</time></trkpt><trkpt lat="43.5970039" lon="12.6760819"><ele>219.66666666666669</ele><time>2026-04-19T07:47:46.009Z</time></trkpt><trkpt lat="43.5968607" lon="12.6760881"><ele>220.33333333333334</ele><time>2026-04-19T07:47:47.017Z</time></trkpt><trkpt lat="43.5967053" lon="12.676094"><ele>221.0</ele><time>2026-04-19T07:47:48.011Z</time></trkpt><trkpt lat="43.5965487" lon="12.6760952"><ele>220.66666666666669</ele><time>2026-04-19T07:47:49.009Z</time></trkpt><trkpt lat="43.596383" lon="12.6761051"><ele>220.33333333333331</ele><time>2026-04-19T07:47:50.011Z</time></trkpt><trkpt lat="43.5962144" lon="12.6761088"><ele>220.0</ele><time>2026-04-19T07:47:51.01Z</time></trkpt><trkpt lat="43.596039" lon="12.6761191"><ele>220.0</ele><time>2026-04-19T07:47:52.01Z</time></trkpt><trkpt lat="43.5958655" lon="12.6761303"><ele>220.0</ele><time>2026-04-19T07:47:53.008Z</time></trkpt><trkpt lat="43.5956917" lon="12.6761235"><ele>220.0</ele><time>2026-04-19T07:47:54.01Z</time></trkpt><trkpt lat="43.5955294" lon="12.6761299"><ele>220.0</ele><time>2026-04-19T07:47:55.004Z</time></trkpt><trkpt lat="43.5953652" lon="12.6761326"><ele>220.0</ele><time>2026-04-19T07:47:56.001Z</time></trkpt><trkpt lat="43.5952031" lon="12.6761373"><ele>220.0</ele><time>2026-04-19T07:47:57.004Z</time></trkpt><trkpt lat="43.595045" lon="12.6761514"><ele>220.25</ele><time>2026-04-19T07:47:58.015Z</time></trkpt><trkpt lat="43.5948926" lon="12.6761598"><ele>220.5</ele><time>2026-04-19T07:47:59.004Z</time></trkpt><trkpt lat="43.5947465" lon="12.6761529"><ele>220.75</ele><time>2026-04-19T07:48:00.01Z</time></trkpt><trkpt lat="43.5946013" lon="12.6761432"><ele>221.0</ele><time>2026-04-19T07:48:01.007Z</time></trkpt><trkpt lat="43.594456" lon="12.6761583"><ele>220.5</ele><time>2026-04-19T07:48:02.001Z</time></trkpt><trkpt lat="43.5943088" lon="12.6761464"><ele>220.0</ele><time>2026-04-19T07:48:03.004Z</time></trkpt><trkpt lat="43.5941645" lon="12.6761297"><ele>219.5</ele><time>2026-04-19T07:48:04.004Z</time></trkpt><trkpt lat="43.5940292" lon="12.6761327"><ele>219.0</ele><time>2026-04-19T07:48:05.003Z</time></trkpt><trkpt lat="43.5938871" lon="12.6761359"><ele>219.0</ele><time>2026-04-19T07:48:06.004Z</time></trkpt><trkpt lat="43.5937347" lon="12.6761396"><ele>219.0</ele><time>2026-04-19T07:48:07.006Z</time></trkpt><trkpt lat="43.5935815" lon="12.6761486"><ele>219.0</ele><time>2026-04-19T07:48:08.004Z</time></trkpt><trkpt lat="43.5934421" lon="12.6761518"><ele>219.0</ele><time>2026-04-19T07:48:09.004Z</time></trkpt><trkpt lat="43.5933021" lon="12.6761542"><ele>218.5</ele><time>2026-04-19T07:48:10.006Z</time></trkpt><trkpt lat="43.5931635" lon="12.6761545"><ele>218.0</ele><time>2026-04-19T07:48:11.006Z</time></trkpt><trkpt lat="43.593027" lon="12.6761479"><ele>217.5</ele><time>2026-04-19T07:48:12.01Z</time></trkpt><trkpt lat="43.5928824" lon="12.6761412"><ele>217.0</ele><time>2026-04-19T07:48:13.006Z</time></trkpt><trkpt lat="43.5927437" lon="12.6761324"><ele>217.0</ele><time>2026-04-19T07:48:14.002Z</time></trkpt><trkpt lat="43.5926168" lon="12.6761048"><ele>217.0</ele><time>2026-04-19T07:48:15.005Z</time></trkpt><trkpt lat="43.5925055" lon="12.6760896"><ele>217.0</ele><time>2026-04-19T07:48:16.003Z</time></trkpt><trkpt lat="43.5923936" lon="12.6760687"><ele>217.0</ele><time>2026-04-19T07:48:16.998Z</time></trkpt><trkpt lat="43.5922818" lon="12.6760297"><ele>218.0</ele><time>2026-04-19T07:48:17.998Z</time></trkpt><trkpt lat="43.5921613" lon="12.6759864"><ele>219.0</ele><time>2026-04-19T07:48:19.002Z</time></trkpt><trkpt lat="43.5920331" lon="12.6759387"><ele>220.0</ele><time>2026-04-19T07:48:19.998Z</time></trkpt><trkpt lat="43.5919018" lon="12.6759124"><ele>221.0</ele><time>2026-04-19T07:48:21.005Z</time></trkpt><trkpt lat="43.5917751" lon="12.6758418"><ele>221.5</ele><time>2026-04-19T07:48:22.002Z</time></trkpt><trkpt lat="43.5916354" lon="12.6757865"><ele>222.0</ele><time>2026-04-19T07:48:23.001Z</time></trkpt><trkpt lat="43.5914914" lon="12.6757404"><ele>222.5</ele><time>2026-04-19T07:48:24Z</time></trkpt><trkpt lat="43.591346" lon="12.6756905"><ele>223.0</ele><time>2026-04-19T07:48:25.001Z</time></trkpt><trkpt lat="43.5912029" lon="12.6756297"><ele>222.0</ele><time>2026-04-19T07:48:26.003Z</time></trkpt><trkpt lat="43.5910675" lon="12.6755833"><ele>221.0</ele><time>2026-04-19T07:48:27.004Z</time></trkpt><trkpt lat="43.5909355" lon="12.6755464"><ele>220.0</ele><time>2026-04-19T07:48:28.001Z</time></trkpt><trkpt lat="43.5908027" lon="12.6754893"><ele>219.0</ele><time>2026-04-19T07:48:29.02Z</time></trkpt><trkpt lat="43.5906626" lon="12.6754361"><ele>219.0</ele><time>2026-04-19T07:48:30.005Z</time></trkpt><trkpt lat="43.5905144" lon="12.6753811"><ele>219.0</ele><time>2026-04-19T07:48:31.003Z</time></trkpt><trkpt lat="43.5903646" lon="12.6753244"><ele>219.0</ele><time>2026-04-19T07:48:32.004Z</time></trkpt><trkpt lat="43.5902179" lon="12.6752678"><ele>221.66666666666669</ele><time>2026-04-19T07:48:33.006Z</time></trkpt><trkpt lat="43.5900718" lon="12.675218"><ele>224.33333333333334</ele><time>2026-04-19T07:48:33.999Z</time></trkpt><trkpt lat="43.5899221" lon="12.6751562"><ele>227.0</ele><time>2026-04-19T07:48:35.004Z</time></trkpt><trkpt lat="43.5897733" lon="12.6750924"><ele>227.0</ele><time>2026-04-19T07:48:35.999Z</time></trkpt><trkpt lat="43.5896305" lon="12.6750441"><ele>227.0</ele><time>2026-04-19T07:48:37.002Z</time></trkpt><trkpt lat="43.5894811" lon="12.6750021"><ele>227.0</ele><time>2026-04-19T07:48:37.999Z</time></trkpt><trkpt lat="43.5893248" lon="12.6749635"><ele>227.0</ele><time>2026-04-19T07:48:39Z</time></trkpt><trkpt lat="43.5891762" lon="12.6749102"><ele>227.0</ele><time>2026-04-19T07:48:40.001Z</time></trkpt><trkpt lat="43.5890188" lon="12.6748426"><ele>227.0</ele><time>2026-04-19T07:48:41.001Z</time></trkpt><trkpt lat="43.5888635" lon="12.6747907"><ele>227.0</ele><time>2026-04-19T07:48:42.003Z</time></trkpt><trkpt lat="43.5887032" lon="12.6747299"><ele>227.0</ele><time>2026-04-19T07:48:43.004Z</time></trkpt><trkpt lat="43.5885552" lon="12.6746739"><ele>227.0</ele><time>2026-04-19T07:48:44.009Z</time></trkpt><trkpt lat="43.5884007" lon="12.6746146"><ele>229.0</ele><time>2026-04-19T07:48:45.002Z</time></trkpt><trkpt lat="43.5882437" lon="12.6745702"><ele>231.0</ele><time>2026-04-19T07:48:45.996Z</time></trkpt><trkpt lat="43.5880913" lon="12.6744933"><ele>233.0</ele><time>2026-04-19T07:48:47.002Z</time></trkpt><trkpt lat="43.5879315" lon="12.6744318"><ele>231.33333333333334</ele><time>2026-04-19T07:48:47.992Z</time></trkpt><trkpt lat="43.5877711" lon="12.67438"><ele>229.66666666666669</ele><time>2026-04-19T07:48:48.992Z</time></trkpt><trkpt lat="43.5876134" lon="12.6743132"><ele>228.0</ele><time>2026-04-19T07:48:50Z</time></trkpt><trkpt lat="43.5874471" lon="12.6742547"><ele>228.0</ele><time>2026-04-19T07:48:50.996Z</time></trkpt><trkpt lat="43.5872856" lon="12.6742123"><ele>228.0</ele><time>2026-04-19T07:48:51.997Z</time></trkpt><trkpt lat="43.5871238" lon="12.674144"><ele>228.0</ele><time>2026-04-19T07:48:52.998Z</time></trkpt><trkpt lat="43.5869603" lon="12.6740795"><ele>226.0</ele><time>2026-04-19T07:48:53.999Z</time></trkpt><trkpt lat="43.5868021" lon="12.6740205"><ele>224.0</ele><time>2026-04-19T07:48:55.003Z</time></trkpt><trkpt lat="43.5866465" lon="12.6739597"><ele>222.0</ele><time>2026-04-19T07:48:56.005Z</time></trkpt><trkpt lat="43.5864881" lon="12.673895"><ele>222.0</ele><time>2026-04-19T07:48:57.006Z</time></trkpt><trkpt lat="43.5863335" lon="12.6738422"><ele>222.0</ele><time>2026-04-19T07:48:58.005Z</time></trkpt><trkpt lat="43.5861856" lon="12.6737947"><ele>222.0</ele><time>2026-04-19T07:48:59.003Z</time></trkpt><trkpt lat="43.5860383" lon="12.6737562"><ele>223.66666666666669</ele><time>2026-04-19T07:49:00.022Z</time></trkpt><trkpt lat="43.585889" lon="12.6737109"><ele>225.33333333333334</ele><time>2026-04-19T07:49:01.001Z</time></trkpt><trkpt lat="43.5857306" lon="12.6736534"><ele>227.0</ele><time>2026-04-19T07:49:02.011Z</time></trkpt><trkpt lat="43.5855547" lon="12.6735865"><ele>227.0</ele><time>2026-04-19T07:49:03.002Z</time></trkpt><trkpt lat="43.5853825" lon="12.6735262"><ele>227.0</ele><time>2026-04-19T07:49:04.004Z</time></trkpt><trkpt lat="43.58522" lon="12.6734651"><ele>227.0</ele><time>2026-04-19T07:49:05.006Z</time></trkpt><trkpt lat="43.5850485" lon="12.6733883"><ele>227.0</ele><time>2026-04-19T07:49:06.008Z</time></trkpt><trkpt lat="43.5848706" lon="12.6733248"><ele>227.0</ele><time>2026-04-19T07:49:07.012Z</time></trkpt><trkpt lat="43.5846847" lon="12.6732551"><ele>227.0</ele><time>2026-04-19T07:49:08.006Z</time></trkpt><trkpt lat="43.5844891" lon="12.6731754"><ele>227.0</ele><time>2026-04-19T07:49:09.01Z</time></trkpt><trkpt lat="43.5842991" lon="12.673089"><ele>227.0</ele><time>2026-04-19T07:49:10.009Z</time></trkpt><trkpt lat="43.5841026" lon="12.6729858"><ele>227.0</ele><time>2026-04-19T07:49:11.011Z</time></trkpt><trkpt lat="43.5839128" lon="12.6728814"><ele>228.0</ele><time>2026-04-19T07:49:12.009Z</time></trkpt><trkpt lat="43.5837173" lon="12.6727683"><ele>229.0</ele><time>2026-04-19T07:49:13.011Z</time></trkpt><trkpt lat="43.5835185" lon="12.6726611"><ele>230.0</ele><time>2026-04-19T07:49:14.002Z</time></trkpt><trkpt lat="43.583344" lon="12.672531"><ele>230.0</ele><time>2026-04-19T07:49:15.013Z</time></trkpt><trkpt lat="43.5831845" lon="12.6724086"><ele>230.0</ele><time>2026-04-19T07:49:16.012Z</time></trkpt><trkpt lat="43.5830173" lon="12.6722836"><ele>230.0</ele><time>2026-04-19T07:49:17.011Z</time></trkpt><trkpt lat="43.5828335" lon="12.6721627"><ele>230.66666666666669</ele><time>2026-04-19T07:49:18.014Z</time></trkpt><trkpt lat="43.5826463" lon="12.6720271"><ele>231.33333333333331</ele><time>2026-04-19T07:49:19.014Z</time></trkpt><trkpt lat="43.5824521" lon="12.6718849"><ele>232.0</ele><time>2026-04-19T07:49:20.01Z</time></trkpt><trkpt lat="43.5822525" lon="12.671734"><ele>232.0</ele><time>2026-04-19T07:49:21.016Z</time></trkpt><trkpt lat="43.5820516" lon="12.6715751"><ele>232.0</ele><time>2026-04-19T07:49:22.016Z</time></trkpt><trkpt lat="43.5818615" lon="12.6714114"><ele>232.0</ele><time>2026-04-19T07:49:23.014Z</time></trkpt><trkpt lat="43.5816717" lon="12.6712673"><ele>232.0</ele><time>2026-04-19T07:49:24.016Z</time></trkpt><trkpt lat="43.581487" lon="12.671122"><ele>232.0</ele><time>2026-04-19T07:49:25.016Z</time></trkpt><trkpt lat="43.581317" lon="12.6709854"><ele>231.66666666666666</ele><time>2026-04-19T07:49:26.015Z</time></trkpt><trkpt lat="43.5811551" lon="12.67086"><ele>231.33333333333331</ele><time>2026-04-19T07:49:27.019Z</time></trkpt><trkpt lat="43.5810024" lon="12.67075"><ele>231.0</ele><time>2026-04-19T07:49:28.015Z</time></trkpt><trkpt lat="43.5808578" lon="12.6706498"><ele>231.0</ele><time>2026-04-19T07:49:29.013Z</time></trkpt><trkpt lat="43.5807222" lon="12.6705575"><ele>231.0</ele><time>2026-04-19T07:49:30.013Z</time></trkpt><trkpt lat="43.5805954" lon="12.6704618"><ele>231.0</ele><time>2026-04-19T07:49:31.04Z</time></trkpt><trkpt lat="43.5804813" lon="12.6703789"><ele>231.0</ele><time>2026-04-19T07:49:32.017Z</time></trkpt><trkpt lat="43.5803562" lon="12.6702789"><ele>231.66666666666669</ele><time>2026-04-19T07:49:33.017Z</time></trkpt><trkpt lat="43.5802168" lon="12.6701843"><ele>232.33333333333334</ele><time>2026-04-19T07:49:34.017Z</time></trkpt><trkpt lat="43.5800634" lon="12.670073"><ele>233.0</ele><time>2026-04-19T07:49:35.017Z</time></trkpt><trkpt lat="43.5798966" lon="12.6699578"><ele>233.0</ele><time>2026-04-19T07:49:36.014Z</time></trkpt><trkpt lat="43.579729" lon="12.6698204"><ele>233.0</ele><time>2026-04-19T07:49:37.015Z</time></trkpt><trkpt lat="43.5795531" lon="12.6696858"><ele>233.0</ele><time>2026-04-19T07:49:38.012Z</time></trkpt><trkpt lat="43.5793748" lon="12.6695478"><ele>236.0</ele><time>2026-04-19T07:49:39.017Z</time></trkpt><trkpt lat="43.5791868" lon="12.6693963"><ele>239.0</ele><time>2026-04-19T07:49:40.011Z</time></trkpt><trkpt lat="43.5789722" lon="12.6692362"><ele>239.0</ele><time>2026-04-19T07:49:41.011Z</time></trkpt><trkpt lat="43.5787432" lon="12.6690735"><ele>239.0</ele><time>2026-04-19T07:49:42.015Z</time></trkpt><trkpt lat="43.5785123" lon="12.668904"><ele>239.0</ele><time>2026-04-19T07:49:43.015Z</time></trkpt><trkpt lat="43.5782944" lon="12.6687458"><ele>239.0</ele><time>2026-04-19T07:49:44.01Z</time></trkpt><trkpt lat="43.5780786" lon="12.668586"><ele>239.0</ele><time>2026-04-19T07:49:45.021Z</time></trkpt><trkpt lat="43.5778617" lon="12.6684175"><ele>239.0</ele><time>2026-04-19T07:49:46.013Z</time></trkpt><trkpt lat="43.5776427" lon="12.6682436"><ele>236.5</ele><time>2026-04-19T07:49:47.019Z</time></trkpt><trkpt lat="43.5774289" lon="12.6680755"><ele>234.0</ele><time>2026-04-19T07:49:48.016Z</time></trkpt><trkpt lat="43.5772071" lon="12.6679023"><ele>235.0</ele><time>2026-04-19T07:49:49.013Z</time></trkpt><trkpt lat="43.5769837" lon="12.6677254"><ele>236.0</ele><time>2026-04-19T07:49:50.015Z</time></trkpt><trkpt lat="43.5767563" lon="12.6675503"><ele>236.0</ele><time>2026-04-19T07:49:51.016Z</time></trkpt><trkpt lat="43.5765243" lon="12.667374"><ele>236.0</ele><time>2026-04-19T07:49:52.014Z</time></trkpt><trkpt lat="43.5762971" lon="12.6671987"><ele>236.5</ele><time>2026-04-19T07:49:53.011Z</time></trkpt><trkpt lat="43.5760778" lon="12.6670349"><ele>237.0</ele><time>2026-04-19T07:49:54.015Z</time></trkpt><trkpt lat="43.5758668" lon="12.6668816"><ele>238.0</ele><time>2026-04-19T07:49:55.005Z</time></trkpt><trkpt lat="43.5756612" lon="12.6667399"><ele>239.0</ele><time>2026-04-19T07:49:56.008Z</time></trkpt><trkpt lat="43.575448" lon="12.6666034"><ele>237.5</ele><time>2026-04-19T07:49:57.01Z</time></trkpt><trkpt lat="43.5752331" lon="12.6664779"><ele>236.0</ele><time>2026-04-19T07:49:58.004Z</time></trkpt><trkpt lat="43.5750093" lon="12.6663046"><ele>236.0</ele><time>2026-04-19T07:49:59.009Z</time></trkpt><trkpt lat="43.5747804" lon="12.6661356"><ele>236.0</ele><time>2026-04-19T07:50:00.006Z</time></trkpt><trkpt lat="43.5745618" lon="12.6659601"><ele>237.0</ele><time>2026-04-19T07:50:01.022Z</time></trkpt><trkpt lat="43.5743455" lon="12.6657546"><ele>238.0</ele><time>2026-04-19T07:50:02.008Z</time></trkpt><trkpt lat="43.5741177" lon="12.6655634"><ele>238.0</ele><time>2026-04-19T07:50:03.014Z</time></trkpt><trkpt lat="43.5738862" lon="12.6653697"><ele>238.0</ele><time>2026-04-19T07:50:04.01Z</time></trkpt><trkpt lat="43.573638" lon="12.665195"><ele>235.5</ele><time>2026-04-19T07:50:05.017Z</time></trkpt><trkpt lat="43.5733912" lon="12.6650114"><ele>233.0</ele><time>2026-04-19T07:50:06.014Z</time></trkpt><trkpt lat="43.5731447" lon="12.6648276"><ele>233.0</ele><time>2026-04-19T07:50:07.015Z</time></trkpt><trkpt lat="43.5729006" lon="12.6646429"><ele>233.0</ele><time>2026-04-19T07:50:08.015Z</time></trkpt><trkpt lat="43.5726537" lon="12.66447"><ele>236.5</ele><time>2026-04-19T07:50:09.006Z</time></trkpt><trkpt lat="43.5724207" lon="12.6643014"><ele>240.0</ele><time>2026-04-19T07:50:10.014Z</time></trkpt><trkpt lat="43.5721848" lon="12.6641442"><ele>240.0</ele><time>2026-04-19T07:50:11.006Z</time></trkpt><trkpt lat="43.5719567" lon="12.6639713"><ele>240.0</ele><time>2026-04-19T07:50:12.011Z</time></trkpt><trkpt lat="43.5717309" lon="12.6638003"><ele>240.0</ele><time>2026-04-19T07:50:13.008Z</time></trkpt><trkpt lat="43.5715071" lon="12.6636387"><ele>240.0</ele><time>2026-04-19T07:50:14.009Z</time></trkpt><trkpt lat="43.5712808" lon="12.6634593"><ele>240.5</ele><time>2026-04-19T07:50:15.016Z</time></trkpt><trkpt lat="43.5710481" lon="12.6632832"><ele>241.0</ele><time>2026-04-19T07:50:16.015Z</time></trkpt><trkpt lat="43.5708106" lon="12.6631123"><ele>241.0</ele><time>2026-04-19T07:50:17.017Z</time></trkpt><trkpt lat="43.570573" lon="12.6629504"><ele>241.0</ele><time>2026-04-19T07:50:18.012Z</time></trkpt><trkpt lat="43.5703465" lon="12.6627607"><ele>243.5</ele><time>2026-04-19T07:50:19.011Z</time></trkpt><trkpt lat="43.5701147" lon="12.6625835"><ele>246.0</ele><time>2026-04-19T07:50:20.014Z</time></trkpt><trkpt lat="43.5698745" lon="12.6624049"><ele>246.0</ele><time>2026-04-19T07:50:21.02Z</time></trkpt><trkpt lat="43.5696439" lon="12.6622179"><ele>246.0</ele><time>2026-04-19T07:50:22.015Z</time></trkpt><trkpt lat="43.5694143" lon="12.6620324"><ele>246.5</ele><time>2026-04-19T07:50:23.014Z</time></trkpt><trkpt lat="43.5692017" lon="12.6618768"><ele>247.0</ele><time>2026-04-19T07:50:24.01Z</time></trkpt><trkpt lat="43.5689949" lon="12.6617316"><ele>247.0</ele><time>2026-04-19T07:50:25.015Z</time></trkpt><trkpt lat="43.5688121" lon="12.6615934"><ele>247.0</ele><time>2026-04-19T07:50:26.016Z</time></trkpt><trkpt lat="43.5686162" lon="12.6614566"><ele>247.0</ele><time>2026-04-19T07:50:27.014Z</time></trkpt><trkpt lat="43.5684193" lon="12.6613116"><ele>246.66666666666666</ele><time>2026-04-19T07:50:28.01Z</time></trkpt><trkpt lat="43.5682211" lon="12.6611698"><ele>246.33333333333331</ele><time>2026-04-19T07:50:29.011Z</time></trkpt><trkpt lat="43.5680231" lon="12.6610333"><ele>246.0</ele><time>2026-04-19T07:50:30.01Z</time></trkpt><trkpt lat="43.5678168" lon="12.6608928"><ele>247.5</ele><time>2026-04-19T07:50:31.009Z</time></trkpt><trkpt lat="43.5676122" lon="12.660761"><ele>249.0</ele><time>2026-04-19T07:50:32.028Z</time></trkpt><trkpt lat="43.5674096" lon="12.660627"><ele>249.0</ele><time>2026-04-19T07:50:33.014Z</time></trkpt><trkpt lat="43.5672247" lon="12.660513"><ele>249.0</ele><time>2026-04-19T07:50:34.015Z</time></trkpt><trkpt lat="43.5670639" lon="12.6604062"><ele>249.0</ele><time>2026-04-19T07:50:35.011Z</time></trkpt><trkpt lat="43.5669115" lon="12.6603102"><ele>250.0</ele><time>2026-04-19T07:50:36.01Z</time></trkpt><trkpt lat="43.5667727" lon="12.6602285"><ele>251.0</ele><time>2026-04-19T07:50:37.015Z</time></trkpt><trkpt lat="43.5666424" lon="12.6601467"><ele>252.0</ele><time>2026-04-19T07:50:38.016Z</time></trkpt><trkpt lat="43.5665088" lon="12.6600655"><ele>253.0</ele><time>2026-04-19T07:50:39.016Z</time></trkpt><trkpt lat="43.5663722" lon="12.6599828"><ele>253.0</ele><time>2026-04-19T07:50:40.016Z</time></trkpt><trkpt lat="43.5662316" lon="12.6598869"><ele>253.0</ele><time>2026-04-19T07:50:41.016Z</time></trkpt><trkpt lat="43.5660995" lon="12.6598098"><ele>253.0</ele><time>2026-04-19T07:50:42.016Z</time></trkpt><trkpt lat="43.5659694" lon="12.6597214"><ele>253.0</ele><time>2026-04-19T07:50:43.015Z</time></trkpt><trkpt lat="43.5658384" lon="12.6596248"><ele>252.5</ele><time>2026-04-19T07:50:44.013Z</time></trkpt><trkpt lat="43.5657089" lon="12.65954"><ele>252.0</ele><time>2026-04-19T07:50:45.01Z</time></trkpt><trkpt lat="43.565602" lon="12.6594452"><ele>251.5</ele><time>2026-04-19T07:50:46.009Z</time></trkpt><trkpt lat="43.5654878" lon="12.6593478"><ele>251.0</ele><time>2026-04-19T07:50:47.017Z</time></trkpt><trkpt lat="43.5653785" lon="12.6592636"><ele>251.0</ele><time>2026-04-19T07:50:48.013Z</time></trkpt><trkpt lat="43.5652751" lon="12.6591973"><ele>251.00000000000003</ele><time>2026-04-19T07:50:49.016Z</time></trkpt><trkpt lat="43.5651879" lon="12.6591361"><ele>251.00000000000003</ele><time>2026-04-19T07:50:50.011Z</time></trkpt><trkpt lat="43.565102" lon="12.6590741"><ele>251.0</ele><time>2026-04-19T07:50:51.014Z</time></trkpt><trkpt lat="43.5650287" lon="12.658994"><ele>251.0</ele><time>2026-04-19T07:50:52.018Z</time></trkpt><trkpt lat="43.5649742" lon="12.6588897"><ele>251.0</ele><time>2026-04-19T07:50:53.019Z</time></trkpt><trkpt lat="43.5649581" lon="12.6587581"><ele>251.00000000000003</ele><time>2026-04-19T07:50:54.02Z</time></trkpt><trkpt lat="43.564964" lon="12.6586125"><ele>251.00000000000003</ele><time>2026-04-19T07:50:55.022Z</time></trkpt><trkpt lat="43.5649637" lon="12.6584829"><ele>251.0</ele><time>2026-04-19T07:50:56.024Z</time></trkpt><trkpt lat="43.5649347" lon="12.6583623"><ele>251.0</ele><time>2026-04-19T07:50:57.032Z</time></trkpt><trkpt lat="43.5648798" lon="12.6582639"><ele>251.0</ele><time>2026-04-19T07:50:58.022Z</time></trkpt><trkpt lat="43.5648087" lon="12.658205"><ele>251.00000000000003</ele><time>2026-04-19T07:50:59.023Z</time></trkpt><trkpt lat="43.5647233" lon="12.6581979"><ele>251.00000000000003</ele><time>2026-04-19T07:51:00.011Z</time></trkpt><trkpt lat="43.5646314" lon="12.6582117"><ele>251.0</ele><time>2026-04-19T07:51:01.015Z</time></trkpt><trkpt lat="43.5645281" lon="12.6582186"><ele>251.0</ele><time>2026-04-19T07:51:02.018Z</time></trkpt><trkpt lat="43.5644179" lon="12.6581917"><ele>251.0</ele><time>2026-04-19T07:51:03.03Z</time></trkpt><trkpt lat="43.5643041" lon="12.6581198"><ele>251.0</ele><time>2026-04-19T07:51:04.022Z</time></trkpt><trkpt lat="43.5641981" lon="12.6580161"><ele>251.0</ele><time>2026-04-19T07:51:05.019Z</time></trkpt><trkpt lat="43.5641068" lon="12.6578809"><ele>251.0</ele><time>2026-04-19T07:51:06.019Z</time></trkpt><trkpt lat="43.5640372" lon="12.6577127"><ele>251.25</ele><time>2026-04-19T07:51:07.008Z</time></trkpt><trkpt lat="43.5639864" lon="12.6575281"><ele>251.5</ele><time>2026-04-19T07:51:08.009Z</time></trkpt><trkpt lat="43.563941" lon="12.6573378"><ele>251.75</ele><time>2026-04-19T07:51:09.016Z</time></trkpt><trkpt lat="43.5638977" lon="12.65715"><ele>252.0</ele><time>2026-04-19T07:51:10.018Z</time></trkpt><trkpt lat="43.5638283" lon="12.6570021"><ele>251.5</ele><time>2026-04-19T07:51:11.015Z</time></trkpt><trkpt lat="43.5637299" lon="12.6568889"><ele>251.0</ele><time>2026-04-19T07:51:12.021Z</time></trkpt><trkpt lat="43.5636213" lon="12.6568269"><ele>250.5</ele><time>2026-04-19T07:51:13.022Z</time></trkpt><trkpt lat="43.5634922" lon="12.6568222"><ele>250.0</ele><time>2026-04-19T07:51:14.026Z</time></trkpt><trkpt lat="43.5634019" lon="12.65687"><ele>249.33333333333331</ele><time>2026-04-19T07:51:15.015Z</time></trkpt><trkpt lat="43.5633296" lon="12.656913"><ele>248.66666666666666</ele><time>2026-04-19T07:51:16.008Z</time></trkpt><trkpt lat="43.5632416" lon="12.6569045"><ele>248.0</ele><time>2026-04-19T07:51:17.006Z</time></trkpt><trkpt lat="43.5631687" lon="12.6568704"><ele>247.33333333333331</ele><time>2026-04-19T07:51:18.01Z</time></trkpt><trkpt lat="43.5630892" lon="12.6568164"><ele>246.66666666666666</ele><time>2026-04-19T07:51:19.012Z</time></trkpt><trkpt lat="43.5630007" lon="12.6567569"><ele>246.0</ele><time>2026-04-19T07:51:20.007Z</time></trkpt><trkpt lat="43.562911" lon="12.6567002"><ele>245.0</ele><time>2026-04-19T07:51:21.023Z</time></trkpt><trkpt lat="43.5628047" lon="12.6566501"><ele>244.0</ele><time>2026-04-19T07:51:22.018Z</time></trkpt><trkpt lat="43.562683" lon="12.6566392"><ele>243.0</ele><time>2026-04-19T07:51:23.012Z</time></trkpt><trkpt lat="43.5625337" lon="12.6566363"><ele>242.0</ele><time>2026-04-19T07:51:24.025Z</time></trkpt><trkpt lat="43.5623945" lon="12.6566011"><ele>242.0</ele><time>2026-04-19T07:51:25.027Z</time></trkpt><trkpt lat="43.5622418" lon="12.6564807"><ele>242.0</ele><time>2026-04-19T07:51:26.023Z</time></trkpt><trkpt lat="43.5621003" lon="12.6563401"><ele>242.0</ele><time>2026-04-19T07:51:27.023Z</time></trkpt><trkpt lat="43.5619586" lon="12.6562003"><ele>242.33333333333334</ele><time>2026-04-19T07:51:28.021Z</time></trkpt><trkpt lat="43.5618186" lon="12.6560644"><ele>242.66666666666669</ele><time>2026-04-19T07:51:29.029Z</time></trkpt><trkpt lat="43.561674" lon="12.6559183"><ele>243.0</ele><time>2026-04-19T07:51:30.026Z</time></trkpt><trkpt lat="43.5615409" lon="12.6557714"><ele>243.0</ele><time>2026-04-19T07:51:31.022Z</time></trkpt><trkpt lat="43.5614309" lon="12.65564"><ele>243.0</ele><time>2026-04-19T07:51:32.024Z</time></trkpt><trkpt lat="43.5613285" lon="12.6554835"><ele>243.0</ele><time>2026-04-19T07:51:33.025Z</time></trkpt><trkpt lat="43.56124" lon="12.655327"><ele>243.0</ele><time>2026-04-19T07:51:34.035Z</time></trkpt><trkpt lat="43.5611581" lon="12.6551804"><ele>241.5</ele><time>2026-04-19T07:51:35.016Z</time></trkpt><trkpt lat="43.5610825" lon="12.6550459"><ele>240.0</ele><time>2026-04-19T07:51:36.013Z</time></trkpt><trkpt lat="43.5610039" lon="12.6549115"><ele>238.5</ele><time>2026-04-19T07:51:37.016Z</time></trkpt><trkpt lat="43.5609363" lon="12.6547854"><ele>237.0</ele><time>2026-04-19T07:51:38.017Z</time></trkpt><trkpt lat="43.5608663" lon="12.6546733"><ele>237.0</ele><time>2026-04-19T07:51:39.014Z</time></trkpt><trkpt lat="43.5608005" lon="12.6545649"><ele>237.0</ele><time>2026-04-19T07:51:40.016Z</time></trkpt><trkpt lat="43.5607239" lon="12.6544626"><ele>237.0</ele><time>2026-04-19T07:51:41.017Z</time></trkpt><trkpt lat="43.5606332" lon="12.6543676"><ele>237.0</ele><time>2026-04-19T07:51:42.017Z</time></trkpt><trkpt lat="43.5605363" lon="12.6542839"><ele>237.0</ele><time>2026-04-19T07:51:43.019Z</time></trkpt><trkpt lat="43.5604413" lon="12.6542234"><ele>238.2</ele><time>2026-04-19T07:51:44.006Z</time></trkpt><trkpt lat="43.5603393" lon="12.6541822"><ele>239.39999999999998</ele><time>2026-04-19T07:51:45.021Z</time></trkpt><trkpt lat="43.5602353" lon="12.6541777"><ele>240.60000000000002</ele><time>2026-04-19T07:51:46.01Z</time></trkpt><trkpt lat="43.5601319" lon="12.6541839"><ele>241.8</ele><time>2026-04-19T07:51:47.02Z</time></trkpt><trkpt lat="43.5600061" lon="12.6542048"><ele>243.0</ele><time>2026-04-19T07:51:48.008Z</time></trkpt><trkpt lat="43.5598624" lon="12.6542345"><ele>243.0</ele><time>2026-04-19T07:51:49.01Z</time></trkpt><trkpt lat="43.5597006" lon="12.654259"><ele>243.0</ele><time>2026-04-19T07:51:50.003Z</time></trkpt><trkpt lat="43.5595248" lon="12.6542578"><ele>243.0</ele><time>2026-04-19T07:51:51.005Z</time></trkpt><trkpt lat="43.5593579" lon="12.6542425"><ele>242.25</ele><time>2026-04-19T07:51:52.006Z</time></trkpt><trkpt lat="43.5592085" lon="12.6542136"><ele>241.5</ele><time>2026-04-19T07:51:53.01Z</time></trkpt><trkpt lat="43.5590736" lon="12.6541658"><ele>240.75</ele><time>2026-04-19T07:51:54.013Z</time></trkpt><trkpt lat="43.5589394" lon="12.6541248"><ele>240.0</ele><time>2026-04-19T07:51:55.01Z</time></trkpt><trkpt lat="43.5588163" lon="12.6540911"><ele>239.6</ele><time>2026-04-19T07:51:56.01Z</time></trkpt><trkpt lat="43.5586964" lon="12.6540569"><ele>239.2</ele><time>2026-04-19T07:51:57.009Z</time></trkpt><trkpt lat="43.5585828" lon="12.6540344"><ele>238.8</ele><time>2026-04-19T07:51:58.012Z</time></trkpt><trkpt lat="43.5584716" lon="12.6540104"><ele>238.4</ele><time>2026-04-19T07:51:59.012Z</time></trkpt><trkpt lat="43.5583823" lon="12.6539877"><ele>238.0</ele><time>2026-04-19T07:52:00.007Z</time></trkpt><trkpt lat="43.5582943" lon="12.6539751"><ele>238.0</ele><time>2026-04-19T07:52:01.011Z</time></trkpt><trkpt lat="43.5582072" lon="12.6539713"><ele>238.0</ele><time>2026-04-19T07:52:02.004Z</time></trkpt><trkpt lat="43.5581162" lon="12.6539623"><ele>238.0</ele><time>2026-04-19T07:52:03.01Z</time></trkpt><trkpt lat="43.5580269" lon="12.6539432"><ele>238.0</ele><time>2026-04-19T07:52:04.006Z</time></trkpt><trkpt lat="43.5579344" lon="12.6539166"><ele>238.0</ele><time>2026-04-19T07:52:05.015Z</time></trkpt><trkpt lat="43.5578396" lon="12.6538889"><ele>238.4</ele><time>2026-04-19T07:52:06.001Z</time></trkpt><trkpt lat="43.5577404" lon="12.6538551"><ele>238.8</ele><time>2026-04-19T07:52:07.01Z</time></trkpt><trkpt lat="43.5576362" lon="12.6538052"><ele>239.2</ele><time>2026-04-19T07:52:08.005Z</time></trkpt><trkpt lat="43.5575322" lon="12.6537438"><ele>239.6</ele><time>2026-04-19T07:52:09.01Z</time></trkpt><trkpt lat="43.5574247" lon="12.6536783"><ele>240.0</ele><time>2026-04-19T07:52:10.01Z</time></trkpt><trkpt lat="43.5573082" lon="12.6536063"><ele>241.25</ele><time>2026-04-19T07:52:11.014Z</time></trkpt><trkpt lat="43.5571904" lon="12.6535289"><ele>242.5</ele><time>2026-04-19T07:52:12.012Z</time></trkpt><trkpt lat="43.5570728" lon="12.6534541"><ele>243.75</ele><time>2026-04-19T07:52:13.006Z</time></trkpt><trkpt lat="43.5569565" lon="12.6533718"><ele>245.0</ele><time>2026-04-19T07:52:14.011Z</time></trkpt><trkpt lat="43.55683" lon="12.6532917"><ele>245.0</ele><time>2026-04-19T07:52:15.008Z</time></trkpt><trkpt lat="43.5566998" lon="12.6531934"><ele>245.0</ele><time>2026-04-19T07:52:16.011Z</time></trkpt><trkpt lat="43.5565632" lon="12.6530605"><ele>245.0</ele><time>2026-04-19T07:52:17.013Z</time></trkpt><trkpt lat="43.5564342" lon="12.6529101"><ele>244.75</ele><time>2026-04-19T07:52:18.007Z</time></trkpt><trkpt lat="43.5563328" lon="12.6527658"><ele>244.5</ele><time>2026-04-19T07:52:19.017Z</time></trkpt><trkpt lat="43.556239" lon="12.6526171"><ele>244.25</ele><time>2026-04-19T07:52:20Z</time></trkpt><trkpt lat="43.5561339" lon="12.6524848"><ele>244.0</ele><time>2026-04-19T07:52:21.01Z</time></trkpt><trkpt lat="43.5560023" lon="12.6523803"><ele>244.0</ele><time>2026-04-19T07:52:22.003Z</time></trkpt><trkpt lat="43.5558519" lon="12.6523346"><ele>244.0</ele><time>2026-04-19T07:52:23.005Z</time></trkpt><trkpt lat="43.5556892" lon="12.6523084"><ele>244.0</ele><time>2026-04-19T07:52:24.011Z</time></trkpt><trkpt lat="43.5555335" lon="12.652278"><ele>244.33333333333331</ele><time>2026-04-19T07:52:25.004Z</time></trkpt><trkpt lat="43.5553619" lon="12.6522731"><ele>244.66666666666669</ele><time>2026-04-19T07:52:26.006Z</time></trkpt><trkpt lat="43.5551979" lon="12.6522921"><ele>245.0</ele><time>2026-04-19T07:52:27.007Z</time></trkpt><trkpt lat="43.5550579" lon="12.652322"><ele>245.0</ele><time>2026-04-19T07:52:28.004Z</time></trkpt><trkpt lat="43.5549212" lon="12.6523465"><ele>245.0</ele><time>2026-04-19T07:52:29.009Z</time></trkpt><trkpt lat="43.5548027" lon="12.6523723"><ele>245.0</ele><time>2026-04-19T07:52:30.007Z</time></trkpt><trkpt lat="43.5546781" lon="12.6523685"><ele>245.0</ele><time>2026-04-19T07:52:31.006Z</time></trkpt><trkpt lat="43.5545592" lon="12.6523712"><ele>245.2</ele><time>2026-04-19T07:52:32.009Z</time></trkpt><trkpt lat="43.5544533" lon="12.652373"><ele>245.4</ele><time>2026-04-19T07:52:33.005Z</time></trkpt><trkpt lat="43.5543498" lon="12.6523763"><ele>245.60000000000002</ele><time>2026-04-19T07:52:34.01Z</time></trkpt><trkpt lat="43.5542372" lon="12.6523929"><ele>245.8</ele><time>2026-04-19T07:52:35.003Z</time></trkpt><trkpt lat="43.5541256" lon="12.6523967"><ele>246.0</ele><time>2026-04-19T07:52:36.013Z</time></trkpt><trkpt lat="43.5540086" lon="12.6523954"><ele>246.0</ele><time>2026-04-19T07:52:37.004Z</time></trkpt><trkpt lat="43.5538806" lon="12.6523916"><ele>246.0</ele><time>2026-04-19T07:52:38.007Z</time></trkpt><trkpt lat="43.5537642" lon="12.6523846"><ele>246.0</ele><time>2026-04-19T07:52:39.004Z</time></trkpt><trkpt lat="43.5536478" lon="12.6523796"><ele>246.0</ele><time>2026-04-19T07:52:40.006Z</time></trkpt><trkpt lat="43.5535319" lon="12.6523642"><ele>245.8</ele><time>2026-04-19T07:52:41.005Z</time></trkpt><trkpt lat="43.5534255" lon="12.6523548"><ele>245.60000000000002</ele><time>2026-04-19T07:52:42.005Z</time></trkpt><trkpt lat="43.5533247" lon="12.6523381"><ele>245.4</ele><time>2026-04-19T07:52:43.018Z</time></trkpt><trkpt lat="43.5532282" lon="12.6523146"><ele>245.2</ele><time>2026-04-19T07:52:44.014Z</time></trkpt><trkpt lat="43.5531249" lon="12.6522839"><ele>245.0</ele><time>2026-04-19T07:52:45.008Z</time></trkpt><trkpt lat="43.5530155" lon="12.6522548"><ele>245.0</ele><time>2026-04-19T07:52:46.014Z</time></trkpt><trkpt lat="43.5529013" lon="12.6522247"><ele>245.0</ele><time>2026-04-19T07:52:47.018Z</time></trkpt><trkpt lat="43.5527804" lon="12.65218"><ele>245.0</ele><time>2026-04-19T07:52:48.007Z</time></trkpt><trkpt lat="43.5526585" lon="12.6521266"><ele>245.0</ele><time>2026-04-19T07:52:49.017Z</time></trkpt><trkpt lat="43.5525358" lon="12.6520645"><ele>245.0</ele><time>2026-04-19T07:52:50.008Z</time></trkpt><trkpt lat="43.5524163" lon="12.6519974"><ele>245.0</ele><time>2026-04-19T07:52:51.003Z</time></trkpt><trkpt lat="43.5522823" lon="12.6519034"><ele>245.0</ele><time>2026-04-19T07:52:52.007Z</time></trkpt><trkpt lat="43.5521346" lon="12.6518124"><ele>245.0</ele><time>2026-04-19T07:52:53.006Z</time></trkpt><trkpt lat="43.5519692" lon="12.6517133"><ele>245.33333333333334</ele><time>2026-04-19T07:52:54.006Z</time></trkpt><trkpt lat="43.5517878" lon="12.6516314"><ele>245.66666666666669</ele><time>2026-04-19T07:52:55.008Z</time></trkpt><trkpt lat="43.5516132" lon="12.6515462"><ele>246.0</ele><time>2026-04-19T07:52:56.006Z</time></trkpt><trkpt lat="43.5514309" lon="12.6514582"><ele>246.0</ele><time>2026-04-19T07:52:57.007Z</time></trkpt><trkpt lat="43.5512564" lon="12.6513542"><ele>246.0</ele><time>2026-04-19T07:52:58.002Z</time></trkpt><trkpt lat="43.5510904" lon="12.6512634"><ele>246.0</ele><time>2026-04-19T07:52:59.018Z</time></trkpt><trkpt lat="43.5509279" lon="12.6511711"><ele>244.66666666666669</ele><time>2026-04-19T07:53:00.008Z</time></trkpt><trkpt lat="43.5507678" lon="12.6510834"><ele>243.33333333333334</ele><time>2026-04-19T07:53:01.008Z</time></trkpt><trkpt lat="43.5506296" lon="12.6510035"><ele>242.0</ele><time>2026-04-19T07:53:02.006Z</time></trkpt><trkpt lat="43.5504967" lon="12.6509314"><ele>242.0</ele><time>2026-04-19T07:53:03.012Z</time></trkpt><trkpt lat="43.5503775" lon="12.6508708"><ele>242.0</ele><time>2026-04-19T07:53:04.015Z</time></trkpt><trkpt lat="43.5502641" lon="12.6508084"><ele>242.0</ele><time>2026-04-19T07:53:05.009Z</time></trkpt><trkpt lat="43.5501772" lon="12.6507613"><ele>242.0</ele><time>2026-04-19T07:53:06.005Z</time></trkpt><trkpt lat="43.5500994" lon="12.6507193"><ele>242.0</ele><time>2026-04-19T07:53:07.023Z</time></trkpt><trkpt lat="43.5500285" lon="12.6506764"><ele>242.39999999999998</ele><time>2026-04-19T07:53:08.018Z</time></trkpt><trkpt lat="43.5499621" lon="12.6506339"><ele>242.79999999999998</ele><time>2026-04-19T07:53:09.014Z</time></trkpt><trkpt lat="43.5498617" lon="12.6505689"><ele>243.2</ele><time>2026-04-19T07:53:11.022Z</time></trkpt><trkpt lat="43.5498003" lon="12.6505243"><ele>243.6</ele><time>2026-04-19T07:53:14.015Z</time></trkpt><trkpt lat="43.549731" lon="12.650463"><ele>244.0</ele><time>2026-04-19T07:53:16.014Z</time></trkpt><trkpt lat="43.5496072" lon="12.6504685"><ele>245.75</ele><time>2026-04-19T07:53:18.014Z</time></trkpt><trkpt lat="43.549512" lon="12.6505425"><ele>247.5</ele><time>2026-04-19T07:53:19.017Z</time></trkpt><trkpt lat="43.5493756" lon="12.6506245"><ele>249.25</ele><time>2026-04-19T07:53:20.013Z</time></trkpt><trkpt lat="43.5492117" lon="12.6507063"><ele>251.0</ele><time>2026-04-19T07:53:21.014Z</time></trkpt><trkpt lat="43.5489779" lon="12.6507709"><ele>251.0</ele><time>2026-04-19T07:53:22.011Z</time></trkpt><trkpt lat="43.5487487" lon="12.650825"><ele>251.0</ele><time>2026-04-19T07:53:23.005Z</time></trkpt><trkpt lat="43.54857" lon="12.6508633"><ele>251.0</ele><time>2026-04-19T07:53:24.005Z</time></trkpt><trkpt lat="43.5484115" lon="12.6509159"><ele>253.75</ele><time>2026-04-19T07:53:25.012Z</time></trkpt><trkpt lat="43.5482631" lon="12.6509546"><ele>256.5</ele><time>2026-04-19T07:53:26.009Z</time></trkpt><trkpt lat="43.5481284" lon="12.6509854"><ele>259.25</ele><time>2026-04-19T07:53:27.011Z</time></trkpt><trkpt lat="43.5479954" lon="12.6510244"><ele>262.0</ele><time>2026-04-19T07:53:28.01Z</time></trkpt><trkpt lat="43.5478653" lon="12.6510539"><ele>261.75</ele><time>2026-04-19T07:53:29.008Z</time></trkpt><trkpt lat="43.5477469" lon="12.6510825"><ele>261.5</ele><time>2026-04-19T07:53:30.01Z</time></trkpt><trkpt lat="43.5476176" lon="12.6511068"><ele>261.25</ele><time>2026-04-19T07:53:31.005Z</time></trkpt><trkpt lat="43.5474903" lon="12.6511214"><ele>261.0</ele><time>2026-04-19T07:53:32.004Z</time></trkpt><trkpt lat="43.5473723" lon="12.6511265"><ele>261.0</ele><time>2026-04-19T07:53:32.998Z</time></trkpt><trkpt lat="43.547266" lon="12.6511075"><ele>261.0</ele><time>2026-04-19T07:53:34.009Z</time></trkpt><trkpt lat="43.5471762" lon="12.6510576"><ele>261.0</ele><time>2026-04-19T07:53:35.004Z</time></trkpt><trkpt lat="43.5470869" lon="12.6510081"><ele>261.0</ele><time>2026-04-19T07:53:36.004Z</time></trkpt><trkpt lat="43.5469978" lon="12.6509579"><ele>261.0</ele><time>2026-04-19T07:53:37.006Z</time></trkpt><trkpt lat="43.5469176" lon="12.6509096"><ele>261.0</ele><time>2026-04-19T07:53:38.026Z</time></trkpt><trkpt lat="43.5468504" lon="12.6508641"><ele>261.0</ele><time>2026-04-19T07:53:39.01Z</time></trkpt><trkpt lat="43.5467887" lon="12.6508222"><ele>261.0</ele><time>2026-04-19T07:53:40.007Z</time></trkpt><trkpt lat="43.5466968" lon="12.650751"><ele>261.0</ele><time>2026-04-19T07:53:42.007Z</time></trkpt><trkpt lat="43.5466148" lon="12.6507107"><ele>261.0</ele><time>2026-04-19T07:53:44.011Z</time></trkpt><trkpt lat="43.5465352" lon="12.6506622"><ele>261.0</ele><time>2026-04-19T07:53:46.01Z</time></trkpt><trkpt lat="43.546457" lon="12.6506284"><ele>261.0</ele><time>2026-04-19T07:53:48.005Z</time></trkpt><trkpt lat="43.5463894" lon="12.6506006"><ele>261.0</ele><time>2026-04-19T07:53:50.015Z</time></trkpt><trkpt lat="43.5463313" lon="12.6505667"><ele>261.0</ele><time>2026-04-19T07:53:52.009Z</time></trkpt><trkpt lat="43.5462669" lon="12.650542"><ele>261.0</ele><time>2026-04-19T07:54:19.01Z</time></trkpt><trkpt lat="43.5461922" lon="12.6504999"><ele>261.0</ele><time>2026-04-19T07:54:21.014Z</time></trkpt><trkpt lat="43.5461066" lon="12.6504465"><ele>261.0</ele><time>2026-04-19T07:54:24.012Z</time></trkpt><trkpt lat="43.5460348" lon="12.6503953"><ele>260.0</ele><time>2026-04-19T07:54:26.012Z</time></trkpt><trkpt lat="43.5459319" lon="12.6504354"><ele>259.0</ele><time>2026-04-19T07:54:28.016Z</time></trkpt><trkpt lat="43.5458792" lon="12.6505287"><ele>258.0</ele><time>2026-04-19T07:54:29.015Z</time></trkpt><trkpt lat="43.5458368" lon="12.6506569"><ele>257.0</ele><time>2026-04-19T07:54:30.013Z</time></trkpt><trkpt lat="43.5457948" lon="12.6507914"><ele>256.0</ele><time>2026-04-19T07:54:31.009Z</time></trkpt><trkpt lat="43.5457526" lon="12.6509262"><ele>256.0</ele><time>2026-04-19T07:54:32.013Z</time></trkpt><trkpt lat="43.54571" lon="12.651068"><ele>256.0</ele><time>2026-04-19T07:54:33.019Z</time></trkpt><trkpt lat="43.5456679" lon="12.6512104"><ele>256.0</ele><time>2026-04-19T07:54:34.023Z</time></trkpt><trkpt lat="43.5456283" lon="12.6513417"><ele>256.0</ele><time>2026-04-19T07:54:35.021Z</time></trkpt><trkpt lat="43.5455917" lon="12.6514633"><ele>256.0</ele><time>2026-04-19T07:54:36.022Z</time></trkpt><trkpt lat="43.5455599" lon="12.6515749"><ele>256.2857142857143</ele><time>2026-04-19T07:54:37.022Z</time></trkpt><trkpt lat="43.5455266" lon="12.6516815"><ele>256.57142857142856</ele><time>2026-04-19T07:54:38.017Z</time></trkpt><trkpt lat="43.5454952" lon="12.6517867"><ele>256.85714285714283</ele><time>2026-04-19T07:54:39.034Z</time></trkpt><trkpt lat="43.5454625" lon="12.6518778"><ele>257.1428571428571</ele><time>2026-04-19T07:54:40.017Z</time></trkpt><trkpt lat="43.5454312" lon="12.6519634"><ele>257.42857142857144</ele><time>2026-04-19T07:54:41.018Z</time></trkpt><trkpt lat="43.5454006" lon="12.6520436"><ele>257.71428571428567</ele><time>2026-04-19T07:54:42.022Z</time></trkpt><trkpt lat="43.5453691" lon="12.6521276"><ele>258.0</ele><time>2026-04-19T07:54:43.025Z</time></trkpt><trkpt lat="43.5453398" lon="12.6522167"><ele>260.6</ele><time>2026-04-19T07:54:44.026Z</time></trkpt><trkpt lat="43.5453121" lon="12.6523182"><ele>263.20000000000005</ele><time>2026-04-19T07:54:45.026Z</time></trkpt><trkpt lat="43.5452882" lon="12.6524431"><ele>265.8</ele><time>2026-04-19T07:54:46.03Z</time></trkpt><trkpt lat="43.5452727" lon="12.6526121"><ele>268.40000000000003</ele><time>2026-04-19T07:54:47.03Z</time></trkpt><trkpt lat="43.5452752" lon="12.6528125"><ele>271.0</ele><time>2026-04-19T07:54:48.023Z</time></trkpt><trkpt lat="43.5453275" lon="12.6530315"><ele>270.3333333333333</ele><time>2026-04-19T07:54:49.027Z</time></trkpt><trkpt lat="43.5454598" lon="12.6532443"><ele>269.6666666666667</ele><time>2026-04-19T07:54:50.022Z</time></trkpt><trkpt lat="43.545578" lon="12.653406"><ele>269.0</ele><time>2026-04-19T07:54:51.009Z</time></trkpt><trkpt lat="43.5456852" lon="12.653543"><ele>271.0</ele><time>2026-04-19T07:54:52.018Z</time></trkpt><trkpt lat="43.5457847" lon="12.6536731"><ele>273.0</ele><time>2026-04-19T07:54:53.019Z</time></trkpt><trkpt lat="43.5458784" lon="12.6537978"><ele>275.0</ele><time>2026-04-19T07:54:54.021Z</time></trkpt><trkpt lat="43.54598" lon="12.6539372"><ele>277.0</ele><time>2026-04-19T07:54:55.026Z</time></trkpt><trkpt lat="43.546087" lon="12.6540763"><ele>277.0</ele><time>2026-04-19T07:54:56.02Z</time></trkpt><trkpt lat="43.5461886" lon="12.6542192"><ele>277.0</ele><time>2026-04-19T07:54:57.031Z</time></trkpt><trkpt lat="43.5462915" lon="12.6543651"><ele>277.0</ele><time>2026-04-19T07:54:58.021Z</time></trkpt><trkpt lat="43.5463912" lon="12.654512"><ele>277.0</ele><time>2026-04-19T07:54:59.029Z</time></trkpt><trkpt lat="43.546485" lon="12.6546571"><ele>275.5</ele><time>2026-04-19T07:55:00.023Z</time></trkpt><trkpt lat="43.5465843" lon="12.6547989"><ele>274.0</ele><time>2026-04-19T07:55:01.024Z</time></trkpt><trkpt lat="43.5466748" lon="12.6549356"><ele>272.5</ele><time>2026-04-19T07:55:02.025Z</time></trkpt><trkpt lat="43.5467564" lon="12.6550867"><ele>271.0</ele><time>2026-04-19T07:55:03.026Z</time></trkpt><trkpt lat="43.5468343" lon="12.6552475"><ele>273.0</ele><time>2026-04-19T07:55:04.014Z</time></trkpt><trkpt lat="43.5469129" lon="12.6554038"><ele>275.0</ele><time>2026-04-19T07:55:05.021Z</time></trkpt><trkpt lat="43.5469651" lon="12.6555946"><ele>277.0</ele><time>2026-04-19T07:55:06.021Z</time></trkpt><trkpt lat="43.5469662" lon="12.6557981"><ele>279.0</ele><time>2026-04-19T07:55:07.009Z</time></trkpt><trkpt lat="43.5469786" lon="12.6559915"><ele>279.5</ele><time>2026-04-19T07:55:08.013Z</time></trkpt><trkpt lat="43.5469939" lon="12.6561937"><ele>280.0</ele><time>2026-04-19T07:55:09.004Z</time></trkpt><trkpt lat="43.5469975" lon="12.6563973"><ele>280.5</ele><time>2026-04-19T07:55:10.028Z</time></trkpt><trkpt lat="43.5469932" lon="12.6566012"><ele>281.0</ele><time>2026-04-19T07:55:11.015Z</time></trkpt><trkpt lat="43.5469814" lon="12.6568122"><ele>281.25</ele><time>2026-04-19T07:55:12.02Z</time></trkpt><trkpt lat="43.5469647" lon="12.6570128"><ele>281.5</ele><time>2026-04-19T07:55:13.011Z</time></trkpt><trkpt lat="43.5469246" lon="12.6571705"><ele>281.75</ele><time>2026-04-19T07:55:14.021Z</time></trkpt><trkpt lat="43.5468867" lon="12.6573501"><ele>282.0</ele><time>2026-04-19T07:55:15.02Z</time></trkpt><trkpt lat="43.5468434" lon="12.6575131"><ele>282.0</ele><time>2026-04-19T07:55:16.015Z</time></trkpt><trkpt lat="43.5467862" lon="12.6576766"><ele>282.0</ele><time>2026-04-19T07:55:17.024Z</time></trkpt><trkpt lat="43.5467269" lon="12.6578396"><ele>282.0</ele><time>2026-04-19T07:55:18.016Z</time></trkpt><trkpt lat="43.5466685" lon="12.6579904"><ele>282.0</ele><time>2026-04-19T07:55:19.02Z</time></trkpt><trkpt lat="43.5466112" lon="12.6581365"><ele>282.0</ele><time>2026-04-19T07:55:20.024Z</time></trkpt><trkpt lat="43.546557" lon="12.6582757"><ele>282.0</ele><time>2026-04-19T07:55:21.023Z</time></trkpt><trkpt lat="43.5465091" lon="12.6584184"><ele>282.0</ele><time>2026-04-19T07:55:22.025Z</time></trkpt><trkpt lat="43.5464632" lon="12.6585548"><ele>282.0</ele><time>2026-04-19T07:55:23.023Z</time></trkpt><trkpt lat="43.5464221" lon="12.6586855"><ele>282.0</ele><time>2026-04-19T07:55:24.025Z</time></trkpt><trkpt lat="43.5463815" lon="12.6588093"><ele>281.3333333333333</ele><time>2026-04-19T07:55:25.025Z</time></trkpt><trkpt lat="43.5463412" lon="12.6589183"><ele>280.6666666666667</ele><time>2026-04-19T07:55:26.021Z</time></trkpt><trkpt lat="43.5463081" lon="12.6590144"><ele>280.0</ele><time>2026-04-19T07:55:27.019Z</time></trkpt><trkpt lat="43.5462821" lon="12.6591118"><ele>279.33333333333337</ele><time>2026-04-19T07:55:28.025Z</time></trkpt><trkpt lat="43.5462551" lon="12.6592015"><ele>278.6666666666667</ele><time>2026-04-19T07:55:29.026Z</time></trkpt><trkpt lat="43.5462252" lon="12.659307"><ele>278.0</ele><time>2026-04-19T07:55:30.027Z</time></trkpt><trkpt lat="43.5461852" lon="12.6594251"><ele>279.0</ele><time>2026-04-19T07:55:31.018Z</time></trkpt><trkpt lat="43.5461434" lon="12.6595457"><ele>280.0</ele><time>2026-04-19T07:55:32.013Z</time></trkpt><trkpt lat="43.5460976" lon="12.6596765"><ele>281.0</ele><time>2026-04-19T07:55:33.017Z</time></trkpt><trkpt lat="43.546042" lon="12.6597962"><ele>282.0</ele><time>2026-04-19T07:55:34.005Z</time></trkpt><trkpt lat="43.5459902" lon="12.6598966"><ele>283.0</ele><time>2026-04-19T07:55:35.019Z</time></trkpt><trkpt lat="43.5459449" lon="12.6599822"><ele>283.0</ele><time>2026-04-19T07:55:36.024Z</time></trkpt><trkpt lat="43.5458311" lon="12.6599925"><ele>283.0</ele><time>2026-04-19T07:55:38.01Z</time></trkpt><trkpt lat="43.5457435" lon="12.6599627"><ele>283.0</ele><time>2026-04-19T07:55:40.013Z</time></trkpt><trkpt lat="43.5456568" lon="12.6599439"><ele>283.0</ele><time>2026-04-19T07:55:42.006Z</time></trkpt><trkpt lat="43.5455996" lon="12.66003"><ele>283.0</ele><time>2026-04-19T07:55:44.018Z</time></trkpt><trkpt lat="43.545578" lon="12.6601291"><ele>283.0</ele><time>2026-04-19T07:55:45.015Z</time></trkpt><trkpt lat="43.5455339" lon="12.6602214"><ele>283.0</ele><time>2026-04-19T07:55:46.006Z</time></trkpt><trkpt lat="43.545484" lon="12.6603297"><ele>283.0</ele><time>2026-04-19T07:55:47.009Z</time></trkpt><trkpt lat="43.5454106" lon="12.6604385"><ele>283.0</ele><time>2026-04-19T07:55:48.018Z</time></trkpt><trkpt lat="43.5453242" lon="12.6605388"><ele>283.0</ele><time>2026-04-19T07:55:49.014Z</time></trkpt><trkpt lat="43.5452238" lon="12.6606372"><ele>283.75</ele><time>2026-04-19T07:55:50.017Z</time></trkpt><trkpt lat="43.5451306" lon="12.660745"><ele>284.5</ele><time>2026-04-19T07:55:51.017Z</time></trkpt><trkpt lat="43.5450316" lon="12.660874"><ele>285.25</ele><time>2026-04-19T07:55:52.015Z</time></trkpt><trkpt lat="43.5449326" lon="12.661015"><ele>286.0</ele><time>2026-04-19T07:55:53.018Z</time></trkpt><trkpt lat="43.5448491" lon="12.6611789"><ele>286.0</ele><time>2026-04-19T07:55:54.02Z</time></trkpt><trkpt lat="43.5447723" lon="12.661365"><ele>286.0</ele><time>2026-04-19T07:55:55.014Z</time></trkpt><trkpt lat="43.5447029" lon="12.6615621"><ele>286.0</ele><time>2026-04-19T07:55:56.008Z</time></trkpt><trkpt lat="43.5446244" lon="12.6617665"><ele>285.3333333333333</ele><time>2026-04-19T07:55:57.019Z</time></trkpt><trkpt lat="43.544551" lon="12.6619746"><ele>284.6666666666667</ele><time>2026-04-19T07:55:58.016Z</time></trkpt><trkpt lat="43.54448" lon="12.6621754"><ele>284.0</ele><time>2026-04-19T07:55:59.019Z</time></trkpt><trkpt lat="43.5444117" lon="12.6623802"><ele>287.33333333333337</ele><time>2026-04-19T07:56:00.023Z</time></trkpt><trkpt lat="43.5443442" lon="12.6625898"><ele>290.6666666666667</ele><time>2026-04-19T07:56:01.021Z</time></trkpt><trkpt lat="43.5442641" lon="12.662807"><ele>294.0</ele><time>2026-04-19T07:56:02.024Z</time></trkpt><trkpt lat="43.5441826" lon="12.6630244"><ele>294.0</ele><time>2026-04-19T07:56:03.021Z</time></trkpt><trkpt lat="43.5440962" lon="12.6632485"><ele>294.0</ele><time>2026-04-19T07:56:04.02Z</time></trkpt><trkpt lat="43.544003" lon="12.6634728"><ele>294.0</ele><time>2026-04-19T07:56:05.022Z</time></trkpt><trkpt lat="43.5439122" lon="12.6637148"><ele>294.0</ele><time>2026-04-19T07:56:06.016Z</time></trkpt><trkpt lat="43.543818" lon="12.6639644"><ele>294.0</ele><time>2026-04-19T07:56:07.025Z</time></trkpt><trkpt lat="43.543719" lon="12.6642178"><ele>294.0</ele><time>2026-04-19T07:56:08.027Z</time></trkpt><trkpt lat="43.5436286" lon="12.6644827"><ele>296.3333333333333</ele><time>2026-04-19T07:56:09.022Z</time></trkpt><trkpt lat="43.5435405" lon="12.6647498"><ele>298.66666666666663</ele><time>2026-04-19T07:56:10.022Z</time></trkpt><trkpt lat="43.5434546" lon="12.6650341"><ele>301.0</ele><time>2026-04-19T07:56:11.025Z</time></trkpt><trkpt lat="43.5433719" lon="12.6653294"><ele>301.0</ele><time>2026-04-19T07:56:12.036Z</time></trkpt><trkpt lat="43.5432863" lon="12.6656304"><ele>301.0</ele><time>2026-04-19T07:56:13.022Z</time></trkpt><trkpt lat="43.5431873" lon="12.6659216"><ele>299.0</ele><time>2026-04-19T07:56:14.022Z</time></trkpt><trkpt lat="43.5430715" lon="12.6661986"><ele>297.0</ele><time>2026-04-19T07:56:15.026Z</time></trkpt><trkpt lat="43.5429565" lon="12.6664616"><ele>299.6666666666667</ele><time>2026-04-19T07:56:16.022Z</time></trkpt><trkpt lat="43.5428482" lon="12.6667239"><ele>302.33333333333337</ele><time>2026-04-19T07:56:17.022Z</time></trkpt><trkpt lat="43.5427658" lon="12.6669797"><ele>305.0</ele><time>2026-04-19T07:56:18.021Z</time></trkpt><trkpt lat="43.5427332" lon="12.6672764"><ele>305.0</ele><time>2026-04-19T07:56:19.026Z</time></trkpt><trkpt lat="43.5427304" lon="12.6676272"><ele>305.0</ele><time>2026-04-19T07:56:20.022Z</time></trkpt><trkpt lat="43.5426829" lon="12.6679898"><ele>304.5</ele><time>2026-04-19T07:56:21.026Z</time></trkpt><trkpt lat="43.5425896" lon="12.6683486"><ele>304.0</ele><time>2026-04-19T07:56:22.019Z</time></trkpt><trkpt lat="43.5424819" lon="12.6686891"><ele>304.0</ele><time>2026-04-19T07:56:23.015Z</time></trkpt><trkpt lat="43.5423774" lon="12.6690241"><ele>304.0</ele><time>2026-04-19T07:56:24.015Z</time></trkpt><trkpt lat="43.5422591" lon="12.6693687"><ele>303.0</ele><time>2026-04-19T07:56:25.022Z</time></trkpt><trkpt lat="43.5421372" lon="12.6697068"><ele>302.0</ele><time>2026-04-19T07:56:26.019Z</time></trkpt><trkpt lat="43.5420124" lon="12.6700224"><ele>299.0</ele><time>2026-04-19T07:56:27.021Z</time></trkpt><trkpt lat="43.5418851" lon="12.6703311"><ele>296.0</ele><time>2026-04-19T07:56:28.021Z</time></trkpt><trkpt lat="43.5417527" lon="12.6706308"><ele>296.0</ele><time>2026-04-19T07:56:29.022Z</time></trkpt><trkpt lat="43.5416273" lon="12.6709187"><ele>296.0</ele><time>2026-04-19T07:56:30.018Z</time></trkpt><trkpt lat="43.5415075" lon="12.6712042"><ele>298.0</ele><time>2026-04-19T07:56:31.014Z</time></trkpt><trkpt lat="43.5413891" lon="12.6714725"><ele>300.0</ele><time>2026-04-19T07:56:32.008Z</time></trkpt><trkpt lat="43.5412779" lon="12.6717231"><ele>302.0</ele><time>2026-04-19T07:56:33.014Z</time></trkpt><trkpt lat="43.5411792" lon="12.6719373"><ele>302.0</ele><time>2026-04-19T07:56:34.012Z</time></trkpt><trkpt lat="43.541094" lon="12.6721632"><ele>302.0</ele><time>2026-04-19T07:56:35.006Z</time></trkpt><trkpt lat="43.5410264" lon="12.6723868"><ele>302.0</ele><time>2026-04-19T07:56:36.012Z</time></trkpt><trkpt lat="43.5409778" lon="12.6726574"><ele>304.0</ele><time>2026-04-19T07:56:37.016Z</time></trkpt><trkpt lat="43.5409474" lon="12.6729526"><ele>306.0</ele><time>2026-04-19T07:56:38.013Z</time></trkpt><trkpt lat="43.5409066" lon="12.6732613"><ele>308.0</ele><time>2026-04-19T07:56:39.01Z</time></trkpt><trkpt lat="43.5408719" lon="12.6736012"><ele>310.5</ele><time>2026-04-19T07:56:40.017Z</time></trkpt><trkpt lat="43.540851" lon="12.6739171"><ele>313.0</ele><time>2026-04-19T07:56:41.016Z</time></trkpt><trkpt lat="43.5408334" lon="12.6742294"><ele>313.66666666666663</ele><time>2026-04-19T07:56:42.01Z</time></trkpt><trkpt lat="43.5408062" lon="12.6745503"><ele>314.3333333333333</ele><time>2026-04-19T07:56:43.038Z</time></trkpt><trkpt lat="43.5407917" lon="12.6748326"><ele>315.0</ele><time>2026-04-19T07:56:44.026Z</time></trkpt><trkpt lat="43.5407843" lon="12.675089"><ele>316.0</ele><time>2026-04-19T07:56:45.028Z</time></trkpt><trkpt lat="43.5407458" lon="12.6752966"><ele>317.0</ele><time>2026-04-19T07:56:46.016Z</time></trkpt><trkpt lat="43.540678" lon="12.6754751"><ele>318.0</ele><time>2026-04-19T07:56:47.021Z</time></trkpt><trkpt lat="43.5406071" lon="12.6755975"><ele>319.0</ele><time>2026-04-19T07:56:48.025Z</time></trkpt><trkpt lat="43.5405356" lon="12.6756652"><ele>319.0</ele><time>2026-04-19T07:56:49.026Z</time></trkpt><trkpt lat="43.5404684" lon="12.6757795"><ele>319.0</ele><time>2026-04-19T07:56:51.017Z</time></trkpt><trkpt lat="43.5404757" lon="12.6759353"><ele>319.0</ele><time>2026-04-19T07:56:53.018Z</time></trkpt><trkpt lat="43.540523" lon="12.676024"><ele>319.0</ele><time>2026-04-19T07:56:55.023Z</time></trkpt><trkpt lat="43.5405818" lon="12.6761292"><ele>319.0</ele><time>2026-04-19T07:57:11.04Z</time></trkpt><trkpt lat="43.5406218" lon="12.676247"><ele>319.0</ele><time>2026-04-19T07:57:12.026Z</time></trkpt><trkpt lat="43.5406309" lon="12.6763998"><ele>319.0</ele><time>2026-04-19T07:57:13.021Z</time></trkpt><trkpt lat="43.5406201" lon="12.6765836"><ele>319.0</ele><time>2026-04-19T07:57:14.028Z</time></trkpt><trkpt lat="43.5406086" lon="12.6767734"><ele>319.0</ele><time>2026-04-19T07:57:15.02Z</time></trkpt><trkpt lat="43.5405952" lon="12.6769645"><ele>319.0</ele><time>2026-04-19T07:57:16.015Z</time></trkpt><trkpt lat="43.540582" lon="12.6771589"><ele>319.0</ele><time>2026-04-19T07:57:17.017Z</time></trkpt><trkpt lat="43.5405603" lon="12.6773653"><ele>319.0</ele><time>2026-04-19T07:57:18.013Z</time></trkpt><trkpt lat="43.5405366" lon="12.677573"><ele>319.0</ele><time>2026-04-19T07:57:19.026Z</time></trkpt><trkpt lat="43.5405168" lon="12.6777966"><ele>319.3333333333333</ele><time>2026-04-19T07:57:20.017Z</time></trkpt><trkpt lat="43.5404947" lon="12.6780176"><ele>319.6666666666667</ele><time>2026-04-19T07:57:21.026Z</time></trkpt><trkpt lat="43.5404807" lon="12.6782315"><ele>320.0</ele><time>2026-04-19T07:57:22.029Z</time></trkpt><trkpt lat="43.5404577" lon="12.6784481"><ele>320.33333333333337</ele><time>2026-04-19T07:57:23.024Z</time></trkpt><trkpt lat="43.5404499" lon="12.6786613"><ele>320.6666666666667</ele><time>2026-04-19T07:57:24.029Z</time></trkpt><trkpt lat="43.5404338" lon="12.6788908"><ele>321.0</ele><time>2026-04-19T07:57:25.025Z</time></trkpt><trkpt lat="43.5404155" lon="12.6791437"><ele>321.0</ele><time>2026-04-19T07:57:26.02Z</time></trkpt><trkpt lat="43.5403973" lon="12.6793969"><ele>321.0</ele><time>2026-04-19T07:57:27.017Z</time></trkpt><trkpt lat="43.5403839" lon="12.6796545"><ele>321.0</ele><time>2026-04-19T07:57:28.022Z</time></trkpt><trkpt lat="43.5403557" lon="12.6799236"><ele>323.3333333333333</ele><time>2026-04-19T07:57:29.024Z</time></trkpt><trkpt lat="43.5403238" lon="12.6801989"><ele>325.66666666666663</ele><time>2026-04-19T07:57:30.024Z</time></trkpt><trkpt lat="43.5403042" lon="12.6804673"><ele>328.0</ele><time>2026-04-19T07:57:31.021Z</time></trkpt><trkpt lat="43.5402891" lon="12.6807256"><ele>328.0</ele><time>2026-04-19T07:57:32.02Z</time></trkpt><trkpt lat="43.5402541" lon="12.6810112"><ele>328.0</ele><time>2026-04-19T07:57:33.017Z</time></trkpt><trkpt lat="43.5402267" lon="12.6813004"><ele>328.0</ele><time>2026-04-19T07:57:34.028Z</time></trkpt><trkpt lat="43.5402022" lon="12.6815935"><ele>327.0</ele><time>2026-04-19T07:57:35.023Z</time></trkpt><trkpt lat="43.5401739" lon="12.6818925"><ele>326.0</ele><time>2026-04-19T07:57:36.026Z</time></trkpt><trkpt lat="43.5401479" lon="12.6822089"><ele>325.0</ele><time>2026-04-19T07:57:37.023Z</time></trkpt><trkpt lat="43.54012" lon="12.682534"><ele>326.0</ele><time>2026-04-19T07:57:38.026Z</time></trkpt><trkpt lat="43.5400888" lon="12.6828731"><ele>327.0</ele><time>2026-04-19T07:57:39.029Z</time></trkpt><trkpt lat="43.5400653" lon="12.6832144"><ele>327.0</ele><time>2026-04-19T07:57:40.03Z</time></trkpt><trkpt lat="43.5400362" lon="12.6835648"><ele>327.0</ele><time>2026-04-19T07:57:41.031Z</time></trkpt><trkpt lat="43.5400057" lon="12.6839132"><ele>327.5</ele><time>2026-04-19T07:57:42.032Z</time></trkpt><trkpt lat="43.5399734" lon="12.6842624"><ele>328.0</ele><time>2026-04-19T07:57:43.03Z</time></trkpt><trkpt lat="43.539948" lon="12.6846136"><ele>328.0</ele><time>2026-04-19T07:57:44.031Z</time></trkpt><trkpt lat="43.5399171" lon="12.6849714"><ele>328.0</ele><time>2026-04-19T07:57:45.045Z</time></trkpt><trkpt lat="43.5398834" lon="12.6853419"><ele>327.5</ele><time>2026-04-19T07:57:46.032Z</time></trkpt><trkpt lat="43.5398561" lon="12.6857085"><ele>327.0</ele><time>2026-04-19T07:57:47.033Z</time></trkpt><trkpt lat="43.5398247" lon="12.6860802"><ele>328.5</ele><time>2026-04-19T07:57:48.032Z</time></trkpt><trkpt lat="43.5397974" lon="12.686456"><ele>330.0</ele><time>2026-04-19T07:57:49.032Z</time></trkpt><trkpt lat="43.539773" lon="12.6868242"><ele>331.5</ele><time>2026-04-19T07:57:50.032Z</time></trkpt><trkpt lat="43.5397438" lon="12.6871907"><ele>333.0</ele><time>2026-04-19T07:57:51.028Z</time></trkpt><trkpt lat="43.5397034" lon="12.6875665"><ele>333.5</ele><time>2026-04-19T07:57:52.031Z</time></trkpt><trkpt lat="43.5396694" lon="12.687957"><ele>334.0</ele><time>2026-04-19T07:57:53.029Z</time></trkpt><trkpt lat="43.5396382" lon="12.6883517"><ele>333.5</ele><time>2026-04-19T07:57:54.037Z</time></trkpt><trkpt lat="43.5395976" lon="12.6887481"><ele>333.0</ele><time>2026-04-19T07:57:55.031Z</time></trkpt><trkpt lat="43.5395705" lon="12.6891318"><ele>334.5</ele><time>2026-04-19T07:57:56.027Z</time></trkpt><trkpt lat="43.5395407" lon="12.6895433"><ele>336.0</ele><time>2026-04-19T07:57:57.026Z</time></trkpt><trkpt lat="43.5395058" lon="12.6899566"><ele>336.5</ele><time>2026-04-19T07:57:58.021Z</time></trkpt><trkpt lat="43.5394699" lon="12.690353"><ele>337.0</ele><time>2026-04-19T07:57:59.033Z</time></trkpt><trkpt lat="43.5394308" lon="12.6907636"><ele>337.5</ele><time>2026-04-19T07:58:00.027Z</time></trkpt><trkpt lat="43.5393938" lon="12.6911552"><ele>338.0</ele><time>2026-04-19T07:58:01.02Z</time></trkpt><trkpt lat="43.5393628" lon="12.6915829"><ele>338.0</ele><time>2026-04-19T07:58:02.03Z</time></trkpt><trkpt lat="43.5393303" lon="12.6919954"><ele>338.0</ele><time>2026-04-19T07:58:03.024Z</time></trkpt><trkpt lat="43.5393047" lon="12.692387"><ele>338.5</ele><time>2026-04-19T07:58:04.033Z</time></trkpt><trkpt lat="43.5392761" lon="12.6927761"><ele>339.0</ele><time>2026-04-19T07:58:05.026Z</time></trkpt><trkpt lat="43.5392388" lon="12.6931537"><ele>339.0</ele><time>2026-04-19T07:58:06.027Z</time></trkpt><trkpt lat="43.5392136" lon="12.6935377"><ele>339.0</ele><time>2026-04-19T07:58:07.031Z</time></trkpt><trkpt lat="43.5391862" lon="12.6938641"><ele>338.5</ele><time>2026-04-19T07:58:08.02Z</time></trkpt><trkpt lat="43.5391651" lon="12.6942011"><ele>338.0</ele><time>2026-04-19T07:58:09.026Z</time></trkpt><trkpt lat="43.5391395" lon="12.6945447"><ele>337.5</ele><time>2026-04-19T07:58:10.018Z</time></trkpt><trkpt lat="43.5391122" lon="12.6948631"><ele>337.0</ele><time>2026-04-19T07:58:11.006Z</time></trkpt><trkpt lat="43.539073" lon="12.6951659"><ele>334.5</ele><time>2026-04-19T07:58:12.024Z</time></trkpt><trkpt lat="43.5390122" lon="12.6954773"><ele>332.0</ele><time>2026-04-19T07:58:13.018Z</time></trkpt><trkpt lat="43.5388889" lon="12.6957647"><ele>332.0</ele><time>2026-04-19T07:58:14.026Z</time></trkpt><trkpt lat="43.5387369" lon="12.696026"><ele>332.0</ele><time>2026-04-19T07:58:15.017Z</time></trkpt><trkpt lat="43.5386061" lon="12.6962701"><ele>332.0</ele><time>2026-04-19T07:58:16.027Z</time></trkpt><trkpt lat="43.5384794" lon="12.6964989"><ele>332.0</ele><time>2026-04-19T07:58:17.018Z</time></trkpt><trkpt lat="43.5383646" lon="12.6967039"><ele>332.0</ele><time>2026-04-19T07:58:18.027Z</time></trkpt><trkpt lat="43.5382623" lon="12.6968919"><ele>330.5</ele><time>2026-04-19T07:58:19.029Z</time></trkpt><trkpt lat="43.5381854" lon="12.6970588"><ele>329.0</ele><time>2026-04-19T07:58:20.031Z</time></trkpt><trkpt lat="43.5381332" lon="12.697199"><ele>327.5</ele><time>2026-04-19T07:58:21.024Z</time></trkpt><trkpt lat="43.5381127" lon="12.6973281"><ele>326.0</ele><time>2026-04-19T07:58:22.026Z</time></trkpt><trkpt lat="43.5381447" lon="12.6974937"><ele>326.0</ele><time>2026-04-19T07:58:23.018Z</time></trkpt><trkpt lat="43.5382084" lon="12.6975867"><ele>326.0</ele><time>2026-04-19T07:58:24.021Z</time></trkpt><trkpt lat="43.5383619" lon="12.6976272"><ele>326.0</ele><time>2026-04-19T07:58:25.026Z</time></trkpt><trkpt lat="43.5385588" lon="12.697656"><ele>326.0</ele><time>2026-04-19T07:58:26.013Z</time></trkpt><trkpt lat="43.5387653" lon="12.697667"><ele>324.33333333333337</ele><time>2026-04-19T07:58:27.021Z</time></trkpt><trkpt lat="43.5389778" lon="12.6977196"><ele>322.6666666666667</ele><time>2026-04-19T07:58:28.017Z</time></trkpt><trkpt lat="43.5391527" lon="12.6977498"><ele>321.0</ele><time>2026-04-19T07:58:29.021Z</time></trkpt><trkpt lat="43.539318" lon="12.6977373"><ele>321.0</ele><time>2026-04-19T07:58:30.016Z</time></trkpt><trkpt lat="43.5394681" lon="12.6976669"><ele>321.0</ele><time>2026-04-19T07:58:31.021Z</time></trkpt><trkpt lat="43.5396192" lon="12.6975355"><ele>321.0</ele><time>2026-04-19T07:58:32.012Z</time></trkpt><trkpt lat="43.5397758" lon="12.6973519"><ele>317.0</ele><time>2026-04-19T07:58:33.02Z</time></trkpt><trkpt lat="43.5399134" lon="12.6972097"><ele>313.0</ele><time>2026-04-19T07:58:34.028Z</time></trkpt><trkpt lat="43.5400367" lon="12.6971021"><ele>309.0</ele><time>2026-04-19T07:58:35.019Z</time></trkpt><trkpt lat="43.540166" lon="12.6970458"><ele>309.0</ele><time>2026-04-19T07:58:36.025Z</time></trkpt><trkpt lat="43.5402974" lon="12.6970706"><ele>309.0</ele><time>2026-04-19T07:58:37.023Z</time></trkpt><trkpt lat="43.5404471" lon="12.6971997"><ele>309.0</ele><time>2026-04-19T07:58:38.009Z</time></trkpt><trkpt lat="43.5406195" lon="12.6972823"><ele>308.3333333333333</ele><time>2026-04-19T07:58:39.017Z</time></trkpt><trkpt lat="43.5408183" lon="12.6972703"><ele>307.66666666666663</ele><time>2026-04-19T07:58:40.021Z</time></trkpt><trkpt lat="43.5409976" lon="12.6972249"><ele>307.0</ele><time>2026-04-19T07:58:41.013Z</time></trkpt><trkpt lat="43.5411557" lon="12.6971885"><ele>309.0</ele><time>2026-04-19T07:58:42.011Z</time></trkpt><trkpt lat="43.5413039" lon="12.6972007"><ele>311.0</ele><time>2026-04-19T07:58:43.012Z</time></trkpt><trkpt lat="43.5414313" lon="12.6973139"><ele>313.0</ele><time>2026-04-19T07:58:44.011Z</time></trkpt><trkpt lat="43.5415324" lon="12.6975168"><ele>313.0</ele><time>2026-04-19T07:58:45.011Z</time></trkpt><trkpt lat="43.5415877" lon="12.6977398"><ele>313.0</ele><time>2026-04-19T07:58:46.007Z</time></trkpt><trkpt lat="43.5416341" lon="12.6979759"><ele>313.0</ele><time>2026-04-19T07:58:47.026Z</time></trkpt><trkpt lat="43.5416373" lon="12.6982391"><ele>310.0</ele><time>2026-04-19T07:58:48.005Z</time></trkpt><trkpt lat="43.5417498" lon="12.6984224"><ele>307.0</ele><time>2026-04-19T07:58:49.016Z</time></trkpt><trkpt lat="43.5419148" lon="12.6985425"><ele>304.0</ele><time>2026-04-19T07:58:50.013Z</time></trkpt><trkpt lat="43.5421034" lon="12.6986711"><ele>302.75</ele><time>2026-04-19T07:58:51.022Z</time></trkpt><trkpt lat="43.5422664" lon="12.6987581"><ele>301.5</ele><time>2026-04-19T07:58:52.01Z</time></trkpt><trkpt lat="43.5423955" lon="12.6988143"><ele>300.25</ele><time>2026-04-19T07:58:53.011Z</time></trkpt><trkpt lat="43.5424811" lon="12.6989151"><ele>299.0</ele><time>2026-04-19T07:58:54.014Z</time></trkpt><trkpt lat="43.5425099" lon="12.6990177"><ele>299.0</ele><time>2026-04-19T07:58:55.008Z</time></trkpt><trkpt lat="43.5424474" lon="12.6991183"><ele>299.0</ele><time>2026-04-19T07:58:56.018Z</time></trkpt><trkpt lat="43.5423306" lon="12.699136"><ele>299.0</ele><time>2026-04-19T07:58:57.017Z</time></trkpt><trkpt lat="43.5422094" lon="12.6990644"><ele>299.0</ele><time>2026-04-19T07:58:58.009Z</time></trkpt><trkpt lat="43.5420542" lon="12.6989283"><ele>295.6666666666667</ele><time>2026-04-19T07:58:59.002Z</time></trkpt><trkpt lat="43.541885" lon="12.698847"><ele>292.3333333333333</ele><time>2026-04-19T07:59:00.017Z</time></trkpt><trkpt lat="43.5416968" lon="12.6988502"><ele>289.0</ele><time>2026-04-19T07:59:01.005Z</time></trkpt><trkpt lat="43.5415109" lon="12.6989296"><ele>289.0</ele><time>2026-04-19T07:59:02.01Z</time></trkpt><trkpt lat="43.5413552" lon="12.6990897"><ele>289.0</ele><time>2026-04-19T07:59:03.005Z</time></trkpt><trkpt lat="43.5412351" lon="12.6993284"><ele>289.0</ele><time>2026-04-19T07:59:03.998Z</time></trkpt><trkpt lat="43.5411762" lon="12.6995788"><ele>289.66666666666663</ele><time>2026-04-19T07:59:05.01Z</time></trkpt><trkpt lat="43.5411699" lon="12.6998322"><ele>290.3333333333333</ele><time>2026-04-19T07:59:06.013Z</time></trkpt><trkpt lat="43.5412105" lon="12.7000869"><ele>291.0</ele><time>2026-04-19T07:59:07.01Z</time></trkpt><trkpt lat="43.5412976" lon="12.7003811"><ele>291.0</ele><time>2026-04-19T07:59:08.007Z</time></trkpt><trkpt lat="43.5414309" lon="12.7006521"><ele>291.0</ele><time>2026-04-19T07:59:09.003Z</time></trkpt><trkpt lat="43.5415825" lon="12.7009141"><ele>297.5</ele><time>2026-04-19T07:59:10.002Z</time></trkpt><trkpt lat="43.5417509" lon="12.701177"><ele>304.0</ele><time>2026-04-19T07:59:11.005Z</time></trkpt><trkpt lat="43.5419118" lon="12.701431"><ele>304.0</ele><time>2026-04-19T07:59:12.007Z</time></trkpt><trkpt lat="43.542042" lon="12.70166"><ele>304.0</ele><time>2026-04-19T07:59:13.015Z</time></trkpt><trkpt lat="43.542128" lon="12.7018918"><ele>304.0</ele><time>2026-04-19T07:59:14.018Z</time></trkpt><trkpt lat="43.5421697" lon="12.7021591"><ele>303.3333333333333</ele><time>2026-04-19T07:59:15.015Z</time></trkpt><trkpt lat="43.5421532" lon="12.7024303"><ele>302.6666666666667</ele><time>2026-04-19T07:59:16.021Z</time></trkpt><trkpt lat="43.5420958" lon="12.702707"><ele>302.0</ele><time>2026-04-19T07:59:17.011Z</time></trkpt><trkpt lat="43.542098" lon="12.7029631"><ele>302.0</ele><time>2026-04-19T07:59:18.032Z</time></trkpt><trkpt lat="43.5421629" lon="12.7032027"><ele>302.0</ele><time>2026-04-19T07:59:19.019Z</time></trkpt><trkpt lat="43.5422863" lon="12.7034496"><ele>302.0</ele><time>2026-04-19T07:59:20.023Z</time></trkpt><trkpt lat="43.5424478" lon="12.7036796"><ele>304.6666666666667</ele><time>2026-04-19T07:59:21.015Z</time></trkpt><trkpt lat="43.5425965" lon="12.7039241"><ele>307.3333333333333</ele><time>2026-04-19T07:59:22.012Z</time></trkpt><trkpt lat="43.5426882" lon="12.7041696"><ele>310.0</ele><time>2026-04-19T07:59:23.026Z</time></trkpt><trkpt lat="43.5426821" lon="12.7044117"><ele>310.0</ele><time>2026-04-19T07:59:24.023Z</time></trkpt><trkpt lat="43.542623" lon="12.7046599"><ele>310.0</ele><time>2026-04-19T07:59:25.023Z</time></trkpt><trkpt lat="43.5424844" lon="12.7048955"><ele>310.0</ele><time>2026-04-19T07:59:26.026Z</time></trkpt><trkpt lat="43.5423087" lon="12.7051383"><ele>309.5</ele><time>2026-04-19T07:59:27.026Z</time></trkpt><trkpt lat="43.5421361" lon="12.7054102"><ele>309.0</ele><time>2026-04-19T07:59:28.023Z</time></trkpt><trkpt lat="43.5419699" lon="12.7057153"><ele>309.0</ele><time>2026-04-19T07:59:29.012Z</time></trkpt><trkpt lat="43.5418054" lon="12.7060321"><ele>309.0</ele><time>2026-04-19T07:59:30.02Z</time></trkpt><trkpt lat="43.5416566" lon="12.7063414"><ele>308.0</ele><time>2026-04-19T07:59:31.02Z</time></trkpt><trkpt lat="43.5415384" lon="12.706648"><ele>307.0</ele><time>2026-04-19T07:59:32.026Z</time></trkpt><trkpt lat="43.5414564" lon="12.7069673"><ele>306.0</ele><time>2026-04-19T07:59:33.029Z</time></trkpt><trkpt lat="43.5414217" lon="12.7073199"><ele>305.0</ele><time>2026-04-19T07:59:34.034Z</time></trkpt><trkpt lat="43.5414175" lon="12.7076839"><ele>305.5</ele><time>2026-04-19T07:59:35.019Z</time></trkpt><trkpt lat="43.5414075" lon="12.7080287"><ele>306.0</ele><time>2026-04-19T07:59:36.025Z</time></trkpt><trkpt lat="43.541393" lon="12.7083407"><ele>306.0</ele><time>2026-04-19T07:59:37.035Z</time></trkpt><trkpt lat="43.5413681" lon="12.7086147"><ele>306.0</ele><time>2026-04-19T07:59:38.031Z</time></trkpt><trkpt lat="43.5413354" lon="12.708826"><ele>306.0</ele><time>2026-04-19T07:59:39.038Z</time></trkpt><trkpt lat="43.5412615" lon="12.7090055"><ele>307.3333333333333</ele><time>2026-04-19T07:59:40.026Z</time></trkpt><trkpt lat="43.5411458" lon="12.7091323"><ele>308.66666666666663</ele><time>2026-04-19T07:59:41.027Z</time></trkpt><trkpt lat="43.5409798" lon="12.7091776"><ele>310.0</ele><time>2026-04-19T07:59:42.033Z</time></trkpt><trkpt lat="43.5407971" lon="12.709163"><ele>310.0</ele><time>2026-04-19T07:59:43.02Z</time></trkpt><trkpt lat="43.5405712" lon="12.7090898"><ele>310.0</ele><time>2026-04-19T07:59:44.006Z</time></trkpt><trkpt lat="43.5403503" lon="12.7090113"><ele>308.66666666666663</ele><time>2026-04-19T07:59:45.023Z</time></trkpt><trkpt lat="43.5401469" lon="12.708979"><ele>307.3333333333333</ele><time>2026-04-19T07:59:46.029Z</time></trkpt><trkpt lat="43.539977" lon="12.7089688"><ele>306.0</ele><time>2026-04-19T07:59:47.026Z</time></trkpt><trkpt lat="43.5398182" lon="12.7089704"><ele>306.0</ele><time>2026-04-19T07:59:48.031Z</time></trkpt><trkpt lat="43.5396806" lon="12.7090456"><ele>306.0</ele><time>2026-04-19T07:59:49.041Z</time></trkpt><trkpt lat="43.5395705" lon="12.7091853"><ele>306.0</ele><time>2026-04-19T07:59:50.03Z</time></trkpt><trkpt lat="43.5394966" lon="12.7094223"><ele>307.3333333333333</ele><time>2026-04-19T07:59:51.032Z</time></trkpt><trkpt lat="43.5394268" lon="12.7097206"><ele>308.66666666666663</ele><time>2026-04-19T07:59:52.024Z</time></trkpt><trkpt lat="43.539432" lon="12.7100206"><ele>310.0</ele><time>2026-04-19T07:59:53.025Z</time></trkpt><trkpt lat="43.539487" lon="12.7103455"><ele>307.0</ele><time>2026-04-19T07:59:54.026Z</time></trkpt><trkpt lat="43.5395761" lon="12.7107003"><ele>304.0</ele><time>2026-04-19T07:59:55.026Z</time></trkpt><trkpt lat="43.5396593" lon="12.7110763"><ele>304.0</ele><time>2026-04-19T07:59:56.022Z</time></trkpt><trkpt lat="43.5397585" lon="12.7114436"><ele>304.0</ele><time>2026-04-19T07:59:57.024Z</time></trkpt><trkpt lat="43.5398488" lon="12.7118317"><ele>304.0</ele><time>2026-04-19T07:59:58.016Z</time></trkpt><trkpt lat="43.5399222" lon="12.712215"><ele>304.0</ele><time>2026-04-19T07:59:59.03Z</time></trkpt><trkpt lat="43.5400002" lon="12.7125752"><ele>302.0</ele><time>2026-04-19T08:00:00.023Z</time></trkpt><trkpt lat="43.5400709" lon="12.7129141"><ele>300.0</ele><time>2026-04-19T08:00:01.022Z</time></trkpt><trkpt lat="43.5401428" lon="12.7132327"><ele>300.0</ele><time>2026-04-19T08:00:02.019Z</time></trkpt><trkpt lat="43.5402267" lon="12.7135215"><ele>300.0</ele><time>2026-04-19T08:00:03.03Z</time></trkpt><trkpt lat="43.5403647" lon="12.7137925"><ele>299.0</ele><time>2026-04-19T08:00:04.028Z</time></trkpt><trkpt lat="43.5405367" lon="12.7140563"><ele>298.0</ele><time>2026-04-19T08:00:05.026Z</time></trkpt><trkpt lat="43.5407286" lon="12.7143173"><ele>294.5</ele><time>2026-04-19T08:00:06.018Z</time></trkpt><trkpt lat="43.5409334" lon="12.7145752"><ele>291.0</ele><time>2026-04-19T08:00:07.015Z</time></trkpt><trkpt lat="43.5411528" lon="12.7148521"><ele>292.5</ele><time>2026-04-19T08:00:08.017Z</time></trkpt><trkpt lat="43.5413679" lon="12.7151329"><ele>294.0</ele><time>2026-04-19T08:00:09.011Z</time></trkpt><trkpt lat="43.5415947" lon="12.7153643"><ele>289.0</ele><time>2026-04-19T08:00:10.015Z</time></trkpt><trkpt lat="43.5418269" lon="12.7155655"><ele>284.0</ele><time>2026-04-19T08:00:11.013Z</time></trkpt><trkpt lat="43.5420436" lon="12.715743"><ele>286.5</ele><time>2026-04-19T08:00:12.018Z</time></trkpt><trkpt lat="43.5422428" lon="12.7158862"><ele>289.0</ele><time>2026-04-19T08:00:13.017Z</time></trkpt><trkpt lat="43.5424458" lon="12.7160268"><ele>289.0</ele><time>2026-04-19T08:00:14.009Z</time></trkpt><trkpt lat="43.5426554" lon="12.7160738"><ele>289.0</ele><time>2026-04-19T08:00:15.014Z</time></trkpt><trkpt lat="43.5428531" lon="12.7160165"><ele>289.0</ele><time>2026-04-19T08:00:16.005Z</time></trkpt><trkpt lat="43.5430251" lon="12.7159084"><ele>290.0</ele><time>2026-04-19T08:00:17.006Z</time></trkpt><trkpt lat="43.5431889" lon="12.7158151"><ele>291.0</ele><time>2026-04-19T08:00:18.006Z</time></trkpt><trkpt lat="43.5433593" lon="12.7157651"><ele>292.0</ele><time>2026-04-19T08:00:19.014Z</time></trkpt><trkpt lat="43.5435245" lon="12.7158497"><ele>292.0</ele><time>2026-04-19T08:00:20.026Z</time></trkpt><trkpt lat="43.5436809" lon="12.7159969"><ele>292.0</ele><time>2026-04-19T08:00:21.012Z</time></trkpt><trkpt lat="43.5438097" lon="12.7161749"><ele>292.0</ele><time>2026-04-19T08:00:22.024Z</time></trkpt><trkpt lat="43.5439113" lon="12.7164101"><ele>295.3333333333333</ele><time>2026-04-19T08:00:23.014Z</time></trkpt><trkpt lat="43.543963" lon="12.7166923"><ele>298.6666666666667</ele><time>2026-04-19T08:00:24.024Z</time></trkpt><trkpt lat="43.5440119" lon="12.7170131"><ele>302.0</ele><time>2026-04-19T08:00:25.015Z</time></trkpt><trkpt lat="43.5440625" lon="12.7173555"><ele>302.5</ele><time>2026-04-19T08:00:26.017Z</time></trkpt><trkpt lat="43.544125" lon="12.7177264"><ele>303.0</ele><time>2026-04-19T08:00:27.022Z</time></trkpt><trkpt lat="43.5441843" lon="12.7180923"><ele>306.0</ele><time>2026-04-19T08:00:28.019Z</time></trkpt><trkpt lat="43.5442432" lon="12.7184347"><ele>309.0</ele><time>2026-04-19T08:00:29.026Z</time></trkpt><trkpt lat="43.5443059" lon="12.7187205"><ele>310.0</ele><time>2026-04-19T08:00:30.029Z</time></trkpt><trkpt lat="43.5443491" lon="12.7189597"><ele>311.0</ele><time>2026-04-19T08:00:31.011Z</time></trkpt><trkpt lat="43.544395" lon="12.719177"><ele>312.0</ele><time>2026-04-19T08:00:32.016Z</time></trkpt><trkpt lat="43.5444186" lon="12.719353"><ele>312.5</ele><time>2026-04-19T08:00:33.025Z</time></trkpt><trkpt lat="43.5444085" lon="12.7195071"><ele>313.0</ele><time>2026-04-19T08:00:34.02Z</time></trkpt><trkpt lat="43.5443422" lon="12.719626"><ele>313.5</ele><time>2026-04-19T08:00:35.013Z</time></trkpt><trkpt lat="43.5442183" lon="12.7196739"><ele>314.0</ele><time>2026-04-19T08:00:36.021Z</time></trkpt><trkpt lat="43.5440607" lon="12.7196449"><ele>314.0</ele><time>2026-04-19T08:00:37.022Z</time></trkpt><trkpt lat="43.5438904" lon="12.7195662"><ele>314.0</ele><time>2026-04-19T08:00:38.021Z</time></trkpt><trkpt lat="43.5437309" lon="12.719455"><ele>314.0</ele><time>2026-04-19T08:00:39.01Z</time></trkpt><trkpt lat="43.5435801" lon="12.719371"><ele>314.4</ele><time>2026-04-19T08:00:40.021Z</time></trkpt><trkpt lat="43.5434697" lon="12.7193108"><ele>314.79999999999995</ele><time>2026-04-19T08:00:41.021Z</time></trkpt><trkpt lat="43.5433715" lon="12.7193015"><ele>315.20000000000005</ele><time>2026-04-19T08:00:42.024Z</time></trkpt><trkpt lat="43.5432805" lon="12.7193784"><ele>315.6</ele><time>2026-04-19T08:00:43.026Z</time></trkpt><trkpt lat="43.5432384" lon="12.7194901"><ele>316.0</ele><time>2026-04-19T08:00:44.025Z</time></trkpt><trkpt lat="43.5432572" lon="12.7196413"><ele>317.3333333333333</ele><time>2026-04-19T08:00:45.029Z</time></trkpt><trkpt lat="43.5433309" lon="12.7198282"><ele>318.6666666666667</ele><time>2026-04-19T08:00:46.024Z</time></trkpt><trkpt lat="43.5434306" lon="12.7200162"><ele>320.0</ele><time>2026-04-19T08:00:47.018Z</time></trkpt><trkpt lat="43.5435305" lon="12.7202412"><ele>320.5</ele><time>2026-04-19T08:00:48.018Z</time></trkpt><trkpt lat="43.5436388" lon="12.7205153"><ele>321.0</ele><time>2026-04-19T08:00:49.028Z</time></trkpt><trkpt lat="43.5437659" lon="12.7208112"><ele>323.5</ele><time>2026-04-19T08:00:50.017Z</time></trkpt><trkpt lat="43.5438819" lon="12.7210877"><ele>326.0</ele><time>2026-04-19T08:00:51.028Z</time></trkpt><trkpt lat="43.5439854" lon="12.7213661"><ele>326.0</ele><time>2026-04-19T08:00:52.028Z</time></trkpt><trkpt lat="43.5440425" lon="12.7216211"><ele>326.0</ele><time>2026-04-19T08:00:53.026Z</time></trkpt><trkpt lat="43.5440245" lon="12.7218868"><ele>326.0</ele><time>2026-04-19T08:00:54.037Z</time></trkpt><trkpt lat="43.5439928" lon="12.7221601"><ele>329.0</ele><time>2026-04-19T08:00:55.022Z</time></trkpt><trkpt lat="43.5439648" lon="12.722422"><ele>332.0</ele><time>2026-04-19T08:00:56.021Z</time></trkpt><trkpt lat="43.5439647" lon="12.7226752"><ele>335.0</ele><time>2026-04-19T08:00:57.033Z</time></trkpt><trkpt lat="43.5440466" lon="12.7229369"><ele>338.5</ele><time>2026-04-19T08:00:58.034Z</time></trkpt><trkpt lat="43.5441724" lon="12.7231866"><ele>342.0</ele><time>2026-04-19T08:00:59.028Z</time></trkpt><trkpt lat="43.5443261" lon="12.7234639"><ele>341.5</ele><time>2026-04-19T08:01:00.029Z</time></trkpt><trkpt lat="43.5444803" lon="12.7237888"><ele>341.0</ele><time>2026-04-19T08:01:01.011Z</time></trkpt><trkpt lat="43.5446298" lon="12.7240867"><ele>341.0</ele><time>2026-04-19T08:01:02.025Z</time></trkpt><trkpt lat="43.5447543" lon="12.7243446"><ele>341.0</ele><time>2026-04-19T08:01:03.029Z</time></trkpt><trkpt lat="43.5448366" lon="12.72456"><ele>341.0</ele><time>2026-04-19T08:01:04.019Z</time></trkpt><trkpt lat="43.544916" lon="12.724756"><ele>344.25</ele><time>2026-04-19T08:01:05.027Z</time></trkpt><trkpt lat="43.5449271" lon="12.7249134"><ele>347.5</ele><time>2026-04-19T08:01:06.023Z</time></trkpt><trkpt lat="43.5448473" lon="12.7250488"><ele>350.75</ele><time>2026-04-19T08:01:07.025Z</time></trkpt><trkpt lat="43.5447349" lon="12.7251309"><ele>354.0</ele><time>2026-04-19T08:01:08.018Z</time></trkpt><trkpt lat="43.5445836" lon="12.7251535"><ele>354.6666666666667</ele><time>2026-04-19T08:01:09.001Z</time></trkpt><trkpt lat="43.5444091" lon="12.7251046"><ele>355.33333333333337</ele><time>2026-04-19T08:01:10.008Z</time></trkpt><trkpt lat="43.5442462" lon="12.7249771"><ele>356.0</ele><time>2026-04-19T08:01:11.011Z</time></trkpt><trkpt lat="43.544072" lon="12.7248717"><ele>356.0</ele><time>2026-04-19T08:01:12.013Z</time></trkpt><trkpt lat="43.5438672" lon="12.7248556"><ele>356.0</ele><time>2026-04-19T08:01:13.014Z</time></trkpt><trkpt lat="43.5437044" lon="12.7249168"><ele>356.0</ele><time>2026-04-19T08:01:14.02Z</time></trkpt><trkpt lat="43.5435288" lon="12.7250575"><ele>358.33333333333337</ele><time>2026-04-19T08:01:15.031Z</time></trkpt><trkpt lat="43.5433769" lon="12.7252659"><ele>360.6666666666667</ele><time>2026-04-19T08:01:16.022Z</time></trkpt><trkpt lat="43.5432758" lon="12.7255202"><ele>363.0</ele><time>2026-04-19T08:01:17.021Z</time></trkpt><trkpt lat="43.5432203" lon="12.7258436"><ele>365.5</ele><time>2026-04-19T08:01:18.026Z</time></trkpt><trkpt lat="43.5432045" lon="12.726209"><ele>368.0</ele><time>2026-04-19T08:01:19.024Z</time></trkpt><trkpt lat="43.5431916" lon="12.7265894"><ele>372.0</ele><time>2026-04-19T08:01:20.015Z</time></trkpt><trkpt lat="43.5431594" lon="12.7269494"><ele>376.0</ele><time>2026-04-19T08:01:21.015Z</time></trkpt><trkpt lat="43.543124" lon="12.7273079"><ele>376.0</ele><time>2026-04-19T08:01:22.028Z</time></trkpt><trkpt lat="43.5430834" lon="12.7276195"><ele>376.0</ele><time>2026-04-19T08:01:23.022Z</time></trkpt><trkpt lat="43.5429804" lon="12.7278757"><ele>376.0</ele><time>2026-04-19T08:01:24.02Z</time></trkpt><trkpt lat="43.5428319" lon="12.7281359"><ele>376.5</ele><time>2026-04-19T08:01:25.026Z</time></trkpt><trkpt lat="43.5426613" lon="12.7283958"><ele>377.0</ele><time>2026-04-19T08:01:26.012Z</time></trkpt><trkpt lat="43.5424924" lon="12.7286415"><ele>380.33333333333337</ele><time>2026-04-19T08:01:27.017Z</time></trkpt><trkpt lat="43.5423397" lon="12.7288518"><ele>383.6666666666667</ele><time>2026-04-19T08:01:28.009Z</time></trkpt><trkpt lat="43.5421869" lon="12.7290183"><ele>387.0</ele><time>2026-04-19T08:01:29.017Z</time></trkpt><trkpt lat="43.542029" lon="12.7291293"><ele>387.0</ele><time>2026-04-19T08:01:30.012Z</time></trkpt><trkpt lat="43.5418305" lon="12.7291586"><ele>387.0</ele><time>2026-04-19T08:01:31.018Z</time></trkpt><trkpt lat="43.5416142" lon="12.729128"><ele>387.0</ele><time>2026-04-19T08:01:32.017Z</time></trkpt><trkpt lat="43.5413827" lon="12.7290273"><ele>389.0</ele><time>2026-04-19T08:01:33.015Z</time></trkpt><trkpt lat="43.5411815" lon="12.7289016"><ele>391.0</ele><time>2026-04-19T08:01:34.014Z</time></trkpt><trkpt lat="43.5410003" lon="12.7288091"><ele>393.0</ele><time>2026-04-19T08:01:35.026Z</time></trkpt><trkpt lat="43.5408525" lon="12.7287825"><ele>393.0</ele><time>2026-04-19T08:01:36.026Z</time></trkpt><trkpt lat="43.5407085" lon="12.728823"><ele>393.0</ele><time>2026-04-19T08:01:37.029Z</time></trkpt><trkpt lat="43.5405694" lon="12.7289591"><ele>393.0</ele><time>2026-04-19T08:01:38.027Z</time></trkpt><trkpt lat="43.5404447" lon="12.7291583"><ele>396.5</ele><time>2026-04-19T08:01:39.035Z</time></trkpt><trkpt lat="43.5403072" lon="12.7294229"><ele>400.0</ele><time>2026-04-19T08:01:40.025Z</time></trkpt><trkpt lat="43.5401809" lon="12.7296753"><ele>400.0</ele><time>2026-04-19T08:01:41.038Z</time></trkpt><trkpt lat="43.5400676" lon="12.729864"><ele>400.0</ele><time>2026-04-19T08:01:42.033Z</time></trkpt><trkpt lat="43.5399032" lon="12.7299723"><ele>400.0</ele><time>2026-04-19T08:01:43.033Z</time></trkpt><trkpt lat="43.5397144" lon="12.7299966"><ele>399.6666666666667</ele><time>2026-04-19T08:01:44.029Z</time></trkpt><trkpt lat="43.5395009" lon="12.7300038"><ele>399.33333333333337</ele><time>2026-04-19T08:01:45.019Z</time></trkpt><trkpt lat="43.5393088" lon="12.7300723"><ele>399.0</ele><time>2026-04-19T08:01:46.024Z</time></trkpt><trkpt lat="43.5391705" lon="12.7302331"><ele>402.66666666666663</ele><time>2026-04-19T08:01:47.031Z</time></trkpt><trkpt lat="43.5390643" lon="12.7304103"><ele>406.3333333333333</ele><time>2026-04-19T08:01:48.029Z</time></trkpt><trkpt lat="43.5390094" lon="12.7306167"><ele>410.0</ele><time>2026-04-19T08:01:49.033Z</time></trkpt><trkpt lat="43.539004" lon="12.7309014"><ele>413.5</ele><time>2026-04-19T08:01:50.03Z</time></trkpt><trkpt lat="43.5390177" lon="12.7312557"><ele>417.0</ele><time>2026-04-19T08:01:51.025Z</time></trkpt><trkpt lat="43.5390267" lon="12.7316143"><ele>418.66666666666663</ele><time>2026-04-19T08:01:52.018Z</time></trkpt><trkpt lat="43.5390243" lon="12.731939"><ele>420.3333333333333</ele><time>2026-04-19T08:01:53.031Z</time></trkpt><trkpt lat="43.5390115" lon="12.7322227"><ele>422.0</ele><time>2026-04-19T08:01:54.023Z</time></trkpt><trkpt lat="43.5389456" lon="12.7324531"><ele>422.0</ele><time>2026-04-19T08:01:55.021Z</time></trkpt><trkpt lat="43.5388314" lon="12.7326624"><ele>422.0</ele><time>2026-04-19T08:01:56.014Z</time></trkpt><trkpt lat="43.5386637" lon="12.7328241"><ele>422.0</ele><time>2026-04-19T08:01:57.01Z</time></trkpt><trkpt lat="43.5385082" lon="12.7330178"><ele>420.3333333333333</ele><time>2026-04-19T08:01:58.011Z</time></trkpt><trkpt lat="43.5383912" lon="12.7332448"><ele>418.66666666666663</ele><time>2026-04-19T08:01:59.022Z</time></trkpt><trkpt lat="43.5383163" lon="12.7335377"><ele>417.0</ele><time>2026-04-19T08:02:00.022Z</time></trkpt><trkpt lat="43.5382524" lon="12.7338588"><ele>417.0</ele><time>2026-04-19T08:02:01.016Z</time></trkpt><trkpt lat="43.5382086" lon="12.7341876"><ele>417.0</ele><time>2026-04-19T08:02:02.026Z</time></trkpt><trkpt lat="43.5381994" lon="12.7345441"><ele>418.5</ele><time>2026-04-19T08:02:03.019Z</time></trkpt><trkpt lat="43.5381456" lon="12.7348552"><ele>420.0</ele><time>2026-04-19T08:02:04.029Z</time></trkpt><trkpt lat="43.5380426" lon="12.7351375"><ele>419.33333333333337</ele><time>2026-04-19T08:02:05.033Z</time></trkpt><trkpt lat="43.5379137" lon="12.7353885"><ele>418.6666666666667</ele><time>2026-04-19T08:02:06.032Z</time></trkpt><trkpt lat="43.5377379" lon="12.7355759"><ele>418.0</ele><time>2026-04-19T08:02:07.025Z</time></trkpt><trkpt lat="43.5375371" lon="12.7357202"><ele>418.0</ele><time>2026-04-19T08:02:08.02Z</time></trkpt><trkpt lat="43.5373686" lon="12.7358606"><ele>418.0</ele><time>2026-04-19T08:02:09.018Z</time></trkpt><trkpt lat="43.5372174" lon="12.7360235"><ele>418.0</ele><time>2026-04-19T08:02:10.023Z</time></trkpt><trkpt lat="43.5371052" lon="12.7362325"><ele>416.6666666666667</ele><time>2026-04-19T08:02:11.025Z</time></trkpt><trkpt lat="43.5370409" lon="12.736459"><ele>415.33333333333337</ele><time>2026-04-19T08:02:12.03Z</time></trkpt><trkpt lat="43.5370373" lon="12.7366847"><ele>414.0</ele><time>2026-04-19T08:02:13.032Z</time></trkpt><trkpt lat="43.5370909" lon="12.7369222"><ele>414.0</ele><time>2026-04-19T08:02:14.027Z</time></trkpt><trkpt lat="43.5371708" lon="12.7371646"><ele>414.0</ele><time>2026-04-19T08:02:15.035Z</time></trkpt><trkpt lat="43.537299" lon="12.7374048"><ele>414.0</ele><time>2026-04-19T08:02:16.031Z</time></trkpt><trkpt lat="43.5374378" lon="12.7376438"><ele>412.0</ele><time>2026-04-19T08:02:17.03Z</time></trkpt><trkpt lat="43.5375943" lon="12.7378552"><ele>410.0</ele><time>2026-04-19T08:02:18.03Z</time></trkpt><trkpt lat="43.5377736" lon="12.7380157"><ele>408.0</ele><time>2026-04-19T08:02:19.029Z</time></trkpt><trkpt lat="43.5379696" lon="12.7381315"><ele>408.0</ele><time>2026-04-19T08:02:20.019Z</time></trkpt><trkpt lat="43.5381491" lon="12.7382402"><ele>408.0</ele><time>2026-04-19T08:02:21.035Z</time></trkpt><trkpt lat="43.5382976" lon="12.7384234"><ele>408.0</ele><time>2026-04-19T08:02:22.035Z</time></trkpt><trkpt lat="43.5384194" lon="12.7386815"><ele>405.5</ele><time>2026-04-19T08:02:23.031Z</time></trkpt><trkpt lat="43.5384929" lon="12.7389864"><ele>403.0</ele><time>2026-04-19T08:02:24.046Z</time></trkpt><trkpt lat="43.538537" lon="12.7392971"><ele>402.0</ele><time>2026-04-19T08:02:25.034Z</time></trkpt><trkpt lat="43.5385679" lon="12.7396342"><ele>401.0</ele><time>2026-04-19T08:02:26.025Z</time></trkpt><trkpt lat="43.5385909" lon="12.7399938"><ele>399.5</ele><time>2026-04-19T08:02:27.021Z</time></trkpt><trkpt lat="43.5386107" lon="12.7403495"><ele>398.0</ele><time>2026-04-19T08:02:28.024Z</time></trkpt><trkpt lat="43.5386374" lon="12.7406521"><ele>398.0</ele><time>2026-04-19T08:02:29.03Z</time></trkpt><trkpt lat="43.5386383" lon="12.7409112"><ele>398.0</ele><time>2026-04-19T08:02:30.028Z</time></trkpt><trkpt lat="43.5385819" lon="12.7411638"><ele>398.0</ele><time>2026-04-19T08:02:31.026Z</time></trkpt><trkpt lat="43.5384733" lon="12.7413736"><ele>398.0</ele><time>2026-04-19T08:02:32.022Z</time></trkpt><trkpt lat="43.5383294" lon="12.7415348"><ele>398.0</ele><time>2026-04-19T08:02:33.026Z</time></trkpt><trkpt lat="43.5381532" lon="12.7416558"><ele>398.0</ele><time>2026-04-19T08:02:34.014Z</time></trkpt><trkpt lat="43.5380046" lon="12.7418326"><ele>397.5</ele><time>2026-04-19T08:02:35.023Z</time></trkpt><trkpt lat="43.5378892" lon="12.7420849"><ele>397.0</ele><time>2026-04-19T08:02:36.026Z</time></trkpt><trkpt lat="43.5377858" lon="12.7423839"><ele>394.5</ele><time>2026-04-19T08:02:37.022Z</time></trkpt><trkpt lat="43.5376928" lon="12.7426801"><ele>392.0</ele><time>2026-04-19T08:02:38.019Z</time></trkpt><trkpt lat="43.5376189" lon="12.742963"><ele>391.5</ele><time>2026-04-19T08:02:39.029Z</time></trkpt><trkpt lat="43.5375938" lon="12.7432765"><ele>391.0</ele><time>2026-04-19T08:02:40.026Z</time></trkpt><trkpt lat="43.5376165" lon="12.7435801"><ele>387.5</ele><time>2026-04-19T08:02:41.033Z</time></trkpt><trkpt lat="43.537682" lon="12.7438715"><ele>384.0</ele><time>2026-04-19T08:02:42.032Z</time></trkpt><trkpt lat="43.5377912" lon="12.7441538"><ele>380.5</ele><time>2026-04-19T08:02:43.031Z</time></trkpt><trkpt lat="43.5379339" lon="12.7444006"><ele>377.0</ele><time>2026-04-19T08:02:44.025Z</time></trkpt><trkpt lat="43.5381103" lon="12.7445962"><ele>377.0</ele><time>2026-04-19T08:02:45.027Z</time></trkpt><trkpt lat="43.5383142" lon="12.7447354"><ele>377.0</ele><time>2026-04-19T08:02:46.028Z</time></trkpt><trkpt lat="43.5385338" lon="12.7448159"><ele>377.5</ele><time>2026-04-19T08:02:47.025Z</time></trkpt><trkpt lat="43.5387611" lon="12.7448395"><ele>378.0</ele><time>2026-04-19T08:02:48.027Z</time></trkpt><trkpt lat="43.5389862" lon="12.7448018"><ele>378.0</ele><time>2026-04-19T08:02:49.023Z</time></trkpt><trkpt lat="43.5391997" lon="12.7446945"><ele>378.0</ele><time>2026-04-19T08:02:50.023Z</time></trkpt><trkpt lat="43.5393736" lon="12.7445751"><ele>378.0</ele><time>2026-04-19T08:02:51.014Z</time></trkpt><trkpt lat="43.5395388" lon="12.7444977"><ele>377.5</ele><time>2026-04-19T08:02:52.019Z</time></trkpt><trkpt lat="43.5396745" lon="12.7445043"><ele>377.0</ele><time>2026-04-19T08:02:53.018Z</time></trkpt><trkpt lat="43.5397911" lon="12.7446116"><ele>376.5</ele><time>2026-04-19T08:02:54.019Z</time></trkpt><trkpt lat="43.5398568" lon="12.7447677"><ele>376.0</ele><time>2026-04-19T08:02:55.032Z</time></trkpt><trkpt lat="43.5398898" lon="12.7449685"><ele>376.0</ele><time>2026-04-19T08:02:56.009Z</time></trkpt><trkpt lat="43.5398942" lon="12.7451671"><ele>376.0</ele><time>2026-04-19T08:02:57.025Z</time></trkpt><trkpt lat="43.5398256" lon="12.7453723"><ele>376.0</ele><time>2026-04-19T08:02:58.027Z</time></trkpt><trkpt lat="43.5396797" lon="12.7455995"><ele>376.0</ele><time>2026-04-19T08:02:59.022Z</time></trkpt><trkpt lat="43.5395118" lon="12.7458216"><ele>376.0</ele><time>2026-04-19T08:03:00.007Z</time></trkpt><trkpt lat="43.5393487" lon="12.746053"><ele>381.5</ele><time>2026-04-19T08:03:01.012Z</time></trkpt><trkpt lat="43.5391785" lon="12.7462997"><ele>387.0</ele><time>2026-04-19T08:03:02.013Z</time></trkpt><trkpt lat="43.5389809" lon="12.74654"><ele>387.0</ele><time>2026-04-19T08:03:03.011Z</time></trkpt><trkpt lat="43.5387625" lon="12.7467547"><ele>387.0</ele><time>2026-04-19T08:03:04.018Z</time></trkpt><trkpt lat="43.5385177" lon="12.7469818"><ele>392.0</ele><time>2026-04-19T08:03:05.008Z</time></trkpt><trkpt lat="43.538255" lon="12.7471852"><ele>397.0</ele><time>2026-04-19T08:03:06.013Z</time></trkpt><trkpt lat="43.5380092" lon="12.7473781"><ele>394.5</ele><time>2026-04-19T08:03:07.011Z</time></trkpt><trkpt lat="43.537792" lon="12.7475596"><ele>392.0</ele><time>2026-04-19T08:03:08.009Z</time></trkpt><trkpt lat="43.5375918" lon="12.7477112"><ele>397.0</ele><time>2026-04-19T08:03:09.006Z</time></trkpt><trkpt lat="43.5373976" lon="12.7478664"><ele>402.0</ele><time>2026-04-19T08:03:10.016Z</time></trkpt><trkpt lat="43.5372187" lon="12.7480102"><ele>407.0</ele><time>2026-04-19T08:03:11.023Z</time></trkpt><trkpt lat="43.5370826" lon="12.7481352"><ele>402.0</ele><time>2026-04-19T08:03:12.018Z</time></trkpt><trkpt lat="43.5369721" lon="12.7482933"><ele>397.0</ele><time>2026-04-19T08:03:13.022Z</time></trkpt><trkpt lat="43.5369002" lon="12.7484896"><ele>392.0</ele><time>2026-04-19T08:03:14.029Z</time></trkpt><trkpt lat="43.5369007" lon="12.7487381"><ele>392.0</ele><time>2026-04-19T08:03:15.031Z</time></trkpt><trkpt lat="43.5369483" lon="12.7490199"><ele>392.0</ele><time>2026-04-19T08:03:16.03Z</time></trkpt><trkpt lat="43.5370232" lon="12.7493354"><ele>397.5</ele><time>2026-04-19T08:03:17.023Z</time></trkpt><trkpt lat="43.5370974" lon="12.7496834"><ele>403.0</ele><time>2026-04-19T08:03:18.015Z</time></trkpt><trkpt lat="43.5371805" lon="12.7500521"><ele>402.5</ele><time>2026-04-19T08:03:19.011Z</time></trkpt><trkpt lat="43.5372668" lon="12.7504331"><ele>402.0</ele><time>2026-04-19T08:03:20.017Z</time></trkpt><trkpt lat="43.5373526" lon="12.7508334"><ele>400.5</ele><time>2026-04-19T08:03:21.022Z</time></trkpt><trkpt lat="43.5374284" lon="12.7512395"><ele>399.0</ele><time>2026-04-19T08:03:22.023Z</time></trkpt><trkpt lat="43.5374896" lon="12.7516398"><ele>398.0</ele><time>2026-04-19T08:03:23.02Z</time></trkpt><trkpt lat="43.5375363" lon="12.7520314"><ele>397.0</ele><time>2026-04-19T08:03:24.017Z</time></trkpt><trkpt lat="43.53757" lon="12.7524264"><ele>398.0</ele><time>2026-04-19T08:03:25.023Z</time></trkpt><trkpt lat="43.5376116" lon="12.7527973"><ele>399.0</ele><time>2026-04-19T08:03:26.047Z</time></trkpt><trkpt lat="43.5376478" lon="12.7531283"><ele>399.0</ele><time>2026-04-19T08:03:27.024Z</time></trkpt><trkpt lat="43.5376803" lon="12.7534074"><ele>399.0</ele><time>2026-04-19T08:03:28.03Z</time></trkpt><trkpt lat="43.5377258" lon="12.7536325"><ele>399.0</ele><time>2026-04-19T08:03:29.02Z</time></trkpt><trkpt lat="43.5378091" lon="12.7538296"><ele>398.66666666666663</ele><time>2026-04-19T08:03:30.016Z</time></trkpt><trkpt lat="43.537929" lon="12.7539934"><ele>398.3333333333333</ele><time>2026-04-19T08:03:31.023Z</time></trkpt><trkpt lat="43.5381021" lon="12.7541161"><ele>398.0</ele><time>2026-04-19T08:03:32.024Z</time></trkpt><trkpt lat="43.538329" lon="12.7542076"><ele>398.0</ele><time>2026-04-19T08:03:33.029Z</time></trkpt><trkpt lat="43.5385866" lon="12.7542823"><ele>398.0</ele><time>2026-04-19T08:03:34.011Z</time></trkpt><trkpt lat="43.5388526" lon="12.7543763"><ele>394.5</ele><time>2026-04-19T08:03:35.014Z</time></trkpt><trkpt lat="43.539132" lon="12.7544871"><ele>391.0</ele><time>2026-04-19T08:03:36.021Z</time></trkpt><trkpt lat="43.5394159" lon="12.7546242"><ele>393.5</ele><time>2026-04-19T08:03:37.022Z</time></trkpt><trkpt lat="43.5397202" lon="12.7547466"><ele>396.0</ele><time>2026-04-19T08:03:38.02Z</time></trkpt><trkpt lat="43.5400226" lon="12.7548741"><ele>396.0</ele><time>2026-04-19T08:03:39.019Z</time></trkpt><trkpt lat="43.5403112" lon="12.7549962"><ele>396.0</ele><time>2026-04-19T08:03:40.019Z</time></trkpt><trkpt lat="43.5405768" lon="12.7551073"><ele>397.5</ele><time>2026-04-19T08:03:41.019Z</time></trkpt><trkpt lat="43.5408095" lon="12.7551997"><ele>399.0</ele><time>2026-04-19T08:03:42.023Z</time></trkpt><trkpt lat="43.5410063" lon="12.7553005"><ele>399.66666666666663</ele><time>2026-04-19T08:03:43.019Z</time></trkpt><trkpt lat="43.5411768" lon="12.7554435"><ele>400.3333333333333</ele><time>2026-04-19T08:03:44.024Z</time></trkpt><trkpt lat="43.5413086" lon="12.7556576"><ele>401.0</ele><time>2026-04-19T08:03:45.027Z</time></trkpt><trkpt lat="43.5414111" lon="12.7559443"><ele>398.5</ele><time>2026-04-19T08:03:46.019Z</time></trkpt><trkpt lat="43.5414844" lon="12.7562711"><ele>396.0</ele><time>2026-04-19T08:03:47.014Z</time></trkpt><trkpt lat="43.5415322" lon="12.7566196"><ele>392.0</ele><time>2026-04-19T08:03:48.015Z</time></trkpt><trkpt lat="43.5415889" lon="12.7569827"><ele>388.0</ele><time>2026-04-19T08:03:49.013Z</time></trkpt><trkpt lat="43.5416483" lon="12.7573211"><ele>388.0</ele><time>2026-04-19T08:03:50.023Z</time></trkpt><trkpt lat="43.5417094" lon="12.7576222"><ele>388.0</ele><time>2026-04-19T08:03:51.02Z</time></trkpt><trkpt lat="43.541781" lon="12.7578836"><ele>388.0</ele><time>2026-04-19T08:03:52.03Z</time></trkpt><trkpt lat="43.541853" lon="12.7580912"><ele>387.0</ele><time>2026-04-19T08:03:53.023Z</time></trkpt><trkpt lat="43.5419529" lon="12.758287"><ele>386.0</ele><time>2026-04-19T08:03:54.027Z</time></trkpt><trkpt lat="43.5421111" lon="12.7584466"><ele>385.0</ele><time>2026-04-19T08:03:55.031Z</time></trkpt><trkpt lat="43.5423056" lon="12.7585586"><ele>379.0</ele><time>2026-04-19T08:03:56.039Z</time></trkpt><trkpt lat="43.5425201" lon="12.7586535"><ele>373.0</ele><time>2026-04-19T08:03:57.032Z</time></trkpt><trkpt lat="43.5427457" lon="12.7587286"><ele>375.3333333333333</ele><time>2026-04-19T08:03:58.031Z</time></trkpt><trkpt lat="43.5429343" lon="12.7587876"><ele>377.6666666666667</ele><time>2026-04-19T08:03:59.024Z</time></trkpt><trkpt lat="43.5430966" lon="12.7588928"><ele>380.0</ele><time>2026-04-19T08:04:00.026Z</time></trkpt><trkpt lat="43.5432301" lon="12.7590599"><ele>380.0</ele><time>2026-04-19T08:04:01.021Z</time></trkpt><trkpt lat="43.5432989" lon="12.7592829"><ele>380.0</ele><time>2026-04-19T08:04:02.022Z</time></trkpt><trkpt lat="43.5433066" lon="12.759522"><ele>380.0</ele><time>2026-04-19T08:04:03.025Z</time></trkpt><trkpt lat="43.5432616" lon="12.7598044"><ele>379.0</ele><time>2026-04-19T08:04:04.029Z</time></trkpt><trkpt lat="43.5431882" lon="12.7601284"><ele>378.0</ele><time>2026-04-19T08:04:05.013Z</time></trkpt><trkpt lat="43.5431177" lon="12.7604492"><ele>375.5</ele><time>2026-04-19T08:04:06.024Z</time></trkpt><trkpt lat="43.5430738" lon="12.7607889"><ele>373.0</ele><time>2026-04-19T08:04:07.018Z</time></trkpt><trkpt lat="43.5430415" lon="12.7610977"><ele>369.66666666666663</ele><time>2026-04-19T08:04:08.016Z</time></trkpt><trkpt lat="43.5430176" lon="12.7614041"><ele>366.3333333333333</ele><time>2026-04-19T08:04:09.029Z</time></trkpt><trkpt lat="43.5430452" lon="12.7616625"><ele>363.0</ele><time>2026-04-19T08:04:10.027Z</time></trkpt><trkpt lat="43.5431309" lon="12.7619302"><ele>360.5</ele><time>2026-04-19T08:04:11.03Z</time></trkpt><trkpt lat="43.5432606" lon="12.7621622"><ele>358.0</ele><time>2026-04-19T08:04:12.032Z</time></trkpt><trkpt lat="43.5434165" lon="12.7624092"><ele>358.0</ele><time>2026-04-19T08:04:13.019Z</time></trkpt><trkpt lat="43.5435398" lon="12.7626322"><ele>358.0</ele><time>2026-04-19T08:04:14.034Z</time></trkpt><trkpt lat="43.5436429" lon="12.7628064"><ele>358.0</ele><time>2026-04-19T08:04:15.031Z</time></trkpt><trkpt lat="43.5436965" lon="12.7629435"><ele>356.0</ele><time>2026-04-19T08:04:16.034Z</time></trkpt><trkpt lat="43.5437012" lon="12.7630905"><ele>354.0</ele><time>2026-04-19T08:04:17.026Z</time></trkpt><trkpt lat="43.5436476" lon="12.7632059"><ele>352.0</ele><time>2026-04-19T08:04:18.033Z</time></trkpt><trkpt lat="43.5435456" lon="12.7632628"><ele>350.0</ele><time>2026-04-19T08:04:19.031Z</time></trkpt><trkpt lat="43.5434106" lon="12.7632248"><ele>350.0</ele><time>2026-04-19T08:04:20.029Z</time></trkpt><trkpt lat="43.5432506" lon="12.7631116"><ele>350.0</ele><time>2026-04-19T08:04:21.027Z</time></trkpt><trkpt lat="43.5430924" lon="12.762932"><ele>350.0</ele><time>2026-04-19T08:04:22.032Z</time></trkpt><trkpt lat="43.5429221" lon="12.7627734"><ele>349.0</ele><time>2026-04-19T08:04:23.026Z</time></trkpt><trkpt lat="43.542769" lon="12.7626461"><ele>348.0</ele><time>2026-04-19T08:04:24.029Z</time></trkpt><trkpt lat="43.5426612" lon="12.7625715"><ele>347.0</ele><time>2026-04-19T08:04:25.03Z</time></trkpt><trkpt lat="43.5425506" lon="12.7625538"><ele>346.0</ele><time>2026-04-19T08:04:26.029Z</time></trkpt><trkpt lat="43.5424602" lon="12.7626007"><ele>344.75</ele><time>2026-04-19T08:04:27.044Z</time></trkpt><trkpt lat="43.5424088" lon="12.7627268"><ele>343.5</ele><time>2026-04-19T08:04:28.029Z</time></trkpt><trkpt lat="43.5424342" lon="12.7628878"><ele>342.25</ele><time>2026-04-19T08:04:29.029Z</time></trkpt><trkpt lat="43.5425215" lon="12.7630783"><ele>341.0</ele><time>2026-04-19T08:04:30.031Z</time></trkpt><trkpt lat="43.5426188" lon="12.7632838"><ele>337.0</ele><time>2026-04-19T08:04:31.03Z</time></trkpt><trkpt lat="43.5427553" lon="12.763548"><ele>333.0</ele><time>2026-04-19T08:04:32.019Z</time></trkpt><trkpt lat="43.542869" lon="12.7638085"><ele>335.5</ele><time>2026-04-19T08:04:33.024Z</time></trkpt><trkpt lat="43.5429737" lon="12.764099"><ele>338.0</ele><time>2026-04-19T08:04:34.03Z</time></trkpt><trkpt lat="43.5430327" lon="12.764422"><ele>338.0</ele><time>2026-04-19T08:04:35.028Z</time></trkpt><trkpt lat="43.5430359" lon="12.7647386"><ele>338.0</ele><time>2026-04-19T08:04:36.032Z</time></trkpt><trkpt lat="43.5430109" lon="12.7650603"><ele>335.0</ele><time>2026-04-19T08:04:37.03Z</time></trkpt><trkpt lat="43.543017" lon="12.765383"><ele>332.0</ele><time>2026-04-19T08:04:38.023Z</time></trkpt><trkpt lat="43.5430497" lon="12.765716"><ele>330.0</ele><time>2026-04-19T08:04:39.039Z</time></trkpt><trkpt lat="43.543139" lon="12.7660546"><ele>328.0</ele><time>2026-04-19T08:04:40.038Z</time></trkpt><trkpt lat="43.5432373" lon="12.7664056"><ele>328.0</ele><time>2026-04-19T08:04:41.02Z</time></trkpt><trkpt lat="43.5433313" lon="12.766776"><ele>328.0</ele><time>2026-04-19T08:04:42.022Z</time></trkpt><trkpt lat="43.5434279" lon="12.7671376"><ele>326.0</ele><time>2026-04-19T08:04:43.022Z</time></trkpt><trkpt lat="43.5435388" lon="12.7674714"><ele>324.0</ele><time>2026-04-19T08:04:44.019Z</time></trkpt><trkpt lat="43.5436782" lon="12.7677565"><ele>326.3333333333333</ele><time>2026-04-19T08:04:45.026Z</time></trkpt><trkpt lat="43.5438276" lon="12.7680076"><ele>328.66666666666663</ele><time>2026-04-19T08:04:46.021Z</time></trkpt><trkpt lat="43.5439451" lon="12.7682293"><ele>331.0</ele><time>2026-04-19T08:04:47.023Z</time></trkpt><trkpt lat="43.5440191" lon="12.7684169"><ele>331.3333333333333</ele><time>2026-04-19T08:04:48.03Z</time></trkpt><trkpt lat="43.5440438" lon="12.7686223"><ele>331.6666666666667</ele><time>2026-04-19T08:04:49.033Z</time></trkpt><trkpt lat="43.5439932" lon="12.7688348"><ele>332.0</ele><time>2026-04-19T08:04:50.03Z</time></trkpt><trkpt lat="43.5438782" lon="12.769047"><ele>332.0</ele><time>2026-04-19T08:04:51.033Z</time></trkpt><trkpt lat="43.5437422" lon="12.7692274"><ele>332.0</ele><time>2026-04-19T08:04:52.025Z</time></trkpt><trkpt lat="43.5436316" lon="12.7694275"><ele>332.0</ele><time>2026-04-19T08:04:53.024Z</time></trkpt><trkpt lat="43.5435735" lon="12.7696704"><ele>332.0</ele><time>2026-04-19T08:04:54.029Z</time></trkpt><trkpt lat="43.5435864" lon="12.7699214"><ele>332.0</ele><time>2026-04-19T08:04:55.022Z</time></trkpt><trkpt lat="43.5436504" lon="12.7701929"><ele>332.0</ele><time>2026-04-19T08:04:56.018Z</time></trkpt><trkpt lat="43.5437465" lon="12.7704524"><ele>332.0</ele><time>2026-04-19T08:04:57.026Z</time></trkpt><trkpt lat="43.5438437" lon="12.7707154"><ele>332.0</ele><time>2026-04-19T08:04:58.03Z</time></trkpt><trkpt lat="43.5439356" lon="12.7709798"><ele>332.0</ele><time>2026-04-19T08:04:59.021Z</time></trkpt><trkpt lat="43.5440242" lon="12.7712492"><ele>331.0</ele><time>2026-04-19T08:05:00.017Z</time></trkpt><trkpt lat="43.5441061" lon="12.771531"><ele>330.0</ele><time>2026-04-19T08:05:01.016Z</time></trkpt><trkpt lat="43.544194" lon="12.7718068"><ele>329.0</ele><time>2026-04-19T08:05:02.019Z</time></trkpt><trkpt lat="43.5442867" lon="12.7720882"><ele>329.0</ele><time>2026-04-19T08:05:03.017Z</time></trkpt><trkpt lat="43.5443785" lon="12.7723725"><ele>329.0</ele><time>2026-04-19T08:05:04.022Z</time></trkpt><trkpt lat="43.5444757" lon="12.7726692"><ele>333.0</ele><time>2026-04-19T08:05:05.019Z</time></trkpt><trkpt lat="43.5445851" lon="12.7729798"><ele>337.0</ele><time>2026-04-19T08:05:06.019Z</time></trkpt><trkpt lat="43.5446964" lon="12.773311"><ele>335.5</ele><time>2026-04-19T08:05:07.02Z</time></trkpt><trkpt lat="43.544813" lon="12.7736484"><ele>334.0</ele><time>2026-04-19T08:05:08.017Z</time></trkpt><trkpt lat="43.54493" lon="12.7740017"><ele>334.0</ele><time>2026-04-19T08:05:09.019Z</time></trkpt><trkpt lat="43.5450492" lon="12.7743499"><ele>334.0</ele><time>2026-04-19T08:05:10.022Z</time></trkpt><trkpt lat="43.5451739" lon="12.7747213"><ele>334.0</ele><time>2026-04-19T08:05:11.023Z</time></trkpt><trkpt lat="43.545292" lon="12.7750857"><ele>334.0</ele><time>2026-04-19T08:05:12.021Z</time></trkpt><trkpt lat="43.5454049" lon="12.775422"><ele>334.0</ele><time>2026-04-19T08:05:13.023Z</time></trkpt><trkpt lat="43.5454888" lon="12.7757116"><ele>334.0</ele><time>2026-04-19T08:05:14.022Z</time></trkpt><trkpt lat="43.5455788" lon="12.7760016"><ele>333.0</ele><time>2026-04-19T08:05:15.023Z</time></trkpt><trkpt lat="43.5456596" lon="12.7762563"><ele>332.0</ele><time>2026-04-19T08:05:16.015Z</time></trkpt><trkpt lat="43.5457364" lon="12.7764972"><ele>331.0</ele><time>2026-04-19T08:05:17.018Z</time></trkpt><trkpt lat="43.5458154" lon="12.7767269"><ele>331.0</ele><time>2026-04-19T08:05:18.014Z</time></trkpt><trkpt lat="43.545884" lon="12.7769294"><ele>331.0</ele><time>2026-04-19T08:05:19.014Z</time></trkpt><trkpt lat="43.5459506" lon="12.7771161"><ele>331.0</ele><time>2026-04-19T08:05:20.01Z</time></trkpt><trkpt lat="43.5460035" lon="12.777272"><ele>331.0</ele><time>2026-04-19T08:05:21.006Z</time></trkpt><trkpt lat="43.5460497" lon="12.7774302"><ele>331.0</ele><time>2026-04-19T08:05:22.023Z</time></trkpt><trkpt lat="43.5461034" lon="12.7775756"><ele>331.0</ele><time>2026-04-19T08:05:23.011Z</time></trkpt><trkpt lat="43.5461498" lon="12.7777255"><ele>331.0</ele><time>2026-04-19T08:05:24.014Z</time></trkpt><trkpt lat="43.5461956" lon="12.7779055"><ele>331.0</ele><time>2026-04-19T08:05:25.011Z</time></trkpt><trkpt lat="43.5462676" lon="12.7781142"><ele>331.0</ele><time>2026-04-19T08:05:26.017Z</time></trkpt><trkpt lat="43.5463375" lon="12.7783519"><ele>331.0</ele><time>2026-04-19T08:05:27.022Z</time></trkpt><trkpt lat="43.5464058" lon="12.7786284"><ele>331.0</ele><time>2026-04-19T08:05:28.014Z</time></trkpt><trkpt lat="43.546473" lon="12.7789005"><ele>331.0</ele><time>2026-04-19T08:05:29.028Z</time></trkpt><trkpt lat="43.5465427" lon="12.7792163"><ele>331.0</ele><time>2026-04-19T08:05:30.012Z</time></trkpt><trkpt lat="43.5466084" lon="12.7795341"><ele>329.5</ele><time>2026-04-19T08:05:31.012Z</time></trkpt><trkpt lat="43.5466746" lon="12.7798633"><ele>328.0</ele><time>2026-04-19T08:05:32.011Z</time></trkpt><trkpt lat="43.5467505" lon="12.7802"><ele>326.0</ele><time>2026-04-19T08:05:33.012Z</time></trkpt><trkpt lat="43.5468278" lon="12.7805244"><ele>324.0</ele><time>2026-04-19T08:05:34.013Z</time></trkpt><trkpt lat="43.5469052" lon="12.7808657"><ele>323.0</ele><time>2026-04-19T08:05:35.019Z</time></trkpt><trkpt lat="43.5469864" lon="12.7812073"><ele>322.0</ele><time>2026-04-19T08:05:36.015Z</time></trkpt><trkpt lat="43.5470685" lon="12.7815427"><ele>323.5</ele><time>2026-04-19T08:05:37.013Z</time></trkpt><trkpt lat="43.5471503" lon="12.7818794"><ele>325.0</ele><time>2026-04-19T08:05:38.016Z</time></trkpt><trkpt lat="43.5472164" lon="12.7822135"><ele>325.0</ele><time>2026-04-19T08:05:39.011Z</time></trkpt><trkpt lat="43.5472913" lon="12.7825301"><ele>325.0</ele><time>2026-04-19T08:05:40.014Z</time></trkpt><trkpt lat="43.5473633" lon="12.7828419"><ele>324.5</ele><time>2026-04-19T08:05:41.013Z</time></trkpt><trkpt lat="43.5474222" lon="12.7831706"><ele>324.0</ele><time>2026-04-19T08:05:42.019Z</time></trkpt><trkpt lat="43.5474423" lon="12.7834944"><ele>324.5</ele><time>2026-04-19T08:05:43.017Z</time></trkpt><trkpt lat="43.5474182" lon="12.7838109"><ele>325.0</ele><time>2026-04-19T08:05:44.017Z</time></trkpt><trkpt lat="43.5473769" lon="12.7841272"><ele>324.5</ele><time>2026-04-19T08:05:45.014Z</time></trkpt><trkpt lat="43.5473448" lon="12.7844442"><ele>324.0</ele><time>2026-04-19T08:05:46.012Z</time></trkpt><trkpt lat="43.5473166" lon="12.7847647"><ele>324.0</ele><time>2026-04-19T08:05:47.013Z</time></trkpt><trkpt lat="43.5472942" lon="12.7850841"><ele>324.0</ele><time>2026-04-19T08:05:48.011Z</time></trkpt><trkpt lat="43.5472716" lon="12.7854083"><ele>324.0</ele><time>2026-04-19T08:05:49.016Z</time></trkpt><trkpt lat="43.5472531" lon="12.7857263"><ele>324.0</ele><time>2026-04-19T08:05:50.011Z</time></trkpt><trkpt lat="43.5472326" lon="12.7860434"><ele>323.5</ele><time>2026-04-19T08:05:51.018Z</time></trkpt><trkpt lat="43.5472116" lon="12.786365"><ele>323.0</ele><time>2026-04-19T08:05:52.014Z</time></trkpt><trkpt lat="43.5471965" lon="12.7866756"><ele>321.5</ele><time>2026-04-19T08:05:53.016Z</time></trkpt><trkpt lat="43.5471807" lon="12.7869942"><ele>320.0</ele><time>2026-04-19T08:05:54.02Z</time></trkpt><trkpt lat="43.5471613" lon="12.7872942"><ele>320.0</ele><time>2026-04-19T08:05:55.011Z</time></trkpt><trkpt lat="43.5471403" lon="12.7875908"><ele>320.0</ele><time>2026-04-19T08:05:56.011Z</time></trkpt><trkpt lat="43.5471143" lon="12.7878706"><ele>320.0</ele><time>2026-04-19T08:05:57.014Z</time></trkpt><trkpt lat="43.5470966" lon="12.7881615"><ele>319.6666666666667</ele><time>2026-04-19T08:05:58.014Z</time></trkpt><trkpt lat="43.5471066" lon="12.7884482"><ele>319.3333333333333</ele><time>2026-04-19T08:05:59.014Z</time></trkpt><trkpt lat="43.5471221" lon="12.7887155"><ele>319.0</ele><time>2026-04-19T08:06:00.029Z</time></trkpt><trkpt lat="43.5471392" lon="12.7889949"><ele>319.0</ele><time>2026-04-19T08:06:01.008Z</time></trkpt><trkpt lat="43.5471745" lon="12.7892772"><ele>319.0</ele><time>2026-04-19T08:06:02.015Z</time></trkpt><trkpt lat="43.5471965" lon="12.7895543"><ele>319.0</ele><time>2026-04-19T08:06:03.013Z</time></trkpt><trkpt lat="43.5472325" lon="12.7898322"><ele>318.66666666666663</ele><time>2026-04-19T08:06:04.013Z</time></trkpt><trkpt lat="43.5472638" lon="12.7901352"><ele>318.3333333333333</ele><time>2026-04-19T08:06:05.008Z</time></trkpt><trkpt lat="43.5472989" lon="12.7904437"><ele>318.0</ele><time>2026-04-19T08:06:06.018Z</time></trkpt><trkpt lat="43.5473321" lon="12.7907413"><ele>316.6666666666667</ele><time>2026-04-19T08:06:07.013Z</time></trkpt><trkpt lat="43.5473694" lon="12.7910377"><ele>315.33333333333337</ele><time>2026-04-19T08:06:08.013Z</time></trkpt><trkpt lat="43.5474084" lon="12.7913313"><ele>314.0</ele><time>2026-04-19T08:06:09.019Z</time></trkpt><trkpt lat="43.5474473" lon="12.7916277"><ele>313.0</ele><time>2026-04-19T08:06:10.014Z</time></trkpt><trkpt lat="43.5474893" lon="12.7919167"><ele>312.0</ele><time>2026-04-19T08:06:11.026Z</time></trkpt><trkpt lat="43.5475064" lon="12.792203"><ele>311.0</ele><time>2026-04-19T08:06:12.02Z</time></trkpt><trkpt lat="43.547522" lon="12.7924668"><ele>310.6666666666667</ele><time>2026-04-19T08:06:13.024Z</time></trkpt><trkpt lat="43.5475762" lon="12.7927318"><ele>310.3333333333333</ele><time>2026-04-19T08:06:14.026Z</time></trkpt><trkpt lat="43.5476523" lon="12.7929611"><ele>310.0</ele><time>2026-04-19T08:06:15.023Z</time></trkpt><trkpt lat="43.5477356" lon="12.7931497"><ele>310.0</ele><time>2026-04-19T08:06:16.03Z</time></trkpt><trkpt lat="43.547852" lon="12.7933129"><ele>310.0</ele><time>2026-04-19T08:06:17.016Z</time></trkpt><trkpt lat="43.5479718" lon="12.7934587"><ele>310.0</ele><time>2026-04-19T08:06:18.023Z</time></trkpt><trkpt lat="43.5481319" lon="12.7935891"><ele>308.3333333333333</ele><time>2026-04-19T08:06:19.017Z</time></trkpt><trkpt lat="43.5482878" lon="12.7937294"><ele>306.6666666666667</ele><time>2026-04-19T08:06:20.013Z</time></trkpt><trkpt lat="43.5484387" lon="12.7938806"><ele>305.0</ele><time>2026-04-19T08:06:21.015Z</time></trkpt><trkpt lat="43.5485881" lon="12.7940564"><ele>306.6666666666667</ele><time>2026-04-19T08:06:22.015Z</time></trkpt><trkpt lat="43.5487329" lon="12.7942426"><ele>308.3333333333333</ele><time>2026-04-19T08:06:23.007Z</time></trkpt><trkpt lat="43.548874" lon="12.7944032"><ele>310.0</ele><time>2026-04-19T08:06:24.017Z</time></trkpt><trkpt lat="43.5490263" lon="12.7945512"><ele>310.0</ele><time>2026-04-19T08:06:25.019Z</time></trkpt><trkpt lat="43.5491834" lon="12.7946962"><ele>310.0</ele><time>2026-04-19T08:06:26.016Z</time></trkpt><trkpt lat="43.5493481" lon="12.7948211"><ele>310.0</ele><time>2026-04-19T08:06:27.018Z</time></trkpt><trkpt lat="43.5495094" lon="12.794963"><ele>310.66666666666663</ele><time>2026-04-19T08:06:28.024Z</time></trkpt><trkpt lat="43.5496739" lon="12.7950976"><ele>311.3333333333333</ele><time>2026-04-19T08:06:29.024Z</time></trkpt><trkpt lat="43.5498225" lon="12.795233"><ele>312.0</ele><time>2026-04-19T08:06:30.011Z</time></trkpt><trkpt lat="43.5499559" lon="12.7954002"><ele>312.0</ele><time>2026-04-19T08:06:31.032Z</time></trkpt><trkpt lat="43.5500631" lon="12.7956086"><ele>312.0</ele><time>2026-04-19T08:06:32.019Z</time></trkpt><trkpt lat="43.5501363" lon="12.7958457"><ele>312.0</ele><time>2026-04-19T08:06:33.021Z</time></trkpt><trkpt lat="43.5501917" lon="12.796095"><ele>311.0</ele><time>2026-04-19T08:06:34.026Z</time></trkpt><trkpt lat="43.5502337" lon="12.7963612"><ele>310.0</ele><time>2026-04-19T08:06:35.016Z</time></trkpt><trkpt lat="43.5502846" lon="12.7966297"><ele>309.0</ele><time>2026-04-19T08:06:36.013Z</time></trkpt><trkpt lat="43.5503362" lon="12.7969074"><ele>312.3333333333333</ele><time>2026-04-19T08:06:37.019Z</time></trkpt><trkpt lat="43.5503927" lon="12.7971704"><ele>315.66666666666663</ele><time>2026-04-19T08:06:38.02Z</time></trkpt><trkpt lat="43.5504564" lon="12.797449"><ele>319.0</ele><time>2026-04-19T08:06:39.02Z</time></trkpt><trkpt lat="43.5505224" lon="12.7977372"><ele>319.0</ele><time>2026-04-19T08:06:40.019Z</time></trkpt><trkpt lat="43.550586" lon="12.7980231"><ele>319.0</ele><time>2026-04-19T08:06:41.018Z</time></trkpt><trkpt lat="43.5506494" lon="12.7983082"><ele>319.0</ele><time>2026-04-19T08:06:42.017Z</time></trkpt><trkpt lat="43.5507187" lon="12.7986001"><ele>318.3333333333333</ele><time>2026-04-19T08:06:43.017Z</time></trkpt><trkpt lat="43.5507853" lon="12.798888"><ele>317.6666666666667</ele><time>2026-04-19T08:06:44.015Z</time></trkpt><trkpt lat="43.5508515" lon="12.799169"><ele>317.0</ele><time>2026-04-19T08:06:45.012Z</time></trkpt><trkpt lat="43.5509113" lon="12.7994603"><ele>315.0</ele><time>2026-04-19T08:06:46.005Z</time></trkpt><trkpt lat="43.5509787" lon="12.7997919"><ele>313.0</ele><time>2026-04-19T08:06:47.011Z</time></trkpt><trkpt lat="43.5510341" lon="12.8001623"><ele>310.5</ele><time>2026-04-19T08:06:48.01Z</time></trkpt><trkpt lat="43.5511039" lon="12.80053"><ele>308.0</ele><time>2026-04-19T08:06:49.015Z</time></trkpt><trkpt lat="43.5511866" lon="12.8009158"><ele>312.0</ele><time>2026-04-19T08:06:50.011Z</time></trkpt><trkpt lat="43.5512636" lon="12.8012866"><ele>316.0</ele><time>2026-04-19T08:06:51.014Z</time></trkpt><trkpt lat="43.5513452" lon="12.8016356"><ele>313.5</ele><time>2026-04-19T08:06:52.019Z</time></trkpt><trkpt lat="43.5514234" lon="12.8019602"><ele>311.0</ele><time>2026-04-19T08:06:53.003Z</time></trkpt><trkpt lat="43.5514835" lon="12.8022725"><ele>311.0</ele><time>2026-04-19T08:06:54.007Z</time></trkpt><trkpt lat="43.5515505" lon="12.8025639"><ele>311.0</ele><time>2026-04-19T08:06:55.005Z</time></trkpt><trkpt lat="43.5516118" lon="12.8028513"><ele>311.0</ele><time>2026-04-19T08:06:56.011Z</time></trkpt><trkpt lat="43.5516723" lon="12.8031427"><ele>309.0</ele><time>2026-04-19T08:06:57.008Z</time></trkpt><trkpt lat="43.551726" lon="12.803423"><ele>307.0</ele><time>2026-04-19T08:06:58.017Z</time></trkpt><trkpt lat="43.5517774" lon="12.8037153"><ele>305.0</ele><time>2026-04-19T08:06:59.019Z</time></trkpt><trkpt lat="43.5518444" lon="12.8040088"><ele>303.33333333333337</ele><time>2026-04-19T08:07:00.016Z</time></trkpt><trkpt lat="43.5518927" lon="12.8043098"><ele>301.6666666666667</ele><time>2026-04-19T08:07:01.018Z</time></trkpt><trkpt lat="43.5519433" lon="12.8046057"><ele>300.0</ele><time>2026-04-19T08:07:02.027Z</time></trkpt><trkpt lat="43.5519987" lon="12.8048959"><ele>298.3333333333333</ele><time>2026-04-19T08:07:03.02Z</time></trkpt><trkpt lat="43.5520545" lon="12.8051867"><ele>296.66666666666663</ele><time>2026-04-19T08:07:04.019Z</time></trkpt><trkpt lat="43.5521181" lon="12.8054806"><ele>295.0</ele><time>2026-04-19T08:07:05.019Z</time></trkpt><trkpt lat="43.5521836" lon="12.8057533"><ele>294.66666666666663</ele><time>2026-04-19T08:07:06.02Z</time></trkpt><trkpt lat="43.552257" lon="12.8060326"><ele>294.3333333333333</ele><time>2026-04-19T08:07:07.013Z</time></trkpt><trkpt lat="43.5523307" lon="12.8063024"><ele>294.0</ele><time>2026-04-19T08:07:08.015Z</time></trkpt><trkpt lat="43.5524031" lon="12.8065598"><ele>294.0</ele><time>2026-04-19T08:07:09.017Z</time></trkpt><trkpt lat="43.5524681" lon="12.8068246"><ele>294.0</ele><time>2026-04-19T08:07:10.015Z</time></trkpt><trkpt lat="43.552537" lon="12.8070857"><ele>294.0</ele><time>2026-04-19T08:07:11.017Z</time></trkpt><trkpt lat="43.5526114" lon="12.8073759"><ele>294.3333333333333</ele><time>2026-04-19T08:07:12.02Z</time></trkpt><trkpt lat="43.5526838" lon="12.8076601"><ele>294.66666666666663</ele><time>2026-04-19T08:07:13.019Z</time></trkpt><trkpt lat="43.5527548" lon="12.8079347"><ele>295.0</ele><time>2026-04-19T08:07:14.014Z</time></trkpt><trkpt lat="43.5528299" lon="12.8082161"><ele>294.0</ele><time>2026-04-19T08:07:15.019Z</time></trkpt><trkpt lat="43.5529064" lon="12.8084951"><ele>293.0</ele><time>2026-04-19T08:07:16.018Z</time></trkpt><trkpt lat="43.5529781" lon="12.8087768"><ele>292.0</ele><time>2026-04-19T08:07:17.02Z</time></trkpt><trkpt lat="43.5530545" lon="12.8090543"><ele>291.3333333333333</ele><time>2026-04-19T08:07:18.017Z</time></trkpt><trkpt lat="43.5531312" lon="12.8093335"><ele>290.6666666666667</ele><time>2026-04-19T08:07:19.022Z</time></trkpt><trkpt lat="43.553211" lon="12.8096164"><ele>290.0</ele><time>2026-04-19T08:07:20.016Z</time></trkpt><trkpt lat="43.5532781" lon="12.8098962"><ele>289.33333333333337</ele><time>2026-04-19T08:07:21.019Z</time></trkpt><trkpt lat="43.5533461" lon="12.8101729"><ele>288.6666666666667</ele><time>2026-04-19T08:07:22.021Z</time></trkpt><trkpt lat="43.5534106" lon="12.8104368"><ele>288.0</ele><time>2026-04-19T08:07:23.018Z</time></trkpt><trkpt lat="43.553476" lon="12.8107003"><ele>288.0</ele><time>2026-04-19T08:07:24.018Z</time></trkpt><trkpt lat="43.5535501" lon="12.8109635"><ele>288.0</ele><time>2026-04-19T08:07:25.016Z</time></trkpt><trkpt lat="43.5536234" lon="12.811225"><ele>288.0</ele><time>2026-04-19T08:07:26.015Z</time></trkpt><trkpt lat="43.5536905" lon="12.8114911"><ele>288.0</ele><time>2026-04-19T08:07:27.018Z</time></trkpt><trkpt lat="43.553763" lon="12.8117541"><ele>288.0</ele><time>2026-04-19T08:07:28.025Z</time></trkpt><trkpt lat="43.5538438" lon="12.8120055"><ele>288.0</ele><time>2026-04-19T08:07:29.018Z</time></trkpt><trkpt lat="43.5539493" lon="12.8122486"><ele>287.6666666666667</ele><time>2026-04-19T08:07:30.014Z</time></trkpt><trkpt lat="43.5540698" lon="12.8124795"><ele>287.33333333333337</ele><time>2026-04-19T08:07:31.014Z</time></trkpt><trkpt lat="43.5541992" lon="12.8127131"><ele>287.0</ele><time>2026-04-19T08:07:32.018Z</time></trkpt><trkpt lat="43.5543299" lon="12.8129605"><ele>286.33333333333337</ele><time>2026-04-19T08:07:33.03Z</time></trkpt><trkpt lat="43.5544626" lon="12.8132"><ele>285.6666666666667</ele><time>2026-04-19T08:07:34.016Z</time></trkpt><trkpt lat="43.554585" lon="12.8134438"><ele>285.0</ele><time>2026-04-19T08:07:35.018Z</time></trkpt><trkpt lat="43.5547144" lon="12.8136904"><ele>284.5</ele><time>2026-04-19T08:07:36.019Z</time></trkpt><trkpt lat="43.5548436" lon="12.8139483"><ele>284.0</ele><time>2026-04-19T08:07:37.015Z</time></trkpt><trkpt lat="43.5549581" lon="12.8142287"><ele>283.6666666666667</ele><time>2026-04-19T08:07:38.023Z</time></trkpt><trkpt lat="43.5550301" lon="12.8145147"><ele>283.3333333333333</ele><time>2026-04-19T08:07:39.019Z</time></trkpt><trkpt lat="43.5550817" lon="12.8148132"><ele>283.0</ele><time>2026-04-19T08:07:40.012Z</time></trkpt><trkpt lat="43.5551333" lon="12.8151084"><ele>283.5</ele><time>2026-04-19T08:07:41.014Z</time></trkpt><trkpt lat="43.555214" lon="12.8154189"><ele>284.0</ele><time>2026-04-19T08:07:42.02Z</time></trkpt><trkpt lat="43.5553078" lon="12.8157016"><ele>282.5</ele><time>2026-04-19T08:07:43.019Z</time></trkpt><trkpt lat="43.5554166" lon="12.8159931"><ele>281.0</ele><time>2026-04-19T08:07:44.018Z</time></trkpt><trkpt lat="43.5555353" lon="12.8162666"><ele>281.0</ele><time>2026-04-19T08:07:45.018Z</time></trkpt><trkpt lat="43.5556486" lon="12.8165492"><ele>281.0</ele><time>2026-04-19T08:07:46.018Z</time></trkpt><trkpt lat="43.5557552" lon="12.8168305"><ele>280.5</ele><time>2026-04-19T08:07:47.019Z</time></trkpt><trkpt lat="43.5558649" lon="12.817117"><ele>280.0</ele><time>2026-04-19T08:07:48.017Z</time></trkpt><trkpt lat="43.5559738" lon="12.8173973"><ele>280.0</ele><time>2026-04-19T08:07:49.024Z</time></trkpt><trkpt lat="43.5560822" lon="12.817675"><ele>280.0</ele><time>2026-04-19T08:07:50.024Z</time></trkpt><trkpt lat="43.5561936" lon="12.8179587"><ele>280.0</ele><time>2026-04-19T08:07:51.02Z</time></trkpt><trkpt lat="43.5562921" lon="12.8182321"><ele>280.0</ele><time>2026-04-19T08:07:52.022Z</time></trkpt><trkpt lat="43.5563887" lon="12.8184879"><ele>280.0</ele><time>2026-04-19T08:07:53.022Z</time></trkpt><trkpt lat="43.5564978" lon="12.8187047"><ele>279.3333333333333</ele><time>2026-04-19T08:07:54.024Z</time></trkpt><trkpt lat="43.5566433" lon="12.818895"><ele>278.6666666666667</ele><time>2026-04-19T08:07:55.02Z</time></trkpt><trkpt lat="43.5568233" lon="12.8190653"><ele>278.0</ele><time>2026-04-19T08:07:56.014Z</time></trkpt><trkpt lat="43.5570172" lon="12.819218"><ele>275.0</ele><time>2026-04-19T08:07:57.015Z</time></trkpt><trkpt lat="43.5572135" lon="12.8193623"><ele>272.0</ele><time>2026-04-19T08:07:58.017Z</time></trkpt><trkpt lat="43.5574055" lon="12.8195004"><ele>269.0</ele><time>2026-04-19T08:07:59.017Z</time></trkpt><trkpt lat="43.5575996" lon="12.8196396"><ele>269.0</ele><time>2026-04-19T08:08:00.017Z</time></trkpt><trkpt lat="43.557766" lon="12.8197853"><ele>269.0</ele><time>2026-04-19T08:08:01.019Z</time></trkpt><trkpt lat="43.5579348" lon="12.8199742"><ele>269.0</ele><time>2026-04-19T08:08:02.013Z</time></trkpt><trkpt lat="43.5580921" lon="12.8201761"><ele>265.5</ele><time>2026-04-19T08:08:03.015Z</time></trkpt><trkpt lat="43.5582385" lon="12.8204047"><ele>262.0</ele><time>2026-04-19T08:08:04.038Z</time></trkpt><trkpt lat="43.5582982" lon="12.8207173"><ele>261.66666666666663</ele><time>2026-04-19T08:08:05.029Z</time></trkpt><trkpt lat="43.5583458" lon="12.8210093"><ele>261.3333333333333</ele><time>2026-04-19T08:08:06.023Z</time></trkpt><trkpt lat="43.5584047" lon="12.8212718"><ele>261.0</ele><time>2026-04-19T08:08:07.017Z</time></trkpt><trkpt lat="43.5584611" lon="12.8215421"><ele>261.0</ele><time>2026-04-19T08:08:08.017Z</time></trkpt><trkpt lat="43.5585221" lon="12.8218021"><ele>261.0</ele><time>2026-04-19T08:08:09.017Z</time></trkpt><trkpt lat="43.5585727" lon="12.8220743"><ele>261.0</ele><time>2026-04-19T08:08:10.021Z</time></trkpt><trkpt lat="43.5586463" lon="12.8223351"><ele>262.3333333333333</ele><time>2026-04-19T08:08:11.014Z</time></trkpt><trkpt lat="43.5587077" lon="12.8225813"><ele>263.66666666666663</ele><time>2026-04-19T08:08:12.02Z</time></trkpt><trkpt lat="43.5587688" lon="12.8228324"><ele>265.0</ele><time>2026-04-19T08:08:13.016Z</time></trkpt><trkpt lat="43.5588256" lon="12.8230672"><ele>265.0</ele><time>2026-04-19T08:08:14.014Z</time></trkpt><trkpt lat="43.5588762" lon="12.8232715"><ele>265.0</ele><time>2026-04-19T08:08:15.022Z</time></trkpt><trkpt lat="43.5589217" lon="12.8234432"><ele>265.0</ele><time>2026-04-19T08:08:16.017Z</time></trkpt><trkpt lat="43.558951" lon="12.8235794"><ele>265.0</ele><time>2026-04-19T08:08:17.022Z</time></trkpt><trkpt lat="43.5589825" lon="12.8237297"><ele>264.5</ele><time>2026-04-19T08:08:18.024Z</time></trkpt><trkpt lat="43.5589994" lon="12.8238549"><ele>264.0</ele><time>2026-04-19T08:08:19.022Z</time></trkpt><trkpt lat="43.5590245" lon="12.823949"><ele>263.5</ele><time>2026-04-19T08:08:20.011Z</time></trkpt><trkpt lat="43.5590481" lon="12.8240366"><ele>263.0</ele><time>2026-04-19T08:08:21.014Z</time></trkpt><trkpt lat="43.5590813" lon="12.8241657"><ele>262.5</ele><time>2026-04-19T08:08:23.007Z</time></trkpt><trkpt lat="43.5591117" lon="12.8242754"><ele>262.0</ele><time>2026-04-19T08:08:25.014Z</time></trkpt><trkpt lat="43.5591419" lon="12.8243938"><ele>261.3333333333333</ele><time>2026-04-19T08:08:28.013Z</time></trkpt><trkpt lat="43.5591817" lon="12.8244641"><ele>260.66666666666663</ele><time>2026-04-19T08:08:30.007Z</time></trkpt><trkpt lat="43.5592169" lon="12.8245844"><ele>260.0</ele><time>2026-04-19T08:09:02.075Z</time></trkpt><trkpt lat="43.5592631" lon="12.8246784"><ele>259.3333333333333</ele><time>2026-04-19T08:09:03.014Z</time></trkpt><trkpt lat="43.5593228" lon="12.8247975"><ele>258.6666666666667</ele><time>2026-04-19T08:09:04.006Z</time></trkpt><trkpt lat="43.559379" lon="12.8249125"><ele>258.0</ele><time>2026-04-19T08:09:05.019Z</time></trkpt><trkpt lat="43.5594326" lon="12.8250259"><ele>258.0</ele><time>2026-04-19T08:09:06.003Z</time></trkpt><trkpt lat="43.5594884" lon="12.8251284"><ele>258.0</ele><time>2026-04-19T08:09:07.007Z</time></trkpt><trkpt lat="43.5595379" lon="12.8252108"><ele>258.0</ele><time>2026-04-19T08:09:08.015Z</time></trkpt><trkpt lat="43.5595886" lon="12.8253009"><ele>258.0</ele><time>2026-04-19T08:09:09.015Z</time></trkpt><trkpt lat="43.5596374" lon="12.8253894"><ele>258.0</ele><time>2026-04-19T08:09:10.016Z</time></trkpt><trkpt lat="43.5596814" lon="12.8254715"><ele>258.0</ele><time>2026-04-19T08:09:11.013Z</time></trkpt><trkpt lat="43.5597245" lon="12.8255442"><ele>257.5</ele><time>2026-04-19T08:09:12.018Z</time></trkpt><trkpt lat="43.5597684" lon="12.8256129"><ele>257.0</ele><time>2026-04-19T08:09:13.019Z</time></trkpt><trkpt lat="43.5598214" lon="12.8256992"><ele>256.5</ele><time>2026-04-19T08:09:14.018Z</time></trkpt><trkpt lat="43.559881" lon="12.8257958"><ele>256.0</ele><time>2026-04-19T08:09:15.022Z</time></trkpt><trkpt lat="43.5599488" lon="12.825892"><ele>255.5</ele><time>2026-04-19T08:09:16.021Z</time></trkpt><trkpt lat="43.5600183" lon="12.825989"><ele>255.0</ele><time>2026-04-19T08:09:17.026Z</time></trkpt><trkpt lat="43.5600834" lon="12.8260935"><ele>255.0</ele><time>2026-04-19T08:09:18.021Z</time></trkpt><trkpt lat="43.5601458" lon="12.8261982"><ele>255.0</ele><time>2026-04-19T08:09:19.027Z</time></trkpt><trkpt lat="43.5601967" lon="12.8262979"><ele>255.0</ele><time>2026-04-19T08:09:20.015Z</time></trkpt><trkpt lat="43.5602344" lon="12.8263867"><ele>255.0</ele><time>2026-04-19T08:09:21.018Z</time></trkpt><trkpt lat="43.5602582" lon="12.8264827"><ele>255.0</ele><time>2026-04-19T08:09:22.018Z</time></trkpt><trkpt lat="43.5602708" lon="12.826603"><ele>255.0</ele><time>2026-04-19T08:09:23.014Z</time></trkpt><trkpt lat="43.5602786" lon="12.8267354"><ele>254.8</ele><time>2026-04-19T08:09:24.022Z</time></trkpt><trkpt lat="43.5602609" lon="12.8268654"><ele>254.6</ele><time>2026-04-19T08:09:25.023Z</time></trkpt><trkpt lat="43.5601993" lon="12.8269981"><ele>254.39999999999998</ele><time>2026-04-19T08:09:26.019Z</time></trkpt><trkpt lat="43.5601255" lon="12.8271394"><ele>254.2</ele><time>2026-04-19T08:09:27.022Z</time></trkpt><trkpt lat="43.5600636" lon="12.827262"><ele>254.0</ele><time>2026-04-19T08:09:28.014Z</time></trkpt><trkpt lat="43.5600093" lon="12.8273694"><ele>254.0</ele><time>2026-04-19T08:09:29.018Z</time></trkpt><trkpt lat="43.5599671" lon="12.8274955"><ele>253.99999999999997</ele><time>2026-04-19T08:09:30.009Z</time></trkpt><trkpt lat="43.5599349" lon="12.8276291"><ele>253.99999999999997</ele><time>2026-04-19T08:09:31.009Z</time></trkpt><trkpt lat="43.5599359" lon="12.8277909"><ele>254.0</ele><time>2026-04-19T08:09:32.018Z</time></trkpt><trkpt lat="43.5599823" lon="12.8279398"><ele>254.0</ele><time>2026-04-19T08:09:33.02Z</time></trkpt><trkpt lat="43.5600482" lon="12.8280769"><ele>254.0</ele><time>2026-04-19T08:09:34.013Z</time></trkpt><trkpt lat="43.5601405" lon="12.8281728"><ele>254.0</ele><time>2026-04-19T08:09:35.027Z</time></trkpt><trkpt lat="43.5602586" lon="12.8282369"><ele>254.0</ele><time>2026-04-19T08:09:36.02Z</time></trkpt><trkpt lat="43.5603814" lon="12.8282874"><ele>254.0</ele><time>2026-04-19T08:09:37.022Z</time></trkpt><trkpt lat="43.5605006" lon="12.8283352"><ele>253.79999999999998</ele><time>2026-04-19T08:09:38.016Z</time></trkpt><trkpt lat="43.5606027" lon="12.8283791"><ele>253.59999999999997</ele><time>2026-04-19T08:09:39.013Z</time></trkpt><trkpt lat="43.5607082" lon="12.8284281"><ele>253.4</ele><time>2026-04-19T08:09:40.016Z</time></trkpt><trkpt lat="43.5608119" lon="12.8284769"><ele>253.2</ele><time>2026-04-19T08:09:41.013Z</time></trkpt><trkpt lat="43.5609124" lon="12.8285237"><ele>253.0</ele><time>2026-04-19T08:09:42.014Z</time></trkpt><trkpt lat="43.5610103" lon="12.828575"><ele>255.0</ele><time>2026-04-19T08:09:43.012Z</time></trkpt><trkpt lat="43.5611008" lon="12.8286315"><ele>257.0</ele><time>2026-04-19T08:09:44.026Z</time></trkpt><trkpt lat="43.5611967" lon="12.8286916"><ele>259.0</ele><time>2026-04-19T08:09:45.011Z</time></trkpt><trkpt lat="43.5612907" lon="12.8287607"><ele>261.0</ele><time>2026-04-19T08:09:46.017Z</time></trkpt><trkpt lat="43.5613738" lon="12.8288555"><ele>263.0</ele><time>2026-04-19T08:09:47.012Z</time></trkpt><trkpt lat="43.5614574" lon="12.8289587"><ele>263.0</ele><time>2026-04-19T08:09:48.01Z</time></trkpt><trkpt lat="43.5615475" lon="12.8290713"><ele>263.0</ele><time>2026-04-19T08:09:49.011Z</time></trkpt><trkpt lat="43.5616256" lon="12.8291961"><ele>263.0</ele><time>2026-04-19T08:09:50.015Z</time></trkpt><trkpt lat="43.5617061" lon="12.8293423"><ele>263.0</ele><time>2026-04-19T08:09:51.013Z</time></trkpt><trkpt lat="43.5617963" lon="12.8294939"><ele>262.5</ele><time>2026-04-19T08:09:52.009Z</time></trkpt><trkpt lat="43.561887" lon="12.8296491"><ele>262.0</ele><time>2026-04-19T08:09:53.014Z</time></trkpt><trkpt lat="43.5619841" lon="12.8298131"><ele>261.5</ele><time>2026-04-19T08:09:54.009Z</time></trkpt><trkpt lat="43.5620821" lon="12.8299709"><ele>261.0</ele><time>2026-04-19T08:09:55.013Z</time></trkpt><trkpt lat="43.5621732" lon="12.8301387"><ele>261.75</ele><time>2026-04-19T08:09:56.008Z</time></trkpt><trkpt lat="43.5622665" lon="12.8303065"><ele>262.5</ele><time>2026-04-19T08:09:57.014Z</time></trkpt><trkpt lat="43.5623394" lon="12.8304692"><ele>263.25</ele><time>2026-04-19T08:09:58.014Z</time></trkpt><trkpt lat="43.5624022" lon="12.8306076"><ele>264.0</ele><time>2026-04-19T08:09:59.015Z</time></trkpt><trkpt lat="43.562467" lon="12.8307569"><ele>264.0</ele><time>2026-04-19T08:10:00.015Z</time></trkpt><trkpt lat="43.5625134" lon="12.830937"><ele>264.0</ele><time>2026-04-19T08:10:01.021Z</time></trkpt><trkpt lat="43.5625331" lon="12.8311475"><ele>264.0</ele><time>2026-04-19T08:10:02.02Z</time></trkpt><trkpt lat="43.5625201" lon="12.8313724"><ele>264.0</ele><time>2026-04-19T08:10:03.007Z</time></trkpt><trkpt lat="43.5624918" lon="12.8315995"><ele>264.0</ele><time>2026-04-19T08:10:04.023Z</time></trkpt><trkpt lat="43.5624151" lon="12.8318215"><ele>264.0</ele><time>2026-04-19T08:10:05.02Z</time></trkpt><trkpt lat="43.5622961" lon="12.8320205"><ele>264.0</ele><time>2026-04-19T08:10:06.015Z</time></trkpt><trkpt lat="43.5621459" lon="12.8321896"><ele>264.0</ele><time>2026-04-19T08:10:07.029Z</time></trkpt><trkpt lat="43.5619805" lon="12.832321"><ele>264.0</ele><time>2026-04-19T08:10:08.02Z</time></trkpt><trkpt lat="43.5617959" lon="12.8324113"><ele>268.6666666666667</ele><time>2026-04-19T08:10:09.014Z</time></trkpt><trkpt lat="43.5616216" lon="12.832447"><ele>273.33333333333337</ele><time>2026-04-19T08:10:10.013Z</time></trkpt><trkpt lat="43.5614185" lon="12.8324191"><ele>278.0</ele><time>2026-04-19T08:10:11.008Z</time></trkpt><trkpt lat="43.5612598" lon="12.8323865"><ele>280.33333333333337</ele><time>2026-04-19T08:10:12.002Z</time></trkpt><trkpt lat="43.5611034" lon="12.8323463"><ele>282.6666666666667</ele><time>2026-04-19T08:10:13.009Z</time></trkpt><trkpt lat="43.5609545" lon="12.8323352"><ele>285.0</ele><time>2026-04-19T08:10:14Z</time></trkpt><trkpt lat="43.5608114" lon="12.8323651"><ele>285.0</ele><time>2026-04-19T08:10:15.007Z</time></trkpt><trkpt lat="43.5606689" lon="12.8324308"><ele>285.0</ele><time>2026-04-19T08:10:16.005Z</time></trkpt><trkpt lat="43.5605608" lon="12.8325209"><ele>285.0</ele><time>2026-04-19T08:10:17.006Z</time></trkpt><trkpt lat="43.5604934" lon="12.8326515"><ele>285.0</ele><time>2026-04-19T08:10:17.995Z</time></trkpt><trkpt lat="43.5604287" lon="12.8327932"><ele>284.5</ele><time>2026-04-19T08:10:19.003Z</time></trkpt><trkpt lat="43.5603829" lon="12.8329616"><ele>284.0</ele><time>2026-04-19T08:10:20.001Z</time></trkpt><trkpt lat="43.5603769" lon="12.8331529"><ele>283.5</ele><time>2026-04-19T08:10:20.994Z</time></trkpt><trkpt lat="43.5603481" lon="12.8333444"><ele>283.0</ele><time>2026-04-19T08:10:22Z</time></trkpt><trkpt lat="43.5603435" lon="12.8335276"><ele>283.0</ele><time>2026-04-19T08:10:22.995Z</time></trkpt><trkpt lat="43.5603338" lon="12.8337055"><ele>283.0</ele><time>2026-04-19T08:10:23.999Z</time></trkpt><trkpt lat="43.5603282" lon="12.8338771"><ele>283.0</ele><time>2026-04-19T08:10:25Z</time></trkpt><trkpt lat="43.5603261" lon="12.8340519"><ele>283.0</ele><time>2026-04-19T08:10:26.002Z</time></trkpt><trkpt lat="43.5603198" lon="12.8342097"><ele>281.2</ele><time>2026-04-19T08:10:27.001Z</time></trkpt><trkpt lat="43.5603196" lon="12.8343669"><ele>279.4</ele><time>2026-04-19T08:10:28.001Z</time></trkpt><trkpt lat="43.5603261" lon="12.8345117"><ele>277.59999999999997</ele><time>2026-04-19T08:10:29.003Z</time></trkpt><trkpt lat="43.560312" lon="12.8346313"><ele>275.8</ele><time>2026-04-19T08:10:30.011Z</time></trkpt><trkpt lat="43.5603" lon="12.8347428"><ele>274.0</ele><time>2026-04-19T08:10:31.013Z</time></trkpt><trkpt lat="43.560287" lon="12.8348483"><ele>274.0</ele><time>2026-04-19T08:10:32.008Z</time></trkpt><trkpt lat="43.5602748" lon="12.8349395"><ele>274.0</ele><time>2026-04-19T08:10:33.013Z</time></trkpt><trkpt lat="43.5602528" lon="12.8350872"><ele>274.0</ele><time>2026-04-19T08:10:35.005Z</time></trkpt><trkpt lat="43.5602397" lon="12.8351931"><ele>274.0</ele><time>2026-04-19T08:10:37.004Z</time></trkpt><trkpt lat="43.5602636" lon="12.8353275"><ele>274.0</ele><time>2026-04-19T08:12:00.07Z</time></trkpt><trkpt lat="43.5602533" lon="12.8354597"><ele>272.75</ele><time>2026-04-19T08:12:01.999Z</time></trkpt><trkpt lat="43.5602559" lon="12.8356297"><ele>271.5</ele><time>2026-04-19T08:12:04.009Z</time></trkpt><trkpt lat="43.560266" lon="12.8358009"><ele>270.25</ele><time>2026-04-19T08:12:06.02Z</time></trkpt><trkpt lat="43.5602227" lon="12.835949"><ele>269.0</ele><time>2026-04-19T08:12:08.01Z</time></trkpt><trkpt lat="43.5601363" lon="12.8360407"><ele>268.0</ele><time>2026-04-19T08:12:10.011Z</time></trkpt><trkpt lat="43.560021" lon="12.8361066"><ele>267.0</ele><time>2026-04-19T08:12:12.013Z</time></trkpt><trkpt lat="43.5599423" lon="12.8361299"><ele>266.0</ele><time>2026-04-19T08:12:13.012Z</time></trkpt><trkpt lat="43.5598602" lon="12.8361604"><ele>265.0</ele><time>2026-04-19T08:12:14.001Z</time></trkpt><trkpt lat="43.5597803" lon="12.8361932"><ele>264.0</ele><time>2026-04-19T08:12:15.003Z</time></trkpt><trkpt lat="43.5596931" lon="12.8362304"><ele>264.0</ele><time>2026-04-19T08:12:16.003Z</time></trkpt><trkpt lat="43.5596067" lon="12.8362659"><ele>264.0</ele><time>2026-04-19T08:12:17.006Z</time></trkpt><trkpt lat="43.5595162" lon="12.8363098"><ele>264.0</ele><time>2026-04-19T08:12:18.006Z</time></trkpt><trkpt lat="43.5594229" lon="12.8363509"><ele>264.0</ele><time>2026-04-19T08:12:19.012Z</time></trkpt><trkpt lat="43.5593261" lon="12.8363885"><ele>264.0</ele><time>2026-04-19T08:12:20.017Z</time></trkpt><trkpt lat="43.5592272" lon="12.8364254"><ele>264.59999999999997</ele><time>2026-04-19T08:12:21.006Z</time></trkpt><trkpt lat="43.5591242" lon="12.836456"><ele>265.2</ele><time>2026-04-19T08:12:22.01Z</time></trkpt><trkpt lat="43.5590176" lon="12.8364857"><ele>265.79999999999995</ele><time>2026-04-19T08:12:23.011Z</time></trkpt><trkpt lat="43.5589067" lon="12.8364973"><ele>266.4</ele><time>2026-04-19T08:12:24.011Z</time></trkpt><trkpt lat="43.5588064" lon="12.8365123"><ele>267.0</ele><time>2026-04-19T08:12:25Z</time></trkpt><trkpt lat="43.558708" lon="12.8365146"><ele>267.6</ele><time>2026-04-19T08:12:26.009Z</time></trkpt><trkpt lat="43.5586116" lon="12.8365284"><ele>268.2</ele><time>2026-04-19T08:12:27.011Z</time></trkpt><trkpt lat="43.5585137" lon="12.8365243"><ele>268.8</ele><time>2026-04-19T08:12:28.007Z</time></trkpt><trkpt lat="43.5584251" lon="12.8365099"><ele>269.4</ele><time>2026-04-19T08:12:29.009Z</time></trkpt><trkpt lat="43.5583392" lon="12.8365017"><ele>270.0</ele><time>2026-04-19T08:12:30.011Z</time></trkpt><trkpt lat="43.5582531" lon="12.8364985"><ele>270.0</ele><time>2026-04-19T08:12:31.006Z</time></trkpt><trkpt lat="43.5581711" lon="12.8364853"><ele>270.0</ele><time>2026-04-19T08:12:32.013Z</time></trkpt><trkpt lat="43.5581" lon="12.8364809"><ele>270.0</ele><time>2026-04-19T08:12:33.002Z</time></trkpt><trkpt lat="43.5580219" lon="12.8364492"><ele>270.0</ele><time>2026-04-19T08:12:34.004Z</time></trkpt><trkpt lat="43.557942" lon="12.8364154"><ele>270.0</ele><time>2026-04-19T08:12:35.006Z</time></trkpt><trkpt lat="43.557855" lon="12.8363896"><ele>270.0</ele><time>2026-04-19T08:12:36.008Z</time></trkpt><trkpt lat="43.557755" lon="12.8363754"><ele>270.2</ele><time>2026-04-19T08:12:37.012Z</time></trkpt><trkpt lat="43.5576508" lon="12.8363678"><ele>270.4</ele><time>2026-04-19T08:12:38.015Z</time></trkpt><trkpt lat="43.5575448" lon="12.83635"><ele>270.6</ele><time>2026-04-19T08:12:39.013Z</time></trkpt><trkpt lat="43.5574378" lon="12.8363291"><ele>270.8</ele><time>2026-04-19T08:12:40.019Z</time></trkpt><trkpt lat="43.5573303" lon="12.8363005"><ele>271.0</ele><time>2026-04-19T08:12:41.016Z</time></trkpt><trkpt lat="43.5572288" lon="12.8362856"><ele>271.0</ele><time>2026-04-19T08:12:42.038Z</time></trkpt><trkpt lat="43.5571276" lon="12.8362776"><ele>271.0</ele><time>2026-04-19T08:12:43.022Z</time></trkpt><trkpt lat="43.5570284" lon="12.8362735"><ele>271.0</ele><time>2026-04-19T08:12:44.022Z</time></trkpt><trkpt lat="43.5569247" lon="12.836263"><ele>271.0</ele><time>2026-04-19T08:12:45.019Z</time></trkpt><trkpt lat="43.5568139" lon="12.8362472"><ele>271.0</ele><time>2026-04-19T08:12:46.013Z</time></trkpt><trkpt lat="43.5567053" lon="12.8362329"><ele>271.2</ele><time>2026-04-19T08:12:47.022Z</time></trkpt><trkpt lat="43.5565997" lon="12.8362127"><ele>271.40000000000003</ele><time>2026-04-19T08:12:48.014Z</time></trkpt><trkpt lat="43.5564941" lon="12.8361937"><ele>271.6</ele><time>2026-04-19T08:12:49.028Z</time></trkpt><trkpt lat="43.5563925" lon="12.8361728"><ele>271.8</ele><time>2026-04-19T08:12:50.016Z</time></trkpt><trkpt lat="43.5562805" lon="12.836159"><ele>272.0</ele><time>2026-04-19T08:12:51.016Z</time></trkpt><trkpt lat="43.5561676" lon="12.8361447"><ele>272.75</ele><time>2026-04-19T08:12:52.013Z</time></trkpt><trkpt lat="43.5560513" lon="12.8361116"><ele>273.5</ele><time>2026-04-19T08:12:53.018Z</time></trkpt><trkpt lat="43.5559314" lon="12.8360929"><ele>274.25</ele><time>2026-04-19T08:12:54.019Z</time></trkpt><trkpt lat="43.5558118" lon="12.8360799"><ele>275.0</ele><time>2026-04-19T08:12:55.02Z</time></trkpt><trkpt lat="43.5556915" lon="12.8360685"><ele>275.0</ele><time>2026-04-19T08:12:56.02Z</time></trkpt><trkpt lat="43.5555683" lon="12.8360488"><ele>275.0</ele><time>2026-04-19T08:12:57.021Z</time></trkpt><trkpt lat="43.555437" lon="12.8360287"><ele>275.0</ele><time>2026-04-19T08:12:58.017Z</time></trkpt><trkpt lat="43.5552952" lon="12.8360093"><ele>275.0</ele><time>2026-04-19T08:12:59.024Z</time></trkpt><trkpt lat="43.5551536" lon="12.8359993"><ele>275.25</ele><time>2026-04-19T08:13:00.022Z</time></trkpt><trkpt lat="43.5549993" lon="12.8359812"><ele>275.5</ele><time>2026-04-19T08:13:01.027Z</time></trkpt><trkpt lat="43.5548686" lon="12.8359667"><ele>275.75</ele><time>2026-04-19T08:13:02.022Z</time></trkpt><trkpt lat="43.5547434" lon="12.8359392"><ele>276.0</ele><time>2026-04-19T08:13:03.027Z</time></trkpt><trkpt lat="43.554622" lon="12.8359291"><ele>276.5</ele><time>2026-04-19T08:13:04.03Z</time></trkpt><trkpt lat="43.5545047" lon="12.835918"><ele>277.0</ele><time>2026-04-19T08:13:05.028Z</time></trkpt><trkpt lat="43.5543763" lon="12.8359001"><ele>277.5</ele><time>2026-04-19T08:13:06.023Z</time></trkpt><trkpt lat="43.5542458" lon="12.8358801"><ele>278.0</ele><time>2026-04-19T08:13:07.03Z</time></trkpt><trkpt lat="43.5541169" lon="12.8358659"><ele>278.0</ele><time>2026-04-19T08:13:08.016Z</time></trkpt><trkpt lat="43.5539881" lon="12.8358546"><ele>278.0</ele><time>2026-04-19T08:13:09.018Z</time></trkpt><trkpt lat="43.5538586" lon="12.8358335"><ele>278.0</ele><time>2026-04-19T08:13:10.026Z</time></trkpt><trkpt lat="43.5537271" lon="12.835811"><ele>278.0</ele><time>2026-04-19T08:13:11.023Z</time></trkpt><trkpt lat="43.5535937" lon="12.8357878"><ele>278.0</ele><time>2026-04-19T08:13:12.036Z</time></trkpt><trkpt lat="43.5534578" lon="12.835769"><ele>278.0</ele><time>2026-04-19T08:13:13.019Z</time></trkpt><trkpt lat="43.5533202" lon="12.8357497"><ele>278.0</ele><time>2026-04-19T08:13:14.018Z</time></trkpt><trkpt lat="43.553193" lon="12.8357297"><ele>278.0</ele><time>2026-04-19T08:13:15.025Z</time></trkpt><trkpt lat="43.5530665" lon="12.8357134"><ele>278.0</ele><time>2026-04-19T08:13:16.018Z</time></trkpt><trkpt lat="43.552945" lon="12.8356934"><ele>278.0</ele><time>2026-04-19T08:13:17.02Z</time></trkpt><trkpt lat="43.552823" lon="12.8356753"><ele>278.0</ele><time>2026-04-19T08:13:18.018Z</time></trkpt><trkpt lat="43.5526965" lon="12.8356599"><ele>278.0</ele><time>2026-04-19T08:13:19.023Z</time></trkpt><trkpt lat="43.5525676" lon="12.8356425"><ele>278.5</ele><time>2026-04-19T08:13:20.018Z</time></trkpt><trkpt lat="43.5524405" lon="12.8356366"><ele>279.0</ele><time>2026-04-19T08:13:21.022Z</time></trkpt><trkpt lat="43.5523105" lon="12.835628"><ele>279.5</ele><time>2026-04-19T08:13:22.021Z</time></trkpt><trkpt lat="43.5521783" lon="12.8356177"><ele>280.0</ele><time>2026-04-19T08:13:23.022Z</time></trkpt><trkpt lat="43.5520474" lon="12.8356047"><ele>280.5</ele><time>2026-04-19T08:13:24.019Z</time></trkpt><trkpt lat="43.5519214" lon="12.8355914"><ele>281.0</ele><time>2026-04-19T08:13:25.021Z</time></trkpt><trkpt lat="43.5517997" lon="12.8355785"><ele>281.5</ele><time>2026-04-19T08:13:26.024Z</time></trkpt><trkpt lat="43.5516771" lon="12.8355644"><ele>282.0</ele><time>2026-04-19T08:13:27.02Z</time></trkpt><trkpt lat="43.5515563" lon="12.8355554"><ele>282.0</ele><time>2026-04-19T08:13:28.015Z</time></trkpt><trkpt lat="43.5514328" lon="12.8355341"><ele>282.0</ele><time>2026-04-19T08:13:29.018Z</time></trkpt><trkpt lat="43.5513066" lon="12.8355256"><ele>282.0</ele><time>2026-04-19T08:13:30.017Z</time></trkpt><trkpt lat="43.551173" lon="12.8355098"><ele>282.0</ele><time>2026-04-19T08:13:31.017Z</time></trkpt><trkpt lat="43.5510429" lon="12.8354977"><ele>282.5</ele><time>2026-04-19T08:13:32.021Z</time></trkpt><trkpt lat="43.5509129" lon="12.8354868"><ele>283.0</ele><time>2026-04-19T08:13:33.017Z</time></trkpt><trkpt lat="43.5507826" lon="12.8354758"><ele>283.5</ele><time>2026-04-19T08:13:34.025Z</time></trkpt><trkpt lat="43.5506621" lon="12.8354654"><ele>284.0</ele><time>2026-04-19T08:13:35.025Z</time></trkpt><trkpt lat="43.5505424" lon="12.835453"><ele>284.0</ele><time>2026-04-19T08:13:36.024Z</time></trkpt><trkpt lat="43.5504255" lon="12.8354421"><ele>284.0</ele><time>2026-04-19T08:13:37.023Z</time></trkpt><trkpt lat="43.5503142" lon="12.8354312"><ele>284.0</ele><time>2026-04-19T08:13:38.023Z</time></trkpt><trkpt lat="43.5501961" lon="12.8354195"><ele>284.0</ele><time>2026-04-19T08:13:39.029Z</time></trkpt><trkpt lat="43.5500769" lon="12.8354059"><ele>283.75</ele><time>2026-04-19T08:13:40.028Z</time></trkpt><trkpt lat="43.5499516" lon="12.8353936"><ele>283.5</ele><time>2026-04-19T08:13:41.028Z</time></trkpt><trkpt lat="43.549816" lon="12.8353867"><ele>283.25</ele><time>2026-04-19T08:13:42.03Z</time></trkpt><trkpt lat="43.5496763" lon="12.8353742"><ele>283.0</ele><time>2026-04-19T08:13:43.042Z</time></trkpt><trkpt lat="43.5495186" lon="12.8353569"><ele>283.66666666666663</ele><time>2026-04-19T08:13:44.019Z</time></trkpt><trkpt lat="43.549362" lon="12.8353253"><ele>284.3333333333333</ele><time>2026-04-19T08:13:45.02Z</time></trkpt><trkpt lat="43.5492076" lon="12.8353079"><ele>285.0</ele><time>2026-04-19T08:13:46.026Z</time></trkpt><trkpt lat="43.5490472" lon="12.8352911"><ele>285.0</ele><time>2026-04-19T08:13:47.028Z</time></trkpt><trkpt lat="43.5488927" lon="12.8352847"><ele>285.0</ele><time>2026-04-19T08:13:48.028Z</time></trkpt><trkpt lat="43.5487353" lon="12.8352721"><ele>285.0</ele><time>2026-04-19T08:13:49.023Z</time></trkpt><trkpt lat="43.5485789" lon="12.8352558"><ele>285.3333333333333</ele><time>2026-04-19T08:13:50.024Z</time></trkpt><trkpt lat="43.5484213" lon="12.8352408"><ele>285.66666666666663</ele><time>2026-04-19T08:13:51.029Z</time></trkpt><trkpt lat="43.5482599" lon="12.8352194"><ele>286.0</ele><time>2026-04-19T08:13:52.021Z</time></trkpt><trkpt lat="43.5481013" lon="12.8352045"><ele>286.0</ele><time>2026-04-19T08:13:53.022Z</time></trkpt><trkpt lat="43.5479458" lon="12.8351958"><ele>286.0</ele><time>2026-04-19T08:13:54.029Z</time></trkpt><trkpt lat="43.5477917" lon="12.8351738"><ele>286.0</ele><time>2026-04-19T08:13:55.023Z</time></trkpt><trkpt lat="43.5476368" lon="12.835153"><ele>287.0</ele><time>2026-04-19T08:13:56.03Z</time></trkpt><trkpt lat="43.5474821" lon="12.8351293"><ele>288.0</ele><time>2026-04-19T08:13:57.028Z</time></trkpt><trkpt lat="43.5473158" lon="12.8351007"><ele>289.0</ele><time>2026-04-19T08:13:58.022Z</time></trkpt><trkpt lat="43.5471472" lon="12.8350831"><ele>289.3333333333333</ele><time>2026-04-19T08:13:59.024Z</time></trkpt><trkpt lat="43.5469754" lon="12.8350651"><ele>289.6666666666667</ele><time>2026-04-19T08:14:00.023Z</time></trkpt><trkpt lat="43.5467997" lon="12.8350454"><ele>290.0</ele><time>2026-04-19T08:14:01.019Z</time></trkpt><trkpt lat="43.5466201" lon="12.835023"><ele>290.0</ele><time>2026-04-19T08:14:02.022Z</time></trkpt><trkpt lat="43.5464357" lon="12.8349911"><ele>290.0</ele><time>2026-04-19T08:14:03.018Z</time></trkpt><trkpt lat="43.5462564" lon="12.834955"><ele>290.0</ele><time>2026-04-19T08:14:04.02Z</time></trkpt><trkpt lat="43.5460823" lon="12.8349155"><ele>290.33333333333337</ele><time>2026-04-19T08:14:05.013Z</time></trkpt><trkpt lat="43.5459006" lon="12.8348643"><ele>290.6666666666667</ele><time>2026-04-19T08:14:06.022Z</time></trkpt><trkpt lat="43.5457267" lon="12.8348096"><ele>291.0</ele><time>2026-04-19T08:14:07.019Z</time></trkpt><trkpt lat="43.5455458" lon="12.8347306"><ele>291.6666666666667</ele><time>2026-04-19T08:14:08.026Z</time></trkpt><trkpt lat="43.545372" lon="12.8346529"><ele>292.33333333333337</ele><time>2026-04-19T08:14:09.02Z</time></trkpt><trkpt lat="43.5451885" lon="12.8345901"><ele>293.0</ele><time>2026-04-19T08:14:10.02Z</time></trkpt><trkpt lat="43.5450099" lon="12.8345332"><ele>293.0</ele><time>2026-04-19T08:14:11.019Z</time></trkpt><trkpt lat="43.5448315" lon="12.8344763"><ele>293.0</ele><time>2026-04-19T08:14:12.022Z</time></trkpt><trkpt lat="43.5446449" lon="12.8344254"><ele>293.0</ele><time>2026-04-19T08:14:13.021Z</time></trkpt><trkpt lat="43.5444539" lon="12.8343786"><ele>293.0</ele><time>2026-04-19T08:14:14.032Z</time></trkpt><trkpt lat="43.5442628" lon="12.8343337"><ele>293.0</ele><time>2026-04-19T08:14:15.022Z</time></trkpt><trkpt lat="43.5440759" lon="12.8342721"><ele>293.0</ele><time>2026-04-19T08:14:16.012Z</time></trkpt><trkpt lat="43.5438814" lon="12.8342282"><ele>294.6666666666667</ele><time>2026-04-19T08:14:17.016Z</time></trkpt><trkpt lat="43.543668" lon="12.8341723"><ele>296.3333333333333</ele><time>2026-04-19T08:14:18.014Z</time></trkpt><trkpt lat="43.5434567" lon="12.83415"><ele>298.0</ele><time>2026-04-19T08:14:19.018Z</time></trkpt><trkpt lat="43.5432539" lon="12.8341243"><ele>298.0</ele><time>2026-04-19T08:14:20.023Z</time></trkpt><trkpt lat="43.5430493" lon="12.8340965"><ele>298.0</ele><time>2026-04-19T08:14:21.009Z</time></trkpt><trkpt lat="43.5428336" lon="12.8340729"><ele>298.0</ele><time>2026-04-19T08:14:22.018Z</time></trkpt><trkpt lat="43.5426271" lon="12.8340483"><ele>298.0</ele><time>2026-04-19T08:14:23.022Z</time></trkpt><trkpt lat="43.5424087" lon="12.8340725"><ele>298.0</ele><time>2026-04-19T08:14:24.015Z</time></trkpt><trkpt lat="43.5421821" lon="12.8340933"><ele>298.0</ele><time>2026-04-19T08:14:25.021Z</time></trkpt><trkpt lat="43.5419493" lon="12.8341157"><ele>298.0</ele><time>2026-04-19T08:14:26.027Z</time></trkpt><trkpt lat="43.5417172" lon="12.8341343"><ele>298.0</ele><time>2026-04-19T08:14:27.027Z</time></trkpt><trkpt lat="43.5414757" lon="12.8341411"><ele>298.0</ele><time>2026-04-19T08:14:28.018Z</time></trkpt><trkpt lat="43.5412414" lon="12.8341325"><ele>298.0</ele><time>2026-04-19T08:14:29.019Z</time></trkpt><trkpt lat="43.5410004" lon="12.834113"><ele>298.5</ele><time>2026-04-19T08:14:30.019Z</time></trkpt><trkpt lat="43.5407682" lon="12.8340887"><ele>299.0</ele><time>2026-04-19T08:14:31.015Z</time></trkpt><trkpt lat="43.5405443" lon="12.8340485"><ele>299.0</ele><time>2026-04-19T08:14:32.016Z</time></trkpt><trkpt lat="43.5403213" lon="12.8339824"><ele>299.0</ele><time>2026-04-19T08:14:33.022Z</time></trkpt><trkpt lat="43.5401063" lon="12.8338694"><ele>299.0</ele><time>2026-04-19T08:14:34.015Z</time></trkpt><trkpt lat="43.5398837" lon="12.8337966"><ele>299.0</ele><time>2026-04-19T08:14:35.012Z</time></trkpt><trkpt lat="43.5396768" lon="12.8336833"><ele>298.33333333333337</ele><time>2026-04-19T08:14:36.021Z</time></trkpt><trkpt lat="43.5394833" lon="12.8335406"><ele>297.6666666666667</ele><time>2026-04-19T08:14:37.015Z</time></trkpt><trkpt lat="43.5392917" lon="12.8334267"><ele>297.0</ele><time>2026-04-19T08:14:38.014Z</time></trkpt><trkpt lat="43.5391054" lon="12.8333108"><ele>299.0</ele><time>2026-04-19T08:14:39.02Z</time></trkpt><trkpt lat="43.5389143" lon="12.8331992"><ele>301.0</ele><time>2026-04-19T08:14:40.013Z</time></trkpt><trkpt lat="43.5387154" lon="12.8330853"><ele>303.0</ele><time>2026-04-19T08:14:41.012Z</time></trkpt><trkpt lat="43.5385299" lon="12.8329809"><ele>303.0</ele><time>2026-04-19T08:14:42.019Z</time></trkpt><trkpt lat="43.5383399" lon="12.8328826"><ele>303.0</ele><time>2026-04-19T08:14:43.016Z</time></trkpt><trkpt lat="43.5381816" lon="12.8327698"><ele>303.0</ele><time>2026-04-19T08:14:44.015Z</time></trkpt><trkpt lat="43.5380322" lon="12.8326898"><ele>304.0</ele><time>2026-04-19T08:14:45.03Z</time></trkpt><trkpt lat="43.5379" lon="12.8326314"><ele>305.0</ele><time>2026-04-19T08:14:46.015Z</time></trkpt><trkpt lat="43.5377503" lon="12.8325846"><ele>306.0</ele><time>2026-04-19T08:14:47.154Z</time></trkpt><trkpt lat="43.53743" lon="12.8325286"><ele>306.0</ele><time>2026-04-19T08:14:49.018Z</time></trkpt><trkpt lat="43.5372571" lon="12.8324914"><ele>306.0</ele><time>2026-04-19T08:14:50.016Z</time></trkpt><trkpt lat="43.5370699" lon="12.832461"><ele>306.0</ele><time>2026-04-19T08:14:51.014Z</time></trkpt><trkpt lat="43.5368824" lon="12.8324406"><ele>306.3333333333333</ele><time>2026-04-19T08:14:52.011Z</time></trkpt><trkpt lat="43.5366869" lon="12.83238"><ele>306.66666666666663</ele><time>2026-04-19T08:14:53.017Z</time></trkpt><trkpt lat="43.5364865" lon="12.8323336"><ele>307.0</ele><time>2026-04-19T08:14:54.019Z</time></trkpt><trkpt lat="43.5362828" lon="12.8322889"><ele>308.0</ele><time>2026-04-19T08:14:55.022Z</time></trkpt><trkpt lat="43.5360819" lon="12.8322644"><ele>309.0</ele><time>2026-04-19T08:14:56.018Z</time></trkpt><trkpt lat="43.5358704" lon="12.8322143"><ele>310.0</ele><time>2026-04-19T08:14:57.024Z</time></trkpt><trkpt lat="43.5356608" lon="12.8321732"><ele>310.0</ele><time>2026-04-19T08:14:58.019Z</time></trkpt><trkpt lat="43.5354517" lon="12.8321247"><ele>310.0</ele><time>2026-04-19T08:14:59.024Z</time></trkpt><trkpt lat="43.5352379" lon="12.8320719"><ele>310.0</ele><time>2026-04-19T08:15:00.025Z</time></trkpt><trkpt lat="43.5350295" lon="12.8320223"><ele>310.0</ele><time>2026-04-19T08:15:01.021Z</time></trkpt><trkpt lat="43.5348111" lon="12.831984"><ele>310.0</ele><time>2026-04-19T08:15:02.021Z</time></trkpt><trkpt lat="43.5345937" lon="12.8319353"><ele>310.0</ele><time>2026-04-19T08:15:03.022Z</time></trkpt><trkpt lat="43.5343774" lon="12.8318955"><ele>310.3333333333333</ele><time>2026-04-19T08:15:04.018Z</time></trkpt><trkpt lat="43.5341537" lon="12.8318374"><ele>310.6666666666667</ele><time>2026-04-19T08:15:05.022Z</time></trkpt><trkpt lat="43.5339431" lon="12.8317795"><ele>311.0</ele><time>2026-04-19T08:15:06.026Z</time></trkpt><trkpt lat="43.5337281" lon="12.8317261"><ele>311.0</ele><time>2026-04-19T08:15:07.024Z</time></trkpt><trkpt lat="43.5335073" lon="12.8316765"><ele>311.0</ele><time>2026-04-19T08:15:08.023Z</time></trkpt><trkpt lat="43.533274" lon="12.8316097"><ele>311.0</ele><time>2026-04-19T08:15:09.026Z</time></trkpt><trkpt lat="43.5330493" lon="12.8315542"><ele>311.0</ele><time>2026-04-19T08:15:10.028Z</time></trkpt><trkpt lat="43.5328174" lon="12.8315023"><ele>313.5</ele><time>2026-04-19T08:15:11.032Z</time></trkpt><trkpt lat="43.5325904" lon="12.8314521"><ele>316.0</ele><time>2026-04-19T08:15:12.031Z</time></trkpt><trkpt lat="43.5323678" lon="12.8313994"><ele>316.0</ele><time>2026-04-19T08:15:13.03Z</time></trkpt><trkpt lat="43.5321447" lon="12.8313393"><ele>316.0</ele><time>2026-04-19T08:15:14.024Z</time></trkpt><trkpt lat="43.5319256" lon="12.8313018"><ele>316.0</ele><time>2026-04-19T08:15:15.026Z</time></trkpt><trkpt lat="43.5317154" lon="12.831273"><ele>316.0</ele><time>2026-04-19T08:15:16.036Z</time></trkpt><trkpt lat="43.531503" lon="12.8312531"><ele>316.0</ele><time>2026-04-19T08:15:17.031Z</time></trkpt><trkpt lat="43.5313101" lon="12.8312551"><ele>316.0</ele><time>2026-04-19T08:15:18.028Z</time></trkpt><trkpt lat="43.5311114" lon="12.831282"><ele>316.0</ele><time>2026-04-19T08:15:19.033Z</time></trkpt><trkpt lat="43.5309192" lon="12.8313013"><ele>316.0</ele><time>2026-04-19T08:15:20.019Z</time></trkpt><trkpt lat="43.5307331" lon="12.8313097"><ele>316.0</ele><time>2026-04-19T08:15:21.019Z</time></trkpt><trkpt lat="43.5305361" lon="12.8312796"><ele>316.3333333333333</ele><time>2026-04-19T08:15:22.026Z</time></trkpt><trkpt lat="43.5303434" lon="12.8311966"><ele>316.6666666666667</ele><time>2026-04-19T08:15:23.018Z</time></trkpt><trkpt lat="43.5301903" lon="12.8310923"><ele>317.0</ele><time>2026-04-19T08:15:24.027Z</time></trkpt><trkpt lat="43.5300228" lon="12.8309666"><ele>318.33333333333337</ele><time>2026-04-19T08:15:25.02Z</time></trkpt><trkpt lat="43.5298384" lon="12.8308267"><ele>319.6666666666667</ele><time>2026-04-19T08:15:26.02Z</time></trkpt><trkpt lat="43.5296664" lon="12.8306848"><ele>321.0</ele><time>2026-04-19T08:15:27.022Z</time></trkpt><trkpt lat="43.5294814" lon="12.8305425"><ele>321.0</ele><time>2026-04-19T08:15:28.023Z</time></trkpt><trkpt lat="43.529281" lon="12.8304109"><ele>321.0</ele><time>2026-04-19T08:15:29.023Z</time></trkpt><trkpt lat="43.5290859" lon="12.8302852"><ele>321.0</ele><time>2026-04-19T08:15:30.03Z</time></trkpt><trkpt lat="43.5288916" lon="12.8301563"><ele>321.0</ele><time>2026-04-19T08:15:31.028Z</time></trkpt><trkpt lat="43.5286978" lon="12.8300237"><ele>321.0</ele><time>2026-04-19T08:15:32.026Z</time></trkpt><trkpt lat="43.5285079" lon="12.8298889"><ele>321.0</ele><time>2026-04-19T08:15:33.027Z</time></trkpt><trkpt lat="43.5283238" lon="12.8297421"><ele>321.0</ele><time>2026-04-19T08:15:34.031Z</time></trkpt><trkpt lat="43.5281343" lon="12.8296"><ele>321.0</ele><time>2026-04-19T08:15:35.031Z</time></trkpt><trkpt lat="43.5279397" lon="12.8294733"><ele>321.0</ele><time>2026-04-19T08:15:36.031Z</time></trkpt><trkpt lat="43.5277369" lon="12.8293638"><ele>322.5</ele><time>2026-04-19T08:15:37.029Z</time></trkpt><trkpt lat="43.5275325" lon="12.8292469"><ele>324.0</ele><time>2026-04-19T08:15:38.025Z</time></trkpt><trkpt lat="43.5273224" lon="12.8291234"><ele>324.0</ele><time>2026-04-19T08:15:39.026Z</time></trkpt><trkpt lat="43.5271117" lon="12.8290004"><ele>324.0</ele><time>2026-04-19T08:15:40.031Z</time></trkpt><trkpt lat="43.5268971" lon="12.8288795"><ele>325.0</ele><time>2026-04-19T08:15:41.032Z</time></trkpt><trkpt lat="43.5266833" lon="12.828754"><ele>326.0</ele><time>2026-04-19T08:15:42.028Z</time></trkpt><trkpt lat="43.5264694" lon="12.828615"><ele>326.0</ele><time>2026-04-19T08:15:43.03Z</time></trkpt><trkpt lat="43.5262602" lon="12.8284905"><ele>326.0</ele><time>2026-04-19T08:15:44.03Z</time></trkpt><trkpt lat="43.5260607" lon="12.8283765"><ele>326.0</ele><time>2026-04-19T08:15:45.032Z</time></trkpt><trkpt lat="43.5258689" lon="12.8282608"><ele>326.6666666666667</ele><time>2026-04-19T08:15:46.038Z</time></trkpt><trkpt lat="43.525678" lon="12.8281519"><ele>327.3333333333333</ele><time>2026-04-19T08:15:47.048Z</time></trkpt><trkpt lat="43.5254816" lon="12.8280418"><ele>328.0</ele><time>2026-04-19T08:15:48.035Z</time></trkpt><trkpt lat="43.5252937" lon="12.8279267"><ele>328.0</ele><time>2026-04-19T08:15:49.036Z</time></trkpt><trkpt lat="43.5251077" lon="12.8278226"><ele>328.0</ele><time>2026-04-19T08:15:50.031Z</time></trkpt><trkpt lat="43.5249247" lon="12.8277217"><ele>328.0</ele><time>2026-04-19T08:15:51.033Z</time></trkpt><trkpt lat="43.5247339" lon="12.8276238"><ele>329.66666666666663</ele><time>2026-04-19T08:15:52.031Z</time></trkpt><trkpt lat="43.5245424" lon="12.8275256"><ele>331.3333333333333</ele><time>2026-04-19T08:15:53.021Z</time></trkpt><trkpt lat="43.5243516" lon="12.8274133"><ele>333.0</ele><time>2026-04-19T08:15:54.028Z</time></trkpt><trkpt lat="43.5241575" lon="12.8272984"><ele>333.0</ele><time>2026-04-19T08:15:55.015Z</time></trkpt><trkpt lat="43.5239655" lon="12.8271796"><ele>333.0</ele><time>2026-04-19T08:15:56.022Z</time></trkpt><trkpt lat="43.5237774" lon="12.8270676"><ele>333.0</ele><time>2026-04-19T08:15:57.022Z</time></trkpt><trkpt lat="43.5235879" lon="12.8269492"><ele>333.6666666666667</ele><time>2026-04-19T08:15:58.018Z</time></trkpt><trkpt lat="43.5233858" lon="12.8268343"><ele>334.33333333333337</ele><time>2026-04-19T08:15:59.032Z</time></trkpt><trkpt lat="43.5231885" lon="12.8267144"><ele>335.0</ele><time>2026-04-19T08:16:00.016Z</time></trkpt><trkpt lat="43.5229962" lon="12.8266014"><ele>334.33333333333337</ele><time>2026-04-19T08:16:01.022Z</time></trkpt><trkpt lat="43.5228085" lon="12.826497"><ele>333.6666666666667</ele><time>2026-04-19T08:16:02.021Z</time></trkpt><trkpt lat="43.5226171" lon="12.826391"><ele>333.0</ele><time>2026-04-19T08:16:03.026Z</time></trkpt><trkpt lat="43.5224392" lon="12.8262791"><ele>333.0</ele><time>2026-04-19T08:16:04.019Z</time></trkpt><trkpt lat="43.5222768" lon="12.8261888"><ele>333.0</ele><time>2026-04-19T08:16:05.02Z</time></trkpt><trkpt lat="43.5221243" lon="12.8261069"><ele>333.0</ele><time>2026-04-19T08:16:06.02Z</time></trkpt><trkpt lat="43.5220094" lon="12.8260513"><ele>333.5</ele><time>2026-04-19T08:16:07.022Z</time></trkpt><trkpt lat="43.5219001" lon="12.8259744"><ele>334.0</ele><time>2026-04-19T08:16:08.014Z</time></trkpt><trkpt lat="43.5217846" lon="12.8259257"><ele>334.5</ele><time>2026-04-19T08:16:09.013Z</time></trkpt><trkpt lat="43.5216605" lon="12.8258555"><ele>335.0</ele><time>2026-04-19T08:16:10.016Z</time></trkpt><trkpt lat="43.5215356" lon="12.8257901"><ele>335.0</ele><time>2026-04-19T08:16:11.009Z</time></trkpt><trkpt lat="43.521419" lon="12.8257093"><ele>335.0</ele><time>2026-04-19T08:16:12.018Z</time></trkpt><trkpt lat="43.5212865" lon="12.8256242"><ele>335.0</ele><time>2026-04-19T08:16:13.009Z</time></trkpt><trkpt lat="43.5211533" lon="12.8255576"><ele>335.0</ele><time>2026-04-19T08:16:14.01Z</time></trkpt><trkpt lat="43.5210344" lon="12.8254818"><ele>335.5</ele><time>2026-04-19T08:16:15.01Z</time></trkpt><trkpt lat="43.5209176" lon="12.8253853"><ele>336.0</ele><time>2026-04-19T08:16:16.01Z</time></trkpt><trkpt lat="43.5207849" lon="12.8253076"><ele>336.5</ele><time>2026-04-19T08:16:17.01Z</time></trkpt><trkpt lat="43.5206667" lon="12.8252078"><ele>337.0</ele><time>2026-04-19T08:16:18.02Z</time></trkpt><trkpt lat="43.5205603" lon="12.825111"><ele>337.5</ele><time>2026-04-19T08:16:19.017Z</time></trkpt><trkpt lat="43.5204622" lon="12.8249856"><ele>338.0</ele><time>2026-04-19T08:16:20.006Z</time></trkpt><trkpt lat="43.5203689" lon="12.8248773"><ele>338.5</ele><time>2026-04-19T08:16:21.014Z</time></trkpt><trkpt lat="43.5202712" lon="12.8247484"><ele>339.0</ele><time>2026-04-19T08:16:22.011Z</time></trkpt><trkpt lat="43.5201768" lon="12.8246233"><ele>339.0</ele><time>2026-04-19T08:16:23.008Z</time></trkpt><trkpt lat="43.5200719" lon="12.8244722"><ele>339.0</ele><time>2026-04-19T08:16:24.012Z</time></trkpt><trkpt lat="43.5199661" lon="12.8243194"><ele>339.0</ele><time>2026-04-19T08:16:25.008Z</time></trkpt><trkpt lat="43.5198497" lon="12.8241698"><ele>340.3333333333333</ele><time>2026-04-19T08:16:26.014Z</time></trkpt><trkpt lat="43.5197258" lon="12.824013"><ele>341.66666666666663</ele><time>2026-04-19T08:16:27.01Z</time></trkpt><trkpt lat="43.5195936" lon="12.8238475"><ele>343.0</ele><time>2026-04-19T08:16:27.995Z</time></trkpt><trkpt lat="43.5194602" lon="12.8236744"><ele>342.0</ele><time>2026-04-19T08:16:29.011Z</time></trkpt><trkpt lat="43.5193256" lon="12.8234865"><ele>341.0</ele><time>2026-04-19T08:16:30.011Z</time></trkpt><trkpt lat="43.5191673" lon="12.8233016"><ele>340.0</ele><time>2026-04-19T08:16:31.005Z</time></trkpt><trkpt lat="43.519005" lon="12.8231197"><ele>340.0</ele><time>2026-04-19T08:16:32.004Z</time></trkpt><trkpt lat="43.5188326" lon="12.8229279"><ele>340.0</ele><time>2026-04-19T08:16:33.006Z</time></trkpt><trkpt lat="43.5186471" lon="12.8227468"><ele>340.0</ele><time>2026-04-19T08:16:34.003Z</time></trkpt><trkpt lat="43.5184414" lon="12.8225829"><ele>342.5</ele><time>2026-04-19T08:16:35.007Z</time></trkpt><trkpt lat="43.5182312" lon="12.8224392"><ele>345.0</ele><time>2026-04-19T08:16:36.006Z</time></trkpt><trkpt lat="43.5180106" lon="12.8223075"><ele>340.5</ele><time>2026-04-19T08:16:37.012Z</time></trkpt><trkpt lat="43.5177751" lon="12.8221746"><ele>336.0</ele><time>2026-04-19T08:16:38.001Z</time></trkpt><trkpt lat="43.5175483" lon="12.8220636"><ele>336.0</ele><time>2026-04-19T08:16:39.004Z</time></trkpt><trkpt lat="43.5173341" lon="12.8219288"><ele>336.0</ele><time>2026-04-19T08:16:40.014Z</time></trkpt><trkpt lat="43.5171312" lon="12.8217434"><ele>337.0</ele><time>2026-04-19T08:16:40.995Z</time></trkpt><trkpt lat="43.5169517" lon="12.8215449"><ele>338.0</ele><time>2026-04-19T08:16:42.009Z</time></trkpt><trkpt lat="43.5168065" lon="12.8212924"><ele>338.0</ele><time>2026-04-19T08:16:43.007Z</time></trkpt><trkpt lat="43.516661" lon="12.8210314"><ele>338.0</ele><time>2026-04-19T08:16:43.999Z</time></trkpt><trkpt lat="43.5165249" lon="12.8207823"><ele>337.6666666666667</ele><time>2026-04-19T08:16:45.005Z</time></trkpt><trkpt lat="43.5163774" lon="12.820571"><ele>337.3333333333333</ele><time>2026-04-19T08:16:46.006Z</time></trkpt><trkpt lat="43.5161943" lon="12.820402"><ele>337.0</ele><time>2026-04-19T08:16:47.008Z</time></trkpt><trkpt lat="43.515981" lon="12.8202841"><ele>344.5</ele><time>2026-04-19T08:16:48.001Z</time></trkpt><trkpt lat="43.5157695" lon="12.8201336"><ele>352.0</ele><time>2026-04-19T08:16:49.012Z</time></trkpt><trkpt lat="43.5155765" lon="12.8199721"><ele>348.5</ele><time>2026-04-19T08:16:50.006Z</time></trkpt><trkpt lat="43.5153692" lon="12.8198208"><ele>345.0</ele><time>2026-04-19T08:16:51.008Z</time></trkpt><trkpt lat="43.5151384" lon="12.8197186"><ele>345.0</ele><time>2026-04-19T08:16:52.003Z</time></trkpt><trkpt lat="43.5148962" lon="12.8196539"><ele>345.0</ele><time>2026-04-19T08:16:53.003Z</time></trkpt><trkpt lat="43.5146557" lon="12.8195865"><ele>345.5</ele><time>2026-04-19T08:16:54Z</time></trkpt><trkpt lat="43.5144323" lon="12.8195181"><ele>346.0</ele><time>2026-04-19T08:16:55.002Z</time></trkpt><trkpt lat="43.5142047" lon="12.8194214"><ele>350.0</ele><time>2026-04-19T08:16:56.001Z</time></trkpt><trkpt lat="43.5139857" lon="12.8192896"><ele>354.0</ele><time>2026-04-19T08:16:57.007Z</time></trkpt><trkpt lat="43.5137787" lon="12.8190954"><ele>350.5</ele><time>2026-04-19T08:16:57.998Z</time></trkpt><trkpt lat="43.5135799" lon="12.8189092"><ele>347.0</ele><time>2026-04-19T08:16:59.002Z</time></trkpt><trkpt lat="43.5133716" lon="12.8187368"><ele>347.0</ele><time>2026-04-19T08:16:59.997Z</time></trkpt><trkpt lat="43.5131924" lon="12.8185825"><ele>347.0</ele><time>2026-04-19T08:17:01.004Z</time></trkpt><trkpt lat="43.5130182" lon="12.8184801"><ele>347.0</ele><time>2026-04-19T08:17:02.008Z</time></trkpt><trkpt lat="43.5128276" lon="12.8184326"><ele>346.6666666666667</ele><time>2026-04-19T08:17:03.007Z</time></trkpt><trkpt lat="43.5126365" lon="12.818441"><ele>346.3333333333333</ele><time>2026-04-19T08:17:04.01Z</time></trkpt><trkpt lat="43.5124386" lon="12.8185108"><ele>346.0</ele><time>2026-04-19T08:17:05.002Z</time></trkpt><trkpt lat="43.5122484" lon="12.8186214"><ele>346.0</ele><time>2026-04-19T08:17:05.999Z</time></trkpt><trkpt lat="43.5121105" lon="12.8187189"><ele>346.0</ele><time>2026-04-19T08:17:07.004Z</time></trkpt><trkpt lat="43.5119953" lon="12.8187625"><ele>346.0</ele><time>2026-04-19T08:17:08.001Z</time></trkpt><trkpt lat="43.5118649" lon="12.8187401"><ele>346.0</ele><time>2026-04-19T08:17:09.003Z</time></trkpt><trkpt lat="43.511731" lon="12.8186493"><ele>348.0</ele><time>2026-04-19T08:17:10.003Z</time></trkpt><trkpt lat="43.5116098" lon="12.818498"><ele>350.0</ele><time>2026-04-19T08:17:11.003Z</time></trkpt><trkpt lat="43.5114876" lon="12.8182941"><ele>352.0</ele><time>2026-04-19T08:17:11.998Z</time></trkpt><trkpt lat="43.511369" lon="12.8180284"><ele>352.0</ele><time>2026-04-19T08:17:12.995Z</time></trkpt><trkpt lat="43.5112452" lon="12.8177428"><ele>352.0</ele><time>2026-04-19T08:17:13.995Z</time></trkpt><trkpt lat="43.5111235" lon="12.817462"><ele>351.3333333333333</ele><time>2026-04-19T08:17:14.995Z</time></trkpt><trkpt lat="43.5110005" lon="12.8172686"><ele>350.6666666666667</ele><time>2026-04-19T08:17:15.995Z</time></trkpt><trkpt lat="43.5108577" lon="12.8171087"><ele>350.0</ele><time>2026-04-19T08:17:17.004Z</time></trkpt><trkpt lat="43.5106893" lon="12.8170159"><ele>350.0</ele><time>2026-04-19T08:17:17.998Z</time></trkpt><trkpt lat="43.5105202" lon="12.8169394"><ele>350.0</ele><time>2026-04-19T08:17:18.989Z</time></trkpt><trkpt lat="43.5103847" lon="12.8168687"><ele>350.0</ele><time>2026-04-19T08:17:20.013Z</time></trkpt><trkpt lat="43.5102849" lon="12.8167747"><ele>350.0</ele><time>2026-04-19T08:17:20.994Z</time></trkpt><trkpt lat="43.5101955" lon="12.8166125"><ele>353.6666666666667</ele><time>2026-04-19T08:17:22.003Z</time></trkpt><trkpt lat="43.510114" lon="12.8164407"><ele>357.3333333333333</ele><time>2026-04-19T08:17:22.998Z</time></trkpt><trkpt lat="43.5100207" lon="12.8162483"><ele>361.0</ele><time>2026-04-19T08:17:23.999Z</time></trkpt><trkpt lat="43.5099012" lon="12.8161135"><ele>361.0</ele><time>2026-04-19T08:17:25Z</time></trkpt><trkpt lat="43.5097325" lon="12.8160208"><ele>361.0</ele><time>2026-04-19T08:17:26.004Z</time></trkpt><trkpt lat="43.5095264" lon="12.8159826"><ele>361.0</ele><time>2026-04-19T08:17:27.002Z</time></trkpt><trkpt lat="43.5092865" lon="12.8159505"><ele>357.5</ele><time>2026-04-19T08:17:27.998Z</time></trkpt><trkpt lat="43.5090473" lon="12.8159406"><ele>354.0</ele><time>2026-04-19T08:17:28.992Z</time></trkpt><trkpt lat="43.5088078" lon="12.8158679"><ele>359.0</ele><time>2026-04-19T08:17:29.997Z</time></trkpt><trkpt lat="43.5085889" lon="12.8157247"><ele>364.0</ele><time>2026-04-19T08:17:30.995Z</time></trkpt><trkpt lat="43.5083945" lon="12.8155382"><ele>364.0</ele><time>2026-04-19T08:17:31.991Z</time></trkpt><trkpt lat="43.5081814" lon="12.8153675"><ele>364.0</ele><time>2026-04-19T08:17:32.992Z</time></trkpt><trkpt lat="43.5079519" lon="12.8152549"><ele>360.5</ele><time>2026-04-19T08:17:33.988Z</time></trkpt><trkpt lat="43.5077048" lon="12.8151589"><ele>357.0</ele><time>2026-04-19T08:17:34.993Z</time></trkpt><trkpt lat="43.5074522" lon="12.8150643"><ele>357.0</ele><time>2026-04-19T08:17:35.995Z</time></trkpt><trkpt lat="43.5071991" lon="12.8149678"><ele>357.0</ele><time>2026-04-19T08:17:36.998Z</time></trkpt><trkpt lat="43.5069625" lon="12.8148539"><ele>363.5</ele><time>2026-04-19T08:17:38.001Z</time></trkpt><trkpt lat="43.506725" lon="12.8147253"><ele>370.0</ele><time>2026-04-19T08:17:38.994Z</time></trkpt><trkpt lat="43.5064944" lon="12.8145904"><ele>370.0</ele><time>2026-04-19T08:17:39.995Z</time></trkpt><trkpt lat="43.5062707" lon="12.8144235"><ele>370.0</ele><time>2026-04-19T08:17:41.002Z</time></trkpt><trkpt lat="43.5060668" lon="12.8142356"><ele>368.5</ele><time>2026-04-19T08:17:41.997Z</time></trkpt><trkpt lat="43.5058578" lon="12.8140458"><ele>367.0</ele><time>2026-04-19T08:17:42.999Z</time></trkpt><trkpt lat="43.505649" lon="12.8138606"><ele>367.0</ele><time>2026-04-19T08:17:43.999Z</time></trkpt><trkpt lat="43.5054477" lon="12.8136819"><ele>367.0</ele><time>2026-04-19T08:17:45.001Z</time></trkpt><trkpt lat="43.5052563" lon="12.813524"><ele>365.66666666666663</ele><time>2026-04-19T08:17:46.004Z</time></trkpt><trkpt lat="43.5050691" lon="12.8133744"><ele>364.3333333333333</ele><time>2026-04-19T08:17:47.006Z</time></trkpt><trkpt lat="43.504895" lon="12.8132299"><ele>363.0</ele><time>2026-04-19T08:17:48.005Z</time></trkpt><trkpt lat="43.5047381" lon="12.81309"><ele>363.0</ele><time>2026-04-19T08:17:49.001Z</time></trkpt><trkpt lat="43.5046014" lon="12.8129762"><ele>363.0</ele><time>2026-04-19T08:17:50.003Z</time></trkpt><trkpt lat="43.504462" lon="12.8128549"><ele>363.0</ele><time>2026-04-19T08:17:51.022Z</time></trkpt><trkpt lat="43.504319" lon="12.8127411"><ele>365.0</ele><time>2026-04-19T08:17:52.008Z</time></trkpt><trkpt lat="43.5041678" lon="12.8126369"><ele>367.0</ele><time>2026-04-19T08:17:53.008Z</time></trkpt><trkpt lat="43.5040099" lon="12.8125568"><ele>369.0</ele><time>2026-04-19T08:17:54.009Z</time></trkpt><trkpt lat="43.5038388" lon="12.8125121"><ele>373.0</ele><time>2026-04-19T08:17:55.002Z</time></trkpt><trkpt lat="43.5036502" lon="12.8124935"><ele>377.0</ele><time>2026-04-19T08:17:56.011Z</time></trkpt><trkpt lat="43.5034523" lon="12.8125098"><ele>381.0</ele><time>2026-04-19T08:17:57.01Z</time></trkpt><trkpt lat="43.5032563" lon="12.8125678"><ele>381.0</ele><time>2026-04-19T08:17:58.008Z</time></trkpt><trkpt lat="43.5030534" lon="12.8126388"><ele>381.0</ele><time>2026-04-19T08:17:59.01Z</time></trkpt><trkpt lat="43.502846" lon="12.8126639"><ele>381.0</ele><time>2026-04-19T08:17:59.998Z</time></trkpt><trkpt lat="43.5026221" lon="12.8126299"><ele>385.5</ele><time>2026-04-19T08:18:01.003Z</time></trkpt><trkpt lat="43.5023988" lon="12.8125737"><ele>390.0</ele><time>2026-04-19T08:18:01.995Z</time></trkpt><trkpt lat="43.5021733" lon="12.8125088"><ele>390.0</ele><time>2026-04-19T08:18:02.995Z</time></trkpt><trkpt lat="43.5019491" lon="12.8124364"><ele>390.0</ele><time>2026-04-19T08:18:03.997Z</time></trkpt><trkpt lat="43.5017115" lon="12.8123783"><ele>390.0</ele><time>2026-04-19T08:18:04.998Z</time></trkpt><trkpt lat="43.5014631" lon="12.8123226"><ele>390.0</ele><time>2026-04-19T08:18:05.992Z</time></trkpt><trkpt lat="43.5012187" lon="12.8122845"><ele>388.0</ele><time>2026-04-19T08:18:06.994Z</time></trkpt><trkpt lat="43.5009634" lon="12.8122298"><ele>386.0</ele><time>2026-04-19T08:18:07.995Z</time></trkpt><trkpt lat="43.5007112" lon="12.8121814"><ele>386.0</ele><time>2026-04-19T08:18:08.992Z</time></trkpt><trkpt lat="43.5004523" lon="12.8121213"><ele>386.0</ele><time>2026-04-19T08:18:09.995Z</time></trkpt><trkpt lat="43.5001874" lon="12.8120631"><ele>386.0</ele><time>2026-04-19T08:18:10.998Z</time></trkpt><trkpt lat="43.4999254" lon="12.8119953"><ele>386.0</ele><time>2026-04-19T08:18:11.999Z</time></trkpt><trkpt lat="43.4996638" lon="12.8119309"><ele>386.0</ele><time>2026-04-19T08:18:12.999Z</time></trkpt><trkpt lat="43.4994136" lon="12.8118474"><ele>386.0</ele><time>2026-04-19T08:18:13.997Z</time></trkpt><trkpt lat="43.4991775" lon="12.8117367"><ele>389.0</ele><time>2026-04-19T08:18:14.992Z</time></trkpt><trkpt lat="43.4989493" lon="12.8115897"><ele>392.0</ele><time>2026-04-19T08:18:15.997Z</time></trkpt><trkpt lat="43.4987155" lon="12.8114365"><ele>392.0</ele><time>2026-04-19T08:18:16.998Z</time></trkpt><trkpt lat="43.4984839" lon="12.8112889"><ele>392.0</ele><time>2026-04-19T08:18:18Z</time></trkpt><trkpt lat="43.4982413" lon="12.8111495"><ele>392.0</ele><time>2026-04-19T08:18:19.004Z</time></trkpt><trkpt lat="43.4979923" lon="12.8110127"><ele>392.0</ele><time>2026-04-19T08:18:20.004Z</time></trkpt><trkpt lat="43.497745" lon="12.8108859"><ele>403.0</ele><time>2026-04-19T08:18:20.999Z</time></trkpt><trkpt lat="43.4975012" lon="12.8107706"><ele>414.0</ele><time>2026-04-19T08:18:22.014Z</time></trkpt><trkpt lat="43.4972513" lon="12.8106572"><ele>409.0</ele><time>2026-04-19T08:18:22.999Z</time></trkpt><trkpt lat="43.4969893" lon="12.8105511"><ele>404.0</ele><time>2026-04-19T08:18:23.998Z</time></trkpt><trkpt lat="43.4967419" lon="12.8104664"><ele>404.0</ele><time>2026-04-19T08:18:24.993Z</time></trkpt><trkpt lat="43.4964901" lon="12.8103829"><ele>404.0</ele><time>2026-04-19T08:18:26Z</time></trkpt><trkpt lat="43.4962533" lon="12.8102958"><ele>405.0</ele><time>2026-04-19T08:18:27Z</time></trkpt><trkpt lat="43.4960064" lon="12.8102171"><ele>406.0</ele><time>2026-04-19T08:18:27.998Z</time></trkpt><trkpt lat="43.4957619" lon="12.8101726"><ele>418.0</ele><time>2026-04-19T08:18:29.003Z</time></trkpt><trkpt lat="43.4955295" lon="12.810138"><ele>430.0</ele><time>2026-04-19T08:18:29.995Z</time></trkpt><trkpt lat="43.4952929" lon="12.810138"><ele>430.0</ele><time>2026-04-19T08:18:30.994Z</time></trkpt><trkpt lat="43.4950717" lon="12.8101337"><ele>430.0</ele><time>2026-04-19T08:18:31.999Z</time></trkpt><trkpt lat="43.4948456" lon="12.8100903"><ele>430.0</ele><time>2026-04-19T08:18:32.998Z</time></trkpt><trkpt lat="43.4946203" lon="12.8100178"><ele>423.5</ele><time>2026-04-19T08:18:34Z</time></trkpt><trkpt lat="43.4943989" lon="12.8098763"><ele>417.0</ele><time>2026-04-19T08:18:34.997Z</time></trkpt><trkpt lat="43.4941937" lon="12.8097016"><ele>417.0</ele><time>2026-04-19T08:18:35.999Z</time></trkpt><trkpt lat="43.4939898" lon="12.8095088"><ele>417.0</ele><time>2026-04-19T08:18:37.001Z</time></trkpt><trkpt lat="43.4937841" lon="12.8093158"><ele>421.5</ele><time>2026-04-19T08:18:37.999Z</time></trkpt><trkpt lat="43.4935641" lon="12.8091113"><ele>426.0</ele><time>2026-04-19T08:18:38.999Z</time></trkpt><trkpt lat="43.493343" lon="12.8089136"><ele>426.0</ele><time>2026-04-19T08:18:39.996Z</time></trkpt><trkpt lat="43.4931203" lon="12.8087083"><ele>426.0</ele><time>2026-04-19T08:18:41.002Z</time></trkpt><trkpt lat="43.4928904" lon="12.8085171"><ele>435.5</ele><time>2026-04-19T08:18:42Z</time></trkpt><trkpt lat="43.4926637" lon="12.8083291"><ele>445.0</ele><time>2026-04-19T08:18:43.002Z</time></trkpt><trkpt lat="43.4924376" lon="12.8081449"><ele>445.0</ele><time>2026-04-19T08:18:43.998Z</time></trkpt><trkpt lat="43.4922037" lon="12.8079821"><ele>445.0</ele><time>2026-04-19T08:18:44.995Z</time></trkpt><trkpt lat="43.4919556" lon="12.8078513"><ele>438.0</ele><time>2026-04-19T08:18:45.999Z</time></trkpt><trkpt lat="43.491708" lon="12.8077586"><ele>431.0</ele><time>2026-04-19T08:18:46.996Z</time></trkpt><trkpt lat="43.4914689" lon="12.8076716"><ele>443.5</ele><time>2026-04-19T08:18:48.006Z</time></trkpt><trkpt lat="43.4912314" lon="12.8075951"><ele>456.0</ele><time>2026-04-19T08:18:49.003Z</time></trkpt><trkpt lat="43.4909845" lon="12.807588"><ele>445.0</ele><time>2026-04-19T08:18:50.009Z</time></trkpt><trkpt lat="43.4907367" lon="12.8076664"><ele>434.0</ele><time>2026-04-19T08:18:51Z</time></trkpt><trkpt lat="43.4904864" lon="12.8077505"><ele>441.0</ele><time>2026-04-19T08:18:51.997Z</time></trkpt><trkpt lat="43.4902555" lon="12.8078694"><ele>448.0</ele><time>2026-04-19T08:18:53.018Z</time></trkpt><trkpt lat="43.4900228" lon="12.8080534"><ele>448.0</ele><time>2026-04-19T08:18:54.004Z</time></trkpt><trkpt lat="43.4898006" lon="12.8082731"><ele>448.0</ele><time>2026-04-19T08:18:54.998Z</time></trkpt><trkpt lat="43.4895852" lon="12.8084934"><ele>450.0</ele><time>2026-04-19T08:18:55.998Z</time></trkpt><trkpt lat="43.489384" lon="12.8086959"><ele>452.0</ele><time>2026-04-19T08:18:56.998Z</time></trkpt><trkpt lat="43.4891601" lon="12.8088861"><ele>452.0</ele><time>2026-04-19T08:18:57.997Z</time></trkpt><trkpt lat="43.4889443" lon="12.8090842"><ele>452.0</ele><time>2026-04-19T08:18:59.002Z</time></trkpt><trkpt lat="43.4887284" lon="12.8092872"><ele>452.0</ele><time>2026-04-19T08:19:00.008Z</time></trkpt><trkpt lat="43.4885437" lon="12.8094986"><ele>452.0</ele><time>2026-04-19T08:19:00.999Z</time></trkpt><trkpt lat="43.4883741" lon="12.8096759"><ele>452.0</ele><time>2026-04-19T08:19:02.002Z</time></trkpt><trkpt lat="43.4882131" lon="12.8098151"><ele>452.0</ele><time>2026-04-19T08:19:02.997Z</time></trkpt><trkpt lat="43.4880807" lon="12.8099375"><ele>452.0</ele><time>2026-04-19T08:19:03.994Z</time></trkpt><trkpt lat="43.4879427" lon="12.8100138"><ele>455.3333333333333</ele><time>2026-04-19T08:19:05.002Z</time></trkpt><trkpt lat="43.4877944" lon="12.8100468"><ele>458.66666666666663</ele><time>2026-04-19T08:19:06.001Z</time></trkpt><trkpt lat="43.4876152" lon="12.8099805"><ele>462.0</ele><time>2026-04-19T08:19:07.006Z</time></trkpt><trkpt lat="43.4874143" lon="12.8098768"><ele>462.0</ele><time>2026-04-19T08:19:08Z</time></trkpt><trkpt lat="43.4872001" lon="12.8097885"><ele>462.0</ele><time>2026-04-19T08:19:08.994Z</time></trkpt><trkpt lat="43.4869726" lon="12.8097145"><ele>465.5</ele><time>2026-04-19T08:19:10.003Z</time></trkpt><trkpt lat="43.4867434" lon="12.8096522"><ele>469.0</ele><time>2026-04-19T08:19:11.008Z</time></trkpt><trkpt lat="43.486505" lon="12.8096152"><ele>469.0</ele><time>2026-04-19T08:19:12.008Z</time></trkpt><trkpt lat="43.4862654" lon="12.8095893"><ele>469.0</ele><time>2026-04-19T08:19:13.014Z</time></trkpt><trkpt lat="43.486016" lon="12.809554"><ele>469.0</ele><time>2026-04-19T08:19:14.026Z</time></trkpt><trkpt lat="43.4857549" lon="12.8095492"><ele>469.0</ele><time>2026-04-19T08:19:15.013Z</time></trkpt><trkpt lat="43.4854924" lon="12.8095366"><ele>468.5</ele><time>2026-04-19T08:19:16.018Z</time></trkpt><trkpt lat="43.4852322" lon="12.8095232"><ele>468.0</ele><time>2026-04-19T08:19:17.016Z</time></trkpt><trkpt lat="43.4849749" lon="12.809509"><ele>468.0</ele><time>2026-04-19T08:19:18.008Z</time></trkpt><trkpt lat="43.4847173" lon="12.8094853"><ele>468.0</ele><time>2026-04-19T08:19:19.009Z</time></trkpt><trkpt lat="43.4844462" lon="12.8094563"><ele>464.5</ele><time>2026-04-19T08:19:20.015Z</time></trkpt><trkpt lat="43.4841786" lon="12.8094398"><ele>461.0</ele><time>2026-04-19T08:19:21.007Z</time></trkpt><trkpt lat="43.4838993" lon="12.8094236"><ele>460.0</ele><time>2026-04-19T08:19:22.01Z</time></trkpt><trkpt lat="43.4836102" lon="12.809405"><ele>459.0</ele><time>2026-04-19T08:19:23.009Z</time></trkpt><trkpt lat="43.483316" lon="12.8093889"><ele>459.0</ele><time>2026-04-19T08:19:24.03Z</time></trkpt><trkpt lat="43.4830066" lon="12.8093611"><ele>459.0</ele><time>2026-04-19T08:19:25.015Z</time></trkpt><trkpt lat="43.4827159" lon="12.8093379"><ele>454.0</ele><time>2026-04-19T08:19:26.013Z</time></trkpt><trkpt lat="43.4824195" lon="12.8093173"><ele>449.0</ele><time>2026-04-19T08:19:27.014Z</time></trkpt><trkpt lat="43.4821396" lon="12.8093027"><ele>449.0</ele><time>2026-04-19T08:19:28.009Z</time></trkpt><trkpt lat="43.481872" lon="12.8092914"><ele>449.0</ele><time>2026-04-19T08:19:29.022Z</time></trkpt><trkpt lat="43.4816574" lon="12.8092767"><ele>449.0</ele><time>2026-04-19T08:19:30.013Z</time></trkpt><trkpt lat="43.4814385" lon="12.8092586"><ele>449.0</ele><time>2026-04-19T08:19:31.008Z</time></trkpt><trkpt lat="43.4812159" lon="12.8092198"><ele>449.0</ele><time>2026-04-19T08:19:32.017Z</time></trkpt><trkpt lat="43.4810157" lon="12.8091261"><ele>447.3333333333333</ele><time>2026-04-19T08:19:33.016Z</time></trkpt><trkpt lat="43.4808456" lon="12.8089713"><ele>445.66666666666663</ele><time>2026-04-19T08:19:34.017Z</time></trkpt><trkpt lat="43.480693" lon="12.808805"><ele>444.0</ele><time>2026-04-19T08:19:35.008Z</time></trkpt><trkpt lat="43.4805335" lon="12.8086874"><ele>443.33333333333337</ele><time>2026-04-19T08:19:36.018Z</time></trkpt><trkpt lat="43.4803583" lon="12.8086377"><ele>442.6666666666667</ele><time>2026-04-19T08:19:37.015Z</time></trkpt><trkpt lat="43.4801789" lon="12.8086247"><ele>442.0</ele><time>2026-04-19T08:19:38.012Z</time></trkpt><trkpt lat="43.4800075" lon="12.8086647"><ele>442.0</ele><time>2026-04-19T08:19:39.01Z</time></trkpt><trkpt lat="43.4798201" lon="12.8087901"><ele>442.0</ele><time>2026-04-19T08:19:40.015Z</time></trkpt><trkpt lat="43.4796359" lon="12.8089653"><ele>442.0</ele><time>2026-04-19T08:19:41.007Z</time></trkpt><trkpt lat="43.4794313" lon="12.8091121"><ele>444.0</ele><time>2026-04-19T08:19:42.018Z</time></trkpt><trkpt lat="43.4792224" lon="12.8092363"><ele>446.0</ele><time>2026-04-19T08:19:43.008Z</time></trkpt><trkpt lat="43.4790134" lon="12.8093484"><ele>446.0</ele><time>2026-04-19T08:19:44.007Z</time></trkpt><trkpt lat="43.4788171" lon="12.8095121"><ele>446.0</ele><time>2026-04-19T08:19:45.013Z</time></trkpt><trkpt lat="43.4786377" lon="12.809701"><ele>441.5</ele><time>2026-04-19T08:19:46.01Z</time></trkpt><trkpt lat="43.4784412" lon="12.8098456"><ele>437.0</ele><time>2026-04-19T08:19:47.009Z</time></trkpt><trkpt lat="43.4782193" lon="12.8099455"><ele>437.0</ele><time>2026-04-19T08:19:48.012Z</time></trkpt><trkpt lat="43.4779763" lon="12.8100375"><ele>437.0</ele><time>2026-04-19T08:19:49.008Z</time></trkpt><trkpt lat="43.4777345" lon="12.8101459"><ele>435.0</ele><time>2026-04-19T08:19:50.012Z</time></trkpt><trkpt lat="43.4774942" lon="12.8102638"><ele>433.0</ele><time>2026-04-19T08:19:51.009Z</time></trkpt><trkpt lat="43.477259" lon="12.8103855"><ele>428.5</ele><time>2026-04-19T08:19:52.013Z</time></trkpt><trkpt lat="43.4770229" lon="12.8104807"><ele>424.0</ele><time>2026-04-19T08:19:53.006Z</time></trkpt><trkpt lat="43.4767955" lon="12.8106077"><ele>424.0</ele><time>2026-04-19T08:19:54.008Z</time></trkpt><trkpt lat="43.4765844" lon="12.8107548"><ele>424.0</ele><time>2026-04-19T08:19:55.017Z</time></trkpt><trkpt lat="43.4763851" lon="12.8109059"><ele>423.0</ele><time>2026-04-19T08:19:56.001Z</time></trkpt><trkpt lat="43.4762115" lon="12.8110819"><ele>422.0</ele><time>2026-04-19T08:19:57.014Z</time></trkpt><trkpt lat="43.4760553" lon="12.811283"><ele>421.0</ele><time>2026-04-19T08:19:58.008Z</time></trkpt><trkpt lat="43.4759179" lon="12.811448"><ele>421.0</ele><time>2026-04-19T08:19:59.013Z</time></trkpt><trkpt lat="43.4758036" lon="12.8115876"><ele>421.0</ele><time>2026-04-19T08:20:00.011Z</time></trkpt><trkpt lat="43.4757135" lon="12.8116452"><ele>421.0</ele><time>2026-04-19T08:20:01.012Z</time></trkpt><trkpt lat="43.4755748" lon="12.8116567"><ele>421.0</ele><time>2026-04-19T08:20:02.017Z</time></trkpt><trkpt lat="43.4754292" lon="12.8115823"><ele>419.6666666666667</ele><time>2026-04-19T08:20:03.002Z</time></trkpt><trkpt lat="43.4752989" lon="12.8115375"><ele>418.33333333333337</ele><time>2026-04-19T08:20:04.014Z</time></trkpt><trkpt lat="43.4751443" lon="12.8115745"><ele>417.0</ele><time>2026-04-19T08:20:05.013Z</time></trkpt><trkpt lat="43.4749574" lon="12.8116862"><ele>416.5</ele><time>2026-04-19T08:20:06.016Z</time></trkpt><trkpt lat="43.4747645" lon="12.8118419"><ele>416.0</ele><time>2026-04-19T08:20:07.006Z</time></trkpt><trkpt lat="43.4745633" lon="12.8119907"><ele>416.0</ele><time>2026-04-19T08:20:08.007Z</time></trkpt><trkpt lat="43.4743579" lon="12.8121662"><ele>416.0</ele><time>2026-04-19T08:20:09.006Z</time></trkpt><trkpt lat="43.4741571" lon="12.8123365"><ele>416.0</ele><time>2026-04-19T08:20:10.002Z</time></trkpt><trkpt lat="43.4739529" lon="12.8125043"><ele>416.0</ele><time>2026-04-19T08:20:11.005Z</time></trkpt><trkpt lat="43.4737406" lon="12.8126483"><ele>414.0</ele><time>2026-04-19T08:20:12.013Z</time></trkpt><trkpt lat="43.4735132" lon="12.8127309"><ele>412.0</ele><time>2026-04-19T08:20:13.015Z</time></trkpt><trkpt lat="43.4732792" lon="12.8127782"><ele>412.0</ele><time>2026-04-19T08:20:14.009Z</time></trkpt><trkpt lat="43.4730438" lon="12.8128243"><ele>412.0</ele><time>2026-04-19T08:20:15.015Z</time></trkpt><trkpt lat="43.4728105" lon="12.8128805"><ele>412.0</ele><time>2026-04-19T08:20:16.004Z</time></trkpt><trkpt lat="43.4725809" lon="12.8129446"><ele>412.0</ele><time>2026-04-19T08:20:17.011Z</time></trkpt><trkpt lat="43.4723411" lon="12.8129816"><ele>411.5</ele><time>2026-04-19T08:20:18.012Z</time></trkpt><trkpt lat="43.4720829" lon="12.8130223"><ele>411.0</ele><time>2026-04-19T08:20:19.009Z</time></trkpt><trkpt lat="43.4718196" lon="12.8130685"><ele>411.0</ele><time>2026-04-19T08:20:20.006Z</time></trkpt><trkpt lat="43.4715449" lon="12.8131046"><ele>411.0</ele><time>2026-04-19T08:20:21.005Z</time></trkpt><trkpt lat="43.4712775" lon="12.8131309"><ele>409.5</ele><time>2026-04-19T08:20:22.01Z</time></trkpt><trkpt lat="43.4710169" lon="12.8131535"><ele>408.0</ele><time>2026-04-19T08:20:23.008Z</time></trkpt><trkpt lat="43.4707704" lon="12.813186"><ele>408.0</ele><time>2026-04-19T08:20:24.005Z</time></trkpt><trkpt lat="43.470524" lon="12.8132211"><ele>408.0</ele><time>2026-04-19T08:20:25.014Z</time></trkpt><trkpt lat="43.4703006" lon="12.813327"><ele>408.0</ele><time>2026-04-19T08:20:26.031Z</time></trkpt><trkpt lat="43.4700812" lon="12.8134801"><ele>408.0</ele><time>2026-04-19T08:20:27.021Z</time></trkpt><trkpt lat="43.46986" lon="12.8136705"><ele>406.5</ele><time>2026-04-19T08:20:28.019Z</time></trkpt><trkpt lat="43.4696407" lon="12.8138969"><ele>405.0</ele><time>2026-04-19T08:20:29.003Z</time></trkpt><trkpt lat="43.4694179" lon="12.8140962"><ele>405.0</ele><time>2026-04-19T08:20:30.006Z</time></trkpt><trkpt lat="43.4692066" lon="12.8142758"><ele>405.0</ele><time>2026-04-19T08:20:31.02Z</time></trkpt><trkpt lat="43.4689585" lon="12.8143913"><ele>403.0</ele><time>2026-04-19T08:20:32.021Z</time></trkpt><trkpt lat="43.4687078" lon="12.8144936"><ele>401.0</ele><time>2026-04-19T08:20:33.017Z</time></trkpt><trkpt lat="43.4684421" lon="12.8145632"><ele>401.0</ele><time>2026-04-19T08:20:34.007Z</time></trkpt><trkpt lat="43.4681701" lon="12.8146227"><ele>401.0</ele><time>2026-04-19T08:20:35.01Z</time></trkpt><trkpt lat="43.4678969" lon="12.8146752"><ele>399.0</ele><time>2026-04-19T08:20:36.008Z</time></trkpt><trkpt lat="43.4676096" lon="12.8147397"><ele>397.0</ele><time>2026-04-19T08:20:37.021Z</time></trkpt><trkpt lat="43.4673263" lon="12.8148172"><ele>396.0</ele><time>2026-04-19T08:20:38.013Z</time></trkpt><trkpt lat="43.4670425" lon="12.8148822"><ele>395.0</ele><time>2026-04-19T08:20:39.01Z</time></trkpt><trkpt lat="43.4667569" lon="12.8149246"><ele>395.0</ele><time>2026-04-19T08:20:40.01Z</time></trkpt><trkpt lat="43.4664807" lon="12.8149469"><ele>395.0</ele><time>2026-04-19T08:20:41.015Z</time></trkpt><trkpt lat="43.4662093" lon="12.8149321"><ele>392.5</ele><time>2026-04-19T08:20:42.012Z</time></trkpt><trkpt lat="43.4659673" lon="12.8148753"><ele>390.0</ele><time>2026-04-19T08:20:43.014Z</time></trkpt><trkpt lat="43.4657284" lon="12.8147934"><ele>390.0</ele><time>2026-04-19T08:20:44.009Z</time></trkpt><trkpt lat="43.4654893" lon="12.8147299"><ele>390.0</ele><time>2026-04-19T08:20:45.004Z</time></trkpt><trkpt lat="43.4652632" lon="12.8147228"><ele>389.0</ele><time>2026-04-19T08:20:46.008Z</time></trkpt><trkpt lat="43.4650359" lon="12.8148181"><ele>388.0</ele><time>2026-04-19T08:20:47.012Z</time></trkpt><trkpt lat="43.4648113" lon="12.8149429"><ele>387.0</ele><time>2026-04-19T08:20:48.003Z</time></trkpt><trkpt lat="43.4645916" lon="12.8150613"><ele>386.0</ele><time>2026-04-19T08:20:49.006Z</time></trkpt><trkpt lat="43.4643822" lon="12.8151656"><ele>386.0</ele><time>2026-04-19T08:20:50.007Z</time></trkpt><trkpt lat="43.4641963" lon="12.8152702"><ele>386.0</ele><time>2026-04-19T08:20:51.009Z</time></trkpt><trkpt lat="43.4640184" lon="12.8153547"><ele>386.0</ele><time>2026-04-19T08:20:52.01Z</time></trkpt><trkpt lat="43.4638677" lon="12.8154713"><ele>386.0</ele><time>2026-04-19T08:20:53.012Z</time></trkpt><trkpt lat="43.4637491" lon="12.8156207"><ele>386.0</ele><time>2026-04-19T08:20:54.021Z</time></trkpt><trkpt lat="43.4636383" lon="12.8157806"><ele>386.0</ele><time>2026-04-19T08:20:55.005Z</time></trkpt><trkpt lat="43.4635488" lon="12.8159235"><ele>385.5</ele><time>2026-04-19T08:20:56.007Z</time></trkpt><trkpt lat="43.4634455" lon="12.8160606"><ele>385.0</ele><time>2026-04-19T08:20:57.027Z</time></trkpt><trkpt lat="43.4633343" lon="12.8161988"><ele>384.5</ele><time>2026-04-19T08:20:58.013Z</time></trkpt><trkpt lat="43.4632265" lon="12.8163349"><ele>384.0</ele><time>2026-04-19T08:20:59.015Z</time></trkpt><trkpt lat="43.4631251" lon="12.8164567"><ele>384.0</ele><time>2026-04-19T08:21:00.006Z</time></trkpt><trkpt lat="43.4630396" lon="12.8165754"><ele>384.0</ele><time>2026-04-19T08:21:01.009Z</time></trkpt><trkpt lat="43.4629554" lon="12.8166977"><ele>384.0</ele><time>2026-04-19T08:21:02.009Z</time></trkpt><trkpt lat="43.462866" lon="12.8168147"><ele>384.0</ele><time>2026-04-19T08:21:03.017Z</time></trkpt><trkpt lat="43.4627782" lon="12.8169234"><ele>384.0</ele><time>2026-04-19T08:21:04.016Z</time></trkpt><trkpt lat="43.4626918" lon="12.8170437"><ele>384.0</ele><time>2026-04-19T08:21:05.008Z</time></trkpt><trkpt lat="43.4626051" lon="12.8171708"><ele>384.0</ele><time>2026-04-19T08:21:06.013Z</time></trkpt><trkpt lat="43.4625083" lon="12.8172994"><ele>384.0</ele><time>2026-04-19T08:21:07.007Z</time></trkpt><trkpt lat="43.4624048" lon="12.8174424"><ele>384.0</ele><time>2026-04-19T08:21:08.013Z</time></trkpt><trkpt lat="43.4623035" lon="12.8175871"><ele>384.0</ele><time>2026-04-19T08:21:09.014Z</time></trkpt><trkpt lat="43.4621909" lon="12.817728"><ele>384.0</ele><time>2026-04-19T08:21:10.01Z</time></trkpt><trkpt lat="43.4620725" lon="12.817881"><ele>384.0</ele><time>2026-04-19T08:21:11.015Z</time></trkpt><trkpt lat="43.4619649" lon="12.8180388"><ele>384.0</ele><time>2026-04-19T08:21:12.012Z</time></trkpt><trkpt lat="43.4618414" lon="12.8181894"><ele>384.0</ele><time>2026-04-19T08:21:13.012Z</time></trkpt><trkpt lat="43.4617193" lon="12.8183312"><ele>384.0</ele><time>2026-04-19T08:21:14.015Z</time></trkpt><trkpt lat="43.4616055" lon="12.8184577"><ele>384.0</ele><time>2026-04-19T08:21:15.013Z</time></trkpt><trkpt lat="43.4615096" lon="12.8185808"><ele>384.0</ele><time>2026-04-19T08:21:16.014Z</time></trkpt><trkpt lat="43.4614123" lon="12.8186876"><ele>384.0</ele><time>2026-04-19T08:21:17.012Z</time></trkpt><trkpt lat="43.461338" lon="12.8187986"><ele>383.6</ele><time>2026-04-19T08:21:18.01Z</time></trkpt><trkpt lat="43.4612635" lon="12.8188897"><ele>383.2</ele><time>2026-04-19T08:21:19.009Z</time></trkpt><trkpt lat="43.4612039" lon="12.8189797"><ele>382.8</ele><time>2026-04-19T08:21:20.009Z</time></trkpt><trkpt lat="43.461141" lon="12.8191012"><ele>382.40000000000003</ele><time>2026-04-19T08:21:21.008Z</time></trkpt><trkpt lat="43.4610889" lon="12.8192465"><ele>382.0</ele><time>2026-04-19T08:21:22.023Z</time></trkpt><trkpt lat="43.4610635" lon="12.8194277"><ele>381.0</ele><time>2026-04-19T08:21:23.021Z</time></trkpt><trkpt lat="43.4610757" lon="12.8196099"><ele>380.0</ele><time>2026-04-19T08:21:24.013Z</time></trkpt><trkpt lat="43.4610943" lon="12.8197911"><ele>379.0</ele><time>2026-04-19T08:21:25.021Z</time></trkpt><trkpt lat="43.4611252" lon="12.8199826"><ele>378.0</ele><time>2026-04-19T08:21:26.023Z</time></trkpt><trkpt lat="43.461167" lon="12.820191"><ele>377.6666666666667</ele><time>2026-04-19T08:21:27.015Z</time></trkpt><trkpt lat="43.4612158" lon="12.8204239"><ele>377.33333333333337</ele><time>2026-04-19T08:21:28.027Z</time></trkpt><trkpt lat="43.4612674" lon="12.8206648"><ele>377.0</ele><time>2026-04-19T08:21:29.016Z</time></trkpt><trkpt lat="43.4612941" lon="12.8209196"><ele>379.0</ele><time>2026-04-19T08:21:30.008Z</time></trkpt><trkpt lat="43.4613314" lon="12.8211572"><ele>381.0</ele><time>2026-04-19T08:21:31.013Z</time></trkpt><trkpt lat="43.4613976" lon="12.8213773"><ele>383.0</ele><time>2026-04-19T08:21:32.006Z</time></trkpt><trkpt lat="43.461457" lon="12.8216042"><ele>382.6666666666667</ele><time>2026-04-19T08:21:33.004Z</time></trkpt><trkpt lat="43.4615096" lon="12.821838"><ele>382.3333333333333</ele><time>2026-04-19T08:21:34.01Z</time></trkpt><trkpt lat="43.4615631" lon="12.8220812"><ele>382.0</ele><time>2026-04-19T08:21:35.003Z</time></trkpt><trkpt lat="43.4616188" lon="12.822309"><ele>382.0</ele><time>2026-04-19T08:21:36.015Z</time></trkpt><trkpt lat="43.4616503" lon="12.8225379"><ele>382.0</ele><time>2026-04-19T08:21:37.009Z</time></trkpt><trkpt lat="43.4616906" lon="12.8227471"><ele>382.0</ele><time>2026-04-19T08:21:38.003Z</time></trkpt><trkpt lat="43.4617375" lon="12.8229488"><ele>380.75</ele><time>2026-04-19T08:21:38.997Z</time></trkpt><trkpt lat="43.461772" lon="12.8231588"><ele>379.5</ele><time>2026-04-19T08:21:39.994Z</time></trkpt><trkpt lat="43.4618032" lon="12.8233437"><ele>378.25</ele><time>2026-04-19T08:21:40.997Z</time></trkpt><trkpt lat="43.4618265" lon="12.8235099"><ele>377.0</ele><time>2026-04-19T08:21:41.997Z</time></trkpt><trkpt lat="43.4618608" lon="12.8236594"><ele>376.0</ele><time>2026-04-19T08:21:42.998Z</time></trkpt><trkpt lat="43.4618799" lon="12.8238145"><ele>375.0</ele><time>2026-04-19T08:21:44Z</time></trkpt><trkpt lat="43.4619115" lon="12.8239922"><ele>374.0</ele><time>2026-04-19T08:21:45.004Z</time></trkpt><trkpt lat="43.4619481" lon="12.824164"><ele>373.0</ele><time>2026-04-19T08:21:46.001Z</time></trkpt><trkpt lat="43.4619864" lon="12.8243399"><ele>371.5</ele><time>2026-04-19T08:21:47.002Z</time></trkpt><trkpt lat="43.4620205" lon="12.8245149"><ele>370.0</ele><time>2026-04-19T08:21:48.003Z</time></trkpt><trkpt lat="43.4620532" lon="12.8246831"><ele>368.5</ele><time>2026-04-19T08:21:48.998Z</time></trkpt><trkpt lat="43.4620884" lon="12.8248508"><ele>367.0</ele><time>2026-04-19T08:21:50Z</time></trkpt><trkpt lat="43.4621186" lon="12.8250304"><ele>373.25</ele><time>2026-04-19T08:21:50.999Z</time></trkpt><trkpt lat="43.4621445" lon="12.8252217"><ele>379.5</ele><time>2026-04-19T08:21:51.999Z</time></trkpt><trkpt lat="43.4621653" lon="12.825432"><ele>385.75</ele><time>2026-04-19T08:21:52.995Z</time></trkpt><trkpt lat="43.4621733" lon="12.8256435"><ele>392.0</ele><time>2026-04-19T08:21:53.998Z</time></trkpt><trkpt lat="43.462166" lon="12.8258638"><ele>393.0</ele><time>2026-04-19T08:21:54.996Z</time></trkpt><trkpt lat="43.4621374" lon="12.8260822"><ele>394.0</ele><time>2026-04-19T08:21:55.994Z</time></trkpt><trkpt lat="43.4621065" lon="12.82631"><ele>395.0</ele><time>2026-04-19T08:21:56.994Z</time></trkpt><trkpt lat="43.4620675" lon="12.8265593"><ele>387.0</ele><time>2026-04-19T08:21:57.993Z</time></trkpt><trkpt lat="43.4620284" lon="12.8267968"><ele>379.0</ele><time>2026-04-19T08:21:59.023Z</time></trkpt><trkpt lat="43.4619716" lon="12.8270397"><ele>371.0</ele><time>2026-04-19T08:21:59.993Z</time></trkpt><trkpt lat="43.4619032" lon="12.8272655"><ele>371.0</ele><time>2026-04-19T08:22:00.997Z</time></trkpt><trkpt lat="43.461796" lon="12.8274656"><ele>371.0</ele><time>2026-04-19T08:22:02.001Z</time></trkpt><trkpt lat="43.4616804" lon="12.8276775"><ele>371.0</ele><time>2026-04-19T08:22:03.006Z</time></trkpt><trkpt lat="43.4615612" lon="12.827896"><ele>370.0</ele><time>2026-04-19T08:22:04.006Z</time></trkpt><trkpt lat="43.4614247" lon="12.8281077"><ele>369.0</ele><time>2026-04-19T08:22:04.997Z</time></trkpt><trkpt lat="43.4612705" lon="12.8283113"><ele>368.0</ele><time>2026-04-19T08:22:06.001Z</time></trkpt><trkpt lat="43.4610978" lon="12.8285092"><ele>368.0</ele><time>2026-04-19T08:22:07.003Z</time></trkpt><trkpt lat="43.4609182" lon="12.8287045"><ele>368.0</ele><time>2026-04-19T08:22:08.012Z</time></trkpt><trkpt lat="43.4607382" lon="12.828898"><ele>368.0</ele><time>2026-04-19T08:22:09.007Z</time></trkpt><trkpt lat="43.460565" lon="12.829094"><ele>368.0</ele><time>2026-04-19T08:22:10.014Z</time></trkpt><trkpt lat="43.4604055" lon="12.8292889"><ele>368.0</ele><time>2026-04-19T08:22:11.01Z</time></trkpt><trkpt lat="43.4602579" lon="12.8294796"><ele>367.0</ele><time>2026-04-19T08:22:12.015Z</time></trkpt><trkpt lat="43.4601367" lon="12.8296871"><ele>366.0</ele><time>2026-04-19T08:22:13.032Z</time></trkpt><trkpt lat="43.4600357" lon="12.8299305"><ele>365.0</ele><time>2026-04-19T08:22:14.009Z</time></trkpt><trkpt lat="43.4599509" lon="12.8301748"><ele>365.0</ele><time>2026-04-19T08:22:15.012Z</time></trkpt><trkpt lat="43.4599139" lon="12.830451"><ele>365.0</ele><time>2026-04-19T08:22:16.027Z</time></trkpt><trkpt lat="43.4598943" lon="12.8307327"><ele>365.0</ele><time>2026-04-19T08:22:17.014Z</time></trkpt><trkpt lat="43.4598918" lon="12.8310306"><ele>366.5</ele><time>2026-04-19T08:22:18.018Z</time></trkpt><trkpt lat="43.4599126" lon="12.8313414"><ele>368.0</ele><time>2026-04-19T08:22:19.015Z</time></trkpt><trkpt lat="43.4599443" lon="12.8316704"><ele>368.5</ele><time>2026-04-19T08:22:20.015Z</time></trkpt><trkpt lat="43.4599975" lon="12.8320205"><ele>369.0</ele><time>2026-04-19T08:22:21.008Z</time></trkpt><trkpt lat="43.4600613" lon="12.832377"><ele>369.0</ele><time>2026-04-19T08:22:22.008Z</time></trkpt><trkpt lat="43.4601218" lon="12.8327475"><ele>369.0</ele><time>2026-04-19T08:22:23.009Z</time></trkpt><trkpt lat="43.4601773" lon="12.833108"><ele>369.5</ele><time>2026-04-19T08:22:24.011Z</time></trkpt><trkpt lat="43.4602456" lon="12.8334882"><ele>370.0</ele><time>2026-04-19T08:22:25.015Z</time></trkpt><trkpt lat="43.4603022" lon="12.8338417"><ele>370.0</ele><time>2026-04-19T08:22:26.015Z</time></trkpt><trkpt lat="43.4603547" lon="12.834189"><ele>370.0</ele><time>2026-04-19T08:22:27.018Z</time></trkpt><trkpt lat="43.4604098" lon="12.8345456"><ele>363.5</ele><time>2026-04-19T08:22:28.013Z</time></trkpt><trkpt lat="43.4604666" lon="12.8348831"><ele>357.0</ele><time>2026-04-19T08:22:29.028Z</time></trkpt><trkpt lat="43.460516" lon="12.8352006"><ele>357.0</ele><time>2026-04-19T08:22:30.013Z</time></trkpt><trkpt lat="43.4605693" lon="12.8354949"><ele>357.0</ele><time>2026-04-19T08:22:31.01Z</time></trkpt><trkpt lat="43.4606118" lon="12.8357943"><ele>357.0</ele><time>2026-04-19T08:22:32.015Z</time></trkpt><trkpt lat="43.4606521" lon="12.836083"><ele>355.0</ele><time>2026-04-19T08:22:33.007Z</time></trkpt><trkpt lat="43.4606691" lon="12.8363849"><ele>353.0</ele><time>2026-04-19T08:22:34.023Z</time></trkpt><trkpt lat="43.460644" lon="12.8367025"><ele>351.0</ele><time>2026-04-19T08:22:35.021Z</time></trkpt><trkpt lat="43.4605627" lon="12.8369961"><ele>349.0</ele><time>2026-04-19T08:22:36.02Z</time></trkpt><trkpt lat="43.4604306" lon="12.8372797"><ele>349.5</ele><time>2026-04-19T08:22:37.019Z</time></trkpt><trkpt lat="43.4602739" lon="12.8375405"><ele>350.0</ele><time>2026-04-19T08:22:38.024Z</time></trkpt><trkpt lat="43.460105" lon="12.83781"><ele>350.0</ele><time>2026-04-19T08:22:39.013Z</time></trkpt><trkpt lat="43.4599548" lon="12.8381097"><ele>350.0</ele><time>2026-04-19T08:22:40.012Z</time></trkpt><trkpt lat="43.4597986" lon="12.838435"><ele>350.0</ele><time>2026-04-19T08:22:41.015Z</time></trkpt><trkpt lat="43.4596393" lon="12.8387591"><ele>350.0</ele><time>2026-04-19T08:22:42.02Z</time></trkpt><trkpt lat="43.4594744" lon="12.8390826"><ele>349.0</ele><time>2026-04-19T08:22:43.022Z</time></trkpt><trkpt lat="43.4593066" lon="12.8393981"><ele>348.0</ele><time>2026-04-19T08:22:44.02Z</time></trkpt><trkpt lat="43.4591434" lon="12.8397162"><ele>348.0</ele><time>2026-04-19T08:22:45.018Z</time></trkpt><trkpt lat="43.4589904" lon="12.8400335"><ele>348.0</ele><time>2026-04-19T08:22:46.022Z</time></trkpt><trkpt lat="43.4588368" lon="12.8403348"><ele>348.5</ele><time>2026-04-19T08:22:47.02Z</time></trkpt><trkpt lat="43.458686" lon="12.8406245"><ele>349.0</ele><time>2026-04-19T08:22:48.022Z</time></trkpt><trkpt lat="43.4585465" lon="12.8409185"><ele>347.0</ele><time>2026-04-19T08:22:49.023Z</time></trkpt><trkpt lat="43.4584151" lon="12.8411871"><ele>345.0</ele><time>2026-04-19T08:22:50.023Z</time></trkpt><trkpt lat="43.4582807" lon="12.8414454"><ele>345.0</ele><time>2026-04-19T08:22:51.023Z</time></trkpt><trkpt lat="43.4581607" lon="12.841694"><ele>345.0</ele><time>2026-04-19T08:22:52.024Z</time></trkpt><trkpt lat="43.4580327" lon="12.8419479"><ele>345.0</ele><time>2026-04-19T08:22:53.026Z</time></trkpt><trkpt lat="43.4578981" lon="12.8422063"><ele>344.0</ele><time>2026-04-19T08:22:54.022Z</time></trkpt><trkpt lat="43.4577652" lon="12.8424713"><ele>343.0</ele><time>2026-04-19T08:22:55.025Z</time></trkpt><trkpt lat="43.4576306" lon="12.8427304"><ele>342.0</ele><time>2026-04-19T08:22:56.027Z</time></trkpt><trkpt lat="43.4574946" lon="12.8429942"><ele>341.0</ele><time>2026-04-19T08:22:57.026Z</time></trkpt><trkpt lat="43.4573535" lon="12.8432626"><ele>340.5</ele><time>2026-04-19T08:22:58.024Z</time></trkpt><trkpt lat="43.4572203" lon="12.8435304"><ele>340.0</ele><time>2026-04-19T08:22:59.019Z</time></trkpt><trkpt lat="43.4570891" lon="12.843786"><ele>340.0</ele><time>2026-04-19T08:23:00.006Z</time></trkpt><trkpt lat="43.4569684" lon="12.8440353"><ele>340.0</ele><time>2026-04-19T08:23:01.013Z</time></trkpt><trkpt lat="43.4568533" lon="12.8442678"><ele>340.0</ele><time>2026-04-19T08:23:02.015Z</time></trkpt><trkpt lat="43.4567467" lon="12.8444757"><ele>339.3333333333333</ele><time>2026-04-19T08:23:03.012Z</time></trkpt><trkpt lat="43.456652" lon="12.8446671"><ele>338.6666666666667</ele><time>2026-04-19T08:23:04.018Z</time></trkpt><trkpt lat="43.4565524" lon="12.8448382"><ele>338.0</ele><time>2026-04-19T08:23:05.015Z</time></trkpt><trkpt lat="43.4564377" lon="12.844977"><ele>338.0</ele><time>2026-04-19T08:23:06.017Z</time></trkpt><trkpt lat="43.4563164" lon="12.845069"><ele>338.0</ele><time>2026-04-19T08:23:07.015Z</time></trkpt><trkpt lat="43.4561828" lon="12.8451377"><ele>338.0</ele><time>2026-04-19T08:23:08.009Z</time></trkpt><trkpt lat="43.456052" lon="12.8452097"><ele>338.0</ele><time>2026-04-19T08:23:09.009Z</time></trkpt><trkpt lat="43.4559271" lon="12.8452848"><ele>337.75</ele><time>2026-04-19T08:23:10.009Z</time></trkpt><trkpt lat="43.4557957" lon="12.8453761"><ele>337.5</ele><time>2026-04-19T08:23:11.003Z</time></trkpt><trkpt lat="43.4556667" lon="12.8454726"><ele>337.25</ele><time>2026-04-19T08:23:12.008Z</time></trkpt><trkpt lat="43.4555357" lon="12.845568"><ele>337.0</ele><time>2026-04-19T08:23:13.008Z</time></trkpt><trkpt lat="43.4554025" lon="12.8456592"><ele>336.5</ele><time>2026-04-19T08:23:14.007Z</time></trkpt><trkpt lat="43.4552709" lon="12.8457532"><ele>336.0</ele><time>2026-04-19T08:23:15.005Z</time></trkpt><trkpt lat="43.4551398" lon="12.8458502"><ele>335.5</ele><time>2026-04-19T08:23:16.01Z</time></trkpt><trkpt lat="43.4550134" lon="12.8459518"><ele>335.0</ele><time>2026-04-19T08:23:17.011Z</time></trkpt><trkpt lat="43.4548774" lon="12.8460476"><ele>335.0</ele><time>2026-04-19T08:23:18.008Z</time></trkpt><trkpt lat="43.4547386" lon="12.8461417"><ele>335.0</ele><time>2026-04-19T08:23:19.008Z</time></trkpt><trkpt lat="43.4546033" lon="12.8462383"><ele>335.0</ele><time>2026-04-19T08:23:20.01Z</time></trkpt><trkpt lat="43.4544652" lon="12.8463333"><ele>335.0</ele><time>2026-04-19T08:23:21.01Z</time></trkpt><trkpt lat="43.4543194" lon="12.8464306"><ele>335.0</ele><time>2026-04-19T08:23:22.012Z</time></trkpt><trkpt lat="43.4541702" lon="12.8465234"><ele>335.0</ele><time>2026-04-19T08:23:23.007Z</time></trkpt><trkpt lat="43.4540263" lon="12.8466254"><ele>335.0</ele><time>2026-04-19T08:23:24.007Z</time></trkpt><trkpt lat="43.453871" lon="12.8467108"><ele>335.0</ele><time>2026-04-19T08:23:25.008Z</time></trkpt><trkpt lat="43.4537143" lon="12.8467869"><ele>335.0</ele><time>2026-04-19T08:23:26.01Z</time></trkpt><trkpt lat="43.4535503" lon="12.8468618"><ele>333.0</ele><time>2026-04-19T08:23:27.016Z</time></trkpt><trkpt lat="43.4533805" lon="12.846919"><ele>331.0</ele><time>2026-04-19T08:23:28.017Z</time></trkpt><trkpt lat="43.4531989" lon="12.8469917"><ele>329.0</ele><time>2026-04-19T08:23:29.019Z</time></trkpt><trkpt lat="43.4530361" lon="12.8470514"><ele>330.0</ele><time>2026-04-19T08:23:30.017Z</time></trkpt><trkpt lat="43.4528803" lon="12.8471078"><ele>331.0</ele><time>2026-04-19T08:23:31.029Z</time></trkpt><trkpt lat="43.4527144" lon="12.8471661"><ele>332.0</ele><time>2026-04-19T08:23:32.014Z</time></trkpt><trkpt lat="43.4525448" lon="12.847232"><ele>332.0</ele><time>2026-04-19T08:23:33.015Z</time></trkpt><trkpt lat="43.452373" lon="12.8472877"><ele>332.0</ele><time>2026-04-19T08:23:34.019Z</time></trkpt><trkpt lat="43.4521855" lon="12.8473065"><ele>332.0</ele><time>2026-04-19T08:23:35.008Z</time></trkpt><trkpt lat="43.4519941" lon="12.8473316"><ele>332.0</ele><time>2026-04-19T08:23:36.017Z</time></trkpt><trkpt lat="43.4518074" lon="12.8473492"><ele>332.0</ele><time>2026-04-19T08:23:37.015Z</time></trkpt><trkpt lat="43.4516234" lon="12.8473715"><ele>332.0</ele><time>2026-04-19T08:23:38.013Z</time></trkpt><trkpt lat="43.4514525" lon="12.8474072"><ele>332.0</ele><time>2026-04-19T08:23:39.007Z</time></trkpt><trkpt lat="43.4512964" lon="12.8474224"><ele>332.0</ele><time>2026-04-19T08:23:40.013Z</time></trkpt><trkpt lat="43.4511453" lon="12.847437"><ele>332.0</ele><time>2026-04-19T08:23:41.014Z</time></trkpt><trkpt lat="43.4509902" lon="12.8474543"><ele>332.0</ele><time>2026-04-19T08:23:42.014Z</time></trkpt><trkpt lat="43.450831" lon="12.8474721"><ele>332.0</ele><time>2026-04-19T08:23:43.015Z</time></trkpt><trkpt lat="43.4506806" lon="12.8474967"><ele>332.0</ele><time>2026-04-19T08:23:44.011Z</time></trkpt><trkpt lat="43.4505177" lon="12.8475198"><ele>331.0</ele><time>2026-04-19T08:23:44.995Z</time></trkpt><trkpt lat="43.4503465" lon="12.8475376"><ele>330.0</ele><time>2026-04-19T08:23:46.015Z</time></trkpt><trkpt lat="43.4501782" lon="12.8475643"><ele>329.0</ele><time>2026-04-19T08:23:47.004Z</time></trkpt><trkpt lat="43.4500105" lon="12.8475926"><ele>329.0</ele><time>2026-04-19T08:23:48.016Z</time></trkpt><trkpt lat="43.4498425" lon="12.8476186"><ele>329.0</ele><time>2026-04-19T08:23:49.016Z</time></trkpt><trkpt lat="43.4496849" lon="12.8476406"><ele>329.0</ele><time>2026-04-19T08:23:50.012Z</time></trkpt><trkpt lat="43.449522" lon="12.8476587"><ele>328.0</ele><time>2026-04-19T08:23:51.009Z</time></trkpt><trkpt lat="43.4493649" lon="12.8476728"><ele>327.0</ele><time>2026-04-19T08:23:52.009Z</time></trkpt><trkpt lat="43.4492154" lon="12.8476952"><ele>326.0</ele><time>2026-04-19T08:23:53.006Z</time></trkpt><trkpt lat="43.4490561" lon="12.847707"><ele>326.0</ele><time>2026-04-19T08:23:54.004Z</time></trkpt><trkpt lat="43.4489119" lon="12.8477145"><ele>326.0</ele><time>2026-04-19T08:23:55.014Z</time></trkpt><trkpt lat="43.4487751" lon="12.8477369"><ele>326.0</ele><time>2026-04-19T08:23:56.012Z</time></trkpt><trkpt lat="43.4486411" lon="12.8477499"><ele>326.0</ele><time>2026-04-19T08:23:57.011Z</time></trkpt><trkpt lat="43.4485166" lon="12.8477739"><ele>326.0</ele><time>2026-04-19T08:23:58.016Z</time></trkpt><trkpt lat="43.4483876" lon="12.8477943"><ele>326.0</ele><time>2026-04-19T08:23:59.014Z</time></trkpt><trkpt lat="43.4482653" lon="12.8478028"><ele>326.0</ele><time>2026-04-19T08:24:00.014Z</time></trkpt><trkpt lat="43.4481473" lon="12.8478122"><ele>326.0</ele><time>2026-04-19T08:24:01.018Z</time></trkpt><trkpt lat="43.4480335" lon="12.8478244"><ele>325.5</ele><time>2026-04-19T08:24:02.023Z</time></trkpt><trkpt lat="43.4479085" lon="12.8478508"><ele>325.0</ele><time>2026-04-19T08:24:03.011Z</time></trkpt><trkpt lat="43.4477761" lon="12.8478672"><ele>324.5</ele><time>2026-04-19T08:24:03.999Z</time></trkpt><trkpt lat="43.447644" lon="12.8478819"><ele>324.0</ele><time>2026-04-19T08:24:05.007Z</time></trkpt><trkpt lat="43.447507" lon="12.8478958"><ele>324.0</ele><time>2026-04-19T08:24:06.012Z</time></trkpt><trkpt lat="43.4473574" lon="12.8479106"><ele>324.0</ele><time>2026-04-19T08:24:07.013Z</time></trkpt><trkpt lat="43.4471981" lon="12.8479228"><ele>324.0</ele><time>2026-04-19T08:24:08.01Z</time></trkpt><trkpt lat="43.4470481" lon="12.8479086"><ele>323.3333333333333</ele><time>2026-04-19T08:24:09.017Z</time></trkpt><trkpt lat="43.4468926" lon="12.8478573"><ele>322.66666666666663</ele><time>2026-04-19T08:24:10.013Z</time></trkpt><trkpt lat="43.4467375" lon="12.8477804"><ele>322.0</ele><time>2026-04-19T08:24:11.017Z</time></trkpt><trkpt lat="43.4465856" lon="12.847693"><ele>321.66666666666663</ele><time>2026-04-19T08:24:12.009Z</time></trkpt><trkpt lat="43.4464458" lon="12.8475707"><ele>321.3333333333333</ele><time>2026-04-19T08:24:13.012Z</time></trkpt><trkpt lat="43.4463114" lon="12.8474346"><ele>321.0</ele><time>2026-04-19T08:24:14.003Z</time></trkpt><trkpt lat="43.4461613" lon="12.8473255"><ele>318.6666666666667</ele><time>2026-04-19T08:24:15.009Z</time></trkpt><trkpt lat="43.4460117" lon="12.8472555"><ele>316.33333333333337</ele><time>2026-04-19T08:24:16.017Z</time></trkpt><trkpt lat="43.4458531" lon="12.8472312"><ele>314.0</ele><time>2026-04-19T08:24:17.017Z</time></trkpt><trkpt lat="43.4456932" lon="12.8472486"><ele>314.0</ele><time>2026-04-19T08:24:18.01Z</time></trkpt><trkpt lat="43.445537" lon="12.8472738"><ele>314.0</ele><time>2026-04-19T08:24:19.015Z</time></trkpt><trkpt lat="43.4453892" lon="12.8473214"><ele>314.0</ele><time>2026-04-19T08:24:20.011Z</time></trkpt><trkpt lat="43.445235" lon="12.8474072"><ele>313.33333333333337</ele><time>2026-04-19T08:24:21.012Z</time></trkpt><trkpt lat="43.4450917" lon="12.8475085"><ele>312.6666666666667</ele><time>2026-04-19T08:24:22.017Z</time></trkpt><trkpt lat="43.4449511" lon="12.8476369"><ele>312.0</ele><time>2026-04-19T08:24:23.013Z</time></trkpt><trkpt lat="43.4448189" lon="12.8477726"><ele>312.0</ele><time>2026-04-19T08:24:24.013Z</time></trkpt><trkpt lat="43.4446823" lon="12.8479234"><ele>312.0</ele><time>2026-04-19T08:24:25.013Z</time></trkpt><trkpt lat="43.4445281" lon="12.848068"><ele>312.0</ele><time>2026-04-19T08:24:26.018Z</time></trkpt><trkpt lat="43.4443747" lon="12.8482112"><ele>313.3333333333333</ele><time>2026-04-19T08:24:27.01Z</time></trkpt><trkpt lat="43.4442184" lon="12.8483561"><ele>314.66666666666663</ele><time>2026-04-19T08:24:28.016Z</time></trkpt><trkpt lat="43.4440567" lon="12.8485147"><ele>316.0</ele><time>2026-04-19T08:24:29.018Z</time></trkpt><trkpt lat="43.4438833" lon="12.8486644"><ele>315.0</ele><time>2026-04-19T08:24:30.013Z</time></trkpt><trkpt lat="43.4437162" lon="12.8488004"><ele>314.0</ele><time>2026-04-19T08:24:31.015Z</time></trkpt><trkpt lat="43.4435475" lon="12.8489244"><ele>313.0</ele><time>2026-04-19T08:24:32.014Z</time></trkpt><trkpt lat="43.4433913" lon="12.8490389"><ele>313.0</ele><time>2026-04-19T08:24:33.021Z</time></trkpt><trkpt lat="43.4432198" lon="12.8491508"><ele>313.0</ele><time>2026-04-19T08:24:34.008Z</time></trkpt><trkpt lat="43.4430593" lon="12.8492376"><ele>313.0</ele><time>2026-04-19T08:24:35.021Z</time></trkpt><trkpt lat="43.4429158" lon="12.8492611"><ele>313.0</ele><time>2026-04-19T08:24:36.008Z</time></trkpt><trkpt lat="43.4427677" lon="12.8492914"><ele>313.0</ele><time>2026-04-19T08:24:37.015Z</time></trkpt><trkpt lat="43.4426119" lon="12.8493382"><ele>313.0</ele><time>2026-04-19T08:24:38.015Z</time></trkpt><trkpt lat="43.4424717" lon="12.8493771"><ele>313.0</ele><time>2026-04-19T08:24:39.015Z</time></trkpt><trkpt lat="43.4423358" lon="12.8494149"><ele>313.0</ele><time>2026-04-19T08:24:40.013Z</time></trkpt><trkpt lat="43.4422065" lon="12.8494657"><ele>313.0</ele><time>2026-04-19T08:24:41.014Z</time></trkpt><trkpt lat="43.4420673" lon="12.8495097"><ele>313.0</ele><time>2026-04-19T08:24:42.023Z</time></trkpt><trkpt lat="43.4419215" lon="12.8495559"><ele>313.25</ele><time>2026-04-19T08:24:43.012Z</time></trkpt><trkpt lat="43.4417825" lon="12.8496124"><ele>313.5</ele><time>2026-04-19T08:24:44.015Z</time></trkpt><trkpt lat="43.4416428" lon="12.8496536"><ele>313.75</ele><time>2026-04-19T08:24:45.016Z</time></trkpt><trkpt lat="43.4415046" lon="12.8497012"><ele>314.0</ele><time>2026-04-19T08:24:46.018Z</time></trkpt><trkpt lat="43.4413563" lon="12.8497419"><ele>313.75</ele><time>2026-04-19T08:24:47.015Z</time></trkpt><trkpt lat="43.4412123" lon="12.8497868"><ele>313.5</ele><time>2026-04-19T08:24:48.013Z</time></trkpt><trkpt lat="43.4410678" lon="12.8498306"><ele>313.25</ele><time>2026-04-19T08:24:49.014Z</time></trkpt><trkpt lat="43.4409275" lon="12.8498766"><ele>313.0</ele><time>2026-04-19T08:24:50.018Z</time></trkpt><trkpt lat="43.4407707" lon="12.8499021"><ele>313.0</ele><time>2026-04-19T08:24:51.008Z</time></trkpt><trkpt lat="43.4406287" lon="12.8499569"><ele>313.0</ele><time>2026-04-19T08:24:52.013Z</time></trkpt><trkpt lat="43.4404766" lon="12.8500056"><ele>313.0</ele><time>2026-04-19T08:24:52.997Z</time></trkpt><trkpt lat="43.4403551" lon="12.8500371"><ele>313.0</ele><time>2026-04-19T08:24:54.017Z</time></trkpt><trkpt lat="43.4402349" lon="12.8500665"><ele>312.75</ele><time>2026-04-19T08:24:55.017Z</time></trkpt><trkpt lat="43.4401197" lon="12.8500993"><ele>312.5</ele><time>2026-04-19T08:24:56.017Z</time></trkpt><trkpt lat="43.439995" lon="12.8501414"><ele>312.25</ele><time>2026-04-19T08:24:57.013Z</time></trkpt><trkpt lat="43.4398751" lon="12.8501765"><ele>312.0</ele><time>2026-04-19T08:24:58.008Z</time></trkpt><trkpt lat="43.4397468" lon="12.8502174"><ele>310.75</ele><time>2026-04-19T08:24:59.018Z</time></trkpt><trkpt lat="43.4396177" lon="12.8502596"><ele>309.5</ele><time>2026-04-19T08:25:00.013Z</time></trkpt><trkpt lat="43.4394906" lon="12.8503003"><ele>308.25</ele><time>2026-04-19T08:25:01.016Z</time></trkpt><trkpt lat="43.4393566" lon="12.8503418"><ele>307.0</ele><time>2026-04-19T08:25:02.013Z</time></trkpt><trkpt lat="43.4392219" lon="12.8503833"><ele>307.0</ele><time>2026-04-19T08:25:03.012Z</time></trkpt><trkpt lat="43.4390844" lon="12.8504327"><ele>307.0</ele><time>2026-04-19T08:25:04.03Z</time></trkpt><trkpt lat="43.4389478" lon="12.8504828"><ele>307.0</ele><time>2026-04-19T08:25:05.013Z</time></trkpt><trkpt lat="43.4388016" lon="12.8505234"><ele>307.0</ele><time>2026-04-19T08:25:06.015Z</time></trkpt><trkpt lat="43.4386528" lon="12.8505685"><ele>306.66666666666663</ele><time>2026-04-19T08:25:07.016Z</time></trkpt><trkpt lat="43.4385045" lon="12.8506111"><ele>306.3333333333333</ele><time>2026-04-19T08:25:08.018Z</time></trkpt><trkpt lat="43.4383468" lon="12.8506763"><ele>306.0</ele><time>2026-04-19T08:25:09.016Z</time></trkpt><trkpt lat="43.4381888" lon="12.8507681"><ele>306.0</ele><time>2026-04-19T08:25:10.014Z</time></trkpt><trkpt lat="43.438041" lon="12.8508893"><ele>306.0</ele><time>2026-04-19T08:25:11.015Z</time></trkpt><trkpt lat="43.4378981" lon="12.8510252"><ele>306.0</ele><time>2026-04-19T08:25:12.013Z</time></trkpt><trkpt lat="43.437758" lon="12.8511528"><ele>305.0</ele><time>2026-04-19T08:25:13.019Z</time></trkpt><trkpt lat="43.4376215" lon="12.8512798"><ele>304.0</ele><time>2026-04-19T08:25:14.011Z</time></trkpt><trkpt lat="43.4374816" lon="12.8513987"><ele>303.0</ele><time>2026-04-19T08:25:15.009Z</time></trkpt><trkpt lat="43.4373346" lon="12.8515082"><ele>303.0</ele><time>2026-04-19T08:25:16.011Z</time></trkpt><trkpt lat="43.4371831" lon="12.8515753"><ele>303.0</ele><time>2026-04-19T08:25:17.005Z</time></trkpt><trkpt lat="43.4370262" lon="12.8516226"><ele>303.0</ele><time>2026-04-19T08:25:18.007Z</time></trkpt><trkpt lat="43.4368698" lon="12.8516723"><ele>302.75</ele><time>2026-04-19T08:25:19.01Z</time></trkpt><trkpt lat="43.436733" lon="12.8517319"><ele>302.5</ele><time>2026-04-19T08:25:20.012Z</time></trkpt><trkpt lat="43.4366144" lon="12.8517995"><ele>302.25</ele><time>2026-04-19T08:25:21.006Z</time></trkpt><trkpt lat="43.4365114" lon="12.8518526"><ele>302.0</ele><time>2026-04-19T08:25:22.011Z</time></trkpt><trkpt lat="43.4364236" lon="12.8518798"><ele>301.1666666666667</ele><time>2026-04-19T08:25:23.006Z</time></trkpt><trkpt lat="43.436359" lon="12.8519209"><ele>300.33333333333337</ele><time>2026-04-19T08:25:23.999Z</time></trkpt><trkpt lat="43.4362907" lon="12.8519706"><ele>299.5</ele><time>2026-04-19T08:25:25.005Z</time></trkpt><trkpt lat="43.4362194" lon="12.8520194"><ele>298.6666666666667</ele><time>2026-04-19T08:25:26.005Z</time></trkpt><trkpt lat="43.4361314" lon="12.8520721"><ele>297.8333333333333</ele><time>2026-04-19T08:25:27.005Z</time></trkpt><trkpt lat="43.4360457" lon="12.8521315"><ele>297.0</ele><time>2026-04-19T08:25:28.002Z</time></trkpt><trkpt lat="43.4359598" lon="12.852165"><ele>297.0</ele><time>2026-04-19T08:25:28.999Z</time></trkpt><trkpt lat="43.4358726" lon="12.8521814"><ele>297.0</ele><time>2026-04-19T08:25:30.002Z</time></trkpt><trkpt lat="43.4357873" lon="12.8522136"><ele>297.0</ele><time>2026-04-19T08:25:31Z</time></trkpt><trkpt lat="43.4356899" lon="12.8522518"><ele>297.0</ele><time>2026-04-19T08:25:31.99Z</time></trkpt><trkpt lat="43.4355927" lon="12.8522863"><ele>297.0</ele><time>2026-04-19T08:25:32.999Z</time></trkpt><trkpt lat="43.4354877" lon="12.8523292"><ele>297.4</ele><time>2026-04-19T08:25:34Z</time></trkpt><trkpt lat="43.4353942" lon="12.8523623"><ele>297.79999999999995</ele><time>2026-04-19T08:25:35.016Z</time></trkpt><trkpt lat="43.4352972" lon="12.8524133"><ele>298.2</ele><time>2026-04-19T08:25:36.002Z</time></trkpt><trkpt lat="43.4351998" lon="12.8524458"><ele>298.59999999999997</ele><time>2026-04-19T08:25:37.004Z</time></trkpt><trkpt lat="43.435107" lon="12.8524853"><ele>299.0</ele><time>2026-04-19T08:25:38.006Z</time></trkpt><trkpt lat="43.4350109" lon="12.8525252"><ele>299.0</ele><time>2026-04-19T08:25:39.008Z</time></trkpt><trkpt lat="43.4349168" lon="12.8525449"><ele>299.0</ele><time>2026-04-19T08:25:40.015Z</time></trkpt><trkpt lat="43.4348158" lon="12.8525172"><ele>299.0</ele><time>2026-04-19T08:25:41.012Z</time></trkpt><trkpt lat="43.4347377" lon="12.8524604"><ele>299.0</ele><time>2026-04-19T08:25:42.011Z</time></trkpt><trkpt lat="43.4346553" lon="12.8524049"><ele>299.0</ele><time>2026-04-19T08:25:43.005Z</time></trkpt><trkpt lat="43.4345582" lon="12.8523769"><ele>299.5</ele><time>2026-04-19T08:25:44.01Z</time></trkpt><trkpt lat="43.4344484" lon="12.8523838"><ele>300.0</ele><time>2026-04-19T08:25:45.006Z</time></trkpt><trkpt lat="43.4343403" lon="12.8523954"><ele>300.5</ele><time>2026-04-19T08:25:46.011Z</time></trkpt><trkpt lat="43.4342188" lon="12.8524285"><ele>301.0</ele><time>2026-04-19T08:25:47.005Z</time></trkpt><trkpt lat="43.4340854" lon="12.8524554"><ele>301.0</ele><time>2026-04-19T08:25:48.008Z</time></trkpt><trkpt lat="43.43395" lon="12.8524904"><ele>301.0</ele><time>2026-04-19T08:25:49.011Z</time></trkpt><trkpt lat="43.4338179" lon="12.8525218"><ele>301.0</ele><time>2026-04-19T08:25:50.008Z</time></trkpt><trkpt lat="43.4337021" lon="12.8525676"><ele>301.0</ele><time>2026-04-19T08:25:51.006Z</time></trkpt><trkpt lat="43.4336018" lon="12.852632"><ele>300.40000000000003</ele><time>2026-04-19T08:25:52.014Z</time></trkpt><trkpt lat="43.4335189" lon="12.852699"><ele>299.8</ele><time>2026-04-19T08:25:53.017Z</time></trkpt><trkpt lat="43.4334499" lon="12.8527711"><ele>299.20000000000005</ele><time>2026-04-19T08:25:54.011Z</time></trkpt><trkpt lat="43.4333658" lon="12.8528476"><ele>298.6</ele><time>2026-04-19T08:25:55.012Z</time></trkpt><trkpt lat="43.4332795" lon="12.8529368"><ele>298.0</ele><time>2026-04-19T08:25:56.011Z</time></trkpt><trkpt lat="43.4331945" lon="12.8530195"><ele>298.0</ele><time>2026-04-19T08:25:57.013Z</time></trkpt><trkpt lat="43.4331133" lon="12.8531114"><ele>298.0</ele><time>2026-04-19T08:25:58.01Z</time></trkpt><trkpt lat="43.4330276" lon="12.8531936"><ele>298.0</ele><time>2026-04-19T08:25:59.01Z</time></trkpt><trkpt lat="43.4329478" lon="12.8532723"><ele>298.0</ele><time>2026-04-19T08:26:00.009Z</time></trkpt><trkpt lat="43.4328655" lon="12.853351"><ele>298.0</ele><time>2026-04-19T08:26:01.005Z</time></trkpt><trkpt lat="43.432792" lon="12.8534252"><ele>297.66666666666663</ele><time>2026-04-19T08:26:02.005Z</time></trkpt><trkpt lat="43.4327105" lon="12.8534915"><ele>297.3333333333333</ele><time>2026-04-19T08:26:03.006Z</time></trkpt><trkpt lat="43.4326445" lon="12.8535527"><ele>297.0</ele><time>2026-04-19T08:26:04.01Z</time></trkpt><trkpt lat="43.4325762" lon="12.8536075"><ele>296.6666666666667</ele><time>2026-04-19T08:26:05.002Z</time></trkpt><trkpt lat="43.4325195" lon="12.8536696"><ele>296.33333333333337</ele><time>2026-04-19T08:26:06.019Z</time></trkpt><trkpt lat="43.4324575" lon="12.8537222"><ele>296.0</ele><time>2026-04-19T08:26:07.008Z</time></trkpt><trkpt lat="43.4323615" lon="12.8538215"><ele>296.0</ele><time>2026-04-19T08:26:09.011Z</time></trkpt><trkpt lat="43.4323059" lon="12.8538727"><ele>296.0</ele><time>2026-04-19T08:26:10.01Z</time></trkpt><trkpt lat="43.4322344" lon="12.8539397"><ele>296.0</ele><time>2026-04-19T08:26:11.007Z</time></trkpt><trkpt lat="43.4321538" lon="12.854011"><ele>296.0</ele><time>2026-04-19T08:26:12.011Z</time></trkpt><trkpt lat="43.4320705" lon="12.8540992"><ele>296.0</ele><time>2026-04-19T08:26:13.008Z</time></trkpt><trkpt lat="43.4319805" lon="12.8541922"><ele>296.0</ele><time>2026-04-19T08:26:14.014Z</time></trkpt><trkpt lat="43.4318818" lon="12.8542864"><ele>296.0</ele><time>2026-04-19T08:26:15.01Z</time></trkpt><trkpt lat="43.4317864" lon="12.8543885"><ele>296.0</ele><time>2026-04-19T08:26:16.013Z</time></trkpt><trkpt lat="43.4316875" lon="12.8544863"><ele>296.0</ele><time>2026-04-19T08:26:17.012Z</time></trkpt><trkpt lat="43.4315946" lon="12.8545794"><ele>296.0</ele><time>2026-04-19T08:26:18.01Z</time></trkpt><trkpt lat="43.4315077" lon="12.8546594"><ele>296.0</ele><time>2026-04-19T08:26:19.008Z</time></trkpt><trkpt lat="43.4314242" lon="12.8547331"><ele>296.0</ele><time>2026-04-19T08:26:20.005Z</time></trkpt><trkpt lat="43.4313302" lon="12.8547894"><ele>296.0</ele><time>2026-04-19T08:26:21.009Z</time></trkpt><trkpt lat="43.4312269" lon="12.8548258"><ele>296.0</ele><time>2026-04-19T08:26:22.015Z</time></trkpt><trkpt lat="43.4311101" lon="12.8548211"><ele>296.75</ele><time>2026-04-19T08:26:23.014Z</time></trkpt><trkpt lat="43.4309781" lon="12.8547726"><ele>297.5</ele><time>2026-04-19T08:26:24.005Z</time></trkpt><trkpt lat="43.4308508" lon="12.8547443"><ele>298.25</ele><time>2026-04-19T08:26:25.007Z</time></trkpt><trkpt lat="43.4307371" lon="12.8547018"><ele>299.0</ele><time>2026-04-19T08:26:26.002Z</time></trkpt><trkpt lat="43.4306328" lon="12.8546586"><ele>299.0</ele><time>2026-04-19T08:26:27.005Z</time></trkpt><trkpt lat="43.4305261" lon="12.854616"><ele>299.0</ele><time>2026-04-19T08:26:27.999Z</time></trkpt><trkpt lat="43.4304313" lon="12.8545669"><ele>299.0</ele><time>2026-04-19T08:26:29.008Z</time></trkpt><trkpt lat="43.4303312" lon="12.854532"><ele>299.0</ele><time>2026-04-19T08:26:30.012Z</time></trkpt><trkpt lat="43.4302223" lon="12.8544979"><ele>299.0</ele><time>2026-04-19T08:26:31.011Z</time></trkpt><trkpt lat="43.4301098" lon="12.8544674"><ele>297.5</ele><time>2026-04-19T08:26:32.011Z</time></trkpt><trkpt lat="43.4299941" lon="12.854426"><ele>296.0</ele><time>2026-04-19T08:26:33.014Z</time></trkpt><trkpt lat="43.4298629" lon="12.8543891"><ele>294.5</ele><time>2026-04-19T08:26:34.014Z</time></trkpt><trkpt lat="43.4297288" lon="12.85435"><ele>293.0</ele><time>2026-04-19T08:26:35.013Z</time></trkpt><trkpt lat="43.4296021" lon="12.8543011"><ele>293.25</ele><time>2026-04-19T08:26:36.012Z</time></trkpt><trkpt lat="43.429479" lon="12.8542658"><ele>293.5</ele><time>2026-04-19T08:26:37.041Z</time></trkpt><trkpt lat="43.4293713" lon="12.8542346"><ele>293.75</ele><time>2026-04-19T08:26:38.011Z</time></trkpt><trkpt lat="43.4292668" lon="12.8541984"><ele>294.0</ele><time>2026-04-19T08:26:39.014Z</time></trkpt><trkpt lat="43.4291565" lon="12.8541527"><ele>294.0</ele><time>2026-04-19T08:26:40.008Z</time></trkpt><trkpt lat="43.4290411" lon="12.854091"><ele>294.0</ele><time>2026-04-19T08:26:41.017Z</time></trkpt><trkpt lat="43.428936" lon="12.8539903"><ele>294.0</ele><time>2026-04-19T08:26:42.018Z</time></trkpt><trkpt lat="43.428836" lon="12.8538783"><ele>294.0</ele><time>2026-04-19T08:26:43.014Z</time></trkpt><trkpt lat="43.4287357" lon="12.8537501"><ele>294.0</ele><time>2026-04-19T08:26:44.013Z</time></trkpt><trkpt lat="43.4286407" lon="12.853636"><ele>294.0</ele><time>2026-04-19T08:26:45.011Z</time></trkpt><trkpt lat="43.42855" lon="12.8535273"><ele>294.0</ele><time>2026-04-19T08:26:46.015Z</time></trkpt><trkpt lat="43.4284523" lon="12.8534082"><ele>294.0</ele><time>2026-04-19T08:26:47.016Z</time></trkpt><trkpt lat="43.4283544" lon="12.8532846"><ele>294.0</ele><time>2026-04-19T08:26:48.011Z</time></trkpt><trkpt lat="43.4282432" lon="12.8531652"><ele>294.0</ele><time>2026-04-19T08:26:49.01Z</time></trkpt><trkpt lat="43.4281312" lon="12.8530511"><ele>294.0</ele><time>2026-04-19T08:26:50.014Z</time></trkpt><trkpt lat="43.428009" lon="12.8529375"><ele>294.0</ele><time>2026-04-19T08:26:51.012Z</time></trkpt><trkpt lat="43.4278807" lon="12.8528449"><ele>293.6666666666667</ele><time>2026-04-19T08:26:52.01Z</time></trkpt><trkpt lat="43.4277486" lon="12.8527425"><ele>293.33333333333337</ele><time>2026-04-19T08:26:53.007Z</time></trkpt><trkpt lat="43.4276152" lon="12.8526375"><ele>293.0</ele><time>2026-04-19T08:26:54.006Z</time></trkpt><trkpt lat="43.42748" lon="12.8525325"><ele>293.0</ele><time>2026-04-19T08:26:55.012Z</time></trkpt><trkpt lat="43.4273305" lon="12.85242"><ele>293.0</ele><time>2026-04-19T08:26:56.016Z</time></trkpt><trkpt lat="43.4271828" lon="12.8523189"><ele>293.0</ele><time>2026-04-19T08:26:57.016Z</time></trkpt><trkpt lat="43.4270292" lon="12.8522104"><ele>291.6666666666667</ele><time>2026-04-19T08:26:58.017Z</time></trkpt><trkpt lat="43.4268769" lon="12.8521014"><ele>290.3333333333333</ele><time>2026-04-19T08:26:59.014Z</time></trkpt><trkpt lat="43.4267322" lon="12.8520047"><ele>289.0</ele><time>2026-04-19T08:27:00.013Z</time></trkpt><trkpt lat="43.4265848" lon="12.8519248"><ele>289.0</ele><time>2026-04-19T08:27:01.007Z</time></trkpt><trkpt lat="43.4264329" lon="12.8518549"><ele>289.0</ele><time>2026-04-19T08:27:02.01Z</time></trkpt><trkpt lat="43.4262966" lon="12.8517911"><ele>289.0</ele><time>2026-04-19T08:27:03.008Z</time></trkpt><trkpt lat="43.4261684" lon="12.8517416"><ele>289.0</ele><time>2026-04-19T08:27:04.013Z</time></trkpt><trkpt lat="43.4260537" lon="12.8516835"><ele>289.5</ele><time>2026-04-19T08:27:05.011Z</time></trkpt><trkpt lat="43.4259486" lon="12.8516075"><ele>290.0</ele><time>2026-04-19T08:27:06.018Z</time></trkpt><trkpt lat="43.4258476" lon="12.8515114"><ele>290.5</ele><time>2026-04-19T08:27:07.035Z</time></trkpt><trkpt lat="43.4257973" lon="12.8513737"><ele>291.0</ele><time>2026-04-19T08:27:08.021Z</time></trkpt><trkpt lat="43.4257672" lon="12.8512302"><ele>291.0</ele><time>2026-04-19T08:27:09.018Z</time></trkpt><trkpt lat="43.4257382" lon="12.8510897"><ele>291.0</ele><time>2026-04-19T08:27:10.011Z</time></trkpt><trkpt lat="43.4257085" lon="12.850939"><ele>291.0</ele><time>2026-04-19T08:27:11.02Z</time></trkpt><trkpt lat="43.4256371" lon="12.8508119"><ele>291.0</ele><time>2026-04-19T08:27:12.018Z</time></trkpt><trkpt lat="43.4255449" lon="12.8506925"><ele>290.6666666666667</ele><time>2026-04-19T08:27:13.024Z</time></trkpt><trkpt lat="43.4254205" lon="12.8505634"><ele>290.33333333333337</ele><time>2026-04-19T08:27:14.018Z</time></trkpt><trkpt lat="43.4252878" lon="12.8504254"><ele>290.0</ele><time>2026-04-19T08:27:15.022Z</time></trkpt><trkpt lat="43.4251545" lon="12.8502799"><ele>290.0</ele><time>2026-04-19T08:27:16.025Z</time></trkpt><trkpt lat="43.4250344" lon="12.8501302"><ele>290.0</ele><time>2026-04-19T08:27:17.025Z</time></trkpt><trkpt lat="43.4249244" lon="12.8499697"><ele>290.0</ele><time>2026-04-19T08:27:18.021Z</time></trkpt><trkpt lat="43.424837" lon="12.8497925"><ele>290.0</ele><time>2026-04-19T08:27:19.021Z</time></trkpt><trkpt lat="43.4247809" lon="12.8495872"><ele>290.0</ele><time>2026-04-19T08:27:20.023Z</time></trkpt><trkpt lat="43.4247281" lon="12.8494078"><ele>290.0</ele><time>2026-04-19T08:27:21.028Z</time></trkpt><trkpt lat="43.4246891" lon="12.8492746"><ele>290.0</ele><time>2026-04-19T08:27:22.02Z</time></trkpt><trkpt lat="43.424639" lon="12.8491705"><ele>290.0</ele><time>2026-04-19T08:27:23.026Z</time></trkpt><trkpt lat="43.4245722" lon="12.849097"><ele>290.0</ele><time>2026-04-19T08:27:24.026Z</time></trkpt><trkpt lat="43.4244505" lon="12.8490469"><ele>290.0</ele><time>2026-04-19T08:27:25.017Z</time></trkpt><trkpt lat="43.4243107" lon="12.8490148"><ele>290.0</ele><time>2026-04-19T08:27:26.021Z</time></trkpt><trkpt lat="43.4241582" lon="12.8489728"><ele>290.0</ele><time>2026-04-19T08:27:27.023Z</time></trkpt><trkpt lat="43.4239761" lon="12.8489317"><ele>290.0</ele><time>2026-04-19T08:27:28.018Z</time></trkpt><trkpt lat="43.4237872" lon="12.8488687"><ele>290.0</ele><time>2026-04-19T08:27:29.019Z</time></trkpt><trkpt lat="43.423608" lon="12.8487815"><ele>289.0</ele><time>2026-04-19T08:27:30.018Z</time></trkpt><trkpt lat="43.4234502" lon="12.8486706"><ele>288.0</ele><time>2026-04-19T08:27:31.016Z</time></trkpt><trkpt lat="43.4232997" lon="12.8485324"><ele>287.0</ele><time>2026-04-19T08:27:32.015Z</time></trkpt><trkpt lat="43.423176" lon="12.8483859"><ele>287.0</ele><time>2026-04-19T08:27:33.017Z</time></trkpt><trkpt lat="43.4230455" lon="12.8482581"><ele>287.0</ele><time>2026-04-19T08:27:34.017Z</time></trkpt><trkpt lat="43.4229214" lon="12.8481573"><ele>287.0</ele><time>2026-04-19T08:27:35.021Z</time></trkpt><trkpt lat="43.4227877" lon="12.8481027"><ele>287.0</ele><time>2026-04-19T08:27:36.018Z</time></trkpt><trkpt lat="43.4226506" lon="12.8481069"><ele>286.6666666666667</ele><time>2026-04-19T08:27:37.025Z</time></trkpt><trkpt lat="43.4225024" lon="12.8481516"><ele>286.3333333333333</ele><time>2026-04-19T08:27:38.035Z</time></trkpt><trkpt lat="43.4223544" lon="12.8482718"><ele>286.0</ele><time>2026-04-19T08:27:39.021Z</time></trkpt><trkpt lat="43.4222328" lon="12.8484347"><ele>287.3333333333333</ele><time>2026-04-19T08:27:40.022Z</time></trkpt><trkpt lat="43.4221296" lon="12.8486328"><ele>288.6666666666667</ele><time>2026-04-19T08:27:41.004Z</time></trkpt><trkpt lat="43.4220242" lon="12.8488143"><ele>290.0</ele><time>2026-04-19T08:27:42.01Z</time></trkpt><trkpt lat="43.4219004" lon="12.8490115"><ele>290.0</ele><time>2026-04-19T08:27:43.014Z</time></trkpt><trkpt lat="43.4217589" lon="12.84919"><ele>290.0</ele><time>2026-04-19T08:27:44.024Z</time></trkpt><trkpt lat="43.4216227" lon="12.8493238"><ele>290.0</ele><time>2026-04-19T08:27:45.021Z</time></trkpt><trkpt lat="43.4214786" lon="12.8494483"><ele>294.0</ele><time>2026-04-19T08:27:46.019Z</time></trkpt><trkpt lat="43.4213235" lon="12.8495362"><ele>298.0</ele><time>2026-04-19T08:27:47.02Z</time></trkpt><trkpt lat="43.4211526" lon="12.8496083"><ele>302.0</ele><time>2026-04-19T08:27:48.023Z</time></trkpt><trkpt lat="43.4209721" lon="12.8496586"><ele>302.0</ele><time>2026-04-19T08:27:49.014Z</time></trkpt><trkpt lat="43.4207963" lon="12.849689"><ele>302.0</ele><time>2026-04-19T08:27:50.017Z</time></trkpt><trkpt lat="43.420623" lon="12.8497278"><ele>302.0</ele><time>2026-04-19T08:27:51.016Z</time></trkpt><trkpt lat="43.4204299" lon="12.8497756"><ele>302.33333333333337</ele><time>2026-04-19T08:27:52.014Z</time></trkpt><trkpt lat="43.4202509" lon="12.8498337"><ele>302.6666666666667</ele><time>2026-04-19T08:27:53.009Z</time></trkpt><trkpt lat="43.4200824" lon="12.8498961"><ele>303.0</ele><time>2026-04-19T08:27:54.014Z</time></trkpt><trkpt lat="43.4199355" lon="12.8499444"><ele>303.0</ele><time>2026-04-19T08:27:55.013Z</time></trkpt><trkpt lat="43.4198069" lon="12.849974"><ele>303.0</ele><time>2026-04-19T08:27:56.019Z</time></trkpt><trkpt lat="43.4197018" lon="12.8499856"><ele>303.0</ele><time>2026-04-19T08:27:57.023Z</time></trkpt><trkpt lat="43.4196221" lon="12.8499802"><ele>303.0</ele><time>2026-04-19T08:27:58.013Z</time></trkpt><trkpt lat="43.4195515" lon="12.8499825"><ele>303.0</ele><time>2026-04-19T08:27:59.019Z</time></trkpt><trkpt lat="43.4194867" lon="12.8499795"><ele>304.8333333333333</ele><time>2026-04-19T08:28:00.016Z</time></trkpt><trkpt lat="43.4194117" lon="12.849927"><ele>306.6666666666667</ele><time>2026-04-19T08:28:02.017Z</time></trkpt><trkpt lat="43.4193479" lon="12.8499129"><ele>308.5</ele><time>2026-04-19T08:28:04.018Z</time></trkpt><trkpt lat="43.4192713" lon="12.8499415"><ele>310.33333333333337</ele><time>2026-04-19T08:28:06.017Z</time></trkpt><trkpt lat="43.4191965" lon="12.8500086"><ele>312.1666666666667</ele><time>2026-04-19T08:28:08.015Z</time></trkpt><trkpt lat="43.4191783" lon="12.8500952"><ele>314.0</ele><time>2026-04-19T08:28:10.016Z</time></trkpt><trkpt lat="43.4192175" lon="12.8502455"><ele>314.2</ele><time>2026-04-19T08:28:13.017Z</time></trkpt><trkpt lat="43.4192576" lon="12.8503433"><ele>314.4</ele><time>2026-04-19T08:28:14.018Z</time></trkpt><trkpt lat="43.4193034" lon="12.850472"><ele>314.6</ele><time>2026-04-19T08:28:15.018Z</time></trkpt><trkpt lat="43.4193634" lon="12.8506206"><ele>314.8</ele><time>2026-04-19T08:28:16.025Z</time></trkpt><trkpt lat="43.4194322" lon="12.850778"><ele>315.0</ele><time>2026-04-19T08:28:17.016Z</time></trkpt><trkpt lat="43.4195016" lon="12.8509563"><ele>314.25</ele><time>2026-04-19T08:28:18.011Z</time></trkpt><trkpt lat="43.4195779" lon="12.8511398"><ele>313.5</ele><time>2026-04-19T08:28:19.015Z</time></trkpt><trkpt lat="43.4196478" lon="12.8513201"><ele>312.75</ele><time>2026-04-19T08:28:20.015Z</time></trkpt><trkpt lat="43.4197126" lon="12.8514799"><ele>312.0</ele><time>2026-04-19T08:28:21.012Z</time></trkpt><trkpt lat="43.4197732" lon="12.8516216"><ele>311.6666666666667</ele><time>2026-04-19T08:28:22.014Z</time></trkpt><trkpt lat="43.4198251" lon="12.8517351"><ele>311.3333333333333</ele><time>2026-04-19T08:28:23.015Z</time></trkpt><trkpt lat="43.4198665" lon="12.8518131"><ele>311.0</ele><time>2026-04-19T08:28:24.011Z</time></trkpt><trkpt lat="43.4199052" lon="12.8519174"><ele>310.66666666666663</ele><time>2026-04-19T08:28:26.008Z</time></trkpt><trkpt lat="43.4198983" lon="12.8520271"><ele>310.3333333333333</ele><time>2026-04-19T08:28:28.017Z</time></trkpt><trkpt lat="43.419837" lon="12.8519863"><ele>310.0</ele><time>2026-04-19T08:28:35.014Z</time></trkpt><trkpt lat="43.4197651" lon="12.8519404"><ele>310.3333333333333</ele><time>2026-04-19T08:28:37.019Z</time></trkpt><trkpt lat="43.4196509" lon="12.8518918"><ele>310.66666666666663</ele><time>2026-04-19T08:28:39.019Z</time></trkpt><trkpt lat="43.4195908" lon="12.851863"><ele>311.0</ele><time>2026-04-19T08:28:40.028Z</time></trkpt><trkpt lat="43.4195195" lon="12.8518325"><ele>311.3333333333333</ele><time>2026-04-19T08:28:41.014Z</time></trkpt><trkpt lat="43.4194416" lon="12.8518027"><ele>311.6666666666667</ele><time>2026-04-19T08:28:42.019Z</time></trkpt><trkpt lat="43.4193538" lon="12.8517713"><ele>312.0</ele><time>2026-04-19T08:28:43.016Z</time></trkpt><trkpt lat="43.4192623" lon="12.8517462"><ele>312.0</ele><time>2026-04-19T08:28:44.018Z</time></trkpt><trkpt lat="43.4191684" lon="12.8517306"><ele>312.0</ele><time>2026-04-19T08:28:45.014Z</time></trkpt><trkpt lat="43.4190653" lon="12.8517169"><ele>312.0</ele><time>2026-04-19T08:28:46.02Z</time></trkpt><trkpt lat="43.4189516" lon="12.8517055"><ele>312.0</ele><time>2026-04-19T08:28:47.014Z</time></trkpt><trkpt lat="43.4188367" lon="12.8516983"><ele>312.0</ele><time>2026-04-19T08:28:48.014Z</time></trkpt><trkpt lat="43.4186961" lon="12.8516936"><ele>313.0</ele><time>2026-04-19T08:28:49.018Z</time></trkpt><trkpt lat="43.418545" lon="12.8516974"><ele>314.0</ele><time>2026-04-19T08:28:50.015Z</time></trkpt><trkpt lat="43.4183823" lon="12.8517139"><ele>315.0</ele><time>2026-04-19T08:28:51.018Z</time></trkpt><trkpt lat="43.418198" lon="12.8517203"><ele>315.0</ele><time>2026-04-19T08:28:52.02Z</time></trkpt><trkpt lat="43.4179964" lon="12.8517269"><ele>315.0</ele><time>2026-04-19T08:28:53.018Z</time></trkpt><trkpt lat="43.4177885" lon="12.8517382"><ele>315.0</ele><time>2026-04-19T08:28:54.017Z</time></trkpt><trkpt lat="43.4175878" lon="12.8517497"><ele>315.3333333333333</ele><time>2026-04-19T08:28:55.014Z</time></trkpt><trkpt lat="43.4173761" lon="12.8517566"><ele>315.66666666666663</ele><time>2026-04-19T08:28:56.018Z</time></trkpt><trkpt lat="43.417161" lon="12.8517673"><ele>316.0</ele><time>2026-04-19T08:28:57.02Z</time></trkpt><trkpt lat="43.4169359" lon="12.8517758"><ele>316.5</ele><time>2026-04-19T08:28:58.017Z</time></trkpt><trkpt lat="43.4167062" lon="12.8517865"><ele>317.0</ele><time>2026-04-19T08:28:59.019Z</time></trkpt><trkpt lat="43.4164758" lon="12.8517933"><ele>316.0</ele><time>2026-04-19T08:29:00.017Z</time></trkpt><trkpt lat="43.4162475" lon="12.8518043"><ele>315.0</ele><time>2026-04-19T08:29:01.017Z</time></trkpt><trkpt lat="43.4160093" lon="12.8518103"><ele>315.0</ele><time>2026-04-19T08:29:02.017Z</time></trkpt><trkpt lat="43.4157809" lon="12.8518186"><ele>315.0</ele><time>2026-04-19T08:29:03.019Z</time></trkpt><trkpt lat="43.4155416" lon="12.8518445"><ele>314.0</ele><time>2026-04-19T08:29:04.016Z</time></trkpt><trkpt lat="43.4152976" lon="12.8518699"><ele>313.0</ele><time>2026-04-19T08:29:05.009Z</time></trkpt><trkpt lat="43.4150536" lon="12.8518866"><ele>313.0</ele><time>2026-04-19T08:29:06.015Z</time></trkpt><trkpt lat="43.4148011" lon="12.8518885"><ele>313.0</ele><time>2026-04-19T08:29:07.018Z</time></trkpt><trkpt lat="43.4145397" lon="12.8519019"><ele>314.0</ele><time>2026-04-19T08:29:08.022Z</time></trkpt><trkpt lat="43.414282" lon="12.8519029"><ele>315.0</ele><time>2026-04-19T08:29:09.021Z</time></trkpt><trkpt lat="43.4140232" lon="12.8519135"><ele>316.0</ele><time>2026-04-19T08:29:10.023Z</time></trkpt><trkpt lat="43.4137621" lon="12.8519199"><ele>317.0</ele><time>2026-04-19T08:29:11.032Z</time></trkpt><trkpt lat="43.4135067" lon="12.8519393"><ele>317.0</ele><time>2026-04-19T08:29:12.02Z</time></trkpt><trkpt lat="43.4132395" lon="12.8519528"><ele>317.0</ele><time>2026-04-19T08:29:13.023Z</time></trkpt><trkpt lat="43.4129736" lon="12.8519601"><ele>317.0</ele><time>2026-04-19T08:29:14.015Z</time></trkpt><trkpt lat="43.4127153" lon="12.851965"><ele>317.0</ele><time>2026-04-19T08:29:15.017Z</time></trkpt><trkpt lat="43.4124463" lon="12.8519432"><ele>317.0</ele><time>2026-04-19T08:29:16.015Z</time></trkpt><trkpt lat="43.4121782" lon="12.8519063"><ele>317.0</ele><time>2026-04-19T08:29:17.017Z</time></trkpt><trkpt lat="43.4119242" lon="12.8518252"><ele>320.0</ele><time>2026-04-19T08:29:18.01Z</time></trkpt><trkpt lat="43.4116713" lon="12.851727"><ele>323.0</ele><time>2026-04-19T08:29:19.013Z</time></trkpt><trkpt lat="43.4114035" lon="12.8516404"><ele>321.5</ele><time>2026-04-19T08:29:20.014Z</time></trkpt><trkpt lat="43.4111362" lon="12.8515509"><ele>320.0</ele><time>2026-04-19T08:29:21.015Z</time></trkpt><trkpt lat="43.4108671" lon="12.8514673"><ele>320.0</ele><time>2026-04-19T08:29:22.013Z</time></trkpt><trkpt lat="43.4105877" lon="12.8513679"><ele>320.0</ele><time>2026-04-19T08:29:23.016Z</time></trkpt><trkpt lat="43.4103155" lon="12.8512801"><ele>320.0</ele><time>2026-04-19T08:29:24.015Z</time></trkpt><trkpt lat="43.410037" lon="12.8511852"><ele>320.0</ele><time>2026-04-19T08:29:25.02Z</time></trkpt><trkpt lat="43.4097539" lon="12.8510943"><ele>319.5</ele><time>2026-04-19T08:29:26.016Z</time></trkpt><trkpt lat="43.409473" lon="12.8510051"><ele>319.0</ele><time>2026-04-19T08:29:27.018Z</time></trkpt><trkpt lat="43.4091887" lon="12.8508974"><ele>323.0</ele><time>2026-04-19T08:29:28.016Z</time></trkpt><trkpt lat="43.4089053" lon="12.8507952"><ele>327.0</ele><time>2026-04-19T08:29:29.018Z</time></trkpt><trkpt lat="43.4086222" lon="12.8506923"><ele>327.5</ele><time>2026-04-19T08:29:30.017Z</time></trkpt><trkpt lat="43.4083432" lon="12.8506123"><ele>328.0</ele><time>2026-04-19T08:29:31.018Z</time></trkpt><trkpt lat="43.4080641" lon="12.8505196"><ele>328.0</ele><time>2026-04-19T08:29:32.016Z</time></trkpt><trkpt lat="43.4077716" lon="12.8504304"><ele>328.0</ele><time>2026-04-19T08:29:33.016Z</time></trkpt><trkpt lat="43.4074892" lon="12.8503539"><ele>328.0</ele><time>2026-04-19T08:29:34.021Z</time></trkpt><trkpt lat="43.4072063" lon="12.8502605"><ele>328.0</ele><time>2026-04-19T08:29:35.021Z</time></trkpt><trkpt lat="43.4069291" lon="12.8501767"><ele>329.5</ele><time>2026-04-19T08:29:36.018Z</time></trkpt><trkpt lat="43.4066556" lon="12.850082"><ele>331.0</ele><time>2026-04-19T08:29:37.02Z</time></trkpt><trkpt lat="43.4063838" lon="12.849987"><ele>330.0</ele><time>2026-04-19T08:29:38.02Z</time></trkpt><trkpt lat="43.406124" lon="12.8499009"><ele>329.0</ele><time>2026-04-19T08:29:39.023Z</time></trkpt><trkpt lat="43.4058611" lon="12.8498157"><ele>329.0</ele><time>2026-04-19T08:29:40.021Z</time></trkpt><trkpt lat="43.4055953" lon="12.8497401"><ele>329.0</ele><time>2026-04-19T08:29:41.019Z</time></trkpt><trkpt lat="43.4053407" lon="12.8496657"><ele>329.0</ele><time>2026-04-19T08:29:42.038Z</time></trkpt><trkpt lat="43.4050885" lon="12.849578"><ele>329.0</ele><time>2026-04-19T08:29:43.023Z</time></trkpt><trkpt lat="43.4048406" lon="12.8494876"><ele>326.5</ele><time>2026-04-19T08:29:44.023Z</time></trkpt><trkpt lat="43.4045976" lon="12.8494022"><ele>324.0</ele><time>2026-04-19T08:29:45.021Z</time></trkpt><trkpt lat="43.4043544" lon="12.8493215"><ele>326.5</ele><time>2026-04-19T08:29:46.02Z</time></trkpt><trkpt lat="43.4041038" lon="12.8492482"><ele>329.0</ele><time>2026-04-19T08:29:47.022Z</time></trkpt><trkpt lat="43.4038487" lon="12.8491814"><ele>329.5</ele><time>2026-04-19T08:29:48.022Z</time></trkpt><trkpt lat="43.4035966" lon="12.8490931"><ele>330.0</ele><time>2026-04-19T08:29:49.024Z</time></trkpt><trkpt lat="43.4033443" lon="12.8490168"><ele>330.0</ele><time>2026-04-19T08:29:50.025Z</time></trkpt><trkpt lat="43.4030999" lon="12.8489298"><ele>330.0</ele><time>2026-04-19T08:29:51.024Z</time></trkpt><trkpt lat="43.4028518" lon="12.8488551"><ele>331.0</ele><time>2026-04-19T08:29:52.025Z</time></trkpt><trkpt lat="43.4025972" lon="12.8487851"><ele>332.0</ele><time>2026-04-19T08:29:53.028Z</time></trkpt><trkpt lat="43.4023487" lon="12.8487537"><ele>332.5</ele><time>2026-04-19T08:29:54.027Z</time></trkpt><trkpt lat="43.4020914" lon="12.8487589"><ele>333.0</ele><time>2026-04-19T08:29:55.023Z</time></trkpt><trkpt lat="43.4018285" lon="12.8487779"><ele>333.0</ele><time>2026-04-19T08:29:56.021Z</time></trkpt><trkpt lat="43.4015717" lon="12.8487873"><ele>333.0</ele><time>2026-04-19T08:29:57.025Z</time></trkpt><trkpt lat="43.4013114" lon="12.8487932"><ele>333.5</ele><time>2026-04-19T08:29:58.023Z</time></trkpt><trkpt lat="43.4010532" lon="12.8487835"><ele>334.0</ele><time>2026-04-19T08:29:59.015Z</time></trkpt><trkpt lat="43.4007957" lon="12.8488019"><ele>334.0</ele><time>2026-04-19T08:30:00.015Z</time></trkpt><trkpt lat="43.4005336" lon="12.8488035"><ele>334.0</ele><time>2026-04-19T08:30:01.016Z</time></trkpt><trkpt lat="43.4002666" lon="12.8488109"><ele>337.0</ele><time>2026-04-19T08:30:02.021Z</time></trkpt><trkpt lat="43.3999963" lon="12.8488109"><ele>340.0</ele><time>2026-04-19T08:30:03.021Z</time></trkpt><trkpt lat="43.3997266" lon="12.8488153"><ele>339.5</ele><time>2026-04-19T08:30:04.02Z</time></trkpt><trkpt lat="43.3994593" lon="12.8488053"><ele>339.0</ele><time>2026-04-19T08:30:05.024Z</time></trkpt><trkpt lat="43.3992024" lon="12.8487959"><ele>339.0</ele><time>2026-04-19T08:30:06.024Z</time></trkpt><trkpt lat="43.398937" lon="12.8487923"><ele>339.0</ele><time>2026-04-19T08:30:07.024Z</time></trkpt><trkpt lat="43.398678" lon="12.8487879"><ele>338.0</ele><time>2026-04-19T08:30:08.022Z</time></trkpt><trkpt lat="43.3984215" lon="12.8487675"><ele>337.0</ele><time>2026-04-19T08:30:09.022Z</time></trkpt><trkpt lat="43.3981629" lon="12.8487472"><ele>333.5</ele><time>2026-04-19T08:30:10.021Z</time></trkpt><trkpt lat="43.3979117" lon="12.848696"><ele>330.0</ele><time>2026-04-19T08:30:11.027Z</time></trkpt><trkpt lat="43.3976618" lon="12.8485837"><ele>335.5</ele><time>2026-04-19T08:30:12.029Z</time></trkpt><trkpt lat="43.397427" lon="12.8484429"><ele>341.0</ele><time>2026-04-19T08:30:13.038Z</time></trkpt><trkpt lat="43.3971909" lon="12.8483096"><ele>336.5</ele><time>2026-04-19T08:30:14.022Z</time></trkpt><trkpt lat="43.3969516" lon="12.8481855"><ele>332.0</ele><time>2026-04-19T08:30:15.028Z</time></trkpt><trkpt lat="43.3967195" lon="12.8480554"><ele>332.0</ele><time>2026-04-19T08:30:16.027Z</time></trkpt><trkpt lat="43.3964953" lon="12.8479306"><ele>332.0</ele><time>2026-04-19T08:30:17.018Z</time></trkpt><trkpt lat="43.3962742" lon="12.8478188"><ele>333.5</ele><time>2026-04-19T08:30:18.022Z</time></trkpt><trkpt lat="43.3960566" lon="12.8477069"><ele>335.0</ele><time>2026-04-19T08:30:19.02Z</time></trkpt><trkpt lat="43.3958409" lon="12.8475882"><ele>339.0</ele><time>2026-04-19T08:30:20.027Z</time></trkpt><trkpt lat="43.3956272" lon="12.8474719"><ele>343.0</ele><time>2026-04-19T08:30:21.012Z</time></trkpt><trkpt lat="43.3954092" lon="12.8473624"><ele>344.5</ele><time>2026-04-19T08:30:22.022Z</time></trkpt><trkpt lat="43.3951789" lon="12.8472427"><ele>346.0</ele><time>2026-04-19T08:30:23.022Z</time></trkpt><trkpt lat="43.3949528" lon="12.8471229"><ele>346.0</ele><time>2026-04-19T08:30:24.02Z</time></trkpt><trkpt lat="43.3947165" lon="12.8469976"><ele>346.0</ele><time>2026-04-19T08:30:25.023Z</time></trkpt><trkpt lat="43.3944775" lon="12.8468759"><ele>348.0</ele><time>2026-04-19T08:30:26.024Z</time></trkpt><trkpt lat="43.3942308" lon="12.8467422"><ele>350.0</ele><time>2026-04-19T08:30:27.024Z</time></trkpt><trkpt lat="43.3940052" lon="12.8466147"><ele>352.0</ele><time>2026-04-19T08:30:28.003Z</time></trkpt><trkpt lat="43.3937549" lon="12.8464947"><ele>354.0</ele><time>2026-04-19T08:30:29.018Z</time></trkpt><trkpt lat="43.3935082" lon="12.846375"><ele>354.0</ele><time>2026-04-19T08:30:30.017Z</time></trkpt><trkpt lat="43.3932684" lon="12.8462573"><ele>354.0</ele><time>2026-04-19T08:30:31.019Z</time></trkpt><trkpt lat="43.3930202" lon="12.8461343"><ele>354.0</ele><time>2026-04-19T08:30:32.014Z</time></trkpt><trkpt lat="43.3927683" lon="12.8460003"><ele>354.0</ele><time>2026-04-19T08:30:33.009Z</time></trkpt><trkpt lat="43.3925045" lon="12.8458624"><ele>356.0</ele><time>2026-04-19T08:30:34.015Z</time></trkpt><trkpt lat="43.3922466" lon="12.845737"><ele>358.0</ele><time>2026-04-19T08:30:35.012Z</time></trkpt><trkpt lat="43.391983" lon="12.8455941"><ele>358.0</ele><time>2026-04-19T08:30:36.015Z</time></trkpt><trkpt lat="43.3917231" lon="12.8454706"><ele>358.0</ele><time>2026-04-19T08:30:37.002Z</time></trkpt><trkpt lat="43.3914652" lon="12.845324"><ele>357.5</ele><time>2026-04-19T08:30:38.012Z</time></trkpt><trkpt lat="43.3912113" lon="12.8451848"><ele>357.0</ele><time>2026-04-19T08:30:39.015Z</time></trkpt><trkpt lat="43.3909589" lon="12.8450416"><ele>358.0</ele><time>2026-04-19T08:30:40.02Z</time></trkpt><trkpt lat="43.390702" lon="12.844905"><ele>359.0</ele><time>2026-04-19T08:30:41.016Z</time></trkpt><trkpt lat="43.3904434" lon="12.8447681"><ele>359.0</ele><time>2026-04-19T08:30:42.017Z</time></trkpt><trkpt lat="43.3901889" lon="12.8446355"><ele>359.0</ele><time>2026-04-19T08:30:43.014Z</time></trkpt><trkpt lat="43.3899311" lon="12.8445029"><ele>359.5</ele><time>2026-04-19T08:30:44.023Z</time></trkpt><trkpt lat="43.3896702" lon="12.8443706"><ele>360.0</ele><time>2026-04-19T08:30:45.011Z</time></trkpt><trkpt lat="43.3894195" lon="12.844229"><ele>360.0</ele><time>2026-04-19T08:30:46.011Z</time></trkpt><trkpt lat="43.3891676" lon="12.8441041"><ele>360.0</ele><time>2026-04-19T08:30:47.013Z</time></trkpt><trkpt lat="43.3889023" lon="12.84396"><ele>360.0</ele><time>2026-04-19T08:30:48.009Z</time></trkpt><trkpt lat="43.3886316" lon="12.8438241"><ele>360.0</ele><time>2026-04-19T08:30:49.016Z</time></trkpt><trkpt lat="43.3883595" lon="12.8436821"><ele>360.0</ele><time>2026-04-19T08:30:50.015Z</time></trkpt><trkpt lat="43.3881041" lon="12.8435455"><ele>360.0</ele><time>2026-04-19T08:30:51.026Z</time></trkpt><trkpt lat="43.3878364" lon="12.8434026"><ele>361.5</ele><time>2026-04-19T08:30:52.01Z</time></trkpt><trkpt lat="43.3875607" lon="12.8432604"><ele>363.0</ele><time>2026-04-19T08:30:53.02Z</time></trkpt><trkpt lat="43.3873009" lon="12.8431262"><ele>363.0</ele><time>2026-04-19T08:30:54.014Z</time></trkpt><trkpt lat="43.3870442" lon="12.8429848"><ele>363.0</ele><time>2026-04-19T08:30:55.014Z</time></trkpt><trkpt lat="43.3867762" lon="12.8428408"><ele>363.0</ele><time>2026-04-19T08:30:56.015Z</time></trkpt><trkpt lat="43.3865152" lon="12.8427011"><ele>363.0</ele><time>2026-04-19T08:30:57.018Z</time></trkpt><trkpt lat="43.3862555" lon="12.8425656"><ele>366.0</ele><time>2026-04-19T08:30:58.014Z</time></trkpt><trkpt lat="43.3860104" lon="12.84244"><ele>369.0</ele><time>2026-04-19T08:30:59.01Z</time></trkpt><trkpt lat="43.3857799" lon="12.8423174"><ele>369.0</ele><time>2026-04-19T08:31:00Z</time></trkpt><trkpt lat="43.3855614" lon="12.8421973"><ele>369.0</ele><time>2026-04-19T08:31:01.017Z</time></trkpt><trkpt lat="43.3853577" lon="12.8420945"><ele>369.0</ele><time>2026-04-19T08:31:02.007Z</time></trkpt><trkpt lat="43.3851752" lon="12.8419711"><ele>369.0</ele><time>2026-04-19T08:31:03.016Z</time></trkpt><trkpt lat="43.3850051" lon="12.8418592"><ele>369.0</ele><time>2026-04-19T08:31:04.011Z</time></trkpt><trkpt lat="43.3848445" lon="12.8417334"><ele>369.3333333333333</ele><time>2026-04-19T08:31:05.023Z</time></trkpt><trkpt lat="43.3847041" lon="12.8415987"><ele>369.66666666666663</ele><time>2026-04-19T08:31:06.016Z</time></trkpt><trkpt lat="43.3845712" lon="12.8414722"><ele>370.0</ele><time>2026-04-19T08:31:07.015Z</time></trkpt><trkpt lat="43.3844484" lon="12.8413487"><ele>370.0</ele><time>2026-04-19T08:31:08.018Z</time></trkpt><trkpt lat="43.3843264" lon="12.841242"><ele>370.0</ele><time>2026-04-19T08:31:09.023Z</time></trkpt><trkpt lat="43.3842015" lon="12.8411187"><ele>370.0</ele><time>2026-04-19T08:31:10.016Z</time></trkpt><trkpt lat="43.3840741" lon="12.8409841"><ele>370.0</ele><time>2026-04-19T08:31:11.019Z</time></trkpt><trkpt lat="43.3839381" lon="12.8408225"><ele>370.0</ele><time>2026-04-19T08:31:12.02Z</time></trkpt><trkpt lat="43.3837862" lon="12.8406678"><ele>370.0</ele><time>2026-04-19T08:31:13.02Z</time></trkpt><trkpt lat="43.3836263" lon="12.8405085"><ele>370.3333333333333</ele><time>2026-04-19T08:31:14.017Z</time></trkpt><trkpt lat="43.3834749" lon="12.8403454"><ele>370.6666666666667</ele><time>2026-04-19T08:31:15.041Z</time></trkpt><trkpt lat="43.383329" lon="12.840174"><ele>371.0</ele><time>2026-04-19T08:31:16.02Z</time></trkpt><trkpt lat="43.3831785" lon="12.8399865"><ele>371.33333333333337</ele><time>2026-04-19T08:31:17.018Z</time></trkpt><trkpt lat="43.3830196" lon="12.8398117"><ele>371.6666666666667</ele><time>2026-04-19T08:31:18.019Z</time></trkpt><trkpt lat="43.3828656" lon="12.8396219"><ele>372.0</ele><time>2026-04-19T08:31:19.017Z</time></trkpt><trkpt lat="43.3827037" lon="12.8394437"><ele>372.3333333333333</ele><time>2026-04-19T08:31:20.015Z</time></trkpt><trkpt lat="43.3825355" lon="12.8392653"><ele>372.66666666666663</ele><time>2026-04-19T08:31:21.015Z</time></trkpt><trkpt lat="43.3823759" lon="12.8390969"><ele>373.0</ele><time>2026-04-19T08:31:22.018Z</time></trkpt><trkpt lat="43.3822258" lon="12.8389354"><ele>372.66666666666663</ele><time>2026-04-19T08:31:23.017Z</time></trkpt><trkpt lat="43.3820772" lon="12.8387857"><ele>372.3333333333333</ele><time>2026-04-19T08:31:24.015Z</time></trkpt><trkpt lat="43.381939" lon="12.8386294"><ele>372.0</ele><time>2026-04-19T08:31:25.012Z</time></trkpt><trkpt lat="43.3818261" lon="12.8384849"><ele>373.0</ele><time>2026-04-19T08:31:26.019Z</time></trkpt><trkpt lat="43.3817041" lon="12.8383524"><ele>374.0</ele><time>2026-04-19T08:31:27.013Z</time></trkpt><trkpt lat="43.3815728" lon="12.8382185"><ele>375.0</ele><time>2026-04-19T08:31:28.011Z</time></trkpt><trkpt lat="43.3814286" lon="12.8380759"><ele>375.6666666666667</ele><time>2026-04-19T08:31:29.011Z</time></trkpt><trkpt lat="43.3812695" lon="12.8379052"><ele>376.33333333333337</ele><time>2026-04-19T08:31:30.007Z</time></trkpt><trkpt lat="43.3811263" lon="12.8377038"><ele>377.0</ele><time>2026-04-19T08:31:31.011Z</time></trkpt><trkpt lat="43.3809712" lon="12.8375247"><ele>377.0</ele><time>2026-04-19T08:31:32.011Z</time></trkpt><trkpt lat="43.3808232" lon="12.8373383"><ele>377.0</ele><time>2026-04-19T08:31:33.01Z</time></trkpt><trkpt lat="43.3806658" lon="12.8371464"><ele>377.0</ele><time>2026-04-19T08:31:34.014Z</time></trkpt><trkpt lat="43.3805026" lon="12.8369347"><ele>375.0</ele><time>2026-04-19T08:31:35.009Z</time></trkpt><trkpt lat="43.3803588" lon="12.8367151"><ele>373.0</ele><time>2026-04-19T08:31:36.01Z</time></trkpt><trkpt lat="43.3802014" lon="12.8364753"><ele>373.0</ele><time>2026-04-19T08:31:37.012Z</time></trkpt><trkpt lat="43.3800366" lon="12.8362188"><ele>373.0</ele><time>2026-04-19T08:31:38.011Z</time></trkpt><trkpt lat="43.3798731" lon="12.8359646"><ele>372.0</ele><time>2026-04-19T08:31:39.008Z</time></trkpt><trkpt lat="43.3797117" lon="12.8356944"><ele>371.0</ele><time>2026-04-19T08:31:40.009Z</time></trkpt><trkpt lat="43.3795434" lon="12.8354236"><ele>371.0</ele><time>2026-04-19T08:31:41.009Z</time></trkpt><trkpt lat="43.3793804" lon="12.8351704"><ele>371.0</ele><time>2026-04-19T08:31:42.019Z</time></trkpt><trkpt lat="43.3791992" lon="12.8349127"><ele>371.5</ele><time>2026-04-19T08:31:43.013Z</time></trkpt><trkpt lat="43.3790214" lon="12.834659"><ele>372.0</ele><time>2026-04-19T08:31:44.014Z</time></trkpt><trkpt lat="43.3788448" lon="12.834407"><ele>372.0</ele><time>2026-04-19T08:31:45.02Z</time></trkpt><trkpt lat="43.3786705" lon="12.8341356"><ele>372.0</ele><time>2026-04-19T08:31:46.011Z</time></trkpt><trkpt lat="43.3785028" lon="12.8338636"><ele>372.0</ele><time>2026-04-19T08:31:47.005Z</time></trkpt><trkpt lat="43.3783441" lon="12.8335632"><ele>372.0</ele><time>2026-04-19T08:31:48.01Z</time></trkpt><trkpt lat="43.378186" lon="12.8332599"><ele>378.0</ele><time>2026-04-19T08:31:49.013Z</time></trkpt><trkpt lat="43.3780259" lon="12.8329727"><ele>384.0</ele><time>2026-04-19T08:31:50.012Z</time></trkpt><trkpt lat="43.3778694" lon="12.8327003"><ele>382.5</ele><time>2026-04-19T08:31:51.008Z</time></trkpt><trkpt lat="43.3777031" lon="12.8324387"><ele>381.0</ele><time>2026-04-19T08:31:52.012Z</time></trkpt><trkpt lat="43.3775253" lon="12.8322147"><ele>381.0</ele><time>2026-04-19T08:31:53.01Z</time></trkpt><trkpt lat="43.3773187" lon="12.8320098"><ele>381.0</ele><time>2026-04-19T08:31:54.011Z</time></trkpt><trkpt lat="43.3771113" lon="12.8318481"><ele>383.5</ele><time>2026-04-19T08:31:55.012Z</time></trkpt><trkpt lat="43.3768878" lon="12.83175"><ele>386.0</ele><time>2026-04-19T08:31:56.017Z</time></trkpt><trkpt lat="43.3766155" lon="12.8316871"><ele>386.0</ele><time>2026-04-19T08:31:57.011Z</time></trkpt><trkpt lat="43.3763631" lon="12.8316447"><ele>386.0</ele><time>2026-04-19T08:31:57.994Z</time></trkpt><trkpt lat="43.3760967" lon="12.8315992"><ele>386.0</ele><time>2026-04-19T08:31:59.002Z</time></trkpt><trkpt lat="43.3758232" lon="12.8315313"><ele>386.0</ele><time>2026-04-19T08:32:00.005Z</time></trkpt><trkpt lat="43.3755663" lon="12.8314374"><ele>386.0</ele><time>2026-04-19T08:32:01.002Z</time></trkpt><trkpt lat="43.3753119" lon="12.8312868"><ele>386.0</ele><time>2026-04-19T08:32:02.007Z</time></trkpt><trkpt lat="43.3750876" lon="12.8310835"><ele>386.0</ele><time>2026-04-19T08:32:03.006Z</time></trkpt><trkpt lat="43.3748734" lon="12.8308462"><ele>386.0</ele><time>2026-04-19T08:32:04.009Z</time></trkpt><trkpt lat="43.3746514" lon="12.8305969"><ele>386.0</ele><time>2026-04-19T08:32:05.002Z</time></trkpt><trkpt lat="43.374438" lon="12.8303633"><ele>386.0</ele><time>2026-04-19T08:32:06.002Z</time></trkpt><trkpt lat="43.3742164" lon="12.8301342"><ele>387.0</ele><time>2026-04-19T08:32:07.001Z</time></trkpt><trkpt lat="43.3740053" lon="12.8299229"><ele>388.0</ele><time>2026-04-19T08:32:08.007Z</time></trkpt><trkpt lat="43.3737898" lon="12.8297388"><ele>388.0</ele><time>2026-04-19T08:32:09.005Z</time></trkpt><trkpt lat="43.3735743" lon="12.8295682"><ele>388.0</ele><time>2026-04-19T08:32:10.008Z</time></trkpt><trkpt lat="43.3733514" lon="12.8294383"><ele>388.0</ele><time>2026-04-19T08:32:11.013Z</time></trkpt><trkpt lat="43.3731081" lon="12.8293476"><ele>388.0</ele><time>2026-04-19T08:32:12.013Z</time></trkpt><trkpt lat="43.3728445" lon="12.8293486"><ele>396.0</ele><time>2026-04-19T08:32:13.014Z</time></trkpt><trkpt lat="43.3725681" lon="12.8293799"><ele>404.0</ele><time>2026-04-19T08:32:14.012Z</time></trkpt><trkpt lat="43.3722823" lon="12.8294664"><ele>405.0</ele><time>2026-04-19T08:32:15.013Z</time></trkpt><trkpt lat="43.3719956" lon="12.8295525"><ele>406.0</ele><time>2026-04-19T08:32:16.029Z</time></trkpt><trkpt lat="43.3717118" lon="12.8296141"><ele>406.0</ele><time>2026-04-19T08:32:17.013Z</time></trkpt><trkpt lat="43.3714268" lon="12.8296703"><ele>406.0</ele><time>2026-04-19T08:32:18.011Z</time></trkpt><trkpt lat="43.3711462" lon="12.8297233"><ele>404.0</ele><time>2026-04-19T08:32:19.006Z</time></trkpt><trkpt lat="43.3708657" lon="12.8297499"><ele>402.0</ele><time>2026-04-19T08:32:20.011Z</time></trkpt><trkpt lat="43.3705803" lon="12.8297687"><ele>401.5</ele><time>2026-04-19T08:32:21.012Z</time></trkpt><trkpt lat="43.3702992" lon="12.8297633"><ele>401.0</ele><time>2026-04-19T08:32:22.009Z</time></trkpt><trkpt lat="43.3700104" lon="12.8297478"><ele>401.0</ele><time>2026-04-19T08:32:23.011Z</time></trkpt><trkpt lat="43.3697273" lon="12.8297218"><ele>401.0</ele><time>2026-04-19T08:32:24.016Z</time></trkpt><trkpt lat="43.369439" lon="12.8297205"><ele>401.5</ele><time>2026-04-19T08:32:25.014Z</time></trkpt><trkpt lat="43.3691532" lon="12.8297091"><ele>402.0</ele><time>2026-04-19T08:32:26.017Z</time></trkpt><trkpt lat="43.3688648" lon="12.8296829"><ele>403.0</ele><time>2026-04-19T08:32:27.018Z</time></trkpt><trkpt lat="43.3685762" lon="12.829679"><ele>404.0</ele><time>2026-04-19T08:32:28.016Z</time></trkpt><trkpt lat="43.3682919" lon="12.8296549"><ele>404.5</ele><time>2026-04-19T08:32:29.024Z</time></trkpt><trkpt lat="43.3680053" lon="12.8296378"><ele>405.0</ele><time>2026-04-19T08:32:30.018Z</time></trkpt><trkpt lat="43.3677244" lon="12.8296291"><ele>405.0</ele><time>2026-04-19T08:32:31.015Z</time></trkpt><trkpt lat="43.3674507" lon="12.8296094"><ele>405.0</ele><time>2026-04-19T08:32:32.015Z</time></trkpt><trkpt lat="43.3671636" lon="12.8295884"><ele>405.0</ele><time>2026-04-19T08:32:33.012Z</time></trkpt><trkpt lat="43.3668941" lon="12.8295769"><ele>405.0</ele><time>2026-04-19T08:32:34.016Z</time></trkpt><trkpt lat="43.3666468" lon="12.8295629"><ele>405.0</ele><time>2026-04-19T08:32:35.015Z</time></trkpt><trkpt lat="43.3664045" lon="12.8295539"><ele>405.0</ele><time>2026-04-19T08:32:36.025Z</time></trkpt><trkpt lat="43.3661748" lon="12.8296063"><ele>407.0</ele><time>2026-04-19T08:32:37.025Z</time></trkpt><trkpt lat="43.365949" lon="12.8297231"><ele>409.0</ele><time>2026-04-19T08:32:38.023Z</time></trkpt><trkpt lat="43.3657285" lon="12.829868"><ele>411.0</ele><time>2026-04-19T08:32:39.017Z</time></trkpt><trkpt lat="43.3655163" lon="12.8300527"><ele>413.0</ele><time>2026-04-19T08:32:40.014Z</time></trkpt><trkpt lat="43.3653169" lon="12.8302562"><ele>414.5</ele><time>2026-04-19T08:32:41.011Z</time></trkpt><trkpt lat="43.365096" lon="12.830457"><ele>416.0</ele><time>2026-04-19T08:32:42.018Z</time></trkpt><trkpt lat="43.3648586" lon="12.8306294"><ele>416.5</ele><time>2026-04-19T08:32:43.006Z</time></trkpt><trkpt lat="43.3646043" lon="12.830798"><ele>417.0</ele><time>2026-04-19T08:32:44.018Z</time></trkpt><trkpt lat="43.3643416" lon="12.8309834"><ele>418.5</ele><time>2026-04-19T08:32:45.015Z</time></trkpt><trkpt lat="43.3640954" lon="12.8311918"><ele>420.0</ele><time>2026-04-19T08:32:46.018Z</time></trkpt><trkpt lat="43.3638606" lon="12.8313749"><ele>420.0</ele><time>2026-04-19T08:32:47.024Z</time></trkpt><trkpt lat="43.3636573" lon="12.8315546"><ele>420.0</ele><time>2026-04-19T08:32:48.02Z</time></trkpt><trkpt lat="43.3634653" lon="12.831684"><ele>420.0</ele><time>2026-04-19T08:32:49.019Z</time></trkpt><trkpt lat="43.3632423" lon="12.8317251"><ele>420.0</ele><time>2026-04-19T08:32:50.018Z</time></trkpt><trkpt lat="43.3630182" lon="12.8317297"><ele>420.0</ele><time>2026-04-19T08:32:51.013Z</time></trkpt><trkpt lat="43.3627779" lon="12.8316403"><ele>422.5</ele><time>2026-04-19T08:32:52.01Z</time></trkpt><trkpt lat="43.3625488" lon="12.8314931"><ele>425.0</ele><time>2026-04-19T08:32:53.014Z</time></trkpt><trkpt lat="43.3623338" lon="12.8313252"><ele>428.5</ele><time>2026-04-19T08:32:54.016Z</time></trkpt><trkpt lat="43.3621161" lon="12.831154"><ele>432.0</ele><time>2026-04-19T08:32:55.018Z</time></trkpt><trkpt lat="43.3618731" lon="12.830976"><ele>432.5</ele><time>2026-04-19T08:32:56.021Z</time></trkpt><trkpt lat="43.361628" lon="12.8307943"><ele>433.0</ele><time>2026-04-19T08:32:57.018Z</time></trkpt><trkpt lat="43.3614008" lon="12.8306302"><ele>435.33333333333337</ele><time>2026-04-19T08:32:58.012Z</time></trkpt><trkpt lat="43.3611899" lon="12.8304966"><ele>437.66666666666663</ele><time>2026-04-19T08:32:59.026Z</time></trkpt><trkpt lat="43.3609932" lon="12.8304019"><ele>440.0</ele><time>2026-04-19T08:33:00.02Z</time></trkpt><trkpt lat="43.3607923" lon="12.8303804"><ele>440.0</ele><time>2026-04-19T08:33:01.021Z</time></trkpt><trkpt lat="43.3606034" lon="12.8304115"><ele>440.0</ele><time>2026-04-19T08:33:02.018Z</time></trkpt><trkpt lat="43.3604106" lon="12.8305189"><ele>440.0</ele><time>2026-04-19T08:33:03.018Z</time></trkpt><trkpt lat="43.3602302" lon="12.8306906"><ele>440.0</ele><time>2026-04-19T08:33:04.015Z</time></trkpt><trkpt lat="43.3600594" lon="12.8309332"><ele>440.0</ele><time>2026-04-19T08:33:05.017Z</time></trkpt><trkpt lat="43.359909" lon="12.8312489"><ele>437.5</ele><time>2026-04-19T08:33:06.013Z</time></trkpt><trkpt lat="43.3597748" lon="12.8315681"><ele>435.0</ele><time>2026-04-19T08:33:07.011Z</time></trkpt><trkpt lat="43.3596377" lon="12.8318679"><ele>432.0</ele><time>2026-04-19T08:33:08.012Z</time></trkpt><trkpt lat="43.3594982" lon="12.8321227"><ele>429.0</ele><time>2026-04-19T08:33:09.014Z</time></trkpt><trkpt lat="43.3593584" lon="12.8323455"><ele>426.0</ele><time>2026-04-19T08:33:10.015Z</time></trkpt><trkpt lat="43.3591999" lon="12.8325141"><ele>426.0</ele><time>2026-04-19T08:33:11.018Z</time></trkpt><trkpt lat="43.3590188" lon="12.8326153"><ele>426.0</ele><time>2026-04-19T08:33:12.025Z</time></trkpt><trkpt lat="43.3588264" lon="12.8326228"><ele>426.0</ele><time>2026-04-19T08:33:13.016Z</time></trkpt><trkpt lat="43.3586306" lon="12.8325366"><ele>425.33333333333337</ele><time>2026-04-19T08:33:14.014Z</time></trkpt><trkpt lat="43.3584443" lon="12.8323822"><ele>424.6666666666667</ele><time>2026-04-19T08:33:15.014Z</time></trkpt><trkpt lat="43.3582716" lon="12.832171"><ele>424.0</ele><time>2026-04-19T08:33:16.015Z</time></trkpt><trkpt lat="43.3580981" lon="12.8319426"><ele>420.5</ele><time>2026-04-19T08:33:17.013Z</time></trkpt><trkpt lat="43.3579008" lon="12.8316894"><ele>417.0</ele><time>2026-04-19T08:33:18.023Z</time></trkpt><trkpt lat="43.3576875" lon="12.8314395"><ele>417.0</ele><time>2026-04-19T08:33:19.008Z</time></trkpt><trkpt lat="43.357468" lon="12.8311903"><ele>417.0</ele><time>2026-04-19T08:33:20.003Z</time></trkpt><trkpt lat="43.3572532" lon="12.8309407"><ele>417.0</ele><time>2026-04-19T08:33:21.014Z</time></trkpt><trkpt lat="43.3570364" lon="12.8306885"><ele>417.0</ele><time>2026-04-19T08:33:22.016Z</time></trkpt><trkpt lat="43.3568242" lon="12.8304322"><ele>417.0</ele><time>2026-04-19T08:33:23.019Z</time></trkpt><trkpt lat="43.3566137" lon="12.8301868"><ele>417.0</ele><time>2026-04-19T08:33:24.008Z</time></trkpt><trkpt lat="43.3564065" lon="12.8299506"><ele>417.5</ele><time>2026-04-19T08:33:25.01Z</time></trkpt><trkpt lat="43.3562007" lon="12.8297232"><ele>418.0</ele><time>2026-04-19T08:33:26.008Z</time></trkpt><trkpt lat="43.356005" lon="12.8294916"><ele>418.0</ele><time>2026-04-19T08:33:27.01Z</time></trkpt><trkpt lat="43.355797" lon="12.8292639"><ele>418.0</ele><time>2026-04-19T08:33:28.004Z</time></trkpt><trkpt lat="43.3556156" lon="12.8290428"><ele>415.0</ele><time>2026-04-19T08:33:29Z</time></trkpt><trkpt lat="43.3554398" lon="12.8288148"><ele>412.0</ele><time>2026-04-19T08:33:29.993Z</time></trkpt><trkpt lat="43.3552602" lon="12.8286256"><ele>411.0</ele><time>2026-04-19T08:33:31Z</time></trkpt><trkpt lat="43.3551132" lon="12.8284659"><ele>410.0</ele><time>2026-04-19T08:33:32.005Z</time></trkpt><trkpt lat="43.3549681" lon="12.8283473"><ele>409.0</ele><time>2026-04-19T08:33:33.007Z</time></trkpt><trkpt lat="43.3548225" lon="12.8282415"><ele>408.0</ele><time>2026-04-19T08:33:34.013Z</time></trkpt><trkpt lat="43.354678" lon="12.8281466"><ele>407.0</ele><time>2026-04-19T08:33:35.01Z</time></trkpt><trkpt lat="43.3545377" lon="12.8280631"><ele>406.0</ele><time>2026-04-19T08:33:36.008Z</time></trkpt><trkpt lat="43.3543647" lon="12.8280029"><ele>406.0</ele><time>2026-04-19T08:33:37.006Z</time></trkpt><trkpt lat="43.3541634" lon="12.8279417"><ele>406.0</ele><time>2026-04-19T08:33:38.004Z</time></trkpt><trkpt lat="43.3539508" lon="12.8278657"><ele>406.0</ele><time>2026-04-19T08:33:39.011Z</time></trkpt><trkpt lat="43.3537403" lon="12.8278009"><ele>403.0</ele><time>2026-04-19T08:33:40.008Z</time></trkpt><trkpt lat="43.3535221" lon="12.8277393"><ele>400.0</ele><time>2026-04-19T08:33:41.007Z</time></trkpt><trkpt lat="43.3532852" lon="12.8276474"><ele>400.0</ele><time>2026-04-19T08:33:42.012Z</time></trkpt><trkpt lat="43.3530672" lon="12.8275528"><ele>400.0</ele><time>2026-04-19T08:33:43.014Z</time></trkpt><trkpt lat="43.3528554" lon="12.8274693"><ele>400.0</ele><time>2026-04-19T08:33:44.015Z</time></trkpt><trkpt lat="43.3526452" lon="12.8273896"><ele>399.33333333333337</ele><time>2026-04-19T08:33:45.014Z</time></trkpt><trkpt lat="43.3524364" lon="12.8273161"><ele>398.66666666666663</ele><time>2026-04-19T08:33:46.016Z</time></trkpt><trkpt lat="43.352233" lon="12.827233"><ele>398.0</ele><time>2026-04-19T08:33:47.01Z</time></trkpt><trkpt lat="43.3520601" lon="12.8271379"><ele>396.66666666666663</ele><time>2026-04-19T08:33:48.002Z</time></trkpt><trkpt lat="43.3518926" lon="12.8270894"><ele>395.33333333333337</ele><time>2026-04-19T08:33:49.031Z</time></trkpt><trkpt lat="43.3517308" lon="12.8270865"><ele>394.0</ele><time>2026-04-19T08:33:50.018Z</time></trkpt><trkpt lat="43.3515743" lon="12.8271172"><ele>394.0</ele><time>2026-04-19T08:33:51.023Z</time></trkpt><trkpt lat="43.3514109" lon="12.8271835"><ele>394.0</ele><time>2026-04-19T08:33:52.019Z</time></trkpt><trkpt lat="43.351264" lon="12.8272814"><ele>394.0</ele><time>2026-04-19T08:33:53.017Z</time></trkpt><trkpt lat="43.3511243" lon="12.8274408"><ele>393.6666666666667</ele><time>2026-04-19T08:33:54.009Z</time></trkpt><trkpt lat="43.3509989" lon="12.8276368"><ele>393.33333333333337</ele><time>2026-04-19T08:33:55.016Z</time></trkpt><trkpt lat="43.3509182" lon="12.8278839"><ele>393.0</ele><time>2026-04-19T08:33:56.012Z</time></trkpt><trkpt lat="43.3508363" lon="12.8281423"><ele>393.0</ele><time>2026-04-19T08:33:57.02Z</time></trkpt><trkpt lat="43.3508038" lon="12.828432"><ele>393.0</ele><time>2026-04-19T08:33:58.013Z</time></trkpt><trkpt lat="43.3507979" lon="12.8287472"><ele>393.0</ele><time>2026-04-19T08:33:59.014Z</time></trkpt><trkpt lat="43.3507558" lon="12.8290624"><ele>391.0</ele><time>2026-04-19T08:34:00.014Z</time></trkpt><trkpt lat="43.3506954" lon="12.8293759"><ele>389.0</ele><time>2026-04-19T08:34:01.014Z</time></trkpt><trkpt lat="43.3506351" lon="12.8296812"><ele>389.0</ele><time>2026-04-19T08:34:02.015Z</time></trkpt><trkpt lat="43.3505911" lon="12.8299674"><ele>389.0</ele><time>2026-04-19T08:34:03.012Z</time></trkpt><trkpt lat="43.3505449" lon="12.8302386"><ele>389.0</ele><time>2026-04-19T08:34:04.014Z</time></trkpt><trkpt lat="43.3505055" lon="12.8304943"><ele>391.66666666666663</ele><time>2026-04-19T08:34:05.017Z</time></trkpt><trkpt lat="43.3504539" lon="12.8307476"><ele>394.33333333333337</ele><time>2026-04-19T08:34:06.012Z</time></trkpt><trkpt lat="43.3504227" lon="12.8310012"><ele>397.0</ele><time>2026-04-19T08:34:07.021Z</time></trkpt><trkpt lat="43.3503925" lon="12.83126"><ele>397.0</ele><time>2026-04-19T08:34:08.016Z</time></trkpt><trkpt lat="43.3503589" lon="12.831521"><ele>397.0</ele><time>2026-04-19T08:34:09.015Z</time></trkpt><trkpt lat="43.3503224" lon="12.8317959"><ele>397.0</ele><time>2026-04-19T08:34:10.021Z</time></trkpt><trkpt lat="43.3502835" lon="12.8320671"><ele>394.0</ele><time>2026-04-19T08:34:11.02Z</time></trkpt><trkpt lat="43.3502426" lon="12.8323297"><ele>391.0</ele><time>2026-04-19T08:34:12.021Z</time></trkpt><trkpt lat="43.3502007" lon="12.8325832"><ele>388.0</ele><time>2026-04-19T08:34:13.017Z</time></trkpt><trkpt lat="43.3501635" lon="12.8328134"><ele>387.0</ele><time>2026-04-19T08:34:14.019Z</time></trkpt><trkpt lat="43.35013" lon="12.8330228"><ele>386.0</ele><time>2026-04-19T08:34:15.017Z</time></trkpt><trkpt lat="43.3500956" lon="12.8332244"><ele>385.0</ele><time>2026-04-19T08:34:16.021Z</time></trkpt><trkpt lat="43.3500758" lon="12.8334221"><ele>383.75</ele><time>2026-04-19T08:34:17.019Z</time></trkpt><trkpt lat="43.3500551" lon="12.8336089"><ele>382.5</ele><time>2026-04-19T08:34:18.016Z</time></trkpt><trkpt lat="43.3500347" lon="12.833795"><ele>381.25</ele><time>2026-04-19T08:34:19.017Z</time></trkpt><trkpt lat="43.3500077" lon="12.8339781"><ele>380.0</ele><time>2026-04-19T08:34:20.032Z</time></trkpt><trkpt lat="43.3499814" lon="12.8341626"><ele>379.75</ele><time>2026-04-19T08:34:21.021Z</time></trkpt><trkpt lat="43.3499563" lon="12.8343293"><ele>379.5</ele><time>2026-04-19T08:34:22.019Z</time></trkpt><trkpt lat="43.3499294" lon="12.8345096"><ele>379.25</ele><time>2026-04-19T08:34:23.017Z</time></trkpt><trkpt lat="43.3498947" lon="12.8347116"><ele>379.0</ele><time>2026-04-19T08:34:24.018Z</time></trkpt><trkpt lat="43.349859" lon="12.8349295"><ele>378.0</ele><time>2026-04-19T08:34:25.017Z</time></trkpt><trkpt lat="43.3498212" lon="12.8351552"><ele>377.0</ele><time>2026-04-19T08:34:26.022Z</time></trkpt><trkpt lat="43.3497821" lon="12.8353821"><ele>376.0</ele><time>2026-04-19T08:34:27.019Z</time></trkpt><trkpt lat="43.3497509" lon="12.8355906"><ele>376.0</ele><time>2026-04-19T08:34:28.019Z</time></trkpt><trkpt lat="43.3497147" lon="12.8357826"><ele>376.0</ele><time>2026-04-19T08:34:29.019Z</time></trkpt><trkpt lat="43.3496778" lon="12.8359786"><ele>376.0</ele><time>2026-04-19T08:34:30.013Z</time></trkpt><trkpt lat="43.3496273" lon="12.8361692"><ele>376.0</ele><time>2026-04-19T08:34:31.014Z</time></trkpt><trkpt lat="43.3495586" lon="12.8363523"><ele>376.5</ele><time>2026-04-19T08:34:32.014Z</time></trkpt><trkpt lat="43.3494881" lon="12.8365273"><ele>377.0</ele><time>2026-04-19T08:34:33.015Z</time></trkpt><trkpt lat="43.3494163" lon="12.8367048"><ele>377.5</ele><time>2026-04-19T08:34:34.009Z</time></trkpt><trkpt lat="43.3493293" lon="12.8368753"><ele>378.0</ele><time>2026-04-19T08:34:35.015Z</time></trkpt><trkpt lat="43.3492443" lon="12.8370379"><ele>377.0</ele><time>2026-04-19T08:34:36.014Z</time></trkpt><trkpt lat="43.349149" lon="12.8371844"><ele>376.0</ele><time>2026-04-19T08:34:37.016Z</time></trkpt><trkpt lat="43.3490466" lon="12.8373323"><ele>375.0</ele><time>2026-04-19T08:34:38.012Z</time></trkpt><trkpt lat="43.3489396" lon="12.8374657"><ele>374.0</ele><time>2026-04-19T08:34:39.014Z</time></trkpt><trkpt lat="43.3488207" lon="12.8375899"><ele>374.0</ele><time>2026-04-19T08:34:40.017Z</time></trkpt><trkpt lat="43.3487103" lon="12.837722"><ele>374.0</ele><time>2026-04-19T08:34:41.012Z</time></trkpt><trkpt lat="43.3485976" lon="12.8378442"><ele>374.0</ele><time>2026-04-19T08:34:42.016Z</time></trkpt><trkpt lat="43.3484983" lon="12.8379794"><ele>374.0</ele><time>2026-04-19T08:34:43.01Z</time></trkpt><trkpt lat="43.3483915" lon="12.8381008"><ele>374.0</ele><time>2026-04-19T08:34:44.006Z</time></trkpt><trkpt lat="43.3482844" lon="12.8382189"><ele>374.0</ele><time>2026-04-19T08:34:45.01Z</time></trkpt><trkpt lat="43.3481852" lon="12.838335"><ele>374.0</ele><time>2026-04-19T08:34:46.012Z</time></trkpt><trkpt lat="43.3480893" lon="12.8384427"><ele>374.0</ele><time>2026-04-19T08:34:47.009Z</time></trkpt><trkpt lat="43.3479936" lon="12.8385563"><ele>373.0</ele><time>2026-04-19T08:34:48.01Z</time></trkpt><trkpt lat="43.3478953" lon="12.8386657"><ele>372.0</ele><time>2026-04-19T08:34:49.012Z</time></trkpt><trkpt lat="43.3478048" lon="12.8387835"><ele>371.0</ele><time>2026-04-19T08:34:50.015Z</time></trkpt><trkpt lat="43.3477108" lon="12.8389048"><ele>370.0</ele><time>2026-04-19T08:34:51.023Z</time></trkpt><trkpt lat="43.3476101" lon="12.8390292"><ele>370.0</ele><time>2026-04-19T08:34:52.012Z</time></trkpt><trkpt lat="43.3475134" lon="12.8391478"><ele>370.0</ele><time>2026-04-19T08:34:53.01Z</time></trkpt><trkpt lat="43.3474155" lon="12.8392715"><ele>370.0</ele><time>2026-04-19T08:34:54.007Z</time></trkpt><trkpt lat="43.3473243" lon="12.8394056"><ele>370.0</ele><time>2026-04-19T08:34:55.007Z</time></trkpt><trkpt lat="43.3472387" lon="12.8395497"><ele>369.3333333333333</ele><time>2026-04-19T08:34:56.015Z</time></trkpt><trkpt lat="43.3471656" lon="12.8397235"><ele>368.6666666666667</ele><time>2026-04-19T08:34:57.019Z</time></trkpt><trkpt lat="43.3471353" lon="12.8399292"><ele>368.0</ele><time>2026-04-19T08:34:58.014Z</time></trkpt><trkpt lat="43.3471281" lon="12.8401501"><ele>368.0</ele><time>2026-04-19T08:34:59.019Z</time></trkpt><trkpt lat="43.34712" lon="12.8403802"><ele>368.0</ele><time>2026-04-19T08:35:00.008Z</time></trkpt><trkpt lat="43.3471234" lon="12.8406132"><ele>368.0</ele><time>2026-04-19T08:35:01.014Z</time></trkpt><trkpt lat="43.3471305" lon="12.8408412"><ele>367.33333333333337</ele><time>2026-04-19T08:35:02.014Z</time></trkpt><trkpt lat="43.3471372" lon="12.841063"><ele>366.6666666666667</ele><time>2026-04-19T08:35:03.009Z</time></trkpt><trkpt lat="43.3471443" lon="12.8412866"><ele>366.0</ele><time>2026-04-19T08:35:04.009Z</time></trkpt><trkpt lat="43.3471488" lon="12.8415074"><ele>366.0</ele><time>2026-04-19T08:35:05.013Z</time></trkpt><trkpt lat="43.3471594" lon="12.8417199"><ele>366.0</ele><time>2026-04-19T08:35:06.014Z</time></trkpt><trkpt lat="43.3471715" lon="12.8419358"><ele>366.0</ele><time>2026-04-19T08:35:07.015Z</time></trkpt><trkpt lat="43.3471788" lon="12.842167"><ele>366.0</ele><time>2026-04-19T08:35:08.017Z</time></trkpt><trkpt lat="43.3471863" lon="12.8424007"><ele>366.0</ele><time>2026-04-19T08:35:09.013Z</time></trkpt><trkpt lat="43.3471891" lon="12.8426393"><ele>366.0</ele><time>2026-04-19T08:35:10.012Z</time></trkpt><trkpt lat="43.3472036" lon="12.8428752"><ele>364.6666666666667</ele><time>2026-04-19T08:35:11.011Z</time></trkpt><trkpt lat="43.3472107" lon="12.8431054"><ele>363.33333333333337</ele><time>2026-04-19T08:35:12.016Z</time></trkpt><trkpt lat="43.3472194" lon="12.8433427"><ele>362.0</ele><time>2026-04-19T08:35:13.011Z</time></trkpt><trkpt lat="43.3472166" lon="12.8435836"><ele>361.6666666666667</ele><time>2026-04-19T08:35:14.009Z</time></trkpt><trkpt lat="43.3472023" lon="12.8438294"><ele>361.3333333333333</ele><time>2026-04-19T08:35:15.014Z</time></trkpt><trkpt lat="43.3471665" lon="12.8440619"><ele>361.0</ele><time>2026-04-19T08:35:16.013Z</time></trkpt><trkpt lat="43.3471136" lon="12.8443062"><ele>361.0</ele><time>2026-04-19T08:35:17.008Z</time></trkpt><trkpt lat="43.3470402" lon="12.8445378"><ele>361.0</ele><time>2026-04-19T08:35:18.017Z</time></trkpt><trkpt lat="43.3469518" lon="12.8447689"><ele>361.0</ele><time>2026-04-19T08:35:19.008Z</time></trkpt><trkpt lat="43.3468716" lon="12.8449741"><ele>361.0</ele><time>2026-04-19T08:35:19.999Z</time></trkpt><trkpt lat="43.3467715" lon="12.8451604"><ele>361.0</ele><time>2026-04-19T08:35:21.02Z</time></trkpt><trkpt lat="43.3466778" lon="12.8453417"><ele>361.0</ele><time>2026-04-19T08:35:22.027Z</time></trkpt><trkpt lat="43.3465876" lon="12.8455287"><ele>361.0</ele><time>2026-04-19T08:35:23.01Z</time></trkpt><trkpt lat="43.3464886" lon="12.8457098"><ele>361.0</ele><time>2026-04-19T08:35:24.015Z</time></trkpt><trkpt lat="43.3463888" lon="12.8459054"><ele>361.0</ele><time>2026-04-19T08:35:25.012Z</time></trkpt><trkpt lat="43.3462978" lon="12.8461019"><ele>361.0</ele><time>2026-04-19T08:35:26.01Z</time></trkpt><trkpt lat="43.3462139" lon="12.8462818"><ele>361.0</ele><time>2026-04-19T08:35:27.01Z</time></trkpt><trkpt lat="43.3461277" lon="12.8464506"><ele>361.0</ele><time>2026-04-19T08:35:28.005Z</time></trkpt><trkpt lat="43.3460287" lon="12.8466216"><ele>361.0</ele><time>2026-04-19T08:35:28.998Z</time></trkpt><trkpt lat="43.3459428" lon="12.846793"><ele>361.0</ele><time>2026-04-19T08:35:30.003Z</time></trkpt><trkpt lat="43.345868" lon="12.8469684"><ele>361.0</ele><time>2026-04-19T08:35:31.01Z</time></trkpt><trkpt lat="43.3457904" lon="12.8471441"><ele>361.0</ele><time>2026-04-19T08:35:32.012Z</time></trkpt><trkpt lat="43.3457108" lon="12.8473127"><ele>360.75</ele><time>2026-04-19T08:35:33.011Z</time></trkpt><trkpt lat="43.3456261" lon="12.8474801"><ele>360.5</ele><time>2026-04-19T08:35:34.014Z</time></trkpt><trkpt lat="43.3455509" lon="12.8476411"><ele>360.25</ele><time>2026-04-19T08:35:35.009Z</time></trkpt><trkpt lat="43.345482" lon="12.8478061"><ele>360.0</ele><time>2026-04-19T08:35:36.013Z</time></trkpt><trkpt lat="43.3454293" lon="12.8479404"><ele>359.3333333333333</ele><time>2026-04-19T08:35:37.007Z</time></trkpt><trkpt lat="43.3453825" lon="12.8480607"><ele>358.6666666666667</ele><time>2026-04-19T08:35:38.012Z</time></trkpt><trkpt lat="43.3453537" lon="12.8481815"><ele>358.0</ele><time>2026-04-19T08:35:39.007Z</time></trkpt><trkpt lat="43.3453471" lon="12.8482789"><ele>357.33333333333337</ele><time>2026-04-19T08:35:40.013Z</time></trkpt><trkpt lat="43.3453774" lon="12.8483789"><ele>356.6666666666667</ele><time>2026-04-19T08:35:41.012Z</time></trkpt><trkpt lat="43.3454186" lon="12.8484754"><ele>356.0</ele><time>2026-04-19T08:35:42.01Z</time></trkpt><trkpt lat="43.3454525" lon="12.8485707"><ele>356.0</ele><time>2026-04-19T08:35:43.008Z</time></trkpt><trkpt lat="43.3454904" lon="12.8486684"><ele>356.0</ele><time>2026-04-19T08:35:44.008Z</time></trkpt><trkpt lat="43.3455216" lon="12.8487789"><ele>356.0</ele><time>2026-04-19T08:35:45.011Z</time></trkpt><trkpt lat="43.3455379" lon="12.848927"><ele>356.0</ele><time>2026-04-19T08:35:46.015Z</time></trkpt><trkpt lat="43.3455129" lon="12.8491006"><ele>356.0</ele><time>2026-04-19T08:35:47.015Z</time></trkpt><trkpt lat="43.3454737" lon="12.8492929"><ele>355.33333333333337</ele><time>2026-04-19T08:35:48.009Z</time></trkpt><trkpt lat="43.3454343" lon="12.8494927"><ele>354.6666666666667</ele><time>2026-04-19T08:35:49.009Z</time></trkpt><trkpt lat="43.3454127" lon="12.8497124"><ele>354.0</ele><time>2026-04-19T08:35:50.014Z</time></trkpt><trkpt lat="43.3454205" lon="12.8499529"><ele>354.0</ele><time>2026-04-19T08:35:51.019Z</time></trkpt><trkpt lat="43.3454527" lon="12.8501952"><ele>354.0</ele><time>2026-04-19T08:35:52.008Z</time></trkpt><trkpt lat="43.3454901" lon="12.8504599"><ele>354.0</ele><time>2026-04-19T08:35:53.023Z</time></trkpt><trkpt lat="43.3455331" lon="12.850735"><ele>353.6666666666667</ele><time>2026-04-19T08:35:54.015Z</time></trkpt><trkpt lat="43.3455773" lon="12.8510165"><ele>353.33333333333337</ele><time>2026-04-19T08:35:55.014Z</time></trkpt><trkpt lat="43.3456296" lon="12.8513028"><ele>353.0</ele><time>2026-04-19T08:35:56.015Z</time></trkpt><trkpt lat="43.3456772" lon="12.8516011"><ele>352.33333333333337</ele><time>2026-04-19T08:35:57.014Z</time></trkpt><trkpt lat="43.3457245" lon="12.8519016"><ele>351.6666666666667</ele><time>2026-04-19T08:35:58.012Z</time></trkpt><trkpt lat="43.3457746" lon="12.8522031"><ele>351.0</ele><time>2026-04-19T08:35:59.015Z</time></trkpt><trkpt lat="43.3458282" lon="12.8525091"><ele>351.0</ele><time>2026-04-19T08:36:00.012Z</time></trkpt><trkpt lat="43.3458834" lon="12.8528111"><ele>351.0</ele><time>2026-04-19T08:36:01.011Z</time></trkpt><trkpt lat="43.345932" lon="12.8531288"><ele>351.0</ele><time>2026-04-19T08:36:02.01Z</time></trkpt><trkpt lat="43.3459924" lon="12.8534427"><ele>351.0</ele><time>2026-04-19T08:36:03.008Z</time></trkpt><trkpt lat="43.346039" lon="12.8537624"><ele>350.5</ele><time>2026-04-19T08:36:04.009Z</time></trkpt><trkpt lat="43.3460972" lon="12.8540739"><ele>350.0</ele><time>2026-04-19T08:36:05.009Z</time></trkpt><trkpt lat="43.3461515" lon="12.8543892"><ele>351.0</ele><time>2026-04-19T08:36:06.009Z</time></trkpt><trkpt lat="43.3462019" lon="12.8547002"><ele>352.0</ele><time>2026-04-19T08:36:07.01Z</time></trkpt><trkpt lat="43.3462555" lon="12.8550114"><ele>351.0</ele><time>2026-04-19T08:36:08.01Z</time></trkpt><trkpt lat="43.3463034" lon="12.8553102"><ele>350.0</ele><time>2026-04-19T08:36:09.009Z</time></trkpt><trkpt lat="43.3463377" lon="12.855593"><ele>349.0</ele><time>2026-04-19T08:36:10.015Z</time></trkpt><trkpt lat="43.346342" lon="12.8558668"><ele>348.66666666666663</ele><time>2026-04-19T08:36:11.014Z</time></trkpt><trkpt lat="43.3462971" lon="12.8561514"><ele>348.3333333333333</ele><time>2026-04-19T08:36:12.017Z</time></trkpt><trkpt lat="43.3462227" lon="12.8564482"><ele>348.0</ele><time>2026-04-19T08:36:13.011Z</time></trkpt><trkpt lat="43.3461587" lon="12.8567435"><ele>348.0</ele><time>2026-04-19T08:36:14.007Z</time></trkpt><trkpt lat="43.3460958" lon="12.8570505"><ele>348.0</ele><time>2026-04-19T08:36:15.011Z</time></trkpt><trkpt lat="43.3460298" lon="12.857374"><ele>348.5</ele><time>2026-04-19T08:36:16.011Z</time></trkpt><trkpt lat="43.3459584" lon="12.8576878"><ele>349.0</ele><time>2026-04-19T08:36:17.014Z</time></trkpt><trkpt lat="43.3458853" lon="12.8580107"><ele>349.0</ele><time>2026-04-19T08:36:18.007Z</time></trkpt><trkpt lat="43.345834" lon="12.8583044"><ele>349.0</ele><time>2026-04-19T08:36:19.012Z</time></trkpt><trkpt lat="43.345785" lon="12.8585892"><ele>349.0</ele><time>2026-04-19T08:36:20.012Z</time></trkpt><trkpt lat="43.3457337" lon="12.858859"><ele>348.0</ele><time>2026-04-19T08:36:21.01Z</time></trkpt><trkpt lat="43.3456921" lon="12.8591039"><ele>347.0</ele><time>2026-04-19T08:36:22.014Z</time></trkpt><trkpt lat="43.3456486" lon="12.8593319"><ele>346.0</ele><time>2026-04-19T08:36:23.008Z</time></trkpt><trkpt lat="43.3455995" lon="12.8595547"><ele>346.0</ele><time>2026-04-19T08:36:24.03Z</time></trkpt><trkpt lat="43.3455554" lon="12.859764"><ele>346.0</ele><time>2026-04-19T08:36:25.016Z</time></trkpt><trkpt lat="43.3455146" lon="12.8599681"><ele>346.0</ele><time>2026-04-19T08:36:26.023Z</time></trkpt><trkpt lat="43.3454698" lon="12.8601799"><ele>346.0</ele><time>2026-04-19T08:36:27.023Z</time></trkpt><trkpt lat="43.3454285" lon="12.8604028"><ele>346.0</ele><time>2026-04-19T08:36:28.024Z</time></trkpt><trkpt lat="43.3453951" lon="12.860626"><ele>346.0</ele><time>2026-04-19T08:36:29.027Z</time></trkpt><trkpt lat="43.3453679" lon="12.8608667"><ele>346.66666666666663</ele><time>2026-04-19T08:36:30.022Z</time></trkpt><trkpt lat="43.3453537" lon="12.8611102"><ele>347.3333333333333</ele><time>2026-04-19T08:36:31.025Z</time></trkpt><trkpt lat="43.3453345" lon="12.8613572"><ele>348.0</ele><time>2026-04-19T08:36:32.02Z</time></trkpt><trkpt lat="43.3453155" lon="12.8615943"><ele>347.3333333333333</ele><time>2026-04-19T08:36:33.022Z</time></trkpt><trkpt lat="43.3452932" lon="12.861828"><ele>346.66666666666663</ele><time>2026-04-19T08:36:34.023Z</time></trkpt><trkpt lat="43.345273" lon="12.8620599"><ele>346.0</ele><time>2026-04-19T08:36:35.021Z</time></trkpt><trkpt lat="43.3452527" lon="12.8622933"><ele>346.0</ele><time>2026-04-19T08:36:36.022Z</time></trkpt><trkpt lat="43.3452213" lon="12.8625346"><ele>346.0</ele><time>2026-04-19T08:36:37.03Z</time></trkpt><trkpt lat="43.3451978" lon="12.8627901"><ele>346.0</ele><time>2026-04-19T08:36:38.025Z</time></trkpt><trkpt lat="43.3451865" lon="12.8630361"><ele>346.0</ele><time>2026-04-19T08:36:39.025Z</time></trkpt><trkpt lat="43.3451653" lon="12.8632722"><ele>346.0</ele><time>2026-04-19T08:36:40.024Z</time></trkpt><trkpt lat="43.3451498" lon="12.8634931"><ele>346.0</ele><time>2026-04-19T08:36:41.024Z</time></trkpt><trkpt lat="43.3451406" lon="12.8637006"><ele>345.5</ele><time>2026-04-19T08:36:42.029Z</time></trkpt><trkpt lat="43.3451279" lon="12.8638918"><ele>345.0</ele><time>2026-04-19T08:36:43.021Z</time></trkpt><trkpt lat="43.3451258" lon="12.864093"><ele>344.5</ele><time>2026-04-19T08:36:44.028Z</time></trkpt><trkpt lat="43.3451329" lon="12.8642845"><ele>344.0</ele><time>2026-04-19T08:36:45.023Z</time></trkpt><trkpt lat="43.3451567" lon="12.864454"><ele>344.0</ele><time>2026-04-19T08:36:46.029Z</time></trkpt><trkpt lat="43.345183" lon="12.8646095"><ele>344.0</ele><time>2026-04-19T08:36:47.019Z</time></trkpt><trkpt lat="43.3452092" lon="12.8647827"><ele>344.0</ele><time>2026-04-19T08:36:48.035Z</time></trkpt><trkpt lat="43.3452443" lon="12.8649604"><ele>344.0</ele><time>2026-04-19T08:36:49.019Z</time></trkpt><trkpt lat="43.3452864" lon="12.8651569"><ele>344.0</ele><time>2026-04-19T08:36:50.027Z</time></trkpt><trkpt lat="43.3453247" lon="12.8653776"><ele>344.0</ele><time>2026-04-19T08:36:51.033Z</time></trkpt><trkpt lat="43.3453569" lon="12.8656118"><ele>344.0</ele><time>2026-04-19T08:36:52.023Z</time></trkpt><trkpt lat="43.3453835" lon="12.8658419"><ele>343.6666666666667</ele><time>2026-04-19T08:36:53.022Z</time></trkpt><trkpt lat="43.3454048" lon="12.8660832"><ele>343.3333333333333</ele><time>2026-04-19T08:36:54.023Z</time></trkpt><trkpt lat="43.3454325" lon="12.8663312"><ele>343.0</ele><time>2026-04-19T08:36:55.035Z</time></trkpt><trkpt lat="43.34547" lon="12.8665839"><ele>343.0</ele><time>2026-04-19T08:36:56.024Z</time></trkpt><trkpt lat="43.3455072" lon="12.8668265"><ele>343.0</ele><time>2026-04-19T08:36:57.025Z</time></trkpt><trkpt lat="43.3455377" lon="12.8670684"><ele>343.0</ele><time>2026-04-19T08:36:58.026Z</time></trkpt><trkpt lat="43.3455757" lon="12.8673239"><ele>342.0</ele><time>2026-04-19T08:36:59.031Z</time></trkpt><trkpt lat="43.3456076" lon="12.8675838"><ele>341.0</ele><time>2026-04-19T08:37:00.025Z</time></trkpt><trkpt lat="43.345644" lon="12.8678364"><ele>340.0</ele><time>2026-04-19T08:37:01.026Z</time></trkpt><trkpt lat="43.3456822" lon="12.8680917"><ele>339.66666666666663</ele><time>2026-04-19T08:37:02.025Z</time></trkpt><trkpt lat="43.3457223" lon="12.8683493"><ele>339.3333333333333</ele><time>2026-04-19T08:37:03.027Z</time></trkpt><trkpt lat="43.345761" lon="12.8686021"><ele>339.0</ele><time>2026-04-19T08:37:04.025Z</time></trkpt><trkpt lat="43.3458011" lon="12.868866"><ele>338.6666666666667</ele><time>2026-04-19T08:37:05.029Z</time></trkpt><trkpt lat="43.3458348" lon="12.8691196"><ele>338.33333333333337</ele><time>2026-04-19T08:37:06.025Z</time></trkpt><trkpt lat="43.345872" lon="12.8693758"><ele>338.0</ele><time>2026-04-19T08:37:07.03Z</time></trkpt><trkpt lat="43.3459119" lon="12.8696307"><ele>338.0</ele><time>2026-04-19T08:37:08.029Z</time></trkpt><trkpt lat="43.3459501" lon="12.8698811"><ele>338.0</ele><time>2026-04-19T08:37:09.023Z</time></trkpt><trkpt lat="43.3459863" lon="12.8701272"><ele>338.0</ele><time>2026-04-19T08:37:10.024Z</time></trkpt><trkpt lat="43.3460184" lon="12.8703477"><ele>338.0</ele><time>2026-04-19T08:37:11.027Z</time></trkpt><trkpt lat="43.3460507" lon="12.8705573"><ele>338.0</ele><time>2026-04-19T08:37:12.025Z</time></trkpt><trkpt lat="43.3460739" lon="12.8707522"><ele>338.0</ele><time>2026-04-19T08:37:13.031Z</time></trkpt><trkpt lat="43.3461074" lon="12.8709394"><ele>338.0</ele><time>2026-04-19T08:37:14.021Z</time></trkpt><trkpt lat="43.3461394" lon="12.8711262"><ele>337.25</ele><time>2026-04-19T08:37:15.027Z</time></trkpt><trkpt lat="43.3461672" lon="12.871326"><ele>336.5</ele><time>2026-04-19T08:37:16.03Z</time></trkpt><trkpt lat="43.3461877" lon="12.871531"><ele>335.75</ele><time>2026-04-19T08:37:17.026Z</time></trkpt><trkpt lat="43.3462045" lon="12.8717349"><ele>335.0</ele><time>2026-04-19T08:37:18.027Z</time></trkpt><trkpt lat="43.3462137" lon="12.8719539"><ele>334.0</ele><time>2026-04-19T08:37:19.023Z</time></trkpt><trkpt lat="43.3462179" lon="12.8721899"><ele>333.0</ele><time>2026-04-19T08:37:20.024Z</time></trkpt><trkpt lat="43.3462096" lon="12.8724261"><ele>332.0</ele><time>2026-04-19T08:37:21.031Z</time></trkpt><trkpt lat="43.3461968" lon="12.8726652"><ele>331.6666666666667</ele><time>2026-04-19T08:37:22.028Z</time></trkpt><trkpt lat="43.3461886" lon="12.8729221"><ele>331.3333333333333</ele><time>2026-04-19T08:37:23.021Z</time></trkpt><trkpt lat="43.3461818" lon="12.8731836"><ele>331.0</ele><time>2026-04-19T08:37:24.023Z</time></trkpt><trkpt lat="43.3461715" lon="12.8734544"><ele>330.66666666666663</ele><time>2026-04-19T08:37:25.028Z</time></trkpt><trkpt lat="43.3461609" lon="12.8737251"><ele>330.3333333333333</ele><time>2026-04-19T08:37:26.043Z</time></trkpt><trkpt lat="43.3461371" lon="12.8740153"><ele>330.0</ele><time>2026-04-19T08:37:27.03Z</time></trkpt><trkpt lat="43.3461101" lon="12.8742941"><ele>329.3333333333333</ele><time>2026-04-19T08:37:28.03Z</time></trkpt><trkpt lat="43.3460753" lon="12.8745799"><ele>328.66666666666663</ele><time>2026-04-19T08:37:29.029Z</time></trkpt><trkpt lat="43.3460368" lon="12.8748633"><ele>328.0</ele><time>2026-04-19T08:37:30.028Z</time></trkpt><trkpt lat="43.3459868" lon="12.8751359"><ele>327.0</ele><time>2026-04-19T08:37:31.018Z</time></trkpt><trkpt lat="43.3459284" lon="12.8754055"><ele>326.0</ele><time>2026-04-19T08:37:32.021Z</time></trkpt><trkpt lat="43.345851" lon="12.8756692"><ele>325.0</ele><time>2026-04-19T08:37:33.024Z</time></trkpt><trkpt lat="43.3457659" lon="12.8759333"><ele>324.3333333333333</ele><time>2026-04-19T08:37:34.025Z</time></trkpt><trkpt lat="43.3456752" lon="12.8761825"><ele>323.6666666666667</ele><time>2026-04-19T08:37:35.035Z</time></trkpt><trkpt lat="43.3455839" lon="12.876428"><ele>323.0</ele><time>2026-04-19T08:37:36.029Z</time></trkpt><trkpt lat="43.3455007" lon="12.8766661"><ele>324.6666666666667</ele><time>2026-04-19T08:37:37.03Z</time></trkpt><trkpt lat="43.3454324" lon="12.8769157"><ele>326.3333333333333</ele><time>2026-04-19T08:37:38.021Z</time></trkpt><trkpt lat="43.3453826" lon="12.8771563"><ele>328.0</ele><time>2026-04-19T08:37:39.02Z</time></trkpt><trkpt lat="43.3453406" lon="12.8773973"><ele>327.66666666666663</ele><time>2026-04-19T08:37:40.024Z</time></trkpt><trkpt lat="43.3453046" lon="12.8776272"><ele>327.3333333333333</ele><time>2026-04-19T08:37:41.021Z</time></trkpt><trkpt lat="43.3452832" lon="12.8778381"><ele>327.0</ele><time>2026-04-19T08:37:42.024Z</time></trkpt><trkpt lat="43.3452716" lon="12.8780283"><ele>327.0</ele><time>2026-04-19T08:37:43.022Z</time></trkpt><trkpt lat="43.3452594" lon="12.8782135"><ele>327.0</ele><time>2026-04-19T08:37:44.023Z</time></trkpt><trkpt lat="43.345254" lon="12.8783819"><ele>327.0</ele><time>2026-04-19T08:37:45.025Z</time></trkpt><trkpt lat="43.3452471" lon="12.8785441"><ele>327.0</ele><time>2026-04-19T08:37:46.023Z</time></trkpt><trkpt lat="43.3452465" lon="12.8786965"><ele>326.75</ele><time>2026-04-19T08:37:47.035Z</time></trkpt><trkpt lat="43.3452483" lon="12.8788532"><ele>326.5</ele><time>2026-04-19T08:37:48.028Z</time></trkpt><trkpt lat="43.3452507" lon="12.8790143"><ele>326.25</ele><time>2026-04-19T08:37:49.029Z</time></trkpt><trkpt lat="43.3452524" lon="12.8791858"><ele>326.0</ele><time>2026-04-19T08:37:50.036Z</time></trkpt><trkpt lat="43.3452554" lon="12.8793643"><ele>326.0</ele><time>2026-04-19T08:37:51.035Z</time></trkpt><trkpt lat="43.345259" lon="12.8795581"><ele>326.0</ele><time>2026-04-19T08:37:52.033Z</time></trkpt><trkpt lat="43.3452581" lon="12.8797648"><ele>326.0</ele><time>2026-04-19T08:37:53.033Z</time></trkpt><trkpt lat="43.3452516" lon="12.8799695"><ele>326.0</ele><time>2026-04-19T08:37:54.031Z</time></trkpt><trkpt lat="43.3452399" lon="12.8801451"><ele>326.0</ele><time>2026-04-19T08:37:55.03Z</time></trkpt><trkpt lat="43.3452387" lon="12.8803094"><ele>326.0</ele><time>2026-04-19T08:37:56.023Z</time></trkpt><trkpt lat="43.3452337" lon="12.8804831"><ele>326.0</ele><time>2026-04-19T08:37:57.043Z</time></trkpt><trkpt lat="43.3452318" lon="12.8806764"><ele>326.0</ele><time>2026-04-19T08:37:58.029Z</time></trkpt><trkpt lat="43.3452304" lon="12.8808825"><ele>326.0</ele><time>2026-04-19T08:37:59.03Z</time></trkpt><trkpt lat="43.3452244" lon="12.8810993"><ele>326.0</ele><time>2026-04-19T08:38:00.025Z</time></trkpt><trkpt lat="43.3452152" lon="12.8813282"><ele>326.0</ele><time>2026-04-19T08:38:01.024Z</time></trkpt><trkpt lat="43.3452169" lon="12.8815538"><ele>326.0</ele><time>2026-04-19T08:38:02.021Z</time></trkpt><trkpt lat="43.3452186" lon="12.8817772"><ele>326.0</ele><time>2026-04-19T08:38:03.023Z</time></trkpt><trkpt lat="43.3452171" lon="12.8820048"><ele>326.0</ele><time>2026-04-19T08:38:04.024Z</time></trkpt><trkpt lat="43.3452145" lon="12.8822299"><ele>326.0</ele><time>2026-04-19T08:38:05.026Z</time></trkpt><trkpt lat="43.3452189" lon="12.882459"><ele>326.0</ele><time>2026-04-19T08:38:06.033Z</time></trkpt><trkpt lat="43.3452153" lon="12.8826862"><ele>326.0</ele><time>2026-04-19T08:38:07.032Z</time></trkpt><trkpt lat="43.3452152" lon="12.8829212"><ele>324.6666666666667</ele><time>2026-04-19T08:38:08.03Z</time></trkpt><trkpt lat="43.3452112" lon="12.8831688"><ele>323.3333333333333</ele><time>2026-04-19T08:38:09.031Z</time></trkpt><trkpt lat="43.3451963" lon="12.8834037"><ele>322.0</ele><time>2026-04-19T08:38:10.025Z</time></trkpt><trkpt lat="43.3451645" lon="12.8836525"><ele>321.3333333333333</ele><time>2026-04-19T08:38:11.026Z</time></trkpt><trkpt lat="43.3451189" lon="12.8838824"><ele>320.6666666666667</ele><time>2026-04-19T08:38:12.032Z</time></trkpt><trkpt lat="43.3450715" lon="12.8840806"><ele>320.0</ele><time>2026-04-19T08:38:13.029Z</time></trkpt><trkpt lat="43.3450249" lon="12.8842648"><ele>319.5</ele><time>2026-04-19T08:38:14.024Z</time></trkpt><trkpt lat="43.3449499" lon="12.884441"><ele>319.0</ele><time>2026-04-19T08:38:15.022Z</time></trkpt><trkpt lat="43.3448814" lon="12.8846136"><ele>318.5</ele><time>2026-04-19T08:38:16.025Z</time></trkpt><trkpt lat="43.3448169" lon="12.8847921"><ele>318.0</ele><time>2026-04-19T08:38:17.025Z</time></trkpt><trkpt lat="43.3447553" lon="12.8849894"><ele>318.6666666666667</ele><time>2026-04-19T08:38:18.021Z</time></trkpt><trkpt lat="43.3446852" lon="12.8851835"><ele>319.33333333333337</ele><time>2026-04-19T08:38:19.026Z</time></trkpt><trkpt lat="43.3446117" lon="12.8853857"><ele>320.0</ele><time>2026-04-19T08:38:20.018Z</time></trkpt><trkpt lat="43.3445573" lon="12.885612"><ele>320.0</ele><time>2026-04-19T08:38:21.03Z</time></trkpt><trkpt lat="43.3445113" lon="12.8858746"><ele>320.0</ele><time>2026-04-19T08:38:22.026Z</time></trkpt><trkpt lat="43.3444672" lon="12.886152"><ele>320.0</ele><time>2026-04-19T08:38:23.026Z</time></trkpt><trkpt lat="43.3444317" lon="12.8864139"><ele>319.0</ele><time>2026-04-19T08:38:24.024Z</time></trkpt><trkpt lat="43.3444072" lon="12.8866613"><ele>318.0</ele><time>2026-04-19T08:38:25.019Z</time></trkpt><trkpt lat="43.3443931" lon="12.8868827"><ele>317.0</ele><time>2026-04-19T08:38:26.02Z</time></trkpt><trkpt lat="43.3443806" lon="12.8871006"><ele>317.0</ele><time>2026-04-19T08:38:27.026Z</time></trkpt><trkpt lat="43.3443583" lon="12.8873333"><ele>317.0</ele><time>2026-04-19T08:38:28.036Z</time></trkpt><trkpt lat="43.3443008" lon="12.88755"><ele>317.0</ele><time>2026-04-19T08:38:29.023Z</time></trkpt><trkpt lat="43.3442381" lon="12.887759"><ele>318.0</ele><time>2026-04-19T08:38:30.022Z</time></trkpt><trkpt lat="43.3441637" lon="12.8879687"><ele>319.0</ele><time>2026-04-19T08:38:31.027Z</time></trkpt><trkpt lat="43.3440969" lon="12.8881622"><ele>320.0</ele><time>2026-04-19T08:38:32.025Z</time></trkpt><trkpt lat="43.3440258" lon="12.888366"><ele>320.33333333333337</ele><time>2026-04-19T08:38:33.029Z</time></trkpt><trkpt lat="43.3439551" lon="12.8885661"><ele>320.6666666666667</ele><time>2026-04-19T08:38:34.03Z</time></trkpt><trkpt lat="43.3438915" lon="12.8887601"><ele>321.0</ele><time>2026-04-19T08:38:35.028Z</time></trkpt><trkpt lat="43.3438242" lon="12.8889576"><ele>320.5</ele><time>2026-04-19T08:38:36.017Z</time></trkpt><trkpt lat="43.3437682" lon="12.8891382"><ele>320.0</ele><time>2026-04-19T08:38:37.025Z</time></trkpt><trkpt lat="43.3437147" lon="12.8893182"><ele>319.5</ele><time>2026-04-19T08:38:38.032Z</time></trkpt><trkpt lat="43.3436716" lon="12.8895172"><ele>319.0</ele><time>2026-04-19T08:38:39.031Z</time></trkpt><trkpt lat="43.3436421" lon="12.8897183"><ele>318.3333333333333</ele><time>2026-04-19T08:38:40.029Z</time></trkpt><trkpt lat="43.3436297" lon="12.8899254"><ele>317.6666666666667</ele><time>2026-04-19T08:38:41.021Z</time></trkpt><trkpt lat="43.343636" lon="12.8901234"><ele>317.0</ele><time>2026-04-19T08:38:42.025Z</time></trkpt><trkpt lat="43.3436347" lon="12.890364"><ele>316.6666666666667</ele><time>2026-04-19T08:38:43.022Z</time></trkpt><trkpt lat="43.3436394" lon="12.8906208"><ele>316.3333333333333</ele><time>2026-04-19T08:38:44.021Z</time></trkpt><trkpt lat="43.3436407" lon="12.8908616"><ele>316.0</ele><time>2026-04-19T08:38:45.022Z</time></trkpt><trkpt lat="43.3436448" lon="12.8910921"><ele>316.0</ele><time>2026-04-19T08:38:46.024Z</time></trkpt><trkpt lat="43.343633" lon="12.8913383"><ele>316.0</ele><time>2026-04-19T08:38:47.029Z</time></trkpt><trkpt lat="43.343629" lon="12.8915661"><ele>316.0</ele><time>2026-04-19T08:38:48.028Z</time></trkpt><trkpt lat="43.343632" lon="12.8917917"><ele>316.0</ele><time>2026-04-19T08:38:49.029Z</time></trkpt><trkpt lat="43.3436361" lon="12.8920131"><ele>316.0</ele><time>2026-04-19T08:38:50.035Z</time></trkpt><trkpt lat="43.3436382" lon="12.8922289"><ele>316.0</ele><time>2026-04-19T08:38:51.038Z</time></trkpt><trkpt lat="43.3436425" lon="12.8924369"><ele>316.0</ele><time>2026-04-19T08:38:52.027Z</time></trkpt><trkpt lat="43.3436383" lon="12.8926275"><ele>316.0</ele><time>2026-04-19T08:38:53.023Z</time></trkpt><trkpt lat="43.3436246" lon="12.8928019"><ele>316.0</ele><time>2026-04-19T08:38:54.023Z</time></trkpt><trkpt lat="43.3436086" lon="12.892966"><ele>316.0</ele><time>2026-04-19T08:38:55.026Z</time></trkpt><trkpt lat="43.34358" lon="12.8931379"><ele>316.0</ele><time>2026-04-19T08:38:56.028Z</time></trkpt><trkpt lat="43.3435422" lon="12.8932908"><ele>316.0</ele><time>2026-04-19T08:38:57.03Z</time></trkpt><trkpt lat="43.3434858" lon="12.8934222"><ele>316.0</ele><time>2026-04-19T08:38:58.033Z</time></trkpt><trkpt lat="43.3434142" lon="12.893519"><ele>316.0</ele><time>2026-04-19T08:38:59.049Z</time></trkpt><trkpt lat="43.3433178" lon="12.8936008"><ele>316.0</ele><time>2026-04-19T08:39:00.022Z</time></trkpt><trkpt lat="43.3432288" lon="12.8936575"><ele>315.3333333333333</ele><time>2026-04-19T08:39:01.024Z</time></trkpt><trkpt lat="43.3431544" lon="12.8937213"><ele>314.66666666666663</ele><time>2026-04-19T08:39:02.023Z</time></trkpt><trkpt lat="43.3431098" lon="12.8937874"><ele>314.0</ele><time>2026-04-19T08:39:03.032Z</time></trkpt><trkpt lat="43.3430958" lon="12.893872"><ele>313.3333333333333</ele><time>2026-04-19T08:39:04.03Z</time></trkpt><trkpt lat="43.3431017" lon="12.8939621"><ele>312.6666666666667</ele><time>2026-04-19T08:39:05.027Z</time></trkpt><trkpt lat="43.3431066" lon="12.894051"><ele>312.0</ele><time>2026-04-19T08:39:06.022Z</time></trkpt><trkpt lat="43.3431043" lon="12.8942011"><ele>312.1666666666667</ele><time>2026-04-19T08:39:08.032Z</time></trkpt><trkpt lat="43.343122" lon="12.8943452"><ele>312.3333333333333</ele><time>2026-04-19T08:39:10.031Z</time></trkpt><trkpt lat="43.3431514" lon="12.8944275"><ele>312.5</ele><time>2026-04-19T08:39:11.034Z</time></trkpt><trkpt lat="43.3432021" lon="12.8945045"><ele>312.66666666666663</ele><time>2026-04-19T08:39:12.034Z</time></trkpt><trkpt lat="43.3432652" lon="12.894553"><ele>312.8333333333333</ele><time>2026-04-19T08:39:13.027Z</time></trkpt><trkpt lat="43.3433339" lon="12.8945879"><ele>313.0</ele><time>2026-04-19T08:39:14.031Z</time></trkpt><trkpt lat="43.3433949" lon="12.894629"><ele>313.0</ele><time>2026-04-19T08:39:15.023Z</time></trkpt><trkpt lat="43.3434453" lon="12.8947021"><ele>313.0</ele><time>2026-04-19T08:39:16.037Z</time></trkpt><trkpt lat="43.3434823" lon="12.8947878"><ele>313.0</ele><time>2026-04-19T08:39:17.036Z</time></trkpt><trkpt lat="43.3434907" lon="12.8949038"><ele>313.0</ele><time>2026-04-19T08:39:18.026Z</time></trkpt><trkpt lat="43.3434741" lon="12.8950382"><ele>313.0</ele><time>2026-04-19T08:39:19.027Z</time></trkpt><trkpt lat="43.343455" lon="12.8951696"><ele>313.0</ele><time>2026-04-19T08:39:20.031Z</time></trkpt><trkpt lat="43.3434399" lon="12.8952907"><ele>313.0</ele><time>2026-04-19T08:39:21.03Z</time></trkpt><trkpt lat="43.343424" lon="12.8953999"><ele>313.0</ele><time>2026-04-19T08:39:22.025Z</time></trkpt><trkpt lat="43.3434142" lon="12.8955012"><ele>313.0</ele><time>2026-04-19T08:39:23.028Z</time></trkpt><trkpt lat="43.3434036" lon="12.8956084"><ele>313.0</ele><time>2026-04-19T08:39:24.028Z</time></trkpt><trkpt lat="43.3433989" lon="12.8957161"><ele>313.0</ele><time>2026-04-19T08:39:25.03Z</time></trkpt><trkpt lat="43.3433875" lon="12.895822"><ele>313.0</ele><time>2026-04-19T08:39:26.033Z</time></trkpt><trkpt lat="43.343379" lon="12.8959265"><ele>313.0</ele><time>2026-04-19T08:39:27.027Z</time></trkpt><trkpt lat="43.3433718" lon="12.8960252"><ele>313.0</ele><time>2026-04-19T08:39:28.033Z</time></trkpt><trkpt lat="43.3433595" lon="12.8961361"><ele>313.0</ele><time>2026-04-19T08:39:29.029Z</time></trkpt><trkpt lat="43.3433471" lon="12.896247"><ele>313.0</ele><time>2026-04-19T08:39:30.032Z</time></trkpt><trkpt lat="43.3433315" lon="12.896363"><ele>313.0</ele><time>2026-04-19T08:39:31.026Z</time></trkpt><trkpt lat="43.3433166" lon="12.896476"><ele>313.0</ele><time>2026-04-19T08:39:32.027Z</time></trkpt><trkpt lat="43.3433031" lon="12.8965894"><ele>313.0</ele><time>2026-04-19T08:39:33.022Z</time></trkpt><trkpt lat="43.3432889" lon="12.8966834"><ele>313.0</ele><time>2026-04-19T08:39:34.027Z</time></trkpt><trkpt lat="43.3432662" lon="12.8967658"><ele>313.0</ele><time>2026-04-19T08:39:35.025Z</time></trkpt><trkpt lat="43.3431897" lon="12.896888"><ele>313.0</ele><time>2026-04-19T08:39:37.026Z</time></trkpt><trkpt lat="43.343139" lon="12.8970326"><ele>313.0</ele><time>2026-04-19T08:39:39.025Z</time></trkpt><trkpt lat="43.3431923" lon="12.8971961"><ele>313.0</ele><time>2026-04-19T08:39:41.023Z</time></trkpt><trkpt lat="43.3432231" lon="12.8972788"><ele>313.0</ele><time>2026-04-19T08:39:42.016Z</time></trkpt><trkpt lat="43.3432428" lon="12.8973617"><ele>313.0</ele><time>2026-04-19T08:39:43.023Z</time></trkpt><trkpt lat="43.3432471" lon="12.8974634"><ele>313.0</ele><time>2026-04-19T08:39:44.017Z</time></trkpt><trkpt lat="43.3432393" lon="12.8975824"><ele>313.0</ele><time>2026-04-19T08:39:45.023Z</time></trkpt><trkpt lat="43.3432303" lon="12.8977209"><ele>313.0</ele><time>2026-04-19T08:39:46.013Z</time></trkpt><trkpt lat="43.3432175" lon="12.8978726"><ele>313.0</ele><time>2026-04-19T08:39:47.017Z</time></trkpt><trkpt lat="43.3432036" lon="12.8980397"><ele>313.0</ele><time>2026-04-19T08:39:48.018Z</time></trkpt><trkpt lat="43.3431901" lon="12.8982104"><ele>313.0</ele><time>2026-04-19T08:39:49.024Z</time></trkpt><trkpt lat="43.3431806" lon="12.8983851"><ele>313.0</ele><time>2026-04-19T08:39:50.017Z</time></trkpt><trkpt lat="43.3431709" lon="12.8985626"><ele>313.5</ele><time>2026-04-19T08:39:51.022Z</time></trkpt><trkpt lat="43.3431608" lon="12.8987487"><ele>314.0</ele><time>2026-04-19T08:39:52.005Z</time></trkpt><trkpt lat="43.3431498" lon="12.8989345"><ele>314.5</ele><time>2026-04-19T08:39:53.021Z</time></trkpt><trkpt lat="43.3431335" lon="12.8991214"><ele>315.0</ele><time>2026-04-19T08:39:54.014Z</time></trkpt><trkpt lat="43.3431125" lon="12.8993043"><ele>316.25</ele><time>2026-04-19T08:39:55.009Z</time></trkpt><trkpt lat="43.3430991" lon="12.8994775"><ele>317.5</ele><time>2026-04-19T08:39:56.012Z</time></trkpt><trkpt lat="43.3430911" lon="12.8996338"><ele>318.75</ele><time>2026-04-19T08:39:57.017Z</time></trkpt><trkpt lat="43.343068" lon="12.8997894"><ele>320.0</ele><time>2026-04-19T08:39:58.014Z</time></trkpt><trkpt lat="43.3430543" lon="12.8999461"><ele>320.6</ele><time>2026-04-19T08:39:59.016Z</time></trkpt><trkpt lat="43.3430345" lon="12.9000915"><ele>321.2</ele><time>2026-04-19T08:40:00.011Z</time></trkpt><trkpt lat="43.343001" lon="12.900254"><ele>321.79999999999995</ele><time>2026-04-19T08:40:01.026Z</time></trkpt><trkpt lat="43.3429919" lon="12.9004119"><ele>322.4</ele><time>2026-04-19T08:40:02.011Z</time></trkpt><trkpt lat="43.342987" lon="12.9005534"><ele>323.0</ele><time>2026-04-19T08:40:03.014Z</time></trkpt><trkpt lat="43.3429794" lon="12.9006961"><ele>323.0</ele><time>2026-04-19T08:40:04.017Z</time></trkpt><trkpt lat="43.342971" lon="12.9008431"><ele>323.0</ele><time>2026-04-19T08:40:05.015Z</time></trkpt><trkpt lat="43.342958" lon="12.9009987"><ele>323.0</ele><time>2026-04-19T08:40:06.021Z</time></trkpt><trkpt lat="43.3429485" lon="12.9011562"><ele>323.0</ele><time>2026-04-19T08:40:07.022Z</time></trkpt><trkpt lat="43.3429359" lon="12.9013171"><ele>322.4</ele><time>2026-04-19T08:40:08.021Z</time></trkpt><trkpt lat="43.3429266" lon="12.901479"><ele>321.79999999999995</ele><time>2026-04-19T08:40:09.019Z</time></trkpt><trkpt lat="43.3429173" lon="12.9016372"><ele>321.2</ele><time>2026-04-19T08:40:10.022Z</time></trkpt><trkpt lat="43.3428983" lon="12.9017849"><ele>320.6</ele><time>2026-04-19T08:40:11.018Z</time></trkpt><trkpt lat="43.3428715" lon="12.901916"><ele>320.0</ele><time>2026-04-19T08:40:12.022Z</time></trkpt><trkpt lat="43.3428384" lon="12.90203"><ele>319.6666666666667</ele><time>2026-04-19T08:40:13.022Z</time></trkpt><trkpt lat="43.3428307" lon="12.902141"><ele>319.33333333333337</ele><time>2026-04-19T08:40:14.028Z</time></trkpt><trkpt lat="43.3428586" lon="12.9022399"><ele>319.0</ele><time>2026-04-19T08:40:15.022Z</time></trkpt><trkpt lat="43.3429159" lon="12.902322"><ele>318.6666666666667</ele><time>2026-04-19T08:40:16.03Z</time></trkpt><trkpt lat="43.3429946" lon="12.9023906"><ele>318.3333333333333</ele><time>2026-04-19T08:40:17.019Z</time></trkpt><trkpt lat="43.3430944" lon="12.9024565"><ele>318.0</ele><time>2026-04-19T08:40:18.017Z</time></trkpt><trkpt lat="43.3432001" lon="12.9025201"><ele>317.75</ele><time>2026-04-19T08:40:19.018Z</time></trkpt><trkpt lat="43.343311" lon="12.9025889"><ele>317.5</ele><time>2026-04-19T08:40:20.019Z</time></trkpt><trkpt lat="43.3434365" lon="12.902661"><ele>317.25</ele><time>2026-04-19T08:40:21.018Z</time></trkpt><trkpt lat="43.3435687" lon="12.9027434"><ele>317.0</ele><time>2026-04-19T08:40:22.012Z</time></trkpt><trkpt lat="43.3436974" lon="12.9028275"><ele>317.0</ele><time>2026-04-19T08:40:23.015Z</time></trkpt><trkpt lat="43.3438302" lon="12.9029144"><ele>317.0</ele><time>2026-04-19T08:40:24.012Z</time></trkpt><trkpt lat="43.3439598" lon="12.9030217"><ele>317.0</ele><time>2026-04-19T08:40:25.015Z</time></trkpt><trkpt lat="43.3440841" lon="12.9031308"><ele>317.0</ele><time>2026-04-19T08:40:26.02Z</time></trkpt><trkpt lat="43.3442069" lon="12.9032377"><ele>316.75</ele><time>2026-04-19T08:40:27.019Z</time></trkpt><trkpt lat="43.3443324" lon="12.9033483"><ele>316.5</ele><time>2026-04-19T08:40:28.017Z</time></trkpt><trkpt lat="43.3444609" lon="12.9034581"><ele>316.25</ele><time>2026-04-19T08:40:29.02Z</time></trkpt><trkpt lat="43.3445711" lon="12.9035596"><ele>316.0</ele><time>2026-04-19T08:40:30.012Z</time></trkpt><trkpt lat="43.3446793" lon="12.9036566"><ele>315.8</ele><time>2026-04-19T08:40:31.012Z</time></trkpt><trkpt lat="43.344775" lon="12.9037378"><ele>315.6</ele><time>2026-04-19T08:40:32.038Z</time></trkpt><trkpt lat="43.3448635" lon="12.9038145"><ele>315.4</ele><time>2026-04-19T08:40:33.017Z</time></trkpt><trkpt lat="43.3449594" lon="12.9038906"><ele>315.2</ele><time>2026-04-19T08:40:34.017Z</time></trkpt><trkpt lat="43.3450551" lon="12.9039709"><ele>315.0</ele><time>2026-04-19T08:40:35.021Z</time></trkpt><trkpt lat="43.3451493" lon="12.9040452"><ele>315.0</ele><time>2026-04-19T08:40:36.019Z</time></trkpt><trkpt lat="43.3452448" lon="12.904129"><ele>315.0</ele><time>2026-04-19T08:40:37.018Z</time></trkpt><trkpt lat="43.3453424" lon="12.9042113"><ele>315.0</ele><time>2026-04-19T08:40:38.022Z</time></trkpt><trkpt lat="43.3454413" lon="12.9042926"><ele>315.0</ele><time>2026-04-19T08:40:39.021Z</time></trkpt><trkpt lat="43.3455516" lon="12.9043751"><ele>315.0</ele><time>2026-04-19T08:40:40.027Z</time></trkpt><trkpt lat="43.3456616" lon="12.9044575"><ele>315.0</ele><time>2026-04-19T08:40:41.021Z</time></trkpt><trkpt lat="43.3457721" lon="12.9045498"><ele>315.0</ele><time>2026-04-19T08:40:42.03Z</time></trkpt><trkpt lat="43.3458843" lon="12.9046423"><ele>315.0</ele><time>2026-04-19T08:40:43.031Z</time></trkpt><trkpt lat="43.3460002" lon="12.9047373"><ele>315.0</ele><time>2026-04-19T08:40:44.027Z</time></trkpt><trkpt lat="43.3461214" lon="12.9048417"><ele>315.0</ele><time>2026-04-19T08:40:45.028Z</time></trkpt><trkpt lat="43.3462402" lon="12.9049465"><ele>315.0</ele><time>2026-04-19T08:40:46.03Z</time></trkpt><trkpt lat="43.3463697" lon="12.9050723"><ele>315.0</ele><time>2026-04-19T08:40:47.03Z</time></trkpt><trkpt lat="43.3465051" lon="12.9051927"><ele>315.3333333333333</ele><time>2026-04-19T08:40:48.027Z</time></trkpt><trkpt lat="43.3466404" lon="12.9053195"><ele>315.66666666666663</ele><time>2026-04-19T08:40:49.03Z</time></trkpt><trkpt lat="43.3467856" lon="12.9054457"><ele>316.0</ele><time>2026-04-19T08:40:50.028Z</time></trkpt><trkpt lat="43.3469404" lon="12.9055673"><ele>316.0</ele><time>2026-04-19T08:40:51.031Z</time></trkpt><trkpt lat="43.3470861" lon="12.9056872"><ele>316.0</ele><time>2026-04-19T08:40:52.029Z</time></trkpt><trkpt lat="43.3472323" lon="12.9058055"><ele>316.0</ele><time>2026-04-19T08:40:53.029Z</time></trkpt><trkpt lat="43.347369" lon="12.9059212"><ele>315.66666666666663</ele><time>2026-04-19T08:40:54.021Z</time></trkpt><trkpt lat="43.3475015" lon="12.9060302"><ele>315.3333333333333</ele><time>2026-04-19T08:40:55.017Z</time></trkpt><trkpt lat="43.3476279" lon="12.9061595"><ele>315.0</ele><time>2026-04-19T08:40:56.021Z</time></trkpt><trkpt lat="43.3477674" lon="12.9062731"><ele>315.0</ele><time>2026-04-19T08:40:57.022Z</time></trkpt><trkpt lat="43.3478987" lon="12.9063865"><ele>315.0</ele><time>2026-04-19T08:40:58.02Z</time></trkpt><trkpt lat="43.348014" lon="12.9064775"><ele>315.0</ele><time>2026-04-19T08:40:59.015Z</time></trkpt><trkpt lat="43.3481212" lon="12.9065879"><ele>315.0</ele><time>2026-04-19T08:41:00.009Z</time></trkpt><trkpt lat="43.3482216" lon="12.9066803"><ele>315.0</ele><time>2026-04-19T08:41:01.009Z</time></trkpt><trkpt lat="43.3483138" lon="12.9067623"><ele>315.0</ele><time>2026-04-19T08:41:02.024Z</time></trkpt><trkpt lat="43.3483973" lon="12.9068263"><ele>315.0</ele><time>2026-04-19T08:41:03.011Z</time></trkpt><trkpt lat="43.3484735" lon="12.9068921"><ele>315.0</ele><time>2026-04-19T08:41:04.023Z</time></trkpt><trkpt lat="43.3485538" lon="12.9069565"><ele>315.0</ele><time>2026-04-19T08:41:05.017Z</time></trkpt><trkpt lat="43.3486389" lon="12.9070239"><ele>315.0</ele><time>2026-04-19T08:41:06.023Z</time></trkpt><trkpt lat="43.3487255" lon="12.9070954"><ele>315.0</ele><time>2026-04-19T08:41:07.024Z</time></trkpt><trkpt lat="43.3488034" lon="12.9071684"><ele>315.0</ele><time>2026-04-19T08:41:08.019Z</time></trkpt><trkpt lat="43.3488701" lon="12.907233"><ele>315.0</ele><time>2026-04-19T08:41:09.026Z</time></trkpt><trkpt lat="43.3489435" lon="12.9073711"><ele>315.0</ele><time>2026-04-19T08:41:11.028Z</time></trkpt><trkpt lat="43.3489407" lon="12.907461"><ele>314.8</ele><time>2026-04-19T08:41:12.02Z</time></trkpt><trkpt lat="43.3489167" lon="12.9075529"><ele>314.6</ele><time>2026-04-19T08:41:13.016Z</time></trkpt><trkpt lat="43.3488762" lon="12.9076501"><ele>314.4</ele><time>2026-04-19T08:41:14.014Z</time></trkpt><trkpt lat="43.3488289" lon="12.9077591"><ele>314.2</ele><time>2026-04-19T08:41:15.018Z</time></trkpt><trkpt lat="43.3487697" lon="12.9078837"><ele>314.0</ele><time>2026-04-19T08:41:16.018Z</time></trkpt><trkpt lat="43.3487081" lon="12.9080201"><ele>314.0</ele><time>2026-04-19T08:41:17.014Z</time></trkpt><trkpt lat="43.3486465" lon="12.9081567"><ele>314.0</ele><time>2026-04-19T08:41:17.999Z</time></trkpt><trkpt lat="43.348574" lon="12.9082946"><ele>314.0</ele><time>2026-04-19T08:41:19.001Z</time></trkpt><trkpt lat="43.3484974" lon="12.9084316"><ele>314.0</ele><time>2026-04-19T08:41:20.004Z</time></trkpt><trkpt lat="43.3484115" lon="12.9085433"><ele>313.59999999999997</ele><time>2026-04-19T08:41:21.027Z</time></trkpt><trkpt lat="43.3483117" lon="12.9086208"><ele>313.2</ele><time>2026-04-19T08:41:22.017Z</time></trkpt><trkpt lat="43.3482122" lon="12.9086535"><ele>312.79999999999995</ele><time>2026-04-19T08:41:23.015Z</time></trkpt><trkpt lat="43.348125" lon="12.9086961"><ele>312.4</ele><time>2026-04-19T08:41:24.025Z</time></trkpt><trkpt lat="43.3480487" lon="12.908766"><ele>312.0</ele><time>2026-04-19T08:41:25.021Z</time></trkpt><trkpt lat="43.3480117" lon="12.9088674"><ele>312.0</ele><time>2026-04-19T08:41:26.027Z</time></trkpt><trkpt lat="43.3480318" lon="12.9090249"><ele>312.0</ele><time>2026-04-19T08:41:27.019Z</time></trkpt><trkpt lat="43.3480483" lon="12.9092075"><ele>312.0</ele><time>2026-04-19T08:41:28.021Z</time></trkpt><trkpt lat="43.3480564" lon="12.9093978"><ele>312.0</ele><time>2026-04-19T08:41:29.015Z</time></trkpt><trkpt lat="43.3480636" lon="12.9095804"><ele>309.3333333333333</ele><time>2026-04-19T08:41:30.012Z</time></trkpt><trkpt lat="43.3480752" lon="12.9097803"><ele>306.66666666666663</ele><time>2026-04-19T08:41:31.031Z</time></trkpt><trkpt lat="43.348117" lon="12.9099968"><ele>304.0</ele><time>2026-04-19T08:41:32.029Z</time></trkpt><trkpt lat="43.3481928" lon="12.9102323"><ele>303.3333333333333</ele><time>2026-04-19T08:41:33.034Z</time></trkpt><trkpt lat="43.3482798" lon="12.9104314"><ele>302.6666666666667</ele><time>2026-04-19T08:41:34.021Z</time></trkpt><trkpt lat="43.3483716" lon="12.9106036"><ele>302.0</ele><time>2026-04-19T08:41:35.025Z</time></trkpt><trkpt lat="43.3484686" lon="12.910743"><ele>302.0</ele><time>2026-04-19T08:41:36.023Z</time></trkpt><trkpt lat="43.348568" lon="12.9108645"><ele>302.0</ele><time>2026-04-19T08:41:37.026Z</time></trkpt><trkpt lat="43.3486602" lon="12.9109761"><ele>302.0</ele><time>2026-04-19T08:41:38.026Z</time></trkpt><trkpt lat="43.3487443" lon="12.911085"><ele>302.0</ele><time>2026-04-19T08:41:39.018Z</time></trkpt><trkpt lat="43.3488128" lon="12.911179"><ele>302.1666666666667</ele><time>2026-04-19T08:41:40.023Z</time></trkpt><trkpt lat="43.3488859" lon="12.9112498"><ele>302.33333333333337</ele><time>2026-04-19T08:41:41.022Z</time></trkpt><trkpt lat="43.3489591" lon="12.9113168"><ele>302.5</ele><time>2026-04-19T08:41:42.028Z</time></trkpt><trkpt lat="43.3490331" lon="12.9113802"><ele>302.6666666666667</ele><time>2026-04-19T08:41:43.025Z</time></trkpt><trkpt lat="43.3490953" lon="12.9114449"><ele>302.8333333333333</ele><time>2026-04-19T08:41:44.02Z</time></trkpt><trkpt lat="43.3491515" lon="12.9115263"><ele>303.0</ele><time>2026-04-19T08:41:45.023Z</time></trkpt><trkpt lat="43.349201" lon="12.9116242"><ele>303.0</ele><time>2026-04-19T08:41:46.025Z</time></trkpt><trkpt lat="43.3492357" lon="12.9117337"><ele>303.0</ele><time>2026-04-19T08:41:47.034Z</time></trkpt><trkpt lat="43.3492427" lon="12.9118699"><ele>303.0</ele><time>2026-04-19T08:41:48.025Z</time></trkpt><trkpt lat="43.3492252" lon="12.9120096"><ele>303.0</ele><time>2026-04-19T08:41:49.02Z</time></trkpt><trkpt lat="43.3492002" lon="12.912156"><ele>303.0</ele><time>2026-04-19T08:41:50.02Z</time></trkpt><trkpt lat="43.3491781" lon="12.9123081"><ele>303.0</ele><time>2026-04-19T08:41:51.021Z</time></trkpt><trkpt lat="43.3491608" lon="12.9124642"><ele>303.0</ele><time>2026-04-19T08:41:52.02Z</time></trkpt><trkpt lat="43.3491422" lon="12.9126253"><ele>303.0</ele><time>2026-04-19T08:41:53.016Z</time></trkpt><trkpt lat="43.3491266" lon="12.9127931"><ele>303.0</ele><time>2026-04-19T08:41:54.019Z</time></trkpt><trkpt lat="43.3491148" lon="12.9129652"><ele>303.0</ele><time>2026-04-19T08:41:55.018Z</time></trkpt><trkpt lat="43.349108" lon="12.9131443"><ele>303.0</ele><time>2026-04-19T08:41:56.017Z</time></trkpt><trkpt lat="43.3491166" lon="12.9133148"><ele>303.0</ele><time>2026-04-19T08:41:57.022Z</time></trkpt><trkpt lat="43.3491457" lon="12.9134869"><ele>303.0</ele><time>2026-04-19T08:41:58.017Z</time></trkpt><trkpt lat="43.3491898" lon="12.913651"><ele>302.5</ele><time>2026-04-19T08:41:59.016Z</time></trkpt><trkpt lat="43.3492403" lon="12.9138121"><ele>302.0</ele><time>2026-04-19T08:42:00.013Z</time></trkpt><trkpt lat="43.3492911" lon="12.9139659"><ele>301.5</ele><time>2026-04-19T08:42:01.013Z</time></trkpt><trkpt lat="43.3493373" lon="12.9141217"><ele>301.0</ele><time>2026-04-19T08:42:02.017Z</time></trkpt><trkpt lat="43.3493856" lon="12.914275"><ele>300.25</ele><time>2026-04-19T08:42:03.021Z</time></trkpt><trkpt lat="43.3494394" lon="12.9144284"><ele>299.5</ele><time>2026-04-19T08:42:04.033Z</time></trkpt><trkpt lat="43.3495015" lon="12.9145792"><ele>298.75</ele><time>2026-04-19T08:42:05.017Z</time></trkpt><trkpt lat="43.349579" lon="12.9147328"><ele>298.0</ele><time>2026-04-19T08:42:06.015Z</time></trkpt><trkpt lat="43.3496743" lon="12.9148921"><ele>298.66666666666663</ele><time>2026-04-19T08:42:07.015Z</time></trkpt><trkpt lat="43.3497862" lon="12.915056"><ele>299.3333333333333</ele><time>2026-04-19T08:42:08.022Z</time></trkpt><trkpt lat="43.3498979" lon="12.9152161"><ele>300.0</ele><time>2026-04-19T08:42:09.022Z</time></trkpt><trkpt lat="43.3500062" lon="12.9153674"><ele>300.0</ele><time>2026-04-19T08:42:10.02Z</time></trkpt><trkpt lat="43.3501073" lon="12.9155061"><ele>300.0</ele><time>2026-04-19T08:42:11.02Z</time></trkpt><trkpt lat="43.3502034" lon="12.9156528"><ele>300.0</ele><time>2026-04-19T08:42:12.021Z</time></trkpt><trkpt lat="43.3502967" lon="12.9158003"><ele>300.0</ele><time>2026-04-19T08:42:13.016Z</time></trkpt><trkpt lat="43.3503998" lon="12.9159485"><ele>298.75</ele><time>2026-04-19T08:42:14.017Z</time></trkpt><trkpt lat="43.3505066" lon="12.9160888"><ele>297.5</ele><time>2026-04-19T08:42:15.016Z</time></trkpt><trkpt lat="43.3506078" lon="12.9162239"><ele>296.25</ele><time>2026-04-19T08:42:16.016Z</time></trkpt><trkpt lat="43.3507105" lon="12.9163458"><ele>295.0</ele><time>2026-04-19T08:42:17.019Z</time></trkpt><trkpt lat="43.3508063" lon="12.9164636"><ele>295.0</ele><time>2026-04-19T08:42:18.016Z</time></trkpt><trkpt lat="43.3508987" lon="12.9165808"><ele>295.0</ele><time>2026-04-19T08:42:19.019Z</time></trkpt><trkpt lat="43.3509957" lon="12.9166951"><ele>295.0</ele><time>2026-04-19T08:42:20.017Z</time></trkpt><trkpt lat="43.3510948" lon="12.9168116"><ele>295.0</ele><time>2026-04-19T08:42:21.021Z</time></trkpt><trkpt lat="43.3511803" lon="12.9169486"><ele>292.3333333333333</ele><time>2026-04-19T08:42:22.014Z</time></trkpt><trkpt lat="43.3512608" lon="12.917114"><ele>289.6666666666667</ele><time>2026-04-19T08:42:23.011Z</time></trkpt><trkpt lat="43.3513239" lon="12.9173097"><ele>287.0</ele><time>2026-04-19T08:42:24.021Z</time></trkpt><trkpt lat="43.3513548" lon="12.9175447"><ele>288.0</ele><time>2026-04-19T08:42:25.016Z</time></trkpt><trkpt lat="43.3513608" lon="12.9177718"><ele>289.0</ele><time>2026-04-19T08:42:26.016Z</time></trkpt><trkpt lat="43.3513749" lon="12.917991"><ele>290.0</ele><time>2026-04-19T08:42:27.021Z</time></trkpt><trkpt lat="43.3514144" lon="12.9182106"><ele>289.0</ele><time>2026-04-19T08:42:28.026Z</time></trkpt><trkpt lat="43.3514938" lon="12.9184211"><ele>288.0</ele><time>2026-04-19T08:42:29.026Z</time></trkpt><trkpt lat="43.3516054" lon="12.9186189"><ele>287.0</ele><time>2026-04-19T08:42:30.014Z</time></trkpt><trkpt lat="43.3517234" lon="12.9188093"><ele>287.0</ele><time>2026-04-19T08:42:31.014Z</time></trkpt><trkpt lat="43.3518338" lon="12.9190058"><ele>287.0</ele><time>2026-04-19T08:42:32.02Z</time></trkpt><trkpt lat="43.3519418" lon="12.9191852"><ele>287.0</ele><time>2026-04-19T08:42:33.027Z</time></trkpt><trkpt lat="43.3520482" lon="12.91936"><ele>286.0</ele><time>2026-04-19T08:42:34.023Z</time></trkpt><trkpt lat="43.3521603" lon="12.9195264"><ele>285.0</ele><time>2026-04-19T08:42:35.041Z</time></trkpt><trkpt lat="43.3522732" lon="12.9196803"><ele>284.0</ele><time>2026-04-19T08:42:36.025Z</time></trkpt><trkpt lat="43.3523937" lon="12.9197999"><ele>284.0</ele><time>2026-04-19T08:42:37.031Z</time></trkpt><trkpt lat="43.3525107" lon="12.9198927"><ele>284.0</ele><time>2026-04-19T08:42:38.026Z</time></trkpt><trkpt lat="43.3526017" lon="12.9199673"><ele>284.0</ele><time>2026-04-19T08:42:39.019Z</time></trkpt><trkpt lat="43.3526798" lon="12.920031"><ele>284.0</ele><time>2026-04-19T08:42:40.022Z</time></trkpt><trkpt lat="43.3527354" lon="12.9200991"><ele>284.0</ele><time>2026-04-19T08:42:41.026Z</time></trkpt><trkpt lat="43.3527595" lon="12.9201912"><ele>283.8</ele><time>2026-04-19T08:42:42.038Z</time></trkpt><trkpt lat="43.3527642" lon="12.9202952"><ele>283.59999999999997</ele><time>2026-04-19T08:42:43.026Z</time></trkpt><trkpt lat="43.3527319" lon="12.9204019"><ele>283.4</ele><time>2026-04-19T08:42:44.026Z</time></trkpt><trkpt lat="43.3526572" lon="12.9205067"><ele>283.2</ele><time>2026-04-19T08:42:45.019Z</time></trkpt><trkpt lat="43.3525705" lon="12.9206098"><ele>283.0</ele><time>2026-04-19T08:42:46.021Z</time></trkpt><trkpt lat="43.352485" lon="12.9207195"><ele>283.0</ele><time>2026-04-19T08:42:47.016Z</time></trkpt><trkpt lat="43.3524042" lon="12.9208347"><ele>283.0</ele><time>2026-04-19T08:42:48.017Z</time></trkpt><trkpt lat="43.3523275" lon="12.9209554"><ele>283.0</ele><time>2026-04-19T08:42:49.012Z</time></trkpt><trkpt lat="43.3522545" lon="12.9210812"><ele>283.0</ele><time>2026-04-19T08:42:50.012Z</time></trkpt><trkpt lat="43.3521789" lon="12.921229"><ele>284.75</ele><time>2026-04-19T08:42:51.001Z</time></trkpt><trkpt lat="43.3520978" lon="12.9213879"><ele>286.5</ele><time>2026-04-19T08:42:52.009Z</time></trkpt><trkpt lat="43.3520165" lon="12.9215407"><ele>288.25</ele><time>2026-04-19T08:42:53.006Z</time></trkpt><trkpt lat="43.3519273" lon="12.9216822"><ele>290.0</ele><time>2026-04-19T08:42:54.008Z</time></trkpt><trkpt lat="43.3518263" lon="12.921811"><ele>291.6</ele><time>2026-04-19T08:42:55.009Z</time></trkpt><trkpt lat="43.3517164" lon="12.921909"><ele>293.2</ele><time>2026-04-19T08:42:56.001Z</time></trkpt><trkpt lat="43.3516196" lon="12.9219896"><ele>294.8</ele><time>2026-04-19T08:42:57.006Z</time></trkpt><trkpt lat="43.3515309" lon="12.9220538"><ele>296.4</ele><time>2026-04-19T08:42:58.003Z</time></trkpt><trkpt lat="43.3514539" lon="12.9221176"><ele>298.0</ele><time>2026-04-19T08:42:59.021Z</time></trkpt><trkpt lat="43.3513797" lon="12.9221909"><ele>298.0</ele><time>2026-04-19T08:43:00.008Z</time></trkpt><trkpt lat="43.3513094" lon="12.9222594"><ele>298.0</ele><time>2026-04-19T08:43:01Z</time></trkpt><trkpt lat="43.3512509" lon="12.9223204"><ele>298.0</ele><time>2026-04-19T08:43:02.001Z</time></trkpt><trkpt lat="43.3511669" lon="12.9223982"><ele>298.0</ele><time>2026-04-19T08:43:04.003Z</time></trkpt><trkpt lat="43.3510882" lon="12.9224692"><ele>298.0</ele><time>2026-04-19T08:43:09.011Z</time></trkpt><trkpt lat="43.3510104" lon="12.9225477"><ele>298.25</ele><time>2026-04-19T08:43:11.008Z</time></trkpt><trkpt lat="43.3509017" lon="12.9226668"><ele>298.5</ele><time>2026-04-19T08:43:13.022Z</time></trkpt><trkpt lat="43.3508132" lon="12.9227641"><ele>298.75</ele><time>2026-04-19T08:43:14.021Z</time></trkpt><trkpt lat="43.3506863" lon="12.9228981"><ele>299.0</ele><time>2026-04-19T08:43:15.022Z</time></trkpt><trkpt lat="43.3505432" lon="12.9230363"><ele>298.6666666666667</ele><time>2026-04-19T08:43:16.02Z</time></trkpt><trkpt lat="43.3503739" lon="12.9231871"><ele>298.3333333333333</ele><time>2026-04-19T08:43:17.017Z</time></trkpt><trkpt lat="43.3501941" lon="12.9233268"><ele>298.0</ele><time>2026-04-19T08:43:18.015Z</time></trkpt><trkpt lat="43.3500097" lon="12.9234718"><ele>298.0</ele><time>2026-04-19T08:43:19.016Z</time></trkpt><trkpt lat="43.3498381" lon="12.9236231"><ele>298.0</ele><time>2026-04-19T08:43:20.018Z</time></trkpt><trkpt lat="43.349674" lon="12.9237773"><ele>298.0</ele><time>2026-04-19T08:43:21.019Z</time></trkpt><trkpt lat="43.3495321" lon="12.9239053"><ele>298.3333333333333</ele><time>2026-04-19T08:43:22.011Z</time></trkpt><trkpt lat="43.3494046" lon="12.9240239"><ele>298.6666666666667</ele><time>2026-04-19T08:43:23.016Z</time></trkpt><trkpt lat="43.3492707" lon="12.9241472"><ele>299.0</ele><time>2026-04-19T08:43:24.007Z</time></trkpt><trkpt lat="43.3491445" lon="12.9242695"><ele>299.25</ele><time>2026-04-19T08:43:25.006Z</time></trkpt><trkpt lat="43.3490185" lon="12.9243745"><ele>299.5</ele><time>2026-04-19T08:43:26.012Z</time></trkpt><trkpt lat="43.3488966" lon="12.9244717"><ele>299.75</ele><time>2026-04-19T08:43:27.016Z</time></trkpt><trkpt lat="43.3487861" lon="12.9245617"><ele>300.0</ele><time>2026-04-19T08:43:28.012Z</time></trkpt><trkpt lat="43.3486888" lon="12.9246354"><ele>300.1666666666667</ele><time>2026-04-19T08:43:29.022Z</time></trkpt><trkpt lat="43.3486163" lon="12.9246916"><ele>300.3333333333333</ele><time>2026-04-19T08:43:30.019Z</time></trkpt><trkpt lat="43.3485586" lon="12.9247383"><ele>300.5</ele><time>2026-04-19T08:43:31.013Z</time></trkpt><trkpt lat="43.3484511" lon="12.9248207"><ele>300.66666666666663</ele><time>2026-04-19T08:43:33.015Z</time></trkpt><trkpt lat="43.3484329" lon="12.9249056"><ele>300.8333333333333</ele><time>2026-04-19T08:43:34.025Z</time></trkpt><trkpt lat="43.3484602" lon="12.9250112"><ele>301.0</ele><time>2026-04-19T08:43:35.023Z</time></trkpt><trkpt lat="43.3485143" lon="12.9251025"><ele>302.0</ele><time>2026-04-19T08:43:36.018Z</time></trkpt><trkpt lat="43.348595" lon="12.9251989"><ele>303.0</ele><time>2026-04-19T08:43:37.027Z</time></trkpt><trkpt lat="43.3486778" lon="12.9253165"><ele>304.0</ele><time>2026-04-19T08:43:38.019Z</time></trkpt><trkpt lat="43.3487643" lon="12.9254663"><ele>305.0</ele><time>2026-04-19T08:43:39.019Z</time></trkpt><trkpt lat="43.3488401" lon="12.9255968"><ele>304.5</ele><time>2026-04-19T08:43:40.024Z</time></trkpt><trkpt lat="43.3489023" lon="12.9257115"><ele>304.0</ele><time>2026-04-19T08:43:41.019Z</time></trkpt><trkpt lat="43.3489656" lon="12.9258258"><ele>303.5</ele><time>2026-04-19T08:43:42.02Z</time></trkpt><trkpt lat="43.3490469" lon="12.9259613"><ele>303.0</ele><time>2026-04-19T08:43:43.017Z</time></trkpt><trkpt lat="43.3491362" lon="12.9261097"><ele>303.0</ele><time>2026-04-19T08:43:44.026Z</time></trkpt><trkpt lat="43.3492335" lon="12.9262752"><ele>303.0</ele><time>2026-04-19T08:43:45.023Z</time></trkpt><trkpt lat="43.3493397" lon="12.9264614"><ele>303.0</ele><time>2026-04-19T08:43:46.026Z</time></trkpt><trkpt lat="43.3494507" lon="12.9266439"><ele>304.3333333333333</ele><time>2026-04-19T08:43:47.023Z</time></trkpt><trkpt lat="43.3495564" lon="12.9268161"><ele>305.66666666666663</ele><time>2026-04-19T08:43:48.018Z</time></trkpt><trkpt lat="43.3496543" lon="12.9269777"><ele>307.0</ele><time>2026-04-19T08:43:49.021Z</time></trkpt><trkpt lat="43.3497426" lon="12.927124"><ele>306.0</ele><time>2026-04-19T08:43:50.019Z</time></trkpt><trkpt lat="43.3498236" lon="12.9272668"><ele>305.0</ele><time>2026-04-19T08:43:51.025Z</time></trkpt><trkpt lat="43.3498994" lon="12.9273936"><ele>304.0</ele><time>2026-04-19T08:43:52.024Z</time></trkpt><trkpt lat="43.3499678" lon="12.9275171"><ele>303.0</ele><time>2026-04-19T08:43:53.019Z</time></trkpt><trkpt lat="43.3500432" lon="12.9276351"><ele>303.0</ele><time>2026-04-19T08:43:54.026Z</time></trkpt><trkpt lat="43.3501079" lon="12.9277545"><ele>303.0</ele><time>2026-04-19T08:43:55.027Z</time></trkpt><trkpt lat="43.3501687" lon="12.9278589"><ele>303.0</ele><time>2026-04-19T08:43:56.028Z</time></trkpt><trkpt lat="43.350231" lon="12.9279643"><ele>303.0</ele><time>2026-04-19T08:43:57.03Z</time></trkpt><trkpt lat="43.3502955" lon="12.928077"><ele>303.0</ele><time>2026-04-19T08:43:58.025Z</time></trkpt><trkpt lat="43.3503632" lon="12.9281893"><ele>303.0</ele><time>2026-04-19T08:43:59.034Z</time></trkpt><trkpt lat="43.350437" lon="12.9283063"><ele>303.0</ele><time>2026-04-19T08:44:00.021Z</time></trkpt><trkpt lat="43.3505058" lon="12.9284229"><ele>303.0</ele><time>2026-04-19T08:44:01.027Z</time></trkpt><trkpt lat="43.3505819" lon="12.9285452"><ele>303.0</ele><time>2026-04-19T08:44:02.019Z</time></trkpt><trkpt lat="43.3506598" lon="12.9286623"><ele>302.6</ele><time>2026-04-19T08:44:03.022Z</time></trkpt><trkpt lat="43.3507388" lon="12.9287802"><ele>302.20000000000005</ele><time>2026-04-19T08:44:04.02Z</time></trkpt><trkpt lat="43.3508084" lon="12.9288998"><ele>301.8</ele><time>2026-04-19T08:44:05.021Z</time></trkpt><trkpt lat="43.3508723" lon="12.9290135"><ele>301.40000000000003</ele><time>2026-04-19T08:44:06.03Z</time></trkpt><trkpt lat="43.3509375" lon="12.9291246"><ele>301.0</ele><time>2026-04-19T08:44:07.022Z</time></trkpt><trkpt lat="43.3510084" lon="12.9292427"><ele>301.0</ele><time>2026-04-19T08:44:08.03Z</time></trkpt><trkpt lat="43.3510898" lon="12.9293649"><ele>301.0</ele><time>2026-04-19T08:44:09.018Z</time></trkpt><trkpt lat="43.3511776" lon="12.9295158"><ele>301.0</ele><time>2026-04-19T08:44:10.019Z</time></trkpt><trkpt lat="43.3512614" lon="12.9296812"><ele>301.0</ele><time>2026-04-19T08:44:11.018Z</time></trkpt><trkpt lat="43.3513259" lon="12.9298171"><ele>301.0</ele><time>2026-04-19T08:44:12.028Z</time></trkpt><trkpt lat="43.3513673" lon="12.9299511"><ele>301.0</ele><time>2026-04-19T08:44:13.021Z</time></trkpt><trkpt lat="43.3514223" lon="12.9300917"><ele>301.0</ele><time>2026-04-19T08:44:14.025Z</time></trkpt><trkpt lat="43.3514672" lon="12.9302259"><ele>301.0</ele><time>2026-04-19T08:44:15.021Z</time></trkpt><trkpt lat="43.3515035" lon="12.930339"><ele>301.0</ele><time>2026-04-19T08:44:16.027Z</time></trkpt><trkpt lat="43.351545" lon="12.9304466"><ele>300.0</ele><time>2026-04-19T08:44:17.024Z</time></trkpt><trkpt lat="43.3515906" lon="12.9305723"><ele>299.0</ele><time>2026-04-19T08:44:18.026Z</time></trkpt><trkpt lat="43.3516281" lon="12.9307064"><ele>298.0</ele><time>2026-04-19T08:44:19.021Z</time></trkpt><trkpt lat="43.3516671" lon="12.9308381"><ele>297.0</ele><time>2026-04-19T08:44:20.024Z</time></trkpt><trkpt lat="43.3517033" lon="12.9309866"><ele>296.0</ele><time>2026-04-19T08:44:21.029Z</time></trkpt><trkpt lat="43.3517403" lon="12.9311591"><ele>296.0</ele><time>2026-04-19T08:44:22.022Z</time></trkpt><trkpt lat="43.3517779" lon="12.9313507"><ele>296.0</ele><time>2026-04-19T08:44:23.015Z</time></trkpt><trkpt lat="43.3518126" lon="12.9315508"><ele>296.0</ele><time>2026-04-19T08:44:24.02Z</time></trkpt><trkpt lat="43.3518243" lon="12.9317616"><ele>296.0</ele><time>2026-04-19T08:44:25.02Z</time></trkpt><trkpt lat="43.3518092" lon="12.9319631"><ele>294.25</ele><time>2026-04-19T08:44:26.021Z</time></trkpt><trkpt lat="43.351783" lon="12.9321667"><ele>292.5</ele><time>2026-04-19T08:44:27.025Z</time></trkpt><trkpt lat="43.3517615" lon="12.9323647"><ele>290.75</ele><time>2026-04-19T08:44:28.024Z</time></trkpt><trkpt lat="43.3517243" lon="12.9325639"><ele>289.0</ele><time>2026-04-19T08:44:29.031Z</time></trkpt><trkpt lat="43.3516853" lon="12.9327639"><ele>288.0</ele><time>2026-04-19T08:44:30.037Z</time></trkpt><trkpt lat="43.3516386" lon="12.932959"><ele>287.0</ele><time>2026-04-19T08:44:31.021Z</time></trkpt><trkpt lat="43.351593" lon="12.9331389"><ele>286.0</ele><time>2026-04-19T08:44:32.034Z</time></trkpt><trkpt lat="43.3515386" lon="12.9332963"><ele>285.0</ele><time>2026-04-19T08:44:33.024Z</time></trkpt><trkpt lat="43.3514833" lon="12.9334565"><ele>283.3333333333333</ele><time>2026-04-19T08:44:34.025Z</time></trkpt><trkpt lat="43.3514105" lon="12.9336271"><ele>281.66666666666663</ele><time>2026-04-19T08:44:35.027Z</time></trkpt><trkpt lat="43.3513245" lon="12.9338059"><ele>280.0</ele><time>2026-04-19T08:44:36.025Z</time></trkpt><trkpt lat="43.3512333" lon="12.9339928"><ele>281.3333333333333</ele><time>2026-04-19T08:44:37.028Z</time></trkpt><trkpt lat="43.3511286" lon="12.9341813"><ele>282.6666666666667</ele><time>2026-04-19T08:44:38.026Z</time></trkpt><trkpt lat="43.3510181" lon="12.9343725"><ele>284.0</ele><time>2026-04-19T08:44:39.036Z</time></trkpt><trkpt lat="43.3509106" lon="12.9345685"><ele>284.0</ele><time>2026-04-19T08:44:40.027Z</time></trkpt><trkpt lat="43.3507972" lon="12.9347706"><ele>284.0</ele><time>2026-04-19T08:44:41.026Z</time></trkpt><trkpt lat="43.3506792" lon="12.9349848"><ele>284.0</ele><time>2026-04-19T08:44:42.022Z</time></trkpt><trkpt lat="43.3505595" lon="12.9351979"><ele>284.0</ele><time>2026-04-19T08:44:43.019Z</time></trkpt><trkpt lat="43.3504336" lon="12.9354154"><ele>284.0</ele><time>2026-04-19T08:44:44.02Z</time></trkpt><trkpt lat="43.3503046" lon="12.935641"><ele>284.0</ele><time>2026-04-19T08:44:45.021Z</time></trkpt><trkpt lat="43.3501778" lon="12.9358572"><ele>282.6666666666667</ele><time>2026-04-19T08:44:46.015Z</time></trkpt><trkpt lat="43.3500483" lon="12.9360733"><ele>281.3333333333333</ele><time>2026-04-19T08:44:47.019Z</time></trkpt><trkpt lat="43.3499252" lon="12.9362781"><ele>280.0</ele><time>2026-04-19T08:44:48.018Z</time></trkpt><trkpt lat="43.3498138" lon="12.9364939"><ele>280.0</ele><time>2026-04-19T08:44:49.019Z</time></trkpt><trkpt lat="43.3496867" lon="12.9367075"><ele>280.0</ele><time>2026-04-19T08:44:50.023Z</time></trkpt><trkpt lat="43.3495703" lon="12.936908"><ele>280.0</ele><time>2026-04-19T08:44:51.024Z</time></trkpt><trkpt lat="43.3494529" lon="12.9371125"><ele>280.0</ele><time>2026-04-19T08:44:52.022Z</time></trkpt><trkpt lat="43.3493375" lon="12.9373095"><ele>280.0</ele><time>2026-04-19T08:44:53.019Z</time></trkpt><trkpt lat="43.3492287" lon="12.937495"><ele>280.0</ele><time>2026-04-19T08:44:54.023Z</time></trkpt><trkpt lat="43.3491286" lon="12.9376742"><ele>280.0</ele><time>2026-04-19T08:44:55.021Z</time></trkpt><trkpt lat="43.3490335" lon="12.9378507"><ele>280.0</ele><time>2026-04-19T08:44:56.019Z</time></trkpt><trkpt lat="43.3489215" lon="12.93803"><ele>280.0</ele><time>2026-04-19T08:44:57.023Z</time></trkpt><trkpt lat="43.3488179" lon="12.9381921"><ele>280.0</ele><time>2026-04-19T08:44:58.023Z</time></trkpt><trkpt lat="43.3487309" lon="12.9383603"><ele>280.0</ele><time>2026-04-19T08:44:59.024Z</time></trkpt><trkpt lat="43.3486565" lon="12.9385148"><ele>280.0</ele><time>2026-04-19T08:45:00.019Z</time></trkpt><trkpt lat="43.3485798" lon="12.9386624"><ele>280.0</ele><time>2026-04-19T08:45:01.022Z</time></trkpt><trkpt lat="43.348489" lon="12.9388097"><ele>280.0</ele><time>2026-04-19T08:45:02.026Z</time></trkpt><trkpt lat="43.3483983" lon="12.9389598"><ele>280.0</ele><time>2026-04-19T08:45:03.025Z</time></trkpt><trkpt lat="43.3483025" lon="12.9391228"><ele>280.0</ele><time>2026-04-19T08:45:04.028Z</time></trkpt><trkpt lat="43.3482124" lon="12.9392931"><ele>280.0</ele><time>2026-04-19T08:45:05.026Z</time></trkpt><trkpt lat="43.3481248" lon="12.9394589"><ele>280.25</ele><time>2026-04-19T08:45:06.024Z</time></trkpt><trkpt lat="43.3480405" lon="12.9396227"><ele>280.5</ele><time>2026-04-19T08:45:07.026Z</time></trkpt><trkpt lat="43.34795" lon="12.9397828"><ele>280.75</ele><time>2026-04-19T08:45:08.024Z</time></trkpt><trkpt lat="43.3478544" lon="12.9399439"><ele>281.0</ele><time>2026-04-19T08:45:09.022Z</time></trkpt><trkpt lat="43.3477512" lon="12.9401085"><ele>281.0</ele><time>2026-04-19T08:45:10.046Z</time></trkpt><trkpt lat="43.347649" lon="12.9402916"><ele>281.0</ele><time>2026-04-19T08:45:11.022Z</time></trkpt><trkpt lat="43.347548" lon="12.940467"><ele>281.0</ele><time>2026-04-19T08:45:12.027Z</time></trkpt><trkpt lat="43.3474417" lon="12.9406535"><ele>281.0</ele><time>2026-04-19T08:45:13.019Z</time></trkpt><trkpt lat="43.3473235" lon="12.9408503"><ele>281.0</ele><time>2026-04-19T08:45:14.017Z</time></trkpt><trkpt lat="43.3472089" lon="12.9410534"><ele>281.0</ele><time>2026-04-19T08:45:15.019Z</time></trkpt><trkpt lat="43.3470948" lon="12.9412619"><ele>279.33333333333337</ele><time>2026-04-19T08:45:16.019Z</time></trkpt><trkpt lat="43.3469861" lon="12.9414514"><ele>277.6666666666667</ele><time>2026-04-19T08:45:17.024Z</time></trkpt><trkpt lat="43.3468638" lon="12.9416483"><ele>276.0</ele><time>2026-04-19T08:45:18.019Z</time></trkpt><trkpt lat="43.3467432" lon="12.9418452"><ele>276.0</ele><time>2026-04-19T08:45:19.02Z</time></trkpt><trkpt lat="43.3466243" lon="12.9420446"><ele>276.0</ele><time>2026-04-19T08:45:20.021Z</time></trkpt><trkpt lat="43.3465101" lon="12.9422409"><ele>276.0</ele><time>2026-04-19T08:45:21.023Z</time></trkpt><trkpt lat="43.3464052" lon="12.9424233"><ele>276.3333333333333</ele><time>2026-04-19T08:45:22.023Z</time></trkpt><trkpt lat="43.3463129" lon="12.9426081"><ele>276.66666666666663</ele><time>2026-04-19T08:45:23.019Z</time></trkpt><trkpt lat="43.3462101" lon="12.9427956"><ele>277.0</ele><time>2026-04-19T08:45:24.025Z</time></trkpt><trkpt lat="43.3461113" lon="12.9429949"><ele>277.0</ele><time>2026-04-19T08:45:25.024Z</time></trkpt><trkpt lat="43.34601" lon="12.9431845"><ele>277.0</ele><time>2026-04-19T08:45:26.029Z</time></trkpt><trkpt lat="43.3458951" lon="12.9433686"><ele>277.0</ele><time>2026-04-19T08:45:27.028Z</time></trkpt><trkpt lat="43.3457891" lon="12.9435425"><ele>276.66666666666663</ele><time>2026-04-19T08:45:28.028Z</time></trkpt><trkpt lat="43.3456811" lon="12.9437227"><ele>276.3333333333333</ele><time>2026-04-19T08:45:29.03Z</time></trkpt><trkpt lat="43.3455729" lon="12.943903"><ele>276.0</ele><time>2026-04-19T08:45:30.025Z</time></trkpt><trkpt lat="43.3454741" lon="12.9440824"><ele>274.6666666666667</ele><time>2026-04-19T08:45:31.025Z</time></trkpt><trkpt lat="43.3453774" lon="12.9442541"><ele>273.33333333333337</ele><time>2026-04-19T08:45:32.026Z</time></trkpt><trkpt lat="43.3452764" lon="12.9444162"><ele>272.0</ele><time>2026-04-19T08:45:33.023Z</time></trkpt><trkpt lat="43.3451802" lon="12.9445806"><ele>272.0</ele><time>2026-04-19T08:45:34.021Z</time></trkpt><trkpt lat="43.3450778" lon="12.9447509"><ele>272.0</ele><time>2026-04-19T08:45:35.021Z</time></trkpt><trkpt lat="43.3449789" lon="12.9449266"><ele>272.0</ele><time>2026-04-19T08:45:36.024Z</time></trkpt><trkpt lat="43.3448785" lon="12.9451104"><ele>272.33333333333337</ele><time>2026-04-19T08:45:37.028Z</time></trkpt><trkpt lat="43.3447847" lon="12.9452865"><ele>272.6666666666667</ele><time>2026-04-19T08:45:38.022Z</time></trkpt><trkpt lat="43.34469" lon="12.945456"><ele>273.0</ele><time>2026-04-19T08:45:39.023Z</time></trkpt><trkpt lat="43.3445859" lon="12.9456286"><ele>273.0</ele><time>2026-04-19T08:45:40.029Z</time></trkpt><trkpt lat="43.3444919" lon="12.9458025"><ele>273.0</ele><time>2026-04-19T08:45:41.02Z</time></trkpt><trkpt lat="43.34442" lon="12.9460035"><ele>273.0</ele><time>2026-04-19T08:45:42.021Z</time></trkpt><trkpt lat="43.3443611" lon="12.9462217"><ele>273.0</ele><time>2026-04-19T08:45:43.019Z</time></trkpt><trkpt lat="43.3443208" lon="12.9464551"><ele>273.0</ele><time>2026-04-19T08:45:44.017Z</time></trkpt><trkpt lat="43.3442981" lon="12.9466896"><ele>273.0</ele><time>2026-04-19T08:45:45.013Z</time></trkpt><trkpt lat="43.3442797" lon="12.9469313"><ele>272.0</ele><time>2026-04-19T08:45:46.02Z</time></trkpt><trkpt lat="43.3442733" lon="12.947153"><ele>271.0</ele><time>2026-04-19T08:45:47.022Z</time></trkpt><trkpt lat="43.3442673" lon="12.9473597"><ele>270.0</ele><time>2026-04-19T08:45:48.019Z</time></trkpt><trkpt lat="43.3442654" lon="12.9475586"><ele>270.0</ele><time>2026-04-19T08:45:49.02Z</time></trkpt><trkpt lat="43.3442627" lon="12.9477485"><ele>270.0</ele><time>2026-04-19T08:45:50.022Z</time></trkpt><trkpt lat="43.3442717" lon="12.9479235"><ele>270.0</ele><time>2026-04-19T08:45:51.015Z</time></trkpt><trkpt lat="43.344293" lon="12.9480686"><ele>270.0</ele><time>2026-04-19T08:45:52.014Z</time></trkpt><trkpt lat="43.3443033" lon="12.9482031"><ele>270.0</ele><time>2026-04-19T08:45:53.017Z</time></trkpt><trkpt lat="43.344309" lon="12.9483154"><ele>270.0</ele><time>2026-04-19T08:45:54.013Z</time></trkpt><trkpt lat="43.3443104" lon="12.9484222"><ele>270.0</ele><time>2026-04-19T08:45:55.014Z</time></trkpt><trkpt lat="43.3443065" lon="12.9485287"><ele>270.0</ele><time>2026-04-19T08:45:56.015Z</time></trkpt><trkpt lat="43.3442986" lon="12.9486246"><ele>270.0</ele><time>2026-04-19T08:45:57.016Z</time></trkpt><trkpt lat="43.3442491" lon="12.9487829"><ele>270.0</ele><time>2026-04-19T08:45:59.022Z</time></trkpt><trkpt lat="43.3441997" lon="12.9488694"><ele>269.8</ele><time>2026-04-19T08:46:00.018Z</time></trkpt><trkpt lat="43.3441441" lon="12.9489676"><ele>269.6</ele><time>2026-04-19T08:46:01.016Z</time></trkpt><trkpt lat="43.3440921" lon="12.9490852"><ele>269.4</ele><time>2026-04-19T08:46:02.025Z</time></trkpt><trkpt lat="43.3440579" lon="12.9492338"><ele>269.2</ele><time>2026-04-19T08:46:03.024Z</time></trkpt><trkpt lat="43.3440452" lon="12.9494108"><ele>269.0</ele><time>2026-04-19T08:46:04.022Z</time></trkpt><trkpt lat="43.344049" lon="12.9496153"><ele>269.0</ele><time>2026-04-19T08:46:05.025Z</time></trkpt><trkpt lat="43.3440594" lon="12.949849"><ele>269.0</ele><time>2026-04-19T08:46:06.022Z</time></trkpt><trkpt lat="43.3440727" lon="12.9501103"><ele>269.0</ele><time>2026-04-19T08:46:07.02Z</time></trkpt><trkpt lat="43.3440711" lon="12.9503879"><ele>268.6666666666667</ele><time>2026-04-19T08:46:08.019Z</time></trkpt><trkpt lat="43.3440578" lon="12.9506605"><ele>268.3333333333333</ele><time>2026-04-19T08:46:09.022Z</time></trkpt><trkpt lat="43.3440408" lon="12.9509187"><ele>268.0</ele><time>2026-04-19T08:46:10.023Z</time></trkpt><trkpt lat="43.344027" lon="12.9511737"><ele>268.0</ele><time>2026-04-19T08:46:11.034Z</time></trkpt><trkpt lat="43.3440159" lon="12.9514067"><ele>268.0</ele><time>2026-04-19T08:46:12.022Z</time></trkpt><trkpt lat="43.3440133" lon="12.9516404"><ele>268.0</ele><time>2026-04-19T08:46:13.022Z</time></trkpt><trkpt lat="43.3440065" lon="12.9518685"><ele>266.66666666666663</ele><time>2026-04-19T08:46:14.02Z</time></trkpt><trkpt lat="43.3440054" lon="12.9520882"><ele>265.3333333333333</ele><time>2026-04-19T08:46:15.021Z</time></trkpt><trkpt lat="43.3439907" lon="12.9522955"><ele>264.0</ele><time>2026-04-19T08:46:16.019Z</time></trkpt><trkpt lat="43.3439826" lon="12.9524906"><ele>264.25</ele><time>2026-04-19T08:46:17.018Z</time></trkpt><trkpt lat="43.3439833" lon="12.9526686"><ele>264.5</ele><time>2026-04-19T08:46:18.019Z</time></trkpt><trkpt lat="43.3439781" lon="12.952846"><ele>264.75</ele><time>2026-04-19T08:46:19.02Z</time></trkpt><trkpt lat="43.3439771" lon="12.9530127"><ele>265.0</ele><time>2026-04-19T08:46:20.02Z</time></trkpt><trkpt lat="43.3439745" lon="12.9531845"><ele>265.0</ele><time>2026-04-19T08:46:21.023Z</time></trkpt><trkpt lat="43.3439743" lon="12.9533536"><ele>265.0</ele><time>2026-04-19T08:46:22.022Z</time></trkpt><trkpt lat="43.3439732" lon="12.9535269"><ele>265.0</ele><time>2026-04-19T08:46:23.021Z</time></trkpt><trkpt lat="43.3439742" lon="12.953702"><ele>265.0</ele><time>2026-04-19T08:46:24.021Z</time></trkpt><trkpt lat="43.3439749" lon="12.953872"><ele>264.8</ele><time>2026-04-19T08:46:25.015Z</time></trkpt><trkpt lat="43.3439824" lon="12.9540272"><ele>264.6</ele><time>2026-04-19T08:46:26.017Z</time></trkpt><trkpt lat="43.3439987" lon="12.9541699"><ele>264.4</ele><time>2026-04-19T08:46:27.024Z</time></trkpt><trkpt lat="43.3440142" lon="12.9542944"><ele>264.2</ele><time>2026-04-19T08:46:28.026Z</time></trkpt><trkpt lat="43.3440324" lon="12.954391"><ele>264.0</ele><time>2026-04-19T08:46:29.027Z</time></trkpt><trkpt lat="43.3440441" lon="12.9545551"><ele>262.59999999999997</ele><time>2026-04-19T08:46:31.022Z</time></trkpt><trkpt lat="43.3440239" lon="12.9546376"><ele>261.2</ele><time>2026-04-19T08:46:32.022Z</time></trkpt><trkpt lat="43.3439751" lon="12.9547229"><ele>259.79999999999995</ele><time>2026-04-19T08:46:33.02Z</time></trkpt><trkpt lat="43.3438893" lon="12.9547939"><ele>258.4</ele><time>2026-04-19T08:46:34.025Z</time></trkpt><trkpt lat="43.3437892" lon="12.9548451"><ele>257.0</ele><time>2026-04-19T08:46:35.015Z</time></trkpt><trkpt lat="43.3436696" lon="12.9548933"><ele>257.0</ele><time>2026-04-19T08:46:36.011Z</time></trkpt><trkpt lat="43.343532" lon="12.9549323"><ele>257.0</ele><time>2026-04-19T08:46:37.011Z</time></trkpt><trkpt lat="43.3433944" lon="12.954949"><ele>257.0</ele><time>2026-04-19T08:46:38.018Z</time></trkpt><trkpt lat="43.3432559" lon="12.954935"><ele>257.0</ele><time>2026-04-19T08:46:39.015Z</time></trkpt><trkpt lat="43.343125" lon="12.9548694"><ele>258.33333333333337</ele><time>2026-04-19T08:46:40.021Z</time></trkpt><trkpt lat="43.3430067" lon="12.9547467"><ele>259.6666666666667</ele><time>2026-04-19T08:46:41.005Z</time></trkpt><trkpt lat="43.3428981" lon="12.954607"><ele>261.0</ele><time>2026-04-19T08:46:42.034Z</time></trkpt><trkpt lat="43.3428329" lon="12.9544017"><ele>261.0</ele><time>2026-04-19T08:46:43.012Z</time></trkpt><trkpt lat="43.3427976" lon="12.9542055"><ele>261.0</ele><time>2026-04-19T08:46:44.011Z</time></trkpt><trkpt lat="43.3427489" lon="12.9540124"><ele>261.0</ele><time>2026-04-19T08:46:45.012Z</time></trkpt><trkpt lat="43.3426882" lon="12.9538152"><ele>261.6666666666667</ele><time>2026-04-19T08:46:46.018Z</time></trkpt><trkpt lat="43.342614" lon="12.9536261"><ele>262.33333333333337</ele><time>2026-04-19T08:46:47.016Z</time></trkpt><trkpt lat="43.3425081" lon="12.953453"><ele>263.0</ele><time>2026-04-19T08:46:48.017Z</time></trkpt><trkpt lat="43.3423767" lon="12.9533068"><ele>263.6666666666667</ele><time>2026-04-19T08:46:49.013Z</time></trkpt><trkpt lat="43.3422519" lon="12.9531724"><ele>264.3333333333333</ele><time>2026-04-19T08:46:50.012Z</time></trkpt><trkpt lat="43.3421231" lon="12.9530458"><ele>265.0</ele><time>2026-04-19T08:46:51.017Z</time></trkpt><trkpt lat="43.3419996" lon="12.9529355"><ele>265.0</ele><time>2026-04-19T08:46:52.013Z</time></trkpt><trkpt lat="43.3419104" lon="12.9527995"><ele>265.0</ele><time>2026-04-19T08:46:53.02Z</time></trkpt><trkpt lat="43.3418692" lon="12.9526193"><ele>265.0</ele><time>2026-04-19T08:46:54.017Z</time></trkpt><trkpt lat="43.3418633" lon="12.952429"><ele>265.0</ele><time>2026-04-19T08:46:55.017Z</time></trkpt><trkpt lat="43.3419079" lon="12.9522402"><ele>265.25</ele><time>2026-04-19T08:46:56.014Z</time></trkpt><trkpt lat="43.3419841" lon="12.9520709"><ele>265.5</ele><time>2026-04-19T08:46:57.015Z</time></trkpt><trkpt lat="43.3420779" lon="12.9519234"><ele>265.75</ele><time>2026-04-19T08:46:58.015Z</time></trkpt><trkpt lat="43.3421838" lon="12.951814"><ele>266.0</ele><time>2026-04-19T08:46:59.013Z</time></trkpt><trkpt lat="43.3422994" lon="12.9517395"><ele>266.2</ele><time>2026-04-19T08:47:00.016Z</time></trkpt><trkpt lat="43.3423896" lon="12.9517042"><ele>266.40000000000003</ele><time>2026-04-19T08:47:01.009Z</time></trkpt><trkpt lat="43.3424796" lon="12.9517099"><ele>266.6</ele><time>2026-04-19T08:47:02.006Z</time></trkpt><trkpt lat="43.3425664" lon="12.9517516"><ele>266.8</ele><time>2026-04-19T08:47:03.014Z</time></trkpt><trkpt lat="43.3426563" lon="12.9518008"><ele>267.0</ele><time>2026-04-19T08:47:04.014Z</time></trkpt><trkpt lat="43.3427377" lon="12.9518537"><ele>267.0</ele><time>2026-04-19T08:47:05.016Z</time></trkpt><trkpt lat="43.3428168" lon="12.9519197"><ele>267.0</ele><time>2026-04-19T08:47:06.013Z</time></trkpt><trkpt lat="43.3428892" lon="12.9520011"><ele>267.0</ele><time>2026-04-19T08:47:07.024Z</time></trkpt><trkpt lat="43.3429653" lon="12.9521071"><ele>267.0</ele><time>2026-04-19T08:47:08.014Z</time></trkpt><trkpt lat="43.3430319" lon="12.9522282"><ele>267.0</ele><time>2026-04-19T08:47:09.017Z</time></trkpt><trkpt lat="43.3430852" lon="12.9523653"><ele>267.0</ele><time>2026-04-19T08:47:10.019Z</time></trkpt><trkpt lat="43.3431248" lon="12.9525148"><ele>267.0</ele><time>2026-04-19T08:47:11.02Z</time></trkpt><trkpt lat="43.3431653" lon="12.9526758"><ele>267.0</ele><time>2026-04-19T08:47:12.02Z</time></trkpt><trkpt lat="43.3431989" lon="12.9528664"><ele>267.0</ele><time>2026-04-19T08:47:13.037Z</time></trkpt><trkpt lat="43.3432368" lon="12.9530692"><ele>266.3333333333333</ele><time>2026-04-19T08:47:14.015Z</time></trkpt><trkpt lat="43.343279" lon="12.9532982"><ele>265.66666666666663</ele><time>2026-04-19T08:47:15.014Z</time></trkpt><trkpt lat="43.3433362" lon="12.9535205"><ele>265.0</ele><time>2026-04-19T08:47:16.025Z</time></trkpt><trkpt lat="43.3434053" lon="12.9537653"><ele>264.3333333333333</ele><time>2026-04-19T08:47:17.021Z</time></trkpt><trkpt lat="43.3434611" lon="12.9540222"><ele>263.6666666666667</ele><time>2026-04-19T08:47:18.021Z</time></trkpt><trkpt lat="43.3435255" lon="12.9543031"><ele>263.0</ele><time>2026-04-19T08:47:19.019Z</time></trkpt><trkpt lat="43.3435858" lon="12.9545834"><ele>260.0</ele><time>2026-04-19T08:47:20.014Z</time></trkpt><trkpt lat="43.3436511" lon="12.9548827"><ele>257.0</ele><time>2026-04-19T08:47:21.014Z</time></trkpt><trkpt lat="43.3437231" lon="12.9551995"><ele>255.5</ele><time>2026-04-19T08:47:22.024Z</time></trkpt><trkpt lat="43.3438012" lon="12.9555266"><ele>254.0</ele><time>2026-04-19T08:47:23.024Z</time></trkpt><trkpt lat="43.3438855" lon="12.9558512"><ele>252.5</ele><time>2026-04-19T08:47:24.027Z</time></trkpt><trkpt lat="43.3439638" lon="12.9561703"><ele>251.0</ele><time>2026-04-19T08:47:25.029Z</time></trkpt><trkpt lat="43.3440415" lon="12.95649"><ele>250.5</ele><time>2026-04-19T08:47:26.026Z</time></trkpt><trkpt lat="43.3441119" lon="12.9567956"><ele>250.0</ele><time>2026-04-19T08:47:27.024Z</time></trkpt><trkpt lat="43.3441858" lon="12.957094"><ele>250.0</ele><time>2026-04-19T08:47:28.028Z</time></trkpt><trkpt lat="43.3442553" lon="12.9573685"><ele>250.0</ele><time>2026-04-19T08:47:29.026Z</time></trkpt><trkpt lat="43.3443237" lon="12.957631"><ele>250.0</ele><time>2026-04-19T08:47:30.022Z</time></trkpt><trkpt lat="43.3443796" lon="12.9578678"><ele>250.66666666666666</ele><time>2026-04-19T08:47:31.019Z</time></trkpt><trkpt lat="43.3444264" lon="12.958094"><ele>251.33333333333331</ele><time>2026-04-19T08:47:32.022Z</time></trkpt><trkpt lat="43.3444819" lon="12.9583144"><ele>252.0</ele><time>2026-04-19T08:47:33.028Z</time></trkpt><trkpt lat="43.3445374" lon="12.9585412"><ele>253.0</ele><time>2026-04-19T08:47:34.019Z</time></trkpt><trkpt lat="43.3445898" lon="12.9587809"><ele>254.0</ele><time>2026-04-19T08:47:35.023Z</time></trkpt><trkpt lat="43.3446492" lon="12.9590316"><ele>255.0</ele><time>2026-04-19T08:47:36.019Z</time></trkpt><trkpt lat="43.3446954" lon="12.9592822"><ele>258.3333333333333</ele><time>2026-04-19T08:47:37.023Z</time></trkpt><trkpt lat="43.3447402" lon="12.9595383"><ele>261.66666666666663</ele><time>2026-04-19T08:47:38.021Z</time></trkpt><trkpt lat="43.3447766" lon="12.9597883"><ele>265.0</ele><time>2026-04-19T08:47:39.018Z</time></trkpt><trkpt lat="43.3448095" lon="12.9600453"><ele>265.66666666666663</ele><time>2026-04-19T08:47:40.02Z</time></trkpt><trkpt lat="43.3448397" lon="12.9603061"><ele>266.3333333333333</ele><time>2026-04-19T08:47:41.021Z</time></trkpt><trkpt lat="43.3448705" lon="12.9605767"><ele>267.0</ele><time>2026-04-19T08:47:42.023Z</time></trkpt><trkpt lat="43.3448936" lon="12.9608523"><ele>268.0</ele><time>2026-04-19T08:47:43.021Z</time></trkpt><trkpt lat="43.3449133" lon="12.9611315"><ele>269.0</ele><time>2026-04-19T08:47:44.034Z</time></trkpt><trkpt lat="43.344924" lon="12.9614171"><ele>270.0</ele><time>2026-04-19T08:47:45.019Z</time></trkpt><trkpt lat="43.3449311" lon="12.9616974"><ele>270.0</ele><time>2026-04-19T08:47:46.022Z</time></trkpt><trkpt lat="43.3449365" lon="12.9619809"><ele>270.0</ele><time>2026-04-19T08:47:47.019Z</time></trkpt><trkpt lat="43.3449339" lon="12.96227"><ele>270.0</ele><time>2026-04-19T08:47:48.021Z</time></trkpt><trkpt lat="43.3449263" lon="12.962566"><ele>270.0</ele><time>2026-04-19T08:47:49.016Z</time></trkpt><trkpt lat="43.3449152" lon="12.962859"><ele>270.0</ele><time>2026-04-19T08:47:50.018Z</time></trkpt><trkpt lat="43.3448997" lon="12.9631564"><ele>270.0</ele><time>2026-04-19T08:47:51.015Z</time></trkpt><trkpt lat="43.3448965" lon="12.963463"><ele>270.0</ele><time>2026-04-19T08:47:52.014Z</time></trkpt><trkpt lat="43.3448784" lon="12.9637673"><ele>270.0</ele><time>2026-04-19T08:47:53.013Z</time></trkpt><trkpt lat="43.3448564" lon="12.9640768"><ele>270.0</ele><time>2026-04-19T08:47:54.01Z</time></trkpt><trkpt lat="43.3448289" lon="12.9643886"><ele>270.5</ele><time>2026-04-19T08:47:55.013Z</time></trkpt><trkpt lat="43.3447955" lon="12.9647228"><ele>271.0</ele><time>2026-04-19T08:47:56.013Z</time></trkpt><trkpt lat="43.3447677" lon="12.9650606"><ele>272.0</ele><time>2026-04-19T08:47:57.012Z</time></trkpt><trkpt lat="43.3447374" lon="12.9653946"><ele>273.0</ele><time>2026-04-19T08:47:58.013Z</time></trkpt><trkpt lat="43.3447007" lon="12.9657393"><ele>270.5</ele><time>2026-04-19T08:47:59.019Z</time></trkpt><trkpt lat="43.3446671" lon="12.9660862"><ele>268.0</ele><time>2026-04-19T08:48:00.016Z</time></trkpt><trkpt lat="43.344631" lon="12.9664391"><ele>268.0</ele><time>2026-04-19T08:48:01.019Z</time></trkpt><trkpt lat="43.3445947" lon="12.9667993"><ele>268.0</ele><time>2026-04-19T08:48:02.019Z</time></trkpt><trkpt lat="43.3445533" lon="12.9671722"><ele>268.5</ele><time>2026-04-19T08:48:03.016Z</time></trkpt><trkpt lat="43.344521" lon="12.9675567"><ele>269.0</ele><time>2026-04-19T08:48:04.018Z</time></trkpt><trkpt lat="43.3444875" lon="12.9679511"><ele>269.0</ele><time>2026-04-19T08:48:05.02Z</time></trkpt><trkpt lat="43.344451" lon="12.9683272"><ele>269.0</ele><time>2026-04-19T08:48:06.021Z</time></trkpt><trkpt lat="43.344414" lon="12.9686926"><ele>269.5</ele><time>2026-04-19T08:48:07.019Z</time></trkpt><trkpt lat="43.3443812" lon="12.969049"><ele>270.0</ele><time>2026-04-19T08:48:08.021Z</time></trkpt><trkpt lat="43.3443407" lon="12.9694096"><ele>267.5</ele><time>2026-04-19T08:48:09.022Z</time></trkpt><trkpt lat="43.3443065" lon="12.9697662"><ele>265.0</ele><time>2026-04-19T08:48:10.021Z</time></trkpt><trkpt lat="43.3442724" lon="12.970115"><ele>263.5</ele><time>2026-04-19T08:48:11.018Z</time></trkpt><trkpt lat="43.3442406" lon="12.9704642"><ele>262.0</ele><time>2026-04-19T08:48:12.022Z</time></trkpt><trkpt lat="43.3442182" lon="12.9708072"><ele>260.5</ele><time>2026-04-19T08:48:13.015Z</time></trkpt><trkpt lat="43.3441909" lon="12.9711471"><ele>259.0</ele><time>2026-04-19T08:48:14.01Z</time></trkpt><trkpt lat="43.3441628" lon="12.9714897"><ele>259.5</ele><time>2026-04-19T08:48:15.026Z</time></trkpt><trkpt lat="43.344129" lon="12.9718301"><ele>260.0</ele><time>2026-04-19T08:48:16.016Z</time></trkpt><trkpt lat="43.3440925" lon="12.9721712"><ele>260.0</ele><time>2026-04-19T08:48:17.018Z</time></trkpt><trkpt lat="43.3440641" lon="12.9725058"><ele>260.0</ele><time>2026-04-19T08:48:18.019Z</time></trkpt><trkpt lat="43.3440303" lon="12.9728458"><ele>260.5</ele><time>2026-04-19T08:48:19.017Z</time></trkpt><trkpt lat="43.3440056" lon="12.9731758"><ele>261.0</ele><time>2026-04-19T08:48:20.019Z</time></trkpt><trkpt lat="43.3439782" lon="12.9735076"><ele>260.0</ele><time>2026-04-19T08:48:21.014Z</time></trkpt><trkpt lat="43.3439488" lon="12.9738412"><ele>259.0</ele><time>2026-04-19T08:48:22.015Z</time></trkpt><trkpt lat="43.3439212" lon="12.9741825"><ele>257.5</ele><time>2026-04-19T08:48:23.018Z</time></trkpt><trkpt lat="43.3438959" lon="12.9745259"><ele>256.0</ele><time>2026-04-19T08:48:24.015Z</time></trkpt><trkpt lat="43.3438818" lon="12.9748706"><ele>256.5</ele><time>2026-04-19T08:48:25.015Z</time></trkpt><trkpt lat="43.343875" lon="12.97522"><ele>257.0</ele><time>2026-04-19T08:48:26.012Z</time></trkpt><trkpt lat="43.3438852" lon="12.975578"><ele>256.0</ele><time>2026-04-19T08:48:27.013Z</time></trkpt><trkpt lat="43.343884" lon="12.9759464"><ele>255.0</ele><time>2026-04-19T08:48:28.012Z</time></trkpt><trkpt lat="43.3438947" lon="12.9763113"><ele>255.0</ele><time>2026-04-19T08:48:29.016Z</time></trkpt><trkpt lat="43.3439127" lon="12.9766657"><ele>255.0</ele><time>2026-04-19T08:48:30.009Z</time></trkpt><trkpt lat="43.3439388" lon="12.9770162"><ele>255.5</ele><time>2026-04-19T08:48:31.01Z</time></trkpt><trkpt lat="43.3439763" lon="12.9773737"><ele>256.0</ele><time>2026-04-19T08:48:32.01Z</time></trkpt><trkpt lat="43.3440213" lon="12.9777329"><ele>256.0</ele><time>2026-04-19T08:48:33.009Z</time></trkpt><trkpt lat="43.3440725" lon="12.9780887"><ele>256.0</ele><time>2026-04-19T08:48:34.013Z</time></trkpt><trkpt lat="43.3441342" lon="12.978437"><ele>255.5</ele><time>2026-04-19T08:48:35.012Z</time></trkpt><trkpt lat="43.3442001" lon="12.9787933"><ele>255.0</ele><time>2026-04-19T08:48:36.011Z</time></trkpt><trkpt lat="43.3442711" lon="12.9791433"><ele>256.0</ele><time>2026-04-19T08:48:37.015Z</time></trkpt><trkpt lat="43.3443549" lon="12.9794961"><ele>257.0</ele><time>2026-04-19T08:48:38.013Z</time></trkpt><trkpt lat="43.3444448" lon="12.9798296"><ele>254.0</ele><time>2026-04-19T08:48:39.015Z</time></trkpt><trkpt lat="43.3445316" lon="12.9801717"><ele>251.0</ele><time>2026-04-19T08:48:40.013Z</time></trkpt><trkpt lat="43.3446143" lon="12.980496"><ele>251.0</ele><time>2026-04-19T08:48:41.012Z</time></trkpt><trkpt lat="43.3446971" lon="12.9808236"><ele>251.0</ele><time>2026-04-19T08:48:42.014Z</time></trkpt><trkpt lat="43.3447718" lon="12.9811434"><ele>249.0</ele><time>2026-04-19T08:48:43.013Z</time></trkpt><trkpt lat="43.3448536" lon="12.9814529"><ele>247.0</ele><time>2026-04-19T08:48:44.011Z</time></trkpt><trkpt lat="43.3449408" lon="12.9817599"><ele>247.0</ele><time>2026-04-19T08:48:45.01Z</time></trkpt><trkpt lat="43.3450262" lon="12.9820569"><ele>247.0</ele><time>2026-04-19T08:48:46.019Z</time></trkpt><trkpt lat="43.3451122" lon="12.9823485"><ele>243.5</ele><time>2026-04-19T08:48:47.005Z</time></trkpt><trkpt lat="43.3451988" lon="12.9826441"><ele>240.0</ele><time>2026-04-19T08:48:48.003Z</time></trkpt><trkpt lat="43.3452832" lon="12.9829373"><ele>240.0</ele><time>2026-04-19T08:48:49.005Z</time></trkpt><trkpt lat="43.3453638" lon="12.9832398"><ele>240.0</ele><time>2026-04-19T08:48:50.002Z</time></trkpt><trkpt lat="43.3454454" lon="12.9835344"><ele>240.0</ele><time>2026-04-19T08:48:51.004Z</time></trkpt><trkpt lat="43.3455294" lon="12.9838392"><ele>240.0</ele><time>2026-04-19T08:48:51.999Z</time></trkpt><trkpt lat="43.345614" lon="12.9841455"><ele>236.0</ele><time>2026-04-19T08:48:53.002Z</time></trkpt><trkpt lat="43.3456966" lon="12.9844514"><ele>232.0</ele><time>2026-04-19T08:48:54.002Z</time></trkpt><trkpt lat="43.3457815" lon="12.9847546"><ele>233.0</ele><time>2026-04-19T08:48:55.001Z</time></trkpt><trkpt lat="43.3458633" lon="12.9850654"><ele>234.0</ele><time>2026-04-19T08:48:55.999Z</time></trkpt><trkpt lat="43.3459453" lon="12.9853761"><ele>234.0</ele><time>2026-04-19T08:48:56.997Z</time></trkpt><trkpt lat="43.3460295" lon="12.9856847"><ele>234.0</ele><time>2026-04-19T08:48:57.999Z</time></trkpt><trkpt lat="43.3461072" lon="12.9859948"><ele>234.5</ele><time>2026-04-19T08:48:59.006Z</time></trkpt><trkpt lat="43.3461851" lon="12.9863052"><ele>235.0</ele><time>2026-04-19T08:48:59.998Z</time></trkpt><trkpt lat="43.3462619" lon="12.9865996"><ele>234.0</ele><time>2026-04-19T08:49:00.999Z</time></trkpt><trkpt lat="43.3463435" lon="12.9868994"><ele>233.0</ele><time>2026-04-19T08:49:01.997Z</time></trkpt><trkpt lat="43.3464218" lon="12.9871922"><ele>235.33333333333334</ele><time>2026-04-19T08:49:02.996Z</time></trkpt><trkpt lat="43.3465054" lon="12.9874785"><ele>237.66666666666669</ele><time>2026-04-19T08:49:04Z</time></trkpt><trkpt lat="43.3465901" lon="12.9877629"><ele>240.0</ele><time>2026-04-19T08:49:04.995Z</time></trkpt><trkpt lat="43.3466783" lon="12.988032"><ele>240.0</ele><time>2026-04-19T08:49:05.991Z</time></trkpt><trkpt lat="43.3467795" lon="12.9883021"><ele>240.0</ele><time>2026-04-19T08:49:06.99Z</time></trkpt><trkpt lat="43.3468982" lon="12.9885669"><ele>240.0</ele><time>2026-04-19T08:49:07.993Z</time></trkpt><trkpt lat="43.3470321" lon="12.9888229"><ele>240.0</ele><time>2026-04-19T08:49:09.001Z</time></trkpt><trkpt lat="43.3471644" lon="12.9890808"><ele>240.0</ele><time>2026-04-19T08:49:09.983Z</time></trkpt><trkpt lat="43.3472904" lon="12.9893457"><ele>251.5</ele><time>2026-04-19T08:49:10.992Z</time></trkpt><trkpt lat="43.3474202" lon="12.9896158"><ele>263.0</ele><time>2026-04-19T08:49:11.987Z</time></trkpt><trkpt lat="43.3475497" lon="12.9898861"><ele>264.5</ele><time>2026-04-19T08:49:12.986Z</time></trkpt><trkpt lat="43.347678" lon="12.9901757"><ele>266.0</ele><time>2026-04-19T08:49:13.982Z</time></trkpt><trkpt lat="43.347809" lon="12.9904572"><ele>266.0</ele><time>2026-04-19T08:49:14.977Z</time></trkpt><trkpt lat="43.347939" lon="12.9907288"><ele>266.0</ele><time>2026-04-19T08:49:15.969Z</time></trkpt><trkpt lat="43.3480698" lon="12.9909978"><ele>250.0</ele><time>2026-04-19T08:49:16.96Z</time></trkpt><trkpt lat="43.3482006" lon="12.9912668"><ele>234.0</ele><time>2026-04-19T08:49:17.922Z</time></trkpt><trkpt lat="43.3462572" lon="12.9881231"><ele>229.0</ele><time>2026-04-19T08:49:26.391Z</time></trkpt><trkpt lat="43.3500774" lon="12.9950215"><ele>229.0</ele><time>2026-04-19T08:49:30.992Z</time></trkpt><trkpt lat="43.3501647" lon="12.9952839"><ele>229.0</ele><time>2026-04-19T08:49:31.992Z</time></trkpt><trkpt lat="43.3503019" lon="12.9955322"><ele>229.0</ele><time>2026-04-19T08:49:32.999Z</time></trkpt><trkpt lat="43.3504369" lon="12.9957533"><ele>228.33333333333331</ele><time>2026-04-19T08:49:34.009Z</time></trkpt><trkpt lat="43.3505625" lon="12.995967"><ele>227.66666666666669</ele><time>2026-04-19T08:49:35.007Z</time></trkpt><trkpt lat="43.3506856" lon="12.9961846"><ele>227.0</ele><time>2026-04-19T08:49:36.007Z</time></trkpt><trkpt lat="43.3507946" lon="12.9963894"><ele>227.0</ele><time>2026-04-19T08:49:37.005Z</time></trkpt><trkpt lat="43.3508921" lon="12.996587"><ele>227.0</ele><time>2026-04-19T08:49:38.004Z</time></trkpt><trkpt lat="43.3509764" lon="12.9967647"><ele>227.0</ele><time>2026-04-19T08:49:39.007Z</time></trkpt><trkpt lat="43.3510639" lon="12.9969356"><ele>228.0</ele><time>2026-04-19T08:49:40.009Z</time></trkpt><trkpt lat="43.3511515" lon="12.9971073"><ele>229.0</ele><time>2026-04-19T08:49:41.009Z</time></trkpt><trkpt lat="43.3512331" lon="12.997276"><ele>230.0</ele><time>2026-04-19T08:49:42.012Z</time></trkpt><trkpt lat="43.3513172" lon="12.9974451"><ele>231.0</ele><time>2026-04-19T08:49:43.008Z</time></trkpt><trkpt lat="43.3514056" lon="12.9976062"><ele>231.25</ele><time>2026-04-19T08:49:44.011Z</time></trkpt><trkpt lat="43.3514904" lon="12.997766"><ele>231.5</ele><time>2026-04-19T08:49:45.01Z</time></trkpt><trkpt lat="43.3515779" lon="12.9979268"><ele>231.75</ele><time>2026-04-19T08:49:46.013Z</time></trkpt><trkpt lat="43.3516723" lon="12.998074"><ele>232.0</ele><time>2026-04-19T08:49:47.011Z</time></trkpt><trkpt lat="43.3517775" lon="12.9982331"><ele>230.33333333333331</ele><time>2026-04-19T08:49:48.033Z</time></trkpt><trkpt lat="43.3518865" lon="12.9983905"><ele>228.66666666666669</ele><time>2026-04-19T08:49:49.005Z</time></trkpt><trkpt lat="43.3519974" lon="12.9985554"><ele>227.0</ele><time>2026-04-19T08:49:50.009Z</time></trkpt><trkpt lat="43.3521089" lon="12.9987179"><ele>227.0</ele><time>2026-04-19T08:49:51.006Z</time></trkpt><trkpt lat="43.3522315" lon="12.9988758"><ele>227.0</ele><time>2026-04-19T08:49:52.002Z</time></trkpt><trkpt lat="43.3523646" lon="12.999025"><ele>227.0</ele><time>2026-04-19T08:49:53.003Z</time></trkpt><trkpt lat="43.3525009" lon="12.9991591"><ele>227.0</ele><time>2026-04-19T08:49:54.003Z</time></trkpt><trkpt lat="43.3526489" lon="12.9992763"><ele>227.0</ele><time>2026-04-19T08:49:55.005Z</time></trkpt><trkpt lat="43.3528014" lon="12.9993824"><ele>227.0</ele><time>2026-04-19T08:49:56.001Z</time></trkpt><trkpt lat="43.3529398" lon="12.9994787"><ele>226.75</ele><time>2026-04-19T08:49:57.006Z</time></trkpt><trkpt lat="43.3530577" lon="12.9995519"><ele>226.5</ele><time>2026-04-19T08:49:58.002Z</time></trkpt><trkpt lat="43.3531724" lon="12.9996135"><ele>226.25</ele><time>2026-04-19T08:49:59.009Z</time></trkpt><trkpt lat="43.3532774" lon="12.9996617"><ele>226.0</ele><time>2026-04-19T08:50:00.003Z</time></trkpt><trkpt lat="43.3533714" lon="12.9997158"><ele>226.0</ele><time>2026-04-19T08:50:01.001Z</time></trkpt><trkpt lat="43.3534471" lon="12.9997468"><ele>226.0</ele><time>2026-04-19T08:50:02Z</time></trkpt><trkpt lat="43.3535178" lon="12.9997767"><ele>226.0</ele><time>2026-04-19T08:50:03.003Z</time></trkpt><trkpt lat="43.3535852" lon="12.9998015"><ele>226.0</ele><time>2026-04-19T08:50:04.004Z</time></trkpt><trkpt lat="43.3536508" lon="12.9998365"><ele>226.0</ele><time>2026-04-19T08:50:05.007Z</time></trkpt><trkpt lat="43.3537112" lon="12.9998788"><ele>226.0</ele><time>2026-04-19T08:50:06.003Z</time></trkpt><trkpt lat="43.3537671" lon="12.9999323"><ele>226.0</ele><time>2026-04-19T08:50:07.003Z</time></trkpt><trkpt lat="43.3538099" lon="12.999998"><ele>226.0</ele><time>2026-04-19T08:50:08.003Z</time></trkpt><trkpt lat="43.3538457" lon="13.0000808"><ele>226.0</ele><time>2026-04-19T08:50:09.005Z</time></trkpt><trkpt lat="43.3538751" lon="13.0001683"><ele>226.0</ele><time>2026-04-19T08:50:10.006Z</time></trkpt><trkpt lat="43.353905" lon="13.000248"><ele>226.0</ele><time>2026-04-19T08:50:11.008Z</time></trkpt><trkpt lat="43.3539463" lon="13.0003255"><ele>226.0</ele><time>2026-04-19T08:50:12.001Z</time></trkpt><trkpt lat="43.3539985" lon="13.0003871"><ele>226.0</ele><time>2026-04-19T08:50:13.002Z</time></trkpt><trkpt lat="43.3540594" lon="13.0004316"><ele>226.0</ele><time>2026-04-19T08:50:14.009Z</time></trkpt><trkpt lat="43.3541264" lon="13.000457"><ele>226.33333333333331</ele><time>2026-04-19T08:50:14.993Z</time></trkpt><trkpt lat="43.3542011" lon="13.0004654"><ele>226.66666666666666</ele><time>2026-04-19T08:50:16.01Z</time></trkpt><trkpt lat="43.3542839" lon="13.0004711"><ele>227.0</ele><time>2026-04-19T08:50:17.004Z</time></trkpt><trkpt lat="43.3543646" lon="13.0005002"><ele>227.33333333333331</ele><time>2026-04-19T08:50:18.02Z</time></trkpt><trkpt lat="43.3544182" lon="13.0005714"><ele>227.66666666666666</ele><time>2026-04-19T08:50:19.005Z</time></trkpt><trkpt lat="43.3543717" lon="13.0007212"><ele>228.0</ele><time>2026-04-19T08:50:21.008Z</time></trkpt><trkpt lat="43.3542894" lon="13.0007779"><ele>228.25</ele><time>2026-04-19T08:50:22Z</time></trkpt><trkpt lat="43.3542033" lon="13.0008334"><ele>228.5</ele><time>2026-04-19T08:50:23Z</time></trkpt><trkpt lat="43.3541036" lon="13.0008865"><ele>228.75</ele><time>2026-04-19T08:50:23.998Z</time></trkpt><trkpt lat="43.3539887" lon="13.0009406"><ele>229.0</ele><time>2026-04-19T08:50:25.005Z</time></trkpt><trkpt lat="43.3538421" lon="13.0010112"><ele>229.0</ele><time>2026-04-19T08:50:26.008Z</time></trkpt><trkpt lat="43.3536613" lon="13.0010877"><ele>229.0</ele><time>2026-04-19T08:50:27.006Z</time></trkpt><trkpt lat="43.3534215" lon="13.0011372"><ele>229.0</ele><time>2026-04-19T08:50:28.001Z</time></trkpt><trkpt lat="43.3531867" lon="13.0012063"><ele>229.33333333333331</ele><time>2026-04-19T08:50:29.009Z</time></trkpt><trkpt lat="43.3529707" lon="13.0012962"><ele>229.66666666666669</ele><time>2026-04-19T08:50:30.002Z</time></trkpt><trkpt lat="43.3527707" lon="13.0013723"><ele>230.0</ele><time>2026-04-19T08:50:31.003Z</time></trkpt><trkpt lat="43.3525643" lon="13.0014571"><ele>230.0</ele><time>2026-04-19T08:50:32.003Z</time></trkpt><trkpt lat="43.3523651" lon="13.0015412"><ele>230.0</ele><time>2026-04-19T08:50:33.002Z</time></trkpt><trkpt lat="43.3521526" lon="13.0016227"><ele>230.0</ele><time>2026-04-19T08:50:34.005Z</time></trkpt><trkpt lat="43.351937" lon="13.0016946"><ele>231.5</ele><time>2026-04-19T08:50:35.003Z</time></trkpt><trkpt lat="43.3517107" lon="13.0017735"><ele>233.0</ele><time>2026-04-19T08:50:36.003Z</time></trkpt><trkpt lat="43.3514821" lon="13.0018543"><ele>234.5</ele><time>2026-04-19T08:50:37.002Z</time></trkpt><trkpt lat="43.3512559" lon="13.0019268"><ele>236.0</ele><time>2026-04-19T08:50:38.003Z</time></trkpt><trkpt lat="43.351026" lon="13.0019962"><ele>236.0</ele><time>2026-04-19T08:50:39.001Z</time></trkpt><trkpt lat="43.3507943" lon="13.0020565"><ele>236.0</ele><time>2026-04-19T08:50:40.002Z</time></trkpt><trkpt lat="43.3505511" lon="13.0021061"><ele>237.0</ele><time>2026-04-19T08:50:41.001Z</time></trkpt><trkpt lat="43.3503035" lon="13.0021472"><ele>238.0</ele><time>2026-04-19T08:50:42.003Z</time></trkpt><trkpt lat="43.35006" lon="13.002185"><ele>238.0</ele><time>2026-04-19T08:50:43Z</time></trkpt><trkpt lat="43.3498272" lon="13.0022204"><ele>238.0</ele><time>2026-04-19T08:50:44Z</time></trkpt><trkpt lat="43.3496072" lon="13.0022441"><ele>238.66666666666666</ele><time>2026-04-19T08:50:44.999Z</time></trkpt><trkpt lat="43.3493858" lon="13.0022373"><ele>239.33333333333331</ele><time>2026-04-19T08:50:46.001Z</time></trkpt><trkpt lat="43.3491917" lon="13.0021822"><ele>240.0</ele><time>2026-04-19T08:50:47.001Z</time></trkpt><trkpt lat="43.3490125" lon="13.002056"><ele>239.66666666666669</ele><time>2026-04-19T08:50:48.001Z</time></trkpt><trkpt lat="43.3488529" lon="13.0018719"><ele>239.33333333333334</ele><time>2026-04-19T08:50:49.014Z</time></trkpt><trkpt lat="43.3487188" lon="13.0016512"><ele>239.0</ele><time>2026-04-19T08:50:50Z</time></trkpt><trkpt lat="43.348588" lon="13.0014137"><ele>239.0</ele><time>2026-04-19T08:50:50.996Z</time></trkpt><trkpt lat="43.3484673" lon="13.0011748"><ele>239.0</ele><time>2026-04-19T08:50:52Z</time></trkpt><trkpt lat="43.3483475" lon="13.0009338"><ele>239.0</ele><time>2026-04-19T08:50:53Z</time></trkpt><trkpt lat="43.3482247" lon="13.0007"><ele>239.66666666666669</ele><time>2026-04-19T08:50:54.001Z</time></trkpt><trkpt lat="43.3481103" lon="13.0004771"><ele>240.33333333333331</ele><time>2026-04-19T08:50:55.005Z</time></trkpt><trkpt lat="43.3479917" lon="13.0002608"><ele>241.0</ele><time>2026-04-19T08:50:56.007Z</time></trkpt><trkpt lat="43.3478791" lon="13.0000532"><ele>241.0</ele><time>2026-04-19T08:50:57.008Z</time></trkpt><trkpt lat="43.3477584" lon="12.999867"><ele>241.0</ele><time>2026-04-19T08:50:58.005Z</time></trkpt><trkpt lat="43.3476557" lon="12.999679"><ele>241.0</ele><time>2026-04-19T08:50:59.01Z</time></trkpt><trkpt lat="43.3475606" lon="12.9995064"><ele>241.0</ele><time>2026-04-19T08:51:00.006Z</time></trkpt><trkpt lat="43.3474694" lon="12.9993353"><ele>241.0</ele><time>2026-04-19T08:51:01.006Z</time></trkpt><trkpt lat="43.3473824" lon="12.9991877"><ele>241.0</ele><time>2026-04-19T08:51:02.005Z</time></trkpt><trkpt lat="43.3473053" lon="12.9990415"><ele>241.0</ele><time>2026-04-19T08:51:03.006Z</time></trkpt><trkpt lat="43.3472409" lon="12.9988899"><ele>242.0</ele><time>2026-04-19T08:51:04.003Z</time></trkpt><trkpt lat="43.3471625" lon="12.9987594"><ele>243.0</ele><time>2026-04-19T08:51:05.007Z</time></trkpt><trkpt lat="43.3470906" lon="12.9986226"><ele>244.0</ele><time>2026-04-19T08:51:06.008Z</time></trkpt><trkpt lat="43.3470182" lon="12.9984943"><ele>245.0</ele><time>2026-04-19T08:51:07.007Z</time></trkpt><trkpt lat="43.3469519" lon="12.9983566"><ele>244.0</ele><time>2026-04-19T08:51:08.008Z</time></trkpt><trkpt lat="43.346864" lon="12.9982236"><ele>243.0</ele><time>2026-04-19T08:51:09.007Z</time></trkpt><trkpt lat="43.3467818" lon="12.9980761"><ele>242.0</ele><time>2026-04-19T08:51:10.006Z</time></trkpt><trkpt lat="43.3466957" lon="12.9979149"><ele>241.0</ele><time>2026-04-19T08:51:11.007Z</time></trkpt><trkpt lat="43.3466149" lon="12.9977399"><ele>241.0</ele><time>2026-04-19T08:51:12.008Z</time></trkpt><trkpt lat="43.3465163" lon="12.9975554"><ele>241.0</ele><time>2026-04-19T08:51:13.004Z</time></trkpt><trkpt lat="43.3464235" lon="12.9973835"><ele>241.0</ele><time>2026-04-19T08:51:14.008Z</time></trkpt><trkpt lat="43.3463423" lon="12.9972294"><ele>240.5</ele><time>2026-04-19T08:51:15.002Z</time></trkpt><trkpt lat="43.3462495" lon="12.9971195"><ele>240.0</ele><time>2026-04-19T08:51:16.005Z</time></trkpt><trkpt lat="43.3461428" lon="12.9970698"><ele>239.5</ele><time>2026-04-19T08:51:17.009Z</time></trkpt><trkpt lat="43.3460327" lon="12.9970821"><ele>239.0</ele><time>2026-04-19T08:51:18.009Z</time></trkpt><trkpt lat="43.3459093" lon="12.9971622"><ele>239.0</ele><time>2026-04-19T08:51:19.01Z</time></trkpt><trkpt lat="43.3457818" lon="12.997288"><ele>239.0</ele><time>2026-04-19T08:51:20.019Z</time></trkpt><trkpt lat="43.3456832" lon="12.9974567"><ele>239.0</ele><time>2026-04-19T08:51:21.003Z</time></trkpt><trkpt lat="43.3455891" lon="12.997626"><ele>239.33333333333334</ele><time>2026-04-19T08:51:22.003Z</time></trkpt><trkpt lat="43.3454704" lon="12.997774"><ele>239.66666666666669</ele><time>2026-04-19T08:51:23Z</time></trkpt><trkpt lat="43.3453307" lon="12.9978939"><ele>240.0</ele><time>2026-04-19T08:51:24.002Z</time></trkpt><trkpt lat="43.3451634" lon="12.9979996"><ele>240.0</ele><time>2026-04-19T08:51:25.002Z</time></trkpt><trkpt lat="43.344988" lon="12.9980741"><ele>240.0</ele><time>2026-04-19T08:51:26.006Z</time></trkpt><trkpt lat="43.3448058" lon="12.9981249"><ele>240.0</ele><time>2026-04-19T08:51:27.008Z</time></trkpt><trkpt lat="43.3446196" lon="12.9981591"><ele>240.33333333333331</ele><time>2026-04-19T08:51:28.005Z</time></trkpt><trkpt lat="43.3444275" lon="12.9981813"><ele>240.66666666666666</ele><time>2026-04-19T08:51:29.01Z</time></trkpt><trkpt lat="43.3442303" lon="12.9981999"><ele>241.0</ele><time>2026-04-19T08:51:30.007Z</time></trkpt><trkpt lat="43.3440273" lon="12.9982136"><ele>241.66666666666666</ele><time>2026-04-19T08:51:31.007Z</time></trkpt><trkpt lat="43.343817" lon="12.9982369"><ele>242.33333333333331</ele><time>2026-04-19T08:51:32.006Z</time></trkpt><trkpt lat="43.343603" lon="12.9982627"><ele>243.0</ele><time>2026-04-19T08:51:33.007Z</time></trkpt><trkpt lat="43.3433833" lon="12.9982937"><ele>243.0</ele><time>2026-04-19T08:51:34.007Z</time></trkpt><trkpt lat="43.3431723" lon="12.9983246"><ele>243.0</ele><time>2026-04-19T08:51:35.007Z</time></trkpt><trkpt lat="43.3429482" lon="12.9983562"><ele>243.0</ele><time>2026-04-19T08:51:36.006Z</time></trkpt><trkpt lat="43.3427192" lon="12.9983892"><ele>246.33333333333331</ele><time>2026-04-19T08:51:37.006Z</time></trkpt><trkpt lat="43.3424953" lon="12.9984162"><ele>249.66666666666666</ele><time>2026-04-19T08:51:38.007Z</time></trkpt><trkpt lat="43.3422731" lon="12.9984419"><ele>253.0</ele><time>2026-04-19T08:51:39.005Z</time></trkpt><trkpt lat="43.3420479" lon="12.9984682"><ele>254.0</ele><time>2026-04-19T08:51:40.008Z</time></trkpt><trkpt lat="43.3418259" lon="12.9984997"><ele>255.0</ele><time>2026-04-19T08:51:41.006Z</time></trkpt><trkpt lat="43.3415988" lon="12.99853"><ele>254.0</ele><time>2026-04-19T08:51:42.007Z</time></trkpt><trkpt lat="43.3413749" lon="12.9985522"><ele>253.0</ele><time>2026-04-19T08:51:43.007Z</time></trkpt><trkpt lat="43.3411489" lon="12.9985732"><ele>253.0</ele><time>2026-04-19T08:51:44.004Z</time></trkpt><trkpt lat="43.3409346" lon="12.9986005"><ele>253.0</ele><time>2026-04-19T08:51:45.008Z</time></trkpt><trkpt lat="43.3407234" lon="12.9986207"><ele>253.0</ele><time>2026-04-19T08:51:46.008Z</time></trkpt><trkpt lat="43.3405105" lon="12.9986387"><ele>253.33333333333331</ele><time>2026-04-19T08:51:47.007Z</time></trkpt><trkpt lat="43.3403018" lon="12.9986638"><ele>253.66666666666669</ele><time>2026-04-19T08:51:48.009Z</time></trkpt><trkpt lat="43.3401069" lon="12.998694"><ele>254.0</ele><time>2026-04-19T08:51:49.007Z</time></trkpt><trkpt lat="43.3399154" lon="12.9987239"><ele>254.0</ele><time>2026-04-19T08:51:50.009Z</time></trkpt><trkpt lat="43.3397247" lon="12.9987542"><ele>254.0</ele><time>2026-04-19T08:51:51.021Z</time></trkpt><trkpt lat="43.3395274" lon="12.9987888"><ele>254.0</ele><time>2026-04-19T08:51:52.005Z</time></trkpt><trkpt lat="43.3393246" lon="12.9988133"><ele>253.66666666666669</ele><time>2026-04-19T08:51:53.006Z</time></trkpt><trkpt lat="43.3391246" lon="12.9988388"><ele>253.33333333333331</ele><time>2026-04-19T08:51:54.006Z</time></trkpt><trkpt lat="43.3389193" lon="12.9988658"><ele>253.0</ele><time>2026-04-19T08:51:55.006Z</time></trkpt><trkpt lat="43.3387177" lon="12.998879"><ele>252.33333333333331</ele><time>2026-04-19T08:51:56.005Z</time></trkpt><trkpt lat="43.3385102" lon="12.9989068"><ele>251.66666666666669</ele><time>2026-04-19T08:51:57.008Z</time></trkpt><trkpt lat="43.3382951" lon="12.9989339"><ele>251.0</ele><time>2026-04-19T08:51:58.006Z</time></trkpt><trkpt lat="43.3380806" lon="12.9989579"><ele>250.33333333333334</ele><time>2026-04-19T08:51:59.015Z</time></trkpt><trkpt lat="43.3378703" lon="12.9989938"><ele>249.66666666666669</ele><time>2026-04-19T08:52:00.007Z</time></trkpt><trkpt lat="43.3376608" lon="12.9990341"><ele>249.0</ele><time>2026-04-19T08:52:01.007Z</time></trkpt><trkpt lat="43.3374461" lon="12.9990615"><ele>249.0</ele><time>2026-04-19T08:52:02.008Z</time></trkpt><trkpt lat="43.3372281" lon="12.9990755"><ele>249.0</ele><time>2026-04-19T08:52:03.005Z</time></trkpt><trkpt lat="43.3370014" lon="12.9990858"><ele>249.0</ele><time>2026-04-19T08:52:04.001Z</time></trkpt><trkpt lat="43.3367896" lon="12.9990856"><ele>249.33333333333331</ele><time>2026-04-19T08:52:05.005Z</time></trkpt><trkpt lat="43.3365633" lon="12.9990648"><ele>249.66666666666666</ele><time>2026-04-19T08:52:06.009Z</time></trkpt><trkpt lat="43.336342" lon="12.9990443"><ele>250.0</ele><time>2026-04-19T08:52:07.007Z</time></trkpt><trkpt lat="43.3361234" lon="12.9989969"><ele>252.0</ele><time>2026-04-19T08:52:08.008Z</time></trkpt><trkpt lat="43.3359079" lon="12.9989391"><ele>254.0</ele><time>2026-04-19T08:52:09.007Z</time></trkpt><trkpt lat="43.3356791" lon="12.9988651"><ele>256.5</ele><time>2026-04-19T08:52:10.007Z</time></trkpt><trkpt lat="43.3354586" lon="12.9987853"><ele>259.0</ele><time>2026-04-19T08:52:11.005Z</time></trkpt><trkpt lat="43.3352387" lon="12.998693"><ele>259.0</ele><time>2026-04-19T08:52:12.008Z</time></trkpt><trkpt lat="43.3350162" lon="12.9985861"><ele>259.0</ele><time>2026-04-19T08:52:13.005Z</time></trkpt><trkpt lat="43.3347999" lon="12.9984609"><ele>260.0</ele><time>2026-04-19T08:52:14.004Z</time></trkpt><trkpt lat="43.3345783" lon="12.9983396"><ele>261.0</ele><time>2026-04-19T08:52:15.005Z</time></trkpt><trkpt lat="43.3343679" lon="12.9981959"><ele>257.0</ele><time>2026-04-19T08:52:16.004Z</time></trkpt><trkpt lat="43.3341566" lon="12.9980423"><ele>253.0</ele><time>2026-04-19T08:52:17.002Z</time></trkpt><trkpt lat="43.3339445" lon="12.9978717"><ele>253.0</ele><time>2026-04-19T08:52:18.004Z</time></trkpt><trkpt lat="43.333737" lon="12.9976881"><ele>253.0</ele><time>2026-04-19T08:52:19.004Z</time></trkpt><trkpt lat="43.3335347" lon="12.9974778"><ele>253.0</ele><time>2026-04-19T08:52:20.01Z</time></trkpt><trkpt lat="43.3333273" lon="12.997262"><ele>253.0</ele><time>2026-04-19T08:52:21.011Z</time></trkpt><trkpt lat="43.3331123" lon="12.9970468"><ele>252.5</ele><time>2026-04-19T08:52:22.019Z</time></trkpt><trkpt lat="43.3328934" lon="12.9968332"><ele>252.0</ele><time>2026-04-19T08:52:23.006Z</time></trkpt><trkpt lat="43.3326716" lon="12.996619"><ele>252.0</ele><time>2026-04-19T08:52:24.009Z</time></trkpt><trkpt lat="43.3324415" lon="12.9964019"><ele>252.0</ele><time>2026-04-19T08:52:25.008Z</time></trkpt><trkpt lat="43.3322198" lon="12.9961777"><ele>252.5</ele><time>2026-04-19T08:52:26.011Z</time></trkpt><trkpt lat="43.3319898" lon="12.9959372"><ele>253.0</ele><time>2026-04-19T08:52:27.01Z</time></trkpt><trkpt lat="43.3317584" lon="12.9956986"><ele>253.0</ele><time>2026-04-19T08:52:28.008Z</time></trkpt><trkpt lat="43.3315167" lon="12.9954725"><ele>253.0</ele><time>2026-04-19T08:52:29.013Z</time></trkpt><trkpt lat="43.3312827" lon="12.9952353"><ele>253.0</ele><time>2026-04-19T08:52:30.008Z</time></trkpt><trkpt lat="43.3310511" lon="12.9949991"><ele>253.0</ele><time>2026-04-19T08:52:31.01Z</time></trkpt><trkpt lat="43.3308185" lon="12.9947747"><ele>253.0</ele><time>2026-04-19T08:52:32.007Z</time></trkpt><trkpt lat="43.3306005" lon="12.9945472"><ele>253.0</ele><time>2026-04-19T08:52:33.01Z</time></trkpt><trkpt lat="43.3303813" lon="12.9943231"><ele>254.0</ele><time>2026-04-19T08:52:34.009Z</time></trkpt><trkpt lat="43.3301606" lon="12.9941069"><ele>255.0</ele><time>2026-04-19T08:52:35.01Z</time></trkpt><trkpt lat="43.3299433" lon="12.9939026"><ele>255.0</ele><time>2026-04-19T08:52:36.009Z</time></trkpt><trkpt lat="43.3297412" lon="12.9936994"><ele>255.0</ele><time>2026-04-19T08:52:37.005Z</time></trkpt><trkpt lat="43.3295501" lon="12.9935178"><ele>256.0</ele><time>2026-04-19T08:52:38.005Z</time></trkpt><trkpt lat="43.3293623" lon="12.9933321"><ele>257.0</ele><time>2026-04-19T08:52:39.005Z</time></trkpt><trkpt lat="43.3291861" lon="12.9931487"><ele>257.0</ele><time>2026-04-19T08:52:40.004Z</time></trkpt><trkpt lat="43.3290214" lon="12.9929933"><ele>257.0</ele><time>2026-04-19T08:52:41.005Z</time></trkpt><trkpt lat="43.3288645" lon="12.9928515"><ele>257.0</ele><time>2026-04-19T08:52:42.011Z</time></trkpt><trkpt lat="43.3287225" lon="12.9927178"><ele>258.0</ele><time>2026-04-19T08:52:43.007Z</time></trkpt><trkpt lat="43.3285939" lon="12.992569"><ele>259.0</ele><time>2026-04-19T08:52:44.006Z</time></trkpt><trkpt lat="43.3284602" lon="12.9924383"><ele>260.0</ele><time>2026-04-19T08:52:45.01Z</time></trkpt><trkpt lat="43.3283222" lon="12.9923107"><ele>260.0</ele><time>2026-04-19T08:52:46.011Z</time></trkpt><trkpt lat="43.3281879" lon="12.9921821"><ele>260.0</ele><time>2026-04-19T08:52:47.01Z</time></trkpt><trkpt lat="43.3280607" lon="12.9920549"><ele>260.0</ele><time>2026-04-19T08:52:48.008Z</time></trkpt><trkpt lat="43.3279382" lon="12.9919309"><ele>260.25</ele><time>2026-04-19T08:52:49.011Z</time></trkpt><trkpt lat="43.3278202" lon="12.9918247"><ele>260.5</ele><time>2026-04-19T08:52:50.01Z</time></trkpt><trkpt lat="43.3277089" lon="12.9917236"><ele>260.75</ele><time>2026-04-19T08:52:51.011Z</time></trkpt><trkpt lat="43.3275983" lon="12.9916299"><ele>261.0</ele><time>2026-04-19T08:52:52.009Z</time></trkpt><trkpt lat="43.327504" lon="12.9915308"><ele>261.0</ele><time>2026-04-19T08:52:53.02Z</time></trkpt><trkpt lat="43.327418" lon="12.9914399"><ele>261.0</ele><time>2026-04-19T08:52:54.006Z</time></trkpt><trkpt lat="43.3273332" lon="12.9913508"><ele>261.0</ele><time>2026-04-19T08:52:55.009Z</time></trkpt><trkpt lat="43.3272422" lon="12.991259"><ele>261.0</ele><time>2026-04-19T08:52:56.009Z</time></trkpt><trkpt lat="43.3271554" lon="12.9911651"><ele>261.0</ele><time>2026-04-19T08:52:57.014Z</time></trkpt><trkpt lat="43.3270642" lon="12.9910784"><ele>261.0</ele><time>2026-04-19T08:52:58.009Z</time></trkpt><trkpt lat="43.3269735" lon="12.9909743"><ele>261.0</ele><time>2026-04-19T08:52:59.014Z</time></trkpt><trkpt lat="43.3268791" lon="12.9908739"><ele>261.0</ele><time>2026-04-19T08:53:00.009Z</time></trkpt><trkpt lat="43.3267845" lon="12.9907719"><ele>261.0</ele><time>2026-04-19T08:53:01.011Z</time></trkpt><trkpt lat="43.3266883" lon="12.9906749"><ele>261.0</ele><time>2026-04-19T08:53:02.009Z</time></trkpt><trkpt lat="43.3265886" lon="12.9905757"><ele>261.0</ele><time>2026-04-19T08:53:03.006Z</time></trkpt><trkpt lat="43.3264881" lon="12.9904763"><ele>261.0</ele><time>2026-04-19T08:53:04.006Z</time></trkpt><trkpt lat="43.326388" lon="12.9903757"><ele>261.0</ele><time>2026-04-19T08:53:05.008Z</time></trkpt><trkpt lat="43.3262871" lon="12.990274"><ele>261.0</ele><time>2026-04-19T08:53:06.011Z</time></trkpt><trkpt lat="43.3261881" lon="12.9901748"><ele>261.0</ele><time>2026-04-19T08:53:07.012Z</time></trkpt><trkpt lat="43.3260874" lon="12.9900771"><ele>261.0</ele><time>2026-04-19T08:53:08.011Z</time></trkpt><trkpt lat="43.3259914" lon="12.9899785"><ele>261.0</ele><time>2026-04-19T08:53:09.011Z</time></trkpt><trkpt lat="43.3258981" lon="12.9898829"><ele>260.75</ele><time>2026-04-19T08:53:10.017Z</time></trkpt><trkpt lat="43.3258023" lon="12.9897877"><ele>260.5</ele><time>2026-04-19T08:53:11.01Z</time></trkpt><trkpt lat="43.3257093" lon="12.9896933"><ele>260.25</ele><time>2026-04-19T08:53:12.018Z</time></trkpt><trkpt lat="43.3256103" lon="12.9896059"><ele>260.0</ele><time>2026-04-19T08:53:13.008Z</time></trkpt><trkpt lat="43.3255158" lon="12.9895098"><ele>260.75</ele><time>2026-04-19T08:53:14.011Z</time></trkpt><trkpt lat="43.3254202" lon="12.9894178"><ele>261.5</ele><time>2026-04-19T08:53:15.014Z</time></trkpt><trkpt lat="43.3253248" lon="12.98932"><ele>262.25</ele><time>2026-04-19T08:53:16.012Z</time></trkpt><trkpt lat="43.3252257" lon="12.9892168"><ele>263.0</ele><time>2026-04-19T08:53:17.016Z</time></trkpt><trkpt lat="43.3251194" lon="12.9891129"><ele>263.25</ele><time>2026-04-19T08:53:18.01Z</time></trkpt><trkpt lat="43.3250162" lon="12.989004"><ele>263.5</ele><time>2026-04-19T08:53:19.007Z</time></trkpt><trkpt lat="43.3249018" lon="12.9888942"><ele>263.75</ele><time>2026-04-19T08:53:20.011Z</time></trkpt><trkpt lat="43.3247833" lon="12.9887756"><ele>264.0</ele><time>2026-04-19T08:53:21.008Z</time></trkpt><trkpt lat="43.3246565" lon="12.9886461"><ele>265.0</ele><time>2026-04-19T08:53:22.008Z</time></trkpt><trkpt lat="43.3245279" lon="12.9885142"><ele>266.0</ele><time>2026-04-19T08:53:23.01Z</time></trkpt><trkpt lat="43.3244042" lon="12.9883843"><ele>267.0</ele><time>2026-04-19T08:53:24.019Z</time></trkpt><trkpt lat="43.3242784" lon="12.9882602"><ele>267.0</ele><time>2026-04-19T08:53:25.008Z</time></trkpt><trkpt lat="43.3241614" lon="12.9881316"><ele>267.0</ele><time>2026-04-19T08:53:26.015Z</time></trkpt><trkpt lat="43.3240497" lon="12.9880124"><ele>267.0</ele><time>2026-04-19T08:53:27.015Z</time></trkpt><trkpt lat="43.3239346" lon="12.9878939"><ele>267.0</ele><time>2026-04-19T08:53:28.013Z</time></trkpt><trkpt lat="43.3238102" lon="12.9877806"><ele>267.25</ele><time>2026-04-19T08:53:29.019Z</time></trkpt><trkpt lat="43.3236893" lon="12.9876654"><ele>267.5</ele><time>2026-04-19T08:53:30.01Z</time></trkpt><trkpt lat="43.3235802" lon="12.9875534"><ele>267.75</ele><time>2026-04-19T08:53:31.014Z</time></trkpt><trkpt lat="43.3234608" lon="12.9874341"><ele>268.0</ele><time>2026-04-19T08:53:32.019Z</time></trkpt><trkpt lat="43.3233488" lon="12.9873132"><ele>268.25</ele><time>2026-04-19T08:53:33.018Z</time></trkpt><trkpt lat="43.3232393" lon="12.9871919"><ele>268.5</ele><time>2026-04-19T08:53:34.017Z</time></trkpt><trkpt lat="43.3231274" lon="12.9870819"><ele>268.75</ele><time>2026-04-19T08:53:35.017Z</time></trkpt><trkpt lat="43.3230238" lon="12.9869655"><ele>269.0</ele><time>2026-04-19T08:53:36.017Z</time></trkpt><trkpt lat="43.3229171" lon="12.9868572"><ele>268.75</ele><time>2026-04-19T08:53:37.017Z</time></trkpt><trkpt lat="43.3228107" lon="12.9867418"><ele>268.5</ele><time>2026-04-19T08:53:38.017Z</time></trkpt><trkpt lat="43.3226993" lon="12.9866316"><ele>268.25</ele><time>2026-04-19T08:53:39.013Z</time></trkpt><trkpt lat="43.3225919" lon="12.9865222"><ele>268.0</ele><time>2026-04-19T08:53:40.013Z</time></trkpt><trkpt lat="43.3224728" lon="12.9864056"><ele>268.0</ele><time>2026-04-19T08:53:41.017Z</time></trkpt><trkpt lat="43.3223459" lon="12.9862934"><ele>268.0</ele><time>2026-04-19T08:53:42.02Z</time></trkpt><trkpt lat="43.3222197" lon="12.986178"><ele>268.0</ele><time>2026-04-19T08:53:43.016Z</time></trkpt><trkpt lat="43.3220957" lon="12.9860671"><ele>268.75</ele><time>2026-04-19T08:53:44.018Z</time></trkpt><trkpt lat="43.3219823" lon="12.9859633"><ele>269.5</ele><time>2026-04-19T08:53:45.012Z</time></trkpt><trkpt lat="43.3218776" lon="12.9858491"><ele>270.25</ele><time>2026-04-19T08:53:46.019Z</time></trkpt><trkpt lat="43.3217677" lon="12.9857435"><ele>271.0</ele><time>2026-04-19T08:53:47.015Z</time></trkpt><trkpt lat="43.3216488" lon="12.9856646"><ele>271.25</ele><time>2026-04-19T08:53:48.013Z</time></trkpt><trkpt lat="43.3215328" lon="12.9856135"><ele>271.5</ele><time>2026-04-19T08:53:49.012Z</time></trkpt><trkpt lat="43.3213987" lon="12.9855941"><ele>271.75</ele><time>2026-04-19T08:53:50.014Z</time></trkpt><trkpt lat="43.321262" lon="12.9855666"><ele>272.0</ele><time>2026-04-19T08:53:51.014Z</time></trkpt><trkpt lat="43.3211231" lon="12.9855427"><ele>272.25</ele><time>2026-04-19T08:53:52.013Z</time></trkpt><trkpt lat="43.3209889" lon="12.9855199"><ele>272.5</ele><time>2026-04-19T08:53:53.009Z</time></trkpt><trkpt lat="43.3208616" lon="12.9854968"><ele>272.75</ele><time>2026-04-19T08:53:54.014Z</time></trkpt><trkpt lat="43.3207396" lon="12.9854703"><ele>273.0</ele><time>2026-04-19T08:53:55.025Z</time></trkpt><trkpt lat="43.3206204" lon="12.9854513"><ele>274.0</ele><time>2026-04-19T08:53:56.01Z</time></trkpt><trkpt lat="43.3204976" lon="12.9854459"><ele>275.0</ele><time>2026-04-19T08:53:57.015Z</time></trkpt><trkpt lat="43.3203784" lon="12.9854624"><ele>276.0</ele><time>2026-04-19T08:53:58.016Z</time></trkpt><trkpt lat="43.3202466" lon="12.985509"><ele>277.0</ele><time>2026-04-19T08:53:59.011Z</time></trkpt><trkpt lat="43.3201049" lon="12.9855608"><ele>277.0</ele><time>2026-04-19T08:54:00.007Z</time></trkpt><trkpt lat="43.3199655" lon="12.9856447"><ele>277.0</ele><time>2026-04-19T08:54:01.008Z</time></trkpt><trkpt lat="43.3198194" lon="12.985743"><ele>277.0</ele><time>2026-04-19T08:54:02.005Z</time></trkpt><trkpt lat="43.319673" lon="12.9858272"><ele>277.0</ele><time>2026-04-19T08:54:03.004Z</time></trkpt><trkpt lat="43.319528" lon="12.9858931"><ele>277.0</ele><time>2026-04-19T08:54:04.001Z</time></trkpt><trkpt lat="43.3193824" lon="12.985942"><ele>277.0</ele><time>2026-04-19T08:54:05Z</time></trkpt><trkpt lat="43.3192294" lon="12.9860018"><ele>277.0</ele><time>2026-04-19T08:54:06.001Z</time></trkpt><trkpt lat="43.3190989" lon="12.9860596"><ele>277.0</ele><time>2026-04-19T08:54:07.001Z</time></trkpt><trkpt lat="43.3189692" lon="12.9861099"><ele>277.0</ele><time>2026-04-19T08:54:08.005Z</time></trkpt><trkpt lat="43.3188397" lon="12.9861351"><ele>277.0</ele><time>2026-04-19T08:54:09.006Z</time></trkpt><trkpt lat="43.3187104" lon="12.9861386"><ele>277.75</ele><time>2026-04-19T08:54:10.01Z</time></trkpt><trkpt lat="43.3185733" lon="12.9861297"><ele>278.5</ele><time>2026-04-19T08:54:11.015Z</time></trkpt><trkpt lat="43.3184364" lon="12.9861129"><ele>279.25</ele><time>2026-04-19T08:54:12.012Z</time></trkpt><trkpt lat="43.3182927" lon="12.986125"><ele>280.0</ele><time>2026-04-19T08:54:13.015Z</time></trkpt><trkpt lat="43.3181387" lon="12.9861271"><ele>281.0</ele><time>2026-04-19T08:54:14.005Z</time></trkpt><trkpt lat="43.3179826" lon="12.9861354"><ele>282.0</ele><time>2026-04-19T08:54:15.002Z</time></trkpt><trkpt lat="43.3178273" lon="12.9861466"><ele>283.0</ele><time>2026-04-19T08:54:16.008Z</time></trkpt><trkpt lat="43.3176755" lon="12.9861452"><ele>283.0</ele><time>2026-04-19T08:54:17.018Z</time></trkpt><trkpt lat="43.3175116" lon="12.9861557"><ele>283.0</ele><time>2026-04-19T08:54:18.023Z</time></trkpt><trkpt lat="43.3173421" lon="12.9861636"><ele>283.0</ele><time>2026-04-19T08:54:19.022Z</time></trkpt><trkpt lat="43.3171795" lon="12.9861655"><ele>284.3333333333333</ele><time>2026-04-19T08:54:20.023Z</time></trkpt><trkpt lat="43.3170104" lon="12.9861613"><ele>285.6666666666667</ele><time>2026-04-19T08:54:21.021Z</time></trkpt><trkpt lat="43.3168469" lon="12.9861702"><ele>287.0</ele><time>2026-04-19T08:54:22.024Z</time></trkpt><trkpt lat="43.3166907" lon="12.9861902"><ele>287.0</ele><time>2026-04-19T08:54:23.015Z</time></trkpt><trkpt lat="43.3165455" lon="12.986207"><ele>287.0</ele><time>2026-04-19T08:54:24.02Z</time></trkpt><trkpt lat="43.3163899" lon="12.9862288"><ele>287.0</ele><time>2026-04-19T08:54:25.017Z</time></trkpt><trkpt lat="43.3162283" lon="12.9862276"><ele>288.33333333333337</ele><time>2026-04-19T08:54:26.046Z</time></trkpt><trkpt lat="43.3160706" lon="12.9862339"><ele>289.6666666666667</ele><time>2026-04-19T08:54:27.021Z</time></trkpt><trkpt lat="43.3159135" lon="12.9862252"><ele>291.0</ele><time>2026-04-19T08:54:28.014Z</time></trkpt><trkpt lat="43.3157596" lon="12.9862166"><ele>291.0</ele><time>2026-04-19T08:54:29.027Z</time></trkpt><trkpt lat="43.315609" lon="12.9862123"><ele>291.0</ele><time>2026-04-19T08:54:30.021Z</time></trkpt><trkpt lat="43.3154513" lon="12.9862208"><ele>291.0</ele><time>2026-04-19T08:54:31.023Z</time></trkpt><trkpt lat="43.3152979" lon="12.9862399"><ele>291.5</ele><time>2026-04-19T08:54:32.02Z</time></trkpt><trkpt lat="43.3151489" lon="12.986238"><ele>292.0</ele><time>2026-04-19T08:54:33.022Z</time></trkpt><trkpt lat="43.3150004" lon="12.9862481"><ele>292.5</ele><time>2026-04-19T08:54:34.02Z</time></trkpt><trkpt lat="43.3148638" lon="12.9862565"><ele>293.0</ele><time>2026-04-19T08:54:35.02Z</time></trkpt><trkpt lat="43.3147159" lon="12.9862643"><ele>293.0</ele><time>2026-04-19T08:54:36.023Z</time></trkpt><trkpt lat="43.3145741" lon="12.9862607"><ele>293.0</ele><time>2026-04-19T08:54:37.022Z</time></trkpt><trkpt lat="43.3144334" lon="12.9862673"><ele>293.0</ele><time>2026-04-19T08:54:38.029Z</time></trkpt><trkpt lat="43.3142741" lon="12.9862833"><ele>293.0</ele><time>2026-04-19T08:54:39.02Z</time></trkpt><trkpt lat="43.3141179" lon="12.9863008"><ele>293.0</ele><time>2026-04-19T08:54:40.021Z</time></trkpt><trkpt lat="43.3139532" lon="12.986328"><ele>293.0</ele><time>2026-04-19T08:54:41.02Z</time></trkpt><trkpt lat="43.3137917" lon="12.9863336"><ele>293.0</ele><time>2026-04-19T08:54:42.025Z</time></trkpt><trkpt lat="43.3136383" lon="12.9863515"><ele>293.25</ele><time>2026-04-19T08:54:43.02Z</time></trkpt><trkpt lat="43.3134991" lon="12.9863754"><ele>293.5</ele><time>2026-04-19T08:54:44.023Z</time></trkpt><trkpt lat="43.3133543" lon="12.9864005"><ele>293.75</ele><time>2026-04-19T08:54:45.021Z</time></trkpt><trkpt lat="43.3132149" lon="12.9864159"><ele>294.0</ele><time>2026-04-19T08:54:46.027Z</time></trkpt><trkpt lat="43.3130798" lon="12.9864244"><ele>294.0</ele><time>2026-04-19T08:54:47.025Z</time></trkpt><trkpt lat="43.3129328" lon="12.9864431"><ele>294.0</ele><time>2026-04-19T08:54:48.023Z</time></trkpt><trkpt lat="43.3127835" lon="12.9864504"><ele>294.0</ele><time>2026-04-19T08:54:49.02Z</time></trkpt><trkpt lat="43.3126321" lon="12.9864566"><ele>294.0</ele><time>2026-04-19T08:54:50.027Z</time></trkpt><trkpt lat="43.3124754" lon="12.9864733"><ele>294.0</ele><time>2026-04-19T08:54:51.023Z</time></trkpt><trkpt lat="43.312328" lon="12.9864874"><ele>294.0</ele><time>2026-04-19T08:54:52.021Z</time></trkpt><trkpt lat="43.3121733" lon="12.9864979"><ele>294.0</ele><time>2026-04-19T08:54:53.017Z</time></trkpt><trkpt lat="43.3120292" lon="12.9865174"><ele>294.0</ele><time>2026-04-19T08:54:54.022Z</time></trkpt><trkpt lat="43.3118681" lon="12.98654"><ele>292.6666666666667</ele><time>2026-04-19T08:54:55.028Z</time></trkpt><trkpt lat="43.3117074" lon="12.9865564"><ele>291.33333333333337</ele><time>2026-04-19T08:54:56.038Z</time></trkpt><trkpt lat="43.3115502" lon="12.9865751"><ele>290.0</ele><time>2026-04-19T08:54:57.026Z</time></trkpt><trkpt lat="43.3114068" lon="12.9865965"><ele>289.5</ele><time>2026-04-19T08:54:58.027Z</time></trkpt><trkpt lat="43.3112634" lon="12.9866163"><ele>289.0</ele><time>2026-04-19T08:54:59.035Z</time></trkpt><trkpt lat="43.3111292" lon="12.9866409"><ele>288.5</ele><time>2026-04-19T08:55:00.023Z</time></trkpt><trkpt lat="43.3110108" lon="12.9866616"><ele>288.0</ele><time>2026-04-19T08:55:01.023Z</time></trkpt><trkpt lat="43.3108987" lon="12.9866742"><ele>288.0</ele><time>2026-04-19T08:55:02.025Z</time></trkpt><trkpt lat="43.3108005" lon="12.9866851"><ele>288.0</ele><time>2026-04-19T08:55:03.017Z</time></trkpt><trkpt lat="43.3107074" lon="12.9866608"><ele>288.0</ele><time>2026-04-19T08:55:04.017Z</time></trkpt><trkpt lat="43.3106156" lon="12.9866092"><ele>288.0</ele><time>2026-04-19T08:55:05.015Z</time></trkpt><trkpt lat="43.3105347" lon="12.9865343"><ele>288.0</ele><time>2026-04-19T08:55:06.023Z</time></trkpt><trkpt lat="43.3104578" lon="12.9864817"><ele>287.2</ele><time>2026-04-19T08:55:07.016Z</time></trkpt><trkpt lat="43.3103739" lon="12.9864545"><ele>286.4</ele><time>2026-04-19T08:55:08.018Z</time></trkpt><trkpt lat="43.3102869" lon="12.9864752"><ele>285.59999999999997</ele><time>2026-04-19T08:55:09.021Z</time></trkpt><trkpt lat="43.3101953" lon="12.9865507"><ele>284.8</ele><time>2026-04-19T08:55:10.018Z</time></trkpt><trkpt lat="43.3101068" lon="12.9866372"><ele>284.0</ele><time>2026-04-19T08:55:11.02Z</time></trkpt><trkpt lat="43.3100105" lon="12.986703"><ele>284.0</ele><time>2026-04-19T08:55:12.019Z</time></trkpt><trkpt lat="43.309898" lon="12.9867388"><ele>284.0</ele><time>2026-04-19T08:55:13.016Z</time></trkpt><trkpt lat="43.3097722" lon="12.986756"><ele>284.0</ele><time>2026-04-19T08:55:14.024Z</time></trkpt><trkpt lat="43.3096392" lon="12.9867657"><ele>284.0</ele><time>2026-04-19T08:55:15.013Z</time></trkpt><trkpt lat="43.3094961" lon="12.9867693"><ele>285.0</ele><time>2026-04-19T08:55:16.02Z</time></trkpt><trkpt lat="43.3093357" lon="12.9867814"><ele>286.0</ele><time>2026-04-19T08:55:17.018Z</time></trkpt><trkpt lat="43.3091399" lon="12.9868099"><ele>287.0</ele><time>2026-04-19T08:55:18.022Z</time></trkpt><trkpt lat="43.3089288" lon="12.9868394"><ele>288.6666666666667</ele><time>2026-04-19T08:55:19.017Z</time></trkpt><trkpt lat="43.3087148" lon="12.9868758"><ele>290.3333333333333</ele><time>2026-04-19T08:55:20.02Z</time></trkpt><trkpt lat="43.3084901" lon="12.9869166"><ele>292.0</ele><time>2026-04-19T08:55:21.018Z</time></trkpt><trkpt lat="43.3082619" lon="12.98695"><ele>291.5</ele><time>2026-04-19T08:55:22.019Z</time></trkpt><trkpt lat="43.3080242" lon="12.9869876"><ele>291.0</ele><time>2026-04-19T08:55:23.02Z</time></trkpt><trkpt lat="43.3077967" lon="12.9870194"><ele>291.0</ele><time>2026-04-19T08:55:24.026Z</time></trkpt><trkpt lat="43.3075585" lon="12.9870391"><ele>291.0</ele><time>2026-04-19T08:55:25.025Z</time></trkpt><trkpt lat="43.3073235" lon="12.9870623"><ele>290.0</ele><time>2026-04-19T08:55:26.026Z</time></trkpt><trkpt lat="43.3070806" lon="12.9870854"><ele>289.0</ele><time>2026-04-19T08:55:27.042Z</time></trkpt><trkpt lat="43.3068334" lon="12.9871106"><ele>289.0</ele><time>2026-04-19T08:55:28.025Z</time></trkpt><trkpt lat="43.3065875" lon="12.9871461"><ele>289.0</ele><time>2026-04-19T08:55:29.032Z</time></trkpt><trkpt lat="43.3063401" lon="12.987179"><ele>288.5</ele><time>2026-04-19T08:55:30.028Z</time></trkpt><trkpt lat="43.3060857" lon="12.9872163"><ele>288.0</ele><time>2026-04-19T08:55:31.021Z</time></trkpt><trkpt lat="43.3058224" lon="12.9872501"><ele>289.0</ele><time>2026-04-19T08:55:32.022Z</time></trkpt><trkpt lat="43.3055471" lon="12.9872876"><ele>290.0</ele><time>2026-04-19T08:55:33.022Z</time></trkpt><trkpt lat="43.3052711" lon="12.9873057"><ele>290.0</ele><time>2026-04-19T08:55:34.025Z</time></trkpt><trkpt lat="43.3049844" lon="12.9873287"><ele>290.0</ele><time>2026-04-19T08:55:35.025Z</time></trkpt><trkpt lat="43.3047014" lon="12.9873606"><ele>290.5</ele><time>2026-04-19T08:55:36.023Z</time></trkpt><trkpt lat="43.3044228" lon="12.9874084"><ele>291.0</ele><time>2026-04-19T08:55:37.025Z</time></trkpt><trkpt lat="43.3041465" lon="12.9874784"><ele>295.0</ele><time>2026-04-19T08:55:38.018Z</time></trkpt><trkpt lat="43.3038791" lon="12.9875648"><ele>299.0</ele><time>2026-04-19T08:55:39.025Z</time></trkpt><trkpt lat="43.3036065" lon="12.9876967"><ele>299.0</ele><time>2026-04-19T08:55:40.019Z</time></trkpt><trkpt lat="43.3033335" lon="12.9878383"><ele>299.0</ele><time>2026-04-19T08:55:41.023Z</time></trkpt><trkpt lat="43.303073" lon="12.9879927"><ele>296.0</ele><time>2026-04-19T08:55:42.027Z</time></trkpt><trkpt lat="43.3028076" lon="12.9881515"><ele>293.0</ele><time>2026-04-19T08:55:43.024Z</time></trkpt><trkpt lat="43.302537" lon="12.988318"><ele>294.0</ele><time>2026-04-19T08:55:44.023Z</time></trkpt><trkpt lat="43.3022648" lon="12.9884838"><ele>295.0</ele><time>2026-04-19T08:55:45.019Z</time></trkpt><trkpt lat="43.3019866" lon="12.988639"><ele>295.0</ele><time>2026-04-19T08:55:46.02Z</time></trkpt><trkpt lat="43.3017118" lon="12.9887945"><ele>295.0</ele><time>2026-04-19T08:55:47.021Z</time></trkpt><trkpt lat="43.3014301" lon="12.9889479"><ele>295.0</ele><time>2026-04-19T08:55:48.021Z</time></trkpt><trkpt lat="43.3011452" lon="12.9891051"><ele>295.0</ele><time>2026-04-19T08:55:49.02Z</time></trkpt><trkpt lat="43.3008602" lon="12.9892607"><ele>294.5</ele><time>2026-04-19T08:55:50.026Z</time></trkpt><trkpt lat="43.3005753" lon="12.9894137"><ele>294.0</ele><time>2026-04-19T08:55:51.022Z</time></trkpt><trkpt lat="43.3002894" lon="12.9895684"><ele>294.0</ele><time>2026-04-19T08:55:52.023Z</time></trkpt><trkpt lat="43.2999959" lon="12.989727"><ele>294.0</ele><time>2026-04-19T08:55:53.022Z</time></trkpt><trkpt lat="43.2997119" lon="12.9898811"><ele>291.5</ele><time>2026-04-19T08:55:54.022Z</time></trkpt><trkpt lat="43.2994244" lon="12.990039"><ele>289.0</ele><time>2026-04-19T08:55:55.024Z</time></trkpt><trkpt lat="43.2991226" lon="12.9902031"><ele>290.0</ele><time>2026-04-19T08:55:56.022Z</time></trkpt><trkpt lat="43.2988297" lon="12.990363"><ele>291.0</ele><time>2026-04-19T08:55:57.024Z</time></trkpt><trkpt lat="43.2985326" lon="12.9905334"><ele>291.0</ele><time>2026-04-19T08:55:58.035Z</time></trkpt><trkpt lat="43.2982339" lon="12.9907056"><ele>291.0</ele><time>2026-04-19T08:55:59.027Z</time></trkpt><trkpt lat="43.2979307" lon="12.990878"><ele>292.0</ele><time>2026-04-19T08:56:00.025Z</time></trkpt><trkpt lat="43.2976356" lon="12.9910404"><ele>293.0</ele><time>2026-04-19T08:56:01.018Z</time></trkpt><trkpt lat="43.2973484" lon="12.9912036"><ele>292.5</ele><time>2026-04-19T08:56:02.019Z</time></trkpt><trkpt lat="43.2970559" lon="12.9913576"><ele>292.0</ele><time>2026-04-19T08:56:03.02Z</time></trkpt><trkpt lat="43.2967691" lon="12.9915188"><ele>292.0</ele><time>2026-04-19T08:56:04.018Z</time></trkpt><trkpt lat="43.2964911" lon="12.9916628"><ele>292.0</ele><time>2026-04-19T08:56:05.018Z</time></trkpt><trkpt lat="43.2962248" lon="12.9917964"><ele>295.0</ele><time>2026-04-19T08:56:06.017Z</time></trkpt><trkpt lat="43.2959799" lon="12.9919259"><ele>298.0</ele><time>2026-04-19T08:56:07.015Z</time></trkpt><trkpt lat="43.2957446" lon="12.9920521"><ele>297.5</ele><time>2026-04-19T08:56:08.018Z</time></trkpt><trkpt lat="43.2955224" lon="12.9921678"><ele>297.0</ele><time>2026-04-19T08:56:09.016Z</time></trkpt><trkpt lat="43.295305" lon="12.9922763"><ele>297.0</ele><time>2026-04-19T08:56:10.018Z</time></trkpt><trkpt lat="43.2951037" lon="12.9923868"><ele>297.0</ele><time>2026-04-19T08:56:11.018Z</time></trkpt><trkpt lat="43.2949027" lon="12.9924939"><ele>297.0</ele><time>2026-04-19T08:56:12.022Z</time></trkpt><trkpt lat="43.2947055" lon="12.9925966"><ele>297.0</ele><time>2026-04-19T08:56:13.02Z</time></trkpt><trkpt lat="43.2945073" lon="12.9927029"><ele>297.0</ele><time>2026-04-19T08:56:14.024Z</time></trkpt><trkpt lat="43.2943015" lon="12.99281"><ele>297.0</ele><time>2026-04-19T08:56:15.02Z</time></trkpt><trkpt lat="43.29409" lon="12.9929269"><ele>297.5</ele><time>2026-04-19T08:56:16.018Z</time></trkpt><trkpt lat="43.2938731" lon="12.9930465"><ele>298.0</ele><time>2026-04-19T08:56:17.02Z</time></trkpt><trkpt lat="43.2936449" lon="12.9931719"><ele>298.0</ele><time>2026-04-19T08:56:18.019Z</time></trkpt><trkpt lat="43.293401" lon="12.9933105"><ele>298.0</ele><time>2026-04-19T08:56:19.023Z</time></trkpt><trkpt lat="43.2931548" lon="12.9934488"><ele>301.5</ele><time>2026-04-19T08:56:20.023Z</time></trkpt><trkpt lat="43.2928966" lon="12.9935829"><ele>305.0</ele><time>2026-04-19T08:56:21.026Z</time></trkpt><trkpt lat="43.2926291" lon="12.9937259"><ele>305.0</ele><time>2026-04-19T08:56:22.03Z</time></trkpt><trkpt lat="43.2923579" lon="12.9938761"><ele>305.0</ele><time>2026-04-19T08:56:23.033Z</time></trkpt><trkpt lat="43.2920861" lon="12.9940228"><ele>303.5</ele><time>2026-04-19T08:56:24.038Z</time></trkpt><trkpt lat="43.2918161" lon="12.9941648"><ele>302.0</ele><time>2026-04-19T08:56:25.034Z</time></trkpt><trkpt lat="43.2915513" lon="12.9943097"><ele>304.5</ele><time>2026-04-19T08:56:26.038Z</time></trkpt><trkpt lat="43.2912855" lon="12.9944535"><ele>307.0</ele><time>2026-04-19T08:56:27.038Z</time></trkpt><trkpt lat="43.2910214" lon="12.9945969"><ele>307.0</ele><time>2026-04-19T08:56:28.039Z</time></trkpt><trkpt lat="43.2907653" lon="12.9947442"><ele>307.0</ele><time>2026-04-19T08:56:29.052Z</time></trkpt><trkpt lat="43.290512" lon="12.9948786"><ele>309.0</ele><time>2026-04-19T08:56:30.036Z</time></trkpt><trkpt lat="43.2902615" lon="12.9950178"><ele>311.0</ele><time>2026-04-19T08:56:31.043Z</time></trkpt><trkpt lat="43.2900174" lon="12.9951554"><ele>311.0</ele><time>2026-04-19T08:56:32.037Z</time></trkpt><trkpt lat="43.2897735" lon="12.9952907"><ele>311.0</ele><time>2026-04-19T08:56:33.033Z</time></trkpt><trkpt lat="43.2895326" lon="12.9954279"><ele>310.0</ele><time>2026-04-19T08:56:34.032Z</time></trkpt><trkpt lat="43.2892979" lon="12.995564"><ele>309.0</ele><time>2026-04-19T08:56:35.032Z</time></trkpt><trkpt lat="43.2890582" lon="12.9956983"><ele>308.5</ele><time>2026-04-19T08:56:36.037Z</time></trkpt><trkpt lat="43.2888231" lon="12.9958239"><ele>308.0</ele><time>2026-04-19T08:56:37.035Z</time></trkpt><trkpt lat="43.2885888" lon="12.9959563"><ele>310.5</ele><time>2026-04-19T08:56:38.038Z</time></trkpt><trkpt lat="43.2883606" lon="12.9960899"><ele>313.0</ele><time>2026-04-19T08:56:39.037Z</time></trkpt><trkpt lat="43.2881326" lon="12.9962186"><ele>311.0</ele><time>2026-04-19T08:56:40.035Z</time></trkpt><trkpt lat="43.2879131" lon="12.9963426"><ele>309.0</ele><time>2026-04-19T08:56:41.032Z</time></trkpt><trkpt lat="43.2877005" lon="12.9964476"><ele>309.0</ele><time>2026-04-19T08:56:42.039Z</time></trkpt><trkpt lat="43.2874928" lon="12.9965323"><ele>309.0</ele><time>2026-04-19T08:56:43.032Z</time></trkpt><trkpt lat="43.2872972" lon="12.9966082"><ele>309.0</ele><time>2026-04-19T08:56:44.032Z</time></trkpt><trkpt lat="43.2871137" lon="12.996681"><ele>308.6666666666667</ele><time>2026-04-19T08:56:45.035Z</time></trkpt><trkpt lat="43.2869587" lon="12.9967531"><ele>308.33333333333337</ele><time>2026-04-19T08:56:46.03Z</time></trkpt><trkpt lat="43.2868065" lon="12.996826"><ele>308.0</ele><time>2026-04-19T08:56:47.041Z</time></trkpt><trkpt lat="43.2866603" lon="12.9969091"><ele>308.0</ele><time>2026-04-19T08:56:48.027Z</time></trkpt><trkpt lat="43.2865035" lon="12.9970136"><ele>308.0</ele><time>2026-04-19T08:56:49.037Z</time></trkpt><trkpt lat="43.2863492" lon="12.9971674"><ele>308.0</ele><time>2026-04-19T08:56:50.04Z</time></trkpt><trkpt lat="43.2861906" lon="12.9973506"><ele>308.0</ele><time>2026-04-19T08:56:51.031Z</time></trkpt><trkpt lat="43.2860259" lon="12.997529"><ele>308.0</ele><time>2026-04-19T08:56:52.033Z</time></trkpt><trkpt lat="43.2858449" lon="12.9977049"><ele>308.0</ele><time>2026-04-19T08:56:53.029Z</time></trkpt><trkpt lat="43.2856363" lon="12.9978456"><ele>306.0</ele><time>2026-04-19T08:56:54.029Z</time></trkpt><trkpt lat="43.2854075" lon="12.9979791"><ele>304.0</ele><time>2026-04-19T08:56:55.032Z</time></trkpt><trkpt lat="43.2851613" lon="12.9981255"><ele>304.0</ele><time>2026-04-19T08:56:56.033Z</time></trkpt><trkpt lat="43.2849134" lon="12.9982713"><ele>304.0</ele><time>2026-04-19T08:56:57.029Z</time></trkpt><trkpt lat="43.2846622" lon="12.9984308"><ele>303.0</ele><time>2026-04-19T08:56:58.031Z</time></trkpt><trkpt lat="43.2843971" lon="12.9985963"><ele>302.0</ele><time>2026-04-19T08:56:59.031Z</time></trkpt><trkpt lat="43.2841308" lon="12.9987805"><ele>302.0</ele><time>2026-04-19T08:57:00.044Z</time></trkpt><trkpt lat="43.2838571" lon="12.9989649"><ele>302.0</ele><time>2026-04-19T08:57:01.034Z</time></trkpt><trkpt lat="43.2835855" lon="12.9991462"><ele>302.5</ele><time>2026-04-19T08:57:02.037Z</time></trkpt><trkpt lat="43.2833121" lon="12.9993353"><ele>303.0</ele><time>2026-04-19T08:57:03.035Z</time></trkpt><trkpt lat="43.2830465" lon="12.999525"><ele>304.0</ele><time>2026-04-19T08:57:04.033Z</time></trkpt><trkpt lat="43.2827873" lon="12.9997096"><ele>305.0</ele><time>2026-04-19T08:57:05.037Z</time></trkpt><trkpt lat="43.282527" lon="12.9998938"><ele>305.0</ele><time>2026-04-19T08:57:06.032Z</time></trkpt><trkpt lat="43.2822689" lon="13.0000808"><ele>305.0</ele><time>2026-04-19T08:57:07.037Z</time></trkpt><trkpt lat="43.2820066" lon="13.0002613"><ele>304.5</ele><time>2026-04-19T08:57:08.031Z</time></trkpt><trkpt lat="43.2817458" lon="13.0004437"><ele>304.0</ele><time>2026-04-19T08:57:09.034Z</time></trkpt><trkpt lat="43.2814876" lon="13.0006262"><ele>303.5</ele><time>2026-04-19T08:57:10.033Z</time></trkpt><trkpt lat="43.2812306" lon="13.0008095"><ele>303.0</ele><time>2026-04-19T08:57:11.031Z</time></trkpt><trkpt lat="43.2809869" lon="13.0009836"><ele>304.5</ele><time>2026-04-19T08:57:12.04Z</time></trkpt><trkpt lat="43.2807529" lon="13.0011566"><ele>306.0</ele><time>2026-04-19T08:57:13.034Z</time></trkpt><trkpt lat="43.2805235" lon="13.0013244"><ele>306.0</ele><time>2026-04-19T08:57:14.037Z</time></trkpt><trkpt lat="43.2802917" lon="13.0014917"><ele>306.0</ele><time>2026-04-19T08:57:15.037Z</time></trkpt><trkpt lat="43.2800588" lon="13.0016509"><ele>308.0</ele><time>2026-04-19T08:57:16.038Z</time></trkpt><trkpt lat="43.2798292" lon="13.0018041"><ele>310.0</ele><time>2026-04-19T08:57:17.043Z</time></trkpt><trkpt lat="43.2796" lon="13.0019605"><ele>310.0</ele><time>2026-04-19T08:57:18.04Z</time></trkpt><trkpt lat="43.2793741" lon="13.0021227"><ele>310.0</ele><time>2026-04-19T08:57:19.043Z</time></trkpt><trkpt lat="43.2791636" lon="13.0022732"><ele>310.0</ele><time>2026-04-19T08:57:20.038Z</time></trkpt><trkpt lat="43.2789493" lon="13.0024296"><ele>310.0</ele><time>2026-04-19T08:57:21.034Z</time></trkpt><trkpt lat="43.2787449" lon="13.0025873"><ele>312.0</ele><time>2026-04-19T08:57:22.035Z</time></trkpt><trkpt lat="43.2785326" lon="13.0027378"><ele>314.0</ele><time>2026-04-19T08:57:23.035Z</time></trkpt><trkpt lat="43.278321" lon="13.0028601"><ele>313.5</ele><time>2026-04-19T08:57:24.039Z</time></trkpt><trkpt lat="43.2780953" lon="13.0029512"><ele>313.0</ele><time>2026-04-19T08:57:25.034Z</time></trkpt><trkpt lat="43.2778706" lon="13.0030218"><ele>313.0</ele><time>2026-04-19T08:57:26.038Z</time></trkpt><trkpt lat="43.2776543" lon="13.0030564"><ele>313.0</ele><time>2026-04-19T08:57:27.03Z</time></trkpt><trkpt lat="43.2774466" lon="13.0030711"><ele>313.0</ele><time>2026-04-19T08:57:28.031Z</time></trkpt><trkpt lat="43.277261" lon="13.0030701"><ele>313.5</ele><time>2026-04-19T08:57:29.034Z</time></trkpt><trkpt lat="43.2771089" lon="13.0030736"><ele>314.0</ele><time>2026-04-19T08:57:30.032Z</time></trkpt><trkpt lat="43.2769739" lon="13.0030634"><ele>314.5</ele><time>2026-04-19T08:57:31.043Z</time></trkpt><trkpt lat="43.2768559" lon="13.0030223"><ele>315.0</ele><time>2026-04-19T08:57:32.039Z</time></trkpt><trkpt lat="43.2767501" lon="13.0029594"><ele>315.0</ele><time>2026-04-19T08:57:33.025Z</time></trkpt><trkpt lat="43.2766437" lon="13.0028941"><ele>315.0</ele><time>2026-04-19T08:57:34.038Z</time></trkpt><trkpt lat="43.2765409" lon="13.0028587"><ele>315.0</ele><time>2026-04-19T08:57:35.035Z</time></trkpt><trkpt lat="43.2764425" lon="13.0028896"><ele>315.0</ele><time>2026-04-19T08:57:36.028Z</time></trkpt><trkpt lat="43.2763548" lon="13.0029582"><ele>315.0</ele><time>2026-04-19T08:57:37.036Z</time></trkpt><trkpt lat="43.2762879" lon="13.0030705"><ele>316.5</ele><time>2026-04-19T08:57:38.031Z</time></trkpt><trkpt lat="43.2762432" lon="13.0032251"><ele>318.0</ele><time>2026-04-19T08:57:39.025Z</time></trkpt><trkpt lat="43.2761869" lon="13.003389"><ele>319.5</ele><time>2026-04-19T08:57:40.025Z</time></trkpt><trkpt lat="43.2761035" lon="13.003546"><ele>321.0</ele><time>2026-04-19T08:57:41.031Z</time></trkpt><trkpt lat="43.2759664" lon="13.0036914"><ele>321.3333333333333</ele><time>2026-04-19T08:57:42.034Z</time></trkpt><trkpt lat="43.2757859" lon="13.00381"><ele>321.66666666666663</ele><time>2026-04-19T08:57:43.037Z</time></trkpt><trkpt lat="43.2756102" lon="13.0039029"><ele>322.0</ele><time>2026-04-19T08:57:44.028Z</time></trkpt><trkpt lat="43.2754241" lon="13.0039959"><ele>322.66666666666663</ele><time>2026-04-19T08:57:45.025Z</time></trkpt><trkpt lat="43.2752484" lon="13.0040764"><ele>323.3333333333333</ele><time>2026-04-19T08:57:46.025Z</time></trkpt><trkpt lat="43.2751034" lon="13.0041353"><ele>324.0</ele><time>2026-04-19T08:57:47.024Z</time></trkpt><trkpt lat="43.2749821" lon="13.0041769"><ele>324.0</ele><time>2026-04-19T08:57:48.016Z</time></trkpt><trkpt lat="43.274872" lon="13.0042175"><ele>324.0</ele><time>2026-04-19T08:57:49.03Z</time></trkpt><trkpt lat="43.2747679" lon="13.0042466"><ele>324.0</ele><time>2026-04-19T08:57:50.033Z</time></trkpt><trkpt lat="43.2746625" lon="13.0042838"><ele>324.0</ele><time>2026-04-19T08:57:51.03Z</time></trkpt><trkpt lat="43.2745562" lon="13.0043294"><ele>324.0</ele><time>2026-04-19T08:57:52.031Z</time></trkpt><trkpt lat="43.2744393" lon="13.004379"><ele>324.75</ele><time>2026-04-19T08:57:53.035Z</time></trkpt><trkpt lat="43.274327" lon="13.0044279"><ele>325.5</ele><time>2026-04-19T08:57:54.037Z</time></trkpt><trkpt lat="43.2742128" lon="13.0044827"><ele>326.25</ele><time>2026-04-19T08:57:55.034Z</time></trkpt><trkpt lat="43.2741024" lon="13.0045333"><ele>327.0</ele><time>2026-04-19T08:57:56.035Z</time></trkpt><trkpt lat="43.2739816" lon="13.004588"><ele>327.5</ele><time>2026-04-19T08:57:57.034Z</time></trkpt><trkpt lat="43.2738622" lon="13.0046393"><ele>328.0</ele><time>2026-04-19T08:57:58.035Z</time></trkpt><trkpt lat="43.273742" lon="13.0046904"><ele>328.5</ele><time>2026-04-19T08:57:59.042Z</time></trkpt><trkpt lat="43.2736183" lon="13.0047369"><ele>329.0</ele><time>2026-04-19T08:58:00.037Z</time></trkpt><trkpt lat="43.273493" lon="13.0047914"><ele>329.0</ele><time>2026-04-19T08:58:01.037Z</time></trkpt><trkpt lat="43.2733699" lon="13.0048441"><ele>329.0</ele><time>2026-04-19T08:58:02.048Z</time></trkpt><trkpt lat="43.2732465" lon="13.0048961"><ele>329.0</ele><time>2026-04-19T08:58:03.035Z</time></trkpt><trkpt lat="43.2731199" lon="13.0049524"><ele>329.0</ele><time>2026-04-19T08:58:04.035Z</time></trkpt><trkpt lat="43.2729922" lon="13.0050093"><ele>328.75</ele><time>2026-04-19T08:58:05.034Z</time></trkpt><trkpt lat="43.2728645" lon="13.0050647"><ele>328.5</ele><time>2026-04-19T08:58:06.034Z</time></trkpt><trkpt lat="43.272735" lon="13.0051234"><ele>328.25</ele><time>2026-04-19T08:58:07.038Z</time></trkpt><trkpt lat="43.2726085" lon="13.0051774"><ele>328.0</ele><time>2026-04-19T08:58:08.037Z</time></trkpt><trkpt lat="43.2724887" lon="13.005234"><ele>328.0</ele><time>2026-04-19T08:58:09.034Z</time></trkpt><trkpt lat="43.2723687" lon="13.0052904"><ele>328.0</ele><time>2026-04-19T08:58:10.034Z</time></trkpt><trkpt lat="43.2722466" lon="13.0053461"><ele>328.0</ele><time>2026-04-19T08:58:11.036Z</time></trkpt><trkpt lat="43.2721263" lon="13.0054063"><ele>328.0</ele><time>2026-04-19T08:58:12.039Z</time></trkpt><trkpt lat="43.2720011" lon="13.0054658"><ele>328.0</ele><time>2026-04-19T08:58:13.032Z</time></trkpt><trkpt lat="43.2718726" lon="13.0055315"><ele>328.0</ele><time>2026-04-19T08:58:14.031Z</time></trkpt><trkpt lat="43.2717478" lon="13.0055952"><ele>328.0</ele><time>2026-04-19T08:58:15.033Z</time></trkpt><trkpt lat="43.2716289" lon="13.0056533"><ele>328.0</ele><time>2026-04-19T08:58:16.036Z</time></trkpt><trkpt lat="43.2715101" lon="13.0057131"><ele>329.0</ele><time>2026-04-19T08:58:17.033Z</time></trkpt><trkpt lat="43.2713955" lon="13.0057725"><ele>330.0</ele><time>2026-04-19T08:58:18.025Z</time></trkpt><trkpt lat="43.2712791" lon="13.0058321"><ele>331.0</ele><time>2026-04-19T08:58:19.035Z</time></trkpt><trkpt lat="43.2711595" lon="13.0058913"><ele>332.0</ele><time>2026-04-19T08:58:20.029Z</time></trkpt><trkpt lat="43.2710386" lon="13.0059454"><ele>332.0</ele><time>2026-04-19T08:58:21.032Z</time></trkpt><trkpt lat="43.2709204" lon="13.0059959"><ele>332.0</ele><time>2026-04-19T08:58:22.035Z</time></trkpt><trkpt lat="43.2708011" lon="13.0060483"><ele>332.0</ele><time>2026-04-19T08:58:23.034Z</time></trkpt><trkpt lat="43.270678" lon="13.0061017"><ele>332.0</ele><time>2026-04-19T08:58:24.034Z</time></trkpt><trkpt lat="43.2705581" lon="13.0061543"><ele>332.25</ele><time>2026-04-19T08:58:25.023Z</time></trkpt><trkpt lat="43.27044" lon="13.0062077"><ele>332.5</ele><time>2026-04-19T08:58:26.028Z</time></trkpt><trkpt lat="43.2703192" lon="13.0062666"><ele>332.75</ele><time>2026-04-19T08:58:27.032Z</time></trkpt><trkpt lat="43.270198" lon="13.0063173"><ele>333.0</ele><time>2026-04-19T08:58:28.027Z</time></trkpt><trkpt lat="43.2700739" lon="13.0063706"><ele>333.0</ele><time>2026-04-19T08:58:29.04Z</time></trkpt><trkpt lat="43.2699525" lon="13.0064263"><ele>333.0</ele><time>2026-04-19T08:58:30.035Z</time></trkpt><trkpt lat="43.2698287" lon="13.0064837"><ele>333.0</ele><time>2026-04-19T08:58:31.032Z</time></trkpt><trkpt lat="43.2697057" lon="13.0065383"><ele>333.0</ele><time>2026-04-19T08:58:32.041Z</time></trkpt><trkpt lat="43.2695782" lon="13.0066043"><ele>333.25</ele><time>2026-04-19T08:58:33.034Z</time></trkpt><trkpt lat="43.2694521" lon="13.0066728"><ele>333.5</ele><time>2026-04-19T08:58:34.028Z</time></trkpt><trkpt lat="43.2693248" lon="13.0067287"><ele>333.75</ele><time>2026-04-19T08:58:35.026Z</time></trkpt><trkpt lat="43.2691967" lon="13.0067776"><ele>334.0</ele><time>2026-04-19T08:58:36.021Z</time></trkpt><trkpt lat="43.2690634" lon="13.0068347"><ele>334.75</ele><time>2026-04-19T08:58:37.033Z</time></trkpt><trkpt lat="43.2689319" lon="13.0068995"><ele>335.5</ele><time>2026-04-19T08:58:38.031Z</time></trkpt><trkpt lat="43.2687962" lon="13.0069498"><ele>336.25</ele><time>2026-04-19T08:58:39.03Z</time></trkpt><trkpt lat="43.2686578" lon="13.0069992"><ele>337.0</ele><time>2026-04-19T08:58:40.028Z</time></trkpt><trkpt lat="43.2685218" lon="13.0070491"><ele>337.0</ele><time>2026-04-19T08:58:41.026Z</time></trkpt><trkpt lat="43.26839" lon="13.0070985"><ele>337.0</ele><time>2026-04-19T08:58:42.036Z</time></trkpt><trkpt lat="43.2682611" lon="13.0071493"><ele>337.0</ele><time>2026-04-19T08:58:43.035Z</time></trkpt><trkpt lat="43.268134" lon="13.0071981"><ele>337.0</ele><time>2026-04-19T08:58:44.033Z</time></trkpt><trkpt lat="43.2680033" lon="13.0072464"><ele>337.0</ele><time>2026-04-19T08:58:45.035Z</time></trkpt><trkpt lat="43.2678717" lon="13.0072928"><ele>337.0</ele><time>2026-04-19T08:58:46.033Z</time></trkpt><trkpt lat="43.2677413" lon="13.0073394"><ele>337.0</ele><time>2026-04-19T08:58:47.036Z</time></trkpt><trkpt lat="43.2676143" lon="13.0073823"><ele>337.0</ele><time>2026-04-19T08:58:48.031Z</time></trkpt><trkpt lat="43.2674886" lon="13.0074338"><ele>337.0</ele><time>2026-04-19T08:58:49.03Z</time></trkpt><trkpt lat="43.2673567" lon="13.0074789"><ele>337.0</ele><time>2026-04-19T08:58:50.03Z</time></trkpt><trkpt lat="43.2672172" lon="13.0075367"><ele>337.0</ele><time>2026-04-19T08:58:51.031Z</time></trkpt><trkpt lat="43.2670775" lon="13.0075837"><ele>337.0</ele><time>2026-04-19T08:58:52.029Z</time></trkpt><trkpt lat="43.2669353" lon="13.0076265"><ele>337.66666666666663</ele><time>2026-04-19T08:58:53.026Z</time></trkpt><trkpt lat="43.2667999" lon="13.007676"><ele>338.3333333333333</ele><time>2026-04-19T08:58:54.033Z</time></trkpt><trkpt lat="43.2666561" lon="13.0077232"><ele>339.0</ele><time>2026-04-19T08:58:55.034Z</time></trkpt><trkpt lat="43.2664997" lon="13.0077855"><ele>338.25</ele><time>2026-04-19T08:58:56.034Z</time></trkpt><trkpt lat="43.2663598" lon="13.0078408"><ele>337.5</ele><time>2026-04-19T08:58:57.04Z</time></trkpt><trkpt lat="43.2662288" lon="13.0078879"><ele>336.75</ele><time>2026-04-19T08:58:58.036Z</time></trkpt><trkpt lat="43.2661003" lon="13.0079346"><ele>336.0</ele><time>2026-04-19T08:58:59.042Z</time></trkpt><trkpt lat="43.2659841" lon="13.0079747"><ele>336.0</ele><time>2026-04-19T08:59:00.041Z</time></trkpt><trkpt lat="43.2658665" lon="13.008027"><ele>336.0</ele><time>2026-04-19T08:59:01.035Z</time></trkpt><trkpt lat="43.2657525" lon="13.0080638"><ele>336.0</ele><time>2026-04-19T08:59:02.03Z</time></trkpt><trkpt lat="43.2656353" lon="13.008106"><ele>336.0</ele><time>2026-04-19T08:59:03.034Z</time></trkpt><trkpt lat="43.2655219" lon="13.0081496"><ele>336.75</ele><time>2026-04-19T08:59:04.049Z</time></trkpt><trkpt lat="43.2654039" lon="13.0082004"><ele>337.5</ele><time>2026-04-19T08:59:05.03Z</time></trkpt><trkpt lat="43.2652795" lon="13.0082472"><ele>338.25</ele><time>2026-04-19T08:59:06.029Z</time></trkpt><trkpt lat="43.2651475" lon="13.0082928"><ele>339.0</ele><time>2026-04-19T08:59:07.032Z</time></trkpt><trkpt lat="43.2650111" lon="13.0083411"><ele>339.0</ele><time>2026-04-19T08:59:08.036Z</time></trkpt><trkpt lat="43.2648623" lon="13.0083952"><ele>339.0</ele><time>2026-04-19T08:59:09.031Z</time></trkpt><trkpt lat="43.2647155" lon="13.0084524"><ele>339.0</ele><time>2026-04-19T08:59:10.035Z</time></trkpt><trkpt lat="43.2645665" lon="13.0085099"><ele>339.0</ele><time>2026-04-19T08:59:11.038Z</time></trkpt><trkpt lat="43.2644218" lon="13.0085671"><ele>339.0</ele><time>2026-04-19T08:59:12.033Z</time></trkpt><trkpt lat="43.2642732" lon="13.0086275"><ele>339.0</ele><time>2026-04-19T08:59:13.035Z</time></trkpt><trkpt lat="43.2641336" lon="13.008671"><ele>339.0</ele><time>2026-04-19T08:59:14.038Z</time></trkpt><trkpt lat="43.2639911" lon="13.0087174"><ele>339.0</ele><time>2026-04-19T08:59:15.031Z</time></trkpt><trkpt lat="43.2638423" lon="13.0087721"><ele>339.0</ele><time>2026-04-19T08:59:16.037Z</time></trkpt><trkpt lat="43.2637073" lon="13.0088292"><ele>339.0</ele><time>2026-04-19T08:59:17.037Z</time></trkpt><trkpt lat="43.2635706" lon="13.008917"><ele>339.0</ele><time>2026-04-19T08:59:18.039Z</time></trkpt><trkpt lat="43.2634554" lon="13.0090523"><ele>339.75</ele><time>2026-04-19T08:59:19.032Z</time></trkpt><trkpt lat="43.2633629" lon="13.0092046"><ele>340.5</ele><time>2026-04-19T08:59:20.028Z</time></trkpt><trkpt lat="43.2632782" lon="13.0093634"><ele>341.25</ele><time>2026-04-19T08:59:21.034Z</time></trkpt><trkpt lat="43.2631954" lon="13.0095013"><ele>342.0</ele><time>2026-04-19T08:59:22.035Z</time></trkpt><trkpt lat="43.2631194" lon="13.009616"><ele>341.25</ele><time>2026-04-19T08:59:23.034Z</time></trkpt><trkpt lat="43.2630353" lon="13.0097045"><ele>340.5</ele><time>2026-04-19T08:59:24.037Z</time></trkpt><trkpt lat="43.2629385" lon="13.0097955"><ele>339.75</ele><time>2026-04-19T08:59:25.03Z</time></trkpt><trkpt lat="43.2628662" lon="13.009916"><ele>339.0</ele><time>2026-04-19T08:59:26.043Z</time></trkpt><trkpt lat="43.2628163" lon="13.0100722"><ele>340.5</ele><time>2026-04-19T08:59:27.035Z</time></trkpt><trkpt lat="43.2627494" lon="13.0102206"><ele>342.0</ele><time>2026-04-19T08:59:28.042Z</time></trkpt><trkpt lat="43.2626687" lon="13.010373"><ele>343.5</ele><time>2026-04-19T08:59:29.038Z</time></trkpt><trkpt lat="43.2625804" lon="13.0105217"><ele>345.0</ele><time>2026-04-19T08:59:30.035Z</time></trkpt><trkpt lat="43.2624843" lon="13.0106807"><ele>345.0</ele><time>2026-04-19T08:59:31.032Z</time></trkpt><trkpt lat="43.2623938" lon="13.0108542"><ele>345.0</ele><time>2026-04-19T08:59:32.035Z</time></trkpt><trkpt lat="43.2623044" lon="13.0110449"><ele>345.0</ele><time>2026-04-19T08:59:33.024Z</time></trkpt><trkpt lat="43.262213" lon="13.0112328"><ele>345.0</ele><time>2026-04-19T08:59:34.04Z</time></trkpt><trkpt lat="43.2621218" lon="13.0114215"><ele>345.0</ele><time>2026-04-19T08:59:35.046Z</time></trkpt><trkpt lat="43.2620278" lon="13.01159"><ele>345.0</ele><time>2026-04-19T08:59:36.038Z</time></trkpt><trkpt lat="43.2619289" lon="13.0117359"><ele>345.25</ele><time>2026-04-19T08:59:37.044Z</time></trkpt><trkpt lat="43.2618302" lon="13.0118741"><ele>345.5</ele><time>2026-04-19T08:59:38.042Z</time></trkpt><trkpt lat="43.2617062" lon="13.0119896"><ele>345.75</ele><time>2026-04-19T08:59:39.047Z</time></trkpt><trkpt lat="43.26158" lon="13.0120985"><ele>346.0</ele><time>2026-04-19T08:59:40.042Z</time></trkpt><trkpt lat="43.2614557" lon="13.0121857"><ele>346.0</ele><time>2026-04-19T08:59:41.038Z</time></trkpt><trkpt lat="43.2613441" lon="13.01225"><ele>346.0</ele><time>2026-04-19T08:59:42.038Z</time></trkpt><trkpt lat="43.2612362" lon="13.0122866"><ele>346.0</ele><time>2026-04-19T08:59:43.04Z</time></trkpt><trkpt lat="43.2611399" lon="13.0123259"><ele>346.0</ele><time>2026-04-19T08:59:44.042Z</time></trkpt><trkpt lat="43.2610509" lon="13.0123612"><ele>346.0</ele><time>2026-04-19T08:59:45.037Z</time></trkpt><trkpt lat="43.2609661" lon="13.0123922"><ele>346.0</ele><time>2026-04-19T08:59:46.042Z</time></trkpt><trkpt lat="43.2608903" lon="13.0124115"><ele>346.0</ele><time>2026-04-19T08:59:47.04Z</time></trkpt><trkpt lat="43.2608147" lon="13.0124318"><ele>346.0</ele><time>2026-04-19T08:59:48.022Z</time></trkpt><trkpt lat="43.2607394" lon="13.0124536"><ele>346.0</ele><time>2026-04-19T08:59:49.027Z</time></trkpt><trkpt lat="43.2606658" lon="13.0124694"><ele>346.0</ele><time>2026-04-19T08:59:50.028Z</time></trkpt><trkpt lat="43.260594" lon="13.0124789"><ele>346.0</ele><time>2026-04-19T08:59:51.031Z</time></trkpt><trkpt lat="43.2605169" lon="13.012497"><ele>345.3333333333333</ele><time>2026-04-19T08:59:52.03Z</time></trkpt><trkpt lat="43.2604406" lon="13.0125196"><ele>344.66666666666663</ele><time>2026-04-19T08:59:53.03Z</time></trkpt><trkpt lat="43.260375" lon="13.0125478"><ele>344.0</ele><time>2026-04-19T08:59:54.027Z</time></trkpt><trkpt lat="43.2602841" lon="13.0126032"><ele>343.3333333333333</ele><time>2026-04-19T08:59:56.03Z</time></trkpt><trkpt lat="43.2602073" lon="13.0126518"><ele>342.6666666666667</ele><time>2026-04-19T08:59:58.034Z</time></trkpt><trkpt lat="43.2601061" lon="13.0126882"><ele>342.0</ele><time>2026-04-19T09:00:00.027Z</time></trkpt><trkpt lat="43.2600308" lon="13.012699"><ele>342.0</ele><time>2026-04-19T09:00:01.017Z</time></trkpt><trkpt lat="43.259941" lon="13.0126911"><ele>342.0</ele><time>2026-04-19T09:00:02.026Z</time></trkpt><trkpt lat="43.2598413" lon="13.0126534"><ele>342.0</ele><time>2026-04-19T09:00:03.027Z</time></trkpt><trkpt lat="43.2597243" lon="13.012585"><ele>342.0</ele><time>2026-04-19T09:00:04.032Z</time></trkpt><trkpt lat="43.259598" lon="13.0124871"><ele>341.25</ele><time>2026-04-19T09:00:05.03Z</time></trkpt><trkpt lat="43.2594738" lon="13.0123901"><ele>340.5</ele><time>2026-04-19T09:00:06.047Z</time></trkpt><trkpt lat="43.259353" lon="13.0122988"><ele>339.75</ele><time>2026-04-19T09:00:07.027Z</time></trkpt><trkpt lat="43.2592408" lon="13.0122219"><ele>339.0</ele><time>2026-04-19T09:00:08.034Z</time></trkpt><trkpt lat="43.2591339" lon="13.012151"><ele>339.0</ele><time>2026-04-19T09:00:09.033Z</time></trkpt><trkpt lat="43.2590331" lon="13.0120835"><ele>339.0</ele><time>2026-04-19T09:00:10.039Z</time></trkpt><trkpt lat="43.258936" lon="13.0120214"><ele>339.0</ele><time>2026-04-19T09:00:11.024Z</time></trkpt><trkpt lat="43.258837" lon="13.0119611"><ele>339.0</ele><time>2026-04-19T09:00:12.037Z</time></trkpt><trkpt lat="43.2587302" lon="13.011907"><ele>339.0</ele><time>2026-04-19T09:00:13.033Z</time></trkpt><trkpt lat="43.2586139" lon="13.0118543"><ele>339.5</ele><time>2026-04-19T09:00:14.03Z</time></trkpt><trkpt lat="43.2584887" lon="13.011823"><ele>340.0</ele><time>2026-04-19T09:00:15.034Z</time></trkpt><trkpt lat="43.25836" lon="13.0118168"><ele>340.5</ele><time>2026-04-19T09:00:16.032Z</time></trkpt><trkpt lat="43.2582325" lon="13.0118265"><ele>341.0</ele><time>2026-04-19T09:00:17.032Z</time></trkpt><trkpt lat="43.2581145" lon="13.0118399"><ele>341.0</ele><time>2026-04-19T09:00:18.025Z</time></trkpt><trkpt lat="43.2580056" lon="13.0118529"><ele>341.0</ele><time>2026-04-19T09:00:19.031Z</time></trkpt><trkpt lat="43.2579092" lon="13.0118626"><ele>341.0</ele><time>2026-04-19T09:00:20.03Z</time></trkpt><trkpt lat="43.2578242" lon="13.0118733"><ele>341.0</ele><time>2026-04-19T09:00:21.032Z</time></trkpt><trkpt lat="43.2577398" lon="13.0118821"><ele>341.0</ele><time>2026-04-19T09:00:22.029Z</time></trkpt><trkpt lat="43.2576621" lon="13.0118834"><ele>341.0</ele><time>2026-04-19T09:00:23.026Z</time></trkpt><trkpt lat="43.2575917" lon="13.0118742"><ele>341.0</ele><time>2026-04-19T09:00:24.033Z</time></trkpt><trkpt lat="43.2575137" lon="13.0118545"><ele>341.0</ele><time>2026-04-19T09:00:25.03Z</time></trkpt><trkpt lat="43.2574279" lon="13.0118138"><ele>341.0</ele><time>2026-04-19T09:00:26.031Z</time></trkpt><trkpt lat="43.257348" lon="13.0117613"><ele>341.0</ele><time>2026-04-19T09:00:27.034Z</time></trkpt><trkpt lat="43.2572707" lon="13.0116819"><ele>341.0</ele><time>2026-04-19T09:00:28.031Z</time></trkpt><trkpt lat="43.2571816" lon="13.0115895"><ele>342.0</ele><time>2026-04-19T09:00:29.026Z</time></trkpt><trkpt lat="43.2570913" lon="13.0114915"><ele>343.0</ele><time>2026-04-19T09:00:30.024Z</time></trkpt><trkpt lat="43.2569891" lon="13.0113937"><ele>344.0</ele><time>2026-04-19T09:00:31.022Z</time></trkpt><trkpt lat="43.2568799" lon="13.0112951"><ele>345.0</ele><time>2026-04-19T09:00:32.023Z</time></trkpt><trkpt lat="43.2567695" lon="13.0112007"><ele>345.0</ele><time>2026-04-19T09:00:33.022Z</time></trkpt><trkpt lat="43.2566512" lon="13.0111016"><ele>345.0</ele><time>2026-04-19T09:00:34.018Z</time></trkpt><trkpt lat="43.2565394" lon="13.0109782"><ele>345.0</ele><time>2026-04-19T09:00:35.031Z</time></trkpt><trkpt lat="43.2564161" lon="13.0108534"><ele>345.0</ele><time>2026-04-19T09:00:36.028Z</time></trkpt><trkpt lat="43.2563036" lon="13.0107255"><ele>345.75</ele><time>2026-04-19T09:00:37.04Z</time></trkpt><trkpt lat="43.256193" lon="13.010611"><ele>346.5</ele><time>2026-04-19T09:00:38.025Z</time></trkpt><trkpt lat="43.2560894" lon="13.0104807"><ele>347.25</ele><time>2026-04-19T09:00:39.02Z</time></trkpt><trkpt lat="43.2559784" lon="13.01036"><ele>348.0</ele><time>2026-04-19T09:00:40.022Z</time></trkpt><trkpt lat="43.2558664" lon="13.0102265"><ele>348.0</ele><time>2026-04-19T09:00:41.024Z</time></trkpt><trkpt lat="43.2557442" lon="13.0100884"><ele>348.0</ele><time>2026-04-19T09:00:42.027Z</time></trkpt><trkpt lat="43.2556211" lon="13.0099636"><ele>348.0</ele><time>2026-04-19T09:00:43.019Z</time></trkpt><trkpt lat="43.2555175" lon="13.0098511"><ele>348.0</ele><time>2026-04-19T09:00:44.031Z</time></trkpt><trkpt lat="43.2554276" lon="13.0097562"><ele>349.2</ele><time>2026-04-19T09:00:45.026Z</time></trkpt><trkpt lat="43.2553382" lon="13.0096833"><ele>350.4</ele><time>2026-04-19T09:00:46.033Z</time></trkpt><trkpt lat="43.2552464" lon="13.0096484"><ele>351.59999999999997</ele><time>2026-04-19T09:00:47.026Z</time></trkpt><trkpt lat="43.255161" lon="13.0096271"><ele>352.79999999999995</ele><time>2026-04-19T09:00:48.022Z</time></trkpt><trkpt lat="43.2550729" lon="13.0096256"><ele>354.0</ele><time>2026-04-19T09:00:49.022Z</time></trkpt><trkpt lat="43.2549842" lon="13.0096248"><ele>354.0</ele><time>2026-04-19T09:00:50.022Z</time></trkpt><trkpt lat="43.2548981" lon="13.0096336"><ele>354.0</ele><time>2026-04-19T09:00:51.02Z</time></trkpt><trkpt lat="43.2548183" lon="13.009649"><ele>354.0</ele><time>2026-04-19T09:00:52.022Z</time></trkpt><trkpt lat="43.2547443" lon="13.009663"><ele>354.0</ele><time>2026-04-19T09:00:53.021Z</time></trkpt><trkpt lat="43.2546684" lon="13.009675"><ele>354.0</ele><time>2026-04-19T09:00:54.021Z</time></trkpt><trkpt lat="43.2545902" lon="13.0096888"><ele>354.0</ele><time>2026-04-19T09:00:55.021Z</time></trkpt><trkpt lat="43.254508" lon="13.0097017"><ele>354.0</ele><time>2026-04-19T09:00:56.024Z</time></trkpt><trkpt lat="43.2544229" lon="13.0097117"><ele>354.0</ele><time>2026-04-19T09:00:57.029Z</time></trkpt><trkpt lat="43.2543299" lon="13.0097239"><ele>354.0</ele><time>2026-04-19T09:00:58.03Z</time></trkpt><trkpt lat="43.2542378" lon="13.0097353"><ele>354.0</ele><time>2026-04-19T09:00:59.03Z</time></trkpt><trkpt lat="43.2541469" lon="13.0097474"><ele>354.0</ele><time>2026-04-19T09:01:00.028Z</time></trkpt><trkpt lat="43.254052" lon="13.009753"><ele>353.75</ele><time>2026-04-19T09:01:01.023Z</time></trkpt><trkpt lat="43.2539537" lon="13.0097389"><ele>353.5</ele><time>2026-04-19T09:01:02.038Z</time></trkpt><trkpt lat="43.2538471" lon="13.0096988"><ele>353.25</ele><time>2026-04-19T09:01:03.035Z</time></trkpt><trkpt lat="43.2537231" lon="13.0096403"><ele>353.0</ele><time>2026-04-19T09:01:04.031Z</time></trkpt><trkpt lat="43.2535855" lon="13.0095821"><ele>353.0</ele><time>2026-04-19T09:01:05.031Z</time></trkpt><trkpt lat="43.253444" lon="13.0095241"><ele>353.0</ele><time>2026-04-19T09:01:06.032Z</time></trkpt><trkpt lat="43.2533099" lon="13.0094648"><ele>353.0</ele><time>2026-04-19T09:01:07.033Z</time></trkpt><trkpt lat="43.2531817" lon="13.009405"><ele>353.0</ele><time>2026-04-19T09:01:08.044Z</time></trkpt><trkpt lat="43.2530587" lon="13.0093559"><ele>353.59999999999997</ele><time>2026-04-19T09:01:09.026Z</time></trkpt><trkpt lat="43.2529481" lon="13.0093192"><ele>354.2</ele><time>2026-04-19T09:01:10.03Z</time></trkpt><trkpt lat="43.2528423" lon="13.009298"><ele>354.8</ele><time>2026-04-19T09:01:11.024Z</time></trkpt><trkpt lat="43.2527402" lon="13.0092864"><ele>355.4</ele><time>2026-04-19T09:01:12.029Z</time></trkpt><trkpt lat="43.2526371" lon="13.0092774"><ele>356.0</ele><time>2026-04-19T09:01:13.023Z</time></trkpt><trkpt lat="43.2525398" lon="13.0092739"><ele>356.0</ele><time>2026-04-19T09:01:14.028Z</time></trkpt><trkpt lat="43.2524368" lon="13.0092675"><ele>356.0</ele><time>2026-04-19T09:01:15.034Z</time></trkpt><trkpt lat="43.2523305" lon="13.0092603"><ele>356.0</ele><time>2026-04-19T09:01:16.033Z</time></trkpt><trkpt lat="43.2522257" lon="13.0092577"><ele>356.0</ele><time>2026-04-19T09:01:17.025Z</time></trkpt><trkpt lat="43.2521177" lon="13.0092518"><ele>356.0</ele><time>2026-04-19T09:01:18.026Z</time></trkpt><trkpt lat="43.2520154" lon="13.0092496"><ele>356.4</ele><time>2026-04-19T09:01:19.029Z</time></trkpt><trkpt lat="43.2519167" lon="13.0092472"><ele>356.8</ele><time>2026-04-19T09:01:20.03Z</time></trkpt><trkpt lat="43.2518194" lon="13.0092422"><ele>357.2</ele><time>2026-04-19T09:01:21.035Z</time></trkpt><trkpt lat="43.2517229" lon="13.0092363"><ele>357.59999999999997</ele><time>2026-04-19T09:01:22.037Z</time></trkpt><trkpt lat="43.2516263" lon="13.0092342"><ele>358.0</ele><time>2026-04-19T09:01:23.035Z</time></trkpt><trkpt lat="43.2515331" lon="13.0092247"><ele>358.4</ele><time>2026-04-19T09:01:24.045Z</time></trkpt><trkpt lat="43.2514329" lon="13.0092063"><ele>358.79999999999995</ele><time>2026-04-19T09:01:25.039Z</time></trkpt><trkpt lat="43.2513328" lon="13.0091796"><ele>359.2</ele><time>2026-04-19T09:01:26.042Z</time></trkpt><trkpt lat="43.251227" lon="13.0091557"><ele>359.6</ele><time>2026-04-19T09:01:27.044Z</time></trkpt><trkpt lat="43.2511284" lon="13.0091439"><ele>360.0</ele><time>2026-04-19T09:01:28.041Z</time></trkpt><trkpt lat="43.2510338" lon="13.0091489"><ele>360.0</ele><time>2026-04-19T09:01:29.035Z</time></trkpt><trkpt lat="43.2509391" lon="13.0091746"><ele>360.0</ele><time>2026-04-19T09:01:30.033Z</time></trkpt><trkpt lat="43.2508466" lon="13.0092213"><ele>360.0</ele><time>2026-04-19T09:01:31.031Z</time></trkpt><trkpt lat="43.2507605" lon="13.0092752"><ele>360.0</ele><time>2026-04-19T09:01:32.021Z</time></trkpt><trkpt lat="43.2506807" lon="13.0093328"><ele>360.0</ele><time>2026-04-19T09:01:33.031Z</time></trkpt><trkpt lat="43.2506063" lon="13.0093803"><ele>360.2</ele><time>2026-04-19T09:01:34.024Z</time></trkpt><trkpt lat="43.2505272" lon="13.0094287"><ele>360.4</ele><time>2026-04-19T09:01:35.025Z</time></trkpt><trkpt lat="43.250433" lon="13.0094753"><ele>360.6</ele><time>2026-04-19T09:01:36.026Z</time></trkpt><trkpt lat="43.2503258" lon="13.0095265"><ele>360.8</ele><time>2026-04-19T09:01:37.029Z</time></trkpt><trkpt lat="43.2502106" lon="13.0095832"><ele>361.0</ele><time>2026-04-19T09:01:38.021Z</time></trkpt><trkpt lat="43.2500869" lon="13.0096384"><ele>361.0</ele><time>2026-04-19T09:01:39.03Z</time></trkpt><trkpt lat="43.2499603" lon="13.0096988"><ele>361.0</ele><time>2026-04-19T09:01:40.031Z</time></trkpt><trkpt lat="43.2498334" lon="13.0097623"><ele>361.0</ele><time>2026-04-19T09:01:41.03Z</time></trkpt><trkpt lat="43.2497029" lon="13.0098283"><ele>361.0</ele><time>2026-04-19T09:01:42.031Z</time></trkpt><trkpt lat="43.2495792" lon="13.0098884"><ele>361.0</ele><time>2026-04-19T09:01:43.027Z</time></trkpt><trkpt lat="43.249452" lon="13.0099531"><ele>361.0</ele><time>2026-04-19T09:01:44.032Z</time></trkpt><trkpt lat="43.2493281" lon="13.0100151"><ele>361.0</ele><time>2026-04-19T09:01:45.025Z</time></trkpt><trkpt lat="43.2492008" lon="13.0100745"><ele>361.0</ele><time>2026-04-19T09:01:46.033Z</time></trkpt><trkpt lat="43.2490738" lon="13.0101319"><ele>361.0</ele><time>2026-04-19T09:01:47.04Z</time></trkpt><trkpt lat="43.2489535" lon="13.0101833"><ele>361.0</ele><time>2026-04-19T09:01:48.034Z</time></trkpt><trkpt lat="43.2488334" lon="13.0102381"><ele>361.0</ele><time>2026-04-19T09:01:49.024Z</time></trkpt><trkpt lat="43.2487252" lon="13.0102876"><ele>361.0</ele><time>2026-04-19T09:01:50.026Z</time></trkpt><trkpt lat="43.2486293" lon="13.0103323"><ele>361.0</ele><time>2026-04-19T09:01:51.028Z</time></trkpt><trkpt lat="43.2485422" lon="13.0103721"><ele>361.0</ele><time>2026-04-19T09:01:52.034Z</time></trkpt><trkpt lat="43.2484665" lon="13.0104048"><ele>361.0</ele><time>2026-04-19T09:01:53.034Z</time></trkpt><trkpt lat="43.2483823" lon="13.0104274"><ele>361.0</ele><time>2026-04-19T09:01:54.039Z</time></trkpt><trkpt lat="43.2483014" lon="13.0104353"><ele>361.0</ele><time>2026-04-19T09:01:55.036Z</time></trkpt><trkpt lat="43.2482253" lon="13.0104188"><ele>361.0</ele><time>2026-04-19T09:01:56.034Z</time></trkpt><trkpt lat="43.248156" lon="13.0104059"><ele>362.0</ele><time>2026-04-19T09:01:57.045Z</time></trkpt><trkpt lat="43.2480896" lon="13.0104144"><ele>363.0</ele><time>2026-04-19T09:01:58.04Z</time></trkpt><trkpt lat="43.2480377" lon="13.0104787"><ele>364.0</ele><time>2026-04-19T09:01:59.046Z</time></trkpt><trkpt lat="43.2479905" lon="13.0106019"><ele>365.0</ele><time>2026-04-19T09:02:00.028Z</time></trkpt><trkpt lat="43.2479233" lon="13.0107199"><ele>366.0</ele><time>2026-04-19T09:02:01.035Z</time></trkpt><trkpt lat="43.2478266" lon="13.0108306"><ele>366.0</ele><time>2026-04-19T09:02:02.03Z</time></trkpt><trkpt lat="43.2477121" lon="13.0109306"><ele>366.0</ele><time>2026-04-19T09:02:03.035Z</time></trkpt><trkpt lat="43.2475783" lon="13.0110404"><ele>366.0</ele><time>2026-04-19T09:02:04.033Z</time></trkpt><trkpt lat="43.2474248" lon="13.0111751"><ele>366.3333333333333</ele><time>2026-04-19T09:02:05.034Z</time></trkpt><trkpt lat="43.2472665" lon="13.011328"><ele>366.66666666666663</ele><time>2026-04-19T09:02:06.033Z</time></trkpt><trkpt lat="43.2471118" lon="13.0114927"><ele>367.0</ele><time>2026-04-19T09:02:07.036Z</time></trkpt><trkpt lat="43.2469573" lon="13.0116635"><ele>367.0</ele><time>2026-04-19T09:02:08.04Z</time></trkpt><trkpt lat="43.2468129" lon="13.0118401"><ele>367.0</ele><time>2026-04-19T09:02:09.034Z</time></trkpt><trkpt lat="43.2466591" lon="13.0120208"><ele>367.0</ele><time>2026-04-19T09:02:10.051Z</time></trkpt><trkpt lat="43.2465073" lon="13.0122109"><ele>366.0</ele><time>2026-04-19T09:02:11.038Z</time></trkpt><trkpt lat="43.2463504" lon="13.0123988"><ele>365.0</ele><time>2026-04-19T09:02:12.041Z</time></trkpt><trkpt lat="43.2461942" lon="13.0125752"><ele>364.0</ele><time>2026-04-19T09:02:13.034Z</time></trkpt><trkpt lat="43.2460459" lon="13.0127284"><ele>364.0</ele><time>2026-04-19T09:02:14.033Z</time></trkpt><trkpt lat="43.2459028" lon="13.0128609"><ele>364.0</ele><time>2026-04-19T09:02:15.034Z</time></trkpt><trkpt lat="43.2457397" lon="13.0129812"><ele>364.0</ele><time>2026-04-19T09:02:16.041Z</time></trkpt><trkpt lat="43.2455822" lon="13.0130893"><ele>364.66666666666663</ele><time>2026-04-19T09:02:17.038Z</time></trkpt><trkpt lat="43.2454247" lon="13.0131936"><ele>365.3333333333333</ele><time>2026-04-19T09:02:18.04Z</time></trkpt><trkpt lat="43.2452606" lon="13.0133035"><ele>366.0</ele><time>2026-04-19T09:02:19.042Z</time></trkpt><trkpt lat="43.2450998" lon="13.0134053"><ele>367.3333333333333</ele><time>2026-04-19T09:02:20.038Z</time></trkpt><trkpt lat="43.2449359" lon="13.0134948"><ele>368.66666666666663</ele><time>2026-04-19T09:02:21.039Z</time></trkpt><trkpt lat="43.2447725" lon="13.0135891"><ele>370.0</ele><time>2026-04-19T09:02:22.036Z</time></trkpt><trkpt lat="43.2446116" lon="13.013679"><ele>371.0</ele><time>2026-04-19T09:02:23.035Z</time></trkpt><trkpt lat="43.2444584" lon="13.0137587"><ele>372.0</ele><time>2026-04-19T09:02:24.033Z</time></trkpt><trkpt lat="43.2443221" lon="13.0138277"><ele>373.0</ele><time>2026-04-19T09:02:25.024Z</time></trkpt><trkpt lat="43.2441908" lon="13.0138972"><ele>373.0</ele><time>2026-04-19T09:02:26.034Z</time></trkpt><trkpt lat="43.2440724" lon="13.0139599"><ele>373.0</ele><time>2026-04-19T09:02:27.04Z</time></trkpt><trkpt lat="43.2439508" lon="13.0140318"><ele>373.0</ele><time>2026-04-19T09:02:28.036Z</time></trkpt><trkpt lat="43.243823" lon="13.0141077"><ele>373.0</ele><time>2026-04-19T09:02:29.037Z</time></trkpt><trkpt lat="43.2436922" lon="13.0141866"><ele>373.66666666666663</ele><time>2026-04-19T09:02:30.04Z</time></trkpt><trkpt lat="43.2435545" lon="13.0142755"><ele>374.3333333333333</ele><time>2026-04-19T09:02:31.035Z</time></trkpt><trkpt lat="43.2434111" lon="13.0143755"><ele>375.0</ele><time>2026-04-19T09:02:32.037Z</time></trkpt><trkpt lat="43.2432801" lon="13.0145042"><ele>375.0</ele><time>2026-04-19T09:02:33.037Z</time></trkpt><trkpt lat="43.243157" lon="13.0146528"><ele>375.0</ele><time>2026-04-19T09:02:34.036Z</time></trkpt><trkpt lat="43.2430204" lon="13.0148128"><ele>375.0</ele><time>2026-04-19T09:02:35.036Z</time></trkpt><trkpt lat="43.2428799" lon="13.0149672"><ele>375.6666666666667</ele><time>2026-04-19T09:02:36.038Z</time></trkpt><trkpt lat="43.2427401" lon="13.0151202"><ele>376.33333333333337</ele><time>2026-04-19T09:02:37.038Z</time></trkpt><trkpt lat="43.242601" lon="13.0152708"><ele>377.0</ele><time>2026-04-19T09:02:38.044Z</time></trkpt><trkpt lat="43.2424568" lon="13.0154258"><ele>377.0</ele><time>2026-04-19T09:02:39.042Z</time></trkpt><trkpt lat="43.2423082" lon="13.0155836"><ele>377.0</ele><time>2026-04-19T09:02:40.037Z</time></trkpt><trkpt lat="43.2421549" lon="13.0157445"><ele>377.0</ele><time>2026-04-19T09:02:41.051Z</time></trkpt><trkpt lat="43.2420007" lon="13.0158993"><ele>377.33333333333337</ele><time>2026-04-19T09:02:42.043Z</time></trkpt><trkpt lat="43.2418556" lon="13.0160596"><ele>377.6666666666667</ele><time>2026-04-19T09:02:43.035Z</time></trkpt><trkpt lat="43.2416993" lon="13.0162237"><ele>378.0</ele><time>2026-04-19T09:02:44.036Z</time></trkpt><trkpt lat="43.2415559" lon="13.0163982"><ele>378.6666666666667</ele><time>2026-04-19T09:02:45.032Z</time></trkpt><trkpt lat="43.2413964" lon="13.0165735"><ele>379.33333333333337</ele><time>2026-04-19T09:02:46.043Z</time></trkpt><trkpt lat="43.2412295" lon="13.016754"><ele>380.0</ele><time>2026-04-19T09:02:47.039Z</time></trkpt><trkpt lat="43.2410568" lon="13.0169229"><ele>379.33333333333337</ele><time>2026-04-19T09:02:48.035Z</time></trkpt><trkpt lat="43.2408752" lon="13.0170888"><ele>378.6666666666667</ele><time>2026-04-19T09:02:49.031Z</time></trkpt><trkpt lat="43.2406866" lon="13.0172538"><ele>378.0</ele><time>2026-04-19T09:02:50.036Z</time></trkpt><trkpt lat="43.2405011" lon="13.0174195"><ele>377.3333333333333</ele><time>2026-04-19T09:02:51.036Z</time></trkpt><trkpt lat="43.24031" lon="13.0175857"><ele>376.66666666666663</ele><time>2026-04-19T09:02:52.039Z</time></trkpt><trkpt lat="43.2401228" lon="13.0177431"><ele>376.0</ele><time>2026-04-19T09:02:53.035Z</time></trkpt><trkpt lat="43.2399482" lon="13.0178935"><ele>377.66666666666663</ele><time>2026-04-19T09:02:54.035Z</time></trkpt><trkpt lat="43.2397756" lon="13.0180316"><ele>379.3333333333333</ele><time>2026-04-19T09:02:55.035Z</time></trkpt><trkpt lat="43.239596" lon="13.0181546"><ele>381.0</ele><time>2026-04-19T09:02:56.034Z</time></trkpt><trkpt lat="43.2394096" lon="13.0182446"><ele>381.0</ele><time>2026-04-19T09:02:57.045Z</time></trkpt><trkpt lat="43.2392148" lon="13.0183036"><ele>381.0</ele><time>2026-04-19T09:02:58.034Z</time></trkpt><trkpt lat="43.2390138" lon="13.0183419"><ele>381.0</ele><time>2026-04-19T09:02:59.032Z</time></trkpt><trkpt lat="43.2388198" lon="13.0183729"><ele>380.0</ele><time>2026-04-19T09:03:00.033Z</time></trkpt><trkpt lat="43.2386321" lon="13.018404"><ele>379.0</ele><time>2026-04-19T09:03:01.026Z</time></trkpt><trkpt lat="43.2384548" lon="13.0184354"><ele>378.0</ele><time>2026-04-19T09:03:02.03Z</time></trkpt><trkpt lat="43.2382786" lon="13.0184655"><ele>378.3333333333333</ele><time>2026-04-19T09:03:03.036Z</time></trkpt><trkpt lat="43.2381012" lon="13.0184962"><ele>378.66666666666663</ele><time>2026-04-19T09:03:04.03Z</time></trkpt><trkpt lat="43.2379338" lon="13.0185288"><ele>379.0</ele><time>2026-04-19T09:03:05.038Z</time></trkpt><trkpt lat="43.2377605" lon="13.0185634"><ele>379.0</ele><time>2026-04-19T09:03:06.028Z</time></trkpt><trkpt lat="43.2375835" lon="13.0185987"><ele>379.0</ele><time>2026-04-19T09:03:07.028Z</time></trkpt><trkpt lat="43.237392" lon="13.0186365"><ele>379.0</ele><time>2026-04-19T09:03:08.036Z</time></trkpt><trkpt lat="43.2371881" lon="13.0186785"><ele>380.66666666666663</ele><time>2026-04-19T09:03:09.038Z</time></trkpt><trkpt lat="43.2369854" lon="13.018711"><ele>382.3333333333333</ele><time>2026-04-19T09:03:10.034Z</time></trkpt><trkpt lat="43.2367737" lon="13.018743"><ele>384.0</ele><time>2026-04-19T09:03:11.034Z</time></trkpt><trkpt lat="43.2365628" lon="13.0187772"><ele>384.33333333333337</ele><time>2026-04-19T09:03:12.049Z</time></trkpt><trkpt lat="43.2363586" lon="13.0188315"><ele>384.6666666666667</ele><time>2026-04-19T09:03:13.026Z</time></trkpt><trkpt lat="43.2361627" lon="13.0189046"><ele>385.0</ele><time>2026-04-19T09:03:14.034Z</time></trkpt><trkpt lat="43.2359694" lon="13.0190041"><ele>385.0</ele><time>2026-04-19T09:03:15.025Z</time></trkpt><trkpt lat="43.2357789" lon="13.0191203"><ele>385.0</ele><time>2026-04-19T09:03:16.034Z</time></trkpt><trkpt lat="43.2355969" lon="13.0192516"><ele>385.0</ele><time>2026-04-19T09:03:17.032Z</time></trkpt><trkpt lat="43.2354189" lon="13.0194023"><ele>384.6666666666667</ele><time>2026-04-19T09:03:18.033Z</time></trkpt><trkpt lat="43.2352448" lon="13.0195672"><ele>384.33333333333337</ele><time>2026-04-19T09:03:19.032Z</time></trkpt><trkpt lat="43.2350837" lon="13.0197227"><ele>384.0</ele><time>2026-04-19T09:03:20.033Z</time></trkpt><trkpt lat="43.2349248" lon="13.0198715"><ele>385.33333333333337</ele><time>2026-04-19T09:03:21.033Z</time></trkpt><trkpt lat="43.234765" lon="13.0200166"><ele>386.6666666666667</ele><time>2026-04-19T09:03:22.039Z</time></trkpt><trkpt lat="43.2346099" lon="13.0201646"><ele>388.0</ele><time>2026-04-19T09:03:23.035Z</time></trkpt><trkpt lat="43.2344675" lon="13.020313"><ele>388.0</ele><time>2026-04-19T09:03:24.029Z</time></trkpt><trkpt lat="43.2343304" lon="13.0204513"><ele>388.0</ele><time>2026-04-19T09:03:25.024Z</time></trkpt><trkpt lat="43.2341857" lon="13.0205925"><ele>388.0</ele><time>2026-04-19T09:03:26.018Z</time></trkpt><trkpt lat="43.2340466" lon="13.0207441"><ele>389.0</ele><time>2026-04-19T09:03:27.033Z</time></trkpt><trkpt lat="43.2339097" lon="13.0208964"><ele>390.0</ele><time>2026-04-19T09:03:28.031Z</time></trkpt><trkpt lat="43.2337768" lon="13.0210526"><ele>391.0</ele><time>2026-04-19T09:03:29.033Z</time></trkpt><trkpt lat="43.2336531" lon="13.0212231"><ele>391.0</ele><time>2026-04-19T09:03:30.033Z</time></trkpt><trkpt lat="43.2335272" lon="13.0214079"><ele>391.0</ele><time>2026-04-19T09:03:31.039Z</time></trkpt><trkpt lat="43.2334" lon="13.0216016"><ele>391.0</ele><time>2026-04-19T09:03:32.039Z</time></trkpt><trkpt lat="43.233277" lon="13.0217926"><ele>390.0</ele><time>2026-04-19T09:03:33.039Z</time></trkpt><trkpt lat="43.2331526" lon="13.0219923"><ele>389.0</ele><time>2026-04-19T09:03:34.033Z</time></trkpt><trkpt lat="43.2330309" lon="13.0221943"><ele>388.0</ele><time>2026-04-19T09:03:35.038Z</time></trkpt><trkpt lat="43.2329037" lon="13.0223941"><ele>385.6666666666667</ele><time>2026-04-19T09:03:36.03Z</time></trkpt><trkpt lat="43.2327743" lon="13.022595"><ele>383.33333333333337</ele><time>2026-04-19T09:03:37.039Z</time></trkpt><trkpt lat="43.2326467" lon="13.0227991"><ele>381.0</ele><time>2026-04-19T09:03:38.041Z</time></trkpt><trkpt lat="43.2325178" lon="13.0230151"><ele>381.0</ele><time>2026-04-19T09:03:39.036Z</time></trkpt><trkpt lat="43.2323804" lon="13.0232383"><ele>381.0</ele><time>2026-04-19T09:03:40.044Z</time></trkpt><trkpt lat="43.2322384" lon="13.0234706"><ele>381.0</ele><time>2026-04-19T09:03:41.038Z</time></trkpt><trkpt lat="43.2320948" lon="13.0237036"><ele>378.5</ele><time>2026-04-19T09:03:42.045Z</time></trkpt><trkpt lat="43.231945" lon="13.0239454"><ele>376.0</ele><time>2026-04-19T09:03:43.061Z</time></trkpt><trkpt lat="43.2317921" lon="13.0241876"><ele>376.0</ele><time>2026-04-19T09:03:44.036Z</time></trkpt><trkpt lat="43.2316381" lon="13.0244319"><ele>376.0</ele><time>2026-04-19T09:03:45.039Z</time></trkpt><trkpt lat="43.2314881" lon="13.024674"><ele>375.0</ele><time>2026-04-19T09:03:46.04Z</time></trkpt><trkpt lat="43.2313361" lon="13.0249225"><ele>374.0</ele><time>2026-04-19T09:03:47.043Z</time></trkpt><trkpt lat="43.2311869" lon="13.0251713"><ele>374.0</ele><time>2026-04-19T09:03:48.033Z</time></trkpt><trkpt lat="43.2310336" lon="13.02542"><ele>374.0</ele><time>2026-04-19T09:03:49.036Z</time></trkpt><trkpt lat="43.2308815" lon="13.0256666"><ele>373.5</ele><time>2026-04-19T09:03:50.039Z</time></trkpt><trkpt lat="43.2307321" lon="13.0259071"><ele>373.0</ele><time>2026-04-19T09:03:51.035Z</time></trkpt><trkpt lat="43.2305848" lon="13.026137"><ele>370.3333333333333</ele><time>2026-04-19T09:03:52.031Z</time></trkpt><trkpt lat="43.2304586" lon="13.0263658"><ele>367.6666666666667</ele><time>2026-04-19T09:03:53.038Z</time></trkpt><trkpt lat="43.2303852" lon="13.0266009"><ele>365.0</ele><time>2026-04-19T09:03:54.032Z</time></trkpt><trkpt lat="43.2303564" lon="13.026837"><ele>363.33333333333337</ele><time>2026-04-19T09:03:55.03Z</time></trkpt><trkpt lat="43.2303764" lon="13.0270729"><ele>361.6666666666667</ele><time>2026-04-19T09:03:56.034Z</time></trkpt><trkpt lat="43.2304104" lon="13.0273136"><ele>360.0</ele><time>2026-04-19T09:03:57.028Z</time></trkpt><trkpt lat="43.2304564" lon="13.0275359"><ele>358.6666666666667</ele><time>2026-04-19T09:03:58.031Z</time></trkpt><trkpt lat="43.2304961" lon="13.0277527"><ele>357.33333333333337</ele><time>2026-04-19T09:03:59.031Z</time></trkpt><trkpt lat="43.2305404" lon="13.0279629"><ele>356.0</ele><time>2026-04-19T09:04:00.036Z</time></trkpt><trkpt lat="43.2306006" lon="13.0281546"><ele>356.33333333333337</ele><time>2026-04-19T09:04:01.031Z</time></trkpt><trkpt lat="43.2306729" lon="13.0283512"><ele>356.6666666666667</ele><time>2026-04-19T09:04:02.025Z</time></trkpt><trkpt lat="43.2307461" lon="13.0285556"><ele>357.0</ele><time>2026-04-19T09:04:03.036Z</time></trkpt><trkpt lat="43.2308168" lon="13.0287548"><ele>357.0</ele><time>2026-04-19T09:04:04.023Z</time></trkpt><trkpt lat="43.2308831" lon="13.0289484"><ele>357.0</ele><time>2026-04-19T09:04:05.039Z</time></trkpt><trkpt lat="43.2309365" lon="13.029142"><ele>357.0</ele><time>2026-04-19T09:04:06.031Z</time></trkpt><trkpt lat="43.2309714" lon="13.0293251"><ele>357.0</ele><time>2026-04-19T09:04:07.031Z</time></trkpt><trkpt lat="43.2309632" lon="13.0294915"><ele>356.1666666666667</ele><time>2026-04-19T09:04:08.026Z</time></trkpt><trkpt lat="43.2309089" lon="13.0296177"><ele>355.3333333333333</ele><time>2026-04-19T09:04:09.02Z</time></trkpt><trkpt lat="43.2308568" lon="13.0296969"><ele>354.5</ele><time>2026-04-19T09:04:10.034Z</time></trkpt><trkpt lat="43.2307877" lon="13.0297478"><ele>353.66666666666663</ele><time>2026-04-19T09:04:11.027Z</time></trkpt><trkpt lat="43.230716" lon="13.0297583"><ele>352.8333333333333</ele><time>2026-04-19T09:04:12.026Z</time></trkpt><trkpt lat="43.2306314" lon="13.0297547"><ele>352.0</ele><time>2026-04-19T09:04:13.04Z</time></trkpt><trkpt lat="43.2305358" lon="13.0297288"><ele>351.25</ele><time>2026-04-19T09:04:14.023Z</time></trkpt><trkpt lat="43.2304414" lon="13.0296727"><ele>350.5</ele><time>2026-04-19T09:04:15.023Z</time></trkpt><trkpt lat="43.2303416" lon="13.0295983"><ele>349.75</ele><time>2026-04-19T09:04:16.025Z</time></trkpt><trkpt lat="43.2302335" lon="13.0295065"><ele>349.0</ele><time>2026-04-19T09:04:17.027Z</time></trkpt><trkpt lat="43.2301178" lon="13.0294125"><ele>349.0</ele><time>2026-04-19T09:04:18.03Z</time></trkpt><trkpt lat="43.2300033" lon="13.0293338"><ele>349.0</ele><time>2026-04-19T09:04:19.027Z</time></trkpt><trkpt lat="43.2298878" lon="13.0292837"><ele>349.0</ele><time>2026-04-19T09:04:20.028Z</time></trkpt><trkpt lat="43.2297691" lon="13.029271"><ele>349.0</ele><time>2026-04-19T09:04:21.028Z</time></trkpt><trkpt lat="43.229645" lon="13.0292934"><ele>347.75</ele><time>2026-04-19T09:04:22.019Z</time></trkpt><trkpt lat="43.2295213" lon="13.0293614"><ele>346.5</ele><time>2026-04-19T09:04:23.021Z</time></trkpt><trkpt lat="43.2294194" lon="13.0294969"><ele>345.25</ele><time>2026-04-19T09:04:24.023Z</time></trkpt><trkpt lat="43.2293594" lon="13.0296813"><ele>344.0</ele><time>2026-04-19T09:04:25.032Z</time></trkpt><trkpt lat="43.229338" lon="13.0299062"><ele>344.6666666666667</ele><time>2026-04-19T09:04:26.022Z</time></trkpt><trkpt lat="43.2293404" lon="13.0301606"><ele>345.3333333333333</ele><time>2026-04-19T09:04:27.023Z</time></trkpt><trkpt lat="43.2293325" lon="13.030402"><ele>346.0</ele><time>2026-04-19T09:04:28.022Z</time></trkpt><trkpt lat="43.2293074" lon="13.0306537"><ele>345.0</ele><time>2026-04-19T09:04:29.019Z</time></trkpt><trkpt lat="43.2292518" lon="13.0309016"><ele>344.0</ele><time>2026-04-19T09:04:30.031Z</time></trkpt><trkpt lat="43.2291517" lon="13.0311565"><ele>343.0</ele><time>2026-04-19T09:04:31.026Z</time></trkpt><trkpt lat="43.2290099" lon="13.0314146"><ele>342.3333333333333</ele><time>2026-04-19T09:04:32.02Z</time></trkpt><trkpt lat="43.2288947" lon="13.031653"><ele>341.6666666666667</ele><time>2026-04-19T09:04:33.024Z</time></trkpt><trkpt lat="43.2287981" lon="13.0318928"><ele>341.0</ele><time>2026-04-19T09:04:34.023Z</time></trkpt><trkpt lat="43.2287124" lon="13.032133"><ele>341.0</ele><time>2026-04-19T09:04:35.015Z</time></trkpt><trkpt lat="43.2286403" lon="13.0323661"><ele>341.0</ele><time>2026-04-19T09:04:36.016Z</time></trkpt><trkpt lat="43.2285896" lon="13.0326106"><ele>341.0</ele><time>2026-04-19T09:04:37.025Z</time></trkpt><trkpt lat="43.2285484" lon="13.0328574"><ele>340.6666666666667</ele><time>2026-04-19T09:04:38.02Z</time></trkpt><trkpt lat="43.2285042" lon="13.0330828"><ele>340.3333333333333</ele><time>2026-04-19T09:04:39.028Z</time></trkpt><trkpt lat="43.2284209" lon="13.0332826"><ele>340.0</ele><time>2026-04-19T09:04:40.023Z</time></trkpt><trkpt lat="43.2283188" lon="13.0334382"><ele>339.0</ele><time>2026-04-19T09:04:41.015Z</time></trkpt><trkpt lat="43.228204" lon="13.0335797"><ele>338.0</ele><time>2026-04-19T09:04:42.014Z</time></trkpt><trkpt lat="43.2280981" lon="13.0337167"><ele>337.0</ele><time>2026-04-19T09:04:43.01Z</time></trkpt><trkpt lat="43.2279904" lon="13.0338674"><ele>336.66666666666663</ele><time>2026-04-19T09:04:44.022Z</time></trkpt><trkpt lat="43.2278753" lon="13.0340408"><ele>336.3333333333333</ele><time>2026-04-19T09:04:45.012Z</time></trkpt><trkpt lat="43.2277674" lon="13.0342057"><ele>336.0</ele><time>2026-04-19T09:04:46.012Z</time></trkpt><trkpt lat="43.2276578" lon="13.034359"><ele>335.5</ele><time>2026-04-19T09:04:47.012Z</time></trkpt><trkpt lat="43.2275603" lon="13.0344975"><ele>335.0</ele><time>2026-04-19T09:04:48.014Z</time></trkpt><trkpt lat="43.2274814" lon="13.0346462"><ele>334.5</ele><time>2026-04-19T09:04:49.011Z</time></trkpt><trkpt lat="43.2274224" lon="13.0348083"><ele>334.0</ele><time>2026-04-19T09:04:50.019Z</time></trkpt><trkpt lat="43.2273963" lon="13.0349976"><ele>334.0</ele><time>2026-04-19T09:04:51.016Z</time></trkpt><trkpt lat="43.2274109" lon="13.0352376"><ele>334.0</ele><time>2026-04-19T09:04:52.017Z</time></trkpt><trkpt lat="43.2274366" lon="13.0355053"><ele>334.0</ele><time>2026-04-19T09:04:53.015Z</time></trkpt><trkpt lat="43.2274724" lon="13.0358336"><ele>334.0</ele><time>2026-04-19T09:04:54.018Z</time></trkpt><trkpt lat="43.2274978" lon="13.0361819"><ele>334.0</ele><time>2026-04-19T09:04:55.017Z</time></trkpt><trkpt lat="43.2275078" lon="13.0365092"><ele>333.75</ele><time>2026-04-19T09:04:56.015Z</time></trkpt><trkpt lat="43.2275037" lon="13.0367653"><ele>333.5</ele><time>2026-04-19T09:04:57.021Z</time></trkpt><trkpt lat="43.2274865" lon="13.0369579"><ele>333.25</ele><time>2026-04-19T09:04:58.015Z</time></trkpt><trkpt lat="43.2274717" lon="13.0370818"><ele>333.0</ele><time>2026-04-19T09:04:59.019Z</time></trkpt><trkpt lat="43.2274157" lon="13.0371794"><ele>333.0</ele><time>2026-04-19T09:05:01.012Z</time></trkpt><trkpt lat="43.2273433" lon="13.037208"><ele>333.0</ele><time>2026-04-19T09:05:03.005Z</time></trkpt><trkpt lat="43.2272718" lon="13.0372238"><ele>333.0</ele><time>2026-04-19T09:05:04Z</time></trkpt><trkpt lat="43.2271879" lon="13.0372517"><ele>333.0</ele><time>2026-04-19T09:05:05.008Z</time></trkpt><trkpt lat="43.227112" lon="13.0373059"><ele>333.0</ele><time>2026-04-19T09:05:06.011Z</time></trkpt><trkpt lat="43.2270534" lon="13.037408"><ele>333.0</ele><time>2026-04-19T09:05:07.005Z</time></trkpt><trkpt lat="43.2270292" lon="13.0375512"><ele>332.59999999999997</ele><time>2026-04-19T09:05:08.005Z</time></trkpt><trkpt lat="43.2270417" lon="13.0377123"><ele>332.2</ele><time>2026-04-19T09:05:09.003Z</time></trkpt><trkpt lat="43.2270343" lon="13.0378632"><ele>331.8</ele><time>2026-04-19T09:05:10.01Z</time></trkpt><trkpt lat="43.2269929" lon="13.0379892"><ele>331.4</ele><time>2026-04-19T09:05:11.009Z</time></trkpt><trkpt lat="43.226918" lon="13.0380716"><ele>331.0</ele><time>2026-04-19T09:05:12.004Z</time></trkpt><trkpt lat="43.2268331" lon="13.038135"><ele>331.0</ele><time>2026-04-19T09:05:13.007Z</time></trkpt><trkpt lat="43.2267371" lon="13.0381893"><ele>331.0</ele><time>2026-04-19T09:05:14Z</time></trkpt><trkpt lat="43.2266348" lon="13.0382436"><ele>331.0</ele><time>2026-04-19T09:05:15.016Z</time></trkpt><trkpt lat="43.2265297" lon="13.0382976"><ele>331.0</ele><time>2026-04-19T09:05:16.012Z</time></trkpt><trkpt lat="43.2264198" lon="13.038351"><ele>331.0</ele><time>2026-04-19T09:05:17.01Z</time></trkpt><trkpt lat="43.2263085" lon="13.0383985"><ele>330.8</ele><time>2026-04-19T09:05:18.008Z</time></trkpt><trkpt lat="43.2261983" lon="13.0384379"><ele>330.6</ele><time>2026-04-19T09:05:19.005Z</time></trkpt><trkpt lat="43.2260934" lon="13.0384652"><ele>330.4</ele><time>2026-04-19T09:05:20.01Z</time></trkpt><trkpt lat="43.2259917" lon="13.0384822"><ele>330.2</ele><time>2026-04-19T09:05:21.015Z</time></trkpt><trkpt lat="43.225879" lon="13.0384957"><ele>330.0</ele><time>2026-04-19T09:05:22.011Z</time></trkpt><trkpt lat="43.2257558" lon="13.0385138"><ele>329.5</ele><time>2026-04-19T09:05:23.01Z</time></trkpt><trkpt lat="43.2256284" lon="13.0385396"><ele>329.0</ele><time>2026-04-19T09:05:24.01Z</time></trkpt><trkpt lat="43.2255001" lon="13.0385767"><ele>328.5</ele><time>2026-04-19T09:05:25.01Z</time></trkpt><trkpt lat="43.2253693" lon="13.0386125"><ele>328.0</ele><time>2026-04-19T09:05:26.01Z</time></trkpt><trkpt lat="43.2252341" lon="13.0386562"><ele>328.0</ele><time>2026-04-19T09:05:27.01Z</time></trkpt><trkpt lat="43.2250875" lon="13.0387067"><ele>328.0</ele><time>2026-04-19T09:05:28.009Z</time></trkpt><trkpt lat="43.2249301" lon="13.0387725"><ele>328.0</ele><time>2026-04-19T09:05:29.013Z</time></trkpt><trkpt lat="43.2247617" lon="13.0388617"><ele>328.3333333333333</ele><time>2026-04-19T09:05:30.014Z</time></trkpt><trkpt lat="43.2245927" lon="13.0389745"><ele>328.6666666666667</ele><time>2026-04-19T09:05:31.014Z</time></trkpt><trkpt lat="43.2244222" lon="13.0391235"><ele>329.0</ele><time>2026-04-19T09:05:32.012Z</time></trkpt><trkpt lat="43.2242583" lon="13.0392949"><ele>329.0</ele><time>2026-04-19T09:05:33.009Z</time></trkpt><trkpt lat="43.2240962" lon="13.0394848"><ele>329.0</ele><time>2026-04-19T09:05:34.013Z</time></trkpt><trkpt lat="43.2239369" lon="13.0396942"><ele>329.0</ele><time>2026-04-19T09:05:35.011Z</time></trkpt><trkpt lat="43.2237805" lon="13.0399176"><ele>328.5</ele><time>2026-04-19T09:05:36.01Z</time></trkpt><trkpt lat="43.2236183" lon="13.0401475"><ele>328.0</ele><time>2026-04-19T09:05:37.016Z</time></trkpt><trkpt lat="43.2234528" lon="13.0403921"><ele>328.0</ele><time>2026-04-19T09:05:38.014Z</time></trkpt><trkpt lat="43.223292" lon="13.0406405"><ele>328.0</ele><time>2026-04-19T09:05:39.016Z</time></trkpt><trkpt lat="43.2231151" lon="13.0408821"><ele>327.0</ele><time>2026-04-19T09:05:40.011Z</time></trkpt><trkpt lat="43.2229384" lon="13.0411061"><ele>326.0</ele><time>2026-04-19T09:05:41.005Z</time></trkpt><trkpt lat="43.2227689" lon="13.04132"><ele>326.0</ele><time>2026-04-19T09:05:42.006Z</time></trkpt><trkpt lat="43.222615" lon="13.0415123"><ele>326.0</ele><time>2026-04-19T09:05:43.009Z</time></trkpt><trkpt lat="43.2224702" lon="13.0416786"><ele>326.0</ele><time>2026-04-19T09:05:44.008Z</time></trkpt><trkpt lat="43.2223516" lon="13.041826"><ele>325.0</ele><time>2026-04-19T09:05:45.01Z</time></trkpt><trkpt lat="43.2222467" lon="13.0419621"><ele>324.0</ele><time>2026-04-19T09:05:46.025Z</time></trkpt><trkpt lat="43.222131" lon="13.0420977"><ele>323.0</ele><time>2026-04-19T09:05:47.013Z</time></trkpt><trkpt lat="43.222027" lon="13.0422446"><ele>322.0</ele><time>2026-04-19T09:05:48.012Z</time></trkpt><trkpt lat="43.2219265" lon="13.0423882"><ele>322.75</ele><time>2026-04-19T09:05:49.012Z</time></trkpt><trkpt lat="43.2218246" lon="13.0425226"><ele>323.5</ele><time>2026-04-19T09:05:50.009Z</time></trkpt><trkpt lat="43.2217307" lon="13.0426503"><ele>324.25</ele><time>2026-04-19T09:05:51.014Z</time></trkpt><trkpt lat="43.2216431" lon="13.042769"><ele>325.0</ele><time>2026-04-19T09:05:52.015Z</time></trkpt><trkpt lat="43.2215575" lon="13.0428783"><ele>325.0</ele><time>2026-04-19T09:05:53.013Z</time></trkpt><trkpt lat="43.2214822" lon="13.042977"><ele>325.0</ele><time>2026-04-19T09:05:54.016Z</time></trkpt><trkpt lat="43.2214092" lon="13.0430549"><ele>325.0</ele><time>2026-04-19T09:05:55.01Z</time></trkpt><trkpt lat="43.2213307" lon="13.043114"><ele>325.0</ele><time>2026-04-19T09:05:56.014Z</time></trkpt><trkpt lat="43.2212493" lon="13.0431694"><ele>325.0</ele><time>2026-04-19T09:05:57.015Z</time></trkpt><trkpt lat="43.2211596" lon="13.0432237"><ele>324.5</ele><time>2026-04-19T09:05:58.013Z</time></trkpt><trkpt lat="43.2210666" lon="13.0432763"><ele>324.0</ele><time>2026-04-19T09:05:59.015Z</time></trkpt><trkpt lat="43.2209622" lon="13.0433352"><ele>323.5</ele><time>2026-04-19T09:06:00.012Z</time></trkpt><trkpt lat="43.2208491" lon="13.043396"><ele>323.0</ele><time>2026-04-19T09:06:01.009Z</time></trkpt><trkpt lat="43.2207218" lon="13.0434626"><ele>321.33333333333337</ele><time>2026-04-19T09:06:02.01Z</time></trkpt><trkpt lat="43.220586" lon="13.043534"><ele>319.6666666666667</ele><time>2026-04-19T09:06:03.013Z</time></trkpt><trkpt lat="43.2204486" lon="13.0436242"><ele>318.0</ele><time>2026-04-19T09:06:04.017Z</time></trkpt><trkpt lat="43.2203228" lon="13.0437604"><ele>318.0</ele><time>2026-04-19T09:06:05.011Z</time></trkpt><trkpt lat="43.2202131" lon="13.0439108"><ele>318.0</ele><time>2026-04-19T09:06:06.007Z</time></trkpt><trkpt lat="43.220128" lon="13.0440685"><ele>318.0</ele><time>2026-04-19T09:06:07.011Z</time></trkpt><trkpt lat="43.2200389" lon="13.0442271"><ele>318.0</ele><time>2026-04-19T09:06:08.012Z</time></trkpt><trkpt lat="43.2199382" lon="13.0443817"><ele>317.6666666666667</ele><time>2026-04-19T09:06:09.013Z</time></trkpt><trkpt lat="43.2198319" lon="13.0445257"><ele>317.33333333333337</ele><time>2026-04-19T09:06:10.018Z</time></trkpt><trkpt lat="43.2197148" lon="13.0446668"><ele>317.0</ele><time>2026-04-19T09:06:11.011Z</time></trkpt><trkpt lat="43.2195959" lon="13.0447959"><ele>317.0</ele><time>2026-04-19T09:06:12.012Z</time></trkpt><trkpt lat="43.21947" lon="13.0449212"><ele>317.0</ele><time>2026-04-19T09:06:13.008Z</time></trkpt><trkpt lat="43.2193528" lon="13.045029"><ele>317.0</ele><time>2026-04-19T09:06:14.012Z</time></trkpt><trkpt lat="43.2192349" lon="13.0451421"><ele>317.0</ele><time>2026-04-19T09:06:15.011Z</time></trkpt><trkpt lat="43.2191075" lon="13.0452628"><ele>317.0</ele><time>2026-04-19T09:06:16.014Z</time></trkpt><trkpt lat="43.2189585" lon="13.0453997"><ele>317.0</ele><time>2026-04-19T09:06:17.024Z</time></trkpt><trkpt lat="43.2187933" lon="13.0455554"><ele>317.0</ele><time>2026-04-19T09:06:18.012Z</time></trkpt><trkpt lat="43.2186214" lon="13.0457092"><ele>317.0</ele><time>2026-04-19T09:06:19.013Z</time></trkpt><trkpt lat="43.2184529" lon="13.0458628"><ele>317.0</ele><time>2026-04-19T09:06:20.016Z</time></trkpt><trkpt lat="43.218288" lon="13.0460273"><ele>317.0</ele><time>2026-04-19T09:06:21.014Z</time></trkpt><trkpt lat="43.2181211" lon="13.0461642"><ele>316.0</ele><time>2026-04-19T09:06:22.01Z</time></trkpt><trkpt lat="43.2179393" lon="13.0462781"><ele>315.0</ele><time>2026-04-19T09:06:23.013Z</time></trkpt><trkpt lat="43.2177358" lon="13.0463333"><ele>314.0</ele><time>2026-04-19T09:06:24.014Z</time></trkpt><trkpt lat="43.2175188" lon="13.0463707"><ele>315.0</ele><time>2026-04-19T09:06:25.004Z</time></trkpt><trkpt lat="43.2172961" lon="13.0464097"><ele>316.0</ele><time>2026-04-19T09:06:26.01Z</time></trkpt><trkpt lat="43.2170708" lon="13.0464429"><ele>316.0</ele><time>2026-04-19T09:06:27.008Z</time></trkpt><trkpt lat="43.2168479" lon="13.046475"><ele>316.0</ele><time>2026-04-19T09:06:28.008Z</time></trkpt><trkpt lat="43.2166313" lon="13.0465125"><ele>316.0</ele><time>2026-04-19T09:06:29.01Z</time></trkpt><trkpt lat="43.2164222" lon="13.0465501"><ele>317.66666666666663</ele><time>2026-04-19T09:06:30.008Z</time></trkpt><trkpt lat="43.216216" lon="13.0465803"><ele>319.3333333333333</ele><time>2026-04-19T09:06:31.006Z</time></trkpt><trkpt lat="43.2160175" lon="13.0466039"><ele>321.0</ele><time>2026-04-19T09:06:32.008Z</time></trkpt><trkpt lat="43.2158332" lon="13.04662"><ele>318.0</ele><time>2026-04-19T09:06:33.009Z</time></trkpt><trkpt lat="43.2156501" lon="13.0466349"><ele>315.0</ele><time>2026-04-19T09:06:34.007Z</time></trkpt><trkpt lat="43.2154823" lon="13.0466377"><ele>312.0</ele><time>2026-04-19T09:06:35.013Z</time></trkpt><trkpt lat="43.2153284" lon="13.0466494"><ele>312.0</ele><time>2026-04-19T09:06:36.014Z</time></trkpt><trkpt lat="43.2151836" lon="13.046661"><ele>312.0</ele><time>2026-04-19T09:06:37.015Z</time></trkpt><trkpt lat="43.2150198" lon="13.0466736"><ele>312.0</ele><time>2026-04-19T09:06:38.011Z</time></trkpt><trkpt lat="43.214853" lon="13.0466918"><ele>311.6666666666667</ele><time>2026-04-19T09:06:39.014Z</time></trkpt><trkpt lat="43.2146826" lon="13.0467124"><ele>311.33333333333337</ele><time>2026-04-19T09:06:40.015Z</time></trkpt><trkpt lat="43.2145059" lon="13.046732"><ele>311.0</ele><time>2026-04-19T09:06:41.015Z</time></trkpt><trkpt lat="43.2143331" lon="13.0467521"><ele>311.0</ele><time>2026-04-19T09:06:42.014Z</time></trkpt><trkpt lat="43.214161" lon="13.0467735"><ele>311.0</ele><time>2026-04-19T09:06:43.017Z</time></trkpt><trkpt lat="43.2139917" lon="13.0467861"><ele>311.0</ele><time>2026-04-19T09:06:44.015Z</time></trkpt><trkpt lat="43.2138193" lon="13.046803"><ele>310.33333333333337</ele><time>2026-04-19T09:06:45.014Z</time></trkpt><trkpt lat="43.2136454" lon="13.0468311"><ele>309.6666666666667</ele><time>2026-04-19T09:06:46.018Z</time></trkpt><trkpt lat="43.2134665" lon="13.0468462"><ele>309.0</ele><time>2026-04-19T09:06:47.014Z</time></trkpt><trkpt lat="43.2132742" lon="13.0468792"><ele>310.0</ele><time>2026-04-19T09:06:48.027Z</time></trkpt><trkpt lat="43.2130814" lon="13.0469442"><ele>311.0</ele><time>2026-04-19T09:06:49.016Z</time></trkpt><trkpt lat="43.2128809" lon="13.0470475"><ele>312.0</ele><time>2026-04-19T09:06:50.012Z</time></trkpt><trkpt lat="43.2126723" lon="13.0471631"><ele>312.0</ele><time>2026-04-19T09:06:51.016Z</time></trkpt><trkpt lat="43.2124619" lon="13.0472804"><ele>312.0</ele><time>2026-04-19T09:06:52.012Z</time></trkpt><trkpt lat="43.2122507" lon="13.0474134"><ele>311.5</ele><time>2026-04-19T09:06:53.012Z</time></trkpt><trkpt lat="43.2120334" lon="13.0475509"><ele>311.0</ele><time>2026-04-19T09:06:54.012Z</time></trkpt><trkpt lat="43.2118125" lon="13.0476825"><ele>311.0</ele><time>2026-04-19T09:06:55.012Z</time></trkpt><trkpt lat="43.211594" lon="13.0478125"><ele>311.0</ele><time>2026-04-19T09:06:56.009Z</time></trkpt><trkpt lat="43.2113794" lon="13.0479379"><ele>314.0</ele><time>2026-04-19T09:06:57.015Z</time></trkpt><trkpt lat="43.2111602" lon="13.0480532"><ele>317.0</ele><time>2026-04-19T09:06:58.01Z</time></trkpt><trkpt lat="43.2109394" lon="13.0481387"><ele>317.0</ele><time>2026-04-19T09:06:59.016Z</time></trkpt><trkpt lat="43.2107134" lon="13.0481944"><ele>317.0</ele><time>2026-04-19T09:07:00.009Z</time></trkpt><trkpt lat="43.2104871" lon="13.0482216"><ele>318.33333333333337</ele><time>2026-04-19T09:07:01.016Z</time></trkpt><trkpt lat="43.2102856" lon="13.0482208"><ele>319.6666666666667</ele><time>2026-04-19T09:07:02.01Z</time></trkpt><trkpt lat="43.2100999" lon="13.0482285"><ele>321.0</ele><time>2026-04-19T09:07:03.018Z</time></trkpt><trkpt lat="43.2099513" lon="13.0482577"><ele>319.8</ele><time>2026-04-19T09:07:04.015Z</time></trkpt><trkpt lat="43.2098302" lon="13.0483053"><ele>318.6</ele><time>2026-04-19T09:07:05.018Z</time></trkpt><trkpt lat="43.2097312" lon="13.0483882"><ele>317.4</ele><time>2026-04-19T09:07:06.008Z</time></trkpt><trkpt lat="43.2096496" lon="13.04848"><ele>316.2</ele><time>2026-04-19T09:07:07.011Z</time></trkpt><trkpt lat="43.20959" lon="13.0485666"><ele>315.0</ele><time>2026-04-19T09:07:08.011Z</time></trkpt><trkpt lat="43.2095396" lon="13.0486569"><ele>315.0</ele><time>2026-04-19T09:07:09.009Z</time></trkpt><trkpt lat="43.2095021" lon="13.0487537"><ele>315.0</ele><time>2026-04-19T09:07:10.013Z</time></trkpt><trkpt lat="43.2094824" lon="13.0488572"><ele>315.0</ele><time>2026-04-19T09:07:11.013Z</time></trkpt><trkpt lat="43.2094534" lon="13.0489503"><ele>315.0</ele><time>2026-04-19T09:07:12.007Z</time></trkpt><trkpt lat="43.2094171" lon="13.0490353"><ele>315.0</ele><time>2026-04-19T09:07:13.006Z</time></trkpt><trkpt lat="43.2093837" lon="13.0491108"><ele>315.0</ele><time>2026-04-19T09:07:14.011Z</time></trkpt><trkpt lat="43.2093252" lon="13.0492501"><ele>314.4</ele><time>2026-04-19T09:07:16.015Z</time></trkpt><trkpt lat="43.2092809" lon="13.0493999"><ele>313.8</ele><time>2026-04-19T09:07:18.017Z</time></trkpt><trkpt lat="43.2092204" lon="13.0495338"><ele>313.2</ele><time>2026-04-19T09:07:20.016Z</time></trkpt><trkpt lat="43.2091546" lon="13.0496852"><ele>312.6</ele><time>2026-04-19T09:07:22.012Z</time></trkpt><trkpt lat="43.2091198" lon="13.0497648"><ele>312.0</ele><time>2026-04-19T09:07:23.01Z</time></trkpt><trkpt lat="43.2090817" lon="13.0498472"><ele>312.0</ele><time>2026-04-19T09:07:24.013Z</time></trkpt><trkpt lat="43.2090459" lon="13.0499369"><ele>312.0</ele><time>2026-04-19T09:07:25.014Z</time></trkpt><trkpt lat="43.2090086" lon="13.0500353"><ele>312.0</ele><time>2026-04-19T09:07:26.015Z</time></trkpt><trkpt lat="43.2089681" lon="13.0501404"><ele>312.0</ele><time>2026-04-19T09:07:27.014Z</time></trkpt><trkpt lat="43.2089207" lon="13.0502484"><ele>312.0</ele><time>2026-04-19T09:07:28.011Z</time></trkpt><trkpt lat="43.2088652" lon="13.050377"><ele>312.0</ele><time>2026-04-19T09:07:29.011Z</time></trkpt><trkpt lat="43.2088123" lon="13.0505105"><ele>311.8333333333333</ele><time>2026-04-19T09:07:30.008Z</time></trkpt><trkpt lat="43.2087617" lon="13.0506366"><ele>311.6666666666667</ele><time>2026-04-19T09:07:31.008Z</time></trkpt><trkpt lat="43.2087185" lon="13.0507526"><ele>311.5</ele><time>2026-04-19T09:07:32.005Z</time></trkpt><trkpt lat="43.2086766" lon="13.0508582"><ele>311.33333333333337</ele><time>2026-04-19T09:07:33.007Z</time></trkpt><trkpt lat="43.2086296" lon="13.050947"><ele>311.1666666666667</ele><time>2026-04-19T09:07:34.016Z</time></trkpt><trkpt lat="43.2085711" lon="13.0510022"><ele>311.0</ele><time>2026-04-19T09:07:35.004Z</time></trkpt><trkpt lat="43.2085049" lon="13.0510413"><ele>311.0</ele><time>2026-04-19T09:07:36.006Z</time></trkpt><trkpt lat="43.2084557" lon="13.0510958"><ele>311.0</ele><time>2026-04-19T09:07:37.008Z</time></trkpt><trkpt lat="43.2084264" lon="13.0511805"><ele>311.0</ele><time>2026-04-19T09:07:38.009Z</time></trkpt><trkpt lat="43.2084267" lon="13.0512802"><ele>311.0</ele><time>2026-04-19T09:07:39.003Z</time></trkpt><trkpt lat="43.2084354" lon="13.0513831"><ele>311.0</ele><time>2026-04-19T09:07:40.005Z</time></trkpt><trkpt lat="43.2084231" lon="13.0514966"><ele>311.0</ele><time>2026-04-19T09:07:41.002Z</time></trkpt><trkpt lat="43.2083914" lon="13.0516032"><ele>311.0</ele><time>2026-04-19T09:07:42.008Z</time></trkpt><trkpt lat="43.2083453" lon="13.0517095"><ele>311.2</ele><time>2026-04-19T09:07:43.006Z</time></trkpt><trkpt lat="43.2082926" lon="13.0518219"><ele>311.40000000000003</ele><time>2026-04-19T09:07:44.012Z</time></trkpt><trkpt lat="43.2082383" lon="13.051937"><ele>311.6</ele><time>2026-04-19T09:07:45.009Z</time></trkpt><trkpt lat="43.2081824" lon="13.0520608"><ele>311.8</ele><time>2026-04-19T09:07:46.01Z</time></trkpt><trkpt lat="43.2081324" lon="13.052195"><ele>312.0</ele><time>2026-04-19T09:07:47.01Z</time></trkpt><trkpt lat="43.208084" lon="13.0523286"><ele>312.5</ele><time>2026-04-19T09:07:48.01Z</time></trkpt><trkpt lat="43.2080305" lon="13.0524676"><ele>313.0</ele><time>2026-04-19T09:07:49.005Z</time></trkpt><trkpt lat="43.20797" lon="13.0526095"><ele>313.5</ele><time>2026-04-19T09:07:50.024Z</time></trkpt><trkpt lat="43.2079077" lon="13.0527533"><ele>314.0</ele><time>2026-04-19T09:07:51.013Z</time></trkpt><trkpt lat="43.2078506" lon="13.0528937"><ele>314.0</ele><time>2026-04-19T09:07:52.014Z</time></trkpt><trkpt lat="43.2077949" lon="13.0530347"><ele>314.0</ele><time>2026-04-19T09:07:53.012Z</time></trkpt><trkpt lat="43.2077374" lon="13.0531766"><ele>314.0</ele><time>2026-04-19T09:07:54.008Z</time></trkpt><trkpt lat="43.2076732" lon="13.053318"><ele>314.0</ele><time>2026-04-19T09:07:55.012Z</time></trkpt><trkpt lat="43.2076097" lon="13.0534631"><ele>314.0</ele><time>2026-04-19T09:07:56.01Z</time></trkpt><trkpt lat="43.2075403" lon="13.0536064"><ele>314.0</ele><time>2026-04-19T09:07:57.015Z</time></trkpt><trkpt lat="43.2074604" lon="13.0537512"><ele>314.0</ele><time>2026-04-19T09:07:58.011Z</time></trkpt><trkpt lat="43.2073645" lon="13.0538993"><ele>314.0</ele><time>2026-04-19T09:07:59.011Z</time></trkpt><trkpt lat="43.2072253" lon="13.0540451"><ele>314.6666666666667</ele><time>2026-04-19T09:08:00.009Z</time></trkpt><trkpt lat="43.2070633" lon="13.0541589"><ele>315.3333333333333</ele><time>2026-04-19T09:08:01.007Z</time></trkpt><trkpt lat="43.2068938" lon="13.0542309"><ele>316.0</ele><time>2026-04-19T09:08:01.997Z</time></trkpt><trkpt lat="43.2067205" lon="13.0542956"><ele>316.0</ele><time>2026-04-19T09:08:03.002Z</time></trkpt><trkpt lat="43.2065458" lon="13.0543287"><ele>316.0</ele><time>2026-04-19T09:08:04.013Z</time></trkpt><trkpt lat="43.2063861" lon="13.0543324"><ele>316.0</ele><time>2026-04-19T09:08:05.008Z</time></trkpt><trkpt lat="43.2062357" lon="13.0543382"><ele>316.66666666666663</ele><time>2026-04-19T09:08:06.009Z</time></trkpt><trkpt lat="43.206075" lon="13.05433"><ele>317.3333333333333</ele><time>2026-04-19T09:08:07.012Z</time></trkpt><trkpt lat="43.2059222" lon="13.0543287"><ele>318.0</ele><time>2026-04-19T09:08:08.009Z</time></trkpt><trkpt lat="43.2057704" lon="13.0543267"><ele>318.6666666666667</ele><time>2026-04-19T09:08:09.014Z</time></trkpt><trkpt lat="43.2056178" lon="13.0543292"><ele>319.33333333333337</ele><time>2026-04-19T09:08:10.011Z</time></trkpt><trkpt lat="43.2054614" lon="13.0543351"><ele>320.0</ele><time>2026-04-19T09:08:11.01Z</time></trkpt><trkpt lat="43.2053121" lon="13.0543437"><ele>320.0</ele><time>2026-04-19T09:08:12.011Z</time></trkpt><trkpt lat="43.2051776" lon="13.0543418"><ele>320.0</ele><time>2026-04-19T09:08:13.01Z</time></trkpt><trkpt lat="43.205038" lon="13.0543435"><ele>320.0</ele><time>2026-04-19T09:08:14.014Z</time></trkpt><trkpt lat="43.2048923" lon="13.0543379"><ele>320.0</ele><time>2026-04-19T09:08:15.007Z</time></trkpt><trkpt lat="43.2047487" lon="13.0543459"><ele>319.75</ele><time>2026-04-19T09:08:16.007Z</time></trkpt><trkpt lat="43.2046117" lon="13.0543445"><ele>319.5</ele><time>2026-04-19T09:08:17.009Z</time></trkpt><trkpt lat="43.2044842" lon="13.054342"><ele>319.25</ele><time>2026-04-19T09:08:18.01Z</time></trkpt><trkpt lat="43.2043659" lon="13.0543472"><ele>319.0</ele><time>2026-04-19T09:08:19.01Z</time></trkpt><trkpt lat="43.2042545" lon="13.0543482"><ele>319.0</ele><time>2026-04-19T09:08:20.007Z</time></trkpt><trkpt lat="43.2041444" lon="13.0543496"><ele>319.0</ele><time>2026-04-19T09:08:21.044Z</time></trkpt><trkpt lat="43.2040306" lon="13.0543544"><ele>319.0</ele><time>2026-04-19T09:08:22.008Z</time></trkpt><trkpt lat="43.2038971" lon="13.0543493"><ele>319.0</ele><time>2026-04-19T09:08:23.007Z</time></trkpt><trkpt lat="43.2037575" lon="13.0543412"><ele>318.66666666666663</ele><time>2026-04-19T09:08:24.011Z</time></trkpt><trkpt lat="43.2036138" lon="13.05433"><ele>318.3333333333333</ele><time>2026-04-19T09:08:25.011Z</time></trkpt><trkpt lat="43.2034546" lon="13.0543296"><ele>318.0</ele><time>2026-04-19T09:08:26.015Z</time></trkpt><trkpt lat="43.2032778" lon="13.0543462"><ele>318.6666666666667</ele><time>2026-04-19T09:08:27.014Z</time></trkpt><trkpt lat="43.2031009" lon="13.0543689"><ele>319.33333333333337</ele><time>2026-04-19T09:08:28.011Z</time></trkpt><trkpt lat="43.2029149" lon="13.054392"><ele>320.0</ele><time>2026-04-19T09:08:29.015Z</time></trkpt><trkpt lat="43.202734" lon="13.0544253"><ele>320.0</ele><time>2026-04-19T09:08:30.015Z</time></trkpt><trkpt lat="43.2025502" lon="13.0544406"><ele>320.0</ele><time>2026-04-19T09:08:31.014Z</time></trkpt><trkpt lat="43.202365" lon="13.0544405"><ele>320.0</ele><time>2026-04-19T09:08:32.012Z</time></trkpt><trkpt lat="43.2021839" lon="13.0544054"><ele>317.33333333333337</ele><time>2026-04-19T09:08:33.012Z</time></trkpt><trkpt lat="43.2019922" lon="13.0543552"><ele>314.6666666666667</ele><time>2026-04-19T09:08:34.012Z</time></trkpt><trkpt lat="43.2018152" lon="13.0542862"><ele>312.0</ele><time>2026-04-19T09:08:35.009Z</time></trkpt><trkpt lat="43.2016494" lon="13.0541938"><ele>312.5</ele><time>2026-04-19T09:08:36.008Z</time></trkpt><trkpt lat="43.2015031" lon="13.0540981"><ele>313.0</ele><time>2026-04-19T09:08:37.009Z</time></trkpt><trkpt lat="43.2013705" lon="13.0539999"><ele>313.5</ele><time>2026-04-19T09:08:38.01Z</time></trkpt><trkpt lat="43.2012558" lon="13.0539057"><ele>314.0</ele><time>2026-04-19T09:08:39.019Z</time></trkpt><trkpt lat="43.2011467" lon="13.0538257"><ele>314.0</ele><time>2026-04-19T09:08:40.013Z</time></trkpt><trkpt lat="43.2010318" lon="13.0537431"><ele>314.0</ele><time>2026-04-19T09:08:41.017Z</time></trkpt><trkpt lat="43.2009237" lon="13.0536723"><ele>314.0</ele><time>2026-04-19T09:08:42.014Z</time></trkpt><trkpt lat="43.2008277" lon="13.0535973"><ele>314.0</ele><time>2026-04-19T09:08:43.013Z</time></trkpt><trkpt lat="43.2007296" lon="13.053527"><ele>313.75</ele><time>2026-04-19T09:08:44.016Z</time></trkpt><trkpt lat="43.2006264" lon="13.0534553"><ele>313.5</ele><time>2026-04-19T09:08:45.014Z</time></trkpt><trkpt lat="43.2005187" lon="13.0533805"><ele>313.25</ele><time>2026-04-19T09:08:46.016Z</time></trkpt><trkpt lat="43.2004064" lon="13.0533059"><ele>313.0</ele><time>2026-04-19T09:08:47.017Z</time></trkpt><trkpt lat="43.2002928" lon="13.0532312"><ele>313.0</ele><time>2026-04-19T09:08:48.011Z</time></trkpt><trkpt lat="43.2001815" lon="13.0531488"><ele>313.0</ele><time>2026-04-19T09:08:49.013Z</time></trkpt><trkpt lat="43.2000667" lon="13.053059"><ele>313.0</ele><time>2026-04-19T09:08:50.014Z</time></trkpt><trkpt lat="43.1999514" lon="13.0529566"><ele>313.0</ele><time>2026-04-19T09:08:51.028Z</time></trkpt><trkpt lat="43.1998408" lon="13.0528476"><ele>312.25</ele><time>2026-04-19T09:08:52.009Z</time></trkpt><trkpt lat="43.1997319" lon="13.0527307"><ele>311.5</ele><time>2026-04-19T09:08:53.011Z</time></trkpt><trkpt lat="43.1996283" lon="13.0526028"><ele>310.75</ele><time>2026-04-19T09:08:54.016Z</time></trkpt><trkpt lat="43.1995231" lon="13.0524712"><ele>310.0</ele><time>2026-04-19T09:08:55.017Z</time></trkpt><trkpt lat="43.1994169" lon="13.0523396"><ele>310.0</ele><time>2026-04-19T09:08:56.015Z</time></trkpt><trkpt lat="43.1993089" lon="13.0522139"><ele>310.0</ele><time>2026-04-19T09:08:57.017Z</time></trkpt><trkpt lat="43.1991985" lon="13.0520859"><ele>310.0</ele><time>2026-04-19T09:08:58.01Z</time></trkpt><trkpt lat="43.1990802" lon="13.0519597"><ele>310.0</ele><time>2026-04-19T09:08:59.023Z</time></trkpt><trkpt lat="43.1989704" lon="13.0518427"><ele>309.5</ele><time>2026-04-19T09:09:00.014Z</time></trkpt><trkpt lat="43.1988642" lon="13.0517214"><ele>309.0</ele><time>2026-04-19T09:09:01.012Z</time></trkpt><trkpt lat="43.1987579" lon="13.0516166"><ele>308.5</ele><time>2026-04-19T09:09:02.013Z</time></trkpt><trkpt lat="43.1986565" lon="13.0515193"><ele>308.0</ele><time>2026-04-19T09:09:03.012Z</time></trkpt><trkpt lat="43.1985742" lon="13.0514301"><ele>307.6666666666667</ele><time>2026-04-19T09:09:04.011Z</time></trkpt><trkpt lat="43.1985135" lon="13.0513744"><ele>307.33333333333337</ele><time>2026-04-19T09:09:05.01Z</time></trkpt><trkpt lat="43.1984178" lon="13.0512923"><ele>307.0</ele><time>2026-04-19T09:09:07.007Z</time></trkpt><trkpt lat="43.198343" lon="13.0513037"><ele>306.6666666666667</ele><time>2026-04-19T09:09:09.006Z</time></trkpt><trkpt lat="43.1983446" lon="13.0513917"><ele>306.3333333333333</ele><time>2026-04-19T09:09:11.013Z</time></trkpt><trkpt lat="43.1983558" lon="13.051484"><ele>306.0</ele><time>2026-04-19T09:09:13.011Z</time></trkpt><trkpt lat="43.1984045" lon="13.0515584"><ele>306.0</ele><time>2026-04-19T09:15:18.02Z</time></trkpt><trkpt lat="43.1982633" lon="13.0516659"><ele>306.0</ele><time>2026-04-19T09:16:29.011Z</time></trkpt><trkpt lat="43.1982803" lon="13.0515821"><ele>306.0</ele><time>2026-04-19T09:16:53.011Z</time></trkpt><trkpt lat="43.1983519" lon="13.0515662"><ele>306.0</ele><time>2026-04-19T09:17:02.027Z</time></trkpt><trkpt lat="43.1982682" lon="13.0516699"><ele>306.0</ele><time>2026-04-19T09:17:20.004Z</time></trkpt><trkpt lat="43.1983451" lon="13.0515717"><ele>306.0</ele><time>2026-04-19T09:17:36.002Z</time></trkpt><trkpt lat="43.1983832" lon="13.0514959"><ele>306.0</ele><time>2026-04-19T09:18:42.023Z</time></trkpt><trkpt lat="43.1983328" lon="13.0514047"><ele>306.0</ele><time>2026-04-19T09:18:45.003Z</time></trkpt><trkpt lat="43.1984121" lon="13.0515457"><ele>306.0</ele><time>2026-04-19T09:19:18.002Z</time></trkpt><trkpt lat="43.1984974" lon="13.0516018"><ele>306.0</ele><time>2026-04-19T09:19:54.007Z</time></trkpt><trkpt lat="43.1984879" lon="13.0517088"><ele>306.3333333333333</ele><time>2026-04-19T09:20:14.013Z</time></trkpt><trkpt lat="43.1984144" lon="13.0517844"><ele>306.6666666666667</ele><time>2026-04-19T09:20:17.018Z</time></trkpt><trkpt lat="43.1983831" lon="13.0516892"><ele>307.0</ele><time>2026-04-19T09:20:23.003Z</time></trkpt><trkpt lat="43.1983565" lon="13.0517677"><ele>307.33333333333337</ele><time>2026-04-19T09:21:21.972Z</time></trkpt><trkpt lat="43.1982552" lon="13.0518141"><ele>307.6666666666667</ele><time>2026-04-19T09:21:50.963Z</time></trkpt><trkpt lat="43.1982097" lon="13.0518925"><ele>308.0</ele><time>2026-04-19T09:21:51.964Z</time></trkpt><trkpt lat="43.1981768" lon="13.052043"><ele>308.0</ele><time>2026-04-19T09:21:52.975Z</time></trkpt><trkpt lat="43.1982063" lon="13.05196"><ele>308.0</ele><time>2026-04-19T09:22:02.992Z</time></trkpt><trkpt lat="43.1982273" lon="13.0518567"><ele>308.0</ele><time>2026-04-19T09:23:21.029Z</time></trkpt><trkpt lat="43.1982702" lon="13.0517639"><ele>308.0</ele><time>2026-04-19T09:24:00.027Z</time></trkpt><trkpt lat="43.1983437" lon="13.0516534"><ele>308.0</ele><time>2026-04-19T09:26:05.109Z</time></trkpt><trkpt lat="43.1984447" lon="13.0516445"><ele>308.0</ele><time>2026-04-19T09:26:08.01Z</time></trkpt><trkpt lat="43.1985486" lon="13.0516254"><ele>307.6666666666667</ele><time>2026-04-19T09:26:10.004Z</time></trkpt><trkpt lat="43.1986309" lon="13.0516071"><ele>307.33333333333337</ele><time>2026-04-19T09:26:13.008Z</time></trkpt><trkpt lat="43.1986942" lon="13.0515814"><ele>307.0</ele><time>2026-04-19T09:26:16.018Z</time></trkpt><trkpt lat="43.1986657" lon="13.0514763"><ele>306.6666666666667</ele><time>2026-04-19T09:26:18.014Z</time></trkpt><trkpt lat="43.1985559" lon="13.0513955"><ele>306.3333333333333</ele><time>2026-04-19T09:26:20.017Z</time></trkpt><trkpt lat="43.1984911" lon="13.0513367"><ele>306.0</ele><time>2026-04-19T09:26:21.019Z</time></trkpt><trkpt lat="43.1984299" lon="13.0512621"><ele>306.0</ele><time>2026-04-19T09:26:22.032Z</time></trkpt><trkpt lat="43.1983688" lon="13.0511991"><ele>306.0</ele><time>2026-04-19T09:26:23.02Z</time></trkpt><trkpt lat="43.1983049" lon="13.0511367"><ele>306.0</ele><time>2026-04-19T09:26:24.021Z</time></trkpt><trkpt lat="43.1982419" lon="13.0510695"><ele>306.0</ele><time>2026-04-19T09:26:25.019Z</time></trkpt><trkpt lat="43.1981848" lon="13.0509974"><ele>306.0</ele><time>2026-04-19T09:26:26.021Z</time></trkpt><trkpt lat="43.1981219" lon="13.0509272"><ele>306.0</ele><time>2026-04-19T09:26:27.021Z</time></trkpt><trkpt lat="43.1980515" lon="13.0508533"><ele>306.8</ele><time>2026-04-19T09:26:28.02Z</time></trkpt><trkpt lat="43.1979745" lon="13.0507818"><ele>307.6</ele><time>2026-04-19T09:26:29.027Z</time></trkpt><trkpt lat="43.1978985" lon="13.0507077"><ele>308.4</ele><time>2026-04-19T09:26:30.017Z</time></trkpt><trkpt lat="43.1978322" lon="13.0506153"><ele>309.2</ele><time>2026-04-19T09:26:31.017Z</time></trkpt><trkpt lat="43.1977595" lon="13.0505291"><ele>310.0</ele><time>2026-04-19T09:26:32.022Z</time></trkpt><trkpt lat="43.1976893" lon="13.0504514"><ele>310.0</ele><time>2026-04-19T09:26:33.024Z</time></trkpt><trkpt lat="43.1976267" lon="13.050381"><ele>310.0</ele><time>2026-04-19T09:26:34.024Z</time></trkpt><trkpt lat="43.1975656" lon="13.0503222"><ele>310.0</ele><time>2026-04-19T09:26:35.019Z</time></trkpt><trkpt lat="43.1975098" lon="13.0502774"><ele>310.0</ele><time>2026-04-19T09:26:36.019Z</time></trkpt><trkpt lat="43.1974108" lon="13.0502081"><ele>310.0</ele><time>2026-04-19T09:26:38.019Z</time></trkpt><trkpt lat="43.1973186" lon="13.0501624"><ele>310.0</ele><time>2026-04-19T09:26:40.022Z</time></trkpt><trkpt lat="43.197223" lon="13.0501052"><ele>310.0</ele><time>2026-04-19T09:26:42.026Z</time></trkpt><trkpt lat="43.1971345" lon="13.0500013"><ele>310.0</ele><time>2026-04-19T09:26:44.019Z</time></trkpt><trkpt lat="43.1970514" lon="13.0498978"><ele>310.0</ele><time>2026-04-19T09:26:46.019Z</time></trkpt><trkpt lat="43.196937" lon="13.049921"><ele>310.0</ele><time>2026-04-19T09:26:48.022Z</time></trkpt><trkpt lat="43.1968797" lon="13.0499801"><ele>310.0</ele><time>2026-04-19T09:26:49.026Z</time></trkpt><trkpt lat="43.1968316" lon="13.0500591"><ele>309.8333333333333</ele><time>2026-04-19T09:26:50.021Z</time></trkpt><trkpt lat="43.1967846" lon="13.0501487"><ele>309.66666666666663</ele><time>2026-04-19T09:26:51.024Z</time></trkpt><trkpt lat="43.1967288" lon="13.0502329"><ele>309.5</ele><time>2026-04-19T09:26:52.02Z</time></trkpt><trkpt lat="43.1966623" lon="13.0503087"><ele>309.3333333333333</ele><time>2026-04-19T09:26:53.032Z</time></trkpt><trkpt lat="43.1965808" lon="13.0503636"><ele>309.1666666666667</ele><time>2026-04-19T09:26:54.026Z</time></trkpt><trkpt lat="43.1964958" lon="13.0504087"><ele>309.0</ele><time>2026-04-19T09:26:55.021Z</time></trkpt><trkpt lat="43.1964124" lon="13.0504629"><ele>309.4</ele><time>2026-04-19T09:26:56.014Z</time></trkpt><trkpt lat="43.1963227" lon="13.0505089"><ele>309.79999999999995</ele><time>2026-04-19T09:26:57.025Z</time></trkpt><trkpt lat="43.1962305" lon="13.0505511"><ele>310.20000000000005</ele><time>2026-04-19T09:26:58.021Z</time></trkpt><trkpt lat="43.1961367" lon="13.0505955"><ele>310.6</ele><time>2026-04-19T09:26:59.026Z</time></trkpt><trkpt lat="43.1960393" lon="13.0506411"><ele>311.0</ele><time>2026-04-19T09:27:00.018Z</time></trkpt><trkpt lat="43.1959439" lon="13.0506935"><ele>311.0</ele><time>2026-04-19T09:27:01.021Z</time></trkpt><trkpt lat="43.1958528" lon="13.0507606"><ele>311.0</ele><time>2026-04-19T09:27:02.008Z</time></trkpt><trkpt lat="43.1957623" lon="13.050829"><ele>311.0</ele><time>2026-04-19T09:27:03.016Z</time></trkpt><trkpt lat="43.1956834" lon="13.0508912"><ele>311.0</ele><time>2026-04-19T09:27:04.02Z</time></trkpt><trkpt lat="43.1956025" lon="13.0509616"><ele>311.0</ele><time>2026-04-19T09:27:05.021Z</time></trkpt><trkpt lat="43.1955195" lon="13.051034"><ele>311.8</ele><time>2026-04-19T09:27:06.022Z</time></trkpt><trkpt lat="43.1954405" lon="13.0511091"><ele>312.6</ele><time>2026-04-19T09:27:07.023Z</time></trkpt><trkpt lat="43.1953563" lon="13.0511932"><ele>313.4</ele><time>2026-04-19T09:27:08.023Z</time></trkpt><trkpt lat="43.1952749" lon="13.0512799"><ele>314.2</ele><time>2026-04-19T09:27:09.022Z</time></trkpt><trkpt lat="43.1951923" lon="13.051365"><ele>315.0</ele><time>2026-04-19T09:27:10.024Z</time></trkpt><trkpt lat="43.1951125" lon="13.0514474"><ele>315.0</ele><time>2026-04-19T09:27:11.023Z</time></trkpt><trkpt lat="43.1950297" lon="13.05153"><ele>315.0</ele><time>2026-04-19T09:27:12.023Z</time></trkpt><trkpt lat="43.1949463" lon="13.0516198"><ele>315.0</ele><time>2026-04-19T09:27:13.022Z</time></trkpt><trkpt lat="43.1948611" lon="13.0517047"><ele>315.0</ele><time>2026-04-19T09:27:14.023Z</time></trkpt><trkpt lat="43.1947732" lon="13.0517874"><ele>315.0</ele><time>2026-04-19T09:27:15.021Z</time></trkpt><trkpt lat="43.1946836" lon="13.0518693"><ele>315.8</ele><time>2026-04-19T09:27:16.025Z</time></trkpt><trkpt lat="43.1945937" lon="13.0519499"><ele>316.6</ele><time>2026-04-19T09:27:17.022Z</time></trkpt><trkpt lat="43.1945002" lon="13.0520211"><ele>317.4</ele><time>2026-04-19T09:27:18.018Z</time></trkpt><trkpt lat="43.194398" lon="13.0520842"><ele>318.2</ele><time>2026-04-19T09:27:19.021Z</time></trkpt><trkpt lat="43.1942969" lon="13.0521366"><ele>319.0</ele><time>2026-04-19T09:27:20.023Z</time></trkpt><trkpt lat="43.194194" lon="13.0521881"><ele>319.0</ele><time>2026-04-19T09:27:21.022Z</time></trkpt><trkpt lat="43.1940861" lon="13.0522396"><ele>319.0</ele><time>2026-04-19T09:27:22.022Z</time></trkpt><trkpt lat="43.1939784" lon="13.052296"><ele>319.0</ele><time>2026-04-19T09:27:23.023Z</time></trkpt><trkpt lat="43.1938734" lon="13.052353"><ele>319.0</ele><time>2026-04-19T09:27:24.034Z</time></trkpt><trkpt lat="43.1937653" lon="13.0524128"><ele>319.5</ele><time>2026-04-19T09:27:25.021Z</time></trkpt><trkpt lat="43.1936591" lon="13.0524767"><ele>320.0</ele><time>2026-04-19T09:27:26.022Z</time></trkpt><trkpt lat="43.1935538" lon="13.052545"><ele>320.5</ele><time>2026-04-19T09:27:27.026Z</time></trkpt><trkpt lat="43.1934453" lon="13.0526196"><ele>321.0</ele><time>2026-04-19T09:27:28.023Z</time></trkpt><trkpt lat="43.1933372" lon="13.052695"><ele>321.0</ele><time>2026-04-19T09:27:29.025Z</time></trkpt><trkpt lat="43.1932235" lon="13.0527695"><ele>321.0</ele><time>2026-04-19T09:27:30.022Z</time></trkpt><trkpt lat="43.1931085" lon="13.0528455"><ele>321.0</ele><time>2026-04-19T09:27:31.019Z</time></trkpt><trkpt lat="43.1929855" lon="13.0529279"><ele>321.0</ele><time>2026-04-19T09:27:32.023Z</time></trkpt><trkpt lat="43.192853" lon="13.053021"><ele>321.0</ele><time>2026-04-19T09:27:33.014Z</time></trkpt><trkpt lat="43.1927029" lon="13.0531324"><ele>321.0</ele><time>2026-04-19T09:27:34.017Z</time></trkpt><trkpt lat="43.1925579" lon="13.0532349"><ele>321.0</ele><time>2026-04-19T09:27:35.014Z</time></trkpt><trkpt lat="43.1924185" lon="13.0533396"><ele>321.3333333333333</ele><time>2026-04-19T09:27:36.021Z</time></trkpt><trkpt lat="43.192279" lon="13.0534436"><ele>321.66666666666663</ele><time>2026-04-19T09:27:37.02Z</time></trkpt><trkpt lat="43.1921469" lon="13.0535362"><ele>322.0</ele><time>2026-04-19T09:27:37.999Z</time></trkpt><trkpt lat="43.1920137" lon="13.0536312"><ele>322.0</ele><time>2026-04-19T09:27:39.024Z</time></trkpt><trkpt lat="43.1918752" lon="13.0537394"><ele>322.0</ele><time>2026-04-19T09:27:40.024Z</time></trkpt><trkpt lat="43.1917324" lon="13.0538349"><ele>322.0</ele><time>2026-04-19T09:27:41.023Z</time></trkpt><trkpt lat="43.1915816" lon="13.0539315"><ele>322.3333333333333</ele><time>2026-04-19T09:27:42.022Z</time></trkpt><trkpt lat="43.191425" lon="13.0540186"><ele>322.6666666666667</ele><time>2026-04-19T09:27:43.018Z</time></trkpt><trkpt lat="43.1912763" lon="13.0540856"><ele>323.0</ele><time>2026-04-19T09:27:44.02Z</time></trkpt><trkpt lat="43.1911251" lon="13.0541295"><ele>323.0</ele><time>2026-04-19T09:27:45.021Z</time></trkpt><trkpt lat="43.1909633" lon="13.0541638"><ele>323.0</ele><time>2026-04-19T09:27:46.022Z</time></trkpt><trkpt lat="43.1907966" lon="13.0542018"><ele>323.0</ele><time>2026-04-19T09:27:47.027Z</time></trkpt><trkpt lat="43.1906197" lon="13.0542398"><ele>325.6666666666667</ele><time>2026-04-19T09:27:48.026Z</time></trkpt><trkpt lat="43.1904473" lon="13.0542841"><ele>328.3333333333333</ele><time>2026-04-19T09:27:49.021Z</time></trkpt><trkpt lat="43.1902558" lon="13.0543278"><ele>331.0</ele><time>2026-04-19T09:27:50.022Z</time></trkpt><trkpt lat="43.1900554" lon="13.0543766"><ele>331.0</ele><time>2026-04-19T09:27:51.024Z</time></trkpt><trkpt lat="43.1898433" lon="13.0544246"><ele>331.0</ele><time>2026-04-19T09:27:52.018Z</time></trkpt><trkpt lat="43.1896149" lon="13.0544772"><ele>331.0</ele><time>2026-04-19T09:27:53.022Z</time></trkpt><trkpt lat="43.1893924" lon="13.0545231"><ele>334.0</ele><time>2026-04-19T09:27:54.021Z</time></trkpt><trkpt lat="43.1891754" lon="13.0545652"><ele>337.0</ele><time>2026-04-19T09:27:55.034Z</time></trkpt><trkpt lat="43.1889712" lon="13.0545937"><ele>340.0</ele><time>2026-04-19T09:27:56.018Z</time></trkpt><trkpt lat="43.1887604" lon="13.0546288"><ele>344.0</ele><time>2026-04-19T09:27:57.02Z</time></trkpt><trkpt lat="43.1885545" lon="13.0546903"><ele>348.0</ele><time>2026-04-19T09:27:58.017Z</time></trkpt><trkpt lat="43.1883449" lon="13.0547265"><ele>352.0</ele><time>2026-04-19T09:27:59.022Z</time></trkpt><trkpt lat="43.1881381" lon="13.0547708"><ele>352.66666666666663</ele><time>2026-04-19T09:27:59.988Z</time></trkpt><trkpt lat="43.1879481" lon="13.0548483"><ele>353.3333333333333</ele><time>2026-04-19T09:28:01.008Z</time></trkpt><trkpt lat="43.1877254" lon="13.054913"><ele>354.0</ele><time>2026-04-19T09:28:02.005Z</time></trkpt><trkpt lat="43.1875133" lon="13.0549645"><ele>348.5</ele><time>2026-04-19T09:28:03.004Z</time></trkpt><trkpt lat="43.1872947" lon="13.055016"><ele>343.0</ele><time>2026-04-19T09:28:04.005Z</time></trkpt><trkpt lat="43.1870644" lon="13.0550546"><ele>343.0</ele><time>2026-04-19T09:28:05.01Z</time></trkpt><trkpt lat="43.18684" lon="13.0550921"><ele>343.0</ele><time>2026-04-19T09:28:06.01Z</time></trkpt><trkpt lat="43.186602" lon="13.0551402"><ele>341.5</ele><time>2026-04-19T09:28:07.009Z</time></trkpt><trkpt lat="43.186359" lon="13.0551958"><ele>340.0</ele><time>2026-04-19T09:28:08.013Z</time></trkpt><trkpt lat="43.1861017" lon="13.0552524"><ele>340.0</ele><time>2026-04-19T09:28:09.007Z</time></trkpt><trkpt lat="43.1858527" lon="13.0552893"><ele>340.0</ele><time>2026-04-19T09:28:10.016Z</time></trkpt><trkpt lat="43.1856055" lon="13.0553337"><ele>343.0</ele><time>2026-04-19T09:28:11.019Z</time></trkpt><trkpt lat="43.1853517" lon="13.0553853"><ele>346.0</ele><time>2026-04-19T09:28:12.019Z</time></trkpt><trkpt lat="43.1850873" lon="13.0554318"><ele>346.5</ele><time>2026-04-19T09:28:13.016Z</time></trkpt><trkpt lat="43.1848421" lon="13.0554754"><ele>347.0</ele><time>2026-04-19T09:28:14.015Z</time></trkpt><trkpt lat="43.1846179" lon="13.0555084"><ele>347.0</ele><time>2026-04-19T09:28:15.016Z</time></trkpt><trkpt lat="43.1844051" lon="13.0555327"><ele>347.0</ele><time>2026-04-19T09:28:16.016Z</time></trkpt><trkpt lat="43.1841877" lon="13.0555349"><ele>347.0</ele><time>2026-04-19T09:28:17.012Z</time></trkpt><trkpt lat="43.1839604" lon="13.0555106"><ele>341.5</ele><time>2026-04-19T09:28:18.019Z</time></trkpt><trkpt lat="43.1837416" lon="13.0554207"><ele>336.0</ele><time>2026-04-19T09:28:19.012Z</time></trkpt><trkpt lat="43.1835266" lon="13.0552881"><ele>336.0</ele><time>2026-04-19T09:28:20.01Z</time></trkpt><trkpt lat="43.1833002" lon="13.0551645"><ele>336.0</ele><time>2026-04-19T09:28:21.011Z</time></trkpt><trkpt lat="43.1830831" lon="13.0550344"><ele>339.0</ele><time>2026-04-19T09:28:22.015Z</time></trkpt><trkpt lat="43.1828467" lon="13.0549056"><ele>342.0</ele><time>2026-04-19T09:28:23.011Z</time></trkpt><trkpt lat="43.1826154" lon="13.0547737"><ele>342.0</ele><time>2026-04-19T09:28:24.014Z</time></trkpt><trkpt lat="43.1823862" lon="13.0546518"><ele>342.0</ele><time>2026-04-19T09:28:25.019Z</time></trkpt><trkpt lat="43.1821679" lon="13.054525"><ele>340.0</ele><time>2026-04-19T09:28:26.014Z</time></trkpt><trkpt lat="43.1819636" lon="13.0544086"><ele>338.0</ele><time>2026-04-19T09:28:27.013Z</time></trkpt><trkpt lat="43.1817743" lon="13.0543272"><ele>336.0</ele><time>2026-04-19T09:28:28.01Z</time></trkpt><trkpt lat="43.1815931" lon="13.0542829"><ele>335.0</ele><time>2026-04-19T09:28:29.013Z</time></trkpt><trkpt lat="43.1814036" lon="13.0542309"><ele>334.0</ele><time>2026-04-19T09:28:30.012Z</time></trkpt><trkpt lat="43.1812101" lon="13.0541826"><ele>333.0</ele><time>2026-04-19T09:28:31.011Z</time></trkpt><trkpt lat="43.1810119" lon="13.0541402"><ele>336.0</ele><time>2026-04-19T09:28:32.02Z</time></trkpt><trkpt lat="43.180809" lon="13.0541087"><ele>339.0</ele><time>2026-04-19T09:28:33.021Z</time></trkpt><trkpt lat="43.1805997" lon="13.0540796"><ele>342.0</ele><time>2026-04-19T09:28:34.019Z</time></trkpt><trkpt lat="43.180381" lon="13.0540524"><ele>342.0</ele><time>2026-04-19T09:28:35.019Z</time></trkpt><trkpt lat="43.1801599" lon="13.0540401"><ele>342.0</ele><time>2026-04-19T09:28:36.015Z</time></trkpt><trkpt lat="43.1799209" lon="13.0540128"><ele>342.5</ele><time>2026-04-19T09:28:37.014Z</time></trkpt><trkpt lat="43.1796612" lon="13.0539837"><ele>343.0</ele><time>2026-04-19T09:28:38.02Z</time></trkpt><trkpt lat="43.1794032" lon="13.0539549"><ele>343.0</ele><time>2026-04-19T09:28:38.998Z</time></trkpt><trkpt lat="43.1791544" lon="13.0539641"><ele>343.0</ele><time>2026-04-19T09:28:40.016Z</time></trkpt><trkpt lat="43.178912" lon="13.0539895"><ele>342.5</ele><time>2026-04-19T09:28:41.014Z</time></trkpt><trkpt lat="43.1786692" lon="13.0540338"><ele>342.0</ele><time>2026-04-19T09:28:42.015Z</time></trkpt><trkpt lat="43.1784457" lon="13.054081"><ele>339.0</ele><time>2026-04-19T09:28:43.015Z</time></trkpt><trkpt lat="43.178218" lon="13.0541237"><ele>336.0</ele><time>2026-04-19T09:28:44.011Z</time></trkpt><trkpt lat="43.1779739" lon="13.0541635"><ele>335.0</ele><time>2026-04-19T09:28:45.021Z</time></trkpt><trkpt lat="43.1777113" lon="13.0542053"><ele>334.0</ele><time>2026-04-19T09:28:46.011Z</time></trkpt><trkpt lat="43.1774841" lon="13.0542077"><ele>333.5</ele><time>2026-04-19T09:28:47.01Z</time></trkpt><trkpt lat="43.1772387" lon="13.0542132"><ele>333.0</ele><time>2026-04-19T09:28:48.013Z</time></trkpt><trkpt lat="43.176978" lon="13.0542518"><ele>333.0</ele><time>2026-04-19T09:28:49.021Z</time></trkpt><trkpt lat="43.1767088" lon="13.0543075"><ele>333.0</ele><time>2026-04-19T09:28:50.02Z</time></trkpt><trkpt lat="43.176449" lon="13.0543612"><ele>332.5</ele><time>2026-04-19T09:28:51.02Z</time></trkpt><trkpt lat="43.1762007" lon="13.0544073"><ele>332.0</ele><time>2026-04-19T09:28:52.018Z</time></trkpt><trkpt lat="43.1759543" lon="13.0544657"><ele>332.0</ele><time>2026-04-19T09:28:53.022Z</time></trkpt><trkpt lat="43.1757111" lon="13.0545068"><ele>332.0</ele><time>2026-04-19T09:28:54.025Z</time></trkpt><trkpt lat="43.1754816" lon="13.0545303"><ele>330.5</ele><time>2026-04-19T09:28:55.022Z</time></trkpt><trkpt lat="43.1752526" lon="13.054566"><ele>329.0</ele><time>2026-04-19T09:28:56.021Z</time></trkpt><trkpt lat="43.1750314" lon="13.0545987"><ele>330.5</ele><time>2026-04-19T09:28:57.035Z</time></trkpt><trkpt lat="43.1748055" lon="13.0546254"><ele>332.0</ele><time>2026-04-19T09:28:58.021Z</time></trkpt><trkpt lat="43.174577" lon="13.054652"><ele>332.0</ele><time>2026-04-19T09:28:59.022Z</time></trkpt><trkpt lat="43.1743402" lon="13.0546863"><ele>332.0</ele><time>2026-04-19T09:29:00.021Z</time></trkpt><trkpt lat="43.1741009" lon="13.0547187"><ele>334.0</ele><time>2026-04-19T09:29:01.019Z</time></trkpt><trkpt lat="43.1738644" lon="13.0547571"><ele>336.0</ele><time>2026-04-19T09:29:02.021Z</time></trkpt><trkpt lat="43.1736297" lon="13.0548272"><ele>336.0</ele><time>2026-04-19T09:29:03.018Z</time></trkpt><trkpt lat="43.1734009" lon="13.054911"><ele>336.0</ele><time>2026-04-19T09:29:04.021Z</time></trkpt><trkpt lat="43.173175" lon="13.0550243"><ele>335.0</ele><time>2026-04-19T09:29:05.019Z</time></trkpt><trkpt lat="43.1729463" lon="13.055152"><ele>334.0</ele><time>2026-04-19T09:29:06.014Z</time></trkpt><trkpt lat="43.1727116" lon="13.0552897"><ele>334.0</ele><time>2026-04-19T09:29:07.019Z</time></trkpt><trkpt lat="43.1724639" lon="13.0554374"><ele>334.0</ele><time>2026-04-19T09:29:08.018Z</time></trkpt><trkpt lat="43.1722073" lon="13.0555846"><ele>334.0</ele><time>2026-04-19T09:29:09.019Z</time></trkpt><trkpt lat="43.1719505" lon="13.0557252"><ele>334.0</ele><time>2026-04-19T09:29:10.018Z</time></trkpt><trkpt lat="43.1716893" lon="13.0558638"><ele>333.5</ele><time>2026-04-19T09:29:11.018Z</time></trkpt><trkpt lat="43.1714377" lon="13.056016"><ele>333.0</ele><time>2026-04-19T09:29:12.017Z</time></trkpt><trkpt lat="43.1712051" lon="13.0561492"><ele>333.0</ele><time>2026-04-19T09:29:13.015Z</time></trkpt><trkpt lat="43.1709851" lon="13.056287"><ele>333.0</ele><time>2026-04-19T09:29:14.016Z</time></trkpt><trkpt lat="43.1707669" lon="13.0564084"><ele>333.0</ele><time>2026-04-19T09:29:15.016Z</time></trkpt><trkpt lat="43.1705581" lon="13.0565231"><ele>333.0</ele><time>2026-04-19T09:29:16.021Z</time></trkpt><trkpt lat="43.1703502" lon="13.0566493"><ele>333.0</ele><time>2026-04-19T09:29:17.021Z</time></trkpt><trkpt lat="43.1701409" lon="13.0567701"><ele>333.0</ele><time>2026-04-19T09:29:18.02Z</time></trkpt><trkpt lat="43.169923" lon="13.0568915"><ele>333.5</ele><time>2026-04-19T09:29:19.022Z</time></trkpt><trkpt lat="43.1697029" lon="13.0570256"><ele>334.0</ele><time>2026-04-19T09:29:20.024Z</time></trkpt><trkpt lat="43.1694851" lon="13.0571512"><ele>334.0</ele><time>2026-04-19T09:29:21.027Z</time></trkpt><trkpt lat="43.1692524" lon="13.0572882"><ele>334.0</ele><time>2026-04-19T09:29:22.02Z</time></trkpt><trkpt lat="43.1690138" lon="13.0574181"><ele>334.0</ele><time>2026-04-19T09:29:23.021Z</time></trkpt><trkpt lat="43.1687732" lon="13.0575466"><ele>334.0</ele><time>2026-04-19T09:29:24.019Z</time></trkpt><trkpt lat="43.1685253" lon="13.0576734"><ele>334.0</ele><time>2026-04-19T09:29:25.019Z</time></trkpt><trkpt lat="43.1682784" lon="13.0577914"><ele>334.0</ele><time>2026-04-19T09:29:26.02Z</time></trkpt><trkpt lat="43.1680336" lon="13.0578963"><ele>335.0</ele><time>2026-04-19T09:29:27.022Z</time></trkpt><trkpt lat="43.1677795" lon="13.0579899"><ele>336.0</ele><time>2026-04-19T09:29:28.03Z</time></trkpt><trkpt lat="43.1675181" lon="13.0580421"><ele>337.0</ele><time>2026-04-19T09:29:29.023Z</time></trkpt><trkpt lat="43.167263" lon="13.0580404"><ele>338.0</ele><time>2026-04-19T09:29:30.017Z</time></trkpt><trkpt lat="43.1670078" lon="13.0580656"><ele>338.0</ele><time>2026-04-19T09:29:31.017Z</time></trkpt><trkpt lat="43.1667545" lon="13.058143"><ele>338.0</ele><time>2026-04-19T09:29:32.018Z</time></trkpt><trkpt lat="43.1665262" lon="13.0582616"><ele>340.5</ele><time>2026-04-19T09:29:33.02Z</time></trkpt><trkpt lat="43.1662992" lon="13.0584221"><ele>343.0</ele><time>2026-04-19T09:29:34.015Z</time></trkpt><trkpt lat="43.166091" lon="13.058563"><ele>343.0</ele><time>2026-04-19T09:29:35.012Z</time></trkpt><trkpt lat="43.1658922" lon="13.0586958"><ele>343.0</ele><time>2026-04-19T09:29:36.015Z</time></trkpt><trkpt lat="43.1656796" lon="13.0587706"><ele>343.0</ele><time>2026-04-19T09:29:37.021Z</time></trkpt><trkpt lat="43.1654591" lon="13.058779"><ele>342.66666666666663</ele><time>2026-04-19T09:29:38.016Z</time></trkpt><trkpt lat="43.1652401" lon="13.0587434"><ele>342.3333333333333</ele><time>2026-04-19T09:29:39.013Z</time></trkpt><trkpt lat="43.1650404" lon="13.058682"><ele>342.0</ele><time>2026-04-19T09:29:40.009Z</time></trkpt><trkpt lat="43.164842" lon="13.0586273"><ele>342.0</ele><time>2026-04-19T09:29:41.013Z</time></trkpt><trkpt lat="43.1646306" lon="13.058597"><ele>342.0</ele><time>2026-04-19T09:29:42.014Z</time></trkpt><trkpt lat="43.1644445" lon="13.0584905"><ele>342.0</ele><time>2026-04-19T09:29:43.003Z</time></trkpt><trkpt lat="43.164266" lon="13.058392"><ele>345.5</ele><time>2026-04-19T09:29:44.001Z</time></trkpt><trkpt lat="43.1639802" lon="13.058477"><ele>349.0</ele><time>2026-04-19T09:29:44.997Z</time></trkpt><trkpt lat="43.1636906" lon="13.0586166"><ele>349.0</ele><time>2026-04-19T09:29:46.01Z</time></trkpt><trkpt lat="43.1634106" lon="13.0588456"><ele>349.0</ele><time>2026-04-19T09:29:47.006Z</time></trkpt><trkpt lat="43.163154" lon="13.0589643"><ele>350.0</ele><time>2026-04-19T09:29:48.008Z</time></trkpt><trkpt lat="43.1629034" lon="13.0590701"><ele>351.0</ele><time>2026-04-19T09:29:49.011Z</time></trkpt><trkpt lat="43.1626593" lon="13.0591961"><ele>351.0</ele><time>2026-04-19T09:29:50.017Z</time></trkpt><trkpt lat="43.1624252" lon="13.0593862"><ele>351.0</ele><time>2026-04-19T09:29:51.013Z</time></trkpt><trkpt lat="43.1621925" lon="13.0595857"><ele>354.5</ele><time>2026-04-19T09:29:52.007Z</time></trkpt><trkpt lat="43.1619703" lon="13.059786"><ele>358.0</ele><time>2026-04-19T09:29:53.011Z</time></trkpt><trkpt lat="43.1617456" lon="13.0599939"><ele>362.0</ele><time>2026-04-19T09:29:54.014Z</time></trkpt><trkpt lat="43.1615294" lon="13.0602075"><ele>366.0</ele><time>2026-04-19T09:29:55.011Z</time></trkpt><trkpt lat="43.1613255" lon="13.060447"><ele>366.0</ele><time>2026-04-19T09:29:56.015Z</time></trkpt><trkpt lat="43.161133" lon="13.0607262"><ele>366.0</ele><time>2026-04-19T09:29:57.014Z</time></trkpt><trkpt lat="43.1609206" lon="13.0610019"><ele>367.5</ele><time>2026-04-19T09:29:58.018Z</time></trkpt><trkpt lat="43.1606873" lon="13.0612103"><ele>369.0</ele><time>2026-04-19T09:29:59.032Z</time></trkpt><trkpt lat="43.1604507" lon="13.0613833"><ele>369.0</ele><time>2026-04-19T09:30:00.018Z</time></trkpt><trkpt lat="43.1602028" lon="13.0615328"><ele>369.0</ele><time>2026-04-19T09:30:01.013Z</time></trkpt><trkpt lat="43.1599516" lon="13.0616485"><ele>369.0</ele><time>2026-04-19T09:30:02.021Z</time></trkpt><trkpt lat="43.1596893" lon="13.0617003"><ele>369.0</ele><time>2026-04-19T09:30:03.015Z</time></trkpt><trkpt lat="43.1594051" lon="13.0616976"><ele>369.0</ele><time>2026-04-19T09:30:04.012Z</time></trkpt><trkpt lat="43.1591303" lon="13.0617104"><ele>369.0</ele><time>2026-04-19T09:30:05.019Z</time></trkpt><trkpt lat="43.1588646" lon="13.0617486"><ele>373.5</ele><time>2026-04-19T09:30:06.014Z</time></trkpt><trkpt lat="43.1585982" lon="13.0618094"><ele>378.0</ele><time>2026-04-19T09:30:07.019Z</time></trkpt><trkpt lat="43.1583364" lon="13.0619032"><ele>380.0</ele><time>2026-04-19T09:30:08.017Z</time></trkpt><trkpt lat="43.1580799" lon="13.0619731"><ele>382.0</ele><time>2026-04-19T09:30:09.018Z</time></trkpt><trkpt lat="43.1578294" lon="13.0619588"><ele>382.0</ele><time>2026-04-19T09:30:10.021Z</time></trkpt><trkpt lat="43.1575765" lon="13.0618685"><ele>382.0</ele><time>2026-04-19T09:30:11.021Z</time></trkpt><trkpt lat="43.1573504" lon="13.061705"><ele>387.0</ele><time>2026-04-19T09:30:12.013Z</time></trkpt><trkpt lat="43.1571265" lon="13.0615355"><ele>392.0</ele><time>2026-04-19T09:30:13.013Z</time></trkpt><trkpt lat="43.1568883" lon="13.0613789"><ele>392.0</ele><time>2026-04-19T09:30:14.012Z</time></trkpt><trkpt lat="43.1566423" lon="13.0612206"><ele>392.0</ele><time>2026-04-19T09:30:15.015Z</time></trkpt><trkpt lat="43.1564133" lon="13.0610817"><ele>391.66666666666663</ele><time>2026-04-19T09:30:16.019Z</time></trkpt><trkpt lat="43.156201" lon="13.0609744"><ele>391.33333333333337</ele><time>2026-04-19T09:30:17.02Z</time></trkpt><trkpt lat="43.1559985" lon="13.0609049"><ele>391.0</ele><time>2026-04-19T09:30:18.009Z</time></trkpt><trkpt lat="43.1558144" lon="13.0608603"><ele>392.6666666666667</ele><time>2026-04-19T09:30:19.015Z</time></trkpt><trkpt lat="43.155641" lon="13.0608624"><ele>394.33333333333337</ele><time>2026-04-19T09:30:20.019Z</time></trkpt><trkpt lat="43.155484" lon="13.0609092"><ele>396.0</ele><time>2026-04-19T09:30:21.026Z</time></trkpt><trkpt lat="43.1553434" lon="13.0610182"><ele>396.0</ele><time>2026-04-19T09:30:22.023Z</time></trkpt><trkpt lat="43.155239" lon="13.0611699"><ele>396.0</ele><time>2026-04-19T09:30:23.014Z</time></trkpt><trkpt lat="43.1551375" lon="13.0613151"><ele>396.0</ele><time>2026-04-19T09:30:24.015Z</time></trkpt><trkpt lat="43.1550265" lon="13.0614185"><ele>396.0</ele><time>2026-04-19T09:30:25.023Z</time></trkpt><trkpt lat="43.1548865" lon="13.0614495"><ele>398.75</ele><time>2026-04-19T09:30:26.022Z</time></trkpt><trkpt lat="43.1547401" lon="13.0614082"><ele>401.5</ele><time>2026-04-19T09:30:27.025Z</time></trkpt><trkpt lat="43.1546297" lon="13.0613225"><ele>404.25</ele><time>2026-04-19T09:30:28.023Z</time></trkpt><trkpt lat="43.1545588" lon="13.0611804"><ele>407.0</ele><time>2026-04-19T09:30:29.026Z</time></trkpt><trkpt lat="43.1545569" lon="13.060999"><ele>407.0</ele><time>2026-04-19T09:30:30.033Z</time></trkpt><trkpt lat="43.1546062" lon="13.0607989"><ele>407.0</ele><time>2026-04-19T09:30:31.016Z</time></trkpt><trkpt lat="43.1546971" lon="13.060614"><ele>407.0</ele><time>2026-04-19T09:30:32.019Z</time></trkpt><trkpt lat="43.1548364" lon="13.0604517"><ele>406.0</ele><time>2026-04-19T09:30:33.021Z</time></trkpt><trkpt lat="43.1549827" lon="13.0603355"><ele>405.0</ele><time>2026-04-19T09:30:34.011Z</time></trkpt><trkpt lat="43.1550976" lon="13.0602016"><ele>404.0</ele><time>2026-04-19T09:30:35.021Z</time></trkpt><trkpt lat="43.1551563" lon="13.06004"><ele>405.5</ele><time>2026-04-19T09:30:36.021Z</time></trkpt><trkpt lat="43.15516" lon="13.0598597"><ele>407.0</ele><time>2026-04-19T09:30:37.02Z</time></trkpt><trkpt lat="43.1551226" lon="13.0596739"><ele>408.5</ele><time>2026-04-19T09:30:38.017Z</time></trkpt><trkpt lat="43.1550387" lon="13.0595139"><ele>410.0</ele><time>2026-04-19T09:30:39.014Z</time></trkpt><trkpt lat="43.1549174" lon="13.05941"><ele>412.0</ele><time>2026-04-19T09:30:40.017Z</time></trkpt><trkpt lat="43.1547733" lon="13.0593672"><ele>414.0</ele><time>2026-04-19T09:30:41.018Z</time></trkpt><trkpt lat="43.1546153" lon="13.0593871"><ele>416.0</ele><time>2026-04-19T09:30:42.013Z</time></trkpt><trkpt lat="43.1544515" lon="13.0594824"><ele>416.0</ele><time>2026-04-19T09:30:43.018Z</time></trkpt><trkpt lat="43.1542756" lon="13.0596262"><ele>416.0</ele><time>2026-04-19T09:30:44.018Z</time></trkpt><trkpt lat="43.1541118" lon="13.0597984"><ele>416.0</ele><time>2026-04-19T09:30:45.012Z</time></trkpt><trkpt lat="43.1539334" lon="13.0600112"><ele>417.5</ele><time>2026-04-19T09:30:46.025Z</time></trkpt><trkpt lat="43.1537949" lon="13.0602742"><ele>419.0</ele><time>2026-04-19T09:30:47.02Z</time></trkpt><trkpt lat="43.1536738" lon="13.0605821"><ele>419.0</ele><time>2026-04-19T09:30:48.022Z</time></trkpt><trkpt lat="43.1535797" lon="13.0608937"><ele>419.0</ele><time>2026-04-19T09:30:49.012Z</time></trkpt><trkpt lat="43.1535035" lon="13.061193"><ele>419.0</ele><time>2026-04-19T09:30:50.015Z</time></trkpt><trkpt lat="43.1534325" lon="13.0614496"><ele>419.0</ele><time>2026-04-19T09:30:51.019Z</time></trkpt><trkpt lat="43.1533286" lon="13.0616867"><ele>419.0</ele><time>2026-04-19T09:30:52.017Z</time></trkpt><trkpt lat="43.1531702" lon="13.0618873"><ele>423.0</ele><time>2026-04-19T09:30:53.02Z</time></trkpt><trkpt lat="43.1529805" lon="13.0620261"><ele>427.0</ele><time>2026-04-19T09:30:54.02Z</time></trkpt><trkpt lat="43.1527669" lon="13.0621632"><ele>427.0</ele><time>2026-04-19T09:30:55.01Z</time></trkpt><trkpt lat="43.1525509" lon="13.0622856"><ele>427.0</ele><time>2026-04-19T09:30:56.01Z</time></trkpt><trkpt lat="43.1523192" lon="13.0623982"><ele>429.33333333333337</ele><time>2026-04-19T09:30:57.014Z</time></trkpt><trkpt lat="43.1521172" lon="13.062516"><ele>431.66666666666663</ele><time>2026-04-19T09:30:58.012Z</time></trkpt><trkpt lat="43.151964" lon="13.0626135"><ele>434.0</ele><time>2026-04-19T09:30:59.025Z</time></trkpt><trkpt lat="43.151812" lon="13.0626627"><ele>434.0</ele><time>2026-04-19T09:31:00.021Z</time></trkpt><trkpt lat="43.151673" lon="13.0626276"><ele>434.0</ele><time>2026-04-19T09:31:01.028Z</time></trkpt><trkpt lat="43.1515605" lon="13.0625087"><ele>434.0</ele><time>2026-04-19T09:31:02.019Z</time></trkpt><trkpt lat="43.1515195" lon="13.0623239"><ele>434.0</ele><time>2026-04-19T09:31:03.021Z</time></trkpt><trkpt lat="43.15154" lon="13.0621072"><ele>435.0</ele><time>2026-04-19T09:31:04.025Z</time></trkpt><trkpt lat="43.1515824" lon="13.0618699"><ele>436.0</ele><time>2026-04-19T09:31:05.008Z</time></trkpt><trkpt lat="43.1516232" lon="13.0616294"><ele>437.0</ele><time>2026-04-19T09:31:06.019Z</time></trkpt><trkpt lat="43.1516648" lon="13.0613554"><ele>438.3333333333333</ele><time>2026-04-19T09:31:07.015Z</time></trkpt><trkpt lat="43.1517018" lon="13.0611195"><ele>439.66666666666663</ele><time>2026-04-19T09:31:08.012Z</time></trkpt><trkpt lat="43.1517357" lon="13.0609012"><ele>441.0</ele><time>2026-04-19T09:31:09.018Z</time></trkpt><trkpt lat="43.1517442" lon="13.0607051"><ele>441.25</ele><time>2026-04-19T09:31:10.023Z</time></trkpt><trkpt lat="43.1517174" lon="13.0605339"><ele>441.5</ele><time>2026-04-19T09:31:11.014Z</time></trkpt><trkpt lat="43.1516555" lon="13.0604014"><ele>441.75</ele><time>2026-04-19T09:31:12.029Z</time></trkpt><trkpt lat="43.1515545" lon="13.0603057"><ele>442.0</ele><time>2026-04-19T09:31:13.026Z</time></trkpt><trkpt lat="43.1514456" lon="13.0602492"><ele>444.75</ele><time>2026-04-19T09:31:14.024Z</time></trkpt><trkpt lat="43.1513117" lon="13.0602415"><ele>447.5</ele><time>2026-04-19T09:31:15.026Z</time></trkpt><trkpt lat="43.1511923" lon="13.0602706"><ele>450.25</ele><time>2026-04-19T09:31:16.029Z</time></trkpt><trkpt lat="43.1510825" lon="13.0603479"><ele>453.0</ele><time>2026-04-19T09:31:17.029Z</time></trkpt><trkpt lat="43.1509865" lon="13.0604729"><ele>453.0</ele><time>2026-04-19T09:31:18.024Z</time></trkpt><trkpt lat="43.1509046" lon="13.0606343"><ele>453.0</ele><time>2026-04-19T09:31:19.025Z</time></trkpt><trkpt lat="43.1508475" lon="13.06083"><ele>453.0</ele><time>2026-04-19T09:31:20.018Z</time></trkpt><trkpt lat="43.150791" lon="13.0610278"><ele>453.33333333333337</ele><time>2026-04-19T09:31:21.021Z</time></trkpt><trkpt lat="43.1507253" lon="13.0612199"><ele>453.6666666666667</ele><time>2026-04-19T09:31:22.02Z</time></trkpt><trkpt lat="43.1506413" lon="13.0613962"><ele>454.0</ele><time>2026-04-19T09:31:23.021Z</time></trkpt><trkpt lat="43.1505539" lon="13.0615595"><ele>456.6666666666667</ele><time>2026-04-19T09:31:24.021Z</time></trkpt><trkpt lat="43.1504498" lon="13.0617203"><ele>459.33333333333337</ele><time>2026-04-19T09:31:25.019Z</time></trkpt><trkpt lat="43.1503192" lon="13.0618793"><ele>462.0</ele><time>2026-04-19T09:31:26.016Z</time></trkpt><trkpt lat="43.150175" lon="13.0620433"><ele>462.0</ele><time>2026-04-19T09:31:27.018Z</time></trkpt><trkpt lat="43.1500238" lon="13.0622182"><ele>462.0</ele><time>2026-04-19T09:31:28.017Z</time></trkpt><trkpt lat="43.1498712" lon="13.0623996"><ele>462.0</ele><time>2026-04-19T09:31:29.02Z</time></trkpt><trkpt lat="43.1497097" lon="13.0625917"><ele>465.0</ele><time>2026-04-19T09:31:30.014Z</time></trkpt><trkpt lat="43.1495471" lon="13.062797"><ele>468.0</ele><time>2026-04-19T09:31:31.016Z</time></trkpt><trkpt lat="43.149393" lon="13.0629929"><ele>471.0</ele><time>2026-04-19T09:31:32.041Z</time></trkpt><trkpt lat="43.149258" lon="13.0631531"><ele>471.0</ele><time>2026-04-19T09:31:33.021Z</time></trkpt><trkpt lat="43.1491303" lon="13.0632803"><ele>471.0</ele><time>2026-04-19T09:31:34.019Z</time></trkpt><trkpt lat="43.1489962" lon="13.0634006"><ele>471.0</ele><time>2026-04-19T09:31:35.022Z</time></trkpt><trkpt lat="43.148849" lon="13.0635376"><ele>473.0</ele><time>2026-04-19T09:31:36.017Z</time></trkpt><trkpt lat="43.1486853" lon="13.0636816"><ele>475.0</ele><time>2026-04-19T09:31:37.021Z</time></trkpt><trkpt lat="43.1485107" lon="13.0638517"><ele>477.0</ele><time>2026-04-19T09:31:38.017Z</time></trkpt><trkpt lat="43.1483331" lon="13.0640426"><ele>482.0</ele><time>2026-04-19T09:31:39.02Z</time></trkpt><trkpt lat="43.1481372" lon="13.0642306"><ele>487.0</ele><time>2026-04-19T09:31:40.018Z</time></trkpt><trkpt lat="43.1479361" lon="13.0644103"><ele>487.0</ele><time>2026-04-19T09:31:41.019Z</time></trkpt><trkpt lat="43.1477316" lon="13.0645817"><ele>487.0</ele><time>2026-04-19T09:31:42.023Z</time></trkpt><trkpt lat="43.1475264" lon="13.0647407"><ele>487.5</ele><time>2026-04-19T09:31:43.02Z</time></trkpt><trkpt lat="43.1473286" lon="13.0648976"><ele>488.0</ele><time>2026-04-19T09:31:44.019Z</time></trkpt><trkpt lat="43.1471364" lon="13.0650621"><ele>488.0</ele><time>2026-04-19T09:31:45.013Z</time></trkpt><trkpt lat="43.1469602" lon="13.0652356"><ele>488.0</ele><time>2026-04-19T09:31:46.022Z</time></trkpt><trkpt lat="43.1468051" lon="13.0654545"><ele>488.0</ele><time>2026-04-19T09:31:47.022Z</time></trkpt><trkpt lat="43.1466785" lon="13.0657061"><ele>487.66666666666663</ele><time>2026-04-19T09:31:48.025Z</time></trkpt><trkpt lat="43.1465898" lon="13.0659603"><ele>487.33333333333337</ele><time>2026-04-19T09:31:49.019Z</time></trkpt><trkpt lat="43.1465088" lon="13.0661899"><ele>487.0</ele><time>2026-04-19T09:31:50.017Z</time></trkpt><trkpt lat="43.1464243" lon="13.0663969"><ele>488.75</ele><time>2026-04-19T09:31:51.025Z</time></trkpt><trkpt lat="43.1463297" lon="13.0665466"><ele>490.5</ele><time>2026-04-19T09:31:52.022Z</time></trkpt><trkpt lat="43.1462113" lon="13.0666636"><ele>492.25</ele><time>2026-04-19T09:31:53.018Z</time></trkpt><trkpt lat="43.1460801" lon="13.0667747"><ele>494.0</ele><time>2026-04-19T09:31:54.01Z</time></trkpt><trkpt lat="43.1459287" lon="13.0668713"><ele>494.0</ele><time>2026-04-19T09:31:55.025Z</time></trkpt><trkpt lat="43.1457529" lon="13.0669011"><ele>494.0</ele><time>2026-04-19T09:31:56.023Z</time></trkpt><trkpt lat="43.1455743" lon="13.0669329"><ele>494.0</ele><time>2026-04-19T09:31:57.019Z</time></trkpt><trkpt lat="43.1454113" lon="13.0669696"><ele>496.75</ele><time>2026-04-19T09:31:58.017Z</time></trkpt><trkpt lat="43.1452761" lon="13.0670199"><ele>499.5</ele><time>2026-04-19T09:31:59.022Z</time></trkpt><trkpt lat="43.1451734" lon="13.0671278"><ele>502.25</ele><time>2026-04-19T09:32:00.025Z</time></trkpt><trkpt lat="43.1450829" lon="13.0672704"><ele>505.0</ele><time>2026-04-19T09:32:01.009Z</time></trkpt><trkpt lat="43.1450093" lon="13.0674263"><ele>504.33333333333337</ele><time>2026-04-19T09:32:02.03Z</time></trkpt><trkpt lat="43.1449614" lon="13.0676191"><ele>503.66666666666663</ele><time>2026-04-19T09:32:03.019Z</time></trkpt><trkpt lat="43.1449456" lon="13.0678202"><ele>503.0</ele><time>2026-04-19T09:32:04.02Z</time></trkpt><trkpt lat="43.1449677" lon="13.0680408"><ele>503.0</ele><time>2026-04-19T09:32:05.015Z</time></trkpt><trkpt lat="43.1449854" lon="13.0682621"><ele>503.0</ele><time>2026-04-19T09:32:06.015Z</time></trkpt><trkpt lat="43.1449643" lon="13.068475"><ele>503.0</ele><time>2026-04-19T09:32:07.023Z</time></trkpt><trkpt lat="43.1448996" lon="13.0686926"><ele>506.66666666666663</ele><time>2026-04-19T09:32:08.023Z</time></trkpt><trkpt lat="43.1448074" lon="13.0688972"><ele>510.33333333333337</ele><time>2026-04-19T09:32:09.019Z</time></trkpt><trkpt lat="43.1447178" lon="13.0691117"><ele>514.0</ele><time>2026-04-19T09:32:10.019Z</time></trkpt><trkpt lat="43.1446635" lon="13.0693458"><ele>515.6666666666667</ele><time>2026-04-19T09:32:11.021Z</time></trkpt><trkpt lat="43.1446487" lon="13.0695892"><ele>517.3333333333334</ele><time>2026-04-19T09:32:12.014Z</time></trkpt><trkpt lat="43.1446497" lon="13.0698336"><ele>519.0</ele><time>2026-04-19T09:32:13.015Z</time></trkpt><trkpt lat="43.1446656" lon="13.070036"><ele>519.25</ele><time>2026-04-19T09:32:14.019Z</time></trkpt><trkpt lat="43.1446695" lon="13.0702209"><ele>519.5</ele><time>2026-04-19T09:32:15.02Z</time></trkpt><trkpt lat="43.1446144" lon="13.0703688"><ele>519.75</ele><time>2026-04-19T09:32:16.021Z</time></trkpt><trkpt lat="43.144515" lon="13.070481"><ele>520.0</ele><time>2026-04-19T09:32:17.016Z</time></trkpt><trkpt lat="43.1443989" lon="13.0705175"><ele>520.0</ele><time>2026-04-19T09:32:18.016Z</time></trkpt><trkpt lat="43.1442615" lon="13.0704861"><ele>520.0</ele><time>2026-04-19T09:32:19.014Z</time></trkpt><trkpt lat="43.1441461" lon="13.0704039"><ele>520.0</ele><time>2026-04-19T09:32:20.017Z</time></trkpt><trkpt lat="43.144054" lon="13.0702773"><ele>520.0</ele><time>2026-04-19T09:32:21.016Z</time></trkpt><trkpt lat="43.1439949" lon="13.0701038"><ele>523.6666666666667</ele><time>2026-04-19T09:32:22.016Z</time></trkpt><trkpt lat="43.143975" lon="13.069888"><ele>527.3333333333334</ele><time>2026-04-19T09:32:23.016Z</time></trkpt><trkpt lat="43.1439936" lon="13.0696541"><ele>531.0</ele><time>2026-04-19T09:32:24.008Z</time></trkpt><trkpt lat="43.1440012" lon="13.0694592"><ele>531.0</ele><time>2026-04-19T09:32:25.011Z</time></trkpt><trkpt lat="43.1440133" lon="13.069269"><ele>531.0</ele><time>2026-04-19T09:32:26.013Z</time></trkpt><trkpt lat="43.1440391" lon="13.0691035"><ele>531.0</ele><time>2026-04-19T09:32:27.023Z</time></trkpt><trkpt lat="43.1440575" lon="13.0689816"><ele>531.0</ele><time>2026-04-19T09:32:28.018Z</time></trkpt><trkpt lat="43.1440504" lon="13.06888"><ele>531.0</ele><time>2026-04-19T09:32:29.017Z</time></trkpt><trkpt lat="43.1440288" lon="13.068769"><ele>530.0</ele><time>2026-04-19T09:32:30.013Z</time></trkpt><trkpt lat="43.1439899" lon="13.0686591"><ele>529.0</ele><time>2026-04-19T09:32:31.009Z</time></trkpt><trkpt lat="43.1439398" lon="13.0685638"><ele>528.0</ele><time>2026-04-19T09:32:32.017Z</time></trkpt><trkpt lat="43.143873" lon="13.0684976"><ele>527.0</ele><time>2026-04-19T09:32:33.024Z</time></trkpt><trkpt lat="43.1438079" lon="13.0684539"><ele>526.0</ele><time>2026-04-19T09:32:34.014Z</time></trkpt><trkpt lat="43.1437407" lon="13.0684191"><ele>525.0</ele><time>2026-04-19T09:32:35.013Z</time></trkpt><trkpt lat="43.1436755" lon="13.0683937"><ele>525.0</ele><time>2026-04-19T09:32:36.018Z</time></trkpt><trkpt lat="43.1435688" lon="13.0683685"><ele>525.0</ele><time>2026-04-19T09:32:38.022Z</time></trkpt><trkpt lat="43.1434899" lon="13.0683611"><ele>525.0</ele><time>2026-04-19T09:32:40.017Z</time></trkpt><trkpt lat="43.1433938" lon="13.0683133"><ele>525.0</ele><time>2026-04-19T09:32:43.019Z</time></trkpt><trkpt lat="43.1433318" lon="13.0682274"><ele>525.0</ele><time>2026-04-19T09:32:45.019Z</time></trkpt><trkpt lat="43.1432528" lon="13.0681482"><ele>526.3333333333334</ele><time>2026-04-19T09:32:47.012Z</time></trkpt><trkpt lat="43.143139" lon="13.0681726"><ele>527.6666666666666</ele><time>2026-04-19T09:32:49.026Z</time></trkpt><trkpt lat="43.1430768" lon="13.0682357"><ele>529.0</ele><time>2026-04-19T09:32:50.016Z</time></trkpt><trkpt lat="43.1430218" lon="13.0682961"><ele>530.3333333333333</ele><time>2026-04-19T09:32:51.018Z</time></trkpt><trkpt lat="43.1429689" lon="13.0683538"><ele>531.6666666666666</ele><time>2026-04-19T09:32:52.015Z</time></trkpt><trkpt lat="43.1429128" lon="13.0683935"><ele>533.0</ele><time>2026-04-19T09:32:53.017Z</time></trkpt><trkpt lat="43.1427972" lon="13.0684337"><ele>533.2857142857142</ele><time>2026-04-19T09:32:55.019Z</time></trkpt><trkpt lat="43.1427339" lon="13.0684397"><ele>533.5714285714286</ele><time>2026-04-19T09:32:56.017Z</time></trkpt><trkpt lat="43.1426624" lon="13.0684345"><ele>533.8571428571429</ele><time>2026-04-19T09:32:57.027Z</time></trkpt><trkpt lat="43.1425956" lon="13.0684229"><ele>534.1428571428571</ele><time>2026-04-19T09:32:58.021Z</time></trkpt><trkpt lat="43.1425338" lon="13.0684007"><ele>534.4285714285714</ele><time>2026-04-19T09:32:59.025Z</time></trkpt><trkpt lat="43.1424706" lon="13.0683729"><ele>534.7142857142857</ele><time>2026-04-19T09:33:00.019Z</time></trkpt><trkpt lat="43.1424037" lon="13.0683335"><ele>535.0</ele><time>2026-04-19T09:33:01.02Z</time></trkpt><trkpt lat="43.1423342" lon="13.0682799"><ele>536.0</ele><time>2026-04-19T09:33:02.022Z</time></trkpt><trkpt lat="43.1422631" lon="13.0682221"><ele>537.0</ele><time>2026-04-19T09:33:03.019Z</time></trkpt><trkpt lat="43.1421964" lon="13.0681626"><ele>538.0</ele><time>2026-04-19T09:33:04.033Z</time></trkpt><trkpt lat="43.1421306" lon="13.0680989"><ele>539.0</ele><time>2026-04-19T09:33:05.016Z</time></trkpt><trkpt lat="43.1420633" lon="13.0680367"><ele>540.0</ele><time>2026-04-19T09:33:06.008Z</time></trkpt><trkpt lat="43.1419956" lon="13.0679754"><ele>541.0</ele><time>2026-04-19T09:33:06.999Z</time></trkpt><trkpt lat="43.1419242" lon="13.0679093"><ele>541.0</ele><time>2026-04-19T09:33:07.984Z</time></trkpt><trkpt lat="43.141853" lon="13.0678443"><ele>541.0</ele><time>2026-04-19T09:33:08.973Z</time></trkpt><trkpt lat="43.1417831" lon="13.0677805"><ele>541.0</ele><time>2026-04-19T09:33:09.951Z</time></trkpt><trkpt lat="43.1417119" lon="13.0677156"><ele>541.0</ele><time>2026-04-19T09:33:10.951Z</time></trkpt><trkpt lat="43.1416381" lon="13.0676478"><ele>541.0</ele><time>2026-04-19T09:33:11.949Z</time></trkpt><trkpt lat="43.1414839" lon="13.0674985"><ele>542.5</ele><time>2026-04-19T09:33:12.969Z</time></trkpt><trkpt lat="43.1414162" lon="13.0671584"><ele>544.0</ele><time>2026-04-19T09:33:13.999Z</time></trkpt><trkpt lat="43.1413151" lon="13.0669195"><ele>544.0</ele><time>2026-04-19T09:33:15.01Z</time></trkpt><trkpt lat="43.1412193" lon="13.0667521"><ele>544.0</ele><time>2026-04-19T09:33:16.021Z</time></trkpt><trkpt lat="43.1411271" lon="13.0665983"><ele>544.0</ele><time>2026-04-19T09:33:17.018Z</time></trkpt><trkpt lat="43.1410296" lon="13.0664461"><ele>544.0</ele><time>2026-04-19T09:33:18.015Z</time></trkpt><trkpt lat="43.1409273" lon="13.0663031"><ele>545.0</ele><time>2026-04-19T09:33:19.011Z</time></trkpt><trkpt lat="43.1408305" lon="13.0661646"><ele>546.0</ele><time>2026-04-19T09:33:20.017Z</time></trkpt><trkpt lat="43.1407376" lon="13.0660325"><ele>547.0</ele><time>2026-04-19T09:33:21.018Z</time></trkpt><trkpt lat="43.1406465" lon="13.0659063"><ele>548.0</ele><time>2026-04-19T09:33:22.012Z</time></trkpt><trkpt lat="43.1405493" lon="13.0657815"><ele>546.5</ele><time>2026-04-19T09:33:23.011Z</time></trkpt><trkpt lat="43.1404519" lon="13.0656519"><ele>545.0</ele><time>2026-04-19T09:33:24.012Z</time></trkpt><trkpt lat="43.1403539" lon="13.0655185"><ele>543.5</ele><time>2026-04-19T09:33:25.016Z</time></trkpt><trkpt lat="43.1402526" lon="13.0653849"><ele>542.0</ele><time>2026-04-19T09:33:26.014Z</time></trkpt><trkpt lat="43.1401455" lon="13.065247"><ele>542.0</ele><time>2026-04-19T09:33:27.022Z</time></trkpt><trkpt lat="43.1400399" lon="13.0651094"><ele>542.0</ele><time>2026-04-19T09:33:28.018Z</time></trkpt><trkpt lat="43.1399494" lon="13.0649519"><ele>542.0</ele><time>2026-04-19T09:33:29.019Z</time></trkpt><trkpt lat="43.1398668" lon="13.0647745"><ele>542.0</ele><time>2026-04-19T09:33:30.015Z</time></trkpt><trkpt lat="43.1397887" lon="13.0645689"><ele>541.6666666666666</ele><time>2026-04-19T09:33:31.017Z</time></trkpt><trkpt lat="43.1397302" lon="13.0643616"><ele>541.3333333333334</ele><time>2026-04-19T09:33:32.01Z</time></trkpt><trkpt lat="43.1396843" lon="13.064148"><ele>541.0</ele><time>2026-04-19T09:33:33.016Z</time></trkpt><trkpt lat="43.1396301" lon="13.0639303"><ele>541.0</ele><time>2026-04-19T09:33:34.013Z</time></trkpt><trkpt lat="43.1395529" lon="13.0637333"><ele>541.0</ele><time>2026-04-19T09:33:35.024Z</time></trkpt><trkpt lat="43.1394392" lon="13.0635574"><ele>541.0</ele><time>2026-04-19T09:33:36.013Z</time></trkpt><trkpt lat="43.1393125" lon="13.0633787"><ele>542.3333333333334</ele><time>2026-04-19T09:33:37.021Z</time></trkpt><trkpt lat="43.1391914" lon="13.0632028"><ele>543.6666666666666</ele><time>2026-04-19T09:33:38.016Z</time></trkpt><trkpt lat="43.1390625" lon="13.063024"><ele>545.0</ele><time>2026-04-19T09:33:39.014Z</time></trkpt><trkpt lat="43.1389233" lon="13.062831"><ele>545.0</ele><time>2026-04-19T09:33:40.013Z</time></trkpt><trkpt lat="43.1387836" lon="13.0626293"><ele>545.0</ele><time>2026-04-19T09:33:41.015Z</time></trkpt><trkpt lat="43.138644" lon="13.062429"><ele>545.0</ele><time>2026-04-19T09:33:42.018Z</time></trkpt><trkpt lat="43.1384997" lon="13.0622281"><ele>543.6666666666666</ele><time>2026-04-19T09:33:43.011Z</time></trkpt><trkpt lat="43.1383664" lon="13.0620249"><ele>542.3333333333334</ele><time>2026-04-19T09:33:44.015Z</time></trkpt><trkpt lat="43.1382396" lon="13.0618366"><ele>541.0</ele><time>2026-04-19T09:33:45.014Z</time></trkpt><trkpt lat="43.1381092" lon="13.0616479"><ele>542.0</ele><time>2026-04-19T09:33:46.017Z</time></trkpt><trkpt lat="43.1379826" lon="13.061467"><ele>543.0</ele><time>2026-04-19T09:33:47.017Z</time></trkpt><trkpt lat="43.1378503" lon="13.0612954"><ele>544.0</ele><time>2026-04-19T09:33:48.017Z</time></trkpt><trkpt lat="43.1377315" lon="13.0611622"><ele>544.0</ele><time>2026-04-19T09:33:49.017Z</time></trkpt><trkpt lat="43.1375882" lon="13.0610724"><ele>544.0</ele><time>2026-04-19T09:33:50.014Z</time></trkpt><trkpt lat="43.1374318" lon="13.0609911"><ele>544.0</ele><time>2026-04-19T09:33:51.018Z</time></trkpt><trkpt lat="43.1372696" lon="13.0609358"><ele>546.3333333333334</ele><time>2026-04-19T09:33:52.016Z</time></trkpt><trkpt lat="43.1371026" lon="13.0608874"><ele>548.6666666666666</ele><time>2026-04-19T09:33:53.017Z</time></trkpt><trkpt lat="43.1369422" lon="13.0608381"><ele>551.0</ele><time>2026-04-19T09:33:54.018Z</time></trkpt><trkpt lat="43.1368005" lon="13.0607981"><ele>549.0</ele><time>2026-04-19T09:33:55.017Z</time></trkpt><trkpt lat="43.1366667" lon="13.0607458"><ele>547.0</ele><time>2026-04-19T09:33:56.015Z</time></trkpt><trkpt lat="43.1365288" lon="13.0606998"><ele>545.0</ele><time>2026-04-19T09:33:57.016Z</time></trkpt><trkpt lat="43.1363757" lon="13.0606648"><ele>543.0</ele><time>2026-04-19T09:33:58.013Z</time></trkpt><trkpt lat="43.136206" lon="13.0606409"><ele>543.3333333333334</ele><time>2026-04-19T09:33:59.025Z</time></trkpt><trkpt lat="43.1360267" lon="13.0606328"><ele>543.6666666666667</ele><time>2026-04-19T09:34:00.014Z</time></trkpt><trkpt lat="43.1358194" lon="13.0606369"><ele>544.0</ele><time>2026-04-19T09:34:01.017Z</time></trkpt><trkpt lat="43.1356077" lon="13.0606337"><ele>544.0</ele><time>2026-04-19T09:34:02.016Z</time></trkpt><trkpt lat="43.1353812" lon="13.0606412"><ele>544.0</ele><time>2026-04-19T09:34:03.014Z</time></trkpt><trkpt lat="43.135132" lon="13.0606454"><ele>546.5</ele><time>2026-04-19T09:34:04.013Z</time></trkpt><trkpt lat="43.1348666" lon="13.0606479"><ele>549.0</ele><time>2026-04-19T09:34:05.014Z</time></trkpt><trkpt lat="43.1345872" lon="13.0606464"><ele>549.0</ele><time>2026-04-19T09:34:06.029Z</time></trkpt><trkpt lat="43.1343312" lon="13.0606437"><ele>549.0</ele><time>2026-04-19T09:34:07.01Z</time></trkpt><trkpt lat="43.1340929" lon="13.0606196"><ele>554.5</ele><time>2026-04-19T09:34:08.015Z</time></trkpt><trkpt lat="43.1338613" lon="13.0605718"><ele>560.0</ele><time>2026-04-19T09:34:09.011Z</time></trkpt><trkpt lat="43.1336302" lon="13.0604965"><ele>560.0</ele><time>2026-04-19T09:34:10.015Z</time></trkpt><trkpt lat="43.1334177" lon="13.060375"><ele>560.0</ele><time>2026-04-19T09:34:11.008Z</time></trkpt><trkpt lat="43.1332237" lon="13.0602178"><ele>559.0</ele><time>2026-04-19T09:34:12.018Z</time></trkpt><trkpt lat="43.1330608" lon="13.0600308"><ele>558.0</ele><time>2026-04-19T09:34:13.012Z</time></trkpt><trkpt lat="43.1328971" lon="13.0598722"><ele>557.0</ele><time>2026-04-19T09:34:14.013Z</time></trkpt><trkpt lat="43.1327189" lon="13.0597334"><ele>557.0</ele><time>2026-04-19T09:34:15.009Z</time></trkpt><trkpt lat="43.1325422" lon="13.0596126"><ele>557.0</ele><time>2026-04-19T09:34:16.014Z</time></trkpt><trkpt lat="43.1323689" lon="13.0595106"><ele>557.0</ele><time>2026-04-19T09:34:17.008Z</time></trkpt><trkpt lat="43.1322095" lon="13.059442"><ele>558.0</ele><time>2026-04-19T09:34:18.016Z</time></trkpt><trkpt lat="43.1320417" lon="13.059419"><ele>559.0</ele><time>2026-04-19T09:34:19.013Z</time></trkpt><trkpt lat="43.1318557" lon="13.0594314"><ele>560.0</ele><time>2026-04-19T09:34:20.015Z</time></trkpt><trkpt lat="43.1316675" lon="13.0594376"><ele>557.3333333333333</ele><time>2026-04-19T09:34:21.011Z</time></trkpt><trkpt lat="43.131463" lon="13.0594426"><ele>554.6666666666666</ele><time>2026-04-19T09:34:22.014Z</time></trkpt><trkpt lat="43.1312519" lon="13.0594204"><ele>552.0</ele><time>2026-04-19T09:34:23.015Z</time></trkpt><trkpt lat="43.1310258" lon="13.0593805"><ele>552.0</ele><time>2026-04-19T09:34:24.014Z</time></trkpt><trkpt lat="43.1308045" lon="13.0593286"><ele>552.0</ele><time>2026-04-19T09:34:25.013Z</time></trkpt><trkpt lat="43.1306001" lon="13.0592553"><ele>552.0</ele><time>2026-04-19T09:34:26.004Z</time></trkpt><trkpt lat="43.1304102" lon="13.0591994"><ele>550.6666666666666</ele><time>2026-04-19T09:34:27.02Z</time></trkpt><trkpt lat="43.1302386" lon="13.0591878"><ele>549.3333333333333</ele><time>2026-04-19T09:34:28.018Z</time></trkpt><trkpt lat="43.130058" lon="13.0592454"><ele>548.0</ele><time>2026-04-19T09:34:29.019Z</time></trkpt><trkpt lat="43.1298781" lon="13.0593353"><ele>545.0</ele><time>2026-04-19T09:34:30.01Z</time></trkpt><trkpt lat="43.1297239" lon="13.0594215"><ele>542.0</ele><time>2026-04-19T09:34:31.006Z</time></trkpt><trkpt lat="43.1295846" lon="13.0594884"><ele>539.0</ele><time>2026-04-19T09:34:32.003Z</time></trkpt><trkpt lat="43.1294444" lon="13.0595283"><ele>539.0</ele><time>2026-04-19T09:34:33.008Z</time></trkpt><trkpt lat="43.1293206" lon="13.0595441"><ele>539.0</ele><time>2026-04-19T09:34:34.006Z</time></trkpt><trkpt lat="43.1292231" lon="13.0595501"><ele>539.0</ele><time>2026-04-19T09:34:35.008Z</time></trkpt><trkpt lat="43.1291336" lon="13.059558"><ele>539.0</ele><time>2026-04-19T09:34:36.011Z</time></trkpt><trkpt lat="43.1290624" lon="13.059542"><ele>539.0</ele><time>2026-04-19T09:34:37.016Z</time></trkpt><trkpt lat="43.128948" lon="13.0595184"><ele>537.4</ele><time>2026-04-19T09:34:39.006Z</time></trkpt><trkpt lat="43.128825" lon="13.0595365"><ele>535.8</ele><time>2026-04-19T09:34:41.005Z</time></trkpt><trkpt lat="43.1287618" lon="13.0595585"><ele>534.2</ele><time>2026-04-19T09:34:42.012Z</time></trkpt><trkpt lat="43.1287858" lon="13.0593986"><ele>532.6</ele><time>2026-04-19T09:34:44.013Z</time></trkpt><trkpt lat="43.1288824" lon="13.0592847"><ele>531.0</ele><time>2026-04-19T09:34:45.006Z</time></trkpt><trkpt lat="43.129012" lon="13.0591828"><ele>529.0</ele><time>2026-04-19T09:34:46.015Z</time></trkpt><trkpt lat="43.1291659" lon="13.0590811"><ele>527.0</ele><time>2026-04-19T09:34:47.005Z</time></trkpt><trkpt lat="43.1293538" lon="13.0589757"><ele>525.0</ele><time>2026-04-19T09:34:48.007Z</time></trkpt><trkpt lat="43.1295564" lon="13.0588455"><ele>525.0</ele><time>2026-04-19T09:34:49.008Z</time></trkpt><trkpt lat="43.1297543" lon="13.0586914"><ele>525.0</ele><time>2026-04-19T09:34:50.007Z</time></trkpt><trkpt lat="43.1299369" lon="13.0585201"><ele>525.0</ele><time>2026-04-19T09:34:51.005Z</time></trkpt><trkpt lat="43.130103" lon="13.0583474"><ele>524.0</ele><time>2026-04-19T09:34:52.011Z</time></trkpt><trkpt lat="43.1302498" lon="13.0581129"><ele>523.0</ele><time>2026-04-19T09:34:53.015Z</time></trkpt><trkpt lat="43.1303582" lon="13.0578728"><ele>522.0</ele><time>2026-04-19T09:34:54.014Z</time></trkpt><trkpt lat="43.1304419" lon="13.0576287"><ele>521.0</ele><time>2026-04-19T09:34:55.015Z</time></trkpt><trkpt lat="43.1304848" lon="13.0573786"><ele>520.0</ele><time>2026-04-19T09:34:56.017Z</time></trkpt><trkpt lat="43.1305048" lon="13.0571297"><ele>519.0</ele><time>2026-04-19T09:34:57.018Z</time></trkpt><trkpt lat="43.1304754" lon="13.056907"><ele>519.0</ele><time>2026-04-19T09:34:58.014Z</time></trkpt><trkpt lat="43.1304002" lon="13.0566824"><ele>519.0</ele><time>2026-04-19T09:34:59.022Z</time></trkpt><trkpt lat="43.1302894" lon="13.056484"><ele>519.0</ele><time>2026-04-19T09:35:00.006Z</time></trkpt><trkpt lat="43.1301741" lon="13.056279"><ele>519.6666666666666</ele><time>2026-04-19T09:35:01.009Z</time></trkpt><trkpt lat="43.1300521" lon="13.0560796"><ele>520.3333333333333</ele><time>2026-04-19T09:35:02.015Z</time></trkpt><trkpt lat="43.129922" lon="13.0558922"><ele>521.0</ele><time>2026-04-19T09:35:03.005Z</time></trkpt><trkpt lat="43.1297861" lon="13.0557262"><ele>516.6666666666666</ele><time>2026-04-19T09:35:04.023Z</time></trkpt><trkpt lat="43.1296418" lon="13.0555766"><ele>512.3333333333334</ele><time>2026-04-19T09:35:05.023Z</time></trkpt><trkpt lat="43.1295044" lon="13.0554564"><ele>508.0</ele><time>2026-04-19T09:35:06.02Z</time></trkpt><trkpt lat="43.1293989" lon="13.0553236"><ele>508.0</ele><time>2026-04-19T09:35:07.022Z</time></trkpt><trkpt lat="43.1293512" lon="13.0551373"><ele>508.0</ele><time>2026-04-19T09:35:08.039Z</time></trkpt><trkpt lat="43.129334" lon="13.0548961"><ele>508.0</ele><time>2026-04-19T09:35:09.019Z</time></trkpt><trkpt lat="43.1293396" lon="13.0546289"><ele>506.6666666666667</ele><time>2026-04-19T09:35:10.015Z</time></trkpt><trkpt lat="43.1293383" lon="13.0543904"><ele>505.33333333333337</ele><time>2026-04-19T09:35:11.015Z</time></trkpt><trkpt lat="43.1293344" lon="13.0541762"><ele>504.0</ele><time>2026-04-19T09:35:12.014Z</time></trkpt><trkpt lat="43.1293257" lon="13.0539787"><ele>504.0</ele><time>2026-04-19T09:35:13.016Z</time></trkpt><trkpt lat="43.1293126" lon="13.0537926"><ele>504.0</ele><time>2026-04-19T09:35:14.019Z</time></trkpt><trkpt lat="43.1292908" lon="13.0536191"><ele>504.0</ele><time>2026-04-19T09:35:15.021Z</time></trkpt><trkpt lat="43.1292507" lon="13.0534575"><ele>504.0</ele><time>2026-04-19T09:35:16.027Z</time></trkpt><trkpt lat="43.1291874" lon="13.0532982"><ele>504.5</ele><time>2026-04-19T09:35:17.017Z</time></trkpt><trkpt lat="43.1291217" lon="13.0531611"><ele>505.0</ele><time>2026-04-19T09:35:18.018Z</time></trkpt><trkpt lat="43.1290563" lon="13.0530341"><ele>505.5</ele><time>2026-04-19T09:35:19.014Z</time></trkpt><trkpt lat="43.1289818" lon="13.0529139"><ele>506.0</ele><time>2026-04-19T09:35:20.018Z</time></trkpt><trkpt lat="43.1289071" lon="13.0528139"><ele>506.0</ele><time>2026-04-19T09:35:21.025Z</time></trkpt><trkpt lat="43.1288158" lon="13.052741"><ele>506.0</ele><time>2026-04-19T09:35:22.026Z</time></trkpt><trkpt lat="43.1287221" lon="13.052698"><ele>506.0</ele><time>2026-04-19T09:35:23.026Z</time></trkpt><trkpt lat="43.1286181" lon="13.052693"><ele>506.0</ele><time>2026-04-19T09:35:24.029Z</time></trkpt><trkpt lat="43.1285089" lon="13.0527299"><ele>506.0</ele><time>2026-04-19T09:35:25.028Z</time></trkpt><trkpt lat="43.1284109" lon="13.0528093"><ele>506.0</ele><time>2026-04-19T09:35:26.022Z</time></trkpt><trkpt lat="43.1283411" lon="13.0529393"><ele>506.0</ele><time>2026-04-19T09:35:27.022Z</time></trkpt><trkpt lat="43.1282897" lon="13.0531073"><ele>506.0</ele><time>2026-04-19T09:35:28.017Z</time></trkpt><trkpt lat="43.1282756" lon="13.0533149"><ele>506.0</ele><time>2026-04-19T09:35:29.028Z</time></trkpt><trkpt lat="43.1282618" lon="13.0535359"><ele>503.0</ele><time>2026-04-19T09:35:30.014Z</time></trkpt><trkpt lat="43.1282567" lon="13.0537773"><ele>500.0</ele><time>2026-04-19T09:35:31.023Z</time></trkpt><trkpt lat="43.1282878" lon="13.0540225"><ele>497.0</ele><time>2026-04-19T09:35:32.02Z</time></trkpt><trkpt lat="43.1283254" lon="13.0542657"><ele>495.66666666666663</ele><time>2026-04-19T09:35:33.021Z</time></trkpt><trkpt lat="43.1283873" lon="13.0544949"><ele>494.33333333333337</ele><time>2026-04-19T09:35:34.016Z</time></trkpt><trkpt lat="43.1284193" lon="13.054721"><ele>493.0</ele><time>2026-04-19T09:35:35.024Z</time></trkpt><trkpt lat="43.1284027" lon="13.0549298"><ele>493.33333333333337</ele><time>2026-04-19T09:35:36.025Z</time></trkpt><trkpt lat="43.128317" lon="13.0551038"><ele>493.66666666666663</ele><time>2026-04-19T09:35:37.021Z</time></trkpt><trkpt lat="43.1281698" lon="13.0552413"><ele>494.0</ele><time>2026-04-19T09:35:38.022Z</time></trkpt><trkpt lat="43.1280084" lon="13.0553566"><ele>490.66666666666663</ele><time>2026-04-19T09:35:39.03Z</time></trkpt><trkpt lat="43.1278561" lon="13.0554909"><ele>487.33333333333337</ele><time>2026-04-19T09:35:40.015Z</time></trkpt><trkpt lat="43.1277009" lon="13.055651"><ele>484.0</ele><time>2026-04-19T09:35:41.013Z</time></trkpt><trkpt lat="43.1275546" lon="13.0558295"><ele>484.0</ele><time>2026-04-19T09:35:42.021Z</time></trkpt><trkpt lat="43.1274288" lon="13.0560288"><ele>484.0</ele><time>2026-04-19T09:35:43.017Z</time></trkpt><trkpt lat="43.1273095" lon="13.0562218"><ele>484.0</ele><time>2026-04-19T09:35:44.022Z</time></trkpt><trkpt lat="43.127191" lon="13.056405"><ele>482.0</ele><time>2026-04-19T09:35:45.018Z</time></trkpt><trkpt lat="43.1270715" lon="13.0565756"><ele>480.0</ele><time>2026-04-19T09:35:46.016Z</time></trkpt><trkpt lat="43.1269515" lon="13.0567187"><ele>478.0</ele><time>2026-04-19T09:35:47.017Z</time></trkpt><trkpt lat="43.1268058" lon="13.0568051"><ele>478.0</ele><time>2026-04-19T09:35:48.02Z</time></trkpt><trkpt lat="43.126637" lon="13.0568358"><ele>478.0</ele><time>2026-04-19T09:35:49.02Z</time></trkpt><trkpt lat="43.1264809" lon="13.0568259"><ele>478.0</ele><time>2026-04-19T09:35:50.018Z</time></trkpt><trkpt lat="43.1263452" lon="13.0568567"><ele>475.6666666666667</ele><time>2026-04-19T09:35:51.021Z</time></trkpt><trkpt lat="43.1262288" lon="13.0569527"><ele>473.33333333333337</ele><time>2026-04-19T09:35:52.019Z</time></trkpt><trkpt lat="43.1261118" lon="13.0570897"><ele>471.0</ele><time>2026-04-19T09:35:53.014Z</time></trkpt><trkpt lat="43.1259988" lon="13.0572595"><ele>471.0</ele><time>2026-04-19T09:35:54.019Z</time></trkpt><trkpt lat="43.125894" lon="13.0574475"><ele>471.0</ele><time>2026-04-19T09:35:55.018Z</time></trkpt><trkpt lat="43.1257934" lon="13.0576313"><ele>471.0</ele><time>2026-04-19T09:35:56.016Z</time></trkpt><trkpt lat="43.1256932" lon="13.0577939"><ele>468.33333333333337</ele><time>2026-04-19T09:35:57.021Z</time></trkpt><trkpt lat="43.1255913" lon="13.0579375"><ele>465.6666666666667</ele><time>2026-04-19T09:35:58.015Z</time></trkpt><trkpt lat="43.1254784" lon="13.0580688"><ele>463.0</ele><time>2026-04-19T09:35:59.023Z</time></trkpt><trkpt lat="43.1253359" lon="13.0581614"><ele>463.0</ele><time>2026-04-19T09:36:00.012Z</time></trkpt><trkpt lat="43.1251807" lon="13.0582463"><ele>463.0</ele><time>2026-04-19T09:36:01.013Z</time></trkpt><trkpt lat="43.1250262" lon="13.0583453"><ele>463.0</ele><time>2026-04-19T09:36:02.012Z</time></trkpt><trkpt lat="43.1248809" lon="13.0584693"><ele>461.0</ele><time>2026-04-19T09:36:03.006Z</time></trkpt><trkpt lat="43.1247427" lon="13.0586221"><ele>459.0</ele><time>2026-04-19T09:36:04.012Z</time></trkpt><trkpt lat="43.1246212" lon="13.0587821"><ele>457.0</ele><time>2026-04-19T09:36:05.009Z</time></trkpt><trkpt lat="43.1245036" lon="13.058931"><ele>457.0</ele><time>2026-04-19T09:36:06.013Z</time></trkpt><trkpt lat="43.1243854" lon="13.059079"><ele>457.0</ele><time>2026-04-19T09:36:07.013Z</time></trkpt><trkpt lat="43.1242667" lon="13.0591963"><ele>457.0</ele><time>2026-04-19T09:36:08.011Z</time></trkpt><trkpt lat="43.1241337" lon="13.059285"><ele>456.5</ele><time>2026-04-19T09:36:09.015Z</time></trkpt><trkpt lat="43.1239967" lon="13.0593408"><ele>456.0</ele><time>2026-04-19T09:36:10.025Z</time></trkpt><trkpt lat="43.1238608" lon="13.0593938"><ele>455.5</ele><time>2026-04-19T09:36:11.014Z</time></trkpt><trkpt lat="43.1237292" lon="13.0594334"><ele>455.0</ele><time>2026-04-19T09:36:12.019Z</time></trkpt><trkpt lat="43.1235993" lon="13.0594723"><ele>455.0</ele><time>2026-04-19T09:36:13.018Z</time></trkpt><trkpt lat="43.1234751" lon="13.0595131"><ele>455.0</ele><time>2026-04-19T09:36:14.019Z</time></trkpt><trkpt lat="43.1233475" lon="13.0595409"><ele>455.0</ele><time>2026-04-19T09:36:15.018Z</time></trkpt><trkpt lat="43.1232162" lon="13.0595546"><ele>455.0</ele><time>2026-04-19T09:36:16.018Z</time></trkpt><trkpt lat="43.1230923" lon="13.0595429"><ele>453.5</ele><time>2026-04-19T09:36:17.019Z</time></trkpt><trkpt lat="43.1229662" lon="13.0595103"><ele>452.0</ele><time>2026-04-19T09:36:18.019Z</time></trkpt><trkpt lat="43.1228392" lon="13.0594593"><ele>450.5</ele><time>2026-04-19T09:36:19.02Z</time></trkpt><trkpt lat="43.1227112" lon="13.0594068"><ele>449.0</ele><time>2026-04-19T09:36:20.024Z</time></trkpt><trkpt lat="43.1225819" lon="13.0593582"><ele>449.0</ele><time>2026-04-19T09:36:21.02Z</time></trkpt><trkpt lat="43.1224533" lon="13.0593109"><ele>449.0</ele><time>2026-04-19T09:36:22.02Z</time></trkpt><trkpt lat="43.1223173" lon="13.0592592"><ele>449.0</ele><time>2026-04-19T09:36:23.013Z</time></trkpt><trkpt lat="43.1221797" lon="13.0592013"><ele>449.0</ele><time>2026-04-19T09:36:24.012Z</time></trkpt><trkpt lat="43.1220358" lon="13.0591479"><ele>450.5</ele><time>2026-04-19T09:36:25.023Z</time></trkpt><trkpt lat="43.121905" lon="13.0590655"><ele>452.0</ele><time>2026-04-19T09:36:26.016Z</time></trkpt><trkpt lat="43.1217771" lon="13.0589772"><ele>453.5</ele><time>2026-04-19T09:36:27.032Z</time></trkpt><trkpt lat="43.1216803" lon="13.0588234"><ele>455.0</ele><time>2026-04-19T09:36:28.025Z</time></trkpt><trkpt lat="43.1216003" lon="13.0586645"><ele>456.3333333333333</ele><time>2026-04-19T09:36:29.02Z</time></trkpt><trkpt lat="43.1215304" lon="13.0584748"><ele>457.66666666666663</ele><time>2026-04-19T09:36:30.019Z</time></trkpt><trkpt lat="43.1214668" lon="13.0582892"><ele>459.0</ele><time>2026-04-19T09:36:31.022Z</time></trkpt><trkpt lat="43.1213993" lon="13.0580947"><ele>459.0</ele><time>2026-04-19T09:36:32.017Z</time></trkpt><trkpt lat="43.1213103" lon="13.0579302"><ele>459.0</ele><time>2026-04-19T09:36:33.018Z</time></trkpt><trkpt lat="43.1212052" lon="13.0577844"><ele>459.0</ele><time>2026-04-19T09:36:34.024Z</time></trkpt><trkpt lat="43.1210681" lon="13.0576625"><ele>459.0</ele><time>2026-04-19T09:36:35.027Z</time></trkpt><trkpt lat="43.1208698" lon="13.0575471"><ele>459.0</ele><time>2026-04-19T09:36:36.021Z</time></trkpt><trkpt lat="43.1206569" lon="13.0574189"><ele>459.0</ele><time>2026-04-19T09:36:37.021Z</time></trkpt><trkpt lat="43.1204349" lon="13.0572505"><ele>460.5</ele><time>2026-04-19T09:36:38.017Z</time></trkpt><trkpt lat="43.1202242" lon="13.0570842"><ele>462.0</ele><time>2026-04-19T09:36:39.011Z</time></trkpt><trkpt lat="43.1200074" lon="13.0569083"><ele>464.0</ele><time>2026-04-19T09:36:40.015Z</time></trkpt><trkpt lat="43.1197731" lon="13.0567413"><ele>466.0</ele><time>2026-04-19T09:36:41.024Z</time></trkpt><trkpt lat="43.119531" lon="13.056546"><ele>466.0</ele><time>2026-04-19T09:36:42.015Z</time></trkpt><trkpt lat="43.1192995" lon="13.056356"><ele>466.0</ele><time>2026-04-19T09:36:43.014Z</time></trkpt><trkpt lat="43.1190849" lon="13.0561669"><ele>468.5</ele><time>2026-04-19T09:36:44.015Z</time></trkpt><trkpt lat="43.1188707" lon="13.0559733"><ele>471.0</ele><time>2026-04-19T09:36:45.018Z</time></trkpt><trkpt lat="43.1186609" lon="13.0557947"><ele>471.0</ele><time>2026-04-19T09:36:46.022Z</time></trkpt><trkpt lat="43.1184528" lon="13.0556554"><ele>471.0</ele><time>2026-04-19T09:36:47.022Z</time></trkpt><trkpt lat="43.1182243" lon="13.0555613"><ele>471.0</ele><time>2026-04-19T09:36:48.022Z</time></trkpt><trkpt lat="43.1179789" lon="13.0555105"><ele>471.0</ele><time>2026-04-19T09:36:49.02Z</time></trkpt><trkpt lat="43.1177077" lon="13.0554862"><ele>471.0</ele><time>2026-04-19T09:36:50.018Z</time></trkpt><trkpt lat="43.1174359" lon="13.0554731"><ele>471.0</ele><time>2026-04-19T09:36:51.018Z</time></trkpt><trkpt lat="43.1171639" lon="13.0554631"><ele>472.0</ele><time>2026-04-19T09:36:52.013Z</time></trkpt><trkpt lat="43.1168975" lon="13.055452"><ele>473.0</ele><time>2026-04-19T09:36:53.01Z</time></trkpt><trkpt lat="43.1166224" lon="13.0554408"><ele>477.0</ele><time>2026-04-19T09:36:54.015Z</time></trkpt><trkpt lat="43.1163439" lon="13.0554"><ele>481.0</ele><time>2026-04-19T09:36:55.022Z</time></trkpt><trkpt lat="43.1160577" lon="13.0553221"><ele>481.0</ele><time>2026-04-19T09:36:56.018Z</time></trkpt><trkpt lat="43.1157924" lon="13.0552066"><ele>481.0</ele><time>2026-04-19T09:36:57.021Z</time></trkpt><trkpt lat="43.1155313" lon="13.0550709"><ele>481.5</ele><time>2026-04-19T09:36:58.017Z</time></trkpt><trkpt lat="43.1152793" lon="13.054943"><ele>482.0</ele><time>2026-04-19T09:36:59.023Z</time></trkpt><trkpt lat="43.1150351" lon="13.0548147"><ele>487.0</ele><time>2026-04-19T09:37:00.017Z</time></trkpt><trkpt lat="43.1148041" lon="13.0546663"><ele>492.0</ele><time>2026-04-19T09:37:01.017Z</time></trkpt><trkpt lat="43.1145946" lon="13.0544763"><ele>492.0</ele><time>2026-04-19T09:37:02.021Z</time></trkpt><trkpt lat="43.1144165" lon="13.0542342"><ele>492.0</ele><time>2026-04-19T09:37:03.017Z</time></trkpt><trkpt lat="43.1142628" lon="13.0539645"><ele>491.0</ele><time>2026-04-19T09:37:04.019Z</time></trkpt><trkpt lat="43.1141512" lon="13.0536568"><ele>490.0</ele><time>2026-04-19T09:37:05.013Z</time></trkpt><trkpt lat="43.1140397" lon="13.0533687"><ele>492.0</ele><time>2026-04-19T09:37:06.017Z</time></trkpt><trkpt lat="43.1139244" lon="13.0531075"><ele>494.0</ele><time>2026-04-19T09:37:07.018Z</time></trkpt><trkpt lat="43.1138116" lon="13.0528748"><ele>496.0</ele><time>2026-04-19T09:37:08.014Z</time></trkpt><trkpt lat="43.1136866" lon="13.0526877"><ele>496.0</ele><time>2026-04-19T09:37:09.021Z</time></trkpt><trkpt lat="43.1135085" lon="13.0525572"><ele>496.0</ele><time>2026-04-19T09:37:10.022Z</time></trkpt><trkpt lat="43.1132939" lon="13.0524835"><ele>496.0</ele><time>2026-04-19T09:37:11.021Z</time></trkpt><trkpt lat="43.1130545" lon="13.0524201"><ele>495.5</ele><time>2026-04-19T09:37:12.03Z</time></trkpt><trkpt lat="43.1128009" lon="13.0523405"><ele>495.0</ele><time>2026-04-19T09:37:13.015Z</time></trkpt><trkpt lat="43.1125461" lon="13.0522147"><ele>501.0</ele><time>2026-04-19T09:37:14.014Z</time></trkpt><trkpt lat="43.1122862" lon="13.0520589"><ele>507.0</ele><time>2026-04-19T09:37:15.017Z</time></trkpt><trkpt lat="43.1120299" lon="13.0518818"><ele>507.0</ele><time>2026-04-19T09:37:16.021Z</time></trkpt><trkpt lat="43.1117725" lon="13.0517035"><ele>507.0</ele><time>2026-04-19T09:37:17.017Z</time></trkpt><trkpt lat="43.1115071" lon="13.0515352"><ele>507.0</ele><time>2026-04-19T09:37:18.013Z</time></trkpt><trkpt lat="43.1112505" lon="13.0513915"><ele>507.0</ele><time>2026-04-19T09:37:19.017Z</time></trkpt><trkpt lat="43.1110006" lon="13.0512877"><ele>507.0</ele><time>2026-04-19T09:37:20.013Z</time></trkpt><trkpt lat="43.1107554" lon="13.0512157"><ele>507.0</ele><time>2026-04-19T09:37:21.023Z</time></trkpt><trkpt lat="43.1105362" lon="13.0511343"><ele>509.66666666666663</ele><time>2026-04-19T09:37:22.011Z</time></trkpt><trkpt lat="43.1103491" lon="13.0510678"><ele>512.3333333333333</ele><time>2026-04-19T09:37:23.017Z</time></trkpt><trkpt lat="43.1101569" lon="13.0509868"><ele>515.0</ele><time>2026-04-19T09:37:24.018Z</time></trkpt><trkpt lat="43.1099762" lon="13.0509091"><ele>515.0</ele><time>2026-04-19T09:37:25.018Z</time></trkpt><trkpt lat="43.1097813" lon="13.0508279"><ele>515.0</ele><time>2026-04-19T09:37:26.015Z</time></trkpt><trkpt lat="43.1095882" lon="13.0507436"><ele>515.0</ele><time>2026-04-19T09:37:27.019Z</time></trkpt><trkpt lat="43.1093923" lon="13.0506716"><ele>515.0</ele><time>2026-04-19T09:37:28.021Z</time></trkpt><trkpt lat="43.1091924" lon="13.0505948"><ele>515.0</ele><time>2026-04-19T09:37:29.023Z</time></trkpt><trkpt lat="43.1090017" lon="13.0505312"><ele>515.0</ele><time>2026-04-19T09:37:30.017Z</time></trkpt><trkpt lat="43.1088139" lon="13.0504734"><ele>517.0</ele><time>2026-04-19T09:37:31.019Z</time></trkpt><trkpt lat="43.1086372" lon="13.0504325"><ele>519.0</ele><time>2026-04-19T09:37:32.014Z</time></trkpt><trkpt lat="43.1084721" lon="13.0504033"><ele>521.0</ele><time>2026-04-19T09:37:33.02Z</time></trkpt><trkpt lat="43.1083033" lon="13.0504004"><ele>523.0</ele><time>2026-04-19T09:37:34.013Z</time></trkpt><trkpt lat="43.1081563" lon="13.0503845"><ele>525.0</ele><time>2026-04-19T09:37:35.018Z</time></trkpt><trkpt lat="43.1080071" lon="13.0503494"><ele>527.0</ele><time>2026-04-19T09:37:36.023Z</time></trkpt><trkpt lat="43.1078565" lon="13.0502702"><ele>527.0</ele><time>2026-04-19T09:37:37.01Z</time></trkpt><trkpt lat="43.1077439" lon="13.0501334"><ele>527.0</ele><time>2026-04-19T09:37:38.023Z</time></trkpt><trkpt lat="43.1076507" lon="13.0499697"><ele>527.0</ele><time>2026-04-19T09:37:39.012Z</time></trkpt><trkpt lat="43.1075585" lon="13.0497952"><ele>529.0</ele><time>2026-04-19T09:37:40.013Z</time></trkpt><trkpt lat="43.1074732" lon="13.0496247"><ele>531.0</ele><time>2026-04-19T09:37:41.015Z</time></trkpt><trkpt lat="43.107371" lon="13.0494809"><ele>533.0</ele><time>2026-04-19T09:37:42.02Z</time></trkpt><trkpt lat="43.107241" lon="13.0493466"><ele>533.0</ele><time>2026-04-19T09:37:43.035Z</time></trkpt><trkpt lat="43.1070985" lon="13.0492345"><ele>533.0</ele><time>2026-04-19T09:37:44.019Z</time></trkpt><trkpt lat="43.1069396" lon="13.0491338"><ele>533.0</ele><time>2026-04-19T09:37:45.025Z</time></trkpt><trkpt lat="43.1067597" lon="13.0490791"><ele>529.0</ele><time>2026-04-19T09:37:46.028Z</time></trkpt><trkpt lat="43.1065431" lon="13.0490607"><ele>525.0</ele><time>2026-04-19T09:37:47.026Z</time></trkpt><trkpt lat="43.1063094" lon="13.0490558"><ele>525.0</ele><time>2026-04-19T09:37:48.02Z</time></trkpt><trkpt lat="43.1060731" lon="13.0490516"><ele>525.0</ele><time>2026-04-19T09:37:49.021Z</time></trkpt><trkpt lat="43.1058094" lon="13.049046"><ele>530.0</ele><time>2026-04-19T09:37:50.019Z</time></trkpt><trkpt lat="43.1055331" lon="13.0490289"><ele>535.0</ele><time>2026-04-19T09:37:51.02Z</time></trkpt><trkpt lat="43.105263" lon="13.0489809"><ele>535.0</ele><time>2026-04-19T09:37:52.021Z</time></trkpt><trkpt lat="43.1049895" lon="13.048873"><ele>535.0</ele><time>2026-04-19T09:37:53.013Z</time></trkpt><trkpt lat="43.104755" lon="13.0487378"><ele>538.0</ele><time>2026-04-19T09:37:54.016Z</time></trkpt><trkpt lat="43.1045582" lon="13.0486128"><ele>541.0</ele><time>2026-04-19T09:37:55.012Z</time></trkpt><trkpt lat="43.1043645" lon="13.048509"><ele>544.0</ele><time>2026-04-19T09:37:56.015Z</time></trkpt><trkpt lat="43.1041728" lon="13.0484432"><ele>544.6666666666667</ele><time>2026-04-19T09:37:57.021Z</time></trkpt><trkpt lat="43.1039833" lon="13.0484385"><ele>545.3333333333334</ele><time>2026-04-19T09:37:58.02Z</time></trkpt><trkpt lat="43.1037934" lon="13.0484512"><ele>546.0</ele><time>2026-04-19T09:37:59.021Z</time></trkpt><trkpt lat="43.1036099" lon="13.0484506"><ele>546.0</ele><time>2026-04-19T09:38:00.013Z</time></trkpt><trkpt lat="43.1034193" lon="13.0484205"><ele>546.0</ele><time>2026-04-19T09:38:01.013Z</time></trkpt><trkpt lat="43.1032096" lon="13.0483646"><ele>546.0</ele><time>2026-04-19T09:38:02.014Z</time></trkpt><trkpt lat="43.103012" lon="13.0482727"><ele>547.6666666666666</ele><time>2026-04-19T09:38:03.015Z</time></trkpt><trkpt lat="43.1028156" lon="13.0481562"><ele>549.3333333333333</ele><time>2026-04-19T09:38:04.016Z</time></trkpt><trkpt lat="43.102626" lon="13.0480432"><ele>551.0</ele><time>2026-04-19T09:38:05.016Z</time></trkpt><trkpt lat="43.1024241" lon="13.0479665"><ele>556.3333333333333</ele><time>2026-04-19T09:38:06.021Z</time></trkpt><trkpt lat="43.102232" lon="13.0479751"><ele>561.6666666666666</ele><time>2026-04-19T09:38:07.019Z</time></trkpt><trkpt lat="43.1020403" lon="13.0480114"><ele>567.0</ele><time>2026-04-19T09:38:08.022Z</time></trkpt><trkpt lat="43.1018344" lon="13.0480829"><ele>567.0</ele><time>2026-04-19T09:38:09.017Z</time></trkpt><trkpt lat="43.1016268" lon="13.0481641"><ele>567.0</ele><time>2026-04-19T09:38:10.015Z</time></trkpt><trkpt lat="43.1014092" lon="13.0482528"><ele>567.0</ele><time>2026-04-19T09:38:11.012Z</time></trkpt><trkpt lat="43.1012048" lon="13.0483336"><ele>564.3333333333334</ele><time>2026-04-19T09:38:12.015Z</time></trkpt><trkpt lat="43.1010017" lon="13.0483923"><ele>561.6666666666667</ele><time>2026-04-19T09:38:13.01Z</time></trkpt><trkpt lat="43.1008177" lon="13.048372"><ele>559.0</ele><time>2026-04-19T09:38:14.03Z</time></trkpt><trkpt lat="43.1006606" lon="13.0482961"><ele>559.6666666666667</ele><time>2026-04-19T09:38:15.018Z</time></trkpt><trkpt lat="43.1005097" lon="13.0481498"><ele>560.3333333333334</ele><time>2026-04-19T09:38:16.018Z</time></trkpt><trkpt lat="43.1003697" lon="13.0480385"><ele>561.0</ele><time>2026-04-19T09:38:17.019Z</time></trkpt><trkpt lat="43.1002437" lon="13.0479547"><ele>561.0</ele><time>2026-04-19T09:38:18.018Z</time></trkpt><trkpt lat="43.1001308" lon="13.0478796"><ele>561.0</ele><time>2026-04-19T09:38:19.017Z</time></trkpt><trkpt lat="43.1000276" lon="13.0478157"><ele>561.0</ele><time>2026-04-19T09:38:20.03Z</time></trkpt><trkpt lat="43.0999561" lon="13.0477535"><ele>561.0</ele><time>2026-04-19T09:38:21.019Z</time></trkpt><trkpt lat="43.0998982" lon="13.0477151"><ele>561.0</ele><time>2026-04-19T09:38:22.022Z</time></trkpt><trkpt lat="43.0998053" lon="13.0476725"><ele>561.6</ele><time>2026-04-19T09:38:24.021Z</time></trkpt><trkpt lat="43.0997447" lon="13.0476347"><ele>562.2</ele><time>2026-04-19T09:38:27.03Z</time></trkpt><trkpt lat="43.0996464" lon="13.0475789"><ele>562.8</ele><time>2026-04-19T09:40:40.039Z</time></trkpt><trkpt lat="43.0995572" lon="13.0475284"><ele>563.4</ele><time>2026-04-19T09:40:41.03Z</time></trkpt><trkpt lat="43.0994357" lon="13.047444"><ele>564.0</ele><time>2026-04-19T09:40:42.024Z</time></trkpt><trkpt lat="43.0992982" lon="13.0473543"><ele>564.0</ele><time>2026-04-19T09:40:43.025Z</time></trkpt><trkpt lat="43.0991577" lon="13.04727"><ele>564.0</ele><time>2026-04-19T09:40:44.02Z</time></trkpt><trkpt lat="43.0989961" lon="13.047222"><ele>564.0</ele><time>2026-04-19T09:40:45.021Z</time></trkpt><trkpt lat="43.0988094" lon="13.0472076"><ele>562.3333333333334</ele><time>2026-04-19T09:40:46.018Z</time></trkpt><trkpt lat="43.0986094" lon="13.0472285"><ele>560.6666666666667</ele><time>2026-04-19T09:40:47.017Z</time></trkpt><trkpt lat="43.0983927" lon="13.0472679"><ele>559.0</ele><time>2026-04-19T09:40:48.013Z</time></trkpt><trkpt lat="43.0981893" lon="13.0473195"><ele>558.3333333333334</ele><time>2026-04-19T09:40:49.04Z</time></trkpt><trkpt lat="43.0979935" lon="13.0473557"><ele>557.6666666666666</ele><time>2026-04-19T09:40:50.022Z</time></trkpt><trkpt lat="43.097807" lon="13.0473928"><ele>557.0</ele><time>2026-04-19T09:40:51.018Z</time></trkpt><trkpt lat="43.0976234" lon="13.0474343"><ele>551.3333333333333</ele><time>2026-04-19T09:40:52.021Z</time></trkpt><trkpt lat="43.0974405" lon="13.0474731"><ele>545.6666666666666</ele><time>2026-04-19T09:40:53.022Z</time></trkpt><trkpt lat="43.0972578" lon="13.0475072"><ele>540.0</ele><time>2026-04-19T09:40:54.018Z</time></trkpt><trkpt lat="43.0970772" lon="13.0475335"><ele>539.6666666666666</ele><time>2026-04-19T09:40:55.026Z</time></trkpt><trkpt lat="43.096906" lon="13.0475678"><ele>539.3333333333333</ele><time>2026-04-19T09:40:56.025Z</time></trkpt><trkpt lat="43.0967425" lon="13.0475995"><ele>539.0</ele><time>2026-04-19T09:40:57.027Z</time></trkpt><trkpt lat="43.0965846" lon="13.0476485"><ele>540.0</ele><time>2026-04-19T09:40:58.027Z</time></trkpt><trkpt lat="43.0964217" lon="13.0477268"><ele>541.0</ele><time>2026-04-19T09:40:59.032Z</time></trkpt><trkpt lat="43.0962624" lon="13.0478455"><ele>542.0</ele><time>2026-04-19T09:41:00.028Z</time></trkpt><trkpt lat="43.0961148" lon="13.0480076"><ele>542.0</ele><time>2026-04-19T09:41:01.022Z</time></trkpt><trkpt lat="43.0959787" lon="13.048179"><ele>542.0</ele><time>2026-04-19T09:41:02.02Z</time></trkpt><trkpt lat="43.0958565" lon="13.0483695"><ele>542.0</ele><time>2026-04-19T09:41:03.024Z</time></trkpt><trkpt lat="43.0957281" lon="13.0485563"><ele>537.6666666666666</ele><time>2026-04-19T09:41:04.024Z</time></trkpt><trkpt lat="43.0956045" lon="13.0487288"><ele>533.3333333333334</ele><time>2026-04-19T09:41:05.026Z</time></trkpt><trkpt lat="43.0954734" lon="13.0488919"><ele>529.0</ele><time>2026-04-19T09:41:06.028Z</time></trkpt><trkpt lat="43.0953287" lon="13.0490059"><ele>529.0</ele><time>2026-04-19T09:41:07.031Z</time></trkpt><trkpt lat="43.0951595" lon="13.04906"><ele>529.0</ele><time>2026-04-19T09:41:08.03Z</time></trkpt><trkpt lat="43.0949544" lon="13.0490368"><ele>529.0</ele><time>2026-04-19T09:41:09.03Z</time></trkpt><trkpt lat="43.0947373" lon="13.0489806"><ele>528.3333333333334</ele><time>2026-04-19T09:41:10.029Z</time></trkpt><trkpt lat="43.0945204" lon="13.0489338"><ele>527.6666666666666</ele><time>2026-04-19T09:41:11.026Z</time></trkpt><trkpt lat="43.0943065" lon="13.0489402"><ele>527.0</ele><time>2026-04-19T09:41:12.032Z</time></trkpt><trkpt lat="43.0940994" lon="13.0489984"><ele>527.0</ele><time>2026-04-19T09:41:13.027Z</time></trkpt><trkpt lat="43.0938937" lon="13.0491105"><ele>527.0</ele><time>2026-04-19T09:41:14.027Z</time></trkpt><trkpt lat="43.0936917" lon="13.0492322"><ele>527.0</ele><time>2026-04-19T09:41:15.025Z</time></trkpt><trkpt lat="43.0934763" lon="13.0493498"><ele>521.0</ele><time>2026-04-19T09:41:16.029Z</time></trkpt><trkpt lat="43.093246" lon="13.0494295"><ele>515.0</ele><time>2026-04-19T09:41:17.029Z</time></trkpt><trkpt lat="43.0929995" lon="13.0494521"><ele>515.0</ele><time>2026-04-19T09:41:18.022Z</time></trkpt><trkpt lat="43.0927325" lon="13.0494394"><ele>515.0</ele><time>2026-04-19T09:41:19.03Z</time></trkpt><trkpt lat="43.0924595" lon="13.04941"><ele>512.0</ele><time>2026-04-19T09:41:20.023Z</time></trkpt><trkpt lat="43.0921777" lon="13.0493849"><ele>509.0</ele><time>2026-04-19T09:41:21.025Z</time></trkpt><trkpt lat="43.0918832" lon="13.0493411"><ele>506.0</ele><time>2026-04-19T09:41:22.025Z</time></trkpt><trkpt lat="43.0915869" lon="13.0492954"><ele>503.0</ele><time>2026-04-19T09:41:23.029Z</time></trkpt><trkpt lat="43.091289" lon="13.0492078"><ele>506.0</ele><time>2026-04-19T09:41:24.024Z</time></trkpt><trkpt lat="43.0909981" lon="13.0491095"><ele>509.0</ele><time>2026-04-19T09:41:25.028Z</time></trkpt><trkpt lat="43.0907171" lon="13.0490263"><ele>509.0</ele><time>2026-04-19T09:41:26.025Z</time></trkpt><trkpt lat="43.0904516" lon="13.0489498"><ele>509.0</ele><time>2026-04-19T09:41:27.025Z</time></trkpt><trkpt lat="43.0902014" lon="13.0488795"><ele>509.0</ele><time>2026-04-19T09:41:28.02Z</time></trkpt><trkpt lat="43.0899667" lon="13.0487899"><ele>509.0</ele><time>2026-04-19T09:41:29.029Z</time></trkpt><trkpt lat="43.0897549" lon="13.0486743"><ele>506.0</ele><time>2026-04-19T09:41:30.03Z</time></trkpt><trkpt lat="43.089569" lon="13.0485245"><ele>503.0</ele><time>2026-04-19T09:41:31.026Z</time></trkpt><trkpt lat="43.0894103" lon="13.0483491"><ele>500.0</ele><time>2026-04-19T09:41:32.019Z</time></trkpt><trkpt lat="43.0892677" lon="13.0481325"><ele>500.0</ele><time>2026-04-19T09:41:33.031Z</time></trkpt><trkpt lat="43.0891538" lon="13.047855"><ele>500.0</ele><time>2026-04-19T09:41:34.024Z</time></trkpt><trkpt lat="43.0890212" lon="13.0475786"><ele>494.5</ele><time>2026-04-19T09:41:35.027Z</time></trkpt><trkpt lat="43.0888564" lon="13.0473131"><ele>489.0</ele><time>2026-04-19T09:41:36.025Z</time></trkpt><trkpt lat="43.0886651" lon="13.0470963"><ele>489.0</ele><time>2026-04-19T09:41:37.02Z</time></trkpt><trkpt lat="43.0884951" lon="13.0468837"><ele>489.0</ele><time>2026-04-19T09:41:38.03Z</time></trkpt><trkpt lat="43.0883771" lon="13.0466554"><ele>489.0</ele><time>2026-04-19T09:41:39.027Z</time></trkpt><trkpt lat="43.0883035" lon="13.0464566"><ele>489.0</ele><time>2026-04-19T09:41:40.031Z</time></trkpt><trkpt lat="43.0882039" lon="13.046311"><ele>489.0</ele><time>2026-04-19T09:41:41.023Z</time></trkpt><trkpt lat="43.0880611" lon="13.0462288"><ele>489.0</ele><time>2026-04-19T09:41:42.032Z</time></trkpt><trkpt lat="43.0878584" lon="13.0462013"><ele>489.0</ele><time>2026-04-19T09:41:43.03Z</time></trkpt><trkpt lat="43.087653" lon="13.0461738"><ele>489.0</ele><time>2026-04-19T09:41:44.026Z</time></trkpt><trkpt lat="43.0874553" lon="13.0460753"><ele>489.0</ele><time>2026-04-19T09:41:45.028Z</time></trkpt><trkpt lat="43.0872588" lon="13.0458853"><ele>486.0</ele><time>2026-04-19T09:41:46.027Z</time></trkpt><trkpt lat="43.0870648" lon="13.045682"><ele>483.0</ele><time>2026-04-19T09:41:47.024Z</time></trkpt><trkpt lat="43.0868684" lon="13.0454978"><ele>483.0</ele><time>2026-04-19T09:41:48.014Z</time></trkpt><trkpt lat="43.0866857" lon="13.0453149"><ele>483.0</ele><time>2026-04-19T09:41:49.021Z</time></trkpt><trkpt lat="43.0865038" lon="13.045154"><ele>483.0</ele><time>2026-04-19T09:41:50.045Z</time></trkpt><trkpt lat="43.0862936" lon="13.0450453"><ele>480.0</ele><time>2026-04-19T09:41:51.025Z</time></trkpt><trkpt lat="43.0860708" lon="13.0449739"><ele>477.0</ele><time>2026-04-19T09:41:52.026Z</time></trkpt><trkpt lat="43.0858368" lon="13.0449106"><ele>475.0</ele><time>2026-04-19T09:41:53.023Z</time></trkpt><trkpt lat="43.0856183" lon="13.0448394"><ele>473.0</ele><time>2026-04-19T09:41:54.025Z</time></trkpt><trkpt lat="43.0854088" lon="13.044746"><ele>471.0</ele><time>2026-04-19T09:41:55.024Z</time></trkpt><trkpt lat="43.0852289" lon="13.044655"><ele>471.0</ele><time>2026-04-19T09:41:56.015Z</time></trkpt><trkpt lat="43.0850568" lon="13.0445528"><ele>471.0</ele><time>2026-04-19T09:41:57.018Z</time></trkpt><trkpt lat="43.0849174" lon="13.0444289"><ele>471.0</ele><time>2026-04-19T09:41:58.019Z</time></trkpt><trkpt lat="43.0847858" lon="13.0442889"><ele>470.33333333333337</ele><time>2026-04-19T09:41:59.021Z</time></trkpt><trkpt lat="43.0846642" lon="13.0441512"><ele>469.6666666666667</ele><time>2026-04-19T09:42:00.027Z</time></trkpt><trkpt lat="43.0845385" lon="13.0440286"><ele>469.0</ele><time>2026-04-19T09:42:01.021Z</time></trkpt><trkpt lat="43.084405" lon="13.0439404"><ele>469.0</ele><time>2026-04-19T09:42:02.024Z</time></trkpt><trkpt lat="43.0842562" lon="13.043895"><ele>469.0</ele><time>2026-04-19T09:42:03.023Z</time></trkpt><trkpt lat="43.0840916" lon="13.0438568"><ele>469.0</ele><time>2026-04-19T09:42:04.024Z</time></trkpt><trkpt lat="43.0839183" lon="13.0438275"><ele>467.33333333333337</ele><time>2026-04-19T09:42:05.026Z</time></trkpt><trkpt lat="43.08375" lon="13.0437979"><ele>465.66666666666663</ele><time>2026-04-19T09:42:06.028Z</time></trkpt><trkpt lat="43.0835739" lon="13.0437754"><ele>464.0</ele><time>2026-04-19T09:42:07.023Z</time></trkpt><trkpt lat="43.0834037" lon="13.0437543"><ele>462.66666666666663</ele><time>2026-04-19T09:42:08.025Z</time></trkpt><trkpt lat="43.0832363" lon="13.0437409"><ele>461.33333333333337</ele><time>2026-04-19T09:42:09.02Z</time></trkpt><trkpt lat="43.0830756" lon="13.0437245"><ele>460.0</ele><time>2026-04-19T09:42:10.022Z</time></trkpt><trkpt lat="43.0829202" lon="13.0437105"><ele>460.0</ele><time>2026-04-19T09:42:11.018Z</time></trkpt><trkpt lat="43.0827721" lon="13.0437106"><ele>460.0</ele><time>2026-04-19T09:42:12.022Z</time></trkpt><trkpt lat="43.0826494" lon="13.0436944"><ele>460.0</ele><time>2026-04-19T09:42:13.023Z</time></trkpt><trkpt lat="43.0825258" lon="13.0436858"><ele>460.0</ele><time>2026-04-19T09:42:14.019Z</time></trkpt><trkpt lat="43.0824165" lon="13.0436841"><ele>459.25</ele><time>2026-04-19T09:42:15.016Z</time></trkpt><trkpt lat="43.0823211" lon="13.0436594"><ele>458.5</ele><time>2026-04-19T09:42:16.017Z</time></trkpt><trkpt lat="43.0822207" lon="13.043604"><ele>457.75</ele><time>2026-04-19T09:42:17.022Z</time></trkpt><trkpt lat="43.0821096" lon="13.0435439"><ele>457.0</ele><time>2026-04-19T09:42:18.018Z</time></trkpt><trkpt lat="43.0819799" lon="13.0435213"><ele>457.0</ele><time>2026-04-19T09:42:19.019Z</time></trkpt><trkpt lat="43.0818334" lon="13.043526"><ele>457.0</ele><time>2026-04-19T09:42:20.021Z</time></trkpt><trkpt lat="43.0816765" lon="13.0435486"><ele>457.0</ele><time>2026-04-19T09:42:21.029Z</time></trkpt><trkpt lat="43.0814977" lon="13.0435925"><ele>456.25</ele><time>2026-04-19T09:42:22.022Z</time></trkpt><trkpt lat="43.081332" lon="13.0436221"><ele>455.5</ele><time>2026-04-19T09:42:23.024Z</time></trkpt><trkpt lat="43.0811938" lon="13.0436515"><ele>454.75</ele><time>2026-04-19T09:42:24.022Z</time></trkpt><trkpt lat="43.0810723" lon="13.0436568"><ele>454.0</ele><time>2026-04-19T09:42:25.023Z</time></trkpt><trkpt lat="43.0809715" lon="13.0436778"><ele>454.0</ele><time>2026-04-19T09:42:26.026Z</time></trkpt><trkpt lat="43.0809016" lon="13.0436855"><ele>454.0</ele><time>2026-04-19T09:42:27.03Z</time></trkpt><trkpt lat="43.0808041" lon="13.0436824"><ele>454.0</ele><time>2026-04-19T09:42:29.034Z</time></trkpt><trkpt lat="43.0807584" lon="13.0437436"><ele>454.0</ele><time>2026-04-19T09:42:31.029Z</time></trkpt><trkpt lat="43.0807557" lon="13.0439259"><ele>454.0</ele><time>2026-04-19T09:42:33.033Z</time></trkpt><trkpt lat="43.0807662" lon="13.0440504"><ele>454.0</ele><time>2026-04-19T09:42:34.032Z</time></trkpt><trkpt lat="43.0807711" lon="13.0441928"><ele>454.0</ele><time>2026-04-19T09:42:35.029Z</time></trkpt><trkpt lat="43.0807738" lon="13.044348"><ele>454.0</ele><time>2026-04-19T09:42:36.029Z</time></trkpt><trkpt lat="43.0807799" lon="13.044508"><ele>454.0</ele><time>2026-04-19T09:42:37.026Z</time></trkpt><trkpt lat="43.0807826" lon="13.0446766"><ele>454.0</ele><time>2026-04-19T09:42:38.015Z</time></trkpt><trkpt lat="43.0807843" lon="13.0448706"><ele>454.0</ele><time>2026-04-19T09:42:39.033Z</time></trkpt><trkpt lat="43.0807872" lon="13.0450832"><ele>454.0</ele><time>2026-04-19T09:42:40.032Z</time></trkpt><trkpt lat="43.0807851" lon="13.0453263"><ele>453.6666666666667</ele><time>2026-04-19T09:42:41.022Z</time></trkpt><trkpt lat="43.080796" lon="13.0455672"><ele>453.33333333333337</ele><time>2026-04-19T09:42:42.027Z</time></trkpt><trkpt lat="43.0808031" lon="13.045824"><ele>453.0</ele><time>2026-04-19T09:42:43.022Z</time></trkpt><trkpt lat="43.080815" lon="13.0461048"><ele>452.33333333333337</ele><time>2026-04-19T09:42:44.026Z</time></trkpt><trkpt lat="43.0808244" lon="13.0463803"><ele>451.6666666666667</ele><time>2026-04-19T09:42:45.024Z</time></trkpt><trkpt lat="43.0808426" lon="13.0466617"><ele>451.0</ele><time>2026-04-19T09:42:46.022Z</time></trkpt><trkpt lat="43.0808472" lon="13.0469365"><ele>451.0</ele><time>2026-04-19T09:42:47.029Z</time></trkpt><trkpt lat="43.0808529" lon="13.0472214"><ele>451.0</ele><time>2026-04-19T09:42:48.028Z</time></trkpt><trkpt lat="43.0808405" lon="13.0475102"><ele>451.0</ele><time>2026-04-19T09:42:49.026Z</time></trkpt><trkpt lat="43.0808123" lon="13.0478062"><ele>451.0</ele><time>2026-04-19T09:42:50.026Z</time></trkpt><trkpt lat="43.0807689" lon="13.0480841"><ele>451.0</ele><time>2026-04-19T09:42:51.022Z</time></trkpt><trkpt lat="43.08073" lon="13.0483743"><ele>451.0</ele><time>2026-04-19T09:42:52.031Z</time></trkpt><trkpt lat="43.0806892" lon="13.0486518"><ele>450.33333333333337</ele><time>2026-04-19T09:42:53.014Z</time></trkpt><trkpt lat="43.0806435" lon="13.0489161"><ele>449.66666666666663</ele><time>2026-04-19T09:42:54.017Z</time></trkpt><trkpt lat="43.0806036" lon="13.0491352"><ele>449.0</ele><time>2026-04-19T09:42:55.016Z</time></trkpt><trkpt lat="43.0805776" lon="13.0493431"><ele>448.5</ele><time>2026-04-19T09:42:56.015Z</time></trkpt><trkpt lat="43.0805564" lon="13.049521"><ele>448.0</ele><time>2026-04-19T09:42:57.018Z</time></trkpt><trkpt lat="43.0805378" lon="13.0496859"><ele>447.5</ele><time>2026-04-19T09:42:58.017Z</time></trkpt><trkpt lat="43.0805205" lon="13.0498524"><ele>447.0</ele><time>2026-04-19T09:42:59.026Z</time></trkpt><trkpt lat="43.0805039" lon="13.0500117"><ele>447.0</ele><time>2026-04-19T09:43:00.027Z</time></trkpt><trkpt lat="43.0804738" lon="13.0501686"><ele>447.0</ele><time>2026-04-19T09:43:01.027Z</time></trkpt><trkpt lat="43.0804282" lon="13.050342"><ele>447.0</ele><time>2026-04-19T09:43:02.027Z</time></trkpt><trkpt lat="43.0803709" lon="13.0505214"><ele>447.0</ele><time>2026-04-19T09:43:03.022Z</time></trkpt><trkpt lat="43.0802996" lon="13.0507159"><ele>447.66666666666663</ele><time>2026-04-19T09:43:04.029Z</time></trkpt><trkpt lat="43.0802046" lon="13.0509234"><ele>448.3333333333333</ele><time>2026-04-19T09:43:05.027Z</time></trkpt><trkpt lat="43.0800673" lon="13.0511259"><ele>449.0</ele><time>2026-04-19T09:43:06.02Z</time></trkpt><trkpt lat="43.0799045" lon="13.0513337"><ele>447.0</ele><time>2026-04-19T09:43:07.022Z</time></trkpt><trkpt lat="43.0797391" lon="13.0515598"><ele>445.0</ele><time>2026-04-19T09:43:08.024Z</time></trkpt><trkpt lat="43.0795847" lon="13.0517957"><ele>444.5</ele><time>2026-04-19T09:43:09.021Z</time></trkpt><trkpt lat="43.0794315" lon="13.0520431"><ele>444.0</ele><time>2026-04-19T09:43:10.021Z</time></trkpt><trkpt lat="43.079267" lon="13.0523009"><ele>445.0</ele><time>2026-04-19T09:43:11.022Z</time></trkpt><trkpt lat="43.0791155" lon="13.0525527"><ele>446.0</ele><time>2026-04-19T09:43:12.024Z</time></trkpt><trkpt lat="43.0789659" lon="13.0527981"><ele>444.3333333333333</ele><time>2026-04-19T09:43:13.022Z</time></trkpt><trkpt lat="43.0788247" lon="13.0530314"><ele>442.66666666666663</ele><time>2026-04-19T09:43:14.023Z</time></trkpt><trkpt lat="43.0786819" lon="13.053261"><ele>441.0</ele><time>2026-04-19T09:43:15.022Z</time></trkpt><trkpt lat="43.0785451" lon="13.053487"><ele>441.0</ele><time>2026-04-19T09:43:16.025Z</time></trkpt><trkpt lat="43.0784132" lon="13.0537222"><ele>441.0</ele><time>2026-04-19T09:43:17.02Z</time></trkpt><trkpt lat="43.0782721" lon="13.0539477"><ele>441.0</ele><time>2026-04-19T09:43:18.02Z</time></trkpt><trkpt lat="43.0781346" lon="13.0541721"><ele>440.66666666666663</ele><time>2026-04-19T09:43:19.027Z</time></trkpt><trkpt lat="43.0779913" lon="13.0543956"><ele>440.3333333333333</ele><time>2026-04-19T09:43:20.029Z</time></trkpt><trkpt lat="43.0778402" lon="13.0546223"><ele>440.0</ele><time>2026-04-19T09:43:21.029Z</time></trkpt><trkpt lat="43.0776912" lon="13.0548455"><ele>440.0</ele><time>2026-04-19T09:43:22.03Z</time></trkpt><trkpt lat="43.0775474" lon="13.055063"><ele>440.0</ele><time>2026-04-19T09:43:23.04Z</time></trkpt><trkpt lat="43.0774143" lon="13.0552806"><ele>440.0</ele><time>2026-04-19T09:43:24.032Z</time></trkpt><trkpt lat="43.0772862" lon="13.0555"><ele>440.0</ele><time>2026-04-19T09:43:25.034Z</time></trkpt><trkpt lat="43.0771678" lon="13.0557443"><ele>440.0</ele><time>2026-04-19T09:43:26.028Z</time></trkpt><trkpt lat="43.0770666" lon="13.0560091"><ele>440.0</ele><time>2026-04-19T09:43:27.031Z</time></trkpt><trkpt lat="43.0769661" lon="13.0562784"><ele>439.0</ele><time>2026-04-19T09:43:28.029Z</time></trkpt><trkpt lat="43.0768698" lon="13.0565422"><ele>438.0</ele><time>2026-04-19T09:43:29.03Z</time></trkpt><trkpt lat="43.0767628" lon="13.05682"><ele>437.0</ele><time>2026-04-19T09:43:30.022Z</time></trkpt><trkpt lat="43.076668" lon="13.0571061"><ele>436.0</ele><time>2026-04-19T09:43:31.016Z</time></trkpt><trkpt lat="43.0765708" lon="13.0574013"><ele>435.0</ele><time>2026-04-19T09:43:32.017Z</time></trkpt><trkpt lat="43.0764989" lon="13.0577045"><ele>435.0</ele><time>2026-04-19T09:43:33.018Z</time></trkpt><trkpt lat="43.0764312" lon="13.0580236"><ele>435.0</ele><time>2026-04-19T09:43:34.029Z</time></trkpt><trkpt lat="43.076363" lon="13.0583334"><ele>435.0</ele><time>2026-04-19T09:43:35.031Z</time></trkpt><trkpt lat="43.0762894" lon="13.0586471"><ele>435.0</ele><time>2026-04-19T09:43:36.03Z</time></trkpt><trkpt lat="43.0762159" lon="13.0589475"><ele>436.0</ele><time>2026-04-19T09:43:37.032Z</time></trkpt><trkpt lat="43.0761313" lon="13.059253"><ele>437.0</ele><time>2026-04-19T09:43:38.031Z</time></trkpt><trkpt lat="43.0760519" lon="13.0595595"><ele>437.0</ele><time>2026-04-19T09:43:39.03Z</time></trkpt><trkpt lat="43.0759765" lon="13.0598464"><ele>437.0</ele><time>2026-04-19T09:43:40.028Z</time></trkpt><trkpt lat="43.0759036" lon="13.0601408"><ele>437.0</ele><time>2026-04-19T09:43:41.029Z</time></trkpt><trkpt lat="43.0758338" lon="13.0604196"><ele>437.0</ele><time>2026-04-19T09:43:42.028Z</time></trkpt><trkpt lat="43.0757664" lon="13.060683"><ele>437.0</ele><time>2026-04-19T09:43:43.025Z</time></trkpt><trkpt lat="43.0757041" lon="13.0609343"><ele>435.0</ele><time>2026-04-19T09:43:44.022Z</time></trkpt><trkpt lat="43.0756518" lon="13.0611869"><ele>433.0</ele><time>2026-04-19T09:43:45.021Z</time></trkpt><trkpt lat="43.075612" lon="13.0614217"><ele>431.0</ele><time>2026-04-19T09:43:46.02Z</time></trkpt><trkpt lat="43.0755956" lon="13.0616301"><ele>430.8</ele><time>2026-04-19T09:43:47.018Z</time></trkpt><trkpt lat="43.0756009" lon="13.0618025"><ele>430.6</ele><time>2026-04-19T09:43:48.022Z</time></trkpt><trkpt lat="43.075602" lon="13.0619337"><ele>430.4</ele><time>2026-04-19T09:43:49.014Z</time></trkpt><trkpt lat="43.0755933" lon="13.0620541"><ele>430.2</ele><time>2026-04-19T09:43:50.027Z</time></trkpt><trkpt lat="43.0755823" lon="13.0621448"><ele>430.0</ele><time>2026-04-19T09:43:51.022Z</time></trkpt><trkpt lat="43.0755078" lon="13.0622584"><ele>430.0</ele><time>2026-04-19T09:43:53.022Z</time></trkpt><trkpt lat="43.0754512" lon="13.0623261"><ele>430.0</ele><time>2026-04-19T09:43:55.021Z</time></trkpt><trkpt lat="43.0753793" lon="13.0623151"><ele>430.0</ele><time>2026-04-19T09:47:44.99Z</time></trkpt><trkpt lat="43.0754447" lon="13.0623019"><ele>430.0</ele><time>2026-04-19T09:48:13.006Z</time></trkpt><trkpt lat="43.0755067" lon="13.0622486"><ele>430.0</ele><time>2026-04-19T09:48:19.986Z</time></trkpt><trkpt lat="43.0754729" lon="13.0623345"><ele>430.0</ele><time>2026-04-19T09:48:58.99Z</time></trkpt><trkpt lat="43.0754174" lon="13.062384"><ele>430.0</ele><time>2026-04-19T09:49:01.982Z</time></trkpt><trkpt lat="43.0754693" lon="13.0623233"><ele>430.00000000000006</ele><time>2026-04-19T09:49:18.996Z</time></trkpt><trkpt lat="43.0754496" lon="13.0622267"><ele>430.0</ele><time>2026-04-19T09:49:43.991Z</time></trkpt><trkpt lat="43.0753754" lon="13.0622177"><ele>430.0</ele><time>2026-04-19T09:50:45.993Z</time></trkpt><trkpt lat="43.0753548" lon="13.0623062"><ele>430.0</ele><time>2026-04-19T09:54:08.008Z</time></trkpt><trkpt lat="43.0754393" lon="13.0623594"><ele>430.00000000000006</ele><time>2026-04-19T09:54:42.058Z</time></trkpt><trkpt lat="43.0754719" lon="13.0624536"><ele>430.0</ele><time>2026-04-19T09:54:45.005Z</time></trkpt><trkpt lat="43.0754939" lon="13.0625645"><ele>429.83333333333337</ele><time>2026-04-19T09:54:47.007Z</time></trkpt><trkpt lat="43.0755126" lon="13.0626726"><ele>429.6666666666667</ele><time>2026-04-19T09:54:49.006Z</time></trkpt><trkpt lat="43.0755462" lon="13.0627564"><ele>429.5</ele><time>2026-04-19T09:54:51.015Z</time></trkpt><trkpt lat="43.0755889" lon="13.0628297"><ele>429.33333333333337</ele><time>2026-04-19T09:54:53.016Z</time></trkpt><trkpt lat="43.0756374" lon="13.0629398"><ele>429.1666666666667</ele><time>2026-04-19T09:54:55.01Z</time></trkpt><trkpt lat="43.0756519" lon="13.0630362"><ele>429.0</ele><time>2026-04-19T09:54:55.999Z</time></trkpt><trkpt lat="43.075652" lon="13.0631486"><ele>429.0</ele><time>2026-04-19T09:54:57.007Z</time></trkpt><trkpt lat="43.0756576" lon="13.0632639"><ele>429.0</ele><time>2026-04-19T09:54:58.014Z</time></trkpt><trkpt lat="43.0756642" lon="13.0633887"><ele>429.0</ele><time>2026-04-19T09:54:59.016Z</time></trkpt><trkpt lat="43.0756735" lon="13.0635157"><ele>429.0</ele><time>2026-04-19T09:55:00.008Z</time></trkpt><trkpt lat="43.0756735" lon="13.0636337"><ele>429.0</ele><time>2026-04-19T09:55:01.006Z</time></trkpt><trkpt lat="43.075664" lon="13.0637295"><ele>429.0</ele><time>2026-04-19T09:55:02.004Z</time></trkpt><trkpt lat="43.0756366" lon="13.0638139"><ele>428.8333333333333</ele><time>2026-04-19T09:55:03.011Z</time></trkpt><trkpt lat="43.0755743" lon="13.0638737"><ele>428.66666666666663</ele><time>2026-04-19T09:55:04.012Z</time></trkpt><trkpt lat="43.0754905" lon="13.0639116"><ele>428.5</ele><time>2026-04-19T09:55:05.008Z</time></trkpt><trkpt lat="43.0753991" lon="13.0639198"><ele>428.3333333333333</ele><time>2026-04-19T09:55:06.004Z</time></trkpt><trkpt lat="43.0753083" lon="13.0639088"><ele>428.16666666666663</ele><time>2026-04-19T09:55:07.004Z</time></trkpt><trkpt lat="43.0752095" lon="13.0639071"><ele>428.0</ele><time>2026-04-19T09:55:08.009Z</time></trkpt><trkpt lat="43.0751176" lon="13.0639123"><ele>427.99999999999994</ele><time>2026-04-19T09:55:09.005Z</time></trkpt><trkpt lat="43.0750297" lon="13.063912"><ele>428.0</ele><time>2026-04-19T09:55:10.006Z</time></trkpt><trkpt lat="43.0749536" lon="13.0639112"><ele>428.0</ele><time>2026-04-19T09:55:11.003Z</time></trkpt><trkpt lat="43.0748825" lon="13.0639119"><ele>428.0</ele><time>2026-04-19T09:55:12.013Z</time></trkpt><trkpt lat="43.074817" lon="13.06392"><ele>427.99999999999994</ele><time>2026-04-19T09:55:13.01Z</time></trkpt><trkpt lat="43.0746958" lon="13.0639267"><ele>428.0</ele><time>2026-04-19T09:55:15.012Z</time></trkpt><trkpt lat="43.0746313" lon="13.0639294"><ele>427.99999999999994</ele><time>2026-04-19T09:55:16.013Z</time></trkpt><trkpt lat="43.0745644" lon="13.0639418"><ele>428.0</ele><time>2026-04-19T09:55:17.009Z</time></trkpt><trkpt lat="43.0744928" lon="13.0639496"><ele>428.0</ele><time>2026-04-19T09:55:18.01Z</time></trkpt><trkpt lat="43.0744164" lon="13.0639444"><ele>428.0</ele><time>2026-04-19T09:55:19.01Z</time></trkpt><trkpt lat="43.0743406" lon="13.0639313"><ele>427.99999999999994</ele><time>2026-04-19T09:55:20.013Z</time></trkpt><trkpt lat="43.0742664" lon="13.063888"><ele>428.0</ele><time>2026-04-19T09:55:21.014Z</time></trkpt><trkpt lat="43.0741936" lon="13.0638299"><ele>427.99999999999994</ele><time>2026-04-19T09:55:22.01Z</time></trkpt><trkpt lat="43.0741249" lon="13.0637504"><ele>428.0</ele><time>2026-04-19T09:55:23.014Z</time></trkpt><trkpt lat="43.0740649" lon="13.0636554"><ele>428.0</ele><time>2026-04-19T09:55:24.011Z</time></trkpt><trkpt lat="43.0739889" lon="13.0635919"><ele>428.0</ele><time>2026-04-19T09:55:25.015Z</time></trkpt><trkpt lat="43.0739089" lon="13.0635796"><ele>427.99999999999994</ele><time>2026-04-19T09:55:26.016Z</time></trkpt><trkpt lat="43.073835" lon="13.0636374"><ele>428.0</ele><time>2026-04-19T09:55:27.018Z</time></trkpt><trkpt lat="43.0737818" lon="13.0637195"><ele>429.4</ele><time>2026-04-19T09:55:28.015Z</time></trkpt><trkpt lat="43.073739" lon="13.0638242"><ele>430.79999999999995</ele><time>2026-04-19T09:55:29.019Z</time></trkpt><trkpt lat="43.0736828" lon="13.0639293"><ele>432.2</ele><time>2026-04-19T09:55:30.015Z</time></trkpt><trkpt lat="43.0736037" lon="13.0640163"><ele>433.6</ele><time>2026-04-19T09:55:31.019Z</time></trkpt><trkpt lat="43.0734943" lon="13.0640626"><ele>435.0</ele><time>2026-04-19T09:55:32.012Z</time></trkpt><trkpt lat="43.0733678" lon="13.0640686"><ele>436.0</ele><time>2026-04-19T09:55:33.016Z</time></trkpt><trkpt lat="43.0732316" lon="13.0640677"><ele>437.0</ele><time>2026-04-19T09:55:34.014Z</time></trkpt><trkpt lat="43.0730881" lon="13.0640645"><ele>438.0</ele><time>2026-04-19T09:55:35.014Z</time></trkpt><trkpt lat="43.0729403" lon="13.0640615"><ele>439.0</ele><time>2026-04-19T09:55:36Z</time></trkpt><trkpt lat="43.0727863" lon="13.064048"><ele>439.0</ele><time>2026-04-19T09:55:37.013Z</time></trkpt><trkpt lat="43.0726364" lon="13.0640346"><ele>439.0</ele><time>2026-04-19T09:55:38.014Z</time></trkpt><trkpt lat="43.0724936" lon="13.0640245"><ele>439.0</ele><time>2026-04-19T09:55:39.011Z</time></trkpt><trkpt lat="43.0723518" lon="13.0640097"><ele>439.0</ele><time>2026-04-19T09:55:40.004Z</time></trkpt><trkpt lat="43.0722095" lon="13.0639949"><ele>438.33333333333337</ele><time>2026-04-19T09:55:41.012Z</time></trkpt><trkpt lat="43.0720614" lon="13.0639814"><ele>437.66666666666663</ele><time>2026-04-19T09:55:42.018Z</time></trkpt><trkpt lat="43.0719095" lon="13.0639555"><ele>437.0</ele><time>2026-04-19T09:55:43.017Z</time></trkpt><trkpt lat="43.071758" lon="13.0639263"><ele>437.3333333333333</ele><time>2026-04-19T09:55:44.019Z</time></trkpt><trkpt lat="43.0716035" lon="13.0638932"><ele>437.66666666666663</ele><time>2026-04-19T09:55:45.029Z</time></trkpt><trkpt lat="43.071453" lon="13.0638643"><ele>438.0</ele><time>2026-04-19T09:55:46.02Z</time></trkpt><trkpt lat="43.0712999" lon="13.0638422"><ele>438.0</ele><time>2026-04-19T09:55:47.015Z</time></trkpt><trkpt lat="43.0711419" lon="13.0638179"><ele>438.0</ele><time>2026-04-19T09:55:48.016Z</time></trkpt><trkpt lat="43.0709821" lon="13.0637926"><ele>438.0</ele><time>2026-04-19T09:55:49.021Z</time></trkpt><trkpt lat="43.070818" lon="13.0637642"><ele>435.33333333333337</ele><time>2026-04-19T09:55:50.021Z</time></trkpt><trkpt lat="43.0706575" lon="13.0637335"><ele>432.6666666666667</ele><time>2026-04-19T09:55:51.027Z</time></trkpt><trkpt lat="43.0704934" lon="13.0637051"><ele>430.0</ele><time>2026-04-19T09:55:52.019Z</time></trkpt><trkpt lat="43.0703294" lon="13.0636777"><ele>430.0</ele><time>2026-04-19T09:55:53.013Z</time></trkpt><trkpt lat="43.0701674" lon="13.0636439"><ele>430.0</ele><time>2026-04-19T09:55:54.027Z</time></trkpt><trkpt lat="43.0699954" lon="13.0636152"><ele>430.0</ele><time>2026-04-19T09:55:55.019Z</time></trkpt><trkpt lat="43.0698171" lon="13.0635853"><ele>431.0</ele><time>2026-04-19T09:55:56.02Z</time></trkpt><trkpt lat="43.069637" lon="13.0635415"><ele>432.0</ele><time>2026-04-19T09:55:57.026Z</time></trkpt><trkpt lat="43.0694537" lon="13.0635011"><ele>433.0</ele><time>2026-04-19T09:55:58.008Z</time></trkpt><trkpt lat="43.0692598" lon="13.0634743"><ele>433.0</ele><time>2026-04-19T09:55:59.019Z</time></trkpt><trkpt lat="43.0690585" lon="13.0634409"><ele>433.0</ele><time>2026-04-19T09:56:00.014Z</time></trkpt><trkpt lat="43.0688468" lon="13.0634023"><ele>433.0</ele><time>2026-04-19T09:56:01.018Z</time></trkpt><trkpt lat="43.0686282" lon="13.0633514"><ele>433.0</ele><time>2026-04-19T09:56:02.023Z</time></trkpt><trkpt lat="43.0684152" lon="13.0633084"><ele>433.0</ele><time>2026-04-19T09:56:03.015Z</time></trkpt><trkpt lat="43.0681947" lon="13.0632538"><ele>433.0</ele><time>2026-04-19T09:56:04.018Z</time></trkpt><trkpt lat="43.0679885" lon="13.0632078"><ele>435.6666666666667</ele><time>2026-04-19T09:56:05.018Z</time></trkpt><trkpt lat="43.0677808" lon="13.0631598"><ele>438.33333333333337</ele><time>2026-04-19T09:56:06.017Z</time></trkpt><trkpt lat="43.0675765" lon="13.0631071"><ele>441.0</ele><time>2026-04-19T09:56:07.014Z</time></trkpt><trkpt lat="43.0673759" lon="13.0630573"><ele>443.0</ele><time>2026-04-19T09:56:08.009Z</time></trkpt><trkpt lat="43.067177" lon="13.0630157"><ele>445.0</ele><time>2026-04-19T09:56:09.003Z</time></trkpt><trkpt lat="43.0669798" lon="13.0629931"><ele>447.0</ele><time>2026-04-19T09:56:09.999Z</time></trkpt><trkpt lat="43.0667762" lon="13.0629635"><ele>447.0</ele><time>2026-04-19T09:56:11.003Z</time></trkpt><trkpt lat="43.0665821" lon="13.0629278"><ele>447.0</ele><time>2026-04-19T09:56:12.007Z</time></trkpt><trkpt lat="43.0663793" lon="13.0628958"><ele>447.0</ele><time>2026-04-19T09:56:13.009Z</time></trkpt><trkpt lat="43.0661689" lon="13.0628522"><ele>447.0</ele><time>2026-04-19T09:56:14.007Z</time></trkpt><trkpt lat="43.0659619" lon="13.0628248"><ele>447.0</ele><time>2026-04-19T09:56:15.014Z</time></trkpt><trkpt lat="43.0657506" lon="13.0627929"><ele>447.0</ele><time>2026-04-19T09:56:16.021Z</time></trkpt><trkpt lat="43.0655367" lon="13.0627689"><ele>445.0</ele><time>2026-04-19T09:56:17.017Z</time></trkpt><trkpt lat="43.0653325" lon="13.0627149"><ele>443.0</ele><time>2026-04-19T09:56:18.013Z</time></trkpt><trkpt lat="43.0651175" lon="13.062668"><ele>441.0</ele><time>2026-04-19T09:56:19.016Z</time></trkpt><trkpt lat="43.0649051" lon="13.0626189"><ele>441.0</ele><time>2026-04-19T09:56:20.015Z</time></trkpt><trkpt lat="43.0646843" lon="13.0625693"><ele>441.0</ele><time>2026-04-19T09:56:21.018Z</time></trkpt><trkpt lat="43.064467" lon="13.0625132"><ele>441.0</ele><time>2026-04-19T09:56:22.019Z</time></trkpt><trkpt lat="43.0642368" lon="13.0624574"><ele>443.0</ele><time>2026-04-19T09:56:23.017Z</time></trkpt><trkpt lat="43.0640065" lon="13.0624052"><ele>445.0</ele><time>2026-04-19T09:56:24.027Z</time></trkpt><trkpt lat="43.063769" lon="13.0623577"><ele>445.0</ele><time>2026-04-19T09:56:25.016Z</time></trkpt><trkpt lat="43.0635219" lon="13.062304"><ele>445.0</ele><time>2026-04-19T09:56:26.012Z</time></trkpt><trkpt lat="43.0632748" lon="13.0622591"><ele>445.0</ele><time>2026-04-19T09:56:27.022Z</time></trkpt><trkpt lat="43.0630273" lon="13.0622117"><ele>445.0</ele><time>2026-04-19T09:56:28.011Z</time></trkpt><trkpt lat="43.0627833" lon="13.0621619"><ele>445.0</ele><time>2026-04-19T09:56:29.024Z</time></trkpt><trkpt lat="43.0625383" lon="13.0621145"><ele>445.0</ele><time>2026-04-19T09:56:30.018Z</time></trkpt><trkpt lat="43.0622908" lon="13.0620615"><ele>446.0</ele><time>2026-04-19T09:56:31.016Z</time></trkpt><trkpt lat="43.0620444" lon="13.0620134"><ele>447.0</ele><time>2026-04-19T09:56:32.012Z</time></trkpt><trkpt lat="43.0618005" lon="13.0619579"><ele>447.5</ele><time>2026-04-19T09:56:33.015Z</time></trkpt><trkpt lat="43.0615565" lon="13.0619044"><ele>448.0</ele><time>2026-04-19T09:56:34.017Z</time></trkpt><trkpt lat="43.0613071" lon="13.0618462"><ele>448.0</ele><time>2026-04-19T09:56:35.013Z</time></trkpt><trkpt lat="43.0610536" lon="13.0618"><ele>448.0</ele><time>2026-04-19T09:56:36.014Z</time></trkpt><trkpt lat="43.0607956" lon="13.0617339"><ele>447.5</ele><time>2026-04-19T09:56:37.015Z</time></trkpt><trkpt lat="43.0605486" lon="13.0616925"><ele>447.0</ele><time>2026-04-19T09:56:38.003Z</time></trkpt><trkpt lat="43.0602908" lon="13.0616472"><ele>447.0</ele><time>2026-04-19T09:56:39.014Z</time></trkpt><trkpt lat="43.0600387" lon="13.0616204"><ele>447.0</ele><time>2026-04-19T09:56:40.017Z</time></trkpt><trkpt lat="43.0597798" lon="13.0615731"><ele>451.0</ele><time>2026-04-19T09:56:41.013Z</time></trkpt><trkpt lat="43.0595245" lon="13.0615293"><ele>455.0</ele><time>2026-04-19T09:56:42.021Z</time></trkpt><trkpt lat="43.0592685" lon="13.0614853"><ele>454.0</ele><time>2026-04-19T09:56:43.016Z</time></trkpt><trkpt lat="43.0590189" lon="13.0614183"><ele>453.0</ele><time>2026-04-19T09:56:44.015Z</time></trkpt><trkpt lat="43.0587758" lon="13.0613152"><ele>453.0</ele><time>2026-04-19T09:56:45.017Z</time></trkpt><trkpt lat="43.0585341" lon="13.0611947"><ele>453.0</ele><time>2026-04-19T09:56:46.011Z</time></trkpt><trkpt lat="43.0583029" lon="13.0610536"><ele>451.5</ele><time>2026-04-19T09:56:47.028Z</time></trkpt><trkpt lat="43.0580748" lon="13.0608952"><ele>450.0</ele><time>2026-04-19T09:56:48.012Z</time></trkpt><trkpt lat="43.057854" lon="13.0607263"><ele>452.0</ele><time>2026-04-19T09:56:49.015Z</time></trkpt><trkpt lat="43.0576327" lon="13.0605585"><ele>454.0</ele><time>2026-04-19T09:56:50.015Z</time></trkpt><trkpt lat="43.0574132" lon="13.0603986"><ele>454.0</ele><time>2026-04-19T09:56:51.016Z</time></trkpt><trkpt lat="43.0571862" lon="13.0602358"><ele>454.0</ele><time>2026-04-19T09:56:52.019Z</time></trkpt><trkpt lat="43.0569618" lon="13.0600685"><ele>457.0</ele><time>2026-04-19T09:56:53.012Z</time></trkpt><trkpt lat="43.05673" lon="13.0598993"><ele>460.0</ele><time>2026-04-19T09:56:54.018Z</time></trkpt><trkpt lat="43.0564917" lon="13.0597276"><ele>460.0</ele><time>2026-04-19T09:56:55.02Z</time></trkpt><trkpt lat="43.0562507" lon="13.0595552"><ele>460.0</ele><time>2026-04-19T09:56:56.011Z</time></trkpt><trkpt lat="43.0560145" lon="13.059393"><ele>461.0</ele><time>2026-04-19T09:56:57.019Z</time></trkpt><trkpt lat="43.0557745" lon="13.0592332"><ele>462.0</ele><time>2026-04-19T09:56:58.017Z</time></trkpt><trkpt lat="43.0555295" lon="13.0590645"><ele>462.0</ele><time>2026-04-19T09:56:59.017Z</time></trkpt><trkpt lat="43.055286" lon="13.0588927"><ele>462.0</ele><time>2026-04-19T09:57:00.016Z</time></trkpt><trkpt lat="43.0550422" lon="13.0587136"><ele>460.0</ele><time>2026-04-19T09:57:01.01Z</time></trkpt><trkpt lat="43.0547958" lon="13.0585396"><ele>458.0</ele><time>2026-04-19T09:57:02.018Z</time></trkpt><trkpt lat="43.0545485" lon="13.0583828"><ele>457.5</ele><time>2026-04-19T09:57:03.014Z</time></trkpt><trkpt lat="43.0543027" lon="13.0582257"><ele>457.0</ele><time>2026-04-19T09:57:04.02Z</time></trkpt><trkpt lat="43.0540599" lon="13.0580629"><ele>457.0</ele><time>2026-04-19T09:57:05.007Z</time></trkpt><trkpt lat="43.0538266" lon="13.0578832"><ele>457.0</ele><time>2026-04-19T09:57:06.012Z</time></trkpt><trkpt lat="43.0536001" lon="13.0576914"><ele>457.0</ele><time>2026-04-19T09:57:07.021Z</time></trkpt><trkpt lat="43.053378" lon="13.0574866"><ele>457.0</ele><time>2026-04-19T09:57:08.015Z</time></trkpt><trkpt lat="43.0531618" lon="13.0572733"><ele>458.0</ele><time>2026-04-19T09:57:09.014Z</time></trkpt><trkpt lat="43.0529477" lon="13.057038"><ele>459.0</ele><time>2026-04-19T09:57:10Z</time></trkpt><trkpt lat="43.0527472" lon="13.0567874"><ele>459.0</ele><time>2026-04-19T09:57:11.019Z</time></trkpt><trkpt lat="43.0525481" lon="13.056537"><ele>459.0</ele><time>2026-04-19T09:57:12.013Z</time></trkpt><trkpt lat="43.0523496" lon="13.0562781"><ele>459.0</ele><time>2026-04-19T09:57:13.018Z</time></trkpt><trkpt lat="43.0521481" lon="13.0560296"><ele>459.0</ele><time>2026-04-19T09:57:14.015Z</time></trkpt><trkpt lat="43.0519389" lon="13.0557881"><ele>458.5</ele><time>2026-04-19T09:57:15.014Z</time></trkpt><trkpt lat="43.0517342" lon="13.0555673"><ele>458.0</ele><time>2026-04-19T09:57:16.01Z</time></trkpt><trkpt lat="43.0515382" lon="13.0553738"><ele>458.0</ele><time>2026-04-19T09:57:17.012Z</time></trkpt><trkpt lat="43.0513467" lon="13.0551913"><ele>458.0</ele><time>2026-04-19T09:57:18.023Z</time></trkpt><trkpt lat="43.0511668" lon="13.0550222"><ele>458.3333333333333</ele><time>2026-04-19T09:57:19.01Z</time></trkpt><trkpt lat="43.0509914" lon="13.0548632"><ele>458.66666666666663</ele><time>2026-04-19T09:57:20.022Z</time></trkpt><trkpt lat="43.0508173" lon="13.0547069"><ele>459.0</ele><time>2026-04-19T09:57:21.023Z</time></trkpt><trkpt lat="43.0506439" lon="13.0545489"><ele>459.33333333333337</ele><time>2026-04-19T09:57:22.022Z</time></trkpt><trkpt lat="43.0504775" lon="13.0543945"><ele>459.6666666666667</ele><time>2026-04-19T09:57:23.017Z</time></trkpt><trkpt lat="43.0503079" lon="13.0542317"><ele>460.0</ele><time>2026-04-19T09:57:24.018Z</time></trkpt><trkpt lat="43.0501377" lon="13.0540702"><ele>461.0</ele><time>2026-04-19T09:57:25.02Z</time></trkpt><trkpt lat="43.0499607" lon="13.0539111"><ele>462.0</ele><time>2026-04-19T09:57:26.021Z</time></trkpt><trkpt lat="43.0497774" lon="13.0537522"><ele>463.0</ele><time>2026-04-19T09:57:27.023Z</time></trkpt><trkpt lat="43.049592" lon="13.0535913"><ele>463.0</ele><time>2026-04-19T09:57:28.021Z</time></trkpt><trkpt lat="43.0493993" lon="13.0534451"><ele>463.0</ele><time>2026-04-19T09:57:29.026Z</time></trkpt><trkpt lat="43.0492042" lon="13.0533146"><ele>463.0</ele><time>2026-04-19T09:57:30.019Z</time></trkpt><trkpt lat="43.0490021" lon="13.0531881"><ele>464.5</ele><time>2026-04-19T09:57:31.018Z</time></trkpt><trkpt lat="43.0487846" lon="13.0530868"><ele>466.0</ele><time>2026-04-19T09:57:32.016Z</time></trkpt><trkpt lat="43.0485653" lon="13.0529852"><ele>466.0</ele><time>2026-04-19T09:57:33.02Z</time></trkpt><trkpt lat="43.0483466" lon="13.0528811"><ele>466.0</ele><time>2026-04-19T09:57:34.022Z</time></trkpt><trkpt lat="43.048126" lon="13.0527721"><ele>465.6666666666667</ele><time>2026-04-19T09:57:35.007Z</time></trkpt><trkpt lat="43.0479153" lon="13.0526706"><ele>465.33333333333337</ele><time>2026-04-19T09:57:36.02Z</time></trkpt><trkpt lat="43.0477128" lon="13.0525705"><ele>465.0</ele><time>2026-04-19T09:57:37.021Z</time></trkpt><trkpt lat="43.0475125" lon="13.0524725"><ele>467.0</ele><time>2026-04-19T09:57:38.021Z</time></trkpt><trkpt lat="43.0473213" lon="13.0523787"><ele>469.0</ele><time>2026-04-19T09:57:39.016Z</time></trkpt><trkpt lat="43.0471358" lon="13.0522871"><ele>471.0</ele><time>2026-04-19T09:57:40.016Z</time></trkpt><trkpt lat="43.0469555" lon="13.0521917"><ele>471.0</ele><time>2026-04-19T09:57:41.02Z</time></trkpt><trkpt lat="43.0467741" lon="13.0521044"><ele>471.0</ele><time>2026-04-19T09:57:42.02Z</time></trkpt><trkpt lat="43.0465926" lon="13.0520515"><ele>471.0</ele><time>2026-04-19T09:57:43.019Z</time></trkpt><trkpt lat="43.0464038" lon="13.0520353"><ele>470.33333333333337</ele><time>2026-04-19T09:57:44.019Z</time></trkpt><trkpt lat="43.0462052" lon="13.0520506"><ele>469.6666666666667</ele><time>2026-04-19T09:57:45.016Z</time></trkpt><trkpt lat="43.0460061" lon="13.052068"><ele>469.0</ele><time>2026-04-19T09:57:46.026Z</time></trkpt><trkpt lat="43.0458181" lon="13.0520601"><ele>468.6666666666667</ele><time>2026-04-19T09:57:47.011Z</time></trkpt><trkpt lat="43.0456379" lon="13.0520392"><ele>468.33333333333337</ele><time>2026-04-19T09:57:48.009Z</time></trkpt><trkpt lat="43.0454645" lon="13.0520026"><ele>468.0</ele><time>2026-04-19T09:57:49.022Z</time></trkpt><trkpt lat="43.0453047" lon="13.051942"><ele>468.0</ele><time>2026-04-19T09:57:50.01Z</time></trkpt><trkpt lat="43.0451464" lon="13.0518585"><ele>468.0</ele><time>2026-04-19T09:57:51.022Z</time></trkpt><trkpt lat="43.0449975" lon="13.051768"><ele>468.0</ele><time>2026-04-19T09:57:52.009Z</time></trkpt><trkpt lat="43.044849" lon="13.0516492"><ele>469.33333333333337</ele><time>2026-04-19T09:57:53.008Z</time></trkpt><trkpt lat="43.0447009" lon="13.0515339"><ele>470.6666666666667</ele><time>2026-04-19T09:57:54.006Z</time></trkpt><trkpt lat="43.044556" lon="13.0514157"><ele>472.0</ele><time>2026-04-19T09:57:55.005Z</time></trkpt><trkpt lat="43.0444107" lon="13.0512765"><ele>472.0</ele><time>2026-04-19T09:57:56.011Z</time></trkpt><trkpt lat="43.0442646" lon="13.0511412"><ele>472.0</ele><time>2026-04-19T09:57:57.013Z</time></trkpt><trkpt lat="43.0441144" lon="13.0510177"><ele>472.0</ele><time>2026-04-19T09:57:58.013Z</time></trkpt><trkpt lat="43.0439673" lon="13.0508926"><ele>471.6666666666667</ele><time>2026-04-19T09:57:59.014Z</time></trkpt><trkpt lat="43.0438171" lon="13.0507728"><ele>471.33333333333337</ele><time>2026-04-19T09:58:00.018Z</time></trkpt><trkpt lat="43.0436665" lon="13.050661"><ele>471.0</ele><time>2026-04-19T09:58:01.011Z</time></trkpt><trkpt lat="43.0435188" lon="13.0505444"><ele>471.0</ele><time>2026-04-19T09:58:02.012Z</time></trkpt><trkpt lat="43.0433787" lon="13.0504162"><ele>471.0</ele><time>2026-04-19T09:58:03.005Z</time></trkpt><trkpt lat="43.0432394" lon="13.0502922"><ele>471.0</ele><time>2026-04-19T09:58:04.012Z</time></trkpt><trkpt lat="43.0431148" lon="13.050171"><ele>471.0</ele><time>2026-04-19T09:58:05.007Z</time></trkpt><trkpt lat="43.0429903" lon="13.0500498"><ele>471.0</ele><time>2026-04-19T09:58:06.013Z</time></trkpt><trkpt lat="43.0428717" lon="13.0499398"><ele>471.0</ele><time>2026-04-19T09:58:07.009Z</time></trkpt><trkpt lat="43.042745" lon="13.0498423"><ele>471.0</ele><time>2026-04-19T09:58:08.003Z</time></trkpt><trkpt lat="43.042621" lon="13.0497385"><ele>471.25</ele><time>2026-04-19T09:58:09.015Z</time></trkpt><trkpt lat="43.0425071" lon="13.0496287"><ele>471.5</ele><time>2026-04-19T09:58:10.015Z</time></trkpt><trkpt lat="43.0423884" lon="13.0495245"><ele>471.75</ele><time>2026-04-19T09:58:11.008Z</time></trkpt><trkpt lat="43.0422737" lon="13.0494191"><ele>472.0</ele><time>2026-04-19T09:58:12.016Z</time></trkpt><trkpt lat="43.0421604" lon="13.0493149"><ele>472.0</ele><time>2026-04-19T09:58:13.014Z</time></trkpt><trkpt lat="43.0420506" lon="13.0492096"><ele>472.0</ele><time>2026-04-19T09:58:14.011Z</time></trkpt><trkpt lat="43.0419391" lon="13.0491034"><ele>472.0</ele><time>2026-04-19T09:58:15.014Z</time></trkpt><trkpt lat="43.041825" lon="13.0489886"><ele>472.0</ele><time>2026-04-19T09:58:16.026Z</time></trkpt><trkpt lat="43.0417138" lon="13.0488855"><ele>473.33333333333337</ele><time>2026-04-19T09:58:17.016Z</time></trkpt><trkpt lat="43.0415936" lon="13.0487571"><ele>474.66666666666663</ele><time>2026-04-19T09:58:18.012Z</time></trkpt><trkpt lat="43.0414724" lon="13.0486346"><ele>476.0</ele><time>2026-04-19T09:58:19.014Z</time></trkpt><trkpt lat="43.0413426" lon="13.0485168"><ele>476.0</ele><time>2026-04-19T09:58:20.027Z</time></trkpt><trkpt lat="43.0412158" lon="13.0483922"><ele>476.0</ele><time>2026-04-19T09:58:21.007Z</time></trkpt><trkpt lat="43.0410883" lon="13.0482606"><ele>476.0</ele><time>2026-04-19T09:58:22.015Z</time></trkpt><trkpt lat="43.0409506" lon="13.048131"><ele>475.66666666666663</ele><time>2026-04-19T09:58:23.008Z</time></trkpt><trkpt lat="43.0408091" lon="13.0480065"><ele>475.33333333333337</ele><time>2026-04-19T09:58:24.008Z</time></trkpt><trkpt lat="43.0406744" lon="13.0478867"><ele>475.0</ele><time>2026-04-19T09:58:25.007Z</time></trkpt><trkpt lat="43.0405356" lon="13.0477719"><ele>476.0</ele><time>2026-04-19T09:58:26.018Z</time></trkpt><trkpt lat="43.040398" lon="13.0476616"><ele>477.0</ele><time>2026-04-19T09:58:27.017Z</time></trkpt><trkpt lat="43.0402549" lon="13.0475555"><ele>478.0</ele><time>2026-04-19T09:58:28.012Z</time></trkpt><trkpt lat="43.0401124" lon="13.0474471"><ele>478.0</ele><time>2026-04-19T09:58:29.016Z</time></trkpt><trkpt lat="43.0399755" lon="13.0473318"><ele>478.0</ele><time>2026-04-19T09:58:30.013Z</time></trkpt><trkpt lat="43.0398406" lon="13.0472133"><ele>478.0</ele><time>2026-04-19T09:58:31.005Z</time></trkpt><trkpt lat="43.0396994" lon="13.047106"><ele>479.0</ele><time>2026-04-19T09:58:32.01Z</time></trkpt><trkpt lat="43.0395504" lon="13.0469956"><ele>480.0</ele><time>2026-04-19T09:58:33.011Z</time></trkpt><trkpt lat="43.0393989" lon="13.0468633"><ele>481.0</ele><time>2026-04-19T09:58:34.017Z</time></trkpt><trkpt lat="43.0392399" lon="13.0467309"><ele>480.33333333333337</ele><time>2026-04-19T09:58:35.003Z</time></trkpt><trkpt lat="43.0390889" lon="13.0466046"><ele>479.66666666666663</ele><time>2026-04-19T09:58:36.017Z</time></trkpt><trkpt lat="43.0389367" lon="13.0464594"><ele>479.0</ele><time>2026-04-19T09:58:37.013Z</time></trkpt><trkpt lat="43.0387879" lon="13.046312"><ele>479.0</ele><time>2026-04-19T09:58:38.008Z</time></trkpt><trkpt lat="43.0386384" lon="13.0461576"><ele>479.0</ele><time>2026-04-19T09:58:39.009Z</time></trkpt><trkpt lat="43.0384965" lon="13.0459879"><ele>479.0</ele><time>2026-04-19T09:58:40.009Z</time></trkpt><trkpt lat="43.0383598" lon="13.0458098"><ele>479.66666666666663</ele><time>2026-04-19T09:58:41.008Z</time></trkpt><trkpt lat="43.0382277" lon="13.045624"><ele>480.33333333333337</ele><time>2026-04-19T09:58:42.005Z</time></trkpt><trkpt lat="43.0381075" lon="13.0454319"><ele>481.0</ele><time>2026-04-19T09:58:43.008Z</time></trkpt><trkpt lat="43.0379993" lon="13.045241"><ele>481.0</ele><time>2026-04-19T09:58:44.003Z</time></trkpt><trkpt lat="43.0378971" lon="13.0450419"><ele>481.0</ele><time>2026-04-19T09:58:45.012Z</time></trkpt><trkpt lat="43.0378042" lon="13.0448333"><ele>481.0</ele><time>2026-04-19T09:58:46.014Z</time></trkpt><trkpt lat="43.0377177" lon="13.0446071"><ele>481.6666666666667</ele><time>2026-04-19T09:58:47.008Z</time></trkpt><trkpt lat="43.037642" lon="13.0443706"><ele>482.33333333333337</ele><time>2026-04-19T09:58:48.015Z</time></trkpt><trkpt lat="43.0375695" lon="13.0441294"><ele>483.0</ele><time>2026-04-19T09:58:49.013Z</time></trkpt><trkpt lat="43.0375004" lon="13.0439033"><ele>483.33333333333337</ele><time>2026-04-19T09:58:50.02Z</time></trkpt><trkpt lat="43.0374273" lon="13.0436725"><ele>483.6666666666667</ele><time>2026-04-19T09:58:51.035Z</time></trkpt><trkpt lat="43.0373557" lon="13.0434377"><ele>484.0</ele><time>2026-04-19T09:58:52.014Z</time></trkpt><trkpt lat="43.0372814" lon="13.0431959"><ele>484.6666666666667</ele><time>2026-04-19T09:58:53.016Z</time></trkpt><trkpt lat="43.0372189" lon="13.0429453"><ele>485.33333333333337</ele><time>2026-04-19T09:58:54.012Z</time></trkpt><trkpt lat="43.0371435" lon="13.0426964"><ele>486.0</ele><time>2026-04-19T09:58:55.014Z</time></trkpt><trkpt lat="43.0370718" lon="13.0424468"><ele>487.66666666666663</ele><time>2026-04-19T09:58:56.015Z</time></trkpt><trkpt lat="43.0369983" lon="13.0422002"><ele>489.3333333333333</ele><time>2026-04-19T09:58:57.013Z</time></trkpt><trkpt lat="43.0369063" lon="13.0419497"><ele>491.0</ele><time>2026-04-19T09:58:58.008Z</time></trkpt><trkpt lat="43.0368044" lon="13.0417055"><ele>493.0</ele><time>2026-04-19T09:58:59.014Z</time></trkpt><trkpt lat="43.036701" lon="13.0414653"><ele>495.0</ele><time>2026-04-19T09:59:00.01Z</time></trkpt><trkpt lat="43.0365943" lon="13.0412169"><ele>497.0</ele><time>2026-04-19T09:59:01.013Z</time></trkpt><trkpt lat="43.0364807" lon="13.0409912"><ele>496.66666666666663</ele><time>2026-04-19T09:59:02.011Z</time></trkpt><trkpt lat="43.0363667" lon="13.040756"><ele>496.33333333333337</ele><time>2026-04-19T09:59:03.011Z</time></trkpt><trkpt lat="43.0362581" lon="13.0405252"><ele>496.0</ele><time>2026-04-19T09:59:04.006Z</time></trkpt><trkpt lat="43.036152" lon="13.0403059"><ele>496.0</ele><time>2026-04-19T09:59:05.01Z</time></trkpt><trkpt lat="43.0360476" lon="13.0400903"><ele>496.0</ele><time>2026-04-19T09:59:06.009Z</time></trkpt><trkpt lat="43.0359439" lon="13.0398639"><ele>496.0</ele><time>2026-04-19T09:59:07.02Z</time></trkpt><trkpt lat="43.0358428" lon="13.039649"><ele>495.0</ele><time>2026-04-19T09:59:08.015Z</time></trkpt><trkpt lat="43.0357404" lon="13.0394257"><ele>494.0</ele><time>2026-04-19T09:59:09.012Z</time></trkpt><trkpt lat="43.0356327" lon="13.0391982"><ele>493.0</ele><time>2026-04-19T09:59:10.013Z</time></trkpt><trkpt lat="43.035519" lon="13.0389741"><ele>496.0</ele><time>2026-04-19T09:59:11.009Z</time></trkpt><trkpt lat="43.0353983" lon="13.0387395"><ele>499.0</ele><time>2026-04-19T09:59:12.005Z</time></trkpt><trkpt lat="43.0352572" lon="13.0385078"><ele>502.0</ele><time>2026-04-19T09:59:13.006Z</time></trkpt><trkpt lat="43.0351117" lon="13.0382686"><ele>500.5</ele><time>2026-04-19T09:59:14.007Z</time></trkpt><trkpt lat="43.0349598" lon="13.0380361"><ele>499.0</ele><time>2026-04-19T09:59:15.01Z</time></trkpt><trkpt lat="43.0348103" lon="13.0378103"><ele>499.0</ele><time>2026-04-19T09:59:16.011Z</time></trkpt><trkpt lat="43.0346687" lon="13.0375914"><ele>499.0</ele><time>2026-04-19T09:59:17.002Z</time></trkpt><trkpt lat="43.034522" lon="13.0373741"><ele>499.0</ele><time>2026-04-19T09:59:18.002Z</time></trkpt><trkpt lat="43.034361" lon="13.0372022"><ele>502.0</ele><time>2026-04-19T09:59:18.995Z</time></trkpt><trkpt lat="43.0341744" lon="13.0370764"><ele>505.0</ele><time>2026-04-19T09:59:20.006Z</time></trkpt><trkpt lat="43.0339286" lon="13.0370194"><ele>505.0</ele><time>2026-04-19T09:59:21.004Z</time></trkpt><trkpt lat="43.0336364" lon="13.0369941"><ele>505.0</ele><time>2026-04-19T09:59:22.01Z</time></trkpt><trkpt lat="43.0333549" lon="13.0369631"><ele>502.5</ele><time>2026-04-19T09:59:22.998Z</time></trkpt><trkpt lat="43.0330782" lon="13.0369003"><ele>500.0</ele><time>2026-04-19T09:59:24.011Z</time></trkpt><trkpt lat="43.0328022" lon="13.0368235"><ele>500.0</ele><time>2026-04-19T09:59:25.007Z</time></trkpt><trkpt lat="43.0325374" lon="13.0367483"><ele>500.0</ele><time>2026-04-19T09:59:26.011Z</time></trkpt><trkpt lat="43.0322891" lon="13.0366779"><ele>503.5</ele><time>2026-04-19T09:59:27.012Z</time></trkpt><trkpt lat="43.0320554" lon="13.0366103"><ele>507.0</ele><time>2026-04-19T09:59:28.009Z</time></trkpt><trkpt lat="43.0318341" lon="13.0365168"><ele>504.5</ele><time>2026-04-19T09:59:29.017Z</time></trkpt><trkpt lat="43.0316264" lon="13.0363684"><ele>502.0</ele><time>2026-04-19T09:59:30.014Z</time></trkpt><trkpt lat="43.0314581" lon="13.0361405"><ele>502.0</ele><time>2026-04-19T09:59:31.005Z</time></trkpt><trkpt lat="43.0313296" lon="13.0358608"><ele>502.0</ele><time>2026-04-19T09:59:31.994Z</time></trkpt><trkpt lat="43.0311792" lon="13.0355625"><ele>502.5</ele><time>2026-04-19T09:59:33.005Z</time></trkpt><trkpt lat="43.0309953" lon="13.035294"><ele>503.0</ele><time>2026-04-19T09:59:34.01Z</time></trkpt><trkpt lat="43.030769" lon="13.0350553"><ele>512.0</ele><time>2026-04-19T09:59:35.014Z</time></trkpt><trkpt lat="43.0305256" lon="13.0348805"><ele>521.0</ele><time>2026-04-19T09:59:36.01Z</time></trkpt><trkpt lat="43.0302527" lon="13.0347343"><ele>519.5</ele><time>2026-04-19T09:59:37.006Z</time></trkpt><trkpt lat="43.0299689" lon="13.0346212"><ele>518.0</ele><time>2026-04-19T09:59:38.002Z</time></trkpt><trkpt lat="43.0296678" lon="13.0345402"><ele>518.0</ele><time>2026-04-19T09:59:39.008Z</time></trkpt><trkpt lat="43.0293647" lon="13.0344862"><ele>518.0</ele><time>2026-04-19T09:59:40.007Z</time></trkpt><trkpt lat="43.0290557" lon="13.0344149"><ele>517.5</ele><time>2026-04-19T09:59:40.994Z</time></trkpt><trkpt lat="43.0287682" lon="13.0343531"><ele>517.0</ele><time>2026-04-19T09:59:41.998Z</time></trkpt><trkpt lat="43.0284587" lon="13.0342056"><ele>533.5</ele><time>2026-04-19T09:59:42.999Z</time></trkpt><trkpt lat="43.0281518" lon="13.0340989"><ele>550.0</ele><time>2026-04-19T09:59:43.987Z</time></trkpt><trkpt lat="43.0278887" lon="13.0340694"><ele>550.0</ele><time>2026-04-19T09:59:44.984Z</time></trkpt><trkpt lat="43.0276011" lon="13.0340199"><ele>550.0</ele><time>2026-04-19T09:59:45.991Z</time></trkpt><trkpt lat="43.0273057" lon="13.0340178"><ele>551.5</ele><time>2026-04-19T09:59:46.981Z</time></trkpt><trkpt lat="43.0270234" lon="13.0340644"><ele>553.0</ele><time>2026-04-19T09:59:47.978Z</time></trkpt><trkpt lat="43.0267354" lon="13.0341166"><ele>533.5</ele><time>2026-04-19T09:59:48.981Z</time></trkpt><trkpt lat="43.0264674" lon="13.0342095"><ele>514.0</ele><time>2026-04-19T09:59:49.99Z</time></trkpt><trkpt lat="43.0262344" lon="13.0342367"><ele>514.0</ele><time>2026-04-19T09:59:50.987Z</time></trkpt><trkpt lat="43.0260046" lon="13.0342042"><ele>514.0</ele><time>2026-04-19T09:59:51.982Z</time></trkpt><trkpt lat="43.0257579" lon="13.0340783"><ele>518.0</ele><time>2026-04-19T09:59:52.995Z</time></trkpt><trkpt lat="43.0254974" lon="13.0339647"><ele>522.0</ele><time>2026-04-19T09:59:53.981Z</time></trkpt><trkpt lat="43.0252143" lon="13.03392"><ele>528.0</ele><time>2026-04-19T09:59:54.997Z</time></trkpt><trkpt lat="43.0249118" lon="13.0338992"><ele>534.0</ele><time>2026-04-19T09:59:55.985Z</time></trkpt><trkpt lat="43.0246384" lon="13.0338789"><ele>534.0</ele><time>2026-04-19T09:59:56.983Z</time></trkpt><trkpt lat="43.0243782" lon="13.0338617"><ele>534.0</ele><time>2026-04-19T09:59:57.982Z</time></trkpt><trkpt lat="43.0241395" lon="13.0338296"><ele>533.0</ele><time>2026-04-19T09:59:58.976Z</time></trkpt><trkpt lat="43.0239155" lon="13.0337676"><ele>532.0</ele><time>2026-04-19T09:59:59.973Z</time></trkpt><trkpt lat="43.0236919" lon="13.0336565"><ele>532.0</ele><time>2026-04-19T10:00:00.977Z</time></trkpt><trkpt lat="43.0235061" lon="13.0334471"><ele>532.0</ele><time>2026-04-19T10:00:01.974Z</time></trkpt><trkpt lat="43.023276" lon="13.0333287"><ele>556.0</ele><time>2026-04-19T10:00:02.966Z</time></trkpt><trkpt lat="43.0230459" lon="13.0332403"><ele>580.0</ele><time>2026-04-19T10:00:03.977Z</time></trkpt><trkpt lat="43.0227773" lon="13.0332589"><ele>580.0</ele><time>2026-04-19T10:00:04.975Z</time></trkpt><trkpt lat="43.0225242" lon="13.0332922"><ele>580.0</ele><time>2026-04-19T10:00:05.974Z</time></trkpt><trkpt lat="43.0222844" lon="13.0334307"><ele>559.0</ele><time>2026-04-19T10:00:06.979Z</time></trkpt><trkpt lat="43.0220724" lon="13.0335922"><ele>538.0</ele><time>2026-04-19T10:00:07.971Z</time></trkpt><trkpt lat="43.0218748" lon="13.033803"><ele>538.0</ele><time>2026-04-19T10:00:08.973Z</time></trkpt><trkpt lat="43.0216971" lon="13.034083"><ele>538.0</ele><time>2026-04-19T10:00:09.982Z</time></trkpt><trkpt lat="43.0215327" lon="13.034404"><ele>528.5</ele><time>2026-04-19T10:00:10.986Z</time></trkpt><trkpt lat="43.02137" lon="13.0347335"><ele>519.0</ele><time>2026-04-19T10:00:11.988Z</time></trkpt><trkpt lat="43.0212104" lon="13.0350412"><ele>519.0</ele><time>2026-04-19T10:00:12.982Z</time></trkpt><trkpt lat="43.0210547" lon="13.0353243"><ele>519.0</ele><time>2026-04-19T10:00:13.986Z</time></trkpt><trkpt lat="43.0209093" lon="13.0356067"><ele>525.5</ele><time>2026-04-19T10:00:14.979Z</time></trkpt><trkpt lat="43.0207931" lon="13.0358764"><ele>532.0</ele><time>2026-04-19T10:00:15.977Z</time></trkpt><trkpt lat="43.0207202" lon="13.0361616"><ele>532.0</ele><time>2026-04-19T10:00:16.987Z</time></trkpt><trkpt lat="43.0207505" lon="13.0364959"><ele>532.0</ele><time>2026-04-19T10:00:17.978Z</time></trkpt><trkpt lat="43.0207856" lon="13.0368142"><ele>529.5</ele><time>2026-04-19T10:00:18.982Z</time></trkpt><trkpt lat="43.0207882" lon="13.0371214"><ele>527.0</ele><time>2026-04-19T10:00:19.978Z</time></trkpt><trkpt lat="43.0207468" lon="13.0374392"><ele>525.5</ele><time>2026-04-19T10:00:20.977Z</time></trkpt><trkpt lat="43.0206004" lon="13.0376708"><ele>524.0</ele><time>2026-04-19T10:00:21.979Z</time></trkpt><trkpt lat="43.0204689" lon="13.03793"><ele>524.0</ele><time>2026-04-19T10:00:22.976Z</time></trkpt><trkpt lat="43.020389" lon="13.038233"><ele>524.0</ele><time>2026-04-19T10:00:24.005Z</time></trkpt><trkpt lat="43.0203486" lon="13.038523"><ele>524.0</ele><time>2026-04-19T10:00:24.982Z</time></trkpt><trkpt lat="43.0203301" lon="13.0388146"><ele>524.0</ele><time>2026-04-19T10:00:25.984Z</time></trkpt><trkpt lat="43.0203206" lon="13.0390952"><ele>524.0</ele><time>2026-04-19T10:00:26.989Z</time></trkpt><trkpt lat="43.0203503" lon="13.0393624"><ele>523.6666666666666</ele><time>2026-04-19T10:00:27.989Z</time></trkpt><trkpt lat="43.020444" lon="13.0396298"><ele>523.3333333333334</ele><time>2026-04-19T10:00:28.992Z</time></trkpt><trkpt lat="43.020557" lon="13.0398957"><ele>523.0</ele><time>2026-04-19T10:00:29.982Z</time></trkpt><trkpt lat="43.020693" lon="13.0401605"><ele>533.0</ele><time>2026-04-19T10:00:30.981Z</time></trkpt><trkpt lat="43.0208372" lon="13.0404092"><ele>543.0</ele><time>2026-04-19T10:00:31.991Z</time></trkpt><trkpt lat="43.0209514" lon="13.0406823"><ele>537.5</ele><time>2026-04-19T10:00:32.985Z</time></trkpt><trkpt lat="43.0210435" lon="13.0410043"><ele>532.0</ele><time>2026-04-19T10:00:33.995Z</time></trkpt><trkpt lat="43.0211417" lon="13.041289"><ele>532.0</ele><time>2026-04-19T10:00:34.984Z</time></trkpt><trkpt lat="43.0212086" lon="13.0415744"><ele>532.0</ele><time>2026-04-19T10:00:35.989Z</time></trkpt><trkpt lat="43.0212326" lon="13.041931"><ele>532.0</ele><time>2026-04-19T10:00:36.99Z</time></trkpt><trkpt lat="43.0212488" lon="13.042253"><ele>532.0</ele><time>2026-04-19T10:00:37.982Z</time></trkpt><trkpt lat="43.021203" lon="13.0425437"><ele>531.3333333333334</ele><time>2026-04-19T10:00:38.985Z</time></trkpt><trkpt lat="43.0211345" lon="13.0427918"><ele>530.6666666666666</ele><time>2026-04-19T10:00:39.991Z</time></trkpt><trkpt lat="43.0209907" lon="13.0430314"><ele>530.0</ele><time>2026-04-19T10:00:40.981Z</time></trkpt><trkpt lat="43.0208138" lon="13.0432515"><ele>540.0</ele><time>2026-04-19T10:00:41.987Z</time></trkpt><trkpt lat="43.0206575" lon="13.0434805"><ele>550.0</ele><time>2026-04-19T10:00:42.976Z</time></trkpt><trkpt lat="43.0205253" lon="13.0437455"><ele>550.0</ele><time>2026-04-19T10:00:43.974Z</time></trkpt><trkpt lat="43.0204618" lon="13.0440469"><ele>550.0</ele><time>2026-04-19T10:00:44.978Z</time></trkpt><trkpt lat="43.0204247" lon="13.0443667"><ele>545.3333333333334</ele><time>2026-04-19T10:00:45.975Z</time></trkpt><trkpt lat="43.0203955" lon="13.0446758"><ele>540.6666666666666</ele><time>2026-04-19T10:00:46.983Z</time></trkpt><trkpt lat="43.0203582" lon="13.0449655"><ele>536.0</ele><time>2026-04-19T10:00:47.974Z</time></trkpt><trkpt lat="43.0203071" lon="13.0452384"><ele>534.5</ele><time>2026-04-19T10:00:48.978Z</time></trkpt><trkpt lat="43.0202159" lon="13.0454965"><ele>533.0</ele><time>2026-04-19T10:00:49.983Z</time></trkpt><trkpt lat="43.0200805" lon="13.0457716"><ele>537.5</ele><time>2026-04-19T10:00:50.99Z</time></trkpt><trkpt lat="43.0199182" lon="13.0460607"><ele>542.0</ele><time>2026-04-19T10:00:51.976Z</time></trkpt><trkpt lat="43.0197359" lon="13.0463341"><ele>542.0</ele><time>2026-04-19T10:00:52.984Z</time></trkpt><trkpt lat="43.0195704" lon="13.0466251"><ele>542.0</ele><time>2026-04-19T10:00:53.989Z</time></trkpt><trkpt lat="43.0194205" lon="13.0469199"><ele>544.0</ele><time>2026-04-19T10:00:54.996Z</time></trkpt><trkpt lat="43.0192739" lon="13.0471953"><ele>546.0</ele><time>2026-04-19T10:00:55.985Z</time></trkpt><trkpt lat="43.019128" lon="13.0474478"><ele>540.0</ele><time>2026-04-19T10:00:56.987Z</time></trkpt><trkpt lat="43.0189608" lon="13.04769"><ele>534.0</ele><time>2026-04-19T10:00:57.978Z</time></trkpt><trkpt lat="43.018756" lon="13.0478793"><ele>534.0</ele><time>2026-04-19T10:00:58.975Z</time></trkpt><trkpt lat="43.0185396" lon="13.0480126"><ele>534.0</ele><time>2026-04-19T10:00:59.976Z</time></trkpt><trkpt lat="43.0183288" lon="13.0481059"><ele>536.3333333333334</ele><time>2026-04-19T10:01:00.979Z</time></trkpt><trkpt lat="43.0181496" lon="13.0481815"><ele>538.6666666666667</ele><time>2026-04-19T10:01:01.989Z</time></trkpt><trkpt lat="43.0179863" lon="13.048244"><ele>541.0</ele><time>2026-04-19T10:01:02.976Z</time></trkpt><trkpt lat="43.0178376" lon="13.0482782"><ele>541.0</ele><time>2026-04-19T10:01:03.998Z</time></trkpt><trkpt lat="43.0176925" lon="13.0482235"><ele>541.0</ele><time>2026-04-19T10:01:04.991Z</time></trkpt><trkpt lat="43.0175584" lon="13.0480965"><ele>541.0</ele><time>2026-04-19T10:01:05.993Z</time></trkpt><trkpt lat="43.0174516" lon="13.0479358"><ele>543.0</ele><time>2026-04-19T10:01:06.989Z</time></trkpt><trkpt lat="43.0173136" lon="13.0477775"><ele>545.0</ele><time>2026-04-19T10:01:07.991Z</time></trkpt><trkpt lat="43.017186" lon="13.0476297"><ele>547.0</ele><time>2026-04-19T10:01:08.991Z</time></trkpt><trkpt lat="43.0170619" lon="13.0475502"><ele>547.0</ele><time>2026-04-19T10:01:09.999Z</time></trkpt><trkpt lat="43.0168916" lon="13.0475344"><ele>547.0</ele><time>2026-04-19T10:01:10.987Z</time></trkpt><trkpt lat="43.0167111" lon="13.0475485"><ele>547.0</ele><time>2026-04-19T10:01:11.983Z</time></trkpt><trkpt lat="43.0165075" lon="13.0475728"><ele>546.0</ele><time>2026-04-19T10:01:12.978Z</time></trkpt><trkpt lat="43.016304" lon="13.0475515"><ele>545.0</ele><time>2026-04-19T10:01:13.976Z</time></trkpt><trkpt lat="43.0161187" lon="13.047481"><ele>544.0</ele><time>2026-04-19T10:01:14.975Z</time></trkpt><trkpt lat="43.0159579" lon="13.0473767"><ele>545.0</ele><time>2026-04-19T10:01:15.982Z</time></trkpt><trkpt lat="43.0158115" lon="13.0472526"><ele>546.0</ele><time>2026-04-19T10:01:16.977Z</time></trkpt><trkpt lat="43.015676" lon="13.0471189"><ele>547.0</ele><time>2026-04-19T10:01:17.979Z</time></trkpt><trkpt lat="43.0155296" lon="13.046956"><ele>547.0</ele><time>2026-04-19T10:01:18.975Z</time></trkpt><trkpt lat="43.0153918" lon="13.0467812"><ele>547.0</ele><time>2026-04-19T10:01:19.983Z</time></trkpt><trkpt lat="43.0152483" lon="13.0466434"><ele>547.0</ele><time>2026-04-19T10:01:20.983Z</time></trkpt><trkpt lat="43.0150861" lon="13.0465636"><ele>547.3333333333334</ele><time>2026-04-19T10:01:21.981Z</time></trkpt><trkpt lat="43.0149286" lon="13.0464785"><ele>547.6666666666666</ele><time>2026-04-19T10:01:22.993Z</time></trkpt><trkpt lat="43.0147579" lon="13.046473"><ele>548.0</ele><time>2026-04-19T10:01:23.994Z</time></trkpt><trkpt lat="43.0145706" lon="13.0465096"><ele>548.0</ele><time>2026-04-19T10:01:24.984Z</time></trkpt><trkpt lat="43.0143852" lon="13.0465493"><ele>548.0</ele><time>2026-04-19T10:01:25.991Z</time></trkpt><trkpt lat="43.0142105" lon="13.0465562"><ele>548.0</ele><time>2026-04-19T10:01:26.977Z</time></trkpt><trkpt lat="43.0140442" lon="13.0465112"><ele>551.3333333333333</ele><time>2026-04-19T10:01:27.982Z</time></trkpt><trkpt lat="43.013892" lon="13.0464226"><ele>554.6666666666666</ele><time>2026-04-19T10:01:28.982Z</time></trkpt><trkpt lat="43.013748" lon="13.0462861"><ele>558.0</ele><time>2026-04-19T10:01:29.987Z</time></trkpt><trkpt lat="43.0136152" lon="13.0461151"><ele>558.0</ele><time>2026-04-19T10:01:30.984Z</time></trkpt><trkpt lat="43.0134565" lon="13.0458852"><ele>558.0</ele><time>2026-04-19T10:01:31.977Z</time></trkpt><trkpt lat="43.0133666" lon="13.0457698"><ele>558.0</ele><time>2026-04-19T10:01:32.976Z</time></trkpt><trkpt lat="43.0133139" lon="13.0456744"><ele>558.0</ele><time>2026-04-19T10:01:33.977Z</time></trkpt><trkpt lat="43.0132587" lon="13.0455184"><ele>557.0</ele><time>2026-04-19T10:01:34.98Z</time></trkpt><trkpt lat="43.0131674" lon="13.0453908"><ele>556.0</ele><time>2026-04-19T10:01:35.977Z</time></trkpt><trkpt lat="43.0130678" lon="13.0452877"><ele>555.0</ele><time>2026-04-19T10:01:36.981Z</time></trkpt><trkpt lat="43.0129615" lon="13.0452029"><ele>554.0</ele><time>2026-04-19T10:01:37.971Z</time></trkpt><trkpt lat="43.0128271" lon="13.0451445"><ele>554.0</ele><time>2026-04-19T10:01:38.973Z</time></trkpt><trkpt lat="43.0126725" lon="13.0450774"><ele>554.0</ele><time>2026-04-19T10:01:39.981Z</time></trkpt><trkpt lat="43.0125292" lon="13.0450045"><ele>554.0</ele><time>2026-04-19T10:01:40.984Z</time></trkpt><trkpt lat="43.0123824" lon="13.0449567"><ele>554.3333333333333</ele><time>2026-04-19T10:01:41.992Z</time></trkpt><trkpt lat="43.0122207" lon="13.0449668"><ele>554.6666666666666</ele><time>2026-04-19T10:01:42.986Z</time></trkpt><trkpt lat="43.0120722" lon="13.0450283"><ele>555.0</ele><time>2026-04-19T10:01:43.993Z</time></trkpt><trkpt lat="43.011941" lon="13.0451202"><ele>555.0</ele><time>2026-04-19T10:01:44.981Z</time></trkpt><trkpt lat="43.0118051" lon="13.0452735"><ele>555.0</ele><time>2026-04-19T10:01:45.982Z</time></trkpt><trkpt lat="43.0116709" lon="13.0455282"><ele>555.0</ele><time>2026-04-19T10:01:46.991Z</time></trkpt><trkpt lat="43.011542" lon="13.0458292"><ele>555.0</ele><time>2026-04-19T10:01:47.986Z</time></trkpt><trkpt lat="43.0113816" lon="13.0461123"><ele>555.0</ele><time>2026-04-19T10:01:48.99Z</time></trkpt><trkpt lat="43.0112061" lon="13.0464207"><ele>551.5</ele><time>2026-04-19T10:01:49.993Z</time></trkpt><trkpt lat="43.0110237" lon="13.0467264"><ele>548.0</ele><time>2026-04-19T10:01:51.003Z</time></trkpt><trkpt lat="43.010845" lon="13.0470217"><ele>548.5</ele><time>2026-04-19T10:01:52.003Z</time></trkpt><trkpt lat="43.0106814" lon="13.0473028"><ele>549.0</ele><time>2026-04-19T10:01:53.007Z</time></trkpt><trkpt lat="43.0105265" lon="13.047563"><ele>550.0</ele><time>2026-04-19T10:01:54.005Z</time></trkpt><trkpt lat="43.0103312" lon="13.0477377"><ele>551.0</ele><time>2026-04-19T10:01:55.009Z</time></trkpt><trkpt lat="43.0100858" lon="13.0478363"><ele>552.0</ele><time>2026-04-19T10:01:56.003Z</time></trkpt><trkpt lat="43.0097976" lon="13.0479017"><ele>553.0</ele><time>2026-04-19T10:01:57.015Z</time></trkpt><trkpt lat="43.0095048" lon="13.0479909"><ele>553.0</ele><time>2026-04-19T10:01:57.996Z</time></trkpt><trkpt lat="43.0091847" lon="13.0480836"><ele>553.0</ele><time>2026-04-19T10:01:59.005Z</time></trkpt><trkpt lat="43.0088511" lon="13.0481836"><ele>553.0</ele><time>2026-04-19T10:02:00.002Z</time></trkpt><trkpt lat="43.0085257" lon="13.0482853"><ele>553.0</ele><time>2026-04-19T10:02:00.996Z</time></trkpt><trkpt lat="43.0082345" lon="13.0483856"><ele>555.5</ele><time>2026-04-19T10:02:02.004Z</time></trkpt><trkpt lat="43.0079584" lon="13.0484919"><ele>558.0</ele><time>2026-04-19T10:02:02.994Z</time></trkpt><trkpt lat="43.0076721" lon="13.0485617"><ele>557.5</ele><time>2026-04-19T10:02:03.99Z</time></trkpt><trkpt lat="43.0073769" lon="13.0486079"><ele>557.0</ele><time>2026-04-19T10:02:04.994Z</time></trkpt><trkpt lat="43.0070837" lon="13.0486504"><ele>557.0</ele><time>2026-04-19T10:02:05.991Z</time></trkpt><trkpt lat="43.0067916" lon="13.0487009"><ele>557.0</ele><time>2026-04-19T10:02:06.998Z</time></trkpt><trkpt lat="43.0065021" lon="13.0487517"><ele>558.5</ele><time>2026-04-19T10:02:07.993Z</time></trkpt><trkpt lat="43.0062188" lon="13.0488116"><ele>560.0</ele><time>2026-04-19T10:02:08.99Z</time></trkpt><trkpt lat="43.0059231" lon="13.0488877"><ele>560.0</ele><time>2026-04-19T10:02:09.993Z</time></trkpt><trkpt lat="43.0056405" lon="13.0489958"><ele>560.0</ele><time>2026-04-19T10:02:10.99Z</time></trkpt><trkpt lat="43.0053614" lon="13.0491057"><ele>561.0</ele><time>2026-04-19T10:02:11.995Z</time></trkpt><trkpt lat="43.0050843" lon="13.0492331"><ele>562.0</ele><time>2026-04-19T10:02:12.992Z</time></trkpt><trkpt lat="43.0048162" lon="13.0493493"><ele>562.0</ele><time>2026-04-19T10:02:13.988Z</time></trkpt><trkpt lat="43.004545" lon="13.0494709"><ele>562.0</ele><time>2026-04-19T10:02:14.997Z</time></trkpt><trkpt lat="43.0042759" lon="13.0495977"><ele>564.0</ele><time>2026-04-19T10:02:16.003Z</time></trkpt><trkpt lat="43.0040179" lon="13.0497295"><ele>566.0</ele><time>2026-04-19T10:02:17.001Z</time></trkpt><trkpt lat="43.0037601" lon="13.0498937"><ele>566.0</ele><time>2026-04-19T10:02:18.002Z</time></trkpt><trkpt lat="43.0035144" lon="13.050069"><ele>566.0</ele><time>2026-04-19T10:02:19.01Z</time></trkpt><trkpt lat="43.0032792" lon="13.0502523"><ele>566.5</ele><time>2026-04-19T10:02:20.004Z</time></trkpt><trkpt lat="43.0030381" lon="13.0504286"><ele>567.0</ele><time>2026-04-19T10:02:21.002Z</time></trkpt><trkpt lat="43.0028054" lon="13.0506078"><ele>567.0</ele><time>2026-04-19T10:02:21.989Z</time></trkpt><trkpt lat="43.00259" lon="13.0507799"><ele>567.0</ele><time>2026-04-19T10:02:22.997Z</time></trkpt><trkpt lat="43.0023889" lon="13.0509477"><ele>567.0</ele><time>2026-04-19T10:02:23.998Z</time></trkpt><trkpt lat="43.0021998" lon="13.0510984"><ele>567.0</ele><time>2026-04-19T10:02:24.986Z</time></trkpt><trkpt lat="43.0020297" lon="13.0512505"><ele>567.0</ele><time>2026-04-19T10:02:25.999Z</time></trkpt><trkpt lat="43.0018669" lon="13.0513914"><ele>567.0</ele><time>2026-04-19T10:02:26.991Z</time></trkpt><trkpt lat="43.001721" lon="13.0515362"><ele>567.0</ele><time>2026-04-19T10:02:28.005Z</time></trkpt><trkpt lat="43.0015685" lon="13.0516793"><ele>567.0</ele><time>2026-04-19T10:02:29.005Z</time></trkpt><trkpt lat="43.0014072" lon="13.0518306"><ele>567.0</ele><time>2026-04-19T10:02:30.001Z</time></trkpt><trkpt lat="43.001252" lon="13.0519866"><ele>567.0</ele><time>2026-04-19T10:02:30.999Z</time></trkpt><trkpt lat="43.0010953" lon="13.0521447"><ele>567.0</ele><time>2026-04-19T10:02:32.009Z</time></trkpt><trkpt lat="43.0009383" lon="13.0523045"><ele>568.3333333333334</ele><time>2026-04-19T10:02:33.004Z</time></trkpt><trkpt lat="43.0007877" lon="13.0524659"><ele>569.6666666666667</ele><time>2026-04-19T10:02:34.005Z</time></trkpt><trkpt lat="43.0006391" lon="13.0526294"><ele>571.0</ele><time>2026-04-19T10:02:35Z</time></trkpt><trkpt lat="43.0004725" lon="13.0527917"><ele>571.0</ele><time>2026-04-19T10:02:35.999Z</time></trkpt><trkpt lat="43.0003005" lon="13.0529552"><ele>571.0</ele><time>2026-04-19T10:02:36.999Z</time></trkpt><trkpt lat="43.0001411" lon="13.0531363"><ele>571.0</ele><time>2026-04-19T10:02:37.994Z</time></trkpt><trkpt lat="43.0000096" lon="13.0533235"><ele>572.0</ele><time>2026-04-19T10:02:38.994Z</time></trkpt><trkpt lat="42.9998981" lon="13.0535008"><ele>573.0</ele><time>2026-04-19T10:02:39.997Z</time></trkpt><trkpt lat="42.9997888" lon="13.0536713"><ele>574.0</ele><time>2026-04-19T10:02:40.992Z</time></trkpt><trkpt lat="42.9996737" lon="13.0538324"><ele>574.0</ele><time>2026-04-19T10:02:42.002Z</time></trkpt><trkpt lat="42.9995625" lon="13.0540028"><ele>574.0</ele><time>2026-04-19T10:02:42.99Z</time></trkpt><trkpt lat="42.9994494" lon="13.0541735"><ele>574.0</ele><time>2026-04-19T10:02:44.003Z</time></trkpt><trkpt lat="42.9993248" lon="13.0543577"><ele>574.0</ele><time>2026-04-19T10:02:44.99Z</time></trkpt><trkpt lat="42.9991929" lon="13.0545652"><ele>574.0</ele><time>2026-04-19T10:02:45.998Z</time></trkpt><trkpt lat="42.9990562" lon="13.0547846"><ele>574.0</ele><time>2026-04-19T10:02:46.992Z</time></trkpt><trkpt lat="42.9989199" lon="13.0550185"><ele>578.0</ele><time>2026-04-19T10:02:47.995Z</time></trkpt><trkpt lat="42.9987711" lon="13.0552428"><ele>582.0</ele><time>2026-04-19T10:02:48.996Z</time></trkpt><trkpt lat="42.9986269" lon="13.0554892"><ele>582.0</ele><time>2026-04-19T10:02:49.999Z</time></trkpt><trkpt lat="42.9984829" lon="13.0557232"><ele>582.0</ele><time>2026-04-19T10:02:50.999Z</time></trkpt><trkpt lat="42.9983321" lon="13.0559648"><ele>581.0</ele><time>2026-04-19T10:02:51.999Z</time></trkpt><trkpt lat="42.998179" lon="13.0561952"><ele>580.0</ele><time>2026-04-19T10:02:52.998Z</time></trkpt><trkpt lat="42.9980367" lon="13.0564346"><ele>583.5</ele><time>2026-04-19T10:02:53.999Z</time></trkpt><trkpt lat="42.9978894" lon="13.0566806"><ele>587.0</ele><time>2026-04-19T10:02:54.999Z</time></trkpt><trkpt lat="42.9977397" lon="13.0569315"><ele>587.0</ele><time>2026-04-19T10:02:56Z</time></trkpt><trkpt lat="42.9975957" lon="13.0572015"><ele>587.0</ele><time>2026-04-19T10:02:57.003Z</time></trkpt><trkpt lat="42.9974641" lon="13.0574974"><ele>583.5</ele><time>2026-04-19T10:02:58.011Z</time></trkpt><trkpt lat="42.9973438" lon="13.0578345"><ele>580.0</ele><time>2026-04-19T10:02:59.017Z</time></trkpt><trkpt lat="42.9972161" lon="13.058177"><ele>580.5</ele><time>2026-04-19T10:03:00.002Z</time></trkpt><trkpt lat="42.9970778" lon="13.0585358"><ele>581.0</ele><time>2026-04-19T10:03:01.007Z</time></trkpt><trkpt lat="42.9969344" lon="13.0588865"><ele>581.5</ele><time>2026-04-19T10:03:02.004Z</time></trkpt><trkpt lat="42.9967935" lon="13.0592415"><ele>582.0</ele><time>2026-04-19T10:03:03.006Z</time></trkpt><trkpt lat="42.9966621" lon="13.0595876"><ele>583.0</ele><time>2026-04-19T10:03:04.005Z</time></trkpt><trkpt lat="42.9965614" lon="13.0599653"><ele>584.0</ele><time>2026-04-19T10:03:05.007Z</time></trkpt><trkpt lat="42.9965067" lon="13.0603592"><ele>584.0</ele><time>2026-04-19T10:03:06.008Z</time></trkpt><trkpt lat="42.9964832" lon="13.0607578"><ele>584.0</ele><time>2026-04-19T10:03:07.006Z</time></trkpt><trkpt lat="42.9964783" lon="13.0611791"><ele>587.5</ele><time>2026-04-19T10:03:08.004Z</time></trkpt><trkpt lat="42.9965024" lon="13.0616091"><ele>591.0</ele><time>2026-04-19T10:03:09.001Z</time></trkpt><trkpt lat="42.9965491" lon="13.0620494"><ele>592.0</ele><time>2026-04-19T10:03:10Z</time></trkpt><trkpt lat="42.9966028" lon="13.0624761"><ele>593.0</ele><time>2026-04-19T10:03:11.001Z</time></trkpt><trkpt lat="42.9966549" lon="13.0628947"><ele>596.0</ele><time>2026-04-19T10:03:12.009Z</time></trkpt><trkpt lat="42.9967073" lon="13.063309"><ele>599.0</ele><time>2026-04-19T10:03:13.008Z</time></trkpt><trkpt lat="42.9967556" lon="13.0637181"><ele>600.5</ele><time>2026-04-19T10:03:14.01Z</time></trkpt><trkpt lat="42.9967883" lon="13.0641151"><ele>602.0</ele><time>2026-04-19T10:03:15.011Z</time></trkpt><trkpt lat="42.9968072" lon="13.0645184"><ele>602.0</ele><time>2026-04-19T10:03:16.011Z</time></trkpt><trkpt lat="42.9967749" lon="13.0649214"><ele>602.0</ele><time>2026-04-19T10:03:17.006Z</time></trkpt><trkpt lat="42.9967095" lon="13.0653321"><ele>601.0</ele><time>2026-04-19T10:03:18.006Z</time></trkpt><trkpt lat="42.996604" lon="13.0657253"><ele>600.0</ele><time>2026-04-19T10:03:19.004Z</time></trkpt><trkpt lat="42.9964556" lon="13.066107"><ele>600.0</ele><time>2026-04-19T10:03:20.007Z</time></trkpt><trkpt lat="42.9962816" lon="13.0664664"><ele>600.0</ele><time>2026-04-19T10:03:20.996Z</time></trkpt><trkpt lat="42.9961011" lon="13.0668068"><ele>603.5</ele><time>2026-04-19T10:03:21.99Z</time></trkpt><trkpt lat="42.9959056" lon="13.0671307"><ele>607.0</ele><time>2026-04-19T10:03:22.99Z</time></trkpt><trkpt lat="42.9956912" lon="13.0674486"><ele>607.0</ele><time>2026-04-19T10:03:24.001Z</time></trkpt><trkpt lat="42.9954761" lon="13.067774"><ele>607.0</ele><time>2026-04-19T10:03:24.998Z</time></trkpt><trkpt lat="42.9952709" lon="13.0680922"><ele>606.5</ele><time>2026-04-19T10:03:26.002Z</time></trkpt><trkpt lat="42.9950786" lon="13.0684055"><ele>606.0</ele><time>2026-04-19T10:03:26.998Z</time></trkpt><trkpt lat="42.9948933" lon="13.0687121"><ele>606.0</ele><time>2026-04-19T10:03:28.004Z</time></trkpt><trkpt lat="42.9947065" lon="13.069003"><ele>606.0</ele><time>2026-04-19T10:03:29.003Z</time></trkpt><trkpt lat="42.9945237" lon="13.0692855"><ele>607.0</ele><time>2026-04-19T10:03:30.015Z</time></trkpt><trkpt lat="42.9943329" lon="13.0695505"><ele>608.0</ele><time>2026-04-19T10:03:31Z</time></trkpt><trkpt lat="42.9941174" lon="13.0697986"><ele>614.5</ele><time>2026-04-19T10:03:31.996Z</time></trkpt><trkpt lat="42.9938863" lon="13.0700349"><ele>621.0</ele><time>2026-04-19T10:03:32.999Z</time></trkpt><trkpt lat="42.9936611" lon="13.0702446"><ele>621.0</ele><time>2026-04-19T10:03:33.997Z</time></trkpt><trkpt lat="42.9934441" lon="13.0704131"><ele>621.0</ele><time>2026-04-19T10:03:34.995Z</time></trkpt><trkpt lat="42.9932228" lon="13.0705708"><ele>623.5</ele><time>2026-04-19T10:03:35.997Z</time></trkpt><trkpt lat="42.9930036" lon="13.0707006"><ele>626.0</ele><time>2026-04-19T10:03:36.991Z</time></trkpt><trkpt lat="42.9927722" lon="13.0708225"><ele>626.0</ele><time>2026-04-19T10:03:37.999Z</time></trkpt><trkpt lat="42.9925489" lon="13.0709612"><ele>626.0</ele><time>2026-04-19T10:03:38.988Z</time></trkpt><trkpt lat="42.9923198" lon="13.0710923"><ele>621.0</ele><time>2026-04-19T10:03:39.997Z</time></trkpt><trkpt lat="42.9920893" lon="13.0712218"><ele>616.0</ele><time>2026-04-19T10:03:41Z</time></trkpt><trkpt lat="42.9918431" lon="13.0713549"><ele>615.0</ele><time>2026-04-19T10:03:41.999Z</time></trkpt><trkpt lat="42.991591" lon="13.0714913"><ele>614.0</ele><time>2026-04-19T10:03:43.004Z</time></trkpt><trkpt lat="42.9913336" lon="13.0716347"><ele>621.0</ele><time>2026-04-19T10:03:44.005Z</time></trkpt><trkpt lat="42.9910735" lon="13.0717983"><ele>628.0</ele><time>2026-04-19T10:03:44.999Z</time></trkpt><trkpt lat="42.9908177" lon="13.0719879"><ele>628.0</ele><time>2026-04-19T10:03:46.012Z</time></trkpt><trkpt lat="42.9905733" lon="13.0722106"><ele>628.0</ele><time>2026-04-19T10:03:47.006Z</time></trkpt><trkpt lat="42.9903246" lon="13.0724535"><ele>630.0</ele><time>2026-04-19T10:03:48.003Z</time></trkpt><trkpt lat="42.9900703" lon="13.0727107"><ele>632.0</ele><time>2026-04-19T10:03:49.005Z</time></trkpt><trkpt lat="42.9898199" lon="13.0729716"><ele>632.0</ele><time>2026-04-19T10:03:49.999Z</time></trkpt><trkpt lat="42.9895807" lon="13.0732287"><ele>632.0</ele><time>2026-04-19T10:03:51.012Z</time></trkpt><trkpt lat="42.9893359" lon="13.0734876"><ele>631.5</ele><time>2026-04-19T10:03:52.008Z</time></trkpt><trkpt lat="42.989083" lon="13.0737269"><ele>631.0</ele><time>2026-04-19T10:03:53.016Z</time></trkpt><trkpt lat="42.9888264" lon="13.0739554"><ele>639.0</ele><time>2026-04-19T10:03:54.016Z</time></trkpt><trkpt lat="42.9885536" lon="13.0741512"><ele>647.0</ele><time>2026-04-19T10:03:54.995Z</time></trkpt><trkpt lat="42.9882605" lon="13.0743072"><ele>647.0</ele><time>2026-04-19T10:03:55.998Z</time></trkpt><trkpt lat="42.9879545" lon="13.0744429"><ele>647.0</ele><time>2026-04-19T10:03:56.996Z</time></trkpt><trkpt lat="42.9876421" lon="13.0745611"><ele>642.5</ele><time>2026-04-19T10:03:57.992Z</time></trkpt><trkpt lat="42.9873382" lon="13.0746893"><ele>638.0</ele><time>2026-04-19T10:03:58.992Z</time></trkpt><trkpt lat="42.9870351" lon="13.0748375"><ele>644.5</ele><time>2026-04-19T10:03:59.984Z</time></trkpt><trkpt lat="42.9867464" lon="13.075002"><ele>651.0</ele><time>2026-04-19T10:04:01.002Z</time></trkpt><trkpt lat="42.9864531" lon="13.0751607"><ele>651.0</ele><time>2026-04-19T10:04:01.993Z</time></trkpt><trkpt lat="42.9861624" lon="13.0752931"><ele>651.0</ele><time>2026-04-19T10:04:02.989Z</time></trkpt><trkpt lat="42.9858811" lon="13.0753874"><ele>652.0</ele><time>2026-04-19T10:04:03.997Z</time></trkpt><trkpt lat="42.9855805" lon="13.0754588"><ele>653.0</ele><time>2026-04-19T10:04:04.994Z</time></trkpt><trkpt lat="42.985267" lon="13.0755128"><ele>652.5</ele><time>2026-04-19T10:04:05.994Z</time></trkpt><trkpt lat="42.9849452" lon="13.0755651"><ele>652.0</ele><time>2026-04-19T10:04:06.995Z</time></trkpt><trkpt lat="42.9846231" lon="13.0756261"><ele>652.0</ele><time>2026-04-19T10:04:07.996Z</time></trkpt><trkpt lat="42.9843081" lon="13.0756882"><ele>652.0</ele><time>2026-04-19T10:04:08.995Z</time></trkpt><trkpt lat="42.983983" lon="13.0757589"><ele>663.5</ele><time>2026-04-19T10:04:10.001Z</time></trkpt><trkpt lat="42.9836637" lon="13.0758188"><ele>675.0</ele><time>2026-04-19T10:04:10.997Z</time></trkpt><trkpt lat="42.9833429" lon="13.0758784"><ele>675.0</ele><time>2026-04-19T10:04:11.999Z</time></trkpt><trkpt lat="42.9830212" lon="13.0759413"><ele>675.0</ele><time>2026-04-19T10:04:12.994Z</time></trkpt><trkpt lat="42.9826944" lon="13.0760054"><ele>674.0</ele><time>2026-04-19T10:04:13.986Z</time></trkpt><trkpt lat="42.9823752" lon="13.0760938"><ele>673.0</ele><time>2026-04-19T10:04:14.99Z</time></trkpt><trkpt lat="42.9820477" lon="13.0761581"><ele>673.0</ele><time>2026-04-19T10:04:15.993Z</time></trkpt><trkpt lat="42.9817335" lon="13.0762357"><ele>673.0</ele><time>2026-04-19T10:04:16.999Z</time></trkpt><trkpt lat="42.9814307" lon="13.0763117"><ele>674.0</ele><time>2026-04-19T10:04:17.999Z</time></trkpt><trkpt lat="42.9811343" lon="13.0763783"><ele>675.0</ele><time>2026-04-19T10:04:18.993Z</time></trkpt><trkpt lat="42.9808409" lon="13.0764366"><ele>672.5</ele><time>2026-04-19T10:04:19.998Z</time></trkpt><trkpt lat="42.9805571" lon="13.0764785"><ele>670.0</ele><time>2026-04-19T10:04:20.993Z</time></trkpt><trkpt lat="42.9802665" lon="13.0764742"><ele>674.5</ele><time>2026-04-19T10:04:22.002Z</time></trkpt><trkpt lat="42.9799814" lon="13.0763879"><ele>679.0</ele><time>2026-04-19T10:04:22.994Z</time></trkpt><trkpt lat="42.9796932" lon="13.0762767"><ele>679.0</ele><time>2026-04-19T10:04:23.995Z</time></trkpt><trkpt lat="42.9794176" lon="13.0761401"><ele>679.0</ele><time>2026-04-19T10:04:25.002Z</time></trkpt><trkpt lat="42.9791449" lon="13.07601"><ele>688.0</ele><time>2026-04-19T10:04:26.007Z</time></trkpt><trkpt lat="42.9788585" lon="13.0759241"><ele>697.0</ele><time>2026-04-19T10:04:27.007Z</time></trkpt><trkpt lat="42.9785619" lon="13.0758825"><ele>701.5</ele><time>2026-04-19T10:04:28.011Z</time></trkpt><trkpt lat="42.9782761" lon="13.0758957"><ele>706.0</ele><time>2026-04-19T10:04:29.012Z</time></trkpt><trkpt lat="42.9779862" lon="13.0759495"><ele>706.0</ele><time>2026-04-19T10:04:30.007Z</time></trkpt><trkpt lat="42.9777019" lon="13.076068"><ele>706.0</ele><time>2026-04-19T10:04:31.015Z</time></trkpt><trkpt lat="42.977424" lon="13.0762121"><ele>701.5</ele><time>2026-04-19T10:04:31.996Z</time></trkpt><trkpt lat="42.9771508" lon="13.0763828"><ele>697.0</ele><time>2026-04-19T10:04:32.996Z</time></trkpt><trkpt lat="42.976864" lon="13.0765616"><ele>703.0</ele><time>2026-04-19T10:04:33.999Z</time></trkpt><trkpt lat="42.9765742" lon="13.0767268"><ele>709.0</ele><time>2026-04-19T10:04:35.002Z</time></trkpt><trkpt lat="42.9762858" lon="13.0768874"><ele>709.0</ele><time>2026-04-19T10:04:36.007Z</time></trkpt><trkpt lat="42.9759964" lon="13.0770472"><ele>709.0</ele><time>2026-04-19T10:04:37.015Z</time></trkpt><trkpt lat="42.9757136" lon="13.0772109"><ele>715.0</ele><time>2026-04-19T10:04:38.011Z</time></trkpt><trkpt lat="42.975439" lon="13.0773667"><ele>721.0</ele><time>2026-04-19T10:04:39.009Z</time></trkpt><trkpt lat="42.9751746" lon="13.0775008"><ele>725.0</ele><time>2026-04-19T10:04:40.007Z</time></trkpt><trkpt lat="42.9749079" lon="13.0776084"><ele>729.0</ele><time>2026-04-19T10:04:40.996Z</time></trkpt><trkpt lat="42.9746389" lon="13.077679"><ele>729.0</ele><time>2026-04-19T10:04:41.989Z</time></trkpt><trkpt lat="42.9743625" lon="13.0776942"><ele>729.0</ele><time>2026-04-19T10:04:42.991Z</time></trkpt><trkpt lat="42.9740788" lon="13.0776482"><ele>728.5</ele><time>2026-04-19T10:04:43.988Z</time></trkpt><trkpt lat="42.9738038" lon="13.0775247"><ele>728.0</ele><time>2026-04-19T10:04:44.992Z</time></trkpt><trkpt lat="42.9735463" lon="13.0773859"><ele>728.5</ele><time>2026-04-19T10:04:45.994Z</time></trkpt><trkpt lat="42.9732865" lon="13.077196"><ele>729.0</ele><time>2026-04-19T10:04:47.001Z</time></trkpt><trkpt lat="42.9730345" lon="13.0769925"><ele>729.0</ele><time>2026-04-19T10:04:47.995Z</time></trkpt><trkpt lat="42.9727678" lon="13.0767961"><ele>729.0</ele><time>2026-04-19T10:04:48.997Z</time></trkpt><trkpt lat="42.9725066" lon="13.0766296"><ele>738.5</ele><time>2026-04-19T10:04:50Z</time></trkpt><trkpt lat="42.9722467" lon="13.0765078"><ele>748.0</ele><time>2026-04-19T10:04:51.005Z</time></trkpt><trkpt lat="42.9719773" lon="13.0764361"><ele>748.0</ele><time>2026-04-19T10:04:52Z</time></trkpt><trkpt lat="42.9717053" lon="13.0764247"><ele>748.0</ele><time>2026-04-19T10:04:53.006Z</time></trkpt><trkpt lat="42.9714315" lon="13.0764629"><ele>747.5</ele><time>2026-04-19T10:04:54.005Z</time></trkpt><trkpt lat="42.9711534" lon="13.0765374"><ele>747.0</ele><time>2026-04-19T10:04:55.002Z</time></trkpt><trkpt lat="42.9708688" lon="13.0766574"><ele>752.0</ele><time>2026-04-19T10:04:56.007Z</time></trkpt><trkpt lat="42.9706046" lon="13.0768092"><ele>757.0</ele><time>2026-04-19T10:04:57.001Z</time></trkpt><trkpt lat="42.9703446" lon="13.0769719"><ele>757.0</ele><time>2026-04-19T10:04:57.993Z</time></trkpt><trkpt lat="42.9700703" lon="13.0771473"><ele>757.0</ele><time>2026-04-19T10:04:59Z</time></trkpt><trkpt lat="42.9697955" lon="13.0773164"><ele>758.5</ele><time>2026-04-19T10:04:59.993Z</time></trkpt><trkpt lat="42.9695261" lon="13.0774694"><ele>760.0</ele><time>2026-04-19T10:05:00.998Z</time></trkpt><trkpt lat="42.969261" lon="13.0776205"><ele>763.5</ele><time>2026-04-19T10:05:02.008Z</time></trkpt><trkpt lat="42.9690043" lon="13.0777731"><ele>767.0</ele><time>2026-04-19T10:05:02.998Z</time></trkpt><trkpt lat="42.9687499" lon="13.0779276"><ele>767.0</ele><time>2026-04-19T10:05:04.004Z</time></trkpt><trkpt lat="42.9684997" lon="13.0780875"><ele>767.0</ele><time>2026-04-19T10:05:04.998Z</time></trkpt><trkpt lat="42.9682545" lon="13.0782496"><ele>770.5</ele><time>2026-04-19T10:05:05.998Z</time></trkpt><trkpt lat="42.9680081" lon="13.078396"><ele>774.0</ele><time>2026-04-19T10:05:07.005Z</time></trkpt><trkpt lat="42.9677798" lon="13.078529"><ele>774.0</ele><time>2026-04-19T10:05:07.995Z</time></trkpt><trkpt lat="42.9675617" lon="13.0786478"><ele>774.0</ele><time>2026-04-19T10:05:08.997Z</time></trkpt><trkpt lat="42.9673581" lon="13.0787625"><ele>776.6666666666667</ele><time>2026-04-19T10:05:09.988Z</time></trkpt><trkpt lat="42.9671764" lon="13.0788656"><ele>779.3333333333334</ele><time>2026-04-19T10:05:10.991Z</time></trkpt><trkpt lat="42.9670171" lon="13.0789617"><ele>782.0</ele><time>2026-04-19T10:05:11.991Z</time></trkpt><trkpt lat="42.9668783" lon="13.0790484"><ele>783.0</ele><time>2026-04-19T10:05:12.985Z</time></trkpt><trkpt lat="42.9667561" lon="13.0791265"><ele>784.0</ele><time>2026-04-19T10:05:13.983Z</time></trkpt><trkpt lat="42.9666364" lon="13.0792071"><ele>785.0</ele><time>2026-04-19T10:05:14.969Z</time></trkpt><trkpt lat="42.9665069" lon="13.0792807"><ele>786.0</ele><time>2026-04-19T10:05:15.97Z</time></trkpt><trkpt lat="42.9663679" lon="13.0793512"><ele>788.5</ele><time>2026-04-19T10:05:16.962Z</time></trkpt><trkpt lat="42.9662484" lon="13.0794194"><ele>791.0</ele><time>2026-04-19T10:05:17.95Z</time></trkpt><trkpt lat="42.966122" lon="13.0794926"><ele>793.5</ele><time>2026-04-19T10:05:18.942Z</time></trkpt><trkpt lat="42.9660068" lon="13.0795665"><ele>796.0</ele><time>2026-04-19T10:05:19.927Z</time></trkpt><trkpt lat="42.9658917" lon="13.0796403"><ele>785.0</ele><time>2026-04-19T10:05:20.908Z</time></trkpt><trkpt lat="42.9624035" lon="13.0811705"><ele>785.0</ele><time>2026-04-19T10:05:45.072Z</time></trkpt><trkpt lat="42.962184" lon="13.0811417"><ele>785.0</ele><time>2026-04-19T10:05:46.048Z</time></trkpt><trkpt lat="42.9620573" lon="13.0811491"><ele>785.0</ele><time>2026-04-19T10:05:46.975Z</time></trkpt><trkpt lat="42.9618853" lon="13.081131"><ele>785.0</ele><time>2026-04-19T10:05:47.987Z</time></trkpt><trkpt lat="42.961704" lon="13.0811351"><ele>785.0</ele><time>2026-04-19T10:05:48.982Z</time></trkpt><trkpt lat="42.9615316" lon="13.0811508"><ele>785.0</ele><time>2026-04-19T10:05:49.987Z</time></trkpt><trkpt lat="42.9613437" lon="13.0811569"><ele>786.3333333333334</ele><time>2026-04-19T10:05:50.984Z</time></trkpt><trkpt lat="42.9611635" lon="13.0811925"><ele>787.6666666666667</ele><time>2026-04-19T10:05:51.987Z</time></trkpt><trkpt lat="42.9609769" lon="13.0812443"><ele>789.0</ele><time>2026-04-19T10:05:52.986Z</time></trkpt><trkpt lat="42.9608066" lon="13.0813005"><ele>789.3333333333333</ele><time>2026-04-19T10:05:53.988Z</time></trkpt><trkpt lat="42.9606365" lon="13.0813846"><ele>789.6666666666666</ele><time>2026-04-19T10:05:54.981Z</time></trkpt><trkpt lat="42.9604716" lon="13.0814986"><ele>790.0</ele><time>2026-04-19T10:05:55.992Z</time></trkpt><trkpt lat="42.9603025" lon="13.0816392"><ele>781.0</ele><time>2026-04-19T10:05:56.995Z</time></trkpt><trkpt lat="42.9601178" lon="13.0817705"><ele>772.0</ele><time>2026-04-19T10:05:57.992Z</time></trkpt><trkpt lat="42.9599447" lon="13.0818888"><ele>763.0</ele><time>2026-04-19T10:05:58.998Z</time></trkpt><trkpt lat="42.9597781" lon="13.0819926"><ele>759.3333333333334</ele><time>2026-04-19T10:05:59.998Z</time></trkpt><trkpt lat="42.9596237" lon="13.0821088"><ele>755.6666666666666</ele><time>2026-04-19T10:06:01.001Z</time></trkpt><trkpt lat="42.9594667" lon="13.0822416"><ele>752.0</ele><time>2026-04-19T10:06:01.997Z</time></trkpt><trkpt lat="42.959306" lon="13.0823916"><ele>750.3333333333333</ele><time>2026-04-19T10:06:02.998Z</time></trkpt><trkpt lat="42.9591324" lon="13.0825337"><ele>748.6666666666666</ele><time>2026-04-19T10:06:04.002Z</time></trkpt><trkpt lat="42.958943" lon="13.0826684"><ele>747.0</ele><time>2026-04-19T10:06:04.996Z</time></trkpt><trkpt lat="42.9587461" lon="13.0828017"><ele>747.0</ele><time>2026-04-19T10:06:05.994Z</time></trkpt><trkpt lat="42.9585651" lon="13.0829693"><ele>747.0</ele><time>2026-04-19T10:06:06.99Z</time></trkpt><trkpt lat="42.9584004" lon="13.0831607"><ele>747.0</ele><time>2026-04-19T10:06:07.986Z</time></trkpt><trkpt lat="42.9582609" lon="13.0833709"><ele>747.6666666666666</ele><time>2026-04-19T10:06:08.979Z</time></trkpt><trkpt lat="42.9581333" lon="13.0835703"><ele>748.3333333333333</ele><time>2026-04-19T10:06:09.979Z</time></trkpt><trkpt lat="42.9579922" lon="13.0837423"><ele>749.0</ele><time>2026-04-19T10:06:10.982Z</time></trkpt><trkpt lat="42.9578353" lon="13.08384"><ele>749.0</ele><time>2026-04-19T10:06:11.99Z</time></trkpt><trkpt lat="42.9576669" lon="13.0838819"><ele>749.0</ele><time>2026-04-19T10:06:12.983Z</time></trkpt><trkpt lat="42.9574891" lon="13.0838393"><ele>749.0</ele><time>2026-04-19T10:06:13.987Z</time></trkpt><trkpt lat="42.9573137" lon="13.0837223"><ele>746.0</ele><time>2026-04-19T10:06:14.979Z</time></trkpt><trkpt lat="42.9571561" lon="13.0835301"><ele>743.0</ele><time>2026-04-19T10:06:15.985Z</time></trkpt><trkpt lat="42.9570382" lon="13.0833086"><ele>740.0</ele><time>2026-04-19T10:06:16.98Z</time></trkpt><trkpt lat="42.9569134" lon="13.0830918"><ele>735.0</ele><time>2026-04-19T10:06:17.973Z</time></trkpt><trkpt lat="42.9567982" lon="13.0829053"><ele>730.0</ele><time>2026-04-19T10:06:18.985Z</time></trkpt><trkpt lat="42.9566684" lon="13.0828043"><ele>725.0</ele><time>2026-04-19T10:06:19.992Z</time></trkpt><trkpt lat="42.9565303" lon="13.0827796"><ele>722.3333333333333</ele><time>2026-04-19T10:06:20.987Z</time></trkpt><trkpt lat="42.9563738" lon="13.0828487"><ele>719.6666666666666</ele><time>2026-04-19T10:06:21.983Z</time></trkpt><trkpt lat="42.9562175" lon="13.0829842"><ele>717.0</ele><time>2026-04-19T10:06:22.983Z</time></trkpt><trkpt lat="42.9560718" lon="13.08319"><ele>725.3333333333334</ele><time>2026-04-19T10:06:23.987Z</time></trkpt><trkpt lat="42.9559646" lon="13.0834177"><ele>733.6666666666667</ele><time>2026-04-19T10:06:24.991Z</time></trkpt><trkpt lat="42.9559124" lon="13.0836554"><ele>742.0</ele><time>2026-04-19T10:06:25.987Z</time></trkpt><trkpt lat="42.9559159" lon="13.0838758"><ele>742.0</ele><time>2026-04-19T10:06:26.985Z</time></trkpt><trkpt lat="42.9559381" lon="13.0840566"><ele>742.0</ele><time>2026-04-19T10:06:27.993Z</time></trkpt><trkpt lat="42.9560012" lon="13.0842519"><ele>742.0</ele><time>2026-04-19T10:06:28.996Z</time></trkpt><trkpt lat="42.9560938" lon="13.0844255"><ele>742.0</ele><time>2026-04-19T10:06:29.977Z</time></trkpt><trkpt lat="42.9562067" lon="13.0845438"><ele>742.8</ele><time>2026-04-19T10:06:30.983Z</time></trkpt><trkpt lat="42.9562883" lon="13.0846512"><ele>743.6</ele><time>2026-04-19T10:06:31.988Z</time></trkpt><trkpt lat="42.9563393" lon="13.084782"><ele>744.4</ele><time>2026-04-19T10:06:32.981Z</time></trkpt><trkpt lat="42.9563126" lon="13.084918"><ele>745.1999999999999</ele><time>2026-04-19T10:06:33.987Z</time></trkpt><trkpt lat="42.9562263" lon="13.0850061"><ele>746.0</ele><time>2026-04-19T10:06:34.988Z</time></trkpt><trkpt lat="42.9561071" lon="13.0850442"><ele>746.0</ele><time>2026-04-19T10:06:35.979Z</time></trkpt><trkpt lat="42.9559584" lon="13.0850694"><ele>746.0</ele><time>2026-04-19T10:06:36.972Z</time></trkpt><trkpt lat="42.9557999" lon="13.0851147"><ele>746.0</ele><time>2026-04-19T10:06:37.97Z</time></trkpt><trkpt lat="42.9556512" lon="13.0851606"><ele>739.0</ele><time>2026-04-19T10:06:38.972Z</time></trkpt><trkpt lat="42.9555162" lon="13.085143"><ele>732.0</ele><time>2026-04-19T10:06:39.975Z</time></trkpt><trkpt lat="42.9553936" lon="13.0850338"><ele>725.0</ele><time>2026-04-19T10:06:40.978Z</time></trkpt><trkpt lat="42.9552775" lon="13.0848487"><ele>723.6666666666666</ele><time>2026-04-19T10:06:41.977Z</time></trkpt><trkpt lat="42.9551541" lon="13.0846568"><ele>722.3333333333334</ele><time>2026-04-19T10:06:42.976Z</time></trkpt><trkpt lat="42.9550092" lon="13.0844619"><ele>721.0</ele><time>2026-04-19T10:06:43.97Z</time></trkpt><trkpt lat="42.9548828" lon="13.0842559"><ele>713.6666666666667</ele><time>2026-04-19T10:06:44.972Z</time></trkpt><trkpt lat="42.954785" lon="13.0840147"><ele>706.3333333333334</ele><time>2026-04-19T10:06:45.973Z</time></trkpt><trkpt lat="42.9547347" lon="13.0837516"><ele>699.0</ele><time>2026-04-19T10:06:46.973Z</time></trkpt><trkpt lat="42.9546755" lon="13.0835118"><ele>699.0</ele><time>2026-04-19T10:06:47.972Z</time></trkpt><trkpt lat="42.9545866" lon="13.0833225"><ele>699.0</ele><time>2026-04-19T10:06:48.976Z</time></trkpt><trkpt lat="42.9544372" lon="13.0832479"><ele>699.0</ele><time>2026-04-19T10:06:49.98Z</time></trkpt><trkpt lat="42.9542367" lon="13.0832686"><ele>699.0</ele><time>2026-04-19T10:06:50.983Z</time></trkpt><trkpt lat="42.9540311" lon="13.0833456"><ele>699.0</ele><time>2026-04-19T10:06:51.989Z</time></trkpt><trkpt lat="42.9538153" lon="13.0834097"><ele>699.0</ele><time>2026-04-19T10:06:52.985Z</time></trkpt><trkpt lat="42.9536107" lon="13.0833991"><ele>699.0</ele><time>2026-04-19T10:06:53.987Z</time></trkpt><trkpt lat="42.9533993" lon="13.083305"><ele>699.0</ele><time>2026-04-19T10:06:54.984Z</time></trkpt><trkpt lat="42.9531777" lon="13.0831735"><ele>695.0</ele><time>2026-04-19T10:06:55.98Z</time></trkpt><trkpt lat="42.9529631" lon="13.0830821"><ele>691.0</ele><time>2026-04-19T10:06:56.984Z</time></trkpt><trkpt lat="42.9527585" lon="13.0830442"><ele>687.0</ele><time>2026-04-19T10:06:57.983Z</time></trkpt><trkpt lat="42.9525404" lon="13.083086"><ele>683.5</ele><time>2026-04-19T10:06:58.994Z</time></trkpt><trkpt lat="42.9523175" lon="13.0831702"><ele>680.0</ele><time>2026-04-19T10:06:59.966Z</time></trkpt><trkpt lat="42.9520761" lon="13.0832642"><ele>683.0</ele><time>2026-04-19T10:07:00.989Z</time></trkpt><trkpt lat="42.9518181" lon="13.0833319"><ele>686.0</ele><time>2026-04-19T10:07:01.978Z</time></trkpt><trkpt lat="42.9515643" lon="13.0833737"><ele>686.0</ele><time>2026-04-19T10:07:02.976Z</time></trkpt><trkpt lat="42.9513203" lon="13.0833699"><ele>686.0</ele><time>2026-04-19T10:07:03.978Z</time></trkpt><trkpt lat="42.9510978" lon="13.0833101"><ele>686.0</ele><time>2026-04-19T10:07:04.975Z</time></trkpt><trkpt lat="42.9508848" lon="13.0832666"><ele>686.0</ele><time>2026-04-19T10:07:05.99Z</time></trkpt><trkpt lat="42.9506677" lon="13.0832686"><ele>686.0</ele><time>2026-04-19T10:07:06.984Z</time></trkpt><trkpt lat="42.9504574" lon="13.0833417"><ele>684.3333333333333</ele><time>2026-04-19T10:07:07.978Z</time></trkpt><trkpt lat="42.9502379" lon="13.0834031"><ele>682.6666666666666</ele><time>2026-04-19T10:07:08.981Z</time></trkpt><trkpt lat="42.9500252" lon="13.0834189"><ele>681.0</ele><time>2026-04-19T10:07:09.981Z</time></trkpt><trkpt lat="42.9498131" lon="13.083429"><ele>677.6666666666666</ele><time>2026-04-19T10:07:10.976Z</time></trkpt><trkpt lat="42.9496012" lon="13.0834883"><ele>674.3333333333333</ele><time>2026-04-19T10:07:11.984Z</time></trkpt><trkpt lat="42.9494079" lon="13.0836127"><ele>671.0</ele><time>2026-04-19T10:07:12.976Z</time></trkpt><trkpt lat="42.9492309" lon="13.0837709"><ele>668.6666666666666</ele><time>2026-04-19T10:07:13.976Z</time></trkpt><trkpt lat="42.9490498" lon="13.0839132"><ele>666.3333333333334</ele><time>2026-04-19T10:07:14.979Z</time></trkpt><trkpt lat="42.948844" lon="13.0840013"><ele>664.0</ele><time>2026-04-19T10:07:15.98Z</time></trkpt><trkpt lat="42.9486037" lon="13.0840358"><ele>659.5</ele><time>2026-04-19T10:07:16.974Z</time></trkpt><trkpt lat="42.94836" lon="13.0840704"><ele>655.0</ele><time>2026-04-19T10:07:17.976Z</time></trkpt><trkpt lat="42.9481189" lon="13.0840715"><ele>655.0</ele><time>2026-04-19T10:07:18.976Z</time></trkpt><trkpt lat="42.9478879" lon="13.0840389"><ele>655.0</ele><time>2026-04-19T10:07:19.984Z</time></trkpt><trkpt lat="42.9476834" lon="13.0839437"><ele>655.0</ele><time>2026-04-19T10:07:20.976Z</time></trkpt><trkpt lat="42.947497" lon="13.0838048"><ele>654.3333333333334</ele><time>2026-04-19T10:07:21.977Z</time></trkpt><trkpt lat="42.9473116" lon="13.0836808"><ele>653.6666666666666</ele><time>2026-04-19T10:07:22.983Z</time></trkpt><trkpt lat="42.9471359" lon="13.0835749"><ele>653.0</ele><time>2026-04-19T10:07:23.983Z</time></trkpt><trkpt lat="42.9469768" lon="13.0834846"><ele>653.0</ele><time>2026-04-19T10:07:24.981Z</time></trkpt><trkpt lat="42.9468568" lon="13.0834219"><ele>653.0</ele><time>2026-04-19T10:07:25.983Z</time></trkpt><trkpt lat="42.9467516" lon="13.0833706"><ele>653.0</ele><time>2026-04-19T10:07:26.984Z</time></trkpt><trkpt lat="42.9466571" lon="13.083323"><ele>653.0</ele><time>2026-04-19T10:07:27.985Z</time></trkpt><trkpt lat="42.946556" lon="13.0832835"><ele>653.0</ele><time>2026-04-19T10:07:28.988Z</time></trkpt><trkpt lat="42.9464488" lon="13.0832495"><ele>652.25</ele><time>2026-04-19T10:07:29.986Z</time></trkpt><trkpt lat="42.9463305" lon="13.0832309"><ele>651.5</ele><time>2026-04-19T10:07:30.988Z</time></trkpt><trkpt lat="42.9461968" lon="13.0832332"><ele>650.75</ele><time>2026-04-19T10:07:31.982Z</time></trkpt><trkpt lat="42.9460527" lon="13.0832488"><ele>650.0</ele><time>2026-04-19T10:07:32.984Z</time></trkpt><trkpt lat="42.9459004" lon="13.0832737"><ele>649.0</ele><time>2026-04-19T10:07:33.982Z</time></trkpt><trkpt lat="42.9457354" lon="13.0832955"><ele>648.0</ele><time>2026-04-19T10:07:34.982Z</time></trkpt><trkpt lat="42.9455615" lon="13.0833113"><ele>647.0</ele><time>2026-04-19T10:07:35.985Z</time></trkpt><trkpt lat="42.9453909" lon="13.0833347"><ele>647.0</ele><time>2026-04-19T10:07:36.997Z</time></trkpt><trkpt lat="42.9452226" lon="13.0833441"><ele>647.0</ele><time>2026-04-19T10:07:37.984Z</time></trkpt><trkpt lat="42.9450499" lon="13.0833522"><ele>647.0</ele><time>2026-04-19T10:07:38.984Z</time></trkpt><trkpt lat="42.9448703" lon="13.0833837"><ele>646.0</ele><time>2026-04-19T10:07:39.987Z</time></trkpt><trkpt lat="42.9446951" lon="13.0834124"><ele>645.0</ele><time>2026-04-19T10:07:40.987Z</time></trkpt><trkpt lat="42.9445205" lon="13.0834322"><ele>644.0</ele><time>2026-04-19T10:07:41.998Z</time></trkpt><trkpt lat="42.9443456" lon="13.0834549"><ele>642.6666666666666</ele><time>2026-04-19T10:07:42.992Z</time></trkpt><trkpt lat="42.9441807" lon="13.0834625"><ele>641.3333333333334</ele><time>2026-04-19T10:07:43.99Z</time></trkpt><trkpt lat="42.944026" lon="13.0834659"><ele>640.0</ele><time>2026-04-19T10:07:44.994Z</time></trkpt><trkpt lat="42.9438869" lon="13.0834784"><ele>640.0</ele><time>2026-04-19T10:07:46Z</time></trkpt><trkpt lat="42.9437623" lon="13.0834936"><ele>640.0</ele><time>2026-04-19T10:07:46.991Z</time></trkpt><trkpt lat="42.9436449" lon="13.0835039"><ele>640.0</ele><time>2026-04-19T10:07:47.99Z</time></trkpt><trkpt lat="42.9435309" lon="13.0835111"><ele>640.0</ele><time>2026-04-19T10:07:48.988Z</time></trkpt><trkpt lat="42.9434193" lon="13.0835254"><ele>639.4</ele><time>2026-04-19T10:07:49.995Z</time></trkpt><trkpt lat="42.9433043" lon="13.08355"><ele>638.8</ele><time>2026-04-19T10:07:50.991Z</time></trkpt><trkpt lat="42.9431959" lon="13.0835555"><ele>638.2</ele><time>2026-04-19T10:07:51.99Z</time></trkpt><trkpt lat="42.9430935" lon="13.0835468"><ele>637.6</ele><time>2026-04-19T10:07:52.995Z</time></trkpt><trkpt lat="42.9430011" lon="13.0835461"><ele>637.0</ele><time>2026-04-19T10:07:53.994Z</time></trkpt><trkpt lat="42.942904" lon="13.0835507"><ele>637.0</ele><time>2026-04-19T10:07:54.988Z</time></trkpt><trkpt lat="42.9428061" lon="13.0835485"><ele>637.0</ele><time>2026-04-19T10:07:55.993Z</time></trkpt><trkpt lat="42.9426977" lon="13.0835423"><ele>637.0</ele><time>2026-04-19T10:07:56.982Z</time></trkpt><trkpt lat="42.9425715" lon="13.0835335"><ele>637.0</ele><time>2026-04-19T10:07:57.982Z</time></trkpt><trkpt lat="42.9424321" lon="13.0835071"><ele>637.0</ele><time>2026-04-19T10:07:58.988Z</time></trkpt><trkpt lat="42.9422807" lon="13.0834751"><ele>637.0</ele><time>2026-04-19T10:07:59.984Z</time></trkpt><trkpt lat="42.9421216" lon="13.0834454"><ele>637.0</ele><time>2026-04-19T10:08:00.986Z</time></trkpt><trkpt lat="42.9419506" lon="13.0834145"><ele>637.0</ele><time>2026-04-19T10:08:01.989Z</time></trkpt><trkpt lat="42.941775" lon="13.0833805"><ele>637.0</ele><time>2026-04-19T10:08:02.992Z</time></trkpt><trkpt lat="42.9415979" lon="13.0833435"><ele>637.0</ele><time>2026-04-19T10:08:03.991Z</time></trkpt><trkpt lat="42.9414248" lon="13.0833052"><ele>636.6666666666667</ele><time>2026-04-19T10:08:04.989Z</time></trkpt><trkpt lat="42.9412562" lon="13.0832641"><ele>636.3333333333334</ele><time>2026-04-19T10:08:05.988Z</time></trkpt><trkpt lat="42.941085" lon="13.0832134"><ele>636.0</ele><time>2026-04-19T10:08:06.992Z</time></trkpt><trkpt lat="42.9409294" lon="13.0831744"><ele>635.6666666666666</ele><time>2026-04-19T10:08:08.002Z</time></trkpt><trkpt lat="42.9407611" lon="13.0831232"><ele>635.3333333333333</ele><time>2026-04-19T10:08:08.991Z</time></trkpt><trkpt lat="42.940592" lon="13.0830624"><ele>635.0</ele><time>2026-04-19T10:08:09.994Z</time></trkpt><trkpt lat="42.9404359" lon="13.0830102"><ele>635.0</ele><time>2026-04-19T10:08:10.991Z</time></trkpt><trkpt lat="42.9402763" lon="13.0829545"><ele>635.0</ele><time>2026-04-19T10:08:11.992Z</time></trkpt><trkpt lat="42.9401113" lon="13.0828899"><ele>635.0</ele><time>2026-04-19T10:08:12.987Z</time></trkpt><trkpt lat="42.939957" lon="13.0828292"><ele>634.5</ele><time>2026-04-19T10:08:13.984Z</time></trkpt><trkpt lat="42.9398114" lon="13.0827534"><ele>634.0</ele><time>2026-04-19T10:08:14.989Z</time></trkpt><trkpt lat="42.9396725" lon="13.0826858"><ele>633.5</ele><time>2026-04-19T10:08:15.992Z</time></trkpt><trkpt lat="42.9395444" lon="13.0826254"><ele>633.0</ele><time>2026-04-19T10:08:16.986Z</time></trkpt><trkpt lat="42.9394152" lon="13.082561"><ele>633.0</ele><time>2026-04-19T10:08:17.991Z</time></trkpt><trkpt lat="42.9392705" lon="13.0824948"><ele>633.0</ele><time>2026-04-19T10:08:18.985Z</time></trkpt><trkpt lat="42.9391217" lon="13.0824376"><ele>633.0</ele><time>2026-04-19T10:08:19.989Z</time></trkpt><trkpt lat="42.9389571" lon="13.0823829"><ele>636.6666666666666</ele><time>2026-04-19T10:08:20.988Z</time></trkpt><trkpt lat="42.938801" lon="13.0823509"><ele>640.3333333333333</ele><time>2026-04-19T10:08:21.983Z</time></trkpt><trkpt lat="42.9386416" lon="13.0823286"><ele>644.0</ele><time>2026-04-19T10:08:22.989Z</time></trkpt><trkpt lat="42.9384885" lon="13.0823027"><ele>641.0</ele><time>2026-04-19T10:08:23.992Z</time></trkpt><trkpt lat="42.9383287" lon="13.082274"><ele>638.0</ele><time>2026-04-19T10:08:24.985Z</time></trkpt><trkpt lat="42.9381632" lon="13.082236"><ele>635.0</ele><time>2026-04-19T10:08:25.988Z</time></trkpt><trkpt lat="42.9380034" lon="13.0821997"><ele>635.0</ele><time>2026-04-19T10:08:26.99Z</time></trkpt><trkpt lat="42.9378485" lon="13.0821686"><ele>635.0</ele><time>2026-04-19T10:08:27.987Z</time></trkpt><trkpt lat="42.9377061" lon="13.0821454"><ele>635.0</ele><time>2026-04-19T10:08:28.986Z</time></trkpt><trkpt lat="42.9375712" lon="13.0821062"><ele>635.0</ele><time>2026-04-19T10:08:29.982Z</time></trkpt><trkpt lat="42.9374498" lon="13.0820797"><ele>633.5</ele><time>2026-04-19T10:08:30.985Z</time></trkpt><trkpt lat="42.9373514" lon="13.0820649"><ele>632.0</ele><time>2026-04-19T10:08:31.99Z</time></trkpt><trkpt lat="42.9372657" lon="13.0820521"><ele>630.5</ele><time>2026-04-19T10:08:32.992Z</time></trkpt><trkpt lat="42.9371836" lon="13.0820426"><ele>629.0</ele><time>2026-04-19T10:08:33.99Z</time></trkpt><trkpt lat="42.9370974" lon="13.0820352"><ele>627.5</ele><time>2026-04-19T10:08:34.993Z</time></trkpt><trkpt lat="42.9370128" lon="13.0820455"><ele>626.0</ele><time>2026-04-19T10:08:35.987Z</time></trkpt><trkpt lat="42.9369218" lon="13.0820494"><ele>626.0</ele><time>2026-04-19T10:08:36.986Z</time></trkpt><trkpt lat="42.9368284" lon="13.082049"><ele>626.0</ele><time>2026-04-19T10:08:37.986Z</time></trkpt><trkpt lat="42.9367321" lon="13.0820464"><ele>626.0</ele><time>2026-04-19T10:08:38.998Z</time></trkpt><trkpt lat="42.9366369" lon="13.0820491"><ele>626.0</ele><time>2026-04-19T10:08:39.987Z</time></trkpt><trkpt lat="42.9365411" lon="13.0820515"><ele>626.0</ele><time>2026-04-19T10:08:40.987Z</time></trkpt><trkpt lat="42.9364432" lon="13.0820499"><ele>624.2</ele><time>2026-04-19T10:08:41.986Z</time></trkpt><trkpt lat="42.9363514" lon="13.0820461"><ele>622.4000000000001</ele><time>2026-04-19T10:08:42.987Z</time></trkpt><trkpt lat="42.9362536" lon="13.082046"><ele>620.6</ele><time>2026-04-19T10:08:43.983Z</time></trkpt><trkpt lat="42.9361528" lon="13.0820474"><ele>618.8000000000001</ele><time>2026-04-19T10:08:44.987Z</time></trkpt><trkpt lat="42.9360511" lon="13.0820455"><ele>617.0</ele><time>2026-04-19T10:08:45.992Z</time></trkpt><trkpt lat="42.9359466" lon="13.0820371"><ele>616.25</ele><time>2026-04-19T10:08:46.985Z</time></trkpt><trkpt lat="42.9358401" lon="13.0820371"><ele>615.5</ele><time>2026-04-19T10:08:47.988Z</time></trkpt><trkpt lat="42.9357276" lon="13.082031"><ele>614.75</ele><time>2026-04-19T10:08:48.985Z</time></trkpt><trkpt lat="42.9356102" lon="13.082027"><ele>614.0</ele><time>2026-04-19T10:08:49.986Z</time></trkpt><trkpt lat="42.935484" lon="13.0820203"><ele>614.0</ele><time>2026-04-19T10:08:50.982Z</time></trkpt><trkpt lat="42.935355" lon="13.0820191"><ele>614.0</ele><time>2026-04-19T10:08:51.984Z</time></trkpt><trkpt lat="42.9352119" lon="13.0820143"><ele>614.0</ele><time>2026-04-19T10:08:52.985Z</time></trkpt><trkpt lat="42.9350613" lon="13.0820142"><ele>614.0</ele><time>2026-04-19T10:08:53.987Z</time></trkpt><trkpt lat="42.9348965" lon="13.0820077"><ele>613.25</ele><time>2026-04-19T10:08:54.99Z</time></trkpt><trkpt lat="42.9347407" lon="13.0819996"><ele>612.5</ele><time>2026-04-19T10:08:55.992Z</time></trkpt><trkpt lat="42.9346027" lon="13.0819994"><ele>611.75</ele><time>2026-04-19T10:08:56.991Z</time></trkpt><trkpt lat="42.9344594" lon="13.0819955"><ele>611.0</ele><time>2026-04-19T10:08:57.989Z</time></trkpt><trkpt lat="42.9343202" lon="13.0819879"><ele>611.0</ele><time>2026-04-19T10:08:58.988Z</time></trkpt><trkpt lat="42.9341901" lon="13.0819835"><ele>611.0</ele><time>2026-04-19T10:08:59.987Z</time></trkpt><trkpt lat="42.9340556" lon="13.0820028"><ele>611.0</ele><time>2026-04-19T10:09:00.983Z</time></trkpt><trkpt lat="42.9339171" lon="13.0820463"><ele>611.0</ele><time>2026-04-19T10:09:01.978Z</time></trkpt><trkpt lat="42.9337864" lon="13.0821165"><ele>611.0</ele><time>2026-04-19T10:09:02.983Z</time></trkpt><trkpt lat="42.9336529" lon="13.0822138"><ele>611.0</ele><time>2026-04-19T10:09:03.984Z</time></trkpt><trkpt lat="42.933526" lon="13.0823522"><ele>611.0</ele><time>2026-04-19T10:09:04.979Z</time></trkpt><trkpt lat="42.9334241" lon="13.082523"><ele>610.6666666666666</ele><time>2026-04-19T10:09:05.981Z</time></trkpt><trkpt lat="42.9333284" lon="13.0826949"><ele>610.3333333333334</ele><time>2026-04-19T10:09:06.983Z</time></trkpt><trkpt lat="42.9332402" lon="13.0828799"><ele>610.0</ele><time>2026-04-19T10:09:07.981Z</time></trkpt><trkpt lat="42.9331592" lon="13.0830456"><ele>610.0</ele><time>2026-04-19T10:09:08.989Z</time></trkpt><trkpt lat="42.9330783" lon="13.0832009"><ele>610.0</ele><time>2026-04-19T10:09:09.991Z</time></trkpt><trkpt lat="42.9330051" lon="13.0833325"><ele>610.0</ele><time>2026-04-19T10:09:10.984Z</time></trkpt><trkpt lat="42.9329539" lon="13.083436"><ele>610.0</ele><time>2026-04-19T10:09:11.987Z</time></trkpt><trkpt lat="42.9329103" lon="13.0835245"><ele>610.0</ele><time>2026-04-19T10:09:13.985Z</time></trkpt><trkpt lat="42.9328728" lon="13.0836235"><ele>610.6666666666667</ele><time>2026-04-19T10:09:21.981Z</time></trkpt><trkpt lat="42.9328286" lon="13.0837126"><ele>611.3333333333334</ele><time>2026-04-19T10:09:22.983Z</time></trkpt><trkpt lat="42.9327834" lon="13.0837979"><ele>612.0</ele><time>2026-04-19T10:09:23.976Z</time></trkpt><trkpt lat="42.9327268" lon="13.0838884"><ele>612.6666666666666</ele><time>2026-04-19T10:09:24.981Z</time></trkpt><trkpt lat="42.9326732" lon="13.0839777"><ele>613.3333333333333</ele><time>2026-04-19T10:09:25.985Z</time></trkpt><trkpt lat="42.9326156" lon="13.0840682"><ele>614.0</ele><time>2026-04-19T10:09:26.984Z</time></trkpt><trkpt lat="42.9325574" lon="13.0841597"><ele>613.0</ele><time>2026-04-19T10:09:27.981Z</time></trkpt><trkpt lat="42.9325048" lon="13.0842491"><ele>612.0</ele><time>2026-04-19T10:09:28.989Z</time></trkpt><trkpt lat="42.9324551" lon="13.0843389"><ele>611.0</ele><time>2026-04-19T10:09:29.981Z</time></trkpt><trkpt lat="42.9324061" lon="13.0844226"><ele>610.0</ele><time>2026-04-19T10:09:30.982Z</time></trkpt><trkpt lat="42.9323605" lon="13.0844978"><ele>609.0</ele><time>2026-04-19T10:09:31.978Z</time></trkpt><trkpt lat="42.9322822" lon="13.0846149"><ele>608.0</ele><time>2026-04-19T10:09:33.982Z</time></trkpt><trkpt lat="42.9321837" lon="13.0846027"><ele>608.0</ele><time>2026-04-19T10:09:35.977Z</time></trkpt><trkpt lat="42.9321287" lon="13.0845591"><ele>608.0</ele><time>2026-04-19T10:09:36.987Z</time></trkpt><trkpt lat="42.9320731" lon="13.0845064"><ele>608.0</ele><time>2026-04-19T10:09:37.981Z</time></trkpt><trkpt lat="42.9320119" lon="13.0844573"><ele>608.0</ele><time>2026-04-19T10:09:38.982Z</time></trkpt><trkpt lat="42.9319449" lon="13.0844086"><ele>608.0</ele><time>2026-04-19T10:09:39.976Z</time></trkpt><trkpt lat="42.9318778" lon="13.084357"><ele>608.0</ele><time>2026-04-19T10:09:40.989Z</time></trkpt><trkpt lat="42.9318229" lon="13.0843082"><ele>608.0</ele><time>2026-04-19T10:09:41.978Z</time></trkpt><trkpt lat="42.9317373" lon="13.0842192"><ele>608.3333333333333</ele><time>2026-04-19T10:09:43.979Z</time></trkpt><trkpt lat="42.931665" lon="13.0841561"><ele>608.6666666666666</ele><time>2026-04-19T10:09:45.987Z</time></trkpt><trkpt lat="42.9316081" lon="13.0841104"><ele>609.0</ele><time>2026-04-19T10:09:47.983Z</time></trkpt><trkpt lat="42.9315603" lon="13.0841717"><ele>609.3333333333334</ele><time>2026-04-19T10:09:51.981Z</time></trkpt><trkpt lat="42.9315482" lon="13.0842562"><ele>609.6666666666667</ele><time>2026-04-19T10:09:52.979Z</time></trkpt><trkpt lat="42.9315042" lon="13.0844295"><ele>610.0</ele><time>2026-04-19T10:09:54.978Z</time></trkpt><trkpt lat="42.9314846" lon="13.0845392"><ele>610.0</ele><time>2026-04-19T10:09:55.978Z</time></trkpt><trkpt lat="42.9314611" lon="13.0846544"><ele>610.0</ele><time>2026-04-19T10:09:56.985Z</time></trkpt><trkpt lat="42.9314398" lon="13.0847568"><ele>610.0</ele><time>2026-04-19T10:09:57.977Z</time></trkpt><trkpt lat="42.9314285" lon="13.0848585"><ele>610.0</ele><time>2026-04-19T10:09:58.99Z</time></trkpt><trkpt lat="42.9314021" lon="13.0849508"><ele>610.0</ele><time>2026-04-19T10:09:59.979Z</time></trkpt><trkpt lat="42.9313805" lon="13.0850456"><ele>610.0</ele><time>2026-04-19T10:10:00.976Z</time></trkpt><trkpt lat="42.931348" lon="13.0851998"><ele>610.0</ele><time>2026-04-19T10:10:02.977Z</time></trkpt><trkpt lat="42.9313215" lon="13.0853379"><ele>610.0</ele><time>2026-04-19T10:10:04.978Z</time></trkpt><trkpt lat="42.9312889" lon="13.085487"><ele>610.0</ele><time>2026-04-19T10:10:06.981Z</time></trkpt><trkpt lat="42.9312464" lon="13.0856469"><ele>610.0</ele><time>2026-04-19T10:10:08.98Z</time></trkpt><trkpt lat="42.9311958" lon="13.0857922"><ele>610.0</ele><time>2026-04-19T10:10:10.979Z</time></trkpt><trkpt lat="42.9311384" lon="13.0858288"><ele>610.0</ele><time>2026-04-19T10:10:11.994Z</time></trkpt><trkpt lat="42.9310586" lon="13.0858073"><ele>610.0</ele><time>2026-04-19T10:10:12.978Z</time></trkpt><trkpt lat="42.9309686" lon="13.0857976"><ele>610.0</ele><time>2026-04-19T10:10:13.979Z</time></trkpt><trkpt lat="42.9308846" lon="13.085807"><ele>610.0</ele><time>2026-04-19T10:10:14.982Z</time></trkpt><trkpt lat="42.9308052" lon="13.0858443"><ele>610.0</ele><time>2026-04-19T10:10:15.985Z</time></trkpt><trkpt lat="42.9307292" lon="13.0859131"><ele>610.8</ele><time>2026-04-19T10:10:16.981Z</time></trkpt><trkpt lat="42.9306508" lon="13.0859911"><ele>611.6</ele><time>2026-04-19T10:10:17.986Z</time></trkpt><trkpt lat="42.9305705" lon="13.0860719"><ele>612.4</ele><time>2026-04-19T10:10:18.985Z</time></trkpt><trkpt lat="42.9304799" lon="13.0861424"><ele>613.2</ele><time>2026-04-19T10:10:19.985Z</time></trkpt><trkpt lat="42.9303901" lon="13.0862122"><ele>614.0</ele><time>2026-04-19T10:10:20.983Z</time></trkpt><trkpt lat="42.9303047" lon="13.0862771"><ele>614.0</ele><time>2026-04-19T10:10:21.981Z</time></trkpt><trkpt lat="42.9302297" lon="13.0863339"><ele>614.0</ele><time>2026-04-19T10:10:22.984Z</time></trkpt><trkpt lat="42.9301646" lon="13.0863866"><ele>614.0</ele><time>2026-04-19T10:10:23.981Z</time></trkpt><trkpt lat="42.9301041" lon="13.0864372"><ele>614.0</ele><time>2026-04-19T10:10:24.986Z</time></trkpt><trkpt lat="42.9300451" lon="13.0864852"><ele>614.0</ele><time>2026-04-19T10:10:25.986Z</time></trkpt><trkpt lat="42.9299807" lon="13.0865317"><ele>614.0</ele><time>2026-04-19T10:10:26.989Z</time></trkpt><trkpt lat="42.9299149" lon="13.0865864"><ele>614.2</ele><time>2026-04-19T10:10:27.986Z</time></trkpt><trkpt lat="42.9298477" lon="13.0866457"><ele>614.4</ele><time>2026-04-19T10:10:28.99Z</time></trkpt><trkpt lat="42.9297739" lon="13.086711"><ele>614.6</ele><time>2026-04-19T10:10:29.983Z</time></trkpt><trkpt lat="42.9296959" lon="13.0867786"><ele>614.8</ele><time>2026-04-19T10:10:30.984Z</time></trkpt><trkpt lat="42.9296249" lon="13.0868663"><ele>615.0</ele><time>2026-04-19T10:10:31.982Z</time></trkpt><trkpt lat="42.9295566" lon="13.086971"><ele>615.0</ele><time>2026-04-19T10:10:32.982Z</time></trkpt><trkpt lat="42.9294988" lon="13.0871005"><ele>615.0</ele><time>2026-04-19T10:10:33.989Z</time></trkpt><trkpt lat="42.929458" lon="13.0872605"><ele>615.0</ele><time>2026-04-19T10:10:34.987Z</time></trkpt><trkpt lat="42.9294226" lon="13.0874218"><ele>615.0</ele><time>2026-04-19T10:10:35.989Z</time></trkpt><trkpt lat="42.9293816" lon="13.0875818"><ele>614.75</ele><time>2026-04-19T10:10:36.986Z</time></trkpt><trkpt lat="42.9293432" lon="13.0877396"><ele>614.5</ele><time>2026-04-19T10:10:37.981Z</time></trkpt><trkpt lat="42.9293062" lon="13.0878997"><ele>614.25</ele><time>2026-04-19T10:10:38.983Z</time></trkpt><trkpt lat="42.9292765" lon="13.0880751"><ele>614.0</ele><time>2026-04-19T10:10:39.976Z</time></trkpt><trkpt lat="42.9292557" lon="13.088253"><ele>614.0</ele><time>2026-04-19T10:10:40.987Z</time></trkpt><trkpt lat="42.9292414" lon="13.0884429"><ele>614.0</ele><time>2026-04-19T10:10:41.98Z</time></trkpt><trkpt lat="42.929229" lon="13.0886456"><ele>614.0</ele><time>2026-04-19T10:10:42.992Z</time></trkpt><trkpt lat="42.9292093" lon="13.0888557"><ele>614.0</ele><time>2026-04-19T10:10:43.982Z</time></trkpt><trkpt lat="42.9291724" lon="13.0890631"><ele>616.5</ele><time>2026-04-19T10:10:44.972Z</time></trkpt><trkpt lat="42.9291223" lon="13.0892456"><ele>619.0</ele><time>2026-04-19T10:10:45.974Z</time></trkpt><trkpt lat="42.9290614" lon="13.0894293"><ele>621.5</ele><time>2026-04-19T10:10:46.974Z</time></trkpt><trkpt lat="42.9290137" lon="13.0896076"><ele>624.0</ele><time>2026-04-19T10:10:47.975Z</time></trkpt><trkpt lat="42.9289687" lon="13.0897834"><ele>621.6666666666666</ele><time>2026-04-19T10:10:48.975Z</time></trkpt><trkpt lat="42.9289213" lon="13.0899812"><ele>619.3333333333333</ele><time>2026-04-19T10:10:49.978Z</time></trkpt><trkpt lat="42.9288706" lon="13.0901873"><ele>617.0</ele><time>2026-04-19T10:10:50.978Z</time></trkpt><trkpt lat="42.9288132" lon="13.090379"><ele>617.0</ele><time>2026-04-19T10:10:51.977Z</time></trkpt><trkpt lat="42.9287138" lon="13.0905344"><ele>617.0</ele><time>2026-04-19T10:10:52.974Z</time></trkpt><trkpt lat="42.928594" lon="13.0906734"><ele>617.0</ele><time>2026-04-19T10:10:53.972Z</time></trkpt><trkpt lat="42.928473" lon="13.0908149"><ele>621.0</ele><time>2026-04-19T10:10:54.971Z</time></trkpt><trkpt lat="42.9283735" lon="13.0909818"><ele>625.0</ele><time>2026-04-19T10:10:55.972Z</time></trkpt><trkpt lat="42.9283134" lon="13.0911548"><ele>629.0</ele><time>2026-04-19T10:10:56.975Z</time></trkpt><trkpt lat="42.9282825" lon="13.0913281"><ele>633.0</ele><time>2026-04-19T10:10:57.97Z</time></trkpt><trkpt lat="42.9282342" lon="13.091496"><ele>628.3333333333334</ele><time>2026-04-19T10:10:58.974Z</time></trkpt><trkpt lat="42.9281294" lon="13.0916321"><ele>623.6666666666667</ele><time>2026-04-19T10:10:59.969Z</time></trkpt><trkpt lat="42.9279876" lon="13.0917368"><ele>619.0</ele><time>2026-04-19T10:11:00.962Z</time></trkpt><trkpt lat="42.9278247" lon="13.0918465"><ele>619.0</ele><time>2026-04-19T10:11:01.963Z</time></trkpt><trkpt lat="42.9276711" lon="13.0920033"><ele>619.0</ele><time>2026-04-19T10:11:02.964Z</time></trkpt><trkpt lat="42.927528" lon="13.0921732"><ele>619.0</ele><time>2026-04-19T10:11:03.966Z</time></trkpt><trkpt lat="42.9274034" lon="13.0923625"><ele>622.3333333333334</ele><time>2026-04-19T10:11:04.968Z</time></trkpt><trkpt lat="42.927309" lon="13.0925677"><ele>625.6666666666666</ele><time>2026-04-19T10:11:05.966Z</time></trkpt><trkpt lat="42.9272603" lon="13.0927904"><ele>629.0</ele><time>2026-04-19T10:11:06.968Z</time></trkpt><trkpt lat="42.9272423" lon="13.0930345"><ele>630.0</ele><time>2026-04-19T10:11:07.972Z</time></trkpt><trkpt lat="42.9272588" lon="13.0932862"><ele>631.0</ele><time>2026-04-19T10:11:08.97Z</time></trkpt><trkpt lat="42.9272828" lon="13.0935303"><ele>632.0</ele><time>2026-04-19T10:11:09.972Z</time></trkpt><trkpt lat="42.9272997" lon="13.0937812"><ele>632.0</ele><time>2026-04-19T10:11:10.967Z</time></trkpt><trkpt lat="42.9272831" lon="13.0940291"><ele>632.0</ele><time>2026-04-19T10:11:11.969Z</time></trkpt><trkpt lat="42.9271924" lon="13.0942571"><ele>632.0</ele><time>2026-04-19T10:11:12.966Z</time></trkpt><trkpt lat="42.9270746" lon="13.094463"><ele>634.0</ele><time>2026-04-19T10:11:13.975Z</time></trkpt><trkpt lat="42.9269479" lon="13.0946705"><ele>636.0</ele><time>2026-04-19T10:11:14.961Z</time></trkpt><trkpt lat="42.9268261" lon="13.0948888"><ele>638.0</ele><time>2026-04-19T10:11:15.965Z</time></trkpt><trkpt lat="42.9267167" lon="13.0951248"><ele>638.0</ele><time>2026-04-19T10:11:16.963Z</time></trkpt><trkpt lat="42.9266164" lon="13.0953695"><ele>638.0</ele><time>2026-04-19T10:11:17.967Z</time></trkpt><trkpt lat="42.9265382" lon="13.0956097"><ele>638.0</ele><time>2026-04-19T10:11:18.97Z</time></trkpt><trkpt lat="42.9265085" lon="13.0958467"><ele>640.6666666666666</ele><time>2026-04-19T10:11:19.97Z</time></trkpt><trkpt lat="42.9265385" lon="13.096089"><ele>643.3333333333334</ele><time>2026-04-19T10:11:20.97Z</time></trkpt><trkpt lat="42.926607" lon="13.0963469"><ele>646.0</ele><time>2026-04-19T10:11:21.969Z</time></trkpt><trkpt lat="42.9266556" lon="13.096628"><ele>647.6666666666667</ele><time>2026-04-19T10:11:22.965Z</time></trkpt><trkpt lat="42.9266663" lon="13.0969171"><ele>649.3333333333334</ele><time>2026-04-19T10:11:23.971Z</time></trkpt><trkpt lat="42.9266328" lon="13.0972086"><ele>651.0</ele><time>2026-04-19T10:11:24.97Z</time></trkpt><trkpt lat="42.9265474" lon="13.0975033"><ele>652.0</ele><time>2026-04-19T10:11:25.966Z</time></trkpt><trkpt lat="42.926431" lon="13.0978112"><ele>653.0</ele><time>2026-04-19T10:11:26.968Z</time></trkpt><trkpt lat="42.9263294" lon="13.0981228"><ele>656.5</ele><time>2026-04-19T10:11:27.964Z</time></trkpt><trkpt lat="42.9262395" lon="13.0984449"><ele>660.0</ele><time>2026-04-19T10:11:28.973Z</time></trkpt><trkpt lat="42.9261264" lon="13.0987391"><ele>660.0</ele><time>2026-04-19T10:11:29.961Z</time></trkpt><trkpt lat="42.9259992" lon="13.0989757"><ele>660.0</ele><time>2026-04-19T10:11:30.971Z</time></trkpt><trkpt lat="42.9259145" lon="13.0992313"><ele>660.0</ele><time>2026-04-19T10:11:31.964Z</time></trkpt><trkpt lat="42.9258626" lon="13.0994889"><ele>666.0</ele><time>2026-04-19T10:11:32.965Z</time></trkpt><trkpt lat="42.9258906" lon="13.099771"><ele>672.0</ele><time>2026-04-19T10:11:33.966Z</time></trkpt><trkpt lat="42.9259558" lon="13.1000435"><ele>678.0</ele><time>2026-04-19T10:11:34.962Z</time></trkpt><trkpt lat="42.9260111" lon="13.100341"><ele>678.0</ele><time>2026-04-19T10:11:35.963Z</time></trkpt><trkpt lat="42.9260149" lon="13.1006458"><ele>678.0</ele><time>2026-04-19T10:11:36.963Z</time></trkpt><trkpt lat="42.9259552" lon="13.1009547"><ele>660.0</ele><time>2026-04-19T10:11:37.963Z</time></trkpt><trkpt lat="42.9258679" lon="13.1012648"><ele>642.0</ele><time>2026-04-19T10:11:38.967Z</time></trkpt><trkpt lat="42.9257599" lon="13.1015614"><ele>647.0</ele><time>2026-04-19T10:11:39.964Z</time></trkpt><trkpt lat="42.9256342" lon="13.1018357"><ele>652.0</ele><time>2026-04-19T10:11:40.966Z</time></trkpt><trkpt lat="42.9254683" lon="13.1020761"><ele>652.0</ele><time>2026-04-19T10:11:41.964Z</time></trkpt><trkpt lat="42.9252971" lon="13.1023057"><ele>652.0</ele><time>2026-04-19T10:11:42.959Z</time></trkpt><trkpt lat="42.9251342" lon="13.1025574"><ele>649.5</ele><time>2026-04-19T10:11:43.958Z</time></trkpt><trkpt lat="42.9249781" lon="13.102815"><ele>647.0</ele><time>2026-04-19T10:11:44.97Z</time></trkpt><trkpt lat="42.9247995" lon="13.1030524"><ele>654.5</ele><time>2026-04-19T10:11:45.964Z</time></trkpt><trkpt lat="42.924626" lon="13.1033161"><ele>662.0</ele><time>2026-04-19T10:11:46.962Z</time></trkpt><trkpt lat="42.924445" lon="13.1035754"><ele>662.0</ele><time>2026-04-19T10:11:47.96Z</time></trkpt><trkpt lat="42.9242786" lon="13.1038221"><ele>662.0</ele><time>2026-04-19T10:11:48.96Z</time></trkpt><trkpt lat="42.9241327" lon="13.1040928"><ele>655.0</ele><time>2026-04-19T10:11:49.961Z</time></trkpt><trkpt lat="42.9240085" lon="13.1043667"><ele>648.0</ele><time>2026-04-19T10:11:50.962Z</time></trkpt><trkpt lat="42.9239081" lon="13.1046551"><ele>651.5</ele><time>2026-04-19T10:11:51.962Z</time></trkpt><trkpt lat="42.9237919" lon="13.1049192"><ele>655.0</ele><time>2026-04-19T10:11:52.962Z</time></trkpt><trkpt lat="42.9236318" lon="13.1051353"><ele>655.0</ele><time>2026-04-19T10:11:53.96Z</time></trkpt><trkpt lat="42.9234459" lon="13.1053098"><ele>655.0</ele><time>2026-04-19T10:11:54.962Z</time></trkpt><trkpt lat="42.9232324" lon="13.1054427"><ele>656.5</ele><time>2026-04-19T10:11:55.962Z</time></trkpt><trkpt lat="42.9230355" lon="13.1056138"><ele>658.0</ele><time>2026-04-19T10:11:56.968Z</time></trkpt><trkpt lat="42.9228739" lon="13.1058399"><ele>658.0</ele><time>2026-04-19T10:11:57.965Z</time></trkpt><trkpt lat="42.9227292" lon="13.1060967"><ele>658.0</ele><time>2026-04-19T10:11:58.969Z</time></trkpt><trkpt lat="42.9225975" lon="13.1063631"><ele>654.0</ele><time>2026-04-19T10:11:59.968Z</time></trkpt><trkpt lat="42.9224578" lon="13.1066294"><ele>650.0</ele><time>2026-04-19T10:12:00.967Z</time></trkpt><trkpt lat="42.9223152" lon="13.1068995"><ele>650.0</ele><time>2026-04-19T10:12:01.969Z</time></trkpt><trkpt lat="42.9221676" lon="13.1071912"><ele>650.0</ele><time>2026-04-19T10:12:02.966Z</time></trkpt><trkpt lat="42.9220467" lon="13.1075006"><ele>661.5</ele><time>2026-04-19T10:12:03.963Z</time></trkpt><trkpt lat="42.9219327" lon="13.1078137"><ele>673.0</ele><time>2026-04-19T10:12:04.964Z</time></trkpt><trkpt lat="42.921823" lon="13.1081228"><ele>663.0</ele><time>2026-04-19T10:12:05.965Z</time></trkpt><trkpt lat="42.9217003" lon="13.1084249"><ele>653.0</ele><time>2026-04-19T10:12:06.972Z</time></trkpt><trkpt lat="42.9215454" lon="13.1086899"><ele>653.0</ele><time>2026-04-19T10:12:07.968Z</time></trkpt><trkpt lat="42.9213657" lon="13.1089314"><ele>653.0</ele><time>2026-04-19T10:12:08.97Z</time></trkpt><trkpt lat="42.9211928" lon="13.1091618"><ele>663.0</ele><time>2026-04-19T10:12:09.968Z</time></trkpt><trkpt lat="42.9210328" lon="13.1093877"><ele>673.0</ele><time>2026-04-19T10:12:10.97Z</time></trkpt><trkpt lat="42.9209045" lon="13.1096481"><ele>664.5</ele><time>2026-04-19T10:12:11.971Z</time></trkpt><trkpt lat="42.9208125" lon="13.1099438"><ele>656.0</ele><time>2026-04-19T10:12:12.975Z</time></trkpt><trkpt lat="42.9207308" lon="13.1102724"><ele>656.0</ele><time>2026-04-19T10:12:13.976Z</time></trkpt><trkpt lat="42.9206522" lon="13.1106081"><ele>656.0</ele><time>2026-04-19T10:12:14.977Z</time></trkpt><trkpt lat="42.9205724" lon="13.1109341"><ele>664.5</ele><time>2026-04-19T10:12:15.985Z</time></trkpt><trkpt lat="42.9204945" lon="13.1112551"><ele>673.0</ele><time>2026-04-19T10:12:16.97Z</time></trkpt><trkpt lat="42.9204344" lon="13.1115689"><ele>676.5</ele><time>2026-04-19T10:12:17.974Z</time></trkpt><trkpt lat="42.9204039" lon="13.1118939"><ele>680.0</ele><time>2026-04-19T10:12:18.972Z</time></trkpt><trkpt lat="42.9204339" lon="13.112237"><ele>681.0</ele><time>2026-04-19T10:12:19.973Z</time></trkpt><trkpt lat="42.9204511" lon="13.1125838"><ele>682.0</ele><time>2026-04-19T10:12:20.975Z</time></trkpt><trkpt lat="42.9204646" lon="13.1129435"><ele>684.5</ele><time>2026-04-19T10:12:21.971Z</time></trkpt><trkpt lat="42.9204422" lon="13.1132909"><ele>687.0</ele><time>2026-04-19T10:12:22.976Z</time></trkpt><trkpt lat="42.9203994" lon="13.1136481"><ele>687.0</ele><time>2026-04-19T10:12:23.973Z</time></trkpt><trkpt lat="42.9203521" lon="13.1140002"><ele>687.0</ele><time>2026-04-19T10:12:24.974Z</time></trkpt><trkpt lat="42.920309" lon="13.1143417"><ele>689.0</ele><time>2026-04-19T10:12:25.969Z</time></trkpt><trkpt lat="42.920258" lon="13.1146729"><ele>691.0</ele><time>2026-04-19T10:12:26.974Z</time></trkpt><trkpt lat="42.9201821" lon="13.1150015"><ele>691.0</ele><time>2026-04-19T10:12:27.969Z</time></trkpt><trkpt lat="42.9200698" lon="13.1152981"><ele>691.0</ele><time>2026-04-19T10:12:28.976Z</time></trkpt><trkpt lat="42.9199428" lon="13.1155631"><ele>679.0</ele><time>2026-04-19T10:12:29.969Z</time></trkpt><trkpt lat="42.9198451" lon="13.1158452"><ele>667.0</ele><time>2026-04-19T10:12:30.969Z</time></trkpt><trkpt lat="42.9197929" lon="13.1161425"><ele>667.0</ele><time>2026-04-19T10:12:31.969Z</time></trkpt><trkpt lat="42.9197961" lon="13.1164623"><ele>667.0</ele><time>2026-04-19T10:12:32.966Z</time></trkpt><trkpt lat="42.9198099" lon="13.1167881"><ele>668.5</ele><time>2026-04-19T10:12:33.967Z</time></trkpt><trkpt lat="42.9198115" lon="13.1171124"><ele>670.0</ele><time>2026-04-19T10:12:34.966Z</time></trkpt><trkpt lat="42.9197808" lon="13.1174099"><ele>671.0</ele><time>2026-04-19T10:12:35.963Z</time></trkpt><trkpt lat="42.9197151" lon="13.1176796"><ele>672.0</ele><time>2026-04-19T10:12:36.965Z</time></trkpt><trkpt lat="42.9196259" lon="13.1179514"><ele>673.0</ele><time>2026-04-19T10:12:37.963Z</time></trkpt><trkpt lat="42.9195436" lon="13.1182386"><ele>669.6666666666667</ele><time>2026-04-19T10:12:38.968Z</time></trkpt><trkpt lat="42.9194496" lon="13.1185154"><ele>666.3333333333334</ele><time>2026-04-19T10:12:39.965Z</time></trkpt><trkpt lat="42.919335" lon="13.1187746"><ele>663.0</ele><time>2026-04-19T10:12:40.969Z</time></trkpt><trkpt lat="42.9192065" lon="13.119028"><ele>665.5</ele><time>2026-04-19T10:12:41.968Z</time></trkpt><trkpt lat="42.9190601" lon="13.1192875"><ele>668.0</ele><time>2026-04-19T10:12:42.963Z</time></trkpt><trkpt lat="42.9189156" lon="13.1195727"><ele>668.0</ele><time>2026-04-19T10:12:43.972Z</time></trkpt><trkpt lat="42.9187917" lon="13.119883"><ele>668.0</ele><time>2026-04-19T10:12:44.971Z</time></trkpt><trkpt lat="42.9186781" lon="13.1202051"><ele>672.5</ele><time>2026-04-19T10:12:45.973Z</time></trkpt><trkpt lat="42.9185705" lon="13.1205415"><ele>677.0</ele><time>2026-04-19T10:12:46.979Z</time></trkpt><trkpt lat="42.9184752" lon="13.1208942"><ele>671.5</ele><time>2026-04-19T10:12:47.971Z</time></trkpt><trkpt lat="42.9183692" lon="13.1212257"><ele>666.0</ele><time>2026-04-19T10:12:48.968Z</time></trkpt><trkpt lat="42.9182314" lon="13.121516"><ele>668.5</ele><time>2026-04-19T10:12:49.972Z</time></trkpt><trkpt lat="42.9180876" lon="13.1217694"><ele>671.0</ele><time>2026-04-19T10:12:50.974Z</time></trkpt><trkpt lat="42.9179456" lon="13.1219917"><ele>671.0</ele><time>2026-04-19T10:12:51.972Z</time></trkpt><trkpt lat="42.9177984" lon="13.122175"><ele>671.0</ele><time>2026-04-19T10:12:52.969Z</time></trkpt><trkpt lat="42.9176286" lon="13.1223093"><ele>671.0</ele><time>2026-04-19T10:12:53.973Z</time></trkpt><trkpt lat="42.9174309" lon="13.1223756"><ele>671.0</ele><time>2026-04-19T10:12:54.969Z</time></trkpt><trkpt lat="42.9172016" lon="13.1223916"><ele>671.0</ele><time>2026-04-19T10:12:55.965Z</time></trkpt><trkpt lat="42.9169778" lon="13.1224152"><ele>671.0</ele><time>2026-04-19T10:12:56.969Z</time></trkpt><trkpt lat="42.9167492" lon="13.1224486"><ele>671.0</ele><time>2026-04-19T10:12:57.965Z</time></trkpt><trkpt lat="42.9165351" lon="13.1225141"><ele>671.0</ele><time>2026-04-19T10:12:58.967Z</time></trkpt><trkpt lat="42.9163292" lon="13.1226202"><ele>670.5</ele><time>2026-04-19T10:12:59.969Z</time></trkpt><trkpt lat="42.9161332" lon="13.1228052"><ele>670.0</ele><time>2026-04-19T10:13:00.964Z</time></trkpt><trkpt lat="42.9159508" lon="13.1230438"><ele>672.5</ele><time>2026-04-19T10:13:01.962Z</time></trkpt><trkpt lat="42.9157736" lon="13.1232972"><ele>675.0</ele><time>2026-04-19T10:13:02.967Z</time></trkpt><trkpt lat="42.9155687" lon="13.1235469"><ele>675.0</ele><time>2026-04-19T10:13:03.962Z</time></trkpt><trkpt lat="42.9153498" lon="13.1237878"><ele>675.0</ele><time>2026-04-19T10:13:04.966Z</time></trkpt><trkpt lat="42.9151355" lon="13.124036"><ele>675.5</ele><time>2026-04-19T10:13:05.96Z</time></trkpt><trkpt lat="42.9149284" lon="13.1242739"><ele>676.0</ele><time>2026-04-19T10:13:06.962Z</time></trkpt><trkpt lat="42.9147365" lon="13.124493"><ele>676.0</ele><time>2026-04-19T10:13:07.965Z</time></trkpt><trkpt lat="42.9145768" lon="13.1246822"><ele>676.0</ele><time>2026-04-19T10:13:08.966Z</time></trkpt><trkpt lat="42.914457" lon="13.1248298"><ele>676.0</ele><time>2026-04-19T10:13:09.963Z</time></trkpt><trkpt lat="42.9143803" lon="13.1250117"><ele>683.0</ele><time>2026-04-19T10:13:10.962Z</time></trkpt><trkpt lat="42.9143537" lon="13.1252337"><ele>690.0</ele><time>2026-04-19T10:13:11.968Z</time></trkpt><trkpt lat="42.91437" lon="13.125485"><ele>697.0</ele><time>2026-04-19T10:13:12.962Z</time></trkpt><trkpt lat="42.9143914" lon="13.1257596"><ele>692.3333333333334</ele><time>2026-04-19T10:13:13.965Z</time></trkpt><trkpt lat="42.9143681" lon="13.1260352"><ele>687.6666666666666</ele><time>2026-04-19T10:13:14.963Z</time></trkpt><trkpt lat="42.9142831" lon="13.1262778"><ele>683.0</ele><time>2026-04-19T10:13:15.971Z</time></trkpt><trkpt lat="42.9141395" lon="13.1264599"><ele>687.5</ele><time>2026-04-19T10:13:16.97Z</time></trkpt><trkpt lat="42.9139713" lon="13.1266428"><ele>692.0</ele><time>2026-04-19T10:13:17.988Z</time></trkpt><trkpt lat="42.913779" lon="13.1268451"><ele>692.0</ele><time>2026-04-19T10:13:18.97Z</time></trkpt><trkpt lat="42.9136066" lon="13.1270779"><ele>692.0</ele><time>2026-04-19T10:13:19.972Z</time></trkpt><trkpt lat="42.9134378" lon="13.1273282"><ele>688.0</ele><time>2026-04-19T10:13:20.97Z</time></trkpt><trkpt lat="42.9132624" lon="13.1275672"><ele>684.0</ele><time>2026-04-19T10:13:21.967Z</time></trkpt><trkpt lat="42.9130951" lon="13.127813"><ele>684.0</ele><time>2026-04-19T10:13:22.964Z</time></trkpt><trkpt lat="42.9129358" lon="13.1280478"><ele>684.0</ele><time>2026-04-19T10:13:23.967Z</time></trkpt><trkpt lat="42.9127753" lon="13.1282518"><ele>686.0</ele><time>2026-04-19T10:13:24.971Z</time></trkpt><trkpt lat="42.912596" lon="13.1284156"><ele>688.0</ele><time>2026-04-19T10:13:25.968Z</time></trkpt><trkpt lat="42.9123946" lon="13.1285281"><ele>690.0</ele><time>2026-04-19T10:13:26.976Z</time></trkpt><trkpt lat="42.9121726" lon="13.1285664"><ele>690.0</ele><time>2026-04-19T10:13:27.969Z</time></trkpt><trkpt lat="42.9119455" lon="13.1285962"><ele>690.0</ele><time>2026-04-19T10:13:28.97Z</time></trkpt><trkpt lat="42.9117056" lon="13.1286235"><ele>691.0</ele><time>2026-04-19T10:13:29.966Z</time></trkpt><trkpt lat="42.9114537" lon="13.1286701"><ele>692.0</ele><time>2026-04-19T10:13:30.969Z</time></trkpt><trkpt lat="42.9112014" lon="13.1287204"><ele>692.0</ele><time>2026-04-19T10:13:31.967Z</time></trkpt><trkpt lat="42.9109668" lon="13.1287768"><ele>692.0</ele><time>2026-04-19T10:13:32.967Z</time></trkpt><trkpt lat="42.9107474" lon="13.1288647"><ele>693.6666666666666</ele><time>2026-04-19T10:13:33.973Z</time></trkpt><trkpt lat="42.9105543" lon="13.1290133"><ele>695.3333333333334</ele><time>2026-04-19T10:13:34.973Z</time></trkpt><trkpt lat="42.9103775" lon="13.1291938"><ele>697.0</ele><time>2026-04-19T10:13:35.971Z</time></trkpt><trkpt lat="42.9102247" lon="13.1294251"><ele>694.0</ele><time>2026-04-19T10:13:36.972Z</time></trkpt><trkpt lat="42.9100705" lon="13.1296526"><ele>691.0</ele><time>2026-04-19T10:13:37.968Z</time></trkpt><trkpt lat="42.9098887" lon="13.1298329"><ele>693.0</ele><time>2026-04-19T10:13:38.977Z</time></trkpt><trkpt lat="42.9096826" lon="13.1299158"><ele>695.0</ele><time>2026-04-19T10:13:39.973Z</time></trkpt><trkpt lat="42.9094589" lon="13.1299363"><ele>697.0</ele><time>2026-04-19T10:13:40.972Z</time></trkpt><trkpt lat="42.9092254" lon="13.1299411"><ele>697.0</ele><time>2026-04-19T10:13:41.97Z</time></trkpt><trkpt lat="42.9090063" lon="13.1299881"><ele>697.0</ele><time>2026-04-19T10:13:42.974Z</time></trkpt><trkpt lat="42.9087967" lon="13.1300914"><ele>697.0</ele><time>2026-04-19T10:13:43.969Z</time></trkpt><trkpt lat="42.9085835" lon="13.1302357"><ele>697.0</ele><time>2026-04-19T10:13:44.969Z</time></trkpt><trkpt lat="42.9084113" lon="13.130397"><ele>697.0</ele><time>2026-04-19T10:13:45.972Z</time></trkpt><trkpt lat="42.9082726" lon="13.1305809"><ele>697.0</ele><time>2026-04-19T10:13:46.97Z</time></trkpt><trkpt lat="42.9081877" lon="13.1307715"><ele>697.0</ele><time>2026-04-19T10:13:47.979Z</time></trkpt><trkpt lat="42.9081512" lon="13.1309733"><ele>697.0</ele><time>2026-04-19T10:13:48.968Z</time></trkpt><trkpt lat="42.9081331" lon="13.1312119"><ele>697.0</ele><time>2026-04-19T10:13:49.966Z</time></trkpt><trkpt lat="42.9081124" lon="13.1314838"><ele>701.6666666666667</ele><time>2026-04-19T10:13:50.97Z</time></trkpt><trkpt lat="42.908059" lon="13.1317464"><ele>706.3333333333334</ele><time>2026-04-19T10:13:51.971Z</time></trkpt><trkpt lat="42.9079414" lon="13.1319601"><ele>711.0</ele><time>2026-04-19T10:13:52.973Z</time></trkpt><trkpt lat="42.9077612" lon="13.1321145"><ele>702.0</ele><time>2026-04-19T10:13:53.976Z</time></trkpt><trkpt lat="42.9075443" lon="13.1322109"><ele>693.0</ele><time>2026-04-19T10:13:54.97Z</time></trkpt><trkpt lat="42.9073238" lon="13.1322918"><ele>693.0</ele><time>2026-04-19T10:13:55.967Z</time></trkpt><trkpt lat="42.9071203" lon="13.1323871"><ele>693.0</ele><time>2026-04-19T10:13:56.969Z</time></trkpt><trkpt lat="42.9069484" lon="13.132486"><ele>693.0</ele><time>2026-04-19T10:13:57.963Z</time></trkpt><trkpt lat="42.906806" lon="13.1325951"><ele>694.0</ele><time>2026-04-19T10:13:58.97Z</time></trkpt><trkpt lat="42.9066971" lon="13.1327473"><ele>695.0</ele><time>2026-04-19T10:13:59.97Z</time></trkpt><trkpt lat="42.9066396" lon="13.1329416"><ele>696.0</ele><time>2026-04-19T10:14:00.974Z</time></trkpt><trkpt lat="42.9066214" lon="13.1331806"><ele>699.6666666666666</ele><time>2026-04-19T10:14:01.97Z</time></trkpt><trkpt lat="42.9066122" lon="13.1334562"><ele>703.3333333333333</ele><time>2026-04-19T10:14:02.971Z</time></trkpt><trkpt lat="42.90657" lon="13.1337468"><ele>707.0</ele><time>2026-04-19T10:14:03.969Z</time></trkpt><trkpt lat="42.9064783" lon="13.1340252"><ele>712.0</ele><time>2026-04-19T10:14:04.971Z</time></trkpt><trkpt lat="42.9063393" lon="13.134309"><ele>717.0</ele><time>2026-04-19T10:14:05.964Z</time></trkpt><trkpt lat="42.9061989" lon="13.1345925"><ele>717.0</ele><time>2026-04-19T10:14:06.966Z</time></trkpt><trkpt lat="42.9060585" lon="13.1348766"><ele>717.0</ele><time>2026-04-19T10:14:07.966Z</time></trkpt><trkpt lat="42.9059047" lon="13.1351488"><ele>707.0</ele><time>2026-04-19T10:14:08.97Z</time></trkpt><trkpt lat="42.9057386" lon="13.135412"><ele>697.0</ele><time>2026-04-19T10:14:09.971Z</time></trkpt><trkpt lat="42.9055833" lon="13.1356659"><ele>708.0</ele><time>2026-04-19T10:14:10.972Z</time></trkpt><trkpt lat="42.9054398" lon="13.1359338"><ele>719.0</ele><time>2026-04-19T10:14:11.976Z</time></trkpt><trkpt lat="42.905322" lon="13.1362261"><ele>719.0</ele><time>2026-04-19T10:14:12.966Z</time></trkpt><trkpt lat="42.9052183" lon="13.136533"><ele>719.0</ele><time>2026-04-19T10:14:13.963Z</time></trkpt><trkpt lat="42.9051263" lon="13.136868"><ele>715.5</ele><time>2026-04-19T10:14:14.968Z</time></trkpt><trkpt lat="42.9050334" lon="13.137196"><ele>712.0</ele><time>2026-04-19T10:14:15.969Z</time></trkpt><trkpt lat="42.9049469" lon="13.137512"><ele>712.0</ele><time>2026-04-19T10:14:16.969Z</time></trkpt><trkpt lat="42.9048432" lon="13.1377867"><ele>712.0</ele><time>2026-04-19T10:14:17.968Z</time></trkpt><trkpt lat="42.9046869" lon="13.1379982"><ele>712.0</ele><time>2026-04-19T10:14:18.975Z</time></trkpt><trkpt lat="42.9045291" lon="13.1382053"><ele>709.6666666666667</ele><time>2026-04-19T10:14:19.966Z</time></trkpt><trkpt lat="42.9043779" lon="13.1384226"><ele>707.3333333333334</ele><time>2026-04-19T10:14:20.967Z</time></trkpt><trkpt lat="42.9042489" lon="13.1386585"><ele>705.0</ele><time>2026-04-19T10:14:21.967Z</time></trkpt><trkpt lat="42.9041175" lon="13.1389004"><ele>710.0</ele><time>2026-04-19T10:14:22.966Z</time></trkpt><trkpt lat="42.9039547" lon="13.1390912"><ele>715.0</ele><time>2026-04-19T10:14:23.97Z</time></trkpt><trkpt lat="42.9037514" lon="13.1392403"><ele>720.0</ele><time>2026-04-19T10:14:24.968Z</time></trkpt><trkpt lat="42.9035299" lon="13.1394092"><ele>713.0</ele><time>2026-04-19T10:14:25.967Z</time></trkpt><trkpt lat="42.9033084" lon="13.1395965"><ele>706.0</ele><time>2026-04-19T10:14:26.971Z</time></trkpt><trkpt lat="42.9030969" lon="13.1398092"><ele>714.0</ele><time>2026-04-19T10:14:27.964Z</time></trkpt><trkpt lat="42.9028909" lon="13.1400123"><ele>722.0</ele><time>2026-04-19T10:14:28.97Z</time></trkpt><trkpt lat="42.9026912" lon="13.1401932"><ele>720.3333333333333</ele><time>2026-04-19T10:14:29.965Z</time></trkpt><trkpt lat="42.9025122" lon="13.1403583"><ele>718.6666666666666</ele><time>2026-04-19T10:14:30.975Z</time></trkpt><trkpt lat="42.9023537" lon="13.1405418"><ele>717.0</ele><time>2026-04-19T10:14:31.973Z</time></trkpt><trkpt lat="42.9022334" lon="13.1407815"><ele>717.0</ele><time>2026-04-19T10:14:32.979Z</time></trkpt><trkpt lat="42.9021699" lon="13.141062"><ele>717.0</ele><time>2026-04-19T10:14:33.98Z</time></trkpt><trkpt lat="42.9021373" lon="13.1413743"><ele>717.0</ele><time>2026-04-19T10:14:34.979Z</time></trkpt><trkpt lat="42.9020847" lon="13.1416804"><ele>722.5</ele><time>2026-04-19T10:14:35.979Z</time></trkpt><trkpt lat="42.9020058" lon="13.1419808"><ele>728.0</ele><time>2026-04-19T10:14:36.979Z</time></trkpt><trkpt lat="42.901898" lon="13.142267"><ele>734.5</ele><time>2026-04-19T10:14:37.973Z</time></trkpt><trkpt lat="42.9017753" lon="13.1425427"><ele>741.0</ele><time>2026-04-19T10:14:38.976Z</time></trkpt><trkpt lat="42.9016398" lon="13.1428041"><ele>738.0</ele><time>2026-04-19T10:14:39.973Z</time></trkpt><trkpt lat="42.9014832" lon="13.1430293"><ele>735.0</ele><time>2026-04-19T10:14:40.982Z</time></trkpt><trkpt lat="42.9013007" lon="13.1432005"><ele>732.0</ele><time>2026-04-19T10:14:41.977Z</time></trkpt><trkpt lat="42.9011252" lon="13.143354"><ele>732.0</ele><time>2026-04-19T10:14:42.974Z</time></trkpt><trkpt lat="42.900975" lon="13.1434942"><ele>732.0</ele><time>2026-04-19T10:14:43.971Z</time></trkpt><trkpt lat="42.9008568" lon="13.1436461"><ele>732.0</ele><time>2026-04-19T10:14:44.977Z</time></trkpt><trkpt lat="42.900749" lon="13.1437969"><ele>730.0</ele><time>2026-04-19T10:14:45.976Z</time></trkpt><trkpt lat="42.9006611" lon="13.1439755"><ele>728.0</ele><time>2026-04-19T10:14:46.977Z</time></trkpt><trkpt lat="42.9005753" lon="13.1441485"><ele>726.0</ele><time>2026-04-19T10:14:47.98Z</time></trkpt><trkpt lat="42.9004835" lon="13.1443172"><ele>726.0</ele><time>2026-04-19T10:14:48.979Z</time></trkpt><trkpt lat="42.9003866" lon="13.1444966"><ele>726.0</ele><time>2026-04-19T10:14:49.995Z</time></trkpt><trkpt lat="42.9002795" lon="13.1446697"><ele>726.0</ele><time>2026-04-19T10:14:50.98Z</time></trkpt><trkpt lat="42.9001768" lon="13.1448468"><ele>724.0</ele><time>2026-04-19T10:14:51.978Z</time></trkpt><trkpt lat="42.9000669" lon="13.1450224"><ele>722.0</ele><time>2026-04-19T10:14:52.983Z</time></trkpt><trkpt lat="42.8999474" lon="13.1451923"><ele>720.0</ele><time>2026-04-19T10:14:53.982Z</time></trkpt><trkpt lat="42.8998191" lon="13.1453534"><ele>720.0</ele><time>2026-04-19T10:14:54.987Z</time></trkpt><trkpt lat="42.8996771" lon="13.1454992"><ele>720.0</ele><time>2026-04-19T10:14:55.979Z</time></trkpt><trkpt lat="42.8995331" lon="13.1456453"><ele>720.0</ele><time>2026-04-19T10:14:56.984Z</time></trkpt><trkpt lat="42.8993769" lon="13.1457746"><ele>720.6666666666666</ele><time>2026-04-19T10:14:57.982Z</time></trkpt><trkpt lat="42.8992145" lon="13.1459139"><ele>721.3333333333333</ele><time>2026-04-19T10:14:58.984Z</time></trkpt><trkpt lat="42.8990637" lon="13.1460722"><ele>722.0</ele><time>2026-04-19T10:14:59.978Z</time></trkpt><trkpt lat="42.8989348" lon="13.1462592"><ele>722.0</ele><time>2026-04-19T10:15:00.981Z</time></trkpt><trkpt lat="42.8988304" lon="13.1464516"><ele>722.0</ele><time>2026-04-19T10:15:01.98Z</time></trkpt><trkpt lat="42.8987445" lon="13.146652"><ele>722.0</ele><time>2026-04-19T10:15:02.983Z</time></trkpt><trkpt lat="42.8986485" lon="13.1468388"><ele>722.3333333333333</ele><time>2026-04-19T10:15:03.982Z</time></trkpt><trkpt lat="42.8985384" lon="13.147032"><ele>722.6666666666666</ele><time>2026-04-19T10:15:04.981Z</time></trkpt><trkpt lat="42.8984299" lon="13.1472298"><ele>723.0</ele><time>2026-04-19T10:15:05.985Z</time></trkpt><trkpt lat="42.8983133" lon="13.1474291"><ele>723.0</ele><time>2026-04-19T10:15:06.98Z</time></trkpt><trkpt lat="42.8981828" lon="13.147615"><ele>723.0</ele><time>2026-04-19T10:15:07.979Z</time></trkpt><trkpt lat="42.8980219" lon="13.1477737"><ele>723.0</ele><time>2026-04-19T10:15:08.979Z</time></trkpt><trkpt lat="42.8978573" lon="13.14793"><ele>723.0</ele><time>2026-04-19T10:15:09.977Z</time></trkpt><trkpt lat="42.8976778" lon="13.1480872"><ele>723.0</ele><time>2026-04-19T10:15:10.976Z</time></trkpt><trkpt lat="42.8974957" lon="13.1482388"><ele>723.0</ele><time>2026-04-19T10:15:11.972Z</time></trkpt><trkpt lat="42.8973214" lon="13.1483924"><ele>724.3333333333334</ele><time>2026-04-19T10:15:12.972Z</time></trkpt><trkpt lat="42.8971648" lon="13.1485808"><ele>725.6666666666667</ele><time>2026-04-19T10:15:13.974Z</time></trkpt><trkpt lat="42.8970347" lon="13.1488005"><ele>727.0</ele><time>2026-04-19T10:15:14.978Z</time></trkpt><trkpt lat="42.8969304" lon="13.1490646"><ele>728.0</ele><time>2026-04-19T10:15:15.973Z</time></trkpt><trkpt lat="42.8968357" lon="13.1493176"><ele>729.0</ele><time>2026-04-19T10:15:16.98Z</time></trkpt><trkpt lat="42.8967537" lon="13.1495931"><ele>730.0</ele><time>2026-04-19T10:15:17.968Z</time></trkpt><trkpt lat="42.8966679" lon="13.1498781"><ele>730.0</ele><time>2026-04-19T10:15:18.976Z</time></trkpt><trkpt lat="42.8965726" lon="13.1501582"><ele>730.0</ele><time>2026-04-19T10:15:19.971Z</time></trkpt><trkpt lat="42.8964628" lon="13.1503985"><ele>730.0</ele><time>2026-04-19T10:15:20.982Z</time></trkpt><trkpt lat="42.8963279" lon="13.1505986"><ele>735.3333333333334</ele><time>2026-04-19T10:15:21.97Z</time></trkpt><trkpt lat="42.8961917" lon="13.1507837"><ele>740.6666666666666</ele><time>2026-04-19T10:15:22.973Z</time></trkpt><trkpt lat="42.8960551" lon="13.1509483"><ele>746.0</ele><time>2026-04-19T10:15:23.972Z</time></trkpt><trkpt lat="42.8959346" lon="13.1511007"><ele>744.5</ele><time>2026-04-19T10:15:24.969Z</time></trkpt><trkpt lat="42.8958133" lon="13.1512382"><ele>743.0</ele><time>2026-04-19T10:15:25.968Z</time></trkpt><trkpt lat="42.8957037" lon="13.1513592"><ele>741.5</ele><time>2026-04-19T10:15:26.97Z</time></trkpt><trkpt lat="42.8956074" lon="13.1514727"><ele>740.0</ele><time>2026-04-19T10:15:27.97Z</time></trkpt><trkpt lat="42.8955229" lon="13.1515726"><ele>740.0</ele><time>2026-04-19T10:15:28.979Z</time></trkpt><trkpt lat="42.8954447" lon="13.1516705"><ele>740.0</ele><time>2026-04-19T10:15:29.974Z</time></trkpt><trkpt lat="42.8953608" lon="13.1517589"><ele>740.0</ele><time>2026-04-19T10:15:30.978Z</time></trkpt><trkpt lat="42.8952658" lon="13.1518129"><ele>740.0</ele><time>2026-04-19T10:15:31.974Z</time></trkpt><trkpt lat="42.8951591" lon="13.151852"><ele>740.0</ele><time>2026-04-19T10:15:32.979Z</time></trkpt><trkpt lat="42.8950494" lon="13.1518876"><ele>737.25</ele><time>2026-04-19T10:15:33.977Z</time></trkpt><trkpt lat="42.8949375" lon="13.1519242"><ele>734.5</ele><time>2026-04-19T10:15:34.979Z</time></trkpt><trkpt lat="42.8948177" lon="13.1519617"><ele>731.75</ele><time>2026-04-19T10:15:35.98Z</time></trkpt><trkpt lat="42.8946867" lon="13.1519943"><ele>729.0</ele><time>2026-04-19T10:15:36.983Z</time></trkpt><trkpt lat="42.8945509" lon="13.1520249"><ele>729.0</ele><time>2026-04-19T10:15:37.98Z</time></trkpt><trkpt lat="42.8944208" lon="13.1520617"><ele>729.0</ele><time>2026-04-19T10:15:38.981Z</time></trkpt><trkpt lat="42.8942962" lon="13.1521113"><ele>729.0</ele><time>2026-04-19T10:15:39.979Z</time></trkpt><trkpt lat="42.8941769" lon="13.1521771"><ele>729.0</ele><time>2026-04-19T10:15:40.976Z</time></trkpt><trkpt lat="42.8940636" lon="13.1522597"><ele>729.5</ele><time>2026-04-19T10:15:41.981Z</time></trkpt><trkpt lat="42.8939544" lon="13.1523573"><ele>730.0</ele><time>2026-04-19T10:15:42.979Z</time></trkpt><trkpt lat="42.8938485" lon="13.1524602"><ele>730.5</ele><time>2026-04-19T10:15:43.98Z</time></trkpt><trkpt lat="42.8937416" lon="13.152567"><ele>731.0</ele><time>2026-04-19T10:15:44.982Z</time></trkpt><trkpt lat="42.893642" lon="13.1526795"><ele>731.0</ele><time>2026-04-19T10:15:45.984Z</time></trkpt><trkpt lat="42.893542" lon="13.1527846"><ele>731.0</ele><time>2026-04-19T10:15:46.981Z</time></trkpt><trkpt lat="42.8934426" lon="13.1528834"><ele>731.0</ele><time>2026-04-19T10:15:47.988Z</time></trkpt><trkpt lat="42.8933537" lon="13.1529754"><ele>731.0</ele><time>2026-04-19T10:15:48.984Z</time></trkpt><trkpt lat="42.8932789" lon="13.1530486"><ele>731.0</ele><time>2026-04-19T10:15:49.985Z</time></trkpt><trkpt lat="42.8932142" lon="13.1531097"><ele>731.0</ele><time>2026-04-19T10:15:50.985Z</time></trkpt><trkpt lat="42.8931552" lon="13.153163"><ele>731.0</ele><time>2026-04-19T10:15:51.992Z</time></trkpt><trkpt lat="42.893104" lon="13.1532136"><ele>731.0</ele><time>2026-04-19T10:15:52.983Z</time></trkpt><trkpt lat="42.8930074" lon="13.1533031"><ele>731.0</ele><time>2026-04-19T10:15:54.993Z</time></trkpt><trkpt lat="42.8929305" lon="13.1533893"><ele>731.0</ele><time>2026-04-19T10:15:56.991Z</time></trkpt><trkpt lat="42.8928292" lon="13.153497"><ele>731.0</ele><time>2026-04-19T10:15:58.992Z</time></trkpt><trkpt lat="42.8927774" lon="13.1535603"><ele>731.0</ele><time>2026-04-19T10:15:59.988Z</time></trkpt><trkpt lat="42.8927226" lon="13.153625"><ele>731.0</ele><time>2026-04-19T10:16:00.984Z</time></trkpt><trkpt lat="42.8926583" lon="13.1536855"><ele>731.0</ele><time>2026-04-19T10:16:01.99Z</time></trkpt><trkpt lat="42.89259" lon="13.153742"><ele>731.0</ele><time>2026-04-19T10:16:02.983Z</time></trkpt><trkpt lat="42.8925108" lon="13.153791"><ele>731.0</ele><time>2026-04-19T10:16:03.979Z</time></trkpt><trkpt lat="42.8924217" lon="13.1538302"><ele>730.75</ele><time>2026-04-19T10:16:04.984Z</time></trkpt><trkpt lat="42.8923205" lon="13.1538544"><ele>730.5</ele><time>2026-04-19T10:16:05.984Z</time></trkpt><trkpt lat="42.8922059" lon="13.1538691"><ele>730.25</ele><time>2026-04-19T10:16:06.993Z</time></trkpt><trkpt lat="42.8920822" lon="13.1538743"><ele>730.0</ele><time>2026-04-19T10:16:07.99Z</time></trkpt><trkpt lat="42.8919561" lon="13.153864"><ele>730.0</ele><time>2026-04-19T10:16:08.987Z</time></trkpt><trkpt lat="42.8918233" lon="13.1538363"><ele>730.0</ele><time>2026-04-19T10:16:09.984Z</time></trkpt><trkpt lat="42.891691" lon="13.1537854"><ele>730.0</ele><time>2026-04-19T10:16:10.985Z</time></trkpt><trkpt lat="42.8915523" lon="13.1537184"><ele>730.0</ele><time>2026-04-19T10:16:11.987Z</time></trkpt><trkpt lat="42.8914053" lon="13.1536314"><ele>730.5</ele><time>2026-04-19T10:16:12.988Z</time></trkpt><trkpt lat="42.8912599" lon="13.1535262"><ele>731.0</ele><time>2026-04-19T10:16:13.984Z</time></trkpt><trkpt lat="42.8911262" lon="13.1534374"><ele>731.5</ele><time>2026-04-19T10:16:14.988Z</time></trkpt><trkpt lat="42.8910089" lon="13.1533611"><ele>732.0</ele><time>2026-04-19T10:16:15.984Z</time></trkpt><trkpt lat="42.8909111" lon="13.1532884"><ele>733.0</ele><time>2026-04-19T10:16:16.988Z</time></trkpt><trkpt lat="42.8908316" lon="13.1532193"><ele>734.0</ele><time>2026-04-19T10:16:17.992Z</time></trkpt><trkpt lat="42.8907478" lon="13.1531592"><ele>735.0</ele><time>2026-04-19T10:16:18.988Z</time></trkpt><trkpt lat="42.8906577" lon="13.1530926"><ele>736.0</ele><time>2026-04-19T10:16:19.994Z</time></trkpt><trkpt lat="42.8905533" lon="13.153029"><ele>737.0</ele><time>2026-04-19T10:16:20.986Z</time></trkpt><trkpt lat="42.8904456" lon="13.1529694"><ele>737.0</ele><time>2026-04-19T10:16:21.979Z</time></trkpt><trkpt lat="42.8903235" lon="13.1529065"><ele>737.0</ele><time>2026-04-19T10:16:22.994Z</time></trkpt><trkpt lat="42.8902042" lon="13.152841"><ele>737.0</ele><time>2026-04-19T10:16:23.985Z</time></trkpt><trkpt lat="42.8900836" lon="13.1527734"><ele>737.0</ele><time>2026-04-19T10:16:24.987Z</time></trkpt><trkpt lat="42.8899619" lon="13.1527009"><ele>738.2</ele><time>2026-04-19T10:16:25.982Z</time></trkpt><trkpt lat="42.8898465" lon="13.1526343"><ele>739.4000000000001</ele><time>2026-04-19T10:16:26.984Z</time></trkpt><trkpt lat="42.8897387" lon="13.1525707"><ele>740.5999999999999</ele><time>2026-04-19T10:16:27.98Z</time></trkpt><trkpt lat="42.8896486" lon="13.1525232"><ele>741.8</ele><time>2026-04-19T10:16:28.982Z</time></trkpt><trkpt lat="42.8895818" lon="13.1524999"><ele>743.0</ele><time>2026-04-19T10:16:29.976Z</time></trkpt><trkpt lat="42.8895061" lon="13.152487"><ele>743.0</ele><time>2026-04-19T10:16:31.978Z</time></trkpt><trkpt lat="42.8894529" lon="13.1525418"><ele>743.0</ele><time>2026-04-19T10:16:37.984Z</time></trkpt><trkpt lat="42.8894383" lon="13.1526304"><ele>743.0</ele><time>2026-04-19T10:16:40.982Z</time></trkpt><trkpt lat="42.8894402" lon="13.1527265"><ele>743.0</ele><time>2026-04-19T10:16:42.978Z</time></trkpt><trkpt lat="42.8894562" lon="13.1528299"><ele>743.0</ele><time>2026-04-19T10:16:44.971Z</time></trkpt><trkpt lat="42.8895073" lon="13.1529543"><ele>743.0</ele><time>2026-04-19T10:16:46.97Z</time></trkpt><trkpt lat="42.8895582" lon="13.1530167"><ele>743.0</ele><time>2026-04-19T10:16:47.976Z</time></trkpt><trkpt lat="42.8896377" lon="13.1530475"><ele>743.0</ele><time>2026-04-19T10:16:48.966Z</time></trkpt><trkpt lat="42.8897406" lon="13.1530693"><ele>743.0</ele><time>2026-04-19T10:16:49.969Z</time></trkpt><trkpt lat="42.8898658" lon="13.1530865"><ele>743.0</ele><time>2026-04-19T10:16:50.977Z</time></trkpt><trkpt lat="42.89" lon="13.1531468"><ele>741.5</ele><time>2026-04-19T10:16:51.974Z</time></trkpt><trkpt lat="42.8901173" lon="13.1532518"><ele>740.0</ele><time>2026-04-19T10:16:52.978Z</time></trkpt><trkpt lat="42.8902182" lon="13.1533911"><ele>738.5</ele><time>2026-04-19T10:16:53.986Z</time></trkpt><trkpt lat="42.890313" lon="13.1535398"><ele>737.0</ele><time>2026-04-19T10:16:54.977Z</time></trkpt><trkpt lat="42.8904084" lon="13.1536931"><ele>737.0</ele><time>2026-04-19T10:16:55.979Z</time></trkpt><trkpt lat="42.8905185" lon="13.153848"><ele>737.0</ele><time>2026-04-19T10:16:56.982Z</time></trkpt><trkpt lat="42.8906372" lon="13.1539791"><ele>737.0</ele><time>2026-04-19T10:16:57.977Z</time></trkpt><trkpt lat="42.8907777" lon="13.1540891"><ele>739.3333333333333</ele><time>2026-04-19T10:16:58.979Z</time></trkpt><trkpt lat="42.8909289" lon="13.1541908"><ele>741.6666666666666</ele><time>2026-04-19T10:16:59.979Z</time></trkpt><trkpt lat="42.8910765" lon="13.1543166"><ele>744.0</ele><time>2026-04-19T10:17:00.977Z</time></trkpt><trkpt lat="42.8912196" lon="13.1544561"><ele>744.0</ele><time>2026-04-19T10:17:01.971Z</time></trkpt><trkpt lat="42.8913327" lon="13.1546213"><ele>744.0</ele><time>2026-04-19T10:17:02.971Z</time></trkpt><trkpt lat="42.8914367" lon="13.1547928"><ele>744.0</ele><time>2026-04-19T10:17:03.971Z</time></trkpt><trkpt lat="42.8915422" lon="13.1549185"><ele>748.0</ele><time>2026-04-19T10:17:04.976Z</time></trkpt><trkpt lat="42.8916645" lon="13.155"><ele>752.0</ele><time>2026-04-19T10:17:05.974Z</time></trkpt><trkpt lat="42.8917967" lon="13.1549986"><ele>756.0</ele><time>2026-04-19T10:17:06.969Z</time></trkpt><trkpt lat="42.891962" lon="13.154966"><ele>760.0</ele><time>2026-04-19T10:17:07.976Z</time></trkpt><trkpt lat="42.8921381" lon="13.1549309"><ele>760.0</ele><time>2026-04-19T10:17:08.976Z</time></trkpt><trkpt lat="42.8923003" lon="13.1548966"><ele>760.0</ele><time>2026-04-19T10:17:09.979Z</time></trkpt><trkpt lat="42.8924467" lon="13.1548707"><ele>760.0</ele><time>2026-04-19T10:17:10.98Z</time></trkpt><trkpt lat="42.8925637" lon="13.1548631"><ele>760.0</ele><time>2026-04-19T10:17:11.981Z</time></trkpt><trkpt lat="42.8926654" lon="13.154863"><ele>758.5</ele><time>2026-04-19T10:17:12.979Z</time></trkpt><trkpt lat="42.8927613" lon="13.1548753"><ele>757.0</ele><time>2026-04-19T10:17:13.984Z</time></trkpt><trkpt lat="42.8928466" lon="13.1549206"><ele>755.5</ele><time>2026-04-19T10:17:14.985Z</time></trkpt><trkpt lat="42.8928922" lon="13.1550052"><ele>754.0</ele><time>2026-04-19T10:17:15.987Z</time></trkpt><trkpt lat="42.892901" lon="13.1551054"><ele>752.5</ele><time>2026-04-19T10:17:16.986Z</time></trkpt><trkpt lat="42.8928868" lon="13.1551993"><ele>751.0</ele><time>2026-04-19T10:17:17.981Z</time></trkpt><trkpt lat="42.8928385" lon="13.1552911"><ele>751.0</ele><time>2026-04-19T10:17:18.987Z</time></trkpt><trkpt lat="42.8927583" lon="13.1553594"><ele>751.0</ele><time>2026-04-19T10:17:19.982Z</time></trkpt><trkpt lat="42.892645" lon="13.1553776"><ele>751.0</ele><time>2026-04-19T10:17:20.989Z</time></trkpt><trkpt lat="42.8925064" lon="13.1553487"><ele>751.0</ele><time>2026-04-19T10:17:21.977Z</time></trkpt><trkpt lat="42.892359" lon="13.1553267"><ele>754.0</ele><time>2026-04-19T10:17:22.979Z</time></trkpt><trkpt lat="42.8921965" lon="13.1553669"><ele>757.0</ele><time>2026-04-19T10:17:23.978Z</time></trkpt><trkpt lat="42.8919871" lon="13.1554412"><ele>760.0</ele><time>2026-04-19T10:17:24.984Z</time></trkpt><trkpt lat="42.8917819" lon="13.1555051"><ele>760.6666666666667</ele><time>2026-04-19T10:17:25.974Z</time></trkpt><trkpt lat="42.891595" lon="13.1555467"><ele>761.3333333333334</ele><time>2026-04-19T10:17:26.973Z</time></trkpt><trkpt lat="42.8914144" lon="13.155552"><ele>762.0</ele><time>2026-04-19T10:17:27.97Z</time></trkpt><trkpt lat="42.8912435" lon="13.1555466"><ele>762.0</ele><time>2026-04-19T10:17:28.976Z</time></trkpt><trkpt lat="42.8910702" lon="13.1555141"><ele>762.0</ele><time>2026-04-19T10:17:29.973Z</time></trkpt><trkpt lat="42.8908973" lon="13.1554826"><ele>762.0</ele><time>2026-04-19T10:17:30.972Z</time></trkpt><trkpt lat="42.8907406" lon="13.1554556"><ele>765.0</ele><time>2026-04-19T10:17:31.97Z</time></trkpt><trkpt lat="42.890586" lon="13.1554326"><ele>768.0</ele><time>2026-04-19T10:17:32.976Z</time></trkpt><trkpt lat="42.8904325" lon="13.1554057"><ele>771.0</ele><time>2026-04-19T10:17:33.975Z</time></trkpt><trkpt lat="42.8902699" lon="13.1553786"><ele>771.0</ele><time>2026-04-19T10:17:34.977Z</time></trkpt><trkpt lat="42.8901043" lon="13.1553566"><ele>771.0</ele><time>2026-04-19T10:17:35.973Z</time></trkpt><trkpt lat="42.8899503" lon="13.1553372"><ele>771.0</ele><time>2026-04-19T10:17:36.982Z</time></trkpt><trkpt lat="42.8897885" lon="13.155311"><ele>776.3333333333333</ele><time>2026-04-19T10:17:37.97Z</time></trkpt><trkpt lat="42.8896254" lon="13.1553048"><ele>781.6666666666666</ele><time>2026-04-19T10:17:38.971Z</time></trkpt><trkpt lat="42.889465" lon="13.1553264"><ele>787.0</ele><time>2026-04-19T10:17:39.976Z</time></trkpt><trkpt lat="42.88932" lon="13.1553502"><ele>789.6666666666666</ele><time>2026-04-19T10:17:40.976Z</time></trkpt><trkpt lat="42.8891712" lon="13.1553728"><ele>792.3333333333333</ele><time>2026-04-19T10:17:41.979Z</time></trkpt><trkpt lat="42.8890204" lon="13.1553982"><ele>795.0</ele><time>2026-04-19T10:17:42.977Z</time></trkpt><trkpt lat="42.8888731" lon="13.1554308"><ele>795.0</ele><time>2026-04-19T10:17:43.977Z</time></trkpt><trkpt lat="42.8887119" lon="13.1554586"><ele>795.0</ele><time>2026-04-19T10:17:44.974Z</time></trkpt><trkpt lat="42.8885567" lon="13.1555034"><ele>795.0</ele><time>2026-04-19T10:17:45.978Z</time></trkpt><trkpt lat="42.8884135" lon="13.1555506"><ele>794.8</ele><time>2026-04-19T10:17:46.972Z</time></trkpt><trkpt lat="42.8882923" lon="13.1555722"><ele>794.6</ele><time>2026-04-19T10:17:47.973Z</time></trkpt><trkpt lat="42.8881856" lon="13.1555925"><ele>794.4000000000001</ele><time>2026-04-19T10:17:48.972Z</time></trkpt><trkpt lat="42.8881048" lon="13.1556148"><ele>794.2</ele><time>2026-04-19T10:17:49.975Z</time></trkpt><trkpt lat="42.8880434" lon="13.1556462"><ele>794.0</ele><time>2026-04-19T10:17:50.975Z</time></trkpt><trkpt lat="42.8879563" lon="13.1557082"><ele>799.75</ele><time>2026-04-19T10:17:52.972Z</time></trkpt><trkpt lat="42.8879414" lon="13.1558154"><ele>805.5</ele><time>2026-04-19T10:17:54.977Z</time></trkpt><trkpt lat="42.8880159" lon="13.1558758"><ele>811.25</ele><time>2026-04-19T10:17:55.985Z</time></trkpt><trkpt lat="42.8881382" lon="13.1559098"><ele>817.0</ele><time>2026-04-19T10:17:56.978Z</time></trkpt><trkpt lat="42.8883044" lon="13.155944"><ele>815.5</ele><time>2026-04-19T10:17:57.971Z</time></trkpt><trkpt lat="42.8884914" lon="13.1559825"><ele>814.0</ele><time>2026-04-19T10:17:58.979Z</time></trkpt><trkpt lat="42.8887498" lon="13.1560451"><ele>814.0</ele><time>2026-04-19T10:17:59.971Z</time></trkpt><trkpt lat="42.8889862" lon="13.1561068"><ele>814.0</ele><time>2026-04-19T10:18:00.976Z</time></trkpt><trkpt lat="42.8891869" lon="13.156151"><ele>814.0</ele><time>2026-04-19T10:18:01.972Z</time></trkpt><trkpt lat="42.8893417" lon="13.1561487"><ele>813.6</ele><time>2026-04-19T10:18:02.978Z</time></trkpt><trkpt lat="42.8894609" lon="13.1561507"><ele>813.2</ele><time>2026-04-19T10:18:03.974Z</time></trkpt><trkpt lat="42.8895411" lon="13.1562013"><ele>812.8000000000001</ele><time>2026-04-19T10:18:04.974Z</time></trkpt><trkpt lat="42.8895828" lon="13.1562983"><ele>812.4000000000001</ele><time>2026-04-19T10:18:05.974Z</time></trkpt><trkpt lat="42.8895748" lon="13.1563977"><ele>812.0</ele><time>2026-04-19T10:18:06.974Z</time></trkpt><trkpt lat="42.889496" lon="13.1564843"><ele>812.0</ele><time>2026-04-19T10:18:07.978Z</time></trkpt><trkpt lat="42.8893671" lon="13.1565345"><ele>812.0</ele><time>2026-04-19T10:18:08.971Z</time></trkpt><trkpt lat="42.8891981" lon="13.1565454"><ele>812.0</ele><time>2026-04-19T10:18:09.972Z</time></trkpt><trkpt lat="42.8889991" lon="13.1565623"><ele>820.0</ele><time>2026-04-19T10:18:10.972Z</time></trkpt><trkpt lat="42.8887755" lon="13.156599"><ele>828.0</ele><time>2026-04-19T10:18:11.977Z</time></trkpt><trkpt lat="42.8885999" lon="13.156637"><ele>836.0</ele><time>2026-04-19T10:18:12.972Z</time></trkpt><trkpt lat="42.8884618" lon="13.1566655"><ele>836.0000000000001</ele><time>2026-04-19T10:18:13.977Z</time></trkpt><trkpt lat="42.8883516" lon="13.1566845"><ele>836.0</ele><time>2026-04-19T10:18:14.977Z</time></trkpt><trkpt lat="42.8882677" lon="13.1567191"><ele>836.0</ele><time>2026-04-19T10:18:15.977Z</time></trkpt><trkpt lat="42.888219" lon="13.156787"><ele>836.0</ele><time>2026-04-19T10:18:16.975Z</time></trkpt><trkpt lat="42.8882339" lon="13.1568745"><ele>836.0000000000001</ele><time>2026-04-19T10:18:17.981Z</time></trkpt><trkpt lat="42.8883117" lon="13.1569772"><ele>836.0</ele><time>2026-04-19T10:18:18.977Z</time></trkpt><trkpt lat="42.8884304" lon="13.1570624"><ele>836.0</ele><time>2026-04-19T10:18:19.974Z</time></trkpt><trkpt lat="42.8885778" lon="13.1570982"><ele>836.0</ele><time>2026-04-19T10:18:20.973Z</time></trkpt><trkpt lat="42.8887656" lon="13.1571121"><ele>836.0</ele><time>2026-04-19T10:18:21.969Z</time></trkpt><trkpt lat="42.8890266" lon="13.1571217"><ele>835.6666666666667</ele><time>2026-04-19T10:18:22.97Z</time></trkpt><trkpt lat="42.8892665" lon="13.1571507"><ele>835.3333333333333</ele><time>2026-04-19T10:18:23.973Z</time></trkpt><trkpt lat="42.8894595" lon="13.1571898"><ele>835.0</ele><time>2026-04-19T10:18:24.975Z</time></trkpt><trkpt lat="42.8896199" lon="13.1572"><ele>835.0</ele><time>2026-04-19T10:18:25.971Z</time></trkpt><trkpt lat="42.8897607" lon="13.1572108"><ele>835.0</ele><time>2026-04-19T10:18:26.988Z</time></trkpt><trkpt lat="42.8898619" lon="13.1572467"><ele>835.0</ele><time>2026-04-19T10:18:27.975Z</time></trkpt><trkpt lat="42.8899189" lon="13.1573293"><ele>835.0</ele><time>2026-04-19T10:18:28.98Z</time></trkpt><trkpt lat="42.8899042" lon="13.1574506"><ele>835.0</ele><time>2026-04-19T10:18:29.974Z</time></trkpt><trkpt lat="42.8898351" lon="13.1575395"><ele>842.6666666666666</ele><time>2026-04-19T10:18:30.974Z</time></trkpt><trkpt lat="42.8897233" lon="13.157565"><ele>850.3333333333333</ele><time>2026-04-19T10:18:31.975Z</time></trkpt><trkpt lat="42.8895593" lon="13.1575237"><ele>858.0</ele><time>2026-04-19T10:18:32.975Z</time></trkpt><trkpt lat="42.8893716" lon="13.1575303"><ele>857.5</ele><time>2026-04-19T10:18:33.976Z</time></trkpt><trkpt lat="42.8891487" lon="13.157628"><ele>857.0</ele><time>2026-04-19T10:18:34.979Z</time></trkpt><trkpt lat="42.8889222" lon="13.1577853"><ele>857.0</ele><time>2026-04-19T10:18:35.981Z</time></trkpt><trkpt lat="42.8887328" lon="13.1579259"><ele>857.0</ele><time>2026-04-19T10:18:36.98Z</time></trkpt><trkpt lat="42.8885775" lon="13.1580555"><ele>857.0</ele><time>2026-04-19T10:18:37.977Z</time></trkpt><trkpt lat="42.8884302" lon="13.1581791"><ele>863.3333333333334</ele><time>2026-04-19T10:18:38.976Z</time></trkpt><trkpt lat="42.8882908" lon="13.1583069"><ele>869.6666666666667</ele><time>2026-04-19T10:18:39.981Z</time></trkpt><trkpt lat="42.8881717" lon="13.1584275"><ele>876.0</ele><time>2026-04-19T10:18:40.982Z</time></trkpt><trkpt lat="42.8880638" lon="13.158541"><ele>876.0</ele><time>2026-04-19T10:18:41.983Z</time></trkpt><trkpt lat="42.8879595" lon="13.1586674"><ele>876.0</ele><time>2026-04-19T10:18:42.989Z</time></trkpt><trkpt lat="42.8878597" lon="13.1588278"><ele>876.0</ele><time>2026-04-19T10:18:43.981Z</time></trkpt><trkpt lat="42.8877414" lon="13.1590047"><ele>879.0</ele><time>2026-04-19T10:18:44.98Z</time></trkpt><trkpt lat="42.887612" lon="13.1591691"><ele>882.0</ele><time>2026-04-19T10:18:45.984Z</time></trkpt><trkpt lat="42.8874817" lon="13.1593599"><ele>885.0</ele><time>2026-04-19T10:18:46.977Z</time></trkpt><trkpt lat="42.8873581" lon="13.1595635"><ele>885.0</ele><time>2026-04-19T10:18:47.984Z</time></trkpt><trkpt lat="42.8872253" lon="13.159792"><ele>885.0</ele><time>2026-04-19T10:18:48.984Z</time></trkpt><trkpt lat="42.8871108" lon="13.1600278"><ele>885.0</ele><time>2026-04-19T10:18:49.982Z</time></trkpt><trkpt lat="42.8869868" lon="13.1602827"><ele>890.6666666666667</ele><time>2026-04-19T10:18:50.98Z</time></trkpt><trkpt lat="42.8868716" lon="13.160547"><ele>896.3333333333334</ele><time>2026-04-19T10:18:51.985Z</time></trkpt><trkpt lat="42.886751" lon="13.1608"><ele>902.0</ele><time>2026-04-19T10:18:52.984Z</time></trkpt><trkpt lat="42.8866341" lon="13.1610451"><ele>902.0</ele><time>2026-04-19T10:18:53.98Z</time></trkpt><trkpt lat="42.8865149" lon="13.1612916"><ele>902.0</ele><time>2026-04-19T10:18:54.986Z</time></trkpt><trkpt lat="42.8863965" lon="13.1615206"><ele>902.0</ele><time>2026-04-19T10:18:55.981Z</time></trkpt><trkpt lat="42.8862854" lon="13.161733"><ele>904.6666666666667</ele><time>2026-04-19T10:18:56.984Z</time></trkpt><trkpt lat="42.886146" lon="13.1618873"><ele>907.3333333333333</ele><time>2026-04-19T10:18:57.992Z</time></trkpt><trkpt lat="42.8859759" lon="13.1619804"><ele>910.0</ele><time>2026-04-19T10:18:58.975Z</time></trkpt><trkpt lat="42.885789" lon="13.1620436"><ele>910.0</ele><time>2026-04-19T10:18:59.972Z</time></trkpt><trkpt lat="42.8855911" lon="13.1620781"><ele>910.0</ele><time>2026-04-19T10:19:00.968Z</time></trkpt><trkpt lat="42.8853916" lon="13.1621022"><ele>910.0</ele><time>2026-04-19T10:19:01.968Z</time></trkpt><trkpt lat="42.8851891" lon="13.162132"><ele>911.3333333333333</ele><time>2026-04-19T10:19:02.973Z</time></trkpt><trkpt lat="42.8849989" lon="13.1622001"><ele>912.6666666666667</ele><time>2026-04-19T10:19:03.978Z</time></trkpt><trkpt lat="42.8848318" lon="13.1623087"><ele>914.0</ele><time>2026-04-19T10:19:04.978Z</time></trkpt><trkpt lat="42.8846796" lon="13.1624456"><ele>918.75</ele><time>2026-04-19T10:19:05.979Z</time></trkpt><trkpt lat="42.8845561" lon="13.1625915"><ele>923.5</ele><time>2026-04-19T10:19:06.989Z</time></trkpt><trkpt lat="42.8844796" lon="13.1627511"><ele>928.25</ele><time>2026-04-19T10:19:07.984Z</time></trkpt><trkpt lat="42.8844401" lon="13.1629078"><ele>933.0</ele><time>2026-04-19T10:19:08.998Z</time></trkpt><trkpt lat="42.8844379" lon="13.1630474"><ele>933.0</ele><time>2026-04-19T10:19:09.986Z</time></trkpt><trkpt lat="42.884485" lon="13.1631452"><ele>933.0</ele><time>2026-04-19T10:19:10.987Z</time></trkpt><trkpt lat="42.8846188" lon="13.1632152"><ele>933.0</ele><time>2026-04-19T10:19:11.981Z</time></trkpt><trkpt lat="42.8847988" lon="13.1632636"><ele>933.0</ele><time>2026-04-19T10:19:12.974Z</time></trkpt><trkpt lat="42.884974" lon="13.1632595"><ele>933.0</ele><time>2026-04-19T10:19:13.974Z</time></trkpt><trkpt lat="42.8851674" lon="13.1632439"><ele>933.0</ele><time>2026-04-19T10:19:14.975Z</time></trkpt><trkpt lat="42.885368" lon="13.1632057"><ele>933.0</ele><time>2026-04-19T10:19:15.982Z</time></trkpt><trkpt lat="42.8855521" lon="13.1631789"><ele>933.0</ele><time>2026-04-19T10:19:16.973Z</time></trkpt><trkpt lat="42.8857233" lon="13.1631826"><ele>933.0</ele><time>2026-04-19T10:19:17.99Z</time></trkpt><trkpt lat="42.8858683" lon="13.1632405"><ele>933.0</ele><time>2026-04-19T10:19:18.986Z</time></trkpt><trkpt lat="42.885986" lon="13.1633194"><ele>940.3333333333333</ele><time>2026-04-19T10:19:19.985Z</time></trkpt><trkpt lat="42.886112" lon="13.1634508"><ele>947.6666666666666</ele><time>2026-04-19T10:19:20.989Z</time></trkpt><trkpt lat="42.8862347" lon="13.1636179"><ele>955.0</ele><time>2026-04-19T10:19:21.981Z</time></trkpt><trkpt lat="42.8863744" lon="13.1637346"><ele>955.0</ele><time>2026-04-19T10:19:22.983Z</time></trkpt><trkpt lat="42.8865137" lon="13.163779"><ele>955.0</ele><time>2026-04-19T10:19:23.979Z</time></trkpt><trkpt lat="42.8866032" lon="13.1638241"><ele>955.0</ele><time>2026-04-19T10:19:24.984Z</time></trkpt><trkpt lat="42.8866368" lon="13.1639334"><ele>955.0</ele><time>2026-04-19T10:19:25.985Z</time></trkpt><trkpt lat="42.8865913" lon="13.1640602"><ele>955.0</ele><time>2026-04-19T10:19:26.986Z</time></trkpt><trkpt lat="42.8864897" lon="13.1641627"><ele>961.3333333333333</ele><time>2026-04-19T10:19:27.98Z</time></trkpt><trkpt lat="42.8863708" lon="13.1642529"><ele>967.6666666666667</ele><time>2026-04-19T10:19:28.998Z</time></trkpt><trkpt lat="42.8862311" lon="13.1643465"><ele>974.0</ele><time>2026-04-19T10:19:29.983Z</time></trkpt><trkpt lat="42.8860654" lon="13.1644553"><ele>972.25</ele><time>2026-04-19T10:19:30.984Z</time></trkpt><trkpt lat="42.8859065" lon="13.1645688"><ele>970.5</ele><time>2026-04-19T10:19:31.988Z</time></trkpt><trkpt lat="42.88577" lon="13.1646602"><ele>968.75</ele><time>2026-04-19T10:19:32.987Z</time></trkpt><trkpt lat="42.8856716" lon="13.164744"><ele>967.0</ele><time>2026-04-19T10:19:33.987Z</time></trkpt><trkpt lat="42.8855954" lon="13.1648435"><ele>970.75</ele><time>2026-04-19T10:19:34.992Z</time></trkpt><trkpt lat="42.8855932" lon="13.1649671"><ele>974.5</ele><time>2026-04-19T10:19:35.99Z</time></trkpt><trkpt lat="42.8856708" lon="13.1650864"><ele>978.25</ele><time>2026-04-19T10:19:36.997Z</time></trkpt><trkpt lat="42.8858114" lon="13.1651927"><ele>982.0</ele><time>2026-04-19T10:19:37.985Z</time></trkpt><trkpt lat="42.8859815" lon="13.1651954"><ele>982.6666666666666</ele><time>2026-04-19T10:19:38.983Z</time></trkpt><trkpt lat="42.8861634" lon="13.1651771"><ele>983.3333333333333</ele><time>2026-04-19T10:19:39.977Z</time></trkpt><trkpt lat="42.8863309" lon="13.1651823"><ele>984.0</ele><time>2026-04-19T10:19:40.974Z</time></trkpt><trkpt lat="42.8865114" lon="13.1652029"><ele>984.0</ele><time>2026-04-19T10:19:41.98Z</time></trkpt><trkpt lat="42.8866936" lon="13.1652199"><ele>984.0</ele><time>2026-04-19T10:19:42.976Z</time></trkpt><trkpt lat="42.8868442" lon="13.1652125"><ele>984.0</ele><time>2026-04-19T10:19:43.978Z</time></trkpt><trkpt lat="42.8869663" lon="13.1652186"><ele>984.25</ele><time>2026-04-19T10:19:44.984Z</time></trkpt><trkpt lat="42.8870475" lon="13.1652871"><ele>984.5</ele><time>2026-04-19T10:19:45.982Z</time></trkpt><trkpt lat="42.8870954" lon="13.165411"><ele>984.75</ele><time>2026-04-19T10:19:46.983Z</time></trkpt><trkpt lat="42.8870978" lon="13.165569"><ele>985.0</ele><time>2026-04-19T10:19:47.981Z</time></trkpt><trkpt lat="42.8870696" lon="13.165754"><ele>987.6666666666666</ele><time>2026-04-19T10:19:48.982Z</time></trkpt><trkpt lat="42.8869944" lon="13.1659416"><ele>990.3333333333333</ele><time>2026-04-19T10:19:49.982Z</time></trkpt><trkpt lat="42.8869152" lon="13.16614"><ele>993.0</ele><time>2026-04-19T10:19:50.979Z</time></trkpt><trkpt lat="42.8868516" lon="13.1663457"><ele>993.0</ele><time>2026-04-19T10:19:51.98Z</time></trkpt><trkpt lat="42.8867664" lon="13.1665076"><ele>993.0</ele><time>2026-04-19T10:19:52.984Z</time></trkpt><trkpt lat="42.8866371" lon="13.1665986"><ele>993.0</ele><time>2026-04-19T10:19:53.983Z</time></trkpt><trkpt lat="42.8864706" lon="13.166635"><ele>996.6666666666667</ele><time>2026-04-19T10:19:54.982Z</time></trkpt><trkpt lat="42.8862788" lon="13.1666412"><ele>1000.3333333333334</ele><time>2026-04-19T10:19:55.976Z</time></trkpt><trkpt lat="42.8860843" lon="13.1666723"><ele>1004.0</ele><time>2026-04-19T10:19:56.983Z</time></trkpt><trkpt lat="42.8858935" lon="13.1667613"><ele>1005.6666666666667</ele><time>2026-04-19T10:19:57.979Z</time></trkpt><trkpt lat="42.8857161" lon="13.1669082"><ele>1007.3333333333333</ele><time>2026-04-19T10:19:58.975Z</time></trkpt><trkpt lat="42.8855261" lon="13.1670553"><ele>1009.0</ele><time>2026-04-19T10:19:59.977Z</time></trkpt><trkpt lat="42.8853271" lon="13.1671656"><ele>1009.0</ele><time>2026-04-19T10:20:00.97Z</time></trkpt><trkpt lat="42.8851017" lon="13.1672347"><ele>1009.0</ele><time>2026-04-19T10:20:01.967Z</time></trkpt><trkpt lat="42.8848544" lon="13.1672915"><ele>1010.0</ele><time>2026-04-19T10:20:02.967Z</time></trkpt><trkpt lat="42.8846103" lon="13.1673234"><ele>1011.0</ele><time>2026-04-19T10:20:03.964Z</time></trkpt><trkpt lat="42.8843649" lon="13.1673364"><ele>1014.5</ele><time>2026-04-19T10:20:04.963Z</time></trkpt><trkpt lat="42.8841167" lon="13.167329"><ele>1018.0</ele><time>2026-04-19T10:20:05.968Z</time></trkpt><trkpt lat="42.8838698" lon="13.1673072"><ele>1018.0</ele><time>2026-04-19T10:20:06.969Z</time></trkpt><trkpt lat="42.8836248" lon="13.167301"><ele>1018.0</ele><time>2026-04-19T10:20:07.967Z</time></trkpt><trkpt lat="42.8833846" lon="13.1672975"><ele>1019.5</ele><time>2026-04-19T10:20:08.97Z</time></trkpt><trkpt lat="42.8831472" lon="13.1673362"><ele>1021.0</ele><time>2026-04-19T10:20:09.97Z</time></trkpt><trkpt lat="42.8829153" lon="13.1674081"><ele>1028.6666666666665</ele><time>2026-04-19T10:20:10.974Z</time></trkpt><trkpt lat="42.8827001" lon="13.1675002"><ele>1036.3333333333333</ele><time>2026-04-19T10:20:11.974Z</time></trkpt><trkpt lat="42.8825243" lon="13.1675722"><ele>1044.0</ele><time>2026-04-19T10:20:12.975Z</time></trkpt><trkpt lat="42.882397" lon="13.1676069"><ele>1044.2</ele><time>2026-04-19T10:20:13.971Z</time></trkpt><trkpt lat="42.8822811" lon="13.1676322"><ele>1044.4</ele><time>2026-04-19T10:20:14.98Z</time></trkpt><trkpt lat="42.8822068" lon="13.1676981"><ele>1044.6</ele><time>2026-04-19T10:20:15.979Z</time></trkpt><trkpt lat="42.8821881" lon="13.1678098"><ele>1044.8</ele><time>2026-04-19T10:20:16.977Z</time></trkpt><trkpt lat="42.8822391" lon="13.16792"><ele>1045.0</ele><time>2026-04-19T10:20:17.977Z</time></trkpt><trkpt lat="42.8823538" lon="13.1679763"><ele>1045.0</ele><time>2026-04-19T10:20:18.98Z</time></trkpt><trkpt lat="42.8825023" lon="13.1679817"><ele>1045.0</ele><time>2026-04-19T10:20:19.976Z</time></trkpt><trkpt lat="42.8826679" lon="13.1679768"><ele>1045.0</ele><time>2026-04-19T10:20:20.972Z</time></trkpt><trkpt lat="42.8828236" lon="13.1680195"><ele>1044.6666666666665</ele><time>2026-04-19T10:20:21.975Z</time></trkpt><trkpt lat="42.8829825" lon="13.1681176"><ele>1044.3333333333333</ele><time>2026-04-19T10:20:22.973Z</time></trkpt><trkpt lat="42.8831421" lon="13.1682263"><ele>1044.0</ele><time>2026-04-19T10:20:23.969Z</time></trkpt><trkpt lat="42.8832888" lon="13.1683119"><ele>1049.0</ele><time>2026-04-19T10:20:24.979Z</time></trkpt><trkpt lat="42.8833834" lon="13.1683489"><ele>1054.0</ele><time>2026-04-19T10:20:25.978Z</time></trkpt><trkpt lat="42.8834527" lon="13.1683715"><ele>1059.0</ele><time>2026-04-19T10:20:26.975Z</time></trkpt><trkpt lat="42.883577" lon="13.16842"><ele>1064.0</ele><time>2026-04-19T10:20:28.979Z</time></trkpt><trkpt lat="42.8836656" lon="13.168499"><ele>1069.0</ele><time>2026-04-19T10:20:30.982Z</time></trkpt><trkpt lat="42.8836998" lon="13.1686276"><ele>1069.0</ele><time>2026-04-19T10:20:32.971Z</time></trkpt><trkpt lat="42.8835789" lon="13.1687364"><ele>1069.0</ele><time>2026-04-19T10:20:34.97Z</time></trkpt><trkpt lat="42.8834491" lon="13.1687489"><ele>1069.0</ele><time>2026-04-19T10:20:35.971Z</time></trkpt><trkpt lat="42.8832897" lon="13.1687281"><ele>1069.0</ele><time>2026-04-19T10:20:36.964Z</time></trkpt><trkpt lat="42.8831148" lon="13.1687119"><ele>1069.0</ele><time>2026-04-19T10:20:37.966Z</time></trkpt><trkpt lat="42.8829049" lon="13.1687027"><ele>1069.0</ele><time>2026-04-19T10:20:38.964Z</time></trkpt><trkpt lat="42.8826897" lon="13.1686993"><ele>1069.0</ele><time>2026-04-19T10:20:39.965Z</time></trkpt><trkpt lat="42.882504" lon="13.1687061"><ele>1070.2</ele><time>2026-04-19T10:20:40.97Z</time></trkpt><trkpt lat="42.8823655" lon="13.1687047"><ele>1071.4</ele><time>2026-04-19T10:20:41.96Z</time></trkpt><trkpt lat="42.8822827" lon="13.1687154"><ele>1072.6</ele><time>2026-04-19T10:20:42.976Z</time></trkpt><trkpt lat="42.8822252" lon="13.1687772"><ele>1073.8</ele><time>2026-04-19T10:20:43.967Z</time></trkpt><trkpt lat="42.8822086" lon="13.1688859"><ele>1075.0</ele><time>2026-04-19T10:20:44.964Z</time></trkpt><trkpt lat="42.8822716" lon="13.1689729"><ele>1075.0</ele><time>2026-04-19T10:20:45.965Z</time></trkpt><trkpt lat="42.8823921" lon="13.1690203"><ele>1075.0</ele><time>2026-04-19T10:20:46.966Z</time></trkpt><trkpt lat="42.8825376" lon="13.1690164"><ele>1075.0</ele><time>2026-04-19T10:20:47.962Z</time></trkpt><trkpt lat="42.882719" lon="13.1690079"><ele>1073.0</ele><time>2026-04-19T10:20:48.962Z</time></trkpt><trkpt lat="42.8829054" lon="13.1690202"><ele>1071.0</ele><time>2026-04-19T10:20:49.961Z</time></trkpt><trkpt lat="42.8831099" lon="13.1690509"><ele>1069.0</ele><time>2026-04-19T10:20:50.96Z</time></trkpt><trkpt lat="42.8833226" lon="13.1691257"><ele>1088.5</ele><time>2026-04-19T10:20:51.96Z</time></trkpt><trkpt lat="42.8835391" lon="13.1691921"><ele>1108.0</ele><time>2026-04-19T10:20:52.961Z</time></trkpt><trkpt lat="42.8837679" lon="13.1692403"><ele>1108.0</ele><time>2026-04-19T10:20:53.965Z</time></trkpt><trkpt lat="42.8840019" lon="13.1692595"><ele>1108.0</ele><time>2026-04-19T10:20:54.964Z</time></trkpt><trkpt lat="42.8842249" lon="13.1692612"><ele>1107.3333333333333</ele><time>2026-04-19T10:20:55.967Z</time></trkpt><trkpt lat="42.8844416" lon="13.1692497"><ele>1106.6666666666667</ele><time>2026-04-19T10:20:56.969Z</time></trkpt><trkpt lat="42.88463" lon="13.1692495"><ele>1106.0</ele><time>2026-04-19T10:20:57.97Z</time></trkpt><trkpt lat="42.8847832" lon="13.169268"><ele>1106.0</ele><time>2026-04-19T10:20:58.977Z</time></trkpt><trkpt lat="42.884918" lon="13.1692982"><ele>1106.0</ele><time>2026-04-19T10:20:59.975Z</time></trkpt><trkpt lat="42.8850285" lon="13.1693938"><ele>1106.0</ele><time>2026-04-19T10:21:00.982Z</time></trkpt><trkpt lat="42.885112" lon="13.1695744"><ele>1106.0</ele><time>2026-04-19T10:21:01.988Z</time></trkpt><trkpt lat="42.8851692" lon="13.1698065"><ele>1099.6666666666667</ele><time>2026-04-19T10:21:02.976Z</time></trkpt><trkpt lat="42.8852133" lon="13.1700521"><ele>1093.3333333333333</ele><time>2026-04-19T10:21:03.979Z</time></trkpt><trkpt lat="42.8852404" lon="13.17032"><ele>1087.0</ele><time>2026-04-19T10:21:04.975Z</time></trkpt><trkpt lat="42.8852475" lon="13.1705938"><ele>1088.0</ele><time>2026-04-19T10:21:05.976Z</time></trkpt><trkpt lat="42.8852383" lon="13.1708555"><ele>1089.0</ele><time>2026-04-19T10:21:06.977Z</time></trkpt><trkpt lat="42.8851974" lon="13.1711002"><ele>1090.0</ele><time>2026-04-19T10:21:07.973Z</time></trkpt><trkpt lat="42.8851336" lon="13.1713522"><ele>1091.0</ele><time>2026-04-19T10:21:08.975Z</time></trkpt><trkpt lat="42.8850977" lon="13.1716192"><ele>1092.0</ele><time>2026-04-19T10:21:09.969Z</time></trkpt><trkpt lat="42.8851119" lon="13.1718913"><ele>1093.0</ele><time>2026-04-19T10:21:10.971Z</time></trkpt><trkpt lat="42.8851122" lon="13.1721659"><ele>1092.6666666666665</ele><time>2026-04-19T10:21:11.967Z</time></trkpt><trkpt lat="42.885108" lon="13.1724142"><ele>1092.3333333333333</ele><time>2026-04-19T10:21:12.978Z</time></trkpt><trkpt lat="42.8850838" lon="13.1726112"><ele>1092.0</ele><time>2026-04-19T10:21:13.975Z</time></trkpt><trkpt lat="42.8850207" lon="13.1727763"><ele>1106.6666666666667</ele><time>2026-04-19T10:21:14.977Z</time></trkpt><trkpt lat="42.8848818" lon="13.1729268"><ele>1121.3333333333335</ele><time>2026-04-19T10:21:15.977Z</time></trkpt><trkpt lat="42.8847309" lon="13.1730566"><ele>1136.0</ele><time>2026-04-19T10:21:16.976Z</time></trkpt><trkpt lat="42.8846106" lon="13.1731995"><ele>1136.0</ele><time>2026-04-19T10:21:17.982Z</time></trkpt><trkpt lat="42.884513" lon="13.1733322"><ele>1136.0</ele><time>2026-04-19T10:21:18.977Z</time></trkpt><trkpt lat="42.8844524" lon="13.1734568"><ele>1136.0</ele><time>2026-04-19T10:21:19.973Z</time></trkpt><trkpt lat="42.8844204" lon="13.17358"><ele>1136.0</ele><time>2026-04-19T10:21:20.976Z</time></trkpt><trkpt lat="42.8844486" lon="13.1736989"><ele>1136.0</ele><time>2026-04-19T10:21:21.966Z</time></trkpt><trkpt lat="42.8845072" lon="13.1738038"><ele>1136.0</ele><time>2026-04-19T10:21:22.974Z</time></trkpt><trkpt lat="42.8846079" lon="13.1739258"><ele>1136.0</ele><time>2026-04-19T10:21:23.967Z</time></trkpt><trkpt lat="42.8847212" lon="13.1740381"><ele>1136.0</ele><time>2026-04-19T10:21:24.969Z</time></trkpt><trkpt lat="42.8848488" lon="13.1741795"><ele>1136.0</ele><time>2026-04-19T10:21:25.962Z</time></trkpt><trkpt lat="42.8849844" lon="13.1743377"><ele>1132.6666666666667</ele><time>2026-04-19T10:21:26.964Z</time></trkpt><trkpt lat="42.8850977" lon="13.1745414"><ele>1129.3333333333333</ele><time>2026-04-19T10:21:27.968Z</time></trkpt><trkpt lat="42.8851881" lon="13.1747902"><ele>1126.0</ele><time>2026-04-19T10:21:28.987Z</time></trkpt><trkpt lat="42.8852266" lon="13.1750591"><ele>1132.6666666666665</ele><time>2026-04-19T10:21:29.977Z</time></trkpt><trkpt lat="42.8852582" lon="13.1753478"><ele>1139.3333333333333</ele><time>2026-04-19T10:21:30.981Z</time></trkpt><trkpt lat="42.8852603" lon="13.1756382"><ele>1146.0</ele><time>2026-04-19T10:21:31.976Z</time></trkpt><trkpt lat="42.8852716" lon="13.1759459"><ele>1150.0</ele><time>2026-04-19T10:21:32.979Z</time></trkpt><trkpt lat="42.8852778" lon="13.1762601"><ele>1154.0</ele><time>2026-04-19T10:21:33.977Z</time></trkpt><trkpt lat="42.8852886" lon="13.1765752"><ele>1154.5</ele><time>2026-04-19T10:21:34.979Z</time></trkpt><trkpt lat="42.8852951" lon="13.1768839"><ele>1155.0</ele><time>2026-04-19T10:21:35.975Z</time></trkpt><trkpt lat="42.8852916" lon="13.1771903"><ele>1156.0</ele><time>2026-04-19T10:21:36.978Z</time></trkpt><trkpt lat="42.8852623" lon="13.1774752"><ele>1157.0</ele><time>2026-04-19T10:21:37.972Z</time></trkpt><trkpt lat="42.8852231" lon="13.177728"><ele>1158.0</ele><time>2026-04-19T10:21:38.977Z</time></trkpt><trkpt lat="42.8851761" lon="13.1779326"><ele>1158.0</ele><time>2026-04-19T10:21:39.98Z</time></trkpt><trkpt lat="42.8851416" lon="13.1780858"><ele>1158.0</ele><time>2026-04-19T10:21:40.978Z</time></trkpt><trkpt lat="42.885093" lon="13.1781924"><ele>1158.0</ele><time>2026-04-19T10:21:41.981Z</time></trkpt><trkpt lat="42.8850021" lon="13.1782077"><ele>1158.0</ele><time>2026-04-19T10:21:42.978Z</time></trkpt><trkpt lat="42.8848996" lon="13.1781166"><ele>1158.0</ele><time>2026-04-19T10:21:43.978Z</time></trkpt><trkpt lat="42.8848647" lon="13.1779624"><ele>1167.6666666666667</ele><time>2026-04-19T10:21:44.984Z</time></trkpt><trkpt lat="42.8848723" lon="13.1777751"><ele>1177.3333333333335</ele><time>2026-04-19T10:21:45.984Z</time></trkpt><trkpt lat="42.8848976" lon="13.177557"><ele>1187.0</ele><time>2026-04-19T10:21:46.977Z</time></trkpt><trkpt lat="42.8849041" lon="13.1773113"><ele>1187.0</ele><time>2026-04-19T10:21:47.981Z</time></trkpt><trkpt lat="42.884862" lon="13.1770509"><ele>1187.0</ele><time>2026-04-19T10:21:48.981Z</time></trkpt><trkpt lat="42.8847735" lon="13.1767827"><ele>1187.0</ele><time>2026-04-19T10:21:49.978Z</time></trkpt><trkpt lat="42.8846697" lon="13.1764977"><ele>1184.0</ele><time>2026-04-19T10:21:50.977Z</time></trkpt><trkpt lat="42.8845656" lon="13.1762105"><ele>1181.0</ele><time>2026-04-19T10:21:51.972Z</time></trkpt><trkpt lat="42.8844499" lon="13.1759117"><ele>1176.5</ele><time>2026-04-19T10:21:52.97Z</time></trkpt><trkpt lat="42.8843009" lon="13.1756273"><ele>1172.0</ele><time>2026-04-19T10:21:53.968Z</time></trkpt><trkpt lat="42.8841473" lon="13.1753652"><ele>1186.0</ele><time>2026-04-19T10:21:54.969Z</time></trkpt><trkpt lat="42.8839915" lon="13.1751255"><ele>1200.0</ele><time>2026-04-19T10:21:55.973Z</time></trkpt><trkpt lat="42.8838286" lon="13.1749155"><ele>1193.6666666666667</ele><time>2026-04-19T10:21:56.974Z</time></trkpt><trkpt lat="42.8836737" lon="13.1747232"><ele>1187.3333333333335</ele><time>2026-04-19T10:21:57.973Z</time></trkpt><trkpt lat="42.883547" lon="13.1745297"><ele>1181.0</ele><time>2026-04-19T10:21:58.973Z</time></trkpt><trkpt lat="42.8834548" lon="13.1743169"><ele>1194.0</ele><time>2026-04-19T10:21:59.974Z</time></trkpt><trkpt lat="42.8834057" lon="13.1740645"><ele>1207.0</ele><time>2026-04-19T10:22:00.965Z</time></trkpt><trkpt lat="42.8833687" lon="13.1737915"><ele>1220.0</ele><time>2026-04-19T10:22:01.974Z</time></trkpt><trkpt lat="42.8833413" lon="13.1735019"><ele>1221.3333333333335</ele><time>2026-04-19T10:22:02.971Z</time></trkpt><trkpt lat="42.8833176" lon="13.1732173"><ele>1222.6666666666667</ele><time>2026-04-19T10:22:03.979Z</time></trkpt><trkpt lat="42.883322" lon="13.1729432"><ele>1224.0</ele><time>2026-04-19T10:22:04.971Z</time></trkpt><trkpt lat="42.8833625" lon="13.1726854"><ele>1223.75</ele><time>2026-04-19T10:22:05.979Z</time></trkpt><trkpt lat="42.8834284" lon="13.1724631"><ele>1223.5</ele><time>2026-04-19T10:22:06.978Z</time></trkpt><trkpt lat="42.8834551" lon="13.1722995"><ele>1223.25</ele><time>2026-04-19T10:22:07.973Z</time></trkpt><trkpt lat="42.8834538" lon="13.1721733"><ele>1223.0</ele><time>2026-04-19T10:22:08.974Z</time></trkpt><trkpt lat="42.8834152" lon="13.1720996"><ele>1223.0</ele><time>2026-04-19T10:22:09.982Z</time></trkpt><trkpt lat="42.8833377" lon="13.1720641"><ele>1223.0</ele><time>2026-04-19T10:22:10.981Z</time></trkpt><trkpt lat="42.8832618" lon="13.1720933"><ele>1223.0</ele><time>2026-04-19T10:22:11.98Z</time></trkpt><trkpt lat="42.8832116" lon="13.1722071"><ele>1223.0</ele><time>2026-04-19T10:22:12.977Z</time></trkpt><trkpt lat="42.8832026" lon="13.1724099"><ele>1223.0</ele><time>2026-04-19T10:22:13.976Z</time></trkpt><trkpt lat="42.8831801" lon="13.172623"><ele>1223.3333333333335</ele><time>2026-04-19T10:22:14.973Z</time></trkpt><trkpt lat="42.8831423" lon="13.1728885"><ele>1223.6666666666667</ele><time>2026-04-19T10:22:15.966Z</time></trkpt><trkpt lat="42.8830728" lon="13.1731241"><ele>1224.0</ele><time>2026-04-19T10:22:16.969Z</time></trkpt><trkpt lat="42.8829972" lon="13.1733979"><ele>1224.0</ele><time>2026-04-19T10:22:17.97Z</time></trkpt><trkpt lat="42.8829285" lon="13.1736896"><ele>1224.0</ele><time>2026-04-19T10:22:18.969Z</time></trkpt><trkpt lat="42.8828756" lon="13.173987"><ele>1224.0</ele><time>2026-04-19T10:22:19.97Z</time></trkpt><trkpt lat="42.8828083" lon="13.1742623"><ele>1222.6666666666667</ele><time>2026-04-19T10:22:20.972Z</time></trkpt><trkpt lat="42.8827377" lon="13.1745199"><ele>1221.3333333333335</ele><time>2026-04-19T10:22:21.977Z</time></trkpt><trkpt lat="42.8826544" lon="13.17476"><ele>1220.0</ele><time>2026-04-19T10:22:22.978Z</time></trkpt><trkpt lat="42.8825383" lon="13.1749978"><ele>1228.3333333333335</ele><time>2026-04-19T10:22:23.972Z</time></trkpt><trkpt lat="42.8823978" lon="13.1752187"><ele>1236.6666666666667</ele><time>2026-04-19T10:22:24.983Z</time></trkpt><trkpt lat="42.8822385" lon="13.1754394"><ele>1245.0</ele><time>2026-04-19T10:22:25.973Z</time></trkpt><trkpt lat="42.8820931" lon="13.1756566"><ele>1243.75</ele><time>2026-04-19T10:22:26.978Z</time></trkpt><trkpt lat="42.8819703" lon="13.1758467"><ele>1242.5</ele><time>2026-04-19T10:22:27.98Z</time></trkpt><trkpt lat="42.8818874" lon="13.1760055"><ele>1241.25</ele><time>2026-04-19T10:22:28.978Z</time></trkpt><trkpt lat="42.8818115" lon="13.1761121"><ele>1240.0</ele><time>2026-04-19T10:22:29.981Z</time></trkpt><trkpt lat="42.8817204" lon="13.1761602"><ele>1244.5</ele><time>2026-04-19T10:22:30.983Z</time></trkpt><trkpt lat="42.8816171" lon="13.1760999"><ele>1249.0</ele><time>2026-04-19T10:22:31.981Z</time></trkpt><trkpt lat="42.8815395" lon="13.1759609"><ele>1253.5</ele><time>2026-04-19T10:22:32.981Z</time></trkpt><trkpt lat="42.8815215" lon="13.1757789"><ele>1258.0</ele><time>2026-04-19T10:22:33.983Z</time></trkpt><trkpt lat="42.8815546" lon="13.1755774"><ele>1260.3333333333333</ele><time>2026-04-19T10:22:34.995Z</time></trkpt><trkpt lat="42.8816335" lon="13.1753469"><ele>1262.6666666666667</ele><time>2026-04-19T10:22:35.974Z</time></trkpt><trkpt lat="42.8816803" lon="13.1750742"><ele>1265.0</ele><time>2026-04-19T10:22:36.984Z</time></trkpt><trkpt lat="42.8816895" lon="13.1747866"><ele>1268.0</ele><time>2026-04-19T10:22:37.979Z</time></trkpt><trkpt lat="42.8816955" lon="13.1745117"><ele>1271.0</ele><time>2026-04-19T10:22:38.974Z</time></trkpt><trkpt lat="42.8817463" lon="13.1742783"><ele>1274.0</ele><time>2026-04-19T10:22:39.984Z</time></trkpt><trkpt lat="42.8818" lon="13.1741088"><ele>1276.0</ele><time>2026-04-19T10:22:40.983Z</time></trkpt><trkpt lat="42.8818299" lon="13.1739814"><ele>1278.0</ele><time>2026-04-19T10:22:41.983Z</time></trkpt><trkpt lat="42.8817967" lon="13.1738755"><ele>1280.0</ele><time>2026-04-19T10:22:42.975Z</time></trkpt><trkpt lat="42.8817071" lon="13.1738096"><ele>1282.0</ele><time>2026-04-19T10:22:43.974Z</time></trkpt><trkpt lat="42.8816199" lon="13.173845"><ele>1284.0</ele><time>2026-04-19T10:22:44.977Z</time></trkpt><trkpt lat="42.8815358" lon="13.1739731"><ele>1280.6666666666667</ele><time>2026-04-19T10:22:45.98Z</time></trkpt><trkpt lat="42.8814639" lon="13.1741278"><ele>1277.3333333333335</ele><time>2026-04-19T10:22:46.975Z</time></trkpt><trkpt lat="42.8814018" lon="13.174341"><ele>1274.0</ele><time>2026-04-19T10:22:47.979Z</time></trkpt><trkpt lat="42.881323" lon="13.1745995"><ele>1274.0</ele><time>2026-04-19T10:22:48.966Z</time></trkpt><trkpt lat="42.8812207" lon="13.1748306"><ele>1274.0</ele><time>2026-04-19T10:22:49.971Z</time></trkpt><trkpt lat="42.8810847" lon="13.1750742"><ele>1274.0</ele><time>2026-04-19T10:22:50.976Z</time></trkpt><trkpt lat="42.8809341" lon="13.1753495"><ele>1275.5</ele><time>2026-04-19T10:22:51.966Z</time></trkpt><trkpt lat="42.8807656" lon="13.1756004"><ele>1277.0</ele><time>2026-04-19T10:22:52.969Z</time></trkpt><trkpt lat="42.8805848" lon="13.1758206"><ele>1277.0</ele><time>2026-04-19T10:22:53.979Z</time></trkpt><trkpt lat="42.880367" lon="13.1759905"><ele>1277.0</ele><time>2026-04-19T10:22:54.968Z</time></trkpt><trkpt lat="42.8801355" lon="13.1761281"><ele>1288.5</ele><time>2026-04-19T10:22:55.979Z</time></trkpt><trkpt lat="42.8799026" lon="13.1762811"><ele>1300.0</ele><time>2026-04-19T10:22:56.977Z</time></trkpt><trkpt lat="42.879672" lon="13.1764346"><ele>1301.0</ele><time>2026-04-19T10:22:57.978Z</time></trkpt><trkpt lat="42.8794474" lon="13.1765888"><ele>1302.0</ele><time>2026-04-19T10:22:58.988Z</time></trkpt><trkpt lat="42.8792121" lon="13.1767228"><ele>1302.0</ele><time>2026-04-19T10:22:59.979Z</time></trkpt><trkpt lat="42.8789658" lon="13.1768305"><ele>1302.0</ele><time>2026-04-19T10:23:00.978Z</time></trkpt><trkpt lat="42.8787132" lon="13.1769146"><ele>1302.0</ele><time>2026-04-19T10:23:01.979Z</time></trkpt><trkpt lat="42.8784643" lon="13.1769668"><ele>1302.0</ele><time>2026-04-19T10:23:02.981Z</time></trkpt><trkpt lat="42.8782017" lon="13.1769886"><ele>1310.0</ele><time>2026-04-19T10:23:03.983Z</time></trkpt><trkpt lat="42.8779418" lon="13.1770001"><ele>1318.0</ele><time>2026-04-19T10:23:04.986Z</time></trkpt><trkpt lat="42.8776808" lon="13.1770108"><ele>1322.0</ele><time>2026-04-19T10:23:05.988Z</time></trkpt><trkpt lat="42.8774426" lon="13.1770357"><ele>1326.0</ele><time>2026-04-19T10:23:06.984Z</time></trkpt><trkpt lat="42.8772414" lon="13.1770943"><ele>1330.0</ele><time>2026-04-19T10:23:07.983Z</time></trkpt><trkpt lat="42.8770681" lon="13.1771772"><ele>1330.0</ele><time>2026-04-19T10:23:08.982Z</time></trkpt><trkpt lat="42.8769612" lon="13.17728"><ele>1330.0</ele><time>2026-04-19T10:23:09.987Z</time></trkpt><trkpt lat="42.8769112" lon="13.1774374"><ele>1330.0</ele><time>2026-04-19T10:23:10.98Z</time></trkpt><trkpt lat="42.8769413" lon="13.1776305"><ele>1330.0</ele><time>2026-04-19T10:23:11.98Z</time></trkpt><trkpt lat="42.8770013" lon="13.1778506"><ele>1327.0</ele><time>2026-04-19T10:23:12.979Z</time></trkpt><trkpt lat="42.8770299" lon="13.1780224"><ele>1324.0</ele><time>2026-04-19T10:23:13.977Z</time></trkpt><trkpt lat="42.8770094" lon="13.1781766"><ele>1321.0</ele><time>2026-04-19T10:23:14.988Z</time></trkpt><trkpt lat="42.8769395" lon="13.1783227"><ele>1318.0</ele><time>2026-04-19T10:23:15.992Z</time></trkpt><trkpt lat="42.8768284" lon="13.1784496"><ele>1322.0</ele><time>2026-04-19T10:23:16.988Z</time></trkpt><trkpt lat="42.8766845" lon="13.1785718"><ele>1326.0</ele><time>2026-04-19T10:23:17.988Z</time></trkpt><trkpt lat="42.8765172" lon="13.1786932"><ele>1330.0</ele><time>2026-04-19T10:23:18.986Z</time></trkpt><trkpt lat="42.876356" lon="13.178824"><ele>1330.0</ele><time>2026-04-19T10:23:19.994Z</time></trkpt><trkpt lat="42.8761925" lon="13.1789678"><ele>1330.0</ele><time>2026-04-19T10:23:20.992Z</time></trkpt><trkpt lat="42.8760255" lon="13.1791165"><ele>1330.0</ele><time>2026-04-19T10:23:21.987Z</time></trkpt><trkpt lat="42.8758486" lon="13.1792709"><ele>1332.0</ele><time>2026-04-19T10:23:22.982Z</time></trkpt><trkpt lat="42.8756639" lon="13.1794034"><ele>1334.0</ele><time>2026-04-19T10:23:23.984Z</time></trkpt><trkpt lat="42.8754506" lon="13.1795057"><ele>1336.0</ele><time>2026-04-19T10:23:24.984Z</time></trkpt><trkpt lat="42.8752207" lon="13.1795972"><ele>1331.0</ele><time>2026-04-19T10:23:25.98Z</time></trkpt><trkpt lat="42.8749912" lon="13.1797038"><ele>1326.0</ele><time>2026-04-19T10:23:26.977Z</time></trkpt><trkpt lat="42.8747557" lon="13.1798225"><ele>1337.5</ele><time>2026-04-19T10:23:27.975Z</time></trkpt><trkpt lat="42.8745229" lon="13.1799697"><ele>1349.0</ele><time>2026-04-19T10:23:28.978Z</time></trkpt><trkpt lat="42.8742928" lon="13.180123"><ele>1341.0</ele><time>2026-04-19T10:23:29.97Z</time></trkpt><trkpt lat="42.8740625" lon="13.1802733"><ele>1333.0</ele><time>2026-04-19T10:23:30.979Z</time></trkpt><trkpt lat="42.8738277" lon="13.1804308"><ele>1333.0</ele><time>2026-04-19T10:23:31.974Z</time></trkpt><trkpt lat="42.873616" lon="13.1806095"><ele>1333.0</ele><time>2026-04-19T10:23:32.973Z</time></trkpt><trkpt lat="42.8734189" lon="13.1808149"><ele>1336.0</ele><time>2026-04-19T10:23:33.972Z</time></trkpt><trkpt lat="42.8732319" lon="13.1810412"><ele>1339.0</ele><time>2026-04-19T10:23:34.973Z</time></trkpt><trkpt lat="42.8730533" lon="13.1812784"><ele>1354.0</ele><time>2026-04-19T10:23:35.976Z</time></trkpt><trkpt lat="42.8728866" lon="13.1815315"><ele>1369.0</ele><time>2026-04-19T10:23:36.971Z</time></trkpt><trkpt lat="42.8727286" lon="13.1818006"><ele>1365.0</ele><time>2026-04-19T10:23:37.969Z</time></trkpt><trkpt lat="42.8725804" lon="13.1820769"><ele>1361.0</ele><time>2026-04-19T10:23:38.968Z</time></trkpt><trkpt lat="42.8724494" lon="13.1823495"><ele>1361.0</ele><time>2026-04-19T10:23:39.982Z</time></trkpt><trkpt lat="42.8723316" lon="13.1825995"><ele>1361.0</ele><time>2026-04-19T10:23:40.975Z</time></trkpt><trkpt lat="42.8722349" lon="13.1828168"><ele>1361.0</ele><time>2026-04-19T10:23:41.981Z</time></trkpt><trkpt lat="42.8721765" lon="13.1830211"><ele>1368.3333333333335</ele><time>2026-04-19T10:23:42.978Z</time></trkpt><trkpt lat="42.8721521" lon="13.1832313"><ele>1375.6666666666667</ele><time>2026-04-19T10:23:43.978Z</time></trkpt><trkpt lat="42.872153" lon="13.1834524"><ele>1383.0</ele><time>2026-04-19T10:23:44.981Z</time></trkpt><trkpt lat="42.8721578" lon="13.1837087"><ele>1383.0</ele><time>2026-04-19T10:23:45.978Z</time></trkpt><trkpt lat="42.872107" lon="13.1839913"><ele>1383.0</ele><time>2026-04-19T10:23:46.98Z</time></trkpt><trkpt lat="42.8720273" lon="13.1842869"><ele>1383.0</ele><time>2026-04-19T10:23:47.973Z</time></trkpt><trkpt lat="42.8719463" lon="13.1846058"><ele>1375.5</ele><time>2026-04-19T10:23:48.973Z</time></trkpt><trkpt lat="42.8718533" lon="13.1849398"><ele>1368.0</ele><time>2026-04-19T10:23:49.975Z</time></trkpt><trkpt lat="42.8717379" lon="13.1852799"><ele>1368.0</ele><time>2026-04-19T10:23:50.974Z</time></trkpt><trkpt lat="42.8716287" lon="13.185618"><ele>1368.0</ele><time>2026-04-19T10:23:51.974Z</time></trkpt><trkpt lat="42.871531" lon="13.1859563"><ele>1377.0</ele><time>2026-04-19T10:23:52.974Z</time></trkpt><trkpt lat="42.8714391" lon="13.1862744"><ele>1386.0</ele><time>2026-04-19T10:23:53.974Z</time></trkpt><trkpt lat="42.8713337" lon="13.1865613"><ele>1393.3333333333333</ele><time>2026-04-19T10:23:54.961Z</time></trkpt><trkpt lat="42.8712263" lon="13.1868289"><ele>1400.6666666666665</ele><time>2026-04-19T10:23:55.974Z</time></trkpt><trkpt lat="42.8711238" lon="13.1870668"><ele>1408.0</ele><time>2026-04-19T10:23:56.972Z</time></trkpt><trkpt lat="42.8710117" lon="13.1872779"><ele>1404.0</ele><time>2026-04-19T10:23:57.975Z</time></trkpt><trkpt lat="42.8708912" lon="13.1874591"><ele>1400.0</ele><time>2026-04-19T10:23:58.971Z</time></trkpt><trkpt lat="42.870764" lon="13.1876104"><ele>1396.0</ele><time>2026-04-19T10:23:59.968Z</time></trkpt><trkpt lat="42.8706322" lon="13.187718"><ele>1396.0</ele><time>2026-04-19T10:24:00.97Z</time></trkpt><trkpt lat="42.8704831" lon="13.1877564"><ele>1396.0</ele><time>2026-04-19T10:24:01.967Z</time></trkpt><trkpt lat="42.8703358" lon="13.1877308"><ele>1396.0</ele><time>2026-04-19T10:24:02.965Z</time></trkpt><trkpt lat="42.8701791" lon="13.1876382"><ele>1397.3333333333333</ele><time>2026-04-19T10:24:03.963Z</time></trkpt><trkpt lat="42.8700116" lon="13.1875115"><ele>1398.6666666666667</ele><time>2026-04-19T10:24:04.962Z</time></trkpt><trkpt lat="42.8698433" lon="13.1873628"><ele>1400.0</ele><time>2026-04-19T10:24:05.963Z</time></trkpt><trkpt lat="42.8696647" lon="13.187189"><ele>1384.5</ele><time>2026-04-19T10:24:06.967Z</time></trkpt><trkpt lat="42.8694825" lon="13.1869837"><ele>1369.0</ele><time>2026-04-19T10:24:07.963Z</time></trkpt><trkpt lat="42.8693099" lon="13.1867564"><ele>1374.5</ele><time>2026-04-19T10:24:08.966Z</time></trkpt><trkpt lat="42.8691432" lon="13.1865076"><ele>1380.0</ele><time>2026-04-19T10:24:09.96Z</time></trkpt><trkpt lat="42.8689931" lon="13.1862676"><ele>1380.0</ele><time>2026-04-19T10:24:10.962Z</time></trkpt><trkpt lat="42.8688566" lon="13.1860388"><ele>1380.0</ele><time>2026-04-19T10:24:11.965Z</time></trkpt><trkpt lat="42.8687108" lon="13.1858408"><ele>1380.0</ele><time>2026-04-19T10:24:12.961Z</time></trkpt><trkpt lat="42.8685461" lon="13.1856745"><ele>1375.0</ele><time>2026-04-19T10:24:13.962Z</time></trkpt><trkpt lat="42.868375" lon="13.1855616"><ele>1370.0</ele><time>2026-04-19T10:24:14.971Z</time></trkpt><trkpt lat="42.8681759" lon="13.1855156"><ele>1365.0</ele><time>2026-04-19T10:24:15.974Z</time></trkpt><trkpt lat="42.8679594" lon="13.1855559"><ele>1365.0</ele><time>2026-04-19T10:24:16.974Z</time></trkpt><trkpt lat="42.8677355" lon="13.1856514"><ele>1365.0</ele><time>2026-04-19T10:24:17.975Z</time></trkpt><trkpt lat="42.8675236" lon="13.1857767"><ele>1384.5</ele><time>2026-04-19T10:24:18.974Z</time></trkpt><trkpt lat="42.8673089" lon="13.1859595"><ele>1404.0</ele><time>2026-04-19T10:24:19.972Z</time></trkpt><trkpt lat="42.8670857" lon="13.1861288"><ele>1404.0</ele><time>2026-04-19T10:24:20.97Z</time></trkpt><trkpt lat="42.8668701" lon="13.1863423"><ele>1404.0</ele><time>2026-04-19T10:24:21.971Z</time></trkpt><trkpt lat="42.8666628" lon="13.1865729"><ele>1409.0</ele><time>2026-04-19T10:24:22.974Z</time></trkpt><trkpt lat="42.866459" lon="13.1868125"><ele>1414.0</ele><time>2026-04-19T10:24:23.969Z</time></trkpt><trkpt lat="42.8662617" lon="13.1870741"><ele>1414.0</ele><time>2026-04-19T10:24:24.971Z</time></trkpt><trkpt lat="42.8660661" lon="13.1873529"><ele>1414.0</ele><time>2026-04-19T10:24:25.973Z</time></trkpt><trkpt lat="42.8658732" lon="13.1876432"><ele>1414.0</ele><time>2026-04-19T10:24:26.971Z</time></trkpt><trkpt lat="42.8656853" lon="13.1879192"><ele>1414.0</ele><time>2026-04-19T10:24:27.969Z</time></trkpt><trkpt lat="42.8654972" lon="13.1882108"><ele>1431.0</ele><time>2026-04-19T10:24:28.972Z</time></trkpt><trkpt lat="42.865318" lon="13.188492"><ele>1448.0</ele><time>2026-04-19T10:24:29.97Z</time></trkpt><trkpt lat="42.8651242" lon="13.1887422"><ele>1450.0</ele><time>2026-04-19T10:24:30.97Z</time></trkpt><trkpt lat="42.8648899" lon="13.1889393"><ele>1452.0</ele><time>2026-04-19T10:24:31.972Z</time></trkpt><trkpt lat="42.8646338" lon="13.1891154"><ele>1452.0</ele><time>2026-04-19T10:24:32.972Z</time></trkpt><trkpt lat="42.8643774" lon="13.1892997"><ele>1452.0</ele><time>2026-04-19T10:24:33.976Z</time></trkpt><trkpt lat="42.864125" lon="13.1895023"><ele>1456.0</ele><time>2026-04-19T10:24:34.972Z</time></trkpt><trkpt lat="42.8638872" lon="13.1897278"><ele>1460.0</ele><time>2026-04-19T10:24:35.973Z</time></trkpt><trkpt lat="42.8636613" lon="13.1899732"><ele>1444.5</ele><time>2026-04-19T10:24:36.973Z</time></trkpt><trkpt lat="42.8634318" lon="13.1902007"><ele>1429.0</ele><time>2026-04-19T10:24:37.978Z</time></trkpt><trkpt lat="42.863198" lon="13.1903998"><ele>1429.0</ele><time>2026-04-19T10:24:38.973Z</time></trkpt><trkpt lat="42.8629843" lon="13.190577"><ele>1429.0</ele><time>2026-04-19T10:24:39.97Z</time></trkpt><trkpt lat="42.8627915" lon="13.1907454"><ele>1436.3333333333333</ele><time>2026-04-19T10:24:40.978Z</time></trkpt><trkpt lat="42.8626005" lon="13.1908979"><ele>1443.6666666666667</ele><time>2026-04-19T10:24:41.973Z</time></trkpt><trkpt lat="42.8624136" lon="13.1910336"><ele>1451.0</ele><time>2026-04-19T10:24:42.971Z</time></trkpt><trkpt lat="42.8622204" lon="13.1911209"><ele>1451.0</ele><time>2026-04-19T10:24:43.971Z</time></trkpt><trkpt lat="42.8620171" lon="13.191135"><ele>1451.0</ele><time>2026-04-19T10:24:44.973Z</time></trkpt><trkpt lat="42.8618036" lon="13.1910943"><ele>1451.0</ele><time>2026-04-19T10:24:45.981Z</time></trkpt><trkpt lat="42.8615881" lon="13.1910184"><ele>1454.0</ele><time>2026-04-19T10:24:46.968Z</time></trkpt><trkpt lat="42.8613686" lon="13.1909491"><ele>1457.0</ele><time>2026-04-19T10:24:47.973Z</time></trkpt><trkpt lat="42.8611599" lon="13.1908933"><ele>1460.0</ele><time>2026-04-19T10:24:48.963Z</time></trkpt><trkpt lat="42.8609771" lon="13.1908092"><ele>1455.3333333333335</ele><time>2026-04-19T10:24:49.961Z</time></trkpt><trkpt lat="42.8608379" lon="13.1906594"><ele>1450.6666666666667</ele><time>2026-04-19T10:24:50.963Z</time></trkpt><trkpt lat="42.8607122" lon="13.1905114"><ele>1446.0</ele><time>2026-04-19T10:24:51.961Z</time></trkpt><trkpt lat="42.8605745" lon="13.1904446"><ele>1446.0</ele><time>2026-04-19T10:24:52.967Z</time></trkpt><trkpt lat="42.8604142" lon="13.1904219"><ele>1446.0</ele><time>2026-04-19T10:24:53.97Z</time></trkpt><trkpt lat="42.8602342" lon="13.1903892"><ele>1446.0</ele><time>2026-04-19T10:24:54.968Z</time></trkpt><trkpt lat="42.860057" lon="13.1903195"><ele>1455.3333333333333</ele><time>2026-04-19T10:24:55.963Z</time></trkpt><trkpt lat="42.8598824" lon="13.19019"><ele>1464.6666666666665</ele><time>2026-04-19T10:24:56.966Z</time></trkpt><trkpt lat="42.8597291" lon="13.1900729"><ele>1474.0</ele><time>2026-04-19T10:24:57.961Z</time></trkpt><trkpt lat="42.8595729" lon="13.1899869"><ele>1474.0</ele><time>2026-04-19T10:24:58.967Z</time></trkpt><trkpt lat="42.8594341" lon="13.1898802"><ele>1474.0</ele><time>2026-04-19T10:24:59.967Z</time></trkpt><trkpt lat="42.8593489" lon="13.1897112"><ele>1474.0</ele><time>2026-04-19T10:25:00.967Z</time></trkpt><trkpt lat="42.8593245" lon="13.1894908"><ele>1476.8000000000002</ele><time>2026-04-19T10:25:01.971Z</time></trkpt><trkpt lat="42.8592781" lon="13.1893342"><ele>1479.6000000000001</ele><time>2026-04-19T10:25:02.98Z</time></trkpt><trkpt lat="42.8592139" lon="13.1892205"><ele>1482.4</ele><time>2026-04-19T10:25:03.982Z</time></trkpt><trkpt lat="42.8591212" lon="13.1891741"><ele>1485.2</ele><time>2026-04-19T10:25:04.979Z</time></trkpt><trkpt lat="42.8590275" lon="13.1892276"><ele>1488.0</ele><time>2026-04-19T10:25:05.978Z</time></trkpt><trkpt lat="42.8589585" lon="13.189373"><ele>1488.0</ele><time>2026-04-19T10:25:06.978Z</time></trkpt><trkpt lat="42.8588967" lon="13.1895624"><ele>1488.0</ele><time>2026-04-19T10:25:07.979Z</time></trkpt><trkpt lat="42.8588331" lon="13.1897839"><ele>1488.0</ele><time>2026-04-19T10:25:08.985Z</time></trkpt><trkpt lat="42.8587562" lon="13.1900059"><ele>1489.6666666666667</ele><time>2026-04-19T10:25:09.978Z</time></trkpt><trkpt lat="42.8586739" lon="13.1902274"><ele>1491.3333333333335</ele><time>2026-04-19T10:25:10.981Z</time></trkpt><trkpt lat="42.858591" lon="13.1904367"><ele>1493.0</ele><time>2026-04-19T10:25:11.979Z</time></trkpt><trkpt lat="42.8585059" lon="13.190636"><ele>1493.3333333333335</ele><time>2026-04-19T10:25:12.982Z</time></trkpt><trkpt lat="42.8584115" lon="13.1908183"><ele>1493.6666666666667</ele><time>2026-04-19T10:25:13.983Z</time></trkpt><trkpt lat="42.8583083" lon="13.1909883"><ele>1494.0</ele><time>2026-04-19T10:25:14.989Z</time></trkpt><trkpt lat="42.8581864" lon="13.1911589"><ele>1494.0</ele><time>2026-04-19T10:25:15.986Z</time></trkpt><trkpt lat="42.8580526" lon="13.1913349"><ele>1494.0</ele><time>2026-04-19T10:25:16.994Z</time></trkpt><trkpt lat="42.8579152" lon="13.1915364"><ele>1494.0</ele><time>2026-04-19T10:25:17.988Z</time></trkpt><trkpt lat="42.8577758" lon="13.1917385"><ele>1494.3333333333333</ele><time>2026-04-19T10:25:18.989Z</time></trkpt><trkpt lat="42.8576283" lon="13.1919448"><ele>1494.6666666666665</ele><time>2026-04-19T10:25:19.988Z</time></trkpt><trkpt lat="42.8574941" lon="13.1921535"><ele>1495.0</ele><time>2026-04-19T10:25:20.987Z</time></trkpt><trkpt lat="42.8573645" lon="13.1923532"><ele>1492.0</ele><time>2026-04-19T10:25:21.987Z</time></trkpt><trkpt lat="42.857247" lon="13.1925437"><ele>1489.0</ele><time>2026-04-19T10:25:22.984Z</time></trkpt><trkpt lat="42.857136" lon="13.1927124"><ele>1486.0</ele><time>2026-04-19T10:25:23.987Z</time></trkpt><trkpt lat="42.8570351" lon="13.1928647"><ele>1486.0</ele><time>2026-04-19T10:25:24.99Z</time></trkpt><trkpt lat="42.8569325" lon="13.1929736"><ele>1486.0</ele><time>2026-04-19T10:25:25.984Z</time></trkpt><trkpt lat="42.8568213" lon="13.1930488"><ele>1486.0</ele><time>2026-04-19T10:25:26.991Z</time></trkpt><trkpt lat="42.856688" lon="13.1930557"><ele>1486.0</ele><time>2026-04-19T10:25:27.986Z</time></trkpt><trkpt lat="42.8565557" lon="13.1929938"><ele>1483.3333333333333</ele><time>2026-04-19T10:25:28.995Z</time></trkpt><trkpt lat="42.8564326" lon="13.1928581"><ele>1480.6666666666667</ele><time>2026-04-19T10:25:29.987Z</time></trkpt><trkpt lat="42.8563269" lon="13.1926878"><ele>1478.0</ele><time>2026-04-19T10:25:30.984Z</time></trkpt><trkpt lat="42.856242" lon="13.1925019"><ele>1478.5</ele><time>2026-04-19T10:25:31.982Z</time></trkpt><trkpt lat="42.8561671" lon="13.1923063"><ele>1479.0</ele><time>2026-04-19T10:25:32.985Z</time></trkpt><trkpt lat="42.8561182" lon="13.1921096"><ele>1479.5</ele><time>2026-04-19T10:25:33.988Z</time></trkpt><trkpt lat="42.8561161" lon="13.1919311"><ele>1480.0</ele><time>2026-04-19T10:25:34.986Z</time></trkpt><trkpt lat="42.8561027" lon="13.1917941"><ele>1480.0</ele><time>2026-04-19T10:25:35.984Z</time></trkpt><trkpt lat="42.8560794" lon="13.1916737"><ele>1480.0</ele><time>2026-04-19T10:25:36.982Z</time></trkpt><trkpt lat="42.8560423" lon="13.1915939"><ele>1480.0</ele><time>2026-04-19T10:25:37.987Z</time></trkpt><trkpt lat="42.8558979" lon="13.1916175"><ele>1480.0</ele><time>2026-04-19T10:25:39.991Z</time></trkpt><trkpt lat="42.8558394" lon="13.1917269"><ele>1480.0</ele><time>2026-04-19T10:25:40.986Z</time></trkpt><trkpt lat="42.8558197" lon="13.191906"><ele>1472.6666666666665</ele><time>2026-04-19T10:25:41.986Z</time></trkpt><trkpt lat="42.8558047" lon="13.1921222"><ele>1465.3333333333333</ele><time>2026-04-19T10:25:42.985Z</time></trkpt><trkpt lat="42.8557919" lon="13.1923758"><ele>1458.0</ele><time>2026-04-19T10:25:43.983Z</time></trkpt><trkpt lat="42.8557606" lon="13.1926316"><ele>1458.0</ele><time>2026-04-19T10:25:44.985Z</time></trkpt><trkpt lat="42.8557321" lon="13.1928838"><ele>1458.0</ele><time>2026-04-19T10:25:45.99Z</time></trkpt><trkpt lat="42.8557233" lon="13.1931178"><ele>1458.0</ele><time>2026-04-19T10:25:46.989Z</time></trkpt><trkpt lat="42.8557349" lon="13.1933213"><ele>1457.4</ele><time>2026-04-19T10:25:47.993Z</time></trkpt><trkpt lat="42.8557492" lon="13.1934924"><ele>1456.8000000000002</ele><time>2026-04-19T10:25:48.986Z</time></trkpt><trkpt lat="42.8557676" lon="13.1936312"><ele>1456.2</ele><time>2026-04-19T10:25:49.985Z</time></trkpt><trkpt lat="42.8557682" lon="13.1937454"><ele>1455.6</ele><time>2026-04-19T10:25:50.988Z</time></trkpt><trkpt lat="42.8557124" lon="13.1938067"><ele>1455.0</ele><time>2026-04-19T10:25:51.988Z</time></trkpt><trkpt lat="42.8556339" lon="13.193785"><ele>1455.0</ele><time>2026-04-19T10:25:52.988Z</time></trkpt><trkpt lat="42.8555669" lon="13.1936895"><ele>1455.0</ele><time>2026-04-19T10:25:53.991Z</time></trkpt><trkpt lat="42.8555036" lon="13.1935263"><ele>1455.0</ele><time>2026-04-19T10:25:54.989Z</time></trkpt><trkpt lat="42.8554498" lon="13.1933105"><ele>1455.0</ele><time>2026-04-19T10:25:55.991Z</time></trkpt><trkpt lat="42.8553945" lon="13.1930159"><ele>1456.5</ele><time>2026-04-19T10:25:56.989Z</time></trkpt><trkpt lat="42.8553322" lon="13.1926957"><ele>1458.0</ele><time>2026-04-19T10:25:57.987Z</time></trkpt><trkpt lat="42.8552785" lon="13.1923791"><ele>1457.6666666666667</ele><time>2026-04-19T10:25:58.983Z</time></trkpt><trkpt lat="42.8552515" lon="13.1920865"><ele>1457.3333333333335</ele><time>2026-04-19T10:25:59.984Z</time></trkpt><trkpt lat="42.8552547" lon="13.1918417"><ele>1457.0</ele><time>2026-04-19T10:26:00.984Z</time></trkpt><trkpt lat="42.8552632" lon="13.1916321"><ele>1458.75</ele><time>2026-04-19T10:26:01.981Z</time></trkpt><trkpt lat="42.8552713" lon="13.1914704"><ele>1460.5</ele><time>2026-04-19T10:26:02.981Z</time></trkpt><trkpt lat="42.855229" lon="13.1913235"><ele>1462.25</ele><time>2026-04-19T10:26:03.984Z</time></trkpt><trkpt lat="42.8551204" lon="13.1912118"><ele>1464.0</ele><time>2026-04-19T10:26:04.982Z</time></trkpt><trkpt lat="42.8549609" lon="13.1911357"><ele>1457.3333333333333</ele><time>2026-04-19T10:26:05.982Z</time></trkpt><trkpt lat="42.8547665" lon="13.1910807"><ele>1450.6666666666665</ele><time>2026-04-19T10:26:06.975Z</time></trkpt><trkpt lat="42.8545547" lon="13.1909947"><ele>1444.0</ele><time>2026-04-19T10:26:07.979Z</time></trkpt><trkpt lat="42.8543259" lon="13.1908904"><ele>1449.0</ele><time>2026-04-19T10:26:08.982Z</time></trkpt><trkpt lat="42.8540829" lon="13.190774"><ele>1454.0</ele><time>2026-04-19T10:26:09.985Z</time></trkpt><trkpt lat="42.8538272" lon="13.1906682"><ele>1454.0</ele><time>2026-04-19T10:26:10.994Z</time></trkpt><trkpt lat="42.853559" lon="13.1905707"><ele>1454.0</ele><time>2026-04-19T10:26:11.989Z</time></trkpt><trkpt lat="42.853282" lon="13.1904847"><ele>1444.0</ele><time>2026-04-19T10:26:12.989Z</time></trkpt><trkpt lat="42.8530006" lon="13.1904197"><ele>1434.0</ele><time>2026-04-19T10:26:13.987Z</time></trkpt><trkpt lat="42.8527339" lon="13.1903597"><ele>1427.5</ele><time>2026-04-19T10:26:14.99Z</time></trkpt><trkpt lat="42.8524724" lon="13.1903092"><ele>1421.0</ele><time>2026-04-19T10:26:15.988Z</time></trkpt><trkpt lat="42.8522297" lon="13.1902622"><ele>1421.0</ele><time>2026-04-19T10:26:16.987Z</time></trkpt><trkpt lat="42.8519941" lon="13.1902374"><ele>1421.0</ele><time>2026-04-19T10:26:17.99Z</time></trkpt><trkpt lat="42.8517673" lon="13.1902072"><ele>1416.6666666666667</ele><time>2026-04-19T10:26:18.99Z</time></trkpt><trkpt lat="42.8515529" lon="13.1901716"><ele>1412.3333333333333</ele><time>2026-04-19T10:26:19.994Z</time></trkpt><trkpt lat="42.8513435" lon="13.1901251"><ele>1408.0</ele><time>2026-04-19T10:26:20.991Z</time></trkpt><trkpt lat="42.8511401" lon="13.1901459"><ele>1405.6666666666665</ele><time>2026-04-19T10:26:21.994Z</time></trkpt><trkpt lat="42.8509476" lon="13.1902624"><ele>1403.3333333333333</ele><time>2026-04-19T10:26:22.993Z</time></trkpt><trkpt lat="42.8507526" lon="13.1904504"><ele>1401.0</ele><time>2026-04-19T10:26:23.998Z</time></trkpt><trkpt lat="42.8505711" lon="13.1907216"><ele>1392.0</ele><time>2026-04-19T10:26:24.998Z</time></trkpt><trkpt lat="42.8503997" lon="13.1910348"><ele>1383.0</ele><time>2026-04-19T10:26:25.992Z</time></trkpt><trkpt lat="42.8502184" lon="13.1913439"><ele>1382.0</ele><time>2026-04-19T10:26:27Z</time></trkpt><trkpt lat="42.8500335" lon="13.1916278"><ele>1381.0</ele><time>2026-04-19T10:26:27.996Z</time></trkpt><trkpt lat="42.8498578" lon="13.1918926"><ele>1381.0</ele><time>2026-04-19T10:26:28.996Z</time></trkpt><trkpt lat="42.8496893" lon="13.1921518"><ele>1381.0</ele><time>2026-04-19T10:26:29.993Z</time></trkpt><trkpt lat="42.849526" lon="13.1924001"><ele>1379.5</ele><time>2026-04-19T10:26:30.987Z</time></trkpt><trkpt lat="42.8493545" lon="13.1926312"><ele>1378.0</ele><time>2026-04-19T10:26:31.985Z</time></trkpt><trkpt lat="42.8491682" lon="13.1928439"><ele>1378.0</ele><time>2026-04-19T10:26:32.987Z</time></trkpt><trkpt lat="42.8489779" lon="13.1930396"><ele>1378.0</ele><time>2026-04-19T10:26:33.986Z</time></trkpt><trkpt lat="42.8488009" lon="13.1932375"><ele>1265.0</ele><time>2026-04-19T10:26:34.984Z</time></trkpt><trkpt lat="42.8815546" lon="13.1755774"><ele>1265.0</ele><time>2026-04-19T10:22:34.995Z</time></trkpt><trkpt lat="42.8816335" lon="13.1753469"><ele>1265.0</ele><time>2026-04-19T10:22:35.974Z</time></trkpt><trkpt lat="42.8816803" lon="13.1750742"><ele>1265.0</ele><time>2026-04-19T10:22:36.984Z</time></trkpt><trkpt lat="42.8816895" lon="13.1747866"><ele>1268.0</ele><time>2026-04-19T10:22:37.979Z</time></trkpt><trkpt lat="42.8816955" lon="13.1745117"><ele>1271.0</ele><time>2026-04-19T10:22:38.974Z</time></trkpt><trkpt lat="42.8817463" lon="13.1742783"><ele>1274.0</ele><time>2026-04-19T10:22:39.984Z</time></trkpt><trkpt lat="42.8818" lon="13.1741088"><ele>1276.0</ele><time>2026-04-19T10:22:40.983Z</time></trkpt><trkpt lat="42.8818299" lon="13.1739814"><ele>1278.0</ele><time>2026-04-19T10:22:41.983Z</time></trkpt><trkpt lat="42.8817967" lon="13.1738755"><ele>1280.0</ele><time>2026-04-19T10:22:42.975Z</time></trkpt><trkpt lat="42.8817071" lon="13.1738096"><ele>1282.0</ele><time>2026-04-19T10:22:43.974Z</time></trkpt><trkpt lat="42.8816199" lon="13.173845"><ele>1284.0</ele><time>2026-04-19T10:22:44.977Z</time></trkpt><trkpt lat="42.8815358" lon="13.1739731"><ele>1280.6666666666667</ele><time>2026-04-19T10:22:45.98Z</time></trkpt><trkpt lat="42.8814639" lon="13.1741278"><ele>1277.3333333333335</ele><time>2026-04-19T10:22:46.975Z</time></trkpt><trkpt lat="42.8814018" lon="13.174341"><ele>1274.0</ele><time>2026-04-19T10:22:47.979Z</time></trkpt><trkpt lat="42.881323" lon="13.1745995"><ele>1274.0</ele><time>2026-04-19T10:22:48.966Z</time></trkpt><trkpt lat="42.8812207" lon="13.1748306"><ele>1274.0</ele><time>2026-04-19T10:22:49.971Z</time></trkpt><trkpt lat="42.8810847" lon="13.1750742"><ele>1274.0</ele><time>2026-04-19T10:22:50.976Z</time></trkpt><trkpt lat="42.8809341" lon="13.1753495"><ele>1275.5</ele><time>2026-04-19T10:22:51.966Z</time></trkpt><trkpt lat="42.8807656" lon="13.1756004"><ele>1277.0</ele><time>2026-04-19T10:22:52.969Z</time></trkpt><trkpt lat="42.8805848" lon="13.1758206"><ele>1277.0</ele><time>2026-04-19T10:22:53.979Z</time></trkpt><trkpt lat="42.880367" lon="13.1759905"><ele>1277.0</ele><time>2026-04-19T10:22:54.968Z</time></trkpt><trkpt lat="42.8801355" lon="13.1761281"><ele>1288.5</ele><time>2026-04-19T10:22:55.979Z</time></trkpt><trkpt lat="42.8799026" lon="13.1762811"><ele>1300.0</ele><time>2026-04-19T10:22:56.977Z</time></trkpt><trkpt lat="42.879672" lon="13.1764346"><ele>1301.0</ele><time>2026-04-19T10:22:57.978Z</time></trkpt><trkpt lat="42.8794474" lon="13.1765888"><ele>1302.0</ele><time>2026-04-19T10:22:58.988Z</time></trkpt><trkpt lat="42.8792121" lon="13.1767228"><ele>1302.0</ele><time>2026-04-19T10:22:59.979Z</time></trkpt><trkpt lat="42.8789658" lon="13.1768305"><ele>1302.0</ele><time>2026-04-19T10:23:00.978Z</time></trkpt><trkpt lat="42.8787132" lon="13.1769146"><ele>1302.0</ele><time>2026-04-19T10:23:01.979Z</time></trkpt><trkpt lat="42.8784643" lon="13.1769668"><ele>1302.0</ele><time>2026-04-19T10:23:02.981Z</time></trkpt><trkpt lat="42.8782017" lon="13.1769886"><ele>1310.0</ele><time>2026-04-19T10:23:03.983Z</time></trkpt><trkpt lat="42.8779418" lon="13.1770001"><ele>1318.0</ele><time>2026-04-19T10:23:04.986Z</time></trkpt><trkpt lat="42.8776808" lon="13.1770108"><ele>1322.0</ele><time>2026-04-19T10:23:05.988Z</time></trkpt><trkpt lat="42.8774426" lon="13.1770357"><ele>1326.0</ele><time>2026-04-19T10:23:06.984Z</time></trkpt><trkpt lat="42.8772414" lon="13.1770943"><ele>1330.0</ele><time>2026-04-19T10:23:07.983Z</time></trkpt><trkpt lat="42.8770681" lon="13.1771772"><ele>1330.0</ele><time>2026-04-19T10:23:08.982Z</time></trkpt><trkpt lat="42.8769612" lon="13.17728"><ele>1330.0</ele><time>2026-04-19T10:23:09.987Z</time></trkpt><trkpt lat="42.8769112" lon="13.1774374"><ele>1330.0</ele><time>2026-04-19T10:23:10.98Z</time></trkpt><trkpt lat="42.8769413" lon="13.1776305"><ele>1330.0</ele><time>2026-04-19T10:23:11.98Z</time></trkpt><trkpt lat="42.8770013" lon="13.1778506"><ele>1327.0</ele><time>2026-04-19T10:23:12.979Z</time></trkpt><trkpt lat="42.8770299" lon="13.1780224"><ele>1324.0</ele><time>2026-04-19T10:23:13.977Z</time></trkpt><trkpt lat="42.8770094" lon="13.1781766"><ele>1321.0</ele><time>2026-04-19T10:23:14.988Z</time></trkpt><trkpt lat="42.8769395" lon="13.1783227"><ele>1318.0</ele><time>2026-04-19T10:23:15.992Z</time></trkpt><trkpt lat="42.8768284" lon="13.1784496"><ele>1322.0</ele><time>2026-04-19T10:23:16.988Z</time></trkpt><trkpt lat="42.8766845" lon="13.1785718"><ele>1326.0</ele><time>2026-04-19T10:23:17.988Z</time></trkpt><trkpt lat="42.8765172" lon="13.1786932"><ele>1330.0</ele><time>2026-04-19T10:23:18.986Z</time></trkpt><trkpt lat="42.876356" lon="13.178824"><ele>1330.0</ele><time>2026-04-19T10:23:19.994Z</time></trkpt><trkpt lat="42.8761925" lon="13.1789678"><ele>1330.0</ele><time>2026-04-19T10:23:20.992Z</time></trkpt><trkpt lat="42.8760255" lon="13.1791165"><ele>1330.0</ele><time>2026-04-19T10:23:21.987Z</time></trkpt><trkpt lat="42.8758486" lon="13.1792709"><ele>1332.0</ele><time>2026-04-19T10:23:22.982Z</time></trkpt><trkpt lat="42.8756639" lon="13.1794034"><ele>1334.0</ele><time>2026-04-19T10:23:23.984Z</time></trkpt><trkpt lat="42.8754506" lon="13.1795057"><ele>1336.0</ele><time>2026-04-19T10:23:24.984Z</time></trkpt><trkpt lat="42.8752207" lon="13.1795972"><ele>1331.0</ele><time>2026-04-19T10:23:25.98Z</time></trkpt><trkpt lat="42.8749912" lon="13.1797038"><ele>1326.0</ele><time>2026-04-19T10:23:26.977Z</time></trkpt><trkpt lat="42.8747557" lon="13.1798225"><ele>1337.5</ele><time>2026-04-19T10:23:27.975Z</time></trkpt><trkpt lat="42.8745229" lon="13.1799697"><ele>1349.0</ele><time>2026-04-19T10:23:28.978Z</time></trkpt><trkpt lat="42.8742928" lon="13.180123"><ele>1341.0</ele><time>2026-04-19T10:23:29.97Z</time></trkpt><trkpt lat="42.8740625" lon="13.1802733"><ele>1333.0</ele><time>2026-04-19T10:23:30.979Z</time></trkpt><trkpt lat="42.8738277" lon="13.1804308"><ele>1333.0</ele><time>2026-04-19T10:23:31.974Z</time></trkpt><trkpt lat="42.873616" lon="13.1806095"><ele>1333.0</ele><time>2026-04-19T10:23:32.973Z</time></trkpt><trkpt lat="42.8734189" lon="13.1808149"><ele>1336.0</ele><time>2026-04-19T10:23:33.972Z</time></trkpt><trkpt lat="42.8732319" lon="13.1810412"><ele>1339.0</ele><time>2026-04-19T10:23:34.973Z</time></trkpt><trkpt lat="42.8730533" lon="13.1812784"><ele>1354.0</ele><time>2026-04-19T10:23:35.976Z</time></trkpt><trkpt lat="42.8728866" lon="13.1815315"><ele>1369.0</ele><time>2026-04-19T10:23:36.971Z</time></trkpt><trkpt lat="42.8727286" lon="13.1818006"><ele>1365.0</ele><time>2026-04-19T10:23:37.969Z</time></trkpt><trkpt lat="42.8725804" lon="13.1820769"><ele>1361.0</ele><time>2026-04-19T10:23:38.968Z</time></trkpt><trkpt lat="42.8724494" lon="13.1823495"><ele>1361.0</ele><time>2026-04-19T10:23:39.982Z</time></trkpt><trkpt lat="42.8723316" lon="13.1825995"><ele>1361.0</ele><time>2026-04-19T10:23:40.975Z</time></trkpt><trkpt lat="42.8722349" lon="13.1828168"><ele>1361.0</ele><time>2026-04-19T10:23:41.981Z</time></trkpt><trkpt lat="42.8721765" lon="13.1830211"><ele>1368.3333333333335</ele><time>2026-04-19T10:23:42.978Z</time></trkpt><trkpt lat="42.8721521" lon="13.1832313"><ele>1375.6666666666667</ele><time>2026-04-19T10:23:43.978Z</time></trkpt><trkpt lat="42.872153" lon="13.1834524"><ele>1383.0</ele><time>2026-04-19T10:23:44.981Z</time></trkpt><trkpt lat="42.8721578" lon="13.1837087"><ele>1383.0</ele><time>2026-04-19T10:23:45.978Z</time></trkpt><trkpt lat="42.872107" lon="13.1839913"><ele>1383.0</ele><time>2026-04-19T10:23:46.98Z</time></trkpt><trkpt lat="42.8720273" lon="13.1842869"><ele>1383.0</ele><time>2026-04-19T10:23:47.973Z</time></trkpt><trkpt lat="42.8719463" lon="13.1846058"><ele>1375.5</ele><time>2026-04-19T10:23:48.973Z</time></trkpt><trkpt lat="42.8718533" lon="13.1849398"><ele>1368.0</ele><time>2026-04-19T10:23:49.975Z</time></trkpt><trkpt lat="42.8717379" lon="13.1852799"><ele>1368.0</ele><time>2026-04-19T10:23:50.974Z</time></trkpt><trkpt lat="42.8716287" lon="13.185618"><ele>1368.0</ele><time>2026-04-19T10:23:51.974Z</time></trkpt><trkpt lat="42.871531" lon="13.1859563"><ele>1377.0</ele><time>2026-04-19T10:23:52.974Z</time></trkpt><trkpt lat="42.8714391" lon="13.1862744"><ele>1386.0</ele><time>2026-04-19T10:23:53.974Z</time></trkpt><trkpt lat="42.8713337" lon="13.1865613"><ele>1393.3333333333333</ele><time>2026-04-19T10:23:54.961Z</time></trkpt><trkpt lat="42.8712263" lon="13.1868289"><ele>1400.6666666666665</ele><time>2026-04-19T10:23:55.974Z</time></trkpt><trkpt lat="42.8711238" lon="13.1870668"><ele>1408.0</ele><time>2026-04-19T10:23:56.972Z</time></trkpt><trkpt lat="42.8710117" lon="13.1872779"><ele>1404.0</ele><time>2026-04-19T10:23:57.975Z</time></trkpt><trkpt lat="42.8708912" lon="13.1874591"><ele>1400.0</ele><time>2026-04-19T10:23:58.971Z</time></trkpt><trkpt lat="42.870764" lon="13.1876104"><ele>1396.0</ele><time>2026-04-19T10:23:59.968Z</time></trkpt><trkpt lat="42.8706322" lon="13.187718"><ele>1396.0</ele><time>2026-04-19T10:24:00.97Z</time></trkpt><trkpt lat="42.8704831" lon="13.1877564"><ele>1396.0</ele><time>2026-04-19T10:24:01.967Z</time></trkpt><trkpt lat="42.8703358" lon="13.1877308"><ele>1396.0</ele><time>2026-04-19T10:24:02.965Z</time></trkpt><trkpt lat="42.8701791" lon="13.1876382"><ele>1397.3333333333333</ele><time>2026-04-19T10:24:03.963Z</time></trkpt><trkpt lat="42.8700116" lon="13.1875115"><ele>1398.6666666666667</ele><time>2026-04-19T10:24:04.962Z</time></trkpt><trkpt lat="42.8698433" lon="13.1873628"><ele>1400.0</ele><time>2026-04-19T10:24:05.963Z</time></trkpt><trkpt lat="42.8696647" lon="13.187189"><ele>1384.5</ele><time>2026-04-19T10:24:06.967Z</time></trkpt><trkpt lat="42.8694825" lon="13.1869837"><ele>1369.0</ele><time>2026-04-19T10:24:07.963Z</time></trkpt><trkpt lat="42.8693099" lon="13.1867564"><ele>1374.5</ele><time>2026-04-19T10:24:08.966Z</time></trkpt><trkpt lat="42.8691432" lon="13.1865076"><ele>1380.0</ele><time>2026-04-19T10:24:09.96Z</time></trkpt><trkpt lat="42.8689931" lon="13.1862676"><ele>1380.0</ele><time>2026-04-19T10:24:10.962Z</time></trkpt><trkpt lat="42.8688566" lon="13.1860388"><ele>1380.0</ele><time>2026-04-19T10:24:11.965Z</time></trkpt><trkpt lat="42.8687108" lon="13.1858408"><ele>1380.0</ele><time>2026-04-19T10:24:12.961Z</time></trkpt><trkpt lat="42.8685461" lon="13.1856745"><ele>1375.0</ele><time>2026-04-19T10:24:13.962Z</time></trkpt><trkpt lat="42.868375" lon="13.1855616"><ele>1370.0</ele><time>2026-04-19T10:24:14.971Z</time></trkpt><trkpt lat="42.8681759" lon="13.1855156"><ele>1365.0</ele><time>2026-04-19T10:24:15.974Z</time></trkpt><trkpt lat="42.8679594" lon="13.1855559"><ele>1365.0</ele><time>2026-04-19T10:24:16.974Z</time></trkpt><trkpt lat="42.8677355" lon="13.1856514"><ele>1365.0</ele><time>2026-04-19T10:24:17.975Z</time></trkpt><trkpt lat="42.8675236" lon="13.1857767"><ele>1384.5</ele><time>2026-04-19T10:24:18.974Z</time></trkpt><trkpt lat="42.8673089" lon="13.1859595"><ele>1404.0</ele><time>2026-04-19T10:24:19.972Z</time></trkpt><trkpt lat="42.8670857" lon="13.1861288"><ele>1404.0</ele><time>2026-04-19T10:24:20.97Z</time></trkpt><trkpt lat="42.8668701" lon="13.1863423"><ele>1404.0</ele><time>2026-04-19T10:24:21.971Z</time></trkpt><trkpt lat="42.8666628" lon="13.1865729"><ele>1409.0</ele><time>2026-04-19T10:24:22.974Z</time></trkpt><trkpt lat="42.866459" lon="13.1868125"><ele>1414.0</ele><time>2026-04-19T10:24:23.969Z</time></trkpt><trkpt lat="42.8662617" lon="13.1870741"><ele>1414.0</ele><time>2026-04-19T10:24:24.971Z</time></trkpt><trkpt lat="42.8660661" lon="13.1873529"><ele>1414.0</ele><time>2026-04-19T10:24:25.973Z</time></trkpt><trkpt lat="42.8658732" lon="13.1876432"><ele>1414.0</ele><time>2026-04-19T10:24:26.971Z</time></trkpt><trkpt lat="42.8656853" lon="13.1879192"><ele>1414.0</ele><time>2026-04-19T10:24:27.969Z</time></trkpt><trkpt lat="42.8654972" lon="13.1882108"><ele>1431.0</ele><time>2026-04-19T10:24:28.972Z</time></trkpt><trkpt lat="42.865318" lon="13.188492"><ele>1448.0</ele><time>2026-04-19T10:24:29.97Z</time></trkpt><trkpt lat="42.8651242" lon="13.1887422"><ele>1450.0</ele><time>2026-04-19T10:24:30.97Z</time></trkpt><trkpt lat="42.8648899" lon="13.1889393"><ele>1452.0</ele><time>2026-04-19T10:24:31.972Z</time></trkpt><trkpt lat="42.8646338" lon="13.1891154"><ele>1452.0</ele><time>2026-04-19T10:24:32.972Z</time></trkpt><trkpt lat="42.8643774" lon="13.1892997"><ele>1452.0</ele><time>2026-04-19T10:24:33.976Z</time></trkpt><trkpt lat="42.864125" lon="13.1895023"><ele>1456.0</ele><time>2026-04-19T10:24:34.972Z</time></trkpt><trkpt lat="42.8638872" lon="13.1897278"><ele>1460.0</ele><time>2026-04-19T10:24:35.973Z</time></trkpt><trkpt lat="42.8636613" lon="13.1899732"><ele>1444.5</ele><time>2026-04-19T10:24:36.973Z</time></trkpt><trkpt lat="42.8634318" lon="13.1902007"><ele>1429.0</ele><time>2026-04-19T10:24:37.978Z</time></trkpt><trkpt lat="42.863198" lon="13.1903998"><ele>1429.0</ele><time>2026-04-19T10:24:38.973Z</time></trkpt><trkpt lat="42.8629843" lon="13.190577"><ele>1429.0</ele><time>2026-04-19T10:24:39.97Z</time></trkpt><trkpt lat="42.8627915" lon="13.1907454"><ele>1436.3333333333333</ele><time>2026-04-19T10:24:40.978Z</time></trkpt><trkpt lat="42.8626005" lon="13.1908979"><ele>1443.6666666666667</ele><time>2026-04-19T10:24:41.973Z</time></trkpt><trkpt lat="42.8624136" lon="13.1910336"><ele>1451.0</ele><time>2026-04-19T10:24:42.971Z</time></trkpt><trkpt lat="42.8622204" lon="13.1911209"><ele>1451.0</ele><time>2026-04-19T10:24:43.971Z</time></trkpt><trkpt lat="42.8620171" lon="13.191135"><ele>1451.0</ele><time>2026-04-19T10:24:44.973Z</time></trkpt><trkpt lat="42.8618036" lon="13.1910943"><ele>1451.0</ele><time>2026-04-19T10:24:45.981Z</time></trkpt><trkpt lat="42.8615881" lon="13.1910184"><ele>1454.0</ele><time>2026-04-19T10:24:46.968Z</time></trkpt><trkpt lat="42.8613686" lon="13.1909491"><ele>1457.0</ele><time>2026-04-19T10:24:47.973Z</time></trkpt><trkpt lat="42.8611599" lon="13.1908933"><ele>1460.0</ele><time>2026-04-19T10:24:48.963Z</time></trkpt><trkpt lat="42.8609771" lon="13.1908092"><ele>1455.3333333333335</ele><time>2026-04-19T10:24:49.961Z</time></trkpt><trkpt lat="42.8608379" lon="13.1906594"><ele>1450.6666666666667</ele><time>2026-04-19T10:24:50.963Z</time></trkpt><trkpt lat="42.8607122" lon="13.1905114"><ele>1446.0</ele><time>2026-04-19T10:24:51.961Z</time></trkpt><trkpt lat="42.8605745" lon="13.1904446"><ele>1446.0</ele><time>2026-04-19T10:24:52.967Z</time></trkpt><trkpt lat="42.8604142" lon="13.1904219"><ele>1446.0</ele><time>2026-04-19T10:24:53.97Z</time></trkpt><trkpt lat="42.8602342" lon="13.1903892"><ele>1446.0</ele><time>2026-04-19T10:24:54.968Z</time></trkpt><trkpt lat="42.860057" lon="13.1903195"><ele>1455.3333333333333</ele><time>2026-04-19T10:24:55.963Z</time></trkpt><trkpt lat="42.8598824" lon="13.19019"><ele>1464.6666666666665</ele><time>2026-04-19T10:24:56.966Z</time></trkpt><trkpt lat="42.8597291" lon="13.1900729"><ele>1474.0</ele><time>2026-04-19T10:24:57.961Z</time></trkpt><trkpt lat="42.8595729" lon="13.1899869"><ele>1474.0</ele><time>2026-04-19T10:24:58.967Z</time></trkpt><trkpt lat="42.8594341" lon="13.1898802"><ele>1474.0</ele><time>2026-04-19T10:24:59.967Z</time></trkpt><trkpt lat="42.8593489" lon="13.1897112"><ele>1474.0</ele><time>2026-04-19T10:25:00.967Z</time></trkpt><trkpt lat="42.8593245" lon="13.1894908"><ele>1476.8000000000002</ele><time>2026-04-19T10:25:01.971Z</time></trkpt><trkpt lat="42.8592781" lon="13.1893342"><ele>1479.6000000000001</ele><time>2026-04-19T10:25:02.98Z</time></trkpt><trkpt lat="42.8592139" lon="13.1892205"><ele>1482.4</ele><time>2026-04-19T10:25:03.982Z</time></trkpt><trkpt lat="42.8591212" lon="13.1891741"><ele>1485.2</ele><time>2026-04-19T10:25:04.979Z</time></trkpt><trkpt lat="42.8590275" lon="13.1892276"><ele>1488.0</ele><time>2026-04-19T10:25:05.978Z</time></trkpt><trkpt lat="42.8589585" lon="13.189373"><ele>1488.0</ele><time>2026-04-19T10:25:06.978Z</time></trkpt><trkpt lat="42.8588967" lon="13.1895624"><ele>1488.0</ele><time>2026-04-19T10:25:07.979Z</time></trkpt><trkpt lat="42.8588331" lon="13.1897839"><ele>1488.0</ele><time>2026-04-19T10:25:08.985Z</time></trkpt><trkpt lat="42.8587562" lon="13.1900059"><ele>1489.6666666666667</ele><time>2026-04-19T10:25:09.978Z</time></trkpt><trkpt lat="42.8586739" lon="13.1902274"><ele>1491.3333333333335</ele><time>2026-04-19T10:25:10.981Z</time></trkpt><trkpt lat="42.858591" lon="13.1904367"><ele>1493.0</ele><time>2026-04-19T10:25:11.979Z</time></trkpt><trkpt lat="42.8585059" lon="13.190636"><ele>1493.3333333333335</ele><time>2026-04-19T10:25:12.982Z</time></trkpt><trkpt lat="42.8584115" lon="13.1908183"><ele>1493.6666666666667</ele><time>2026-04-19T10:25:13.983Z</time></trkpt><trkpt lat="42.8583083" lon="13.1909883"><ele>1494.0</ele><time>2026-04-19T10:25:14.989Z</time></trkpt><trkpt lat="42.8581864" lon="13.1911589"><ele>1494.0</ele><time>2026-04-19T10:25:15.986Z</time></trkpt><trkpt lat="42.8580526" lon="13.1913349"><ele>1494.0</ele><time>2026-04-19T10:25:16.994Z</time></trkpt><trkpt lat="42.8579152" lon="13.1915364"><ele>1494.0</ele><time>2026-04-19T10:25:17.988Z</time></trkpt><trkpt lat="42.8577758" lon="13.1917385"><ele>1494.3333333333333</ele><time>2026-04-19T10:25:18.989Z</time></trkpt><trkpt lat="42.8576283" lon="13.1919448"><ele>1494.6666666666665</ele><time>2026-04-19T10:25:19.988Z</time></trkpt><trkpt lat="42.8574941" lon="13.1921535"><ele>1495.0</ele><time>2026-04-19T10:25:20.987Z</time></trkpt><trkpt lat="42.8573645" lon="13.1923532"><ele>1492.0</ele><time>2026-04-19T10:25:21.987Z</time></trkpt><trkpt lat="42.857247" lon="13.1925437"><ele>1489.0</ele><time>2026-04-19T10:25:22.984Z</time></trkpt><trkpt lat="42.857136" lon="13.1927124"><ele>1486.0</ele><time>2026-04-19T10:25:23.987Z</time></trkpt><trkpt lat="42.8570351" lon="13.1928647"><ele>1486.0</ele><time>2026-04-19T10:25:24.99Z</time></trkpt><trkpt lat="42.8569325" lon="13.1929736"><ele>1486.0</ele><time>2026-04-19T10:25:25.984Z</time></trkpt><trkpt lat="42.8568213" lon="13.1930488"><ele>1486.0</ele><time>2026-04-19T10:25:26.991Z</time></trkpt><trkpt lat="42.856688" lon="13.1930557"><ele>1486.0</ele><time>2026-04-19T10:25:27.986Z</time></trkpt><trkpt lat="42.8565557" lon="13.1929938"><ele>1483.3333333333333</ele><time>2026-04-19T10:25:28.995Z</time></trkpt><trkpt lat="42.8564326" lon="13.1928581"><ele>1480.6666666666667</ele><time>2026-04-19T10:25:29.987Z</time></trkpt><trkpt lat="42.8563269" lon="13.1926878"><ele>1478.0</ele><time>2026-04-19T10:25:30.984Z</time></trkpt><trkpt lat="42.856242" lon="13.1925019"><ele>1478.5</ele><time>2026-04-19T10:25:31.982Z</time></trkpt><trkpt lat="42.8561671" lon="13.1923063"><ele>1479.0</ele><time>2026-04-19T10:25:32.985Z</time></trkpt><trkpt lat="42.8561182" lon="13.1921096"><ele>1479.5</ele><time>2026-04-19T10:25:33.988Z</time></trkpt><trkpt lat="42.8561161" lon="13.1919311"><ele>1480.0</ele><time>2026-04-19T10:25:34.986Z</time></trkpt><trkpt lat="42.8561027" lon="13.1917941"><ele>1480.0</ele><time>2026-04-19T10:25:35.984Z</time></trkpt><trkpt lat="42.8560794" lon="13.1916737"><ele>1480.0</ele><time>2026-04-19T10:25:36.982Z</time></trkpt><trkpt lat="42.8560423" lon="13.1915939"><ele>1480.0</ele><time>2026-04-19T10:25:37.987Z</time></trkpt><trkpt lat="42.8558979" lon="13.1916175"><ele>1480.0</ele><time>2026-04-19T10:25:39.991Z</time></trkpt><trkpt lat="42.8558394" lon="13.1917269"><ele>1480.0</ele><time>2026-04-19T10:25:40.986Z</time></trkpt><trkpt lat="42.8558197" lon="13.191906"><ele>1472.6666666666665</ele><time>2026-04-19T10:25:41.986Z</time></trkpt><trkpt lat="42.8558047" lon="13.1921222"><ele>1465.3333333333333</ele><time>2026-04-19T10:25:42.985Z</time></trkpt><trkpt lat="42.8557919" lon="13.1923758"><ele>1458.0</ele><time>2026-04-19T10:25:43.983Z</time></trkpt><trkpt lat="42.8557606" lon="13.1926316"><ele>1458.0</ele><time>2026-04-19T10:25:44.985Z</time></trkpt><trkpt lat="42.8557321" lon="13.1928838"><ele>1458.0</ele><time>2026-04-19T10:25:45.99Z</time></trkpt><trkpt lat="42.8557233" lon="13.1931178"><ele>1458.0</ele><time>2026-04-19T10:25:46.989Z</time></trkpt><trkpt lat="42.8557349" lon="13.1933213"><ele>1457.4</ele><time>2026-04-19T10:25:47.993Z</time></trkpt><trkpt lat="42.8557492" lon="13.1934924"><ele>1456.8000000000002</ele><time>2026-04-19T10:25:48.986Z</time></trkpt><trkpt lat="42.8557676" lon="13.1936312"><ele>1456.2</ele><time>2026-04-19T10:25:49.985Z</time></trkpt><trkpt lat="42.8557682" lon="13.1937454"><ele>1455.6</ele><time>2026-04-19T10:25:50.988Z</time></trkpt><trkpt lat="42.8557124" lon="13.1938067"><ele>1455.0</ele><time>2026-04-19T10:25:51.988Z</time></trkpt><trkpt lat="42.8556339" lon="13.193785"><ele>1455.0</ele><time>2026-04-19T10:25:52.988Z</time></trkpt><trkpt lat="42.8555669" lon="13.1936895"><ele>1455.0</ele><time>2026-04-19T10:25:53.991Z</time></trkpt><trkpt lat="42.8555036" lon="13.1935263"><ele>1455.0</ele><time>2026-04-19T10:25:54.989Z</time></trkpt><trkpt lat="42.8554498" lon="13.1933105"><ele>1455.0</ele><time>2026-04-19T10:25:55.991Z</time></trkpt><trkpt lat="42.8553945" lon="13.1930159"><ele>1456.5</ele><time>2026-04-19T10:25:56.989Z</time></trkpt><trkpt lat="42.8553322" lon="13.1926957"><ele>1458.0</ele><time>2026-04-19T10:25:57.987Z</time></trkpt><trkpt lat="42.8552785" lon="13.1923791"><ele>1457.6666666666667</ele><time>2026-04-19T10:25:58.983Z</time></trkpt><trkpt lat="42.8552515" lon="13.1920865"><ele>1457.3333333333335</ele><time>2026-04-19T10:25:59.984Z</time></trkpt><trkpt lat="42.8552547" lon="13.1918417"><ele>1457.0</ele><time>2026-04-19T10:26:00.984Z</time></trkpt><trkpt lat="42.8552632" lon="13.1916321"><ele>1458.75</ele><time>2026-04-19T10:26:01.981Z</time></trkpt><trkpt lat="42.8552713" lon="13.1914704"><ele>1460.5</ele><time>2026-04-19T10:26:02.981Z</time></trkpt><trkpt lat="42.855229" lon="13.1913235"><ele>1462.25</ele><time>2026-04-19T10:26:03.984Z</time></trkpt><trkpt lat="42.8551204" lon="13.1912118"><ele>1464.0</ele><time>2026-04-19T10:26:04.982Z</time></trkpt><trkpt lat="42.8549609" lon="13.1911357"><ele>1457.3333333333333</ele><time>2026-04-19T10:26:05.982Z</time></trkpt><trkpt lat="42.8547665" lon="13.1910807"><ele>1450.6666666666665</ele><time>2026-04-19T10:26:06.975Z</time></trkpt><trkpt lat="42.8545547" lon="13.1909947"><ele>1444.0</ele><time>2026-04-19T10:26:07.979Z</time></trkpt><trkpt lat="42.8543259" lon="13.1908904"><ele>1449.0</ele><time>2026-04-19T10:26:08.982Z</time></trkpt><trkpt lat="42.8540829" lon="13.190774"><ele>1454.0</ele><time>2026-04-19T10:26:09.985Z</time></trkpt><trkpt lat="42.8538272" lon="13.1906682"><ele>1454.0</ele><time>2026-04-19T10:26:10.994Z</time></trkpt><trkpt lat="42.853559" lon="13.1905707"><ele>1454.0</ele><time>2026-04-19T10:26:11.989Z</time></trkpt><trkpt lat="42.853282" lon="13.1904847"><ele>1444.0</ele><time>2026-04-19T10:26:12.989Z</time></trkpt><trkpt lat="42.8530006" lon="13.1904197"><ele>1434.0</ele><time>2026-04-19T10:26:13.987Z</time></trkpt><trkpt lat="42.8527339" lon="13.1903597"><ele>1427.5</ele><time>2026-04-19T10:26:14.99Z</time></trkpt><trkpt lat="42.8524724" lon="13.1903092"><ele>1421.0</ele><time>2026-04-19T10:26:15.988Z</time></trkpt><trkpt lat="42.8522297" lon="13.1902622"><ele>1421.0</ele><time>2026-04-19T10:26:16.987Z</time></trkpt><trkpt lat="42.8519941" lon="13.1902374"><ele>1421.0</ele><time>2026-04-19T10:26:17.99Z</time></trkpt><trkpt lat="42.8517673" lon="13.1902072"><ele>1416.6666666666667</ele><time>2026-04-19T10:26:18.99Z</time></trkpt><trkpt lat="42.8515529" lon="13.1901716"><ele>1412.3333333333333</ele><time>2026-04-19T10:26:19.994Z</time></trkpt><trkpt lat="42.8513435" lon="13.1901251"><ele>1408.0</ele><time>2026-04-19T10:26:20.991Z</time></trkpt><trkpt lat="42.8511401" lon="13.1901459"><ele>1405.6666666666665</ele><time>2026-04-19T10:26:21.994Z</time></trkpt><trkpt lat="42.8509476" lon="13.1902624"><ele>1403.3333333333333</ele><time>2026-04-19T10:26:22.993Z</time></trkpt><trkpt lat="42.8507526" lon="13.1904504"><ele>1401.0</ele><time>2026-04-19T10:26:23.998Z</time></trkpt><trkpt lat="42.8505711" lon="13.1907216"><ele>1392.0</ele><time>2026-04-19T10:26:24.998Z</time></trkpt><trkpt lat="42.8503997" lon="13.1910348"><ele>1383.0</ele><time>2026-04-19T10:26:25.992Z</time></trkpt><trkpt lat="42.8502184" lon="13.1913439"><ele>1382.0</ele><time>2026-04-19T10:26:27Z</time></trkpt><trkpt lat="42.8500335" lon="13.1916278"><ele>1381.0</ele><time>2026-04-19T10:26:27.996Z</time></trkpt><trkpt lat="42.8498578" lon="13.1918926"><ele>1381.0</ele><time>2026-04-19T10:26:28.996Z</time></trkpt><trkpt lat="42.8496893" lon="13.1921518"><ele>1381.0</ele><time>2026-04-19T10:26:29.993Z</time></trkpt><trkpt lat="42.849526" lon="13.1924001"><ele>1379.5</ele><time>2026-04-19T10:26:30.987Z</time></trkpt><trkpt lat="42.8493545" lon="13.1926312"><ele>1378.0</ele><time>2026-04-19T10:26:31.985Z</time></trkpt><trkpt lat="42.8491682" lon="13.1928439"><ele>1378.0</ele><time>2026-04-19T10:26:32.987Z</time></trkpt><trkpt lat="42.8489779" lon="13.1930396"><ele>1378.0</ele><time>2026-04-19T10:26:33.986Z</time></trkpt><trkpt lat="42.8488009" lon="13.1932375"><ele>1375.6666666666665</ele><time>2026-04-19T10:26:34.984Z</time></trkpt><trkpt lat="42.8486381" lon="13.1934144"><ele>1373.3333333333333</ele><time>2026-04-19T10:26:35.986Z</time></trkpt><trkpt lat="42.8484892" lon="13.1935795"><ele>1371.0</ele><time>2026-04-19T10:26:36.987Z</time></trkpt><trkpt lat="42.8483454" lon="13.1937308"><ele>1371.0</ele><time>2026-04-19T10:26:37.989Z</time></trkpt><trkpt lat="42.8482099" lon="13.1938569"><ele>1371.0</ele><time>2026-04-19T10:26:38.983Z</time></trkpt><trkpt lat="42.8480709" lon="13.1939675"><ele>1371.0</ele><time>2026-04-19T10:26:39.99Z</time></trkpt><trkpt lat="42.8479216" lon="13.1940805"><ele>1364.3333333333333</ele><time>2026-04-19T10:26:40.992Z</time></trkpt><trkpt lat="42.84775" lon="13.1942368"><ele>1357.6666666666665</ele><time>2026-04-19T10:26:41.996Z</time></trkpt><trkpt lat="42.8475524" lon="13.1943873"><ele>1351.0</ele><time>2026-04-19T10:26:42.991Z</time></trkpt><trkpt lat="42.847339" lon="13.1944774"><ele>1351.0</ele><time>2026-04-19T10:26:43.99Z</time></trkpt><trkpt lat="42.8471199" lon="13.1945132"><ele>1351.0</ele><time>2026-04-19T10:26:44.992Z</time></trkpt><trkpt lat="42.8469229" lon="13.1946014"><ele>1351.0</ele><time>2026-04-19T10:26:45.993Z</time></trkpt><trkpt lat="42.8467492" lon="13.1947511"><ele>1348.0</ele><time>2026-04-19T10:26:46.991Z</time></trkpt><trkpt lat="42.8466267" lon="13.1949795"><ele>1345.0</ele><time>2026-04-19T10:26:47.991Z</time></trkpt><trkpt lat="42.8465389" lon="13.1952656"><ele>1342.0</ele><time>2026-04-19T10:26:48.994Z</time></trkpt><trkpt lat="42.8464267" lon="13.1954727"><ele>1342.0</ele><time>2026-04-19T10:26:49.989Z</time></trkpt><trkpt lat="42.8462781" lon="13.1955951"><ele>1342.0</ele><time>2026-04-19T10:26:50.99Z</time></trkpt><trkpt lat="42.8460749" lon="13.1956275"><ele>1342.0</ele><time>2026-04-19T10:26:51.986Z</time></trkpt><trkpt lat="42.8458403" lon="13.1956378"><ele>1342.5</ele><time>2026-04-19T10:26:52.994Z</time></trkpt><trkpt lat="42.8455719" lon="13.1956283"><ele>1343.0</ele><time>2026-04-19T10:26:53.987Z</time></trkpt><trkpt lat="42.8452915" lon="13.1956496"><ele>1341.0</ele><time>2026-04-19T10:26:54.991Z</time></trkpt><trkpt lat="42.8449779" lon="13.1956939"><ele>1339.0</ele><time>2026-04-19T10:26:55.992Z</time></trkpt><trkpt lat="42.844643" lon="13.1957464"><ele>1338.5</ele><time>2026-04-19T10:26:56.988Z</time></trkpt><trkpt lat="42.844296" lon="13.1958013"><ele>1338.0</ele><time>2026-04-19T10:26:57.994Z</time></trkpt><trkpt lat="42.8439364" lon="13.1958651"><ele>1338.0</ele><time>2026-04-19T10:26:58.99Z</time></trkpt><trkpt lat="42.8435665" lon="13.1959192"><ele>1338.0</ele><time>2026-04-19T10:26:59.986Z</time></trkpt><trkpt lat="42.8431965" lon="13.195974"><ele>1337.0</ele><time>2026-04-19T10:27:00.988Z</time></trkpt><trkpt lat="42.8428479" lon="13.1960384"><ele>1336.0</ele><time>2026-04-19T10:27:01.985Z</time></trkpt><trkpt lat="42.8425239" lon="13.1960964"><ele>1336.0</ele><time>2026-04-19T10:27:02.987Z</time></trkpt><trkpt lat="42.8422223" lon="13.1961462"><ele>1336.0</ele><time>2026-04-19T10:27:03.988Z</time></trkpt><trkpt lat="42.8419408" lon="13.1961887"><ele>1336.5</ele><time>2026-04-19T10:27:04.99Z</time></trkpt><trkpt lat="42.8416647" lon="13.1961961"><ele>1337.0</ele><time>2026-04-19T10:27:05.988Z</time></trkpt><trkpt lat="42.8414093" lon="13.1961813"><ele>1337.0</ele><time>2026-04-19T10:27:06.998Z</time></trkpt><trkpt lat="42.8411758" lon="13.1961607"><ele>1337.0</ele><time>2026-04-19T10:27:07.993Z</time></trkpt><trkpt lat="42.8409788" lon="13.1961415"><ele>1337.0</ele><time>2026-04-19T10:27:08.994Z</time></trkpt><trkpt lat="42.8408106" lon="13.196152"><ele>1337.3333333333335</ele><time>2026-04-19T10:27:09.988Z</time></trkpt><trkpt lat="42.8406425" lon="13.1962691"><ele>1337.6666666666667</ele><time>2026-04-19T10:27:10.994Z</time></trkpt><trkpt lat="42.8404735" lon="13.196452"><ele>1338.0</ele><time>2026-04-19T10:27:11.993Z</time></trkpt><trkpt lat="42.8402844" lon="13.1966483"><ele>1337.0</ele><time>2026-04-19T10:27:13.002Z</time></trkpt><trkpt lat="42.8400679" lon="13.1968261"><ele>1336.0</ele><time>2026-04-19T10:27:14.012Z</time></trkpt><trkpt lat="42.8398337" lon="13.1970006"><ele>1336.0</ele><time>2026-04-19T10:27:15.001Z</time></trkpt><trkpt lat="42.8395836" lon="13.1971958"><ele>1336.0</ele><time>2026-04-19T10:27:16.005Z</time></trkpt><trkpt lat="42.839321" lon="13.1974058"><ele>1335.5</ele><time>2026-04-19T10:27:17.006Z</time></trkpt><trkpt lat="42.8390482" lon="13.1976316"><ele>1335.0</ele><time>2026-04-19T10:27:18.007Z</time></trkpt><trkpt lat="42.8387877" lon="13.1978485"><ele>1335.0</ele><time>2026-04-19T10:27:19.01Z</time></trkpt><trkpt lat="42.838552" lon="13.1980561"><ele>1335.0</ele><time>2026-04-19T10:27:20.009Z</time></trkpt><trkpt lat="42.8383412" lon="13.1982464"><ele>1335.0</ele><time>2026-04-19T10:27:21.01Z</time></trkpt><trkpt lat="42.838139" lon="13.1984243"><ele>1335.0</ele><time>2026-04-19T10:27:22.006Z</time></trkpt><trkpt lat="42.8379464" lon="13.198587"><ele>1335.0</ele><time>2026-04-19T10:27:23.004Z</time></trkpt><trkpt lat="42.8377654" lon="13.1987506"><ele>1335.0</ele><time>2026-04-19T10:27:24.005Z</time></trkpt><trkpt lat="42.8376086" lon="13.1989293"><ele>1335.0</ele><time>2026-04-19T10:27:25.007Z</time></trkpt><trkpt lat="42.8374968" lon="13.1991506"><ele>1336.6666666666667</ele><time>2026-04-19T10:27:26.01Z</time></trkpt><trkpt lat="42.8374327" lon="13.1994211"><ele>1338.3333333333335</ele><time>2026-04-19T10:27:27.007Z</time></trkpt><trkpt lat="42.8373673" lon="13.199707"><ele>1340.0</ele><time>2026-04-19T10:27:28.003Z</time></trkpt><trkpt lat="42.8372641" lon="13.1999909"><ele>1340.3333333333335</ele><time>2026-04-19T10:27:29.003Z</time></trkpt><trkpt lat="42.83712" lon="13.2002446"><ele>1340.6666666666667</ele><time>2026-04-19T10:27:30.003Z</time></trkpt><trkpt lat="42.8369598" lon="13.2004379"><ele>1341.0</ele><time>2026-04-19T10:27:31.005Z</time></trkpt><trkpt lat="42.836818" lon="13.2005517"><ele>1347.6666666666667</ele><time>2026-04-19T10:27:32.006Z</time></trkpt><trkpt lat="42.8366504" lon="13.2006044"><ele>1354.3333333333335</ele><time>2026-04-19T10:27:33.004Z</time></trkpt><trkpt lat="42.8364754" lon="13.2005957"><ele>1361.0</ele><time>2026-04-19T10:27:34.006Z</time></trkpt><trkpt lat="42.836311" lon="13.200576"><ele>1361.0</ele><time>2026-04-19T10:27:35.002Z</time></trkpt><trkpt lat="42.8361532" lon="13.2006322"><ele>1361.0</ele><time>2026-04-19T10:27:36.003Z</time></trkpt><trkpt lat="42.8360218" lon="13.2007657"><ele>1361.0</ele><time>2026-04-19T10:27:37.004Z</time></trkpt><trkpt lat="42.8359243" lon="13.2009496"><ele>1360.6666666666667</ele><time>2026-04-19T10:27:38.001Z</time></trkpt><trkpt lat="42.8358264" lon="13.2011164"><ele>1360.3333333333333</ele><time>2026-04-19T10:27:39.01Z</time></trkpt><trkpt lat="42.8357042" lon="13.2012258"><ele>1360.0</ele><time>2026-04-19T10:27:40.004Z</time></trkpt><trkpt lat="42.8355542" lon="13.201316"><ele>1360.0</ele><time>2026-04-19T10:27:41.002Z</time></trkpt><trkpt lat="42.8353741" lon="13.2014031"><ele>1360.0</ele><time>2026-04-19T10:27:41.999Z</time></trkpt><trkpt lat="42.835201" lon="13.2014718"><ele>1360.0</ele><time>2026-04-19T10:27:43.008Z</time></trkpt><trkpt lat="42.8350475" lon="13.2015168"><ele>1360.0</ele><time>2026-04-19T10:27:44.002Z</time></trkpt><trkpt lat="42.8349154" lon="13.2015525"><ele>1360.0</ele><time>2026-04-19T10:27:45.002Z</time></trkpt><trkpt lat="42.8347944" lon="13.201607"><ele>1360.0</ele><time>2026-04-19T10:27:46.009Z</time></trkpt><trkpt lat="42.8346734" lon="13.2016594"><ele>1360.0</ele><time>2026-04-19T10:27:47.003Z</time></trkpt><trkpt lat="42.8345496" lon="13.2017161"><ele>1360.0</ele><time>2026-04-19T10:27:48.008Z</time></trkpt><trkpt lat="42.8344139" lon="13.2017913"><ele>1360.0</ele><time>2026-04-19T10:27:49.004Z</time></trkpt><trkpt lat="42.8342611" lon="13.2019038"><ele>1360.0</ele><time>2026-04-19T10:27:50.004Z</time></trkpt><trkpt lat="42.8341001" lon="13.2020118"><ele>1358.3333333333333</ele><time>2026-04-19T10:27:51.003Z</time></trkpt><trkpt lat="42.8339307" lon="13.2021304"><ele>1356.6666666666667</ele><time>2026-04-19T10:27:51.999Z</time></trkpt><trkpt lat="42.8337581" lon="13.2022428"><ele>1355.0</ele><time>2026-04-19T10:27:53.002Z</time></trkpt><trkpt lat="42.8335878" lon="13.2023609"><ele>1364.3333333333335</ele><time>2026-04-19T10:27:54.001Z</time></trkpt><trkpt lat="42.8334077" lon="13.2024734"><ele>1373.6666666666667</ele><time>2026-04-19T10:27:55.01Z</time></trkpt><trkpt lat="42.8332209" lon="13.2025762"><ele>1383.0</ele><time>2026-04-19T10:27:56.006Z</time></trkpt><trkpt lat="42.833034" lon="13.2026804"><ele>1383.0</ele><time>2026-04-19T10:27:57.009Z</time></trkpt><trkpt lat="42.8328496" lon="13.2027863"><ele>1383.0</ele><time>2026-04-19T10:27:58.005Z</time></trkpt><trkpt lat="42.8326681" lon="13.2029061"><ele>1383.0</ele><time>2026-04-19T10:27:59.008Z</time></trkpt><trkpt lat="42.832486" lon="13.2030265"><ele>1382.6666666666667</ele><time>2026-04-19T10:28:00.007Z</time></trkpt><trkpt lat="42.8323075" lon="13.2031472"><ele>1382.3333333333335</ele><time>2026-04-19T10:28:01.006Z</time></trkpt><trkpt lat="42.8321346" lon="13.2032576"><ele>1382.0</ele><time>2026-04-19T10:28:02.01Z</time></trkpt><trkpt lat="42.8319653" lon="13.2033644"><ele>1389.0</ele><time>2026-04-19T10:28:03.005Z</time></trkpt><trkpt lat="42.8317934" lon="13.2034715"><ele>1396.0</ele><time>2026-04-19T10:28:04.004Z</time></trkpt><trkpt lat="42.8316258" lon="13.2035713"><ele>1403.0</ele><time>2026-04-19T10:28:05.003Z</time></trkpt><trkpt lat="42.8314621" lon="13.2036637"><ele>1403.0</ele><time>2026-04-19T10:28:06.002Z</time></trkpt><trkpt lat="42.8312998" lon="13.2037637"><ele>1403.0</ele><time>2026-04-19T10:28:07.002Z</time></trkpt><trkpt lat="42.831149" lon="13.203898"><ele>1403.0</ele><time>2026-04-19T10:28:08Z</time></trkpt><trkpt lat="42.8310295" lon="13.2040624"><ele>1404.6666666666667</ele><time>2026-04-19T10:28:09.003Z</time></trkpt><trkpt lat="42.8309106" lon="13.2042247"><ele>1406.3333333333333</ele><time>2026-04-19T10:28:10.003Z</time></trkpt><trkpt lat="42.8308043" lon="13.2043952"><ele>1408.0</ele><time>2026-04-19T10:28:11.003Z</time></trkpt><trkpt lat="42.8306965" lon="13.2045566"><ele>1408.0</ele><time>2026-04-19T10:28:12.001Z</time></trkpt><trkpt lat="42.8305849" lon="13.2047071"><ele>1408.0</ele><time>2026-04-19T10:28:13.007Z</time></trkpt><trkpt lat="42.8304745" lon="13.2048467"><ele>1408.0</ele><time>2026-04-19T10:28:14.009Z</time></trkpt><trkpt lat="42.8303755" lon="13.2049891"><ele>1404.5</ele><time>2026-04-19T10:28:15.002Z</time></trkpt><trkpt lat="42.830281" lon="13.2051153"><ele>1401.0</ele><time>2026-04-19T10:28:16.007Z</time></trkpt><trkpt lat="42.8301992" lon="13.2052385"><ele>1397.5</ele><time>2026-04-19T10:28:17.005Z</time></trkpt><trkpt lat="42.8301212" lon="13.2053426"><ele>1394.0</ele><time>2026-04-19T10:28:18.003Z</time></trkpt><trkpt lat="42.8300506" lon="13.2054284"><ele>1399.5</ele><time>2026-04-19T10:28:19.006Z</time></trkpt><trkpt lat="42.8299748" lon="13.2054919"><ele>1405.0</ele><time>2026-04-19T10:28:20.011Z</time></trkpt><trkpt lat="42.8299023" lon="13.2055405"><ele>1410.5</ele><time>2026-04-19T10:28:21.006Z</time></trkpt><trkpt lat="42.8298294" lon="13.2055791"><ele>1416.0</ele><time>2026-04-19T10:28:22.006Z</time></trkpt><trkpt lat="42.8297605" lon="13.205606"><ele>1421.5</ele><time>2026-04-19T10:28:23.009Z</time></trkpt><trkpt lat="42.8296938" lon="13.2056222"><ele>1427.0</ele><time>2026-04-19T10:28:24.007Z</time></trkpt><trkpt lat="42.8295677" lon="13.2056237"><ele>1427.0</ele><time>2026-04-19T10:28:26.009Z</time></trkpt><trkpt lat="42.8294432" lon="13.2056222"><ele>1427.0</ele><time>2026-04-19T10:28:28.011Z</time></trkpt><trkpt lat="42.8293275" lon="13.2056353"><ele>1427.0</ele><time>2026-04-19T10:28:30.012Z</time></trkpt><trkpt lat="42.8292168" lon="13.2056493"><ele>1427.0</ele><time>2026-04-19T10:28:32.008Z</time></trkpt><trkpt lat="42.82911" lon="13.2056087"><ele>1427.3999999999999</ele><time>2026-04-19T10:28:34.01Z</time></trkpt><trkpt lat="42.8290123" lon="13.2055435"><ele>1427.8</ele><time>2026-04-19T10:28:35.998Z</time></trkpt><trkpt lat="42.8289185" lon="13.2055777"><ele>1428.2</ele><time>2026-04-19T10:28:38.012Z</time></trkpt><trkpt lat="42.8288621" lon="13.2056622"><ele>1428.6</ele><time>2026-04-19T10:28:39.009Z</time></trkpt><trkpt lat="42.8287879" lon="13.2057638"><ele>1429.0</ele><time>2026-04-19T10:28:40.009Z</time></trkpt><trkpt lat="42.8287019" lon="13.2058823"><ele>1427.0</ele><time>2026-04-19T10:28:41.004Z</time></trkpt><trkpt lat="42.8285987" lon="13.2060132"><ele>1425.0</ele><time>2026-04-19T10:28:42.006Z</time></trkpt><trkpt lat="42.8284843" lon="13.206143"><ele>1423.0</ele><time>2026-04-19T10:28:43.001Z</time></trkpt><trkpt lat="42.8283592" lon="13.2062637"><ele>1421.0</ele><time>2026-04-19T10:28:43.998Z</time></trkpt><trkpt lat="42.8282122" lon="13.2063833"><ele>1421.0</ele><time>2026-04-19T10:28:45.008Z</time></trkpt><trkpt lat="42.828073" lon="13.2065073"><ele>1421.0</ele><time>2026-04-19T10:28:46Z</time></trkpt><trkpt lat="42.8279299" lon="13.2066365"><ele>1421.0</ele><time>2026-04-19T10:28:46.994Z</time></trkpt><trkpt lat="42.8278085" lon="13.206768"><ele>1421.0</ele><time>2026-04-19T10:28:47.997Z</time></trkpt><trkpt lat="42.8277283" lon="13.2069368"><ele>1421.0</ele><time>2026-04-19T10:28:48.996Z</time></trkpt><trkpt lat="42.8276801" lon="13.207133"><ele>1421.0</ele><time>2026-04-19T10:28:49.993Z</time></trkpt><trkpt lat="42.827623" lon="13.2073493"><ele>1415.0</ele><time>2026-04-19T10:28:50.999Z</time></trkpt><trkpt lat="42.8275564" lon="13.2075636"><ele>1409.0</ele><time>2026-04-19T10:28:52.001Z</time></trkpt><trkpt lat="42.8274907" lon="13.2077704"><ele>1403.0</ele><time>2026-04-19T10:28:53.007Z</time></trkpt><trkpt lat="42.8274341" lon="13.2079732"><ele>1403.0</ele><time>2026-04-19T10:28:54.003Z</time></trkpt><trkpt lat="42.8273991" lon="13.2081862"><ele>1403.0</ele><time>2026-04-19T10:28:55.009Z</time></trkpt><trkpt lat="42.8273871" lon="13.2084133"><ele>1403.0</ele><time>2026-04-19T10:28:56.008Z</time></trkpt><trkpt lat="42.8273929" lon="13.2086478"><ele>1403.0</ele><time>2026-04-19T10:28:57.01Z</time></trkpt><trkpt lat="42.8274054" lon="13.2088753"><ele>1403.0</ele><time>2026-04-19T10:28:58.007Z</time></trkpt><trkpt lat="42.8274313" lon="13.2091212"><ele>1403.0</ele><time>2026-04-19T10:28:59.017Z</time></trkpt><trkpt lat="42.827469" lon="13.2093729"><ele>1400.3333333333335</ele><time>2026-04-19T10:29:00.006Z</time></trkpt><trkpt lat="42.8275265" lon="13.2096164"><ele>1397.6666666666667</ele><time>2026-04-19T10:29:01.007Z</time></trkpt><trkpt lat="42.8275983" lon="13.2098642"><ele>1395.0</ele><time>2026-04-19T10:29:02.01Z</time></trkpt><trkpt lat="42.8276748" lon="13.2101246"><ele>1393.3333333333333</ele><time>2026-04-19T10:29:03.009Z</time></trkpt><trkpt lat="42.8277566" lon="13.2103838"><ele>1391.6666666666665</ele><time>2026-04-19T10:29:04.009Z</time></trkpt><trkpt lat="42.8278284" lon="13.2106284"><ele>1390.0</ele><time>2026-04-19T10:29:05.01Z</time></trkpt><trkpt lat="42.8279145" lon="13.2108623"><ele>1390.0</ele><time>2026-04-19T10:29:06.006Z</time></trkpt><trkpt lat="42.8280043" lon="13.2110789"><ele>1390.0</ele><time>2026-04-19T10:29:07.012Z</time></trkpt><trkpt lat="42.8280972" lon="13.2112781"><ele>1390.0</ele><time>2026-04-19T10:29:08.005Z</time></trkpt><trkpt lat="42.8281879" lon="13.2114752"><ele>1384.3333333333333</ele><time>2026-04-19T10:29:09.01Z</time></trkpt><trkpt lat="42.8282729" lon="13.2116759"><ele>1378.6666666666667</ele><time>2026-04-19T10:29:10.01Z</time></trkpt><trkpt lat="42.8283508" lon="13.211874"><ele>1373.0</ele><time>2026-04-19T10:29:11.008Z</time></trkpt><trkpt lat="42.8284119" lon="13.2120828"><ele>1373.0</ele><time>2026-04-19T10:29:12.003Z</time></trkpt><trkpt lat="42.8284644" lon="13.2122897"><ele>1373.0</ele><time>2026-04-19T10:29:13.001Z</time></trkpt><trkpt lat="42.8284951" lon="13.2124956"><ele>1373.0</ele><time>2026-04-19T10:29:14.004Z</time></trkpt><trkpt lat="42.8285035" lon="13.2127037"><ele>1372.0</ele><time>2026-04-19T10:29:15.012Z</time></trkpt><trkpt lat="42.8285082" lon="13.2129117"><ele>1371.0</ele><time>2026-04-19T10:29:16.014Z</time></trkpt><trkpt lat="42.8285197" lon="13.2131102"><ele>1370.0</ele><time>2026-04-19T10:29:17.008Z</time></trkpt><trkpt lat="42.8285537" lon="13.2132916"><ele>1369.0</ele><time>2026-04-19T10:29:18.013Z</time></trkpt><trkpt lat="42.8286143" lon="13.2134651"><ele>1366.0</ele><time>2026-04-19T10:29:19.01Z</time></trkpt><trkpt lat="42.8287158" lon="13.2136091"><ele>1363.0</ele><time>2026-04-19T10:29:20.006Z</time></trkpt><trkpt lat="42.8288289" lon="13.2137422"><ele>1360.0</ele><time>2026-04-19T10:29:21.005Z</time></trkpt><trkpt lat="42.8289497" lon="13.2138578"><ele>1357.0</ele><time>2026-04-19T10:29:22.008Z</time></trkpt><trkpt lat="42.8290664" lon="13.2139606"><ele>1355.0</ele><time>2026-04-19T10:29:23.009Z</time></trkpt><trkpt lat="42.8291774" lon="13.2140567"><ele>1353.0</ele><time>2026-04-19T10:29:24.011Z</time></trkpt><trkpt lat="42.8292763" lon="13.2141554"><ele>1351.0</ele><time>2026-04-19T10:29:25.011Z</time></trkpt><trkpt lat="42.8293697" lon="13.2142571"><ele>1349.0</ele><time>2026-04-19T10:29:26.003Z</time></trkpt><trkpt lat="42.8294491" lon="13.2143731"><ele>1347.0</ele><time>2026-04-19T10:29:27.008Z</time></trkpt><trkpt lat="42.8295019" lon="13.2145076"><ele>1345.0</ele><time>2026-04-19T10:29:28.009Z</time></trkpt><trkpt lat="42.8294803" lon="13.2146547"><ele>1343.0</ele><time>2026-04-19T10:29:29.013Z</time></trkpt><trkpt lat="42.8294339" lon="13.214783"><ele>1341.0</ele><time>2026-04-19T10:29:30.007Z</time></trkpt><trkpt lat="42.8293705" lon="13.2148951"><ele>1339.0</ele><time>2026-04-19T10:29:31.01Z</time></trkpt><trkpt lat="42.8292838" lon="13.2149881"><ele>1338.25</ele><time>2026-04-19T10:29:32.005Z</time></trkpt><trkpt lat="42.8291705" lon="13.2150477"><ele>1337.5</ele><time>2026-04-19T10:29:33.006Z</time></trkpt><trkpt lat="42.8290336" lon="13.2150626"><ele>1336.75</ele><time>2026-04-19T10:29:34.002Z</time></trkpt><trkpt lat="42.8288768" lon="13.2150402"><ele>1336.0</ele><time>2026-04-19T10:29:34.998Z</time></trkpt><trkpt lat="42.8287125" lon="13.2150096"><ele>1336.0</ele><time>2026-04-19T10:29:36.001Z</time></trkpt><trkpt lat="42.8285463" lon="13.21499"><ele>1336.0</ele><time>2026-04-19T10:29:37.005Z</time></trkpt><trkpt lat="42.828387" lon="13.214977"><ele>1336.0</ele><time>2026-04-19T10:29:38.005Z</time></trkpt><trkpt lat="42.828234" lon="13.2149696"><ele>1334.25</ele><time>2026-04-19T10:29:39.006Z</time></trkpt><trkpt lat="42.8280803" lon="13.2149664"><ele>1332.5</ele><time>2026-04-19T10:29:40.002Z</time></trkpt><trkpt lat="42.8279389" lon="13.2149352"><ele>1330.75</ele><time>2026-04-19T10:29:41.006Z</time></trkpt><trkpt lat="42.827816" lon="13.2148397"><ele>1329.0</ele><time>2026-04-19T10:29:42.004Z</time></trkpt><trkpt lat="42.8277089" lon="13.2147008"><ele>1327.3333333333333</ele><time>2026-04-19T10:29:43.007Z</time></trkpt><trkpt lat="42.8276212" lon="13.2145275"><ele>1325.6666666666665</ele><time>2026-04-19T10:29:44.004Z</time></trkpt><trkpt lat="42.8275301" lon="13.2143548"><ele>1324.0</ele><time>2026-04-19T10:29:45.001Z</time></trkpt><trkpt lat="42.8274404" lon="13.2141884"><ele>1324.0</ele><time>2026-04-19T10:29:46.008Z</time></trkpt><trkpt lat="42.8273454" lon="13.2140315"><ele>1324.0</ele><time>2026-04-19T10:29:47.01Z</time></trkpt><trkpt lat="42.8272384" lon="13.2139135"><ele>1324.0</ele><time>2026-04-19T10:29:48.013Z</time></trkpt><trkpt lat="42.8271172" lon="13.2138507"><ele>1324.0</ele><time>2026-04-19T10:29:49.009Z</time></trkpt><trkpt lat="42.8269784" lon="13.2138232"><ele>1326.6666666666665</ele><time>2026-04-19T10:29:50Z</time></trkpt><trkpt lat="42.8268211" lon="13.2138205"><ele>1329.3333333333333</ele><time>2026-04-19T10:29:51.001Z</time></trkpt><trkpt lat="42.8266479" lon="13.213814"><ele>1332.0</ele><time>2026-04-19T10:29:52.003Z</time></trkpt><trkpt lat="42.8264728" lon="13.2138045"><ele>1326.6666666666667</ele><time>2026-04-19T10:29:53.002Z</time></trkpt><trkpt lat="42.8262878" lon="13.2137929"><ele>1321.3333333333335</ele><time>2026-04-19T10:29:54.007Z</time></trkpt><trkpt lat="42.8261142" lon="13.2137864"><ele>1316.0</ele><time>2026-04-19T10:29:55.005Z</time></trkpt><trkpt lat="42.8259366" lon="13.2137753"><ele>1313.0</ele><time>2026-04-19T10:29:56.001Z</time></trkpt><trkpt lat="42.8257635" lon="13.2137579"><ele>1310.0</ele><time>2026-04-19T10:29:57.013Z</time></trkpt><trkpt lat="42.8255933" lon="13.2137417"><ele>1307.0</ele><time>2026-04-19T10:29:58.007Z</time></trkpt><trkpt lat="42.8254224" lon="13.213723"><ele>1307.0</ele><time>2026-04-19T10:29:59.009Z</time></trkpt><trkpt lat="42.8252503" lon="13.2137059"><ele>1307.0</ele><time>2026-04-19T10:30:00.004Z</time></trkpt><trkpt lat="42.8250727" lon="13.2136917"><ele>1307.0</ele><time>2026-04-19T10:30:01.007Z</time></trkpt><trkpt lat="42.8248906" lon="13.2136743"><ele>1306.6666666666667</ele><time>2026-04-19T10:30:02.006Z</time></trkpt><trkpt lat="42.8247112" lon="13.213658"><ele>1306.3333333333333</ele><time>2026-04-19T10:30:03.005Z</time></trkpt><trkpt lat="42.8245305" lon="13.2136443"><ele>1306.0</ele><time>2026-04-19T10:30:04.009Z</time></trkpt><trkpt lat="42.8243495" lon="13.2136305"><ele>1305.3333333333333</ele><time>2026-04-19T10:30:05.007Z</time></trkpt><trkpt lat="42.8241632" lon="13.2136073"><ele>1304.6666666666667</ele><time>2026-04-19T10:30:06.007Z</time></trkpt><trkpt lat="42.8239792" lon="13.2135846"><ele>1304.0</ele><time>2026-04-19T10:30:07.022Z</time></trkpt><trkpt lat="42.8237937" lon="13.2135656"><ele>1304.0</ele><time>2026-04-19T10:30:08.01Z</time></trkpt><trkpt lat="42.8236068" lon="13.2135486"><ele>1304.0</ele><time>2026-04-19T10:30:09.002Z</time></trkpt><trkpt lat="42.8234173" lon="13.2135251"><ele>1304.0</ele><time>2026-04-19T10:30:10.006Z</time></trkpt><trkpt lat="42.8232165" lon="13.2135024"><ele>1304.0</ele><time>2026-04-19T10:30:11.011Z</time></trkpt><trkpt lat="42.8230137" lon="13.2134831"><ele>1304.0</ele><time>2026-04-19T10:30:12.006Z</time></trkpt><trkpt lat="42.8227991" lon="13.2134644"><ele>1304.0</ele><time>2026-04-19T10:30:13.009Z</time></trkpt><trkpt lat="42.8225834" lon="13.213445"><ele>1303.3333333333335</ele><time>2026-04-19T10:30:14.011Z</time></trkpt><trkpt lat="42.8223692" lon="13.2134255"><ele>1302.6666666666667</ele><time>2026-04-19T10:30:15.004Z</time></trkpt><trkpt lat="42.8221675" lon="13.2134083"><ele>1302.0</ele><time>2026-04-19T10:30:16.008Z</time></trkpt><trkpt lat="42.8219759" lon="13.2133874"><ele>1302.3333333333333</ele><time>2026-04-19T10:30:17.001Z</time></trkpt><trkpt lat="42.8218007" lon="13.2133736"><ele>1302.6666666666665</ele><time>2026-04-19T10:30:18.013Z</time></trkpt><trkpt lat="42.8216418" lon="13.2133607"><ele>1303.0</ele><time>2026-04-19T10:30:19.001Z</time></trkpt><trkpt lat="42.8214985" lon="13.2133459"><ele>1303.0</ele><time>2026-04-19T10:30:20.01Z</time></trkpt><trkpt lat="42.8213509" lon="13.2133302"><ele>1303.0</ele><time>2026-04-19T10:30:21.004Z</time></trkpt><trkpt lat="42.8212086" lon="13.2133127"><ele>1303.0</ele><time>2026-04-19T10:30:22.002Z</time></trkpt><trkpt lat="42.821059" lon="13.2133015"><ele>1303.0</ele><time>2026-04-19T10:30:23.006Z</time></trkpt><trkpt lat="42.820896" lon="13.2132758"><ele>1302.3333333333333</ele><time>2026-04-19T10:30:24Z</time></trkpt><trkpt lat="42.8207237" lon="13.2132519"><ele>1301.6666666666667</ele><time>2026-04-19T10:30:25.002Z</time></trkpt><trkpt lat="42.8205473" lon="13.2132125"><ele>1301.0</ele><time>2026-04-19T10:30:26.004Z</time></trkpt><trkpt lat="42.8203648" lon="13.2131599"><ele>1301.3333333333335</ele><time>2026-04-19T10:30:27.006Z</time></trkpt><trkpt lat="42.8201881" lon="13.213078"><ele>1301.6666666666667</ele><time>2026-04-19T10:30:28.004Z</time></trkpt><trkpt lat="42.8200105" lon="13.2129813"><ele>1302.0</ele><time>2026-04-19T10:30:29.006Z</time></trkpt><trkpt lat="42.8198455" lon="13.212867"><ele>1301.3333333333333</ele><time>2026-04-19T10:30:30.001Z</time></trkpt><trkpt lat="42.8196813" lon="13.2127614"><ele>1300.6666666666665</ele><time>2026-04-19T10:30:31.004Z</time></trkpt><trkpt lat="42.8195261" lon="13.2126566"><ele>1300.0</ele><time>2026-04-19T10:30:32.007Z</time></trkpt><trkpt lat="42.8193698" lon="13.2125447"><ele>1300.0</ele><time>2026-04-19T10:30:33.005Z</time></trkpt><trkpt lat="42.8192203" lon="13.2124314"><ele>1300.0</ele><time>2026-04-19T10:30:34.006Z</time></trkpt><trkpt lat="42.8190702" lon="13.2123103"><ele>1300.0</ele><time>2026-04-19T10:30:35.013Z</time></trkpt><trkpt lat="42.8189166" lon="13.2121888"><ele>1300.0</ele><time>2026-04-19T10:30:36.006Z</time></trkpt><trkpt lat="42.8187587" lon="13.2120647"><ele>1300.0</ele><time>2026-04-19T10:30:37.021Z</time></trkpt><trkpt lat="42.8185913" lon="13.2119278"><ele>1300.0</ele><time>2026-04-19T10:30:38.006Z</time></trkpt><trkpt lat="42.8184228" lon="13.2117898"><ele>1299.0</ele><time>2026-04-19T10:30:39.006Z</time></trkpt><trkpt lat="42.8182412" lon="13.211643"><ele>1298.0</ele><time>2026-04-19T10:30:40.009Z</time></trkpt><trkpt lat="42.8180519" lon="13.2114953"><ele>1297.0</ele><time>2026-04-19T10:30:41.009Z</time></trkpt><trkpt lat="42.8178601" lon="13.2113471"><ele>1297.0</ele><time>2026-04-19T10:30:42.008Z</time></trkpt><trkpt lat="42.8176643" lon="13.2111871"><ele>1297.0</ele><time>2026-04-19T10:30:43.006Z</time></trkpt><trkpt lat="42.8174551" lon="13.2110275"><ele>1297.0</ele><time>2026-04-19T10:30:44.016Z</time></trkpt><trkpt lat="42.8172558" lon="13.2108628"><ele>1297.0</ele><time>2026-04-19T10:30:45.008Z</time></trkpt><trkpt lat="42.8170671" lon="13.2106775"><ele>1297.0</ele><time>2026-04-19T10:30:46.025Z</time></trkpt><trkpt lat="42.8168965" lon="13.2104595"><ele>1297.0</ele><time>2026-04-19T10:30:47.016Z</time></trkpt><trkpt lat="42.816729" lon="13.2102274"><ele>1297.0</ele><time>2026-04-19T10:30:48.016Z</time></trkpt><trkpt lat="42.8165563" lon="13.2100016"><ele>1297.0</ele><time>2026-04-19T10:30:49.026Z</time></trkpt><trkpt lat="42.8163822" lon="13.2097682"><ele>1297.0</ele><time>2026-04-19T10:30:50.018Z</time></trkpt><trkpt lat="42.8162058" lon="13.2095397"><ele>1297.0</ele><time>2026-04-19T10:30:51.02Z</time></trkpt><trkpt lat="42.8160305" lon="13.2093038"><ele>1297.0</ele><time>2026-04-19T10:30:52.014Z</time></trkpt><trkpt lat="42.81585" lon="13.2090706"><ele>1297.0</ele><time>2026-04-19T10:30:53.012Z</time></trkpt><trkpt lat="42.8156678" lon="13.2088472"><ele>1295.0</ele><time>2026-04-19T10:30:54.011Z</time></trkpt><trkpt lat="42.8154894" lon="13.2086223"><ele>1293.0</ele><time>2026-04-19T10:30:55.014Z</time></trkpt><trkpt lat="42.8153124" lon="13.2084035"><ele>1293.0</ele><time>2026-04-19T10:30:56.013Z</time></trkpt><trkpt lat="42.8151362" lon="13.2081776"><ele>1293.0</ele><time>2026-04-19T10:30:57.014Z</time></trkpt><trkpt lat="42.8149554" lon="13.2079532"><ele>1292.5</ele><time>2026-04-19T10:30:58.012Z</time></trkpt><trkpt lat="42.8147793" lon="13.2077279"><ele>1292.0</ele><time>2026-04-19T10:30:59.024Z</time></trkpt><trkpt lat="42.8145987" lon="13.2075007"><ele>1292.0</ele><time>2026-04-19T10:31:00.009Z</time></trkpt><trkpt lat="42.8144121" lon="13.2072749"><ele>1292.0</ele><time>2026-04-19T10:31:01.012Z</time></trkpt><trkpt lat="42.8142084" lon="13.2070327"><ele>1292.0</ele><time>2026-04-19T10:31:02.009Z</time></trkpt><trkpt lat="42.8139919" lon="13.2067824"><ele>1292.0</ele><time>2026-04-19T10:31:03.011Z</time></trkpt><trkpt lat="42.8137662" lon="13.2065062"><ele>1291.5</ele><time>2026-04-19T10:31:04.01Z</time></trkpt><trkpt lat="42.8135377" lon="13.206218"><ele>1291.0</ele><time>2026-04-19T10:31:05.011Z</time></trkpt><trkpt lat="42.8133027" lon="13.2059259"><ele>1292.0</ele><time>2026-04-19T10:31:06.016Z</time></trkpt><trkpt lat="42.8130826" lon="13.2056601"><ele>1293.0</ele><time>2026-04-19T10:31:07.008Z</time></trkpt><trkpt lat="42.8129303" lon="13.2054601"><ele>1293.0</ele><time>2026-04-19T10:31:08.014Z</time></trkpt><trkpt lat="42.8128209" lon="13.2053245"><ele>1293.0</ele><time>2026-04-19T10:31:09.01Z</time></trkpt><trkpt lat="42.8127253" lon="13.2052086"><ele>1293.0</ele><time>2026-04-19T10:31:10.011Z</time></trkpt><trkpt lat="42.8126509" lon="13.2050935"><ele>1293.0</ele><time>2026-04-19T10:31:11.008Z</time></trkpt><trkpt lat="42.8125887" lon="13.2049796"><ele>1292.6666666666667</ele><time>2026-04-19T10:31:12.012Z</time></trkpt><trkpt lat="42.8125353" lon="13.2048913"><ele>1292.3333333333333</ele><time>2026-04-19T10:31:13.005Z</time></trkpt><trkpt lat="42.8124875" lon="13.2048242"><ele>1292.0</ele><time>2026-04-19T10:31:14.002Z</time></trkpt><trkpt lat="42.8124225" lon="13.2047439"><ele>1291.6666666666665</ele><time>2026-04-19T10:31:16.006Z</time></trkpt><trkpt lat="42.8123735" lon="13.2046809"><ele>1291.3333333333333</ele><time>2026-04-19T10:47:40.083Z</time></trkpt><trkpt lat="42.8123119" lon="13.2046048"><ele>1291.0</ele><time>2026-04-19T10:47:42.021Z</time></trkpt><trkpt lat="42.8123719" lon="13.2046856"><ele>1291.0</ele><time>2026-04-19T10:47:48.014Z</time></trkpt><trkpt lat="42.8124345" lon="13.204775"><ele>1291.0</ele><time>2026-04-19T10:47:50.023Z</time></trkpt><trkpt lat="42.8124866" lon="13.2048537"><ele>1291.0</ele><time>2026-04-19T10:47:52.013Z</time></trkpt><trkpt lat="42.812541" lon="13.2049373"><ele>1291.0</ele><time>2026-04-19T10:47:54.016Z</time></trkpt><trkpt lat="42.8126036" lon="13.2050112"><ele>1291.0</ele><time>2026-04-19T10:47:56.019Z</time></trkpt><trkpt lat="42.8126673" lon="13.2050847"><ele>1291.0</ele><time>2026-04-19T10:47:58.02Z</time></trkpt><trkpt lat="42.8127273" lon="13.2051665"><ele>1291.4</ele><time>2026-04-19T10:48:00.017Z</time></trkpt><trkpt lat="42.8127912" lon="13.2052577"><ele>1291.8</ele><time>2026-04-19T10:48:02.021Z</time></trkpt><trkpt lat="42.8128704" lon="13.2053469"><ele>1292.2</ele><time>2026-04-19T10:48:04.021Z</time></trkpt><trkpt lat="42.8129486" lon="13.2054408"><ele>1292.6000000000001</ele><time>2026-04-19T10:48:06.02Z</time></trkpt><trkpt lat="42.8130289" lon="13.2055516"><ele>1293.0</ele><time>2026-04-19T10:48:08.018Z</time></trkpt><trkpt lat="42.8131078" lon="13.20565"><ele>1292.4</ele><time>2026-04-19T10:48:10.017Z</time></trkpt><trkpt lat="42.8131795" lon="13.2057319"><ele>1291.8000000000002</ele><time>2026-04-19T10:48:12.024Z</time></trkpt><trkpt lat="42.8132488" lon="13.2058098"><ele>1291.2</ele><time>2026-04-19T10:48:14.026Z</time></trkpt><trkpt lat="42.8133189" lon="13.2059036"><ele>1290.6</ele><time>2026-04-19T10:48:16.022Z</time></trkpt><trkpt lat="42.813397" lon="13.2060092"><ele>1290.0</ele><time>2026-04-19T10:48:18.013Z</time></trkpt><trkpt lat="42.8134803" lon="13.2061175"><ele>1290.1666666666667</ele><time>2026-04-19T10:48:20.012Z</time></trkpt><trkpt lat="42.8135709" lon="13.2062353"><ele>1290.3333333333333</ele><time>2026-04-19T10:48:22.012Z</time></trkpt><trkpt lat="42.8136181" lon="13.2062971"><ele>1290.5</ele><time>2026-04-19T10:48:23.017Z</time></trkpt><trkpt lat="42.8136651" lon="13.2063602"><ele>1290.6666666666665</ele><time>2026-04-19T10:48:24.009Z</time></trkpt><trkpt lat="42.8137167" lon="13.2064269"><ele>1290.8333333333333</ele><time>2026-04-19T10:48:25.014Z</time></trkpt><trkpt lat="42.8137723" lon="13.2064951"><ele>1291.0</ele><time>2026-04-19T10:48:26.012Z</time></trkpt><trkpt lat="42.8138312" lon="13.2065662"><ele>1291.1666666666665</ele><time>2026-04-19T10:48:27.02Z</time></trkpt><trkpt lat="42.8138918" lon="13.2066374"><ele>1291.3333333333333</ele><time>2026-04-19T10:48:28.014Z</time></trkpt><trkpt lat="42.8139539" lon="13.2067104"><ele>1291.5</ele><time>2026-04-19T10:48:29.015Z</time></trkpt><trkpt lat="42.8140198" lon="13.206793"><ele>1291.6666666666667</ele><time>2026-04-19T10:48:30.016Z</time></trkpt><trkpt lat="42.8140876" lon="13.2068808"><ele>1291.8333333333335</ele><time>2026-04-19T10:48:31.013Z</time></trkpt><trkpt lat="42.8141616" lon="13.2069693"><ele>1292.0</ele><time>2026-04-19T10:48:32.016Z</time></trkpt><trkpt lat="42.8142338" lon="13.2070604"><ele>1292.0</ele><time>2026-04-19T10:48:33.011Z</time></trkpt><trkpt lat="42.8143085" lon="13.2071517"><ele>1292.0</ele><time>2026-04-19T10:48:34.016Z</time></trkpt><trkpt lat="42.814384" lon="13.2072424"><ele>1292.0</ele><time>2026-04-19T10:48:35.012Z</time></trkpt><trkpt lat="42.814464" lon="13.2073409"><ele>1292.0</ele><time>2026-04-19T10:48:36.017Z</time></trkpt><trkpt lat="42.814543" lon="13.2074419"><ele>1292.0</ele><time>2026-04-19T10:48:37.018Z</time></trkpt><trkpt lat="42.8146296" lon="13.207554"><ele>1292.0</ele><time>2026-04-19T10:48:38.01Z</time></trkpt><trkpt lat="42.8147219" lon="13.2076659"><ele>1292.0</ele><time>2026-04-19T10:48:39.017Z</time></trkpt><trkpt lat="42.8148157" lon="13.2077882"><ele>1292.0</ele><time>2026-04-19T10:48:40.015Z</time></trkpt><trkpt lat="42.8149197" lon="13.2079141"><ele>1292.0</ele><time>2026-04-19T10:48:41.015Z</time></trkpt><trkpt lat="42.8150258" lon="13.208047"><ele>1292.3333333333335</ele><time>2026-04-19T10:48:42.017Z</time></trkpt><trkpt lat="42.8151379" lon="13.2081889"><ele>1292.6666666666667</ele><time>2026-04-19T10:48:43.015Z</time></trkpt><trkpt lat="42.8152523" lon="13.2083263"><ele>1293.0</ele><time>2026-04-19T10:48:44.017Z</time></trkpt><trkpt lat="42.8153594" lon="13.2084619"><ele>1293.0</ele><time>2026-04-19T10:48:45.016Z</time></trkpt><trkpt lat="42.815464" lon="13.2086025"><ele>1293.0</ele><time>2026-04-19T10:48:46.02Z</time></trkpt><trkpt lat="42.8155736" lon="13.2087499"><ele>1293.0</ele><time>2026-04-19T10:48:47.017Z</time></trkpt><trkpt lat="42.8156839" lon="13.2088918"><ele>1294.0</ele><time>2026-04-19T10:48:48.023Z</time></trkpt><trkpt lat="42.8157928" lon="13.2090342"><ele>1295.0</ele><time>2026-04-19T10:48:49.012Z</time></trkpt><trkpt lat="42.8158999" lon="13.2091698"><ele>1296.0</ele><time>2026-04-19T10:48:50.016Z</time></trkpt><trkpt lat="42.8160143" lon="13.2093057"><ele>1297.0</ele><time>2026-04-19T10:48:51.013Z</time></trkpt><trkpt lat="42.8161188" lon="13.2094392"><ele>1297.0</ele><time>2026-04-19T10:48:52.022Z</time></trkpt><trkpt lat="42.816227" lon="13.2095715"><ele>1297.0</ele><time>2026-04-19T10:48:53.013Z</time></trkpt><trkpt lat="42.8163378" lon="13.2097043"><ele>1297.0</ele><time>2026-04-19T10:48:54.028Z</time></trkpt><trkpt lat="42.8164456" lon="13.2098464"><ele>1297.0</ele><time>2026-04-19T10:48:55.012Z</time></trkpt><trkpt lat="42.816554" lon="13.2099893"><ele>1297.0</ele><time>2026-04-19T10:48:56.013Z</time></trkpt><trkpt lat="42.816668" lon="13.2101309"><ele>1297.0</ele><time>2026-04-19T10:48:57.018Z</time></trkpt><trkpt lat="42.8167789" lon="13.2102701"><ele>1297.0</ele><time>2026-04-19T10:48:58.015Z</time></trkpt><trkpt lat="42.8168932" lon="13.2104204"><ele>1297.0</ele><time>2026-04-19T10:48:59.026Z</time></trkpt><trkpt lat="42.8170165" lon="13.2105728"><ele>1297.0</ele><time>2026-04-19T10:49:00.019Z</time></trkpt><trkpt lat="42.8171506" lon="13.210729"><ele>1297.0</ele><time>2026-04-19T10:49:01.013Z</time></trkpt><trkpt lat="42.8172936" lon="13.2108745"><ele>1297.0</ele><time>2026-04-19T10:49:02.007Z</time></trkpt><trkpt lat="42.8174397" lon="13.2109996"><ele>1297.0</ele><time>2026-04-19T10:49:03.017Z</time></trkpt><trkpt lat="42.8175911" lon="13.2111348"><ele>1297.0</ele><time>2026-04-19T10:49:04.014Z</time></trkpt><trkpt lat="42.817748" lon="13.2112585"><ele>1297.0</ele><time>2026-04-19T10:49:05.016Z</time></trkpt><trkpt lat="42.817905" lon="13.2113878"><ele>1297.0</ele><time>2026-04-19T10:49:06.018Z</time></trkpt><trkpt lat="42.8180625" lon="13.2115131"><ele>1297.0</ele><time>2026-04-19T10:49:07.012Z</time></trkpt><trkpt lat="42.8182232" lon="13.2116426"><ele>1297.0</ele><time>2026-04-19T10:49:08.022Z</time></trkpt><trkpt lat="42.8183774" lon="13.2117717"><ele>1297.0</ele><time>2026-04-19T10:49:09.012Z</time></trkpt><trkpt lat="42.8185295" lon="13.2118913"><ele>1297.0</ele><time>2026-04-19T10:49:10.013Z</time></trkpt><trkpt lat="42.8186701" lon="13.2120092"><ele>1297.6666666666665</ele><time>2026-04-19T10:49:11.02Z</time></trkpt><trkpt lat="42.8188073" lon="13.2121221"><ele>1298.3333333333333</ele><time>2026-04-19T10:49:12.018Z</time></trkpt><trkpt lat="42.818939" lon="13.2122234"><ele>1299.0</ele><time>2026-04-19T10:49:13.016Z</time></trkpt><trkpt lat="42.819068" lon="13.2123234"><ele>1299.0</ele><time>2026-04-19T10:49:14.018Z</time></trkpt><trkpt lat="42.8192004" lon="13.2124225"><ele>1299.0</ele><time>2026-04-19T10:49:15.016Z</time></trkpt><trkpt lat="42.8193327" lon="13.2125169"><ele>1299.0</ele><time>2026-04-19T10:49:16.018Z</time></trkpt><trkpt lat="42.8194657" lon="13.2126035"><ele>1299.0</ele><time>2026-04-19T10:49:17.014Z</time></trkpt><trkpt lat="42.8196042" lon="13.212696"><ele>1299.3333333333333</ele><time>2026-04-19T10:49:18.016Z</time></trkpt><trkpt lat="42.8197423" lon="13.2127815"><ele>1299.6666666666665</ele><time>2026-04-19T10:49:19.013Z</time></trkpt><trkpt lat="42.8198831" lon="13.212869"><ele>1300.0</ele><time>2026-04-19T10:49:20.015Z</time></trkpt><trkpt lat="42.8200225" lon="13.2129536"><ele>1300.3333333333333</ele><time>2026-04-19T10:49:21.017Z</time></trkpt><trkpt lat="42.8201543" lon="13.2130258"><ele>1300.6666666666667</ele><time>2026-04-19T10:49:22.019Z</time></trkpt><trkpt lat="42.8203008" lon="13.2131201"><ele>1301.0</ele><time>2026-04-19T10:49:23.021Z</time></trkpt><trkpt lat="42.820446" lon="13.2132051"><ele>1301.0</ele><time>2026-04-19T10:49:24.014Z</time></trkpt><trkpt lat="42.8205991" lon="13.2132656"><ele>1301.0</ele><time>2026-04-19T10:49:25.013Z</time></trkpt><trkpt lat="42.8207644" lon="13.213296"><ele>1301.0</ele><time>2026-04-19T10:49:26.013Z</time></trkpt><trkpt lat="42.820949" lon="13.21331"><ele>1301.6666666666667</ele><time>2026-04-19T10:49:27.021Z</time></trkpt><trkpt lat="42.8211564" lon="13.2133175"><ele>1302.3333333333333</ele><time>2026-04-19T10:49:28.016Z</time></trkpt><trkpt lat="42.8213655" lon="13.2133442"><ele>1303.0</ele><time>2026-04-19T10:49:29.018Z</time></trkpt><trkpt lat="42.8215565" lon="13.2133772"><ele>1303.0</ele><time>2026-04-19T10:49:30.018Z</time></trkpt><trkpt lat="42.8217366" lon="13.2134089"><ele>1303.0</ele><time>2026-04-19T10:49:31.015Z</time></trkpt><trkpt lat="42.8219127" lon="13.2134288"><ele>1303.0</ele><time>2026-04-19T10:49:32.015Z</time></trkpt><trkpt lat="42.8220886" lon="13.2134428"><ele>1302.6666666666665</ele><time>2026-04-19T10:49:33.02Z</time></trkpt><trkpt lat="42.822269" lon="13.213459"><ele>1302.3333333333333</ele><time>2026-04-19T10:49:34.016Z</time></trkpt><trkpt lat="42.8224527" lon="13.2134798"><ele>1302.0</ele><time>2026-04-19T10:49:35.016Z</time></trkpt><trkpt lat="42.8226312" lon="13.2134949"><ele>1302.6666666666667</ele><time>2026-04-19T10:49:36.019Z</time></trkpt><trkpt lat="42.822812" lon="13.2135054"><ele>1303.3333333333335</ele><time>2026-04-19T10:49:37.014Z</time></trkpt><trkpt lat="42.8229947" lon="13.2135245"><ele>1304.0</ele><time>2026-04-19T10:49:38.015Z</time></trkpt><trkpt lat="42.8231813" lon="13.2135431"><ele>1304.0</ele><time>2026-04-19T10:49:39.015Z</time></trkpt><trkpt lat="42.8233664" lon="13.2135596"><ele>1304.0</ele><time>2026-04-19T10:49:40.016Z</time></trkpt><trkpt lat="42.8235426" lon="13.2135737"><ele>1304.0</ele><time>2026-04-19T10:49:41.017Z</time></trkpt><trkpt lat="42.823712" lon="13.213589"><ele>1304.0</ele><time>2026-04-19T10:49:42.019Z</time></trkpt><trkpt lat="42.823884" lon="13.2136031"><ele>1304.0</ele><time>2026-04-19T10:49:43.014Z</time></trkpt><trkpt lat="42.8240607" lon="13.2136231"><ele>1304.0</ele><time>2026-04-19T10:49:44.023Z</time></trkpt><trkpt lat="42.8242353" lon="13.213644"><ele>1304.6666666666667</ele><time>2026-04-19T10:49:45.017Z</time></trkpt><trkpt lat="42.8244111" lon="13.2136659"><ele>1305.3333333333333</ele><time>2026-04-19T10:49:46.02Z</time></trkpt><trkpt lat="42.8245924" lon="13.213687"><ele>1306.0</ele><time>2026-04-19T10:49:47.015Z</time></trkpt><trkpt lat="42.8247744" lon="13.2137075"><ele>1306.0</ele><time>2026-04-19T10:49:48.013Z</time></trkpt><trkpt lat="42.8249621" lon="13.2137268"><ele>1306.0</ele><time>2026-04-19T10:49:49.016Z</time></trkpt><trkpt lat="42.8251465" lon="13.2137427"><ele>1306.0</ele><time>2026-04-19T10:49:50.018Z</time></trkpt><trkpt lat="42.8253351" lon="13.2137627"><ele>1306.3333333333333</ele><time>2026-04-19T10:49:51.015Z</time></trkpt><trkpt lat="42.8255257" lon="13.2137769"><ele>1306.6666666666667</ele><time>2026-04-19T10:49:52.015Z</time></trkpt><trkpt lat="42.8257183" lon="13.213799"><ele>1307.0</ele><time>2026-04-19T10:49:53.017Z</time></trkpt><trkpt lat="42.8259112" lon="13.2138199"><ele>1310.0</ele><time>2026-04-19T10:49:54.021Z</time></trkpt><trkpt lat="42.8260972" lon="13.2138375"><ele>1313.0</ele><time>2026-04-19T10:49:55.015Z</time></trkpt><trkpt lat="42.8262871" lon="13.2138474"><ele>1316.0</ele><time>2026-04-19T10:49:56.025Z</time></trkpt><trkpt lat="42.8264757" lon="13.2138587"><ele>1316.0</ele><time>2026-04-19T10:49:57.014Z</time></trkpt><trkpt lat="42.8266524" lon="13.2138666"><ele>1316.0</ele><time>2026-04-19T10:49:58.012Z</time></trkpt><trkpt lat="42.8268233" lon="13.2138823"><ele>1316.0</ele><time>2026-04-19T10:49:59.011Z</time></trkpt><trkpt lat="42.8269825" lon="13.213899"><ele>1318.0</ele><time>2026-04-19T10:50:00.011Z</time></trkpt><trkpt lat="42.8271177" lon="13.2139269"><ele>1320.0</ele><time>2026-04-19T10:50:01.009Z</time></trkpt><trkpt lat="42.8272336" lon="13.2139751"><ele>1322.0</ele><time>2026-04-19T10:50:02.015Z</time></trkpt><trkpt lat="42.8273387" lon="13.2140581"><ele>1324.0</ele><time>2026-04-19T10:50:03.008Z</time></trkpt><trkpt lat="42.8274314" lon="13.2141854"><ele>1324.0</ele><time>2026-04-19T10:50:04.002Z</time></trkpt><trkpt lat="42.8275111" lon="13.2143379"><ele>1324.0</ele><time>2026-04-19T10:50:05.008Z</time></trkpt><trkpt lat="42.8275884" lon="13.2145018"><ele>1324.0</ele><time>2026-04-19T10:50:06.014Z</time></trkpt><trkpt lat="42.8276664" lon="13.2146533"><ele>1324.0</ele><time>2026-04-19T10:50:07.006Z</time></trkpt><trkpt lat="42.8277343" lon="13.2147697"><ele>1324.8333333333333</ele><time>2026-04-19T10:50:08.014Z</time></trkpt><trkpt lat="42.8277983" lon="13.2148597"><ele>1325.6666666666665</ele><time>2026-04-19T10:50:09.006Z</time></trkpt><trkpt lat="42.8278565" lon="13.2149321"><ele>1326.5</ele><time>2026-04-19T10:50:10.008Z</time></trkpt><trkpt lat="42.8279245" lon="13.2149763"><ele>1327.3333333333333</ele><time>2026-04-19T10:50:11.01Z</time></trkpt><trkpt lat="42.8280072" lon="13.2150101"><ele>1328.1666666666667</ele><time>2026-04-19T10:50:12.016Z</time></trkpt><trkpt lat="42.8280912" lon="13.215014"><ele>1329.0</ele><time>2026-04-19T10:50:13.012Z</time></trkpt><trkpt lat="42.8281694" lon="13.2150089"><ele>1329.0</ele><time>2026-04-19T10:50:14.015Z</time></trkpt><trkpt lat="42.8282727" lon="13.2150091"><ele>1329.0</ele><time>2026-04-19T10:50:16.016Z</time></trkpt><trkpt lat="42.8283498" lon="13.2150057"><ele>1329.0</ele><time>2026-04-19T10:50:21.018Z</time></trkpt><trkpt lat="42.8284157" lon="13.2150077"><ele>1329.0</ele><time>2026-04-19T10:50:23.018Z</time></trkpt><trkpt lat="42.8285009" lon="13.2150183"><ele>1329.0</ele><time>2026-04-19T10:50:25.023Z</time></trkpt><trkpt lat="42.8286203" lon="13.215026"><ele>1330.1666666666667</ele><time>2026-04-19T10:50:27.013Z</time></trkpt><trkpt lat="42.8286945" lon="13.2150277"><ele>1331.3333333333333</ele><time>2026-04-19T10:50:28.011Z</time></trkpt><trkpt lat="42.8287766" lon="13.2150238"><ele>1332.5</ele><time>2026-04-19T10:50:29.011Z</time></trkpt><trkpt lat="42.8288636" lon="13.2150236"><ele>1333.6666666666665</ele><time>2026-04-19T10:50:30.018Z</time></trkpt><trkpt lat="42.8289459" lon="13.2150315"><ele>1334.8333333333333</ele><time>2026-04-19T10:50:31.016Z</time></trkpt><trkpt lat="42.8290214" lon="13.2150346"><ele>1336.0</ele><time>2026-04-19T10:50:32.012Z</time></trkpt><trkpt lat="42.8290954" lon="13.2150351"><ele>1336.0</ele><time>2026-04-19T10:50:33.017Z</time></trkpt><trkpt lat="42.8291644" lon="13.2150324"><ele>1336.0</ele><time>2026-04-19T10:50:34.013Z</time></trkpt><trkpt lat="42.8292347" lon="13.215023"><ele>1336.0</ele><time>2026-04-19T10:50:35.026Z</time></trkpt><trkpt lat="42.8293047" lon="13.2149994"><ele>1336.0</ele><time>2026-04-19T10:50:36.01Z</time></trkpt><trkpt lat="42.8293703" lon="13.2149563"><ele>1336.0</ele><time>2026-04-19T10:50:37.013Z</time></trkpt><trkpt lat="42.8294268" lon="13.2148989"><ele>1336.0</ele><time>2026-04-19T10:50:38.012Z</time></trkpt><trkpt lat="42.8294711" lon="13.2148293"><ele>1336.0</ele><time>2026-04-19T10:50:39.012Z</time></trkpt><trkpt lat="42.8295028" lon="13.214739"><ele>1336.5</ele><time>2026-04-19T10:50:40.007Z</time></trkpt><trkpt lat="42.829527" lon="13.2146474"><ele>1337.0</ele><time>2026-04-19T10:50:41.009Z</time></trkpt><trkpt lat="42.8295411" lon="13.2144991"><ele>1337.5</ele><time>2026-04-19T10:50:43.01Z</time></trkpt><trkpt lat="42.8295167" lon="13.2143964"><ele>1338.0</ele><time>2026-04-19T10:50:45.022Z</time></trkpt><trkpt lat="42.8294516" lon="13.214305"><ele>1338.5</ele><time>2026-04-19T10:50:57.016Z</time></trkpt><trkpt lat="42.8293892" lon="13.2142451"><ele>1339.0</ele><time>2026-04-19T10:50:59.01Z</time></trkpt><trkpt lat="42.8293144" lon="13.2142296"><ele>1340.4285714285716</ele><time>2026-04-19T10:51:02.012Z</time></trkpt><trkpt lat="42.8292502" lon="13.2142502"><ele>1341.8571428571427</ele><time>2026-04-19T10:51:08.012Z</time></trkpt><trkpt lat="42.8291889" lon="13.2142047"><ele>1343.2857142857142</ele><time>2026-04-19T10:51:12.019Z</time></trkpt><trkpt lat="42.8291122" lon="13.2141797"><ele>1344.7142857142858</ele><time>2026-04-19T10:51:17.007Z</time></trkpt><trkpt lat="42.8290338" lon="13.2141906"><ele>1346.1428571428573</ele><time>2026-04-19T10:51:21.007Z</time></trkpt><trkpt lat="42.8289648" lon="13.2142017"><ele>1347.5714285714284</ele><time>2026-04-19T10:51:24.016Z</time></trkpt><trkpt lat="42.8289025" lon="13.2142226"><ele>1349.0</ele><time>2026-04-19T10:51:27.005Z</time></trkpt><trkpt lat="42.8288187" lon="13.2142447"><ele>1349.0</ele><time>2026-04-19T10:51:31.043Z</time></trkpt><trkpt lat="42.8287505" lon="13.2142683"><ele>1349.0</ele><time>2026-04-19T10:51:35.006Z</time></trkpt><trkpt lat="42.8286878" lon="13.2142059"><ele>1349.0</ele><time>2026-04-19T10:52:29Z</time></trkpt><trkpt lat="42.8286253" lon="13.2141215"><ele>1349.0</ele><time>2026-04-19T10:52:32.002Z</time></trkpt><trkpt lat="42.8285703" lon="13.2140553"><ele>1349.0</ele><time>2026-04-19T10:52:35.005Z</time></trkpt><trkpt lat="42.8285133" lon="13.2139935"><ele>1349.0</ele><time>2026-04-19T10:52:39.007Z</time></trkpt><trkpt lat="42.8284871" lon="13.2139131"><ele>1349.0</ele><time>2026-04-19T10:52:42.001Z</time></trkpt><trkpt lat="42.8285267" lon="13.2138238"><ele>1350.3333333333335</ele><time>2026-04-19T10:52:44.007Z</time></trkpt><trkpt lat="42.8285778" lon="13.2137518"><ele>1351.6666666666667</ele><time>2026-04-19T10:52:46.007Z</time></trkpt><trkpt lat="42.8286453" lon="13.2137675"><ele>1353.0</ele><time>2026-04-19T10:52:48.004Z</time></trkpt><trkpt lat="42.8287105" lon="13.2138062"><ele>1354.3333333333333</ele><time>2026-04-19T10:52:50.006Z</time></trkpt><trkpt lat="42.8287884" lon="13.2138621"><ele>1355.6666666666665</ele><time>2026-04-19T10:52:52.003Z</time></trkpt><trkpt lat="42.8288607" lon="13.2139073"><ele>1357.0</ele><time>2026-04-19T10:52:54.006Z</time></trkpt><trkpt lat="42.8289296" lon="13.2139514"><ele>1357.0</ele><time>2026-04-19T10:52:58.008Z</time></trkpt><trkpt lat="42.8289799" lon="13.2140129"><ele>1349.0</ele><time>2026-04-19T10:53:11.089Z</time></trkpt><trkpt lat="42.8290544" lon="13.2140178"><ele>1349.0</ele><time>2026-04-19T10:53:16.009Z</time></trkpt><trkpt lat="42.8291083" lon="13.213967"><ele>1357.0</ele><time>2026-04-19T10:53:19.001Z</time></trkpt><trkpt lat="42.8291259" lon="13.2140568"><ele>1349.0</ele><time>2026-04-19T10:53:22.001Z</time></trkpt></trkseg></trk></gpx>